<?xml version="1.0" encoding="UTF-8" standalone="no" ?>
<gpx xmlns="http://www.topografix.com/GPX/1/1" xmlns:xsi="http://www.w3.org/2001/XMLSchema-instance" xsi:schemaLocation="http://www.topografix.com/GPX/1/1 http://www.topografix.com/GPX/1/1/gpx.xsd" version="1.1" creator="VisuGPX - https://www.visugpx.com">
  <metadata>
    <name>so 903</name>
  </metadata>
  <trk>
    <name><![CDATA[Parcours par boulon ... c est apres , que ça a vissé .]]></name>
    <trkseg>
      <trkpt lat="49.28647" lon="-0.11923">
        <ele>-0.4</ele>
        <time>2024-07-03T11:57:16Z</time>
      </trkpt>
      <trkpt lat="49.28647" lon="-0.11923">
        <ele>-0.2</ele>
        <time>2024-07-03T11:57:17Z</time>
      </trkpt>
      <trkpt lat="49.28643" lon="-0.11924">
        <ele>-0.2</ele>
        <time>2024-07-03T12:00:43Z</time>
      </trkpt>
      <trkpt lat="49.28642" lon="-0.11926">
        <ele>-0.4</ele>
        <time>2024-07-03T12:00:44Z</time>
      </trkpt>
      <trkpt lat="49.2864" lon="-0.11929">
        <ele>-0.6</ele>
        <time>2024-07-03T12:00:45Z</time>
      </trkpt>
      <trkpt lat="49.28638" lon="-0.11933">
        <ele>-0.8</ele>
        <time>2024-07-03T12:00:46Z</time>
      </trkpt>
      <trkpt lat="49.28637" lon="-0.11937">
        <ele>-1</ele>
        <time>2024-07-03T12:00:47Z</time>
      </trkpt>
      <trkpt lat="49.28635" lon="-0.11941">
        <ele>-1</ele>
        <time>2024-07-03T12:00:48Z</time>
      </trkpt>
      <trkpt lat="49.28633" lon="-0.11945">
        <ele>-1.2</ele>
        <time>2024-07-03T12:00:49Z</time>
      </trkpt>
      <trkpt lat="49.28631" lon="-0.11949">
        <ele>-1.4</ele>
        <time>2024-07-03T12:00:50Z</time>
      </trkpt>
      <trkpt lat="49.28628" lon="-0.11954">
        <ele>-1.6</ele>
        <time>2024-07-03T12:00:51Z</time>
      </trkpt>
      <trkpt lat="49.28626" lon="-0.11959">
        <ele>-1.6</ele>
        <time>2024-07-03T12:00:52Z</time>
      </trkpt>
      <trkpt lat="49.28623" lon="-0.11963">
        <ele>-1.8</ele>
        <time>2024-07-03T12:00:53Z</time>
      </trkpt>
      <trkpt lat="49.2862" lon="-0.11966">
        <ele>-1.8</ele>
        <time>2024-07-03T12:00:54Z</time>
      </trkpt>
      <trkpt lat="49.28617" lon="-0.11969">
        <ele>-1.6</ele>
        <time>2024-07-03T12:00:55Z</time>
      </trkpt>
      <trkpt lat="49.28614" lon="-0.11971">
        <ele>-1.4</ele>
        <time>2024-07-03T12:00:56Z</time>
      </trkpt>
      <trkpt lat="49.28611" lon="-0.11971">
        <ele>-1.4</ele>
        <time>2024-07-03T12:00:57Z</time>
      </trkpt>
      <trkpt lat="49.28608" lon="-0.11971">
        <ele>-1</ele>
        <time>2024-07-03T12:00:58Z</time>
      </trkpt>
      <trkpt lat="49.28605" lon="-0.11972">
        <ele>-1</ele>
        <time>2024-07-03T12:00:59Z</time>
      </trkpt>
      <trkpt lat="49.28603" lon="-0.11973">
        <ele>-0.8</ele>
        <time>2024-07-03T12:01:00Z</time>
      </trkpt>
      <trkpt lat="49.28601" lon="-0.11976">
        <ele>-0.8</ele>
        <time>2024-07-03T12:01:01Z</time>
      </trkpt>
      <trkpt lat="49.28599" lon="-0.11979">
        <ele>-0.8</ele>
        <time>2024-07-03T12:01:02Z</time>
      </trkpt>
      <trkpt lat="49.28597" lon="-0.11983">
        <ele>-1</ele>
        <time>2024-07-03T12:01:03Z</time>
      </trkpt>
      <trkpt lat="49.28595" lon="-0.11988">
        <ele>-1</ele>
        <time>2024-07-03T12:01:04Z</time>
      </trkpt>
      <trkpt lat="49.28593" lon="-0.11992">
        <ele>-1</ele>
        <time>2024-07-03T12:01:05Z</time>
      </trkpt>
      <trkpt lat="49.2859" lon="-0.11997">
        <ele>-1.2</ele>
        <time>2024-07-03T12:01:06Z</time>
      </trkpt>
      <trkpt lat="49.28587" lon="-0.12003">
        <ele>-1.2</ele>
        <time>2024-07-03T12:01:07Z</time>
      </trkpt>
      <trkpt lat="49.28584" lon="-0.12008">
        <ele>-1.4</ele>
        <time>2024-07-03T12:01:08Z</time>
      </trkpt>
      <trkpt lat="49.28581" lon="-0.12013">
        <ele>-1.4</ele>
        <time>2024-07-03T12:01:09Z</time>
      </trkpt>
      <trkpt lat="49.28577" lon="-0.12019">
        <ele>-1.4</ele>
        <time>2024-07-03T12:01:10Z</time>
      </trkpt>
      <trkpt lat="49.28573" lon="-0.12025">
        <ele>-1.4</ele>
        <time>2024-07-03T12:01:11Z</time>
      </trkpt>
      <trkpt lat="49.28569" lon="-0.12031">
        <ele>-1.6</ele>
        <time>2024-07-03T12:01:12Z</time>
      </trkpt>
      <trkpt lat="49.28566" lon="-0.12039">
        <ele>-1.6</ele>
        <time>2024-07-03T12:01:13Z</time>
      </trkpt>
      <trkpt lat="49.28564" lon="-0.12047">
        <ele>-1.6</ele>
        <time>2024-07-03T12:01:14Z</time>
      </trkpt>
      <trkpt lat="49.28562" lon="-0.12054">
        <ele>-1.8</ele>
        <time>2024-07-03T12:01:15Z</time>
      </trkpt>
      <trkpt lat="49.28559" lon="-0.12061">
        <ele>-1.8</ele>
        <time>2024-07-03T12:01:16Z</time>
      </trkpt>
      <trkpt lat="49.28555" lon="-0.12068">
        <ele>-1.8</ele>
        <time>2024-07-03T12:01:17Z</time>
      </trkpt>
      <trkpt lat="49.28551" lon="-0.12074">
        <ele>-1.8</ele>
        <time>2024-07-03T12:01:18Z</time>
      </trkpt>
      <trkpt lat="49.28547" lon="-0.12081">
        <ele>-1.8</ele>
        <time>2024-07-03T12:01:19Z</time>
      </trkpt>
      <trkpt lat="49.28543" lon="-0.12087">
        <ele>-1.8</ele>
        <time>2024-07-03T12:01:20Z</time>
      </trkpt>
      <trkpt lat="49.28539" lon="-0.12094">
        <ele>-1.6</ele>
        <time>2024-07-03T12:01:21Z</time>
      </trkpt>
      <trkpt lat="49.28536" lon="-0.121">
        <ele>-1.6</ele>
        <time>2024-07-03T12:01:22Z</time>
      </trkpt>
      <trkpt lat="49.28532" lon="-0.12107">
        <ele>-1.6</ele>
        <time>2024-07-03T12:01:23Z</time>
      </trkpt>
      <trkpt lat="49.28529" lon="-0.12113">
        <ele>-1.6</ele>
        <time>2024-07-03T12:01:24Z</time>
      </trkpt>
      <trkpt lat="49.28525" lon="-0.12118">
        <ele>-1.6</ele>
        <time>2024-07-03T12:01:25Z</time>
      </trkpt>
      <trkpt lat="49.28521" lon="-0.12125">
        <ele>-1.6</ele>
        <time>2024-07-03T12:01:26Z</time>
      </trkpt>
      <trkpt lat="49.28517" lon="-0.12131">
        <ele>-1.6</ele>
        <time>2024-07-03T12:01:27Z</time>
      </trkpt>
      <trkpt lat="49.28514" lon="-0.12138">
        <ele>-1.6</ele>
        <time>2024-07-03T12:01:28Z</time>
      </trkpt>
      <trkpt lat="49.2851" lon="-0.12144">
        <ele>-1.6</ele>
        <time>2024-07-03T12:01:29Z</time>
      </trkpt>
      <trkpt lat="49.28505" lon="-0.12151">
        <ele>-1.6</ele>
        <time>2024-07-03T12:01:30Z</time>
      </trkpt>
      <trkpt lat="49.28502" lon="-0.12157">
        <ele>-1.6</ele>
        <time>2024-07-03T12:01:31Z</time>
      </trkpt>
      <trkpt lat="49.28498" lon="-0.12164">
        <ele>-1.6</ele>
        <time>2024-07-03T12:01:32Z</time>
      </trkpt>
      <trkpt lat="49.28494" lon="-0.12171">
        <ele>-1.6</ele>
        <time>2024-07-03T12:01:33Z</time>
      </trkpt>
      <trkpt lat="49.2849" lon="-0.12178">
        <ele>-1.6</ele>
        <time>2024-07-03T12:01:34Z</time>
      </trkpt>
      <trkpt lat="49.28487" lon="-0.12184">
        <ele>-1.6</ele>
        <time>2024-07-03T12:01:35Z</time>
      </trkpt>
      <trkpt lat="49.28485" lon="-0.1219">
        <ele>-1.6</ele>
        <time>2024-07-03T12:01:36Z</time>
      </trkpt>
      <trkpt lat="49.28483" lon="-0.12195">
        <ele>-1.6</ele>
        <time>2024-07-03T12:01:37Z</time>
      </trkpt>
      <trkpt lat="49.28482" lon="-0.12199">
        <ele>-1.6</ele>
        <time>2024-07-03T12:01:38Z</time>
      </trkpt>
      <trkpt lat="49.28481" lon="-0.12201">
        <ele>-1.6</ele>
        <time>2024-07-03T12:01:39Z</time>
      </trkpt>
      <trkpt lat="49.28479" lon="-0.12204">
        <ele>-1.4</ele>
        <time>2024-07-03T12:01:40Z</time>
      </trkpt>
      <trkpt lat="49.28478" lon="-0.12208">
        <ele>-1.4</ele>
        <time>2024-07-03T12:01:41Z</time>
      </trkpt>
      <trkpt lat="49.28476" lon="-0.12211">
        <ele>-1.2</ele>
        <time>2024-07-03T12:01:42Z</time>
      </trkpt>
      <trkpt lat="49.28473" lon="-0.12215">
        <ele>-1.2</ele>
        <time>2024-07-03T12:01:43Z</time>
      </trkpt>
      <trkpt lat="49.28469" lon="-0.12219">
        <ele>-1.2</ele>
        <time>2024-07-03T12:01:44Z</time>
      </trkpt>
      <trkpt lat="49.28465" lon="-0.12223">
        <ele>-1.2</ele>
        <time>2024-07-03T12:01:45Z</time>
      </trkpt>
      <trkpt lat="49.28462" lon="-0.12228">
        <ele>-1.4</ele>
        <time>2024-07-03T12:01:46Z</time>
      </trkpt>
      <trkpt lat="49.28458" lon="-0.12234">
        <ele>-1.6</ele>
        <time>2024-07-03T12:01:47Z</time>
      </trkpt>
      <trkpt lat="49.28455" lon="-0.12239">
        <ele>-1.8</ele>
        <time>2024-07-03T12:01:48Z</time>
      </trkpt>
      <trkpt lat="49.28451" lon="-0.12245">
        <ele>-2</ele>
        <time>2024-07-03T12:01:49Z</time>
      </trkpt>
      <trkpt lat="49.28448" lon="-0.1225">
        <ele>-2.2</ele>
        <time>2024-07-03T12:01:50Z</time>
      </trkpt>
      <trkpt lat="49.28445" lon="-0.12255">
        <ele>-2.2</ele>
        <time>2024-07-03T12:01:51Z</time>
      </trkpt>
      <trkpt lat="49.28442" lon="-0.1226">
        <ele>-2.4</ele>
        <time>2024-07-03T12:01:52Z</time>
      </trkpt>
      <trkpt lat="49.28439" lon="-0.12265">
        <ele>-2.4</ele>
        <time>2024-07-03T12:01:53Z</time>
      </trkpt>
      <trkpt lat="49.28435" lon="-0.12272">
        <ele>-2.8</ele>
        <time>2024-07-03T12:01:54Z</time>
      </trkpt>
      <trkpt lat="49.28432" lon="-0.12278">
        <ele>-3.2</ele>
        <time>2024-07-03T12:01:55Z</time>
      </trkpt>
      <trkpt lat="49.28429" lon="-0.12284">
        <ele>-3.4</ele>
        <time>2024-07-03T12:01:56Z</time>
      </trkpt>
      <trkpt lat="49.28425" lon="-0.1229">
        <ele>-3.6</ele>
        <time>2024-07-03T12:01:57Z</time>
      </trkpt>
      <trkpt lat="49.28422" lon="-0.12296">
        <ele>-3.8</ele>
        <time>2024-07-03T12:01:58Z</time>
      </trkpt>
      <trkpt lat="49.28419" lon="-0.12302">
        <ele>-3.8</ele>
        <time>2024-07-03T12:01:59Z</time>
      </trkpt>
      <trkpt lat="49.28416" lon="-0.12309">
        <ele>-3.8</ele>
        <time>2024-07-03T12:02:00Z</time>
      </trkpt>
      <trkpt lat="49.28413" lon="-0.12315">
        <ele>-3.6</ele>
        <time>2024-07-03T12:02:01Z</time>
      </trkpt>
      <trkpt lat="49.2841" lon="-0.12322">
        <ele>-3.4</ele>
        <time>2024-07-03T12:02:02Z</time>
      </trkpt>
      <trkpt lat="49.28406" lon="-0.12328">
        <ele>-3.2</ele>
        <time>2024-07-03T12:02:03Z</time>
      </trkpt>
      <trkpt lat="49.28402" lon="-0.12335">
        <ele>-3.2</ele>
        <time>2024-07-03T12:02:04Z</time>
      </trkpt>
      <trkpt lat="49.28399" lon="-0.12341">
        <ele>-3.2</ele>
        <time>2024-07-03T12:02:05Z</time>
      </trkpt>
      <trkpt lat="49.28395" lon="-0.12348">
        <ele>-3.4</ele>
        <time>2024-07-03T12:02:06Z</time>
      </trkpt>
      <trkpt lat="49.28391" lon="-0.12354">
        <ele>-3.4</ele>
        <time>2024-07-03T12:02:07Z</time>
      </trkpt>
      <trkpt lat="49.28388" lon="-0.1236">
        <ele>-3.4</ele>
        <time>2024-07-03T12:02:08Z</time>
      </trkpt>
      <trkpt lat="49.28384" lon="-0.12366">
        <ele>-3.4</ele>
        <time>2024-07-03T12:02:09Z</time>
      </trkpt>
      <trkpt lat="49.28381" lon="-0.12373">
        <ele>-3.4</ele>
        <time>2024-07-03T12:02:10Z</time>
      </trkpt>
      <trkpt lat="49.28377" lon="-0.12379">
        <ele>-3</ele>
        <time>2024-07-03T12:02:11Z</time>
      </trkpt>
      <trkpt lat="49.28373" lon="-0.12386">
        <ele>-2.6</ele>
        <time>2024-07-03T12:02:12Z</time>
      </trkpt>
      <trkpt lat="49.28369" lon="-0.12392">
        <ele>-2.2</ele>
        <time>2024-07-03T12:02:13Z</time>
      </trkpt>
      <trkpt lat="49.28366" lon="-0.12399">
        <ele>-2</ele>
        <time>2024-07-03T12:02:14Z</time>
      </trkpt>
      <trkpt lat="49.28362" lon="-0.12406">
        <ele>-2</ele>
        <time>2024-07-03T12:02:15Z</time>
      </trkpt>
      <trkpt lat="49.2836" lon="-0.12415">
        <ele>-1.8</ele>
        <time>2024-07-03T12:02:16Z</time>
      </trkpt>
      <trkpt lat="49.2836" lon="-0.12424">
        <ele>-2</ele>
        <time>2024-07-03T12:02:17Z</time>
      </trkpt>
      <trkpt lat="49.28362" lon="-0.12434">
        <ele>-2</ele>
        <time>2024-07-03T12:02:18Z</time>
      </trkpt>
      <trkpt lat="49.28365" lon="-0.12442">
        <ele>-2</ele>
        <time>2024-07-03T12:02:19Z</time>
      </trkpt>
      <trkpt lat="49.28369" lon="-0.12449">
        <ele>-2</ele>
        <time>2024-07-03T12:02:20Z</time>
      </trkpt>
      <trkpt lat="49.28374" lon="-0.12455">
        <ele>-2</ele>
        <time>2024-07-03T12:02:21Z</time>
      </trkpt>
      <trkpt lat="49.28379" lon="-0.1246">
        <ele>-1.6</ele>
        <time>2024-07-03T12:02:22Z</time>
      </trkpt>
      <trkpt lat="49.28385" lon="-0.12466">
        <ele>-1.4</ele>
        <time>2024-07-03T12:02:23Z</time>
      </trkpt>
      <trkpt lat="49.2839" lon="-0.12471">
        <ele>-1.2</ele>
        <time>2024-07-03T12:02:24Z</time>
      </trkpt>
      <trkpt lat="49.28396" lon="-0.12477">
        <ele>-1.2</ele>
        <time>2024-07-03T12:02:25Z</time>
      </trkpt>
      <trkpt lat="49.28402" lon="-0.12483">
        <ele>-1</ele>
        <time>2024-07-03T12:02:26Z</time>
      </trkpt>
      <trkpt lat="49.28408" lon="-0.12489">
        <ele>-1</ele>
        <time>2024-07-03T12:02:27Z</time>
      </trkpt>
      <trkpt lat="49.28414" lon="-0.12494">
        <ele>-1.2</ele>
        <time>2024-07-03T12:02:28Z</time>
      </trkpt>
      <trkpt lat="49.28421" lon="-0.12498">
        <ele>-1.4</ele>
        <time>2024-07-03T12:02:29Z</time>
      </trkpt>
      <trkpt lat="49.28428" lon="-0.12502">
        <ele>-1.8</ele>
        <time>2024-07-03T12:02:30Z</time>
      </trkpt>
      <trkpt lat="49.28435" lon="-0.12507">
        <ele>-2</ele>
        <time>2024-07-03T12:02:31Z</time>
      </trkpt>
      <trkpt lat="49.28441" lon="-0.12511">
        <ele>-2</ele>
        <time>2024-07-03T12:02:32Z</time>
      </trkpt>
      <trkpt lat="49.28447" lon="-0.12515">
        <ele>-2.2</ele>
        <time>2024-07-03T12:02:33Z</time>
      </trkpt>
      <trkpt lat="49.28454" lon="-0.12519">
        <ele>-2.4</ele>
        <time>2024-07-03T12:02:34Z</time>
      </trkpt>
      <trkpt lat="49.2846" lon="-0.12522">
        <ele>-2.6</ele>
        <time>2024-07-03T12:02:35Z</time>
      </trkpt>
      <trkpt lat="49.28465" lon="-0.12526">
        <ele>-2.8</ele>
        <time>2024-07-03T12:02:36Z</time>
      </trkpt>
      <trkpt lat="49.28471" lon="-0.12529">
        <ele>-3</ele>
        <time>2024-07-03T12:02:37Z</time>
      </trkpt>
      <trkpt lat="49.28477" lon="-0.12533">
        <ele>-3</ele>
        <time>2024-07-03T12:02:38Z</time>
      </trkpt>
      <trkpt lat="49.28483" lon="-0.12536">
        <ele>-3.2</ele>
        <time>2024-07-03T12:02:39Z</time>
      </trkpt>
      <trkpt lat="49.28488" lon="-0.12539">
        <ele>-3</ele>
        <time>2024-07-03T12:02:40Z</time>
      </trkpt>
      <trkpt lat="49.28494" lon="-0.12542">
        <ele>-2.8</ele>
        <time>2024-07-03T12:02:41Z</time>
      </trkpt>
      <trkpt lat="49.28499" lon="-0.12544">
        <ele>-2.6</ele>
        <time>2024-07-03T12:02:42Z</time>
      </trkpt>
      <trkpt lat="49.28505" lon="-0.12545">
        <ele>-2.4</ele>
        <time>2024-07-03T12:02:43Z</time>
      </trkpt>
      <trkpt lat="49.2851" lon="-0.12547">
        <ele>-2.4</ele>
        <time>2024-07-03T12:02:44Z</time>
      </trkpt>
      <trkpt lat="49.28514" lon="-0.12547">
        <ele>-2.2</ele>
        <time>2024-07-03T12:02:45Z</time>
      </trkpt>
      <trkpt lat="49.28519" lon="-0.12545">
        <ele>-1.8</ele>
        <time>2024-07-03T12:02:46Z</time>
      </trkpt>
      <trkpt lat="49.28524" lon="-0.12543">
        <ele>-1.6</ele>
        <time>2024-07-03T12:02:47Z</time>
      </trkpt>
      <trkpt lat="49.28528" lon="-0.1254">
        <ele>-1.2</ele>
        <time>2024-07-03T12:02:48Z</time>
      </trkpt>
      <trkpt lat="49.28533" lon="-0.12538">
        <ele>-0.8</ele>
        <time>2024-07-03T12:02:49Z</time>
      </trkpt>
      <trkpt lat="49.28538" lon="-0.12537">
        <ele>-0.4</ele>
        <time>2024-07-03T12:02:50Z</time>
      </trkpt>
      <trkpt lat="49.28544" lon="-0.12539">
        <ele>-0.2</ele>
        <time>2024-07-03T12:02:51Z</time>
      </trkpt>
      <trkpt lat="49.28549" lon="-0.12542">
        <ele>-0.2</ele>
        <time>2024-07-03T12:02:52Z</time>
      </trkpt>
      <trkpt lat="49.28554" lon="-0.12547">
        <ele>-0.2</ele>
        <time>2024-07-03T12:02:53Z</time>
      </trkpt>
      <trkpt lat="49.28559" lon="-0.12552">
        <ele>-0.4</ele>
        <time>2024-07-03T12:02:54Z</time>
      </trkpt>
      <trkpt lat="49.28565" lon="-0.12558">
        <ele>-1</ele>
        <time>2024-07-03T12:02:55Z</time>
      </trkpt>
      <trkpt lat="49.2857" lon="-0.12562">
        <ele>-1.4</ele>
        <time>2024-07-03T12:02:56Z</time>
      </trkpt>
      <trkpt lat="49.28576" lon="-0.12564">
        <ele>-1.6</ele>
        <time>2024-07-03T12:02:57Z</time>
      </trkpt>
      <trkpt lat="49.28582" lon="-0.12566">
        <ele>-1.8</ele>
        <time>2024-07-03T12:02:58Z</time>
      </trkpt>
      <trkpt lat="49.28588" lon="-0.12568">
        <ele>-1.8</ele>
        <time>2024-07-03T12:02:59Z</time>
      </trkpt>
      <trkpt lat="49.28595" lon="-0.12569">
        <ele>-1.8</ele>
        <time>2024-07-03T12:03:00Z</time>
      </trkpt>
      <trkpt lat="49.28601" lon="-0.12571">
        <ele>-1.8</ele>
        <time>2024-07-03T12:03:01Z</time>
      </trkpt>
      <trkpt lat="49.28608" lon="-0.12573">
        <ele>-2</ele>
        <time>2024-07-03T12:03:02Z</time>
      </trkpt>
      <trkpt lat="49.28614" lon="-0.12575">
        <ele>-2</ele>
        <time>2024-07-03T12:03:03Z</time>
      </trkpt>
      <trkpt lat="49.28621" lon="-0.12577">
        <ele>-2.4</ele>
        <time>2024-07-03T12:03:04Z</time>
      </trkpt>
      <trkpt lat="49.28627" lon="-0.12578">
        <ele>-2.2</ele>
        <time>2024-07-03T12:03:05Z</time>
      </trkpt>
      <trkpt lat="49.28633" lon="-0.1258">
        <ele>-2.2</ele>
        <time>2024-07-03T12:03:06Z</time>
      </trkpt>
      <trkpt lat="49.2864" lon="-0.12582">
        <ele>-2.4</ele>
        <time>2024-07-03T12:03:07Z</time>
      </trkpt>
      <trkpt lat="49.28646" lon="-0.12584">
        <ele>-2.4</ele>
        <time>2024-07-03T12:03:08Z</time>
      </trkpt>
      <trkpt lat="49.28653" lon="-0.12586">
        <ele>-2.2</ele>
        <time>2024-07-03T12:03:09Z</time>
      </trkpt>
      <trkpt lat="49.28659" lon="-0.12588">
        <ele>-2</ele>
        <time>2024-07-03T12:03:10Z</time>
      </trkpt>
      <trkpt lat="49.28666" lon="-0.1259">
        <ele>-1.8</ele>
        <time>2024-07-03T12:03:11Z</time>
      </trkpt>
      <trkpt lat="49.28673" lon="-0.12592">
        <ele>-1.4</ele>
        <time>2024-07-03T12:03:12Z</time>
      </trkpt>
      <trkpt lat="49.2868" lon="-0.12594">
        <ele>-1.2</ele>
        <time>2024-07-03T12:03:13Z</time>
      </trkpt>
      <trkpt lat="49.28685" lon="-0.12596">
        <ele>-1</ele>
        <time>2024-07-03T12:03:14Z</time>
      </trkpt>
      <trkpt lat="49.28691" lon="-0.12598">
        <ele>-0.8</ele>
        <time>2024-07-03T12:03:15Z</time>
      </trkpt>
      <trkpt lat="49.28697" lon="-0.126">
        <ele>-0.6</ele>
        <time>2024-07-03T12:03:16Z</time>
      </trkpt>
      <trkpt lat="49.28702" lon="-0.12601">
        <ele>-0.6</ele>
        <time>2024-07-03T12:03:17Z</time>
      </trkpt>
      <trkpt lat="49.28708" lon="-0.12602">
        <ele>-0.6</ele>
        <time>2024-07-03T12:03:18Z</time>
      </trkpt>
      <trkpt lat="49.28712" lon="-0.12604">
        <ele>-0.6</ele>
        <time>2024-07-03T12:03:19Z</time>
      </trkpt>
      <trkpt lat="49.28715" lon="-0.12605">
        <ele>-0.8</ele>
        <time>2024-07-03T12:03:20Z</time>
      </trkpt>
      <trkpt lat="49.28717" lon="-0.12606">
        <ele>-0.8</ele>
        <time>2024-07-03T12:03:21Z</time>
      </trkpt>
      <trkpt lat="49.28718" lon="-0.12607">
        <ele>-0.8</ele>
        <time>2024-07-03T12:03:22Z</time>
      </trkpt>
      <trkpt lat="49.28718" lon="-0.12608">
        <ele>-0.6</ele>
        <time>2024-07-03T12:03:23Z</time>
      </trkpt>
      <trkpt lat="49.2872" lon="-0.12609">
        <ele>-0.2</ele>
        <time>2024-07-03T12:03:24Z</time>
      </trkpt>
      <trkpt lat="49.28721" lon="-0.1261">
        <ele>5</ele>
        <time>2024-07-03T12:03:25Z</time>
      </trkpt>
      <trkpt lat="49.28722" lon="-0.12612">
        <ele>0.2</ele>
        <time>2024-07-03T12:03:26Z</time>
      </trkpt>
      <trkpt lat="49.28723" lon="-0.12615">
        <ele>0.2</ele>
        <time>2024-07-03T12:03:27Z</time>
      </trkpt>
      <trkpt lat="49.28724" lon="-0.12619">
        <ele>0.2</ele>
        <time>2024-07-03T12:03:28Z</time>
      </trkpt>
      <trkpt lat="49.28724" lon="-0.12622">
        <ele>0.2</ele>
        <time>2024-07-03T12:03:29Z</time>
      </trkpt>
      <trkpt lat="49.28724" lon="-0.12626">
        <ele>0.2</ele>
        <time>2024-07-03T12:03:30Z</time>
      </trkpt>
      <trkpt lat="49.28723" lon="-0.1263">
        <ele>0.2</ele>
        <time>2024-07-03T12:03:31Z</time>
      </trkpt>
      <trkpt lat="49.28722" lon="-0.12634">
        <ele>0.2</ele>
        <time>2024-07-03T12:03:32Z</time>
      </trkpt>
      <trkpt lat="49.28722" lon="-0.12638">
        <ele>5</ele>
        <time>2024-07-03T12:03:33Z</time>
      </trkpt>
      <trkpt lat="49.28721" lon="-0.12643">
        <ele>4.8</ele>
        <time>2024-07-03T12:03:34Z</time>
      </trkpt>
      <trkpt lat="49.28721" lon="-0.12648">
        <ele>4.6</ele>
        <time>2024-07-03T12:03:35Z</time>
      </trkpt>
      <trkpt lat="49.2872" lon="-0.12654">
        <ele>-0.2</ele>
        <time>2024-07-03T12:03:36Z</time>
      </trkpt>
      <trkpt lat="49.28719" lon="-0.12661">
        <ele>-0.4</ele>
        <time>2024-07-03T12:03:37Z</time>
      </trkpt>
      <trkpt lat="49.28719" lon="-0.12668">
        <ele>-0.6</ele>
        <time>2024-07-03T12:03:38Z</time>
      </trkpt>
      <trkpt lat="49.28718" lon="-0.12676">
        <ele>-1</ele>
        <time>2024-07-03T12:03:39Z</time>
      </trkpt>
      <trkpt lat="49.28716" lon="-0.12684">
        <ele>-1.2</ele>
        <time>2024-07-03T12:03:40Z</time>
      </trkpt>
      <trkpt lat="49.28715" lon="-0.12693">
        <ele>-1.4</ele>
        <time>2024-07-03T12:03:41Z</time>
      </trkpt>
      <trkpt lat="49.28714" lon="-0.12702">
        <ele>-1.6</ele>
        <time>2024-07-03T12:03:42Z</time>
      </trkpt>
      <trkpt lat="49.28713" lon="-0.12711">
        <ele>-1.8</ele>
        <time>2024-07-03T12:03:43Z</time>
      </trkpt>
      <trkpt lat="49.28712" lon="-0.1272">
        <ele>-2</ele>
        <time>2024-07-03T12:03:44Z</time>
      </trkpt>
      <trkpt lat="49.2871" lon="-0.12729">
        <ele>-2</ele>
        <time>2024-07-03T12:03:45Z</time>
      </trkpt>
      <trkpt lat="49.28709" lon="-0.12738">
        <ele>-2.2</ele>
        <time>2024-07-03T12:03:46Z</time>
      </trkpt>
      <trkpt lat="49.28708" lon="-0.12748">
        <ele>-2</ele>
        <time>2024-07-03T12:03:47Z</time>
      </trkpt>
      <trkpt lat="49.28706" lon="-0.12757">
        <ele>-2</ele>
        <time>2024-07-03T12:03:48Z</time>
      </trkpt>
      <trkpt lat="49.28705" lon="-0.12767">
        <ele>-2</ele>
        <time>2024-07-03T12:03:49Z</time>
      </trkpt>
      <trkpt lat="49.28704" lon="-0.12777">
        <ele>-2</ele>
        <time>2024-07-03T12:03:50Z</time>
      </trkpt>
      <trkpt lat="49.28703" lon="-0.12786">
        <ele>-2.2</ele>
        <time>2024-07-03T12:03:51Z</time>
      </trkpt>
      <trkpt lat="49.28701" lon="-0.12796">
        <ele>-2.4</ele>
        <time>2024-07-03T12:03:52Z</time>
      </trkpt>
      <trkpt lat="49.287" lon="-0.12806">
        <ele>-2.6</ele>
        <time>2024-07-03T12:03:53Z</time>
      </trkpt>
      <trkpt lat="49.28699" lon="-0.12815">
        <ele>-2.8</ele>
        <time>2024-07-03T12:03:54Z</time>
      </trkpt>
      <trkpt lat="49.28698" lon="-0.12825">
        <ele>-3</ele>
        <time>2024-07-03T12:03:55Z</time>
      </trkpt>
      <trkpt lat="49.28696" lon="-0.12835">
        <ele>-3</ele>
        <time>2024-07-03T12:03:56Z</time>
      </trkpt>
      <trkpt lat="49.28695" lon="-0.12845">
        <ele>-3</ele>
        <time>2024-07-03T12:03:57Z</time>
      </trkpt>
      <trkpt lat="49.28693" lon="-0.12854">
        <ele>-3.2</ele>
        <time>2024-07-03T12:03:58Z</time>
      </trkpt>
      <trkpt lat="49.28692" lon="-0.12865">
        <ele>-3.2</ele>
        <time>2024-07-03T12:03:59Z</time>
      </trkpt>
      <trkpt lat="49.2869" lon="-0.12874">
        <ele>-3.2</ele>
        <time>2024-07-03T12:04:00Z</time>
      </trkpt>
      <trkpt lat="49.28689" lon="-0.12884">
        <ele>-3.2</ele>
        <time>2024-07-03T12:04:01Z</time>
      </trkpt>
      <trkpt lat="49.28688" lon="-0.12893">
        <ele>-3.2</ele>
        <time>2024-07-03T12:04:02Z</time>
      </trkpt>
      <trkpt lat="49.28687" lon="-0.12903">
        <ele>-3.2</ele>
        <time>2024-07-03T12:04:03Z</time>
      </trkpt>
      <trkpt lat="49.28686" lon="-0.12913">
        <ele>-3.2</ele>
        <time>2024-07-03T12:04:04Z</time>
      </trkpt>
      <trkpt lat="49.28684" lon="-0.12923">
        <ele>-3.2</ele>
        <time>2024-07-03T12:04:05Z</time>
      </trkpt>
      <trkpt lat="49.28683" lon="-0.12933">
        <ele>-3.2</ele>
        <time>2024-07-03T12:04:06Z</time>
      </trkpt>
      <trkpt lat="49.28682" lon="-0.12944">
        <ele>-3.2</ele>
        <time>2024-07-03T12:04:07Z</time>
      </trkpt>
      <trkpt lat="49.2868" lon="-0.12954">
        <ele>-3.2</ele>
        <time>2024-07-03T12:04:08Z</time>
      </trkpt>
      <trkpt lat="49.28679" lon="-0.12964">
        <ele>-3.2</ele>
        <time>2024-07-03T12:04:09Z</time>
      </trkpt>
      <trkpt lat="49.28677" lon="-0.12974">
        <ele>-3.2</ele>
        <time>2024-07-03T12:04:10Z</time>
      </trkpt>
      <trkpt lat="49.28676" lon="-0.12984">
        <ele>-3.2</ele>
        <time>2024-07-03T12:04:11Z</time>
      </trkpt>
      <trkpt lat="49.28675" lon="-0.12994">
        <ele>-3.4</ele>
        <time>2024-07-03T12:04:12Z</time>
      </trkpt>
      <trkpt lat="49.28674" lon="-0.13004">
        <ele>-3.4</ele>
        <time>2024-07-03T12:04:13Z</time>
      </trkpt>
      <trkpt lat="49.28672" lon="-0.13014">
        <ele>-3.2</ele>
        <time>2024-07-03T12:04:14Z</time>
      </trkpt>
      <trkpt lat="49.28671" lon="-0.13023">
        <ele>-3.2</ele>
        <time>2024-07-03T12:04:15Z</time>
      </trkpt>
      <trkpt lat="49.2867" lon="-0.13033">
        <ele>-3.2</ele>
        <time>2024-07-03T12:04:16Z</time>
      </trkpt>
      <trkpt lat="49.28669" lon="-0.13043">
        <ele>-3.2</ele>
        <time>2024-07-03T12:04:17Z</time>
      </trkpt>
      <trkpt lat="49.28668" lon="-0.13052">
        <ele>-3.2</ele>
        <time>2024-07-03T12:04:18Z</time>
      </trkpt>
      <trkpt lat="49.28666" lon="-0.13062">
        <ele>-3.4</ele>
        <time>2024-07-03T12:04:19Z</time>
      </trkpt>
      <trkpt lat="49.28665" lon="-0.13071">
        <ele>-3.6</ele>
        <time>2024-07-03T12:04:20Z</time>
      </trkpt>
      <trkpt lat="49.28664" lon="-0.13081">
        <ele>-3.6</ele>
        <time>2024-07-03T12:04:21Z</time>
      </trkpt>
      <trkpt lat="49.28662" lon="-0.13091">
        <ele>-3.8</ele>
        <time>2024-07-03T12:04:22Z</time>
      </trkpt>
      <trkpt lat="49.28661" lon="-0.131">
        <ele>-3.8</ele>
        <time>2024-07-03T12:04:23Z</time>
      </trkpt>
      <trkpt lat="49.2866" lon="-0.1311">
        <ele>-3.6</ele>
        <time>2024-07-03T12:04:24Z</time>
      </trkpt>
      <trkpt lat="49.28659" lon="-0.13119">
        <ele>-3.4</ele>
        <time>2024-07-03T12:04:25Z</time>
      </trkpt>
      <trkpt lat="49.28658" lon="-0.13128">
        <ele>-3.2</ele>
        <time>2024-07-03T12:04:26Z</time>
      </trkpt>
      <trkpt lat="49.28657" lon="-0.13138">
        <ele>-3</ele>
        <time>2024-07-03T12:04:27Z</time>
      </trkpt>
      <trkpt lat="49.28656" lon="-0.13148">
        <ele>-2.8</ele>
        <time>2024-07-03T12:04:28Z</time>
      </trkpt>
      <trkpt lat="49.28654" lon="-0.13158">
        <ele>-2.8</ele>
        <time>2024-07-03T12:04:29Z</time>
      </trkpt>
      <trkpt lat="49.28653" lon="-0.13169">
        <ele>-2.8</ele>
        <time>2024-07-03T12:04:30Z</time>
      </trkpt>
      <trkpt lat="49.28652" lon="-0.13179">
        <ele>-2.8</ele>
        <time>2024-07-03T12:04:31Z</time>
      </trkpt>
      <trkpt lat="49.2865" lon="-0.13188">
        <ele>-2.8</ele>
        <time>2024-07-03T12:04:32Z</time>
      </trkpt>
      <trkpt lat="49.28649" lon="-0.13198">
        <ele>-3</ele>
        <time>2024-07-03T12:04:33Z</time>
      </trkpt>
      <trkpt lat="49.28647" lon="-0.13208">
        <ele>-3</ele>
        <time>2024-07-03T12:04:34Z</time>
      </trkpt>
      <trkpt lat="49.28645" lon="-0.13218">
        <ele>-3.2</ele>
        <time>2024-07-03T12:04:35Z</time>
      </trkpt>
      <trkpt lat="49.28644" lon="-0.13228">
        <ele>-3.2</ele>
        <time>2024-07-03T12:04:36Z</time>
      </trkpt>
      <trkpt lat="49.28643" lon="-0.13238">
        <ele>-2.8</ele>
        <time>2024-07-03T12:04:37Z</time>
      </trkpt>
      <trkpt lat="49.28642" lon="-0.13248">
        <ele>-2.4</ele>
        <time>2024-07-03T12:04:38Z</time>
      </trkpt>
      <trkpt lat="49.2864" lon="-0.13257">
        <ele>-2.4</ele>
        <time>2024-07-03T12:04:39Z</time>
      </trkpt>
      <trkpt lat="49.28639" lon="-0.13267">
        <ele>-2.2</ele>
        <time>2024-07-03T12:04:40Z</time>
      </trkpt>
      <trkpt lat="49.28638" lon="-0.13277">
        <ele>-2.4</ele>
        <time>2024-07-03T12:04:41Z</time>
      </trkpt>
      <trkpt lat="49.28637" lon="-0.13286">
        <ele>-2.4</ele>
        <time>2024-07-03T12:04:42Z</time>
      </trkpt>
      <trkpt lat="49.28636" lon="-0.13295">
        <ele>-2.6</ele>
        <time>2024-07-03T12:04:43Z</time>
      </trkpt>
      <trkpt lat="49.28634" lon="-0.13305">
        <ele>-2.8</ele>
        <time>2024-07-03T12:04:44Z</time>
      </trkpt>
      <trkpt lat="49.28633" lon="-0.13314">
        <ele>-3.2</ele>
        <time>2024-07-03T12:04:45Z</time>
      </trkpt>
      <trkpt lat="49.28632" lon="-0.13323">
        <ele>-3.2</ele>
        <time>2024-07-03T12:04:46Z</time>
      </trkpt>
      <trkpt lat="49.2863" lon="-0.13332">
        <ele>-3.4</ele>
        <time>2024-07-03T12:04:47Z</time>
      </trkpt>
      <trkpt lat="49.28629" lon="-0.13342">
        <ele>-3.2</ele>
        <time>2024-07-03T12:04:48Z</time>
      </trkpt>
      <trkpt lat="49.28628" lon="-0.13351">
        <ele>-3.2</ele>
        <time>2024-07-03T12:04:49Z</time>
      </trkpt>
      <trkpt lat="49.28627" lon="-0.1336">
        <ele>-3.2</ele>
        <time>2024-07-03T12:04:50Z</time>
      </trkpt>
      <trkpt lat="49.28626" lon="-0.1337">
        <ele>-3.2</ele>
        <time>2024-07-03T12:04:51Z</time>
      </trkpt>
      <trkpt lat="49.28624" lon="-0.13379">
        <ele>-3.2</ele>
        <time>2024-07-03T12:04:52Z</time>
      </trkpt>
      <trkpt lat="49.28623" lon="-0.13388">
        <ele>-3.4</ele>
        <time>2024-07-03T12:04:53Z</time>
      </trkpt>
      <trkpt lat="49.28622" lon="-0.13397">
        <ele>-3.6</ele>
        <time>2024-07-03T12:04:54Z</time>
      </trkpt>
      <trkpt lat="49.28621" lon="-0.13406">
        <ele>-3.6</ele>
        <time>2024-07-03T12:04:55Z</time>
      </trkpt>
      <trkpt lat="49.2862" lon="-0.13415">
        <ele>-3.6</ele>
        <time>2024-07-03T12:04:56Z</time>
      </trkpt>
      <trkpt lat="49.28619" lon="-0.13423">
        <ele>-3.6</ele>
        <time>2024-07-03T12:04:57Z</time>
      </trkpt>
      <trkpt lat="49.28618" lon="-0.13433">
        <ele>-3.4</ele>
        <time>2024-07-03T12:04:58Z</time>
      </trkpt>
      <trkpt lat="49.28617" lon="-0.13442">
        <ele>-3.4</ele>
        <time>2024-07-03T12:04:59Z</time>
      </trkpt>
      <trkpt lat="49.28615" lon="-0.13451">
        <ele>-3.2</ele>
        <time>2024-07-03T12:05:00Z</time>
      </trkpt>
      <trkpt lat="49.28614" lon="-0.13462">
        <ele>-3</ele>
        <time>2024-07-03T12:05:01Z</time>
      </trkpt>
      <trkpt lat="49.28612" lon="-0.13472">
        <ele>-3</ele>
        <time>2024-07-03T12:05:02Z</time>
      </trkpt>
      <trkpt lat="49.28611" lon="-0.13482">
        <ele>-2.8</ele>
        <time>2024-07-03T12:05:03Z</time>
      </trkpt>
      <trkpt lat="49.28609" lon="-0.13493">
        <ele>-2.8</ele>
        <time>2024-07-03T12:05:04Z</time>
      </trkpt>
      <trkpt lat="49.28608" lon="-0.13504">
        <ele>-2.8</ele>
        <time>2024-07-03T12:05:05Z</time>
      </trkpt>
      <trkpt lat="49.28606" lon="-0.13515">
        <ele>-2.8</ele>
        <time>2024-07-03T12:05:06Z</time>
      </trkpt>
      <trkpt lat="49.28605" lon="-0.13526">
        <ele>-2.8</ele>
        <time>2024-07-03T12:05:07Z</time>
      </trkpt>
      <trkpt lat="49.28604" lon="-0.13536">
        <ele>-3</ele>
        <time>2024-07-03T12:05:08Z</time>
      </trkpt>
      <trkpt lat="49.28603" lon="-0.13547">
        <ele>-3</ele>
        <time>2024-07-03T12:05:09Z</time>
      </trkpt>
      <trkpt lat="49.28601" lon="-0.13557">
        <ele>-3.2</ele>
        <time>2024-07-03T12:05:10Z</time>
      </trkpt>
      <trkpt lat="49.286" lon="-0.13568">
        <ele>-3.4</ele>
        <time>2024-07-03T12:05:11Z</time>
      </trkpt>
      <trkpt lat="49.28599" lon="-0.13578">
        <ele>-3.6</ele>
        <time>2024-07-03T12:05:12Z</time>
      </trkpt>
      <trkpt lat="49.28597" lon="-0.13589">
        <ele>-4</ele>
        <time>2024-07-03T12:05:13Z</time>
      </trkpt>
      <trkpt lat="49.28596" lon="-0.13599">
        <ele>-4.4</ele>
        <time>2024-07-03T12:05:14Z</time>
      </trkpt>
      <trkpt lat="49.28595" lon="-0.13609">
        <ele>-4.6</ele>
        <time>2024-07-03T12:05:15Z</time>
      </trkpt>
      <trkpt lat="49.28593" lon="-0.13619">
        <ele>-4.8</ele>
        <time>2024-07-03T12:05:16Z</time>
      </trkpt>
      <trkpt lat="49.28592" lon="-0.13629">
        <ele>-4.8</ele>
        <time>2024-07-03T12:05:17Z</time>
      </trkpt>
      <trkpt lat="49.28591" lon="-0.13639">
        <ele>-4.6</ele>
        <time>2024-07-03T12:05:18Z</time>
      </trkpt>
      <trkpt lat="49.28589" lon="-0.13649">
        <ele>-4.6</ele>
        <time>2024-07-03T12:05:19Z</time>
      </trkpt>
      <trkpt lat="49.28588" lon="-0.13659">
        <ele>-4.4</ele>
        <time>2024-07-03T12:05:20Z</time>
      </trkpt>
      <trkpt lat="49.28586" lon="-0.1367">
        <ele>-4.2</ele>
        <time>2024-07-03T12:05:21Z</time>
      </trkpt>
      <trkpt lat="49.28585" lon="-0.13681">
        <ele>-4</ele>
        <time>2024-07-03T12:05:22Z</time>
      </trkpt>
      <trkpt lat="49.28583" lon="-0.13691">
        <ele>-4</ele>
        <time>2024-07-03T12:05:23Z</time>
      </trkpt>
      <trkpt lat="49.28582" lon="-0.13702">
        <ele>-4</ele>
        <time>2024-07-03T12:05:24Z</time>
      </trkpt>
      <trkpt lat="49.2858" lon="-0.13713">
        <ele>-4</ele>
        <time>2024-07-03T12:05:25Z</time>
      </trkpt>
      <trkpt lat="49.28579" lon="-0.13724">
        <ele>-4</ele>
        <time>2024-07-03T12:05:26Z</time>
      </trkpt>
      <trkpt lat="49.28577" lon="-0.13734">
        <ele>-4</ele>
        <time>2024-07-03T12:05:27Z</time>
      </trkpt>
      <trkpt lat="49.28575" lon="-0.13745">
        <ele>-4</ele>
        <time>2024-07-03T12:05:28Z</time>
      </trkpt>
      <trkpt lat="49.28574" lon="-0.13755">
        <ele>-4</ele>
        <time>2024-07-03T12:05:29Z</time>
      </trkpt>
      <trkpt lat="49.28572" lon="-0.13766">
        <ele>-3.8</ele>
        <time>2024-07-03T12:05:30Z</time>
      </trkpt>
      <trkpt lat="49.28571" lon="-0.13777">
        <ele>-3.6</ele>
        <time>2024-07-03T12:05:31Z</time>
      </trkpt>
      <trkpt lat="49.28569" lon="-0.13788">
        <ele>-3.4</ele>
        <time>2024-07-03T12:05:32Z</time>
      </trkpt>
      <trkpt lat="49.28568" lon="-0.13799">
        <ele>-3.4</ele>
        <time>2024-07-03T12:05:33Z</time>
      </trkpt>
      <trkpt lat="49.28566" lon="-0.1381">
        <ele>-3.4</ele>
        <time>2024-07-03T12:05:34Z</time>
      </trkpt>
      <trkpt lat="49.28565" lon="-0.13821">
        <ele>-3.6</ele>
        <time>2024-07-03T12:05:35Z</time>
      </trkpt>
      <trkpt lat="49.28563" lon="-0.13832">
        <ele>-3.6</ele>
        <time>2024-07-03T12:05:36Z</time>
      </trkpt>
      <trkpt lat="49.28562" lon="-0.13843">
        <ele>-4</ele>
        <time>2024-07-03T12:05:37Z</time>
      </trkpt>
      <trkpt lat="49.28561" lon="-0.13853">
        <ele>-4.2</ele>
        <time>2024-07-03T12:05:38Z</time>
      </trkpt>
      <trkpt lat="49.2856" lon="-0.13864">
        <ele>-4.2</ele>
        <time>2024-07-03T12:05:39Z</time>
      </trkpt>
      <trkpt lat="49.28559" lon="-0.13875">
        <ele>-4.2</ele>
        <time>2024-07-03T12:05:40Z</time>
      </trkpt>
      <trkpt lat="49.28558" lon="-0.13886">
        <ele>-4</ele>
        <time>2024-07-03T12:05:41Z</time>
      </trkpt>
      <trkpt lat="49.28556" lon="-0.13897">
        <ele>-3.6</ele>
        <time>2024-07-03T12:05:42Z</time>
      </trkpt>
      <trkpt lat="49.28555" lon="-0.13907">
        <ele>-3.2</ele>
        <time>2024-07-03T12:05:43Z</time>
      </trkpt>
      <trkpt lat="49.28553" lon="-0.13918">
        <ele>-3</ele>
        <time>2024-07-03T12:05:44Z</time>
      </trkpt>
      <trkpt lat="49.28552" lon="-0.13928">
        <ele>-2.8</ele>
        <time>2024-07-03T12:05:45Z</time>
      </trkpt>
      <trkpt lat="49.28551" lon="-0.13939">
        <ele>-2.6</ele>
        <time>2024-07-03T12:05:46Z</time>
      </trkpt>
      <trkpt lat="49.2855" lon="-0.13949">
        <ele>-2.2</ele>
        <time>2024-07-03T12:05:47Z</time>
      </trkpt>
      <trkpt lat="49.28549" lon="-0.1396">
        <ele>-2</ele>
        <time>2024-07-03T12:05:48Z</time>
      </trkpt>
      <trkpt lat="49.28549" lon="-0.1397">
        <ele>-2</ele>
        <time>2024-07-03T12:05:49Z</time>
      </trkpt>
      <trkpt lat="49.28549" lon="-0.13981">
        <ele>-1.8</ele>
        <time>2024-07-03T12:05:50Z</time>
      </trkpt>
      <trkpt lat="49.28549" lon="-0.13991">
        <ele>-1.8</ele>
        <time>2024-07-03T12:05:51Z</time>
      </trkpt>
      <trkpt lat="49.2855" lon="-0.14001">
        <ele>-2</ele>
        <time>2024-07-03T12:05:52Z</time>
      </trkpt>
      <trkpt lat="49.2855" lon="-0.14012">
        <ele>-2.2</ele>
        <time>2024-07-03T12:05:53Z</time>
      </trkpt>
      <trkpt lat="49.2855" lon="-0.14022">
        <ele>-2.2</ele>
        <time>2024-07-03T12:05:54Z</time>
      </trkpt>
      <trkpt lat="49.2855" lon="-0.14031">
        <ele>-2.4</ele>
        <time>2024-07-03T12:05:55Z</time>
      </trkpt>
      <trkpt lat="49.2855" lon="-0.14041">
        <ele>-2.4</ele>
        <time>2024-07-03T12:05:56Z</time>
      </trkpt>
      <trkpt lat="49.28551" lon="-0.14051">
        <ele>-2.6</ele>
        <time>2024-07-03T12:05:57Z</time>
      </trkpt>
      <trkpt lat="49.2855" lon="-0.14061">
        <ele>-2.6</ele>
        <time>2024-07-03T12:05:58Z</time>
      </trkpt>
      <trkpt lat="49.28549" lon="-0.1407">
        <ele>-2.4</ele>
        <time>2024-07-03T12:05:59Z</time>
      </trkpt>
      <trkpt lat="49.28548" lon="-0.14081">
        <ele>-2.4</ele>
        <time>2024-07-03T12:06:00Z</time>
      </trkpt>
      <trkpt lat="49.28548" lon="-0.14091">
        <ele>-2.4</ele>
        <time>2024-07-03T12:06:01Z</time>
      </trkpt>
      <trkpt lat="49.28547" lon="-0.14101">
        <ele>-2.2</ele>
        <time>2024-07-03T12:06:02Z</time>
      </trkpt>
      <trkpt lat="49.28546" lon="-0.14112">
        <ele>-2.2</ele>
        <time>2024-07-03T12:06:03Z</time>
      </trkpt>
      <trkpt lat="49.28545" lon="-0.14123">
        <ele>-2.2</ele>
        <time>2024-07-03T12:06:04Z</time>
      </trkpt>
      <trkpt lat="49.28543" lon="-0.14134">
        <ele>-2.2</ele>
        <time>2024-07-03T12:06:05Z</time>
      </trkpt>
      <trkpt lat="49.28542" lon="-0.14145">
        <ele>-2</ele>
        <time>2024-07-03T12:06:06Z</time>
      </trkpt>
      <trkpt lat="49.28541" lon="-0.14157">
        <ele>-2</ele>
        <time>2024-07-03T12:06:07Z</time>
      </trkpt>
      <trkpt lat="49.2854" lon="-0.14167">
        <ele>-2</ele>
        <time>2024-07-03T12:06:08Z</time>
      </trkpt>
      <trkpt lat="49.28539" lon="-0.14178">
        <ele>-2</ele>
        <time>2024-07-03T12:06:09Z</time>
      </trkpt>
      <trkpt lat="49.28537" lon="-0.14189">
        <ele>-2</ele>
        <time>2024-07-03T12:06:10Z</time>
      </trkpt>
      <trkpt lat="49.28535" lon="-0.142">
        <ele>-2</ele>
        <time>2024-07-03T12:06:11Z</time>
      </trkpt>
      <trkpt lat="49.28534" lon="-0.14211">
        <ele>-2.2</ele>
        <time>2024-07-03T12:06:12Z</time>
      </trkpt>
      <trkpt lat="49.28533" lon="-0.14222">
        <ele>-2.6</ele>
        <time>2024-07-03T12:06:13Z</time>
      </trkpt>
      <trkpt lat="49.28531" lon="-0.14232">
        <ele>-3</ele>
        <time>2024-07-03T12:06:14Z</time>
      </trkpt>
      <trkpt lat="49.2853" lon="-0.14243">
        <ele>-3.4</ele>
        <time>2024-07-03T12:06:15Z</time>
      </trkpt>
      <trkpt lat="49.28528" lon="-0.14254">
        <ele>-3.4</ele>
        <time>2024-07-03T12:06:16Z</time>
      </trkpt>
      <trkpt lat="49.28527" lon="-0.14264">
        <ele>-3.4</ele>
        <time>2024-07-03T12:06:17Z</time>
      </trkpt>
      <trkpt lat="49.28526" lon="-0.14275">
        <ele>-3.4</ele>
        <time>2024-07-03T12:06:18Z</time>
      </trkpt>
      <trkpt lat="49.28523" lon="-0.14286">
        <ele>-3.4</ele>
        <time>2024-07-03T12:06:19Z</time>
      </trkpt>
      <trkpt lat="49.28521" lon="-0.14296">
        <ele>-3.4</ele>
        <time>2024-07-03T12:06:20Z</time>
      </trkpt>
      <trkpt lat="49.2852" lon="-0.14307">
        <ele>-3.2</ele>
        <time>2024-07-03T12:06:21Z</time>
      </trkpt>
      <trkpt lat="49.28519" lon="-0.14317">
        <ele>-3</ele>
        <time>2024-07-03T12:06:22Z</time>
      </trkpt>
      <trkpt lat="49.28517" lon="-0.14328">
        <ele>-3</ele>
        <time>2024-07-03T12:06:23Z</time>
      </trkpt>
      <trkpt lat="49.28515" lon="-0.14339">
        <ele>-3</ele>
        <time>2024-07-03T12:06:24Z</time>
      </trkpt>
      <trkpt lat="49.28514" lon="-0.14351">
        <ele>-3.2</ele>
        <time>2024-07-03T12:06:25Z</time>
      </trkpt>
      <trkpt lat="49.28512" lon="-0.14363">
        <ele>-3.4</ele>
        <time>2024-07-03T12:06:26Z</time>
      </trkpt>
      <trkpt lat="49.2851" lon="-0.14374">
        <ele>-3.8</ele>
        <time>2024-07-03T12:06:27Z</time>
      </trkpt>
      <trkpt lat="49.28508" lon="-0.14384">
        <ele>-4.2</ele>
        <time>2024-07-03T12:06:28Z</time>
      </trkpt>
      <trkpt lat="49.28507" lon="-0.14394">
        <ele>-4.6</ele>
        <time>2024-07-03T12:06:29Z</time>
      </trkpt>
      <trkpt lat="49.28505" lon="-0.14404">
        <ele>-4.8</ele>
        <time>2024-07-03T12:06:30Z</time>
      </trkpt>
      <trkpt lat="49.28503" lon="-0.14414">
        <ele>-4.8</ele>
        <time>2024-07-03T12:06:31Z</time>
      </trkpt>
      <trkpt lat="49.285" lon="-0.14424">
        <ele>-4.8</ele>
        <time>2024-07-03T12:06:32Z</time>
      </trkpt>
      <trkpt lat="49.28498" lon="-0.14434">
        <ele>-4.8</ele>
        <time>2024-07-03T12:06:33Z</time>
      </trkpt>
      <trkpt lat="49.28496" lon="-0.14444">
        <ele>-4.4</ele>
        <time>2024-07-03T12:06:34Z</time>
      </trkpt>
      <trkpt lat="49.28493" lon="-0.14454">
        <ele>-4.2</ele>
        <time>2024-07-03T12:06:35Z</time>
      </trkpt>
      <trkpt lat="49.28491" lon="-0.14464">
        <ele>-4.2</ele>
        <time>2024-07-03T12:06:36Z</time>
      </trkpt>
      <trkpt lat="49.28488" lon="-0.14475">
        <ele>-4.2</ele>
        <time>2024-07-03T12:06:37Z</time>
      </trkpt>
      <trkpt lat="49.28486" lon="-0.14485">
        <ele>-4</ele>
        <time>2024-07-03T12:06:38Z</time>
      </trkpt>
      <trkpt lat="49.28484" lon="-0.14495">
        <ele>-4</ele>
        <time>2024-07-03T12:06:39Z</time>
      </trkpt>
      <trkpt lat="49.28482" lon="-0.14506">
        <ele>-4</ele>
        <time>2024-07-03T12:06:40Z</time>
      </trkpt>
      <trkpt lat="49.2848" lon="-0.14517">
        <ele>-4</ele>
        <time>2024-07-03T12:06:41Z</time>
      </trkpt>
      <trkpt lat="49.28478" lon="-0.14527">
        <ele>-4</ele>
        <time>2024-07-03T12:06:42Z</time>
      </trkpt>
      <trkpt lat="49.28477" lon="-0.14538">
        <ele>-4</ele>
        <time>2024-07-03T12:06:43Z</time>
      </trkpt>
      <trkpt lat="49.28475" lon="-0.14549">
        <ele>-4</ele>
        <time>2024-07-03T12:06:44Z</time>
      </trkpt>
      <trkpt lat="49.28474" lon="-0.14559">
        <ele>-4</ele>
        <time>2024-07-03T12:06:45Z</time>
      </trkpt>
      <trkpt lat="49.28473" lon="-0.1457">
        <ele>-4</ele>
        <time>2024-07-03T12:06:46Z</time>
      </trkpt>
      <trkpt lat="49.28473" lon="-0.1458">
        <ele>-4.2</ele>
        <time>2024-07-03T12:06:47Z</time>
      </trkpt>
      <trkpt lat="49.28472" lon="-0.14591">
        <ele>-4.4</ele>
        <time>2024-07-03T12:06:48Z</time>
      </trkpt>
      <trkpt lat="49.28471" lon="-0.14602">
        <ele>-4.4</ele>
        <time>2024-07-03T12:06:49Z</time>
      </trkpt>
      <trkpt lat="49.28471" lon="-0.14612">
        <ele>-4.4</ele>
        <time>2024-07-03T12:06:50Z</time>
      </trkpt>
      <trkpt lat="49.2847" lon="-0.14623">
        <ele>-4.4</ele>
        <time>2024-07-03T12:06:51Z</time>
      </trkpt>
      <trkpt lat="49.28469" lon="-0.14634">
        <ele>-4.4</ele>
        <time>2024-07-03T12:06:52Z</time>
      </trkpt>
      <trkpt lat="49.28469" lon="-0.14645">
        <ele>-4</ele>
        <time>2024-07-03T12:06:53Z</time>
      </trkpt>
      <trkpt lat="49.28468" lon="-0.14656">
        <ele>-3.6</ele>
        <time>2024-07-03T12:06:54Z</time>
      </trkpt>
      <trkpt lat="49.28467" lon="-0.14667">
        <ele>-3.2</ele>
        <time>2024-07-03T12:06:55Z</time>
      </trkpt>
      <trkpt lat="49.28466" lon="-0.14678">
        <ele>-3</ele>
        <time>2024-07-03T12:06:56Z</time>
      </trkpt>
      <trkpt lat="49.28465" lon="-0.1469">
        <ele>-3</ele>
        <time>2024-07-03T12:06:57Z</time>
      </trkpt>
      <trkpt lat="49.28464" lon="-0.14701">
        <ele>-2.6</ele>
        <time>2024-07-03T12:06:58Z</time>
      </trkpt>
      <trkpt lat="49.28463" lon="-0.14712">
        <ele>-2.2</ele>
        <time>2024-07-03T12:06:59Z</time>
      </trkpt>
      <trkpt lat="49.28462" lon="-0.14723">
        <ele>-1.8</ele>
        <time>2024-07-03T12:07:00Z</time>
      </trkpt>
      <trkpt lat="49.28461" lon="-0.14735">
        <ele>-1.4</ele>
        <time>2024-07-03T12:07:01Z</time>
      </trkpt>
      <trkpt lat="49.2846" lon="-0.14747">
        <ele>-1.2</ele>
        <time>2024-07-03T12:07:02Z</time>
      </trkpt>
      <trkpt lat="49.28459" lon="-0.14759">
        <ele>-1.2</ele>
        <time>2024-07-03T12:07:03Z</time>
      </trkpt>
      <trkpt lat="49.28459" lon="-0.14769">
        <ele>-1</ele>
        <time>2024-07-03T12:07:04Z</time>
      </trkpt>
      <trkpt lat="49.28459" lon="-0.14778">
        <ele>-1.4</ele>
        <time>2024-07-03T12:07:05Z</time>
      </trkpt>
      <trkpt lat="49.28459" lon="-0.14788">
        <ele>-1.6</ele>
        <time>2024-07-03T12:07:06Z</time>
      </trkpt>
      <trkpt lat="49.28458" lon="-0.14799">
        <ele>-1.8</ele>
        <time>2024-07-03T12:07:07Z</time>
      </trkpt>
      <trkpt lat="49.28457" lon="-0.14811">
        <ele>-1.8</ele>
        <time>2024-07-03T12:07:08Z</time>
      </trkpt>
      <trkpt lat="49.28456" lon="-0.14822">
        <ele>-2</ele>
        <time>2024-07-03T12:07:09Z</time>
      </trkpt>
      <trkpt lat="49.28455" lon="-0.14834">
        <ele>-2</ele>
        <time>2024-07-03T12:07:10Z</time>
      </trkpt>
      <trkpt lat="49.28454" lon="-0.14845">
        <ele>-1.8</ele>
        <time>2024-07-03T12:07:11Z</time>
      </trkpt>
      <trkpt lat="49.28453" lon="-0.14857">
        <ele>-1.8</ele>
        <time>2024-07-03T12:07:12Z</time>
      </trkpt>
      <trkpt lat="49.28453" lon="-0.14868">
        <ele>-1.8</ele>
        <time>2024-07-03T12:07:13Z</time>
      </trkpt>
      <trkpt lat="49.28452" lon="-0.14879">
        <ele>-1.6</ele>
        <time>2024-07-03T12:07:14Z</time>
      </trkpt>
      <trkpt lat="49.28451" lon="-0.14891">
        <ele>-1.4</ele>
        <time>2024-07-03T12:07:15Z</time>
      </trkpt>
      <trkpt lat="49.2845" lon="-0.14901">
        <ele>-1.4</ele>
        <time>2024-07-03T12:07:16Z</time>
      </trkpt>
      <trkpt lat="49.28448" lon="-0.14912">
        <ele>-1.4</ele>
        <time>2024-07-03T12:07:17Z</time>
      </trkpt>
      <trkpt lat="49.28447" lon="-0.14923">
        <ele>-1.6</ele>
        <time>2024-07-03T12:07:18Z</time>
      </trkpt>
      <trkpt lat="49.28447" lon="-0.14934">
        <ele>-1.6</ele>
        <time>2024-07-03T12:07:19Z</time>
      </trkpt>
      <trkpt lat="49.28446" lon="-0.14946">
        <ele>-1.8</ele>
        <time>2024-07-03T12:07:20Z</time>
      </trkpt>
      <trkpt lat="49.28446" lon="-0.14957">
        <ele>-1.8</ele>
        <time>2024-07-03T12:07:21Z</time>
      </trkpt>
      <trkpt lat="49.28445" lon="-0.14969">
        <ele>-2</ele>
        <time>2024-07-03T12:07:22Z</time>
      </trkpt>
      <trkpt lat="49.28445" lon="-0.14981">
        <ele>-2</ele>
        <time>2024-07-03T12:07:23Z</time>
      </trkpt>
      <trkpt lat="49.28444" lon="-0.14992">
        <ele>-2</ele>
        <time>2024-07-03T12:07:24Z</time>
      </trkpt>
      <trkpt lat="49.28444" lon="-0.15004">
        <ele>-1.8</ele>
        <time>2024-07-03T12:07:25Z</time>
      </trkpt>
      <trkpt lat="49.28443" lon="-0.15015">
        <ele>-1.8</ele>
        <time>2024-07-03T12:07:26Z</time>
      </trkpt>
      <trkpt lat="49.28443" lon="-0.15026">
        <ele>-1.8</ele>
        <time>2024-07-03T12:07:27Z</time>
      </trkpt>
      <trkpt lat="49.28442" lon="-0.15038">
        <ele>-1.6</ele>
        <time>2024-07-03T12:07:28Z</time>
      </trkpt>
      <trkpt lat="49.28441" lon="-0.15048">
        <ele>-1.6</ele>
        <time>2024-07-03T12:07:29Z</time>
      </trkpt>
      <trkpt lat="49.2844" lon="-0.15059">
        <ele>-1.6</ele>
        <time>2024-07-03T12:07:30Z</time>
      </trkpt>
      <trkpt lat="49.28439" lon="-0.1507">
        <ele>-1.8</ele>
        <time>2024-07-03T12:07:31Z</time>
      </trkpt>
      <trkpt lat="49.28438" lon="-0.15081">
        <ele>-2</ele>
        <time>2024-07-03T12:07:32Z</time>
      </trkpt>
      <trkpt lat="49.28438" lon="-0.15092">
        <ele>-2.2</ele>
        <time>2024-07-03T12:07:33Z</time>
      </trkpt>
      <trkpt lat="49.28437" lon="-0.15103">
        <ele>-2.4</ele>
        <time>2024-07-03T12:07:34Z</time>
      </trkpt>
      <trkpt lat="49.28437" lon="-0.15114">
        <ele>-2.6</ele>
        <time>2024-07-03T12:07:35Z</time>
      </trkpt>
      <trkpt lat="49.28437" lon="-0.15125">
        <ele>-2.6</ele>
        <time>2024-07-03T12:07:36Z</time>
      </trkpt>
      <trkpt lat="49.28437" lon="-0.15136">
        <ele>-2.6</ele>
        <time>2024-07-03T12:07:37Z</time>
      </trkpt>
      <trkpt lat="49.28437" lon="-0.15147">
        <ele>-2.6</ele>
        <time>2024-07-03T12:07:38Z</time>
      </trkpt>
      <trkpt lat="49.28437" lon="-0.15159">
        <ele>-2.8</ele>
        <time>2024-07-03T12:07:39Z</time>
      </trkpt>
      <trkpt lat="49.28437" lon="-0.1517">
        <ele>-2.8</ele>
        <time>2024-07-03T12:07:40Z</time>
      </trkpt>
      <trkpt lat="49.28437" lon="-0.15182">
        <ele>-2.8</ele>
        <time>2024-07-03T12:07:41Z</time>
      </trkpt>
      <trkpt lat="49.28437" lon="-0.15193">
        <ele>-2.6</ele>
        <time>2024-07-03T12:07:42Z</time>
      </trkpt>
      <trkpt lat="49.28437" lon="-0.15203">
        <ele>-2.6</ele>
        <time>2024-07-03T12:07:43Z</time>
      </trkpt>
      <trkpt lat="49.28437" lon="-0.15214">
        <ele>-2.4</ele>
        <time>2024-07-03T12:07:44Z</time>
      </trkpt>
      <trkpt lat="49.28437" lon="-0.15226">
        <ele>-2.2</ele>
        <time>2024-07-03T12:07:45Z</time>
      </trkpt>
      <trkpt lat="49.28437" lon="-0.15237">
        <ele>-2</ele>
        <time>2024-07-03T12:07:46Z</time>
      </trkpt>
      <trkpt lat="49.28438" lon="-0.15248">
        <ele>-1.8</ele>
        <time>2024-07-03T12:07:47Z</time>
      </trkpt>
      <trkpt lat="49.2844" lon="-0.15259">
        <ele>-1.8</ele>
        <time>2024-07-03T12:07:48Z</time>
      </trkpt>
      <trkpt lat="49.2844" lon="-0.15271">
        <ele>-1.8</ele>
        <time>2024-07-03T12:07:49Z</time>
      </trkpt>
      <trkpt lat="49.2844" lon="-0.15281">
        <ele>-1.8</ele>
        <time>2024-07-03T12:07:50Z</time>
      </trkpt>
      <trkpt lat="49.28441" lon="-0.15292">
        <ele>-1.8</ele>
        <time>2024-07-03T12:07:51Z</time>
      </trkpt>
      <trkpt lat="49.28442" lon="-0.15303">
        <ele>-1.8</ele>
        <time>2024-07-03T12:07:52Z</time>
      </trkpt>
      <trkpt lat="49.28442" lon="-0.15315">
        <ele>-2</ele>
        <time>2024-07-03T12:07:53Z</time>
      </trkpt>
      <trkpt lat="49.28443" lon="-0.15326">
        <ele>-2</ele>
        <time>2024-07-03T12:07:54Z</time>
      </trkpt>
      <trkpt lat="49.28444" lon="-0.15338">
        <ele>-2.4</ele>
        <time>2024-07-03T12:07:55Z</time>
      </trkpt>
      <trkpt lat="49.28445" lon="-0.1535">
        <ele>-2.8</ele>
        <time>2024-07-03T12:07:56Z</time>
      </trkpt>
      <trkpt lat="49.28446" lon="-0.15362">
        <ele>-3</ele>
        <time>2024-07-03T12:07:57Z</time>
      </trkpt>
      <trkpt lat="49.28446" lon="-0.15373">
        <ele>-3.2</ele>
        <time>2024-07-03T12:07:58Z</time>
      </trkpt>
      <trkpt lat="49.28447" lon="-0.15385">
        <ele>-3.4</ele>
        <time>2024-07-03T12:07:59Z</time>
      </trkpt>
      <trkpt lat="49.28447" lon="-0.15397">
        <ele>-3.4</ele>
        <time>2024-07-03T12:08:00Z</time>
      </trkpt>
      <trkpt lat="49.28447" lon="-0.15409">
        <ele>-3.4</ele>
        <time>2024-07-03T12:08:01Z</time>
      </trkpt>
      <trkpt lat="49.28448" lon="-0.1542">
        <ele>-3.4</ele>
        <time>2024-07-03T12:08:02Z</time>
      </trkpt>
      <trkpt lat="49.28448" lon="-0.15432">
        <ele>-3.4</ele>
        <time>2024-07-03T12:08:03Z</time>
      </trkpt>
      <trkpt lat="49.28448" lon="-0.15443">
        <ele>-3.4</ele>
        <time>2024-07-03T12:08:04Z</time>
      </trkpt>
      <trkpt lat="49.28449" lon="-0.15455">
        <ele>-3.4</ele>
        <time>2024-07-03T12:08:05Z</time>
      </trkpt>
      <trkpt lat="49.28449" lon="-0.15466">
        <ele>-3.4</ele>
        <time>2024-07-03T12:08:06Z</time>
      </trkpt>
      <trkpt lat="49.28449" lon="-0.15477">
        <ele>-3.2</ele>
        <time>2024-07-03T12:08:07Z</time>
      </trkpt>
      <trkpt lat="49.28449" lon="-0.15488">
        <ele>-3.2</ele>
        <time>2024-07-03T12:08:08Z</time>
      </trkpt>
      <trkpt lat="49.2845" lon="-0.155">
        <ele>-3.4</ele>
        <time>2024-07-03T12:08:09Z</time>
      </trkpt>
      <trkpt lat="49.2845" lon="-0.15511">
        <ele>-3.4</ele>
        <time>2024-07-03T12:08:10Z</time>
      </trkpt>
      <trkpt lat="49.2845" lon="-0.15522">
        <ele>-3.4</ele>
        <time>2024-07-03T12:08:11Z</time>
      </trkpt>
      <trkpt lat="49.2845" lon="-0.15532">
        <ele>-3.2</ele>
        <time>2024-07-03T12:08:12Z</time>
      </trkpt>
      <trkpt lat="49.28451" lon="-0.15543">
        <ele>-3</ele>
        <time>2024-07-03T12:08:13Z</time>
      </trkpt>
      <trkpt lat="49.28451" lon="-0.15553">
        <ele>-2.8</ele>
        <time>2024-07-03T12:08:14Z</time>
      </trkpt>
      <trkpt lat="49.28451" lon="-0.15564">
        <ele>-2.8</ele>
        <time>2024-07-03T12:08:15Z</time>
      </trkpt>
      <trkpt lat="49.28452" lon="-0.15575">
        <ele>-2.6</ele>
        <time>2024-07-03T12:08:16Z</time>
      </trkpt>
      <trkpt lat="49.28453" lon="-0.15586">
        <ele>-2.4</ele>
        <time>2024-07-03T12:08:17Z</time>
      </trkpt>
      <trkpt lat="49.28453" lon="-0.15597">
        <ele>-2.4</ele>
        <time>2024-07-03T12:08:18Z</time>
      </trkpt>
      <trkpt lat="49.28453" lon="-0.15608">
        <ele>-2.4</ele>
        <time>2024-07-03T12:08:19Z</time>
      </trkpt>
      <trkpt lat="49.28454" lon="-0.15619">
        <ele>-2.2</ele>
        <time>2024-07-03T12:08:20Z</time>
      </trkpt>
      <trkpt lat="49.28454" lon="-0.1563">
        <ele>-2.2</ele>
        <time>2024-07-03T12:08:21Z</time>
      </trkpt>
      <trkpt lat="49.28454" lon="-0.15641">
        <ele>-2.2</ele>
        <time>2024-07-03T12:08:22Z</time>
      </trkpt>
      <trkpt lat="49.28455" lon="-0.15652">
        <ele>-2.2</ele>
        <time>2024-07-03T12:08:23Z</time>
      </trkpt>
      <trkpt lat="49.28455" lon="-0.15663">
        <ele>-2.2</ele>
        <time>2024-07-03T12:08:24Z</time>
      </trkpt>
      <trkpt lat="49.28455" lon="-0.15673">
        <ele>-2.2</ele>
        <time>2024-07-03T12:08:25Z</time>
      </trkpt>
      <trkpt lat="49.28456" lon="-0.15684">
        <ele>-2.2</ele>
        <time>2024-07-03T12:08:26Z</time>
      </trkpt>
      <trkpt lat="49.28456" lon="-0.15694">
        <ele>-2.6</ele>
        <time>2024-07-03T12:08:27Z</time>
      </trkpt>
      <trkpt lat="49.28456" lon="-0.15704">
        <ele>-3</ele>
        <time>2024-07-03T12:08:28Z</time>
      </trkpt>
      <trkpt lat="49.28456" lon="-0.15714">
        <ele>-3.2</ele>
        <time>2024-07-03T12:08:29Z</time>
      </trkpt>
      <trkpt lat="49.28457" lon="-0.15725">
        <ele>-3.4</ele>
        <time>2024-07-03T12:08:30Z</time>
      </trkpt>
      <trkpt lat="49.28457" lon="-0.15736">
        <ele>-3.4</ele>
        <time>2024-07-03T12:08:31Z</time>
      </trkpt>
      <trkpt lat="49.28458" lon="-0.15747">
        <ele>-3.6</ele>
        <time>2024-07-03T12:08:32Z</time>
      </trkpt>
      <trkpt lat="49.28458" lon="-0.15758">
        <ele>-3.6</ele>
        <time>2024-07-03T12:08:33Z</time>
      </trkpt>
      <trkpt lat="49.28458" lon="-0.15769">
        <ele>-3.6</ele>
        <time>2024-07-03T12:08:34Z</time>
      </trkpt>
      <trkpt lat="49.28458" lon="-0.1578">
        <ele>-3.8</ele>
        <time>2024-07-03T12:08:35Z</time>
      </trkpt>
      <trkpt lat="49.28459" lon="-0.15791">
        <ele>-4</ele>
        <time>2024-07-03T12:08:36Z</time>
      </trkpt>
      <trkpt lat="49.28459" lon="-0.15803">
        <ele>-4.2</ele>
        <time>2024-07-03T12:08:37Z</time>
      </trkpt>
      <trkpt lat="49.2846" lon="-0.15814">
        <ele>-4.4</ele>
        <time>2024-07-03T12:08:38Z</time>
      </trkpt>
      <trkpt lat="49.2846" lon="-0.15825">
        <ele>-4.4</ele>
        <time>2024-07-03T12:08:39Z</time>
      </trkpt>
      <trkpt lat="49.28461" lon="-0.15836">
        <ele>-4</ele>
        <time>2024-07-03T12:08:40Z</time>
      </trkpt>
      <trkpt lat="49.28461" lon="-0.15847">
        <ele>-3.8</ele>
        <time>2024-07-03T12:08:41Z</time>
      </trkpt>
      <trkpt lat="49.28461" lon="-0.15858">
        <ele>-3.6</ele>
        <time>2024-07-03T12:08:42Z</time>
      </trkpt>
      <trkpt lat="49.28461" lon="-0.15869">
        <ele>-3.6</ele>
        <time>2024-07-03T12:08:43Z</time>
      </trkpt>
      <trkpt lat="49.28462" lon="-0.1588">
        <ele>-3.4</ele>
        <time>2024-07-03T12:08:44Z</time>
      </trkpt>
      <trkpt lat="49.28462" lon="-0.15891">
        <ele>-3.2</ele>
        <time>2024-07-03T12:08:45Z</time>
      </trkpt>
      <trkpt lat="49.28463" lon="-0.15902">
        <ele>-3.2</ele>
        <time>2024-07-03T12:08:46Z</time>
      </trkpt>
      <trkpt lat="49.28463" lon="-0.15912">
        <ele>-3.2</ele>
        <time>2024-07-03T12:08:47Z</time>
      </trkpt>
      <trkpt lat="49.28463" lon="-0.15923">
        <ele>-3</ele>
        <time>2024-07-03T12:08:48Z</time>
      </trkpt>
      <trkpt lat="49.28464" lon="-0.15934">
        <ele>-2.6</ele>
        <time>2024-07-03T12:08:49Z</time>
      </trkpt>
      <trkpt lat="49.28464" lon="-0.15945">
        <ele>-2.4</ele>
        <time>2024-07-03T12:08:50Z</time>
      </trkpt>
      <trkpt lat="49.28465" lon="-0.15956">
        <ele>-2.4</ele>
        <time>2024-07-03T12:08:51Z</time>
      </trkpt>
      <trkpt lat="49.28465" lon="-0.15968">
        <ele>-2.2</ele>
        <time>2024-07-03T12:08:52Z</time>
      </trkpt>
      <trkpt lat="49.28466" lon="-0.15979">
        <ele>-2.2</ele>
        <time>2024-07-03T12:08:53Z</time>
      </trkpt>
      <trkpt lat="49.28467" lon="-0.15991">
        <ele>-2.4</ele>
        <time>2024-07-03T12:08:54Z</time>
      </trkpt>
      <trkpt lat="49.28468" lon="-0.16002">
        <ele>-2.4</ele>
        <time>2024-07-03T12:08:55Z</time>
      </trkpt>
      <trkpt lat="49.28469" lon="-0.16014">
        <ele>-2.4</ele>
        <time>2024-07-03T12:08:56Z</time>
      </trkpt>
      <trkpt lat="49.28469" lon="-0.16026">
        <ele>-2.6</ele>
        <time>2024-07-03T12:08:57Z</time>
      </trkpt>
      <trkpt lat="49.2847" lon="-0.16037">
        <ele>-2.8</ele>
        <time>2024-07-03T12:08:58Z</time>
      </trkpt>
      <trkpt lat="49.28471" lon="-0.16047">
        <ele>-2.8</ele>
        <time>2024-07-03T12:08:59Z</time>
      </trkpt>
      <trkpt lat="49.28472" lon="-0.16058">
        <ele>-2.8</ele>
        <time>2024-07-03T12:09:00Z</time>
      </trkpt>
      <trkpt lat="49.28473" lon="-0.16067">
        <ele>-2.6</ele>
        <time>2024-07-03T12:09:01Z</time>
      </trkpt>
      <trkpt lat="49.28474" lon="-0.16076">
        <ele>-2.4</ele>
        <time>2024-07-03T12:09:02Z</time>
      </trkpt>
      <trkpt lat="49.28475" lon="-0.16086">
        <ele>-2.2</ele>
        <time>2024-07-03T12:09:03Z</time>
      </trkpt>
      <trkpt lat="49.28475" lon="-0.16096">
        <ele>-2.2</ele>
        <time>2024-07-03T12:09:04Z</time>
      </trkpt>
      <trkpt lat="49.28476" lon="-0.16106">
        <ele>-2</ele>
        <time>2024-07-03T12:09:05Z</time>
      </trkpt>
      <trkpt lat="49.28476" lon="-0.16115">
        <ele>-1.6</ele>
        <time>2024-07-03T12:09:06Z</time>
      </trkpt>
      <trkpt lat="49.28476" lon="-0.16124">
        <ele>-1.4</ele>
        <time>2024-07-03T12:09:07Z</time>
      </trkpt>
      <trkpt lat="49.28476" lon="-0.16133">
        <ele>-1.2</ele>
        <time>2024-07-03T12:09:08Z</time>
      </trkpt>
      <trkpt lat="49.28475" lon="-0.16141">
        <ele>-1</ele>
        <time>2024-07-03T12:09:09Z</time>
      </trkpt>
      <trkpt lat="49.28474" lon="-0.16149">
        <ele>-0.8</ele>
        <time>2024-07-03T12:09:10Z</time>
      </trkpt>
      <trkpt lat="49.28471" lon="-0.16156">
        <ele>-0.8</ele>
        <time>2024-07-03T12:09:11Z</time>
      </trkpt>
      <trkpt lat="49.28467" lon="-0.1616">
        <ele>-0.8</ele>
        <time>2024-07-03T12:09:12Z</time>
      </trkpt>
      <trkpt lat="49.28461" lon="-0.16162">
        <ele>-0.8</ele>
        <time>2024-07-03T12:09:13Z</time>
      </trkpt>
      <trkpt lat="49.28456" lon="-0.16164">
        <ele>-1</ele>
        <time>2024-07-03T12:09:14Z</time>
      </trkpt>
      <trkpt lat="49.28449" lon="-0.16163">
        <ele>-1.2</ele>
        <time>2024-07-03T12:09:15Z</time>
      </trkpt>
      <trkpt lat="49.28443" lon="-0.16163">
        <ele>-1.4</ele>
        <time>2024-07-03T12:09:16Z</time>
      </trkpt>
      <trkpt lat="49.28436" lon="-0.16164">
        <ele>-1.6</ele>
        <time>2024-07-03T12:09:17Z</time>
      </trkpt>
      <trkpt lat="49.28429" lon="-0.16165">
        <ele>-1.6</ele>
        <time>2024-07-03T12:09:18Z</time>
      </trkpt>
      <trkpt lat="49.28422" lon="-0.16165">
        <ele>-1.8</ele>
        <time>2024-07-03T12:09:19Z</time>
      </trkpt>
      <trkpt lat="49.28415" lon="-0.16167">
        <ele>-1.8</ele>
        <time>2024-07-03T12:09:20Z</time>
      </trkpt>
      <trkpt lat="49.28407" lon="-0.16168">
        <ele>-2</ele>
        <time>2024-07-03T12:09:21Z</time>
      </trkpt>
      <trkpt lat="49.284" lon="-0.16169">
        <ele>-2</ele>
        <time>2024-07-03T12:09:22Z</time>
      </trkpt>
      <trkpt lat="49.28392" lon="-0.1617">
        <ele>-2.2</ele>
        <time>2024-07-03T12:09:23Z</time>
      </trkpt>
      <trkpt lat="49.28385" lon="-0.16171">
        <ele>-2.2</ele>
        <time>2024-07-03T12:09:24Z</time>
      </trkpt>
      <trkpt lat="49.28377" lon="-0.16171">
        <ele>-2.4</ele>
        <time>2024-07-03T12:09:25Z</time>
      </trkpt>
      <trkpt lat="49.2837" lon="-0.16172">
        <ele>-2.4</ele>
        <time>2024-07-03T12:09:26Z</time>
      </trkpt>
      <trkpt lat="49.28362" lon="-0.16173">
        <ele>-2.4</ele>
        <time>2024-07-03T12:09:27Z</time>
      </trkpt>
      <trkpt lat="49.28354" lon="-0.16173">
        <ele>-2.6</ele>
        <time>2024-07-03T12:09:28Z</time>
      </trkpt>
      <trkpt lat="49.28347" lon="-0.16173">
        <ele>-2.6</ele>
        <time>2024-07-03T12:09:29Z</time>
      </trkpt>
      <trkpt lat="49.28339" lon="-0.16174">
        <ele>-2.6</ele>
        <time>2024-07-03T12:09:30Z</time>
      </trkpt>
      <trkpt lat="49.28332" lon="-0.16174">
        <ele>-2.6</ele>
        <time>2024-07-03T12:09:31Z</time>
      </trkpt>
      <trkpt lat="49.28325" lon="-0.16175">
        <ele>-2.8</ele>
        <time>2024-07-03T12:09:32Z</time>
      </trkpt>
      <trkpt lat="49.28318" lon="-0.16176">
        <ele>-3</ele>
        <time>2024-07-03T12:09:33Z</time>
      </trkpt>
      <trkpt lat="49.28311" lon="-0.16177">
        <ele>-3</ele>
        <time>2024-07-03T12:09:34Z</time>
      </trkpt>
      <trkpt lat="49.28304" lon="-0.16178">
        <ele>-3</ele>
        <time>2024-07-03T12:09:35Z</time>
      </trkpt>
      <trkpt lat="49.28297" lon="-0.16178">
        <ele>-3</ele>
        <time>2024-07-03T12:09:36Z</time>
      </trkpt>
      <trkpt lat="49.28289" lon="-0.16178">
        <ele>-2.8</ele>
        <time>2024-07-03T12:09:37Z</time>
      </trkpt>
      <trkpt lat="49.28282" lon="-0.16179">
        <ele>-2.8</ele>
        <time>2024-07-03T12:09:38Z</time>
      </trkpt>
      <trkpt lat="49.28275" lon="-0.16179">
        <ele>-2.8</ele>
        <time>2024-07-03T12:09:39Z</time>
      </trkpt>
      <trkpt lat="49.28268" lon="-0.1618">
        <ele>-2.8</ele>
        <time>2024-07-03T12:09:40Z</time>
      </trkpt>
      <trkpt lat="49.28261" lon="-0.16181">
        <ele>-2.6</ele>
        <time>2024-07-03T12:09:41Z</time>
      </trkpt>
      <trkpt lat="49.28254" lon="-0.16182">
        <ele>-2.4</ele>
        <time>2024-07-03T12:09:42Z</time>
      </trkpt>
      <trkpt lat="49.28247" lon="-0.16182">
        <ele>-2.4</ele>
        <time>2024-07-03T12:09:43Z</time>
      </trkpt>
      <trkpt lat="49.2824" lon="-0.16183">
        <ele>-2.6</ele>
        <time>2024-07-03T12:09:44Z</time>
      </trkpt>
      <trkpt lat="49.28232" lon="-0.16184">
        <ele>-2.6</ele>
        <time>2024-07-03T12:09:45Z</time>
      </trkpt>
      <trkpt lat="49.28225" lon="-0.16185">
        <ele>-2.6</ele>
        <time>2024-07-03T12:09:46Z</time>
      </trkpt>
      <trkpt lat="49.28218" lon="-0.16186">
        <ele>-2.6</ele>
        <time>2024-07-03T12:09:47Z</time>
      </trkpt>
      <trkpt lat="49.28211" lon="-0.16187">
        <ele>-2.8</ele>
        <time>2024-07-03T12:09:48Z</time>
      </trkpt>
      <trkpt lat="49.28204" lon="-0.16189">
        <ele>-2.8</ele>
        <time>2024-07-03T12:09:49Z</time>
      </trkpt>
      <trkpt lat="49.28197" lon="-0.16192">
        <ele>-2.8</ele>
        <time>2024-07-03T12:09:50Z</time>
      </trkpt>
      <trkpt lat="49.2819" lon="-0.16197">
        <ele>-2.8</ele>
        <time>2024-07-03T12:09:51Z</time>
      </trkpt>
      <trkpt lat="49.28183" lon="-0.16201">
        <ele>-3</ele>
        <time>2024-07-03T12:09:52Z</time>
      </trkpt>
      <trkpt lat="49.28177" lon="-0.16206">
        <ele>-3</ele>
        <time>2024-07-03T12:09:53Z</time>
      </trkpt>
      <trkpt lat="49.2817" lon="-0.16211">
        <ele>-3</ele>
        <time>2024-07-03T12:09:54Z</time>
      </trkpt>
      <trkpt lat="49.28164" lon="-0.16217">
        <ele>-3</ele>
        <time>2024-07-03T12:09:55Z</time>
      </trkpt>
      <trkpt lat="49.28157" lon="-0.16222">
        <ele>-3.2</ele>
        <time>2024-07-03T12:09:56Z</time>
      </trkpt>
      <trkpt lat="49.28151" lon="-0.16227">
        <ele>-3.4</ele>
        <time>2024-07-03T12:09:57Z</time>
      </trkpt>
      <trkpt lat="49.28145" lon="-0.16232">
        <ele>-3.4</ele>
        <time>2024-07-03T12:09:58Z</time>
      </trkpt>
      <trkpt lat="49.28139" lon="-0.16238">
        <ele>-3.4</ele>
        <time>2024-07-03T12:09:59Z</time>
      </trkpt>
      <trkpt lat="49.28132" lon="-0.16243">
        <ele>-3.4</ele>
        <time>2024-07-03T12:10:00Z</time>
      </trkpt>
      <trkpt lat="49.28126" lon="-0.16248">
        <ele>-3.6</ele>
        <time>2024-07-03T12:10:01Z</time>
      </trkpt>
      <trkpt lat="49.28121" lon="-0.16253">
        <ele>-3.4</ele>
        <time>2024-07-03T12:10:02Z</time>
      </trkpt>
      <trkpt lat="49.28115" lon="-0.1626">
        <ele>-3.2</ele>
        <time>2024-07-03T12:10:03Z</time>
      </trkpt>
      <trkpt lat="49.28109" lon="-0.16266">
        <ele>-3.2</ele>
        <time>2024-07-03T12:10:04Z</time>
      </trkpt>
      <trkpt lat="49.28104" lon="-0.16273">
        <ele>-3.6</ele>
        <time>2024-07-03T12:10:05Z</time>
      </trkpt>
      <trkpt lat="49.281" lon="-0.1628">
        <ele>-4</ele>
        <time>2024-07-03T12:10:06Z</time>
      </trkpt>
      <trkpt lat="49.28095" lon="-0.16289">
        <ele>-4.2</ele>
        <time>2024-07-03T12:10:07Z</time>
      </trkpt>
      <trkpt lat="49.28091" lon="-0.16297">
        <ele>-4.2</ele>
        <time>2024-07-03T12:10:08Z</time>
      </trkpt>
      <trkpt lat="49.28086" lon="-0.16306">
        <ele>-4.2</ele>
        <time>2024-07-03T12:10:09Z</time>
      </trkpt>
      <trkpt lat="49.28082" lon="-0.16315">
        <ele>-4</ele>
        <time>2024-07-03T12:10:10Z</time>
      </trkpt>
      <trkpt lat="49.28078" lon="-0.16324">
        <ele>-3.4</ele>
        <time>2024-07-03T12:10:11Z</time>
      </trkpt>
      <trkpt lat="49.28073" lon="-0.16333">
        <ele>-2.8</ele>
        <time>2024-07-03T12:10:12Z</time>
      </trkpt>
      <trkpt lat="49.28069" lon="-0.16342">
        <ele>-2.2</ele>
        <time>2024-07-03T12:10:13Z</time>
      </trkpt>
      <trkpt lat="49.28064" lon="-0.16351">
        <ele>-1.8</ele>
        <time>2024-07-03T12:10:14Z</time>
      </trkpt>
      <trkpt lat="49.28058" lon="-0.16359">
        <ele>-1.6</ele>
        <time>2024-07-03T12:10:15Z</time>
      </trkpt>
      <trkpt lat="49.28052" lon="-0.16367">
        <ele>-1.6</ele>
        <time>2024-07-03T12:10:16Z</time>
      </trkpt>
      <trkpt lat="49.28045" lon="-0.16374">
        <ele>-1.6</ele>
        <time>2024-07-03T12:10:17Z</time>
      </trkpt>
      <trkpt lat="49.28038" lon="-0.1638">
        <ele>-1.6</ele>
        <time>2024-07-03T12:10:18Z</time>
      </trkpt>
      <trkpt lat="49.28031" lon="-0.16384">
        <ele>-2</ele>
        <time>2024-07-03T12:10:19Z</time>
      </trkpt>
      <trkpt lat="49.28024" lon="-0.16388">
        <ele>-2.2</ele>
        <time>2024-07-03T12:10:20Z</time>
      </trkpt>
      <trkpt lat="49.28016" lon="-0.16391">
        <ele>-2.2</ele>
        <time>2024-07-03T12:10:21Z</time>
      </trkpt>
      <trkpt lat="49.28009" lon="-0.16394">
        <ele>-2.2</ele>
        <time>2024-07-03T12:10:22Z</time>
      </trkpt>
      <trkpt lat="49.28002" lon="-0.16397">
        <ele>-2.2</ele>
        <time>2024-07-03T12:10:23Z</time>
      </trkpt>
      <trkpt lat="49.27995" lon="-0.16399">
        <ele>-1.8</ele>
        <time>2024-07-03T12:10:24Z</time>
      </trkpt>
      <trkpt lat="49.27987" lon="-0.16401">
        <ele>-1.4</ele>
        <time>2024-07-03T12:10:25Z</time>
      </trkpt>
      <trkpt lat="49.2798" lon="-0.16402">
        <ele>-1.2</ele>
        <time>2024-07-03T12:10:26Z</time>
      </trkpt>
      <trkpt lat="49.27972" lon="-0.16403">
        <ele>-1</ele>
        <time>2024-07-03T12:10:27Z</time>
      </trkpt>
      <trkpt lat="49.27964" lon="-0.16402">
        <ele>-0.8</ele>
        <time>2024-07-03T12:10:28Z</time>
      </trkpt>
      <trkpt lat="49.27957" lon="-0.16401">
        <ele>-0.8</ele>
        <time>2024-07-03T12:10:29Z</time>
      </trkpt>
      <trkpt lat="49.27949" lon="-0.16399">
        <ele>-0.6</ele>
        <time>2024-07-03T12:10:30Z</time>
      </trkpt>
      <trkpt lat="49.27941" lon="-0.16397">
        <ele>-0.6</ele>
        <time>2024-07-03T12:10:31Z</time>
      </trkpt>
      <trkpt lat="49.27933" lon="-0.16395">
        <ele>-0.6</ele>
        <time>2024-07-03T12:10:32Z</time>
      </trkpt>
      <trkpt lat="49.27925" lon="-0.16392">
        <ele>-0.6</ele>
        <time>2024-07-03T12:10:33Z</time>
      </trkpt>
      <trkpt lat="49.27917" lon="-0.1639">
        <ele>-0.8</ele>
        <time>2024-07-03T12:10:34Z</time>
      </trkpt>
      <trkpt lat="49.27909" lon="-0.16389">
        <ele>-1</ele>
        <time>2024-07-03T12:10:35Z</time>
      </trkpt>
      <trkpt lat="49.27901" lon="-0.16389">
        <ele>-1</ele>
        <time>2024-07-03T12:10:36Z</time>
      </trkpt>
      <trkpt lat="49.27894" lon="-0.1639">
        <ele>-1.2</ele>
        <time>2024-07-03T12:10:37Z</time>
      </trkpt>
      <trkpt lat="49.27886" lon="-0.16391">
        <ele>-1.4</ele>
        <time>2024-07-03T12:10:38Z</time>
      </trkpt>
      <trkpt lat="49.27879" lon="-0.16393">
        <ele>-1.6</ele>
        <time>2024-07-03T12:10:39Z</time>
      </trkpt>
      <trkpt lat="49.27873" lon="-0.16395">
        <ele>-1.8</ele>
        <time>2024-07-03T12:10:40Z</time>
      </trkpt>
      <trkpt lat="49.27866" lon="-0.16397">
        <ele>-2</ele>
        <time>2024-07-03T12:10:41Z</time>
      </trkpt>
      <trkpt lat="49.27859" lon="-0.16399">
        <ele>-2.2</ele>
        <time>2024-07-03T12:10:42Z</time>
      </trkpt>
      <trkpt lat="49.27852" lon="-0.16401">
        <ele>-2.2</ele>
        <time>2024-07-03T12:10:43Z</time>
      </trkpt>
      <trkpt lat="49.27845" lon="-0.16403">
        <ele>-2.2</ele>
        <time>2024-07-03T12:10:44Z</time>
      </trkpt>
      <trkpt lat="49.27839" lon="-0.16405">
        <ele>-2</ele>
        <time>2024-07-03T12:10:45Z</time>
      </trkpt>
      <trkpt lat="49.27832" lon="-0.16407">
        <ele>-2</ele>
        <time>2024-07-03T12:10:46Z</time>
      </trkpt>
      <trkpt lat="49.27826" lon="-0.1641">
        <ele>-2</ele>
        <time>2024-07-03T12:10:47Z</time>
      </trkpt>
      <trkpt lat="49.27819" lon="-0.16414">
        <ele>-1.8</ele>
        <time>2024-07-03T12:10:48Z</time>
      </trkpt>
      <trkpt lat="49.27813" lon="-0.16417">
        <ele>-1.8</ele>
        <time>2024-07-03T12:10:49Z</time>
      </trkpt>
      <trkpt lat="49.27806" lon="-0.1642">
        <ele>-1.8</ele>
        <time>2024-07-03T12:10:50Z</time>
      </trkpt>
      <trkpt lat="49.27799" lon="-0.16424">
        <ele>-1.6</ele>
        <time>2024-07-03T12:10:51Z</time>
      </trkpt>
      <trkpt lat="49.27792" lon="-0.16428">
        <ele>-1.6</ele>
        <time>2024-07-03T12:10:52Z</time>
      </trkpt>
      <trkpt lat="49.27786" lon="-0.16432">
        <ele>-1.6</ele>
        <time>2024-07-03T12:10:53Z</time>
      </trkpt>
      <trkpt lat="49.27779" lon="-0.16436">
        <ele>-1.6</ele>
        <time>2024-07-03T12:10:54Z</time>
      </trkpt>
      <trkpt lat="49.27772" lon="-0.1644">
        <ele>-1.6</ele>
        <time>2024-07-03T12:10:55Z</time>
      </trkpt>
      <trkpt lat="49.27765" lon="-0.16444">
        <ele>-1.8</ele>
        <time>2024-07-03T12:10:56Z</time>
      </trkpt>
      <trkpt lat="49.27758" lon="-0.16448">
        <ele>-2</ele>
        <time>2024-07-03T12:10:57Z</time>
      </trkpt>
      <trkpt lat="49.27751" lon="-0.16452">
        <ele>-2</ele>
        <time>2024-07-03T12:10:58Z</time>
      </trkpt>
      <trkpt lat="49.27744" lon="-0.16456">
        <ele>-2</ele>
        <time>2024-07-03T12:10:59Z</time>
      </trkpt>
      <trkpt lat="49.27738" lon="-0.1646">
        <ele>-1.8</ele>
        <time>2024-07-03T12:11:00Z</time>
      </trkpt>
      <trkpt lat="49.27731" lon="-0.16463">
        <ele>-1.8</ele>
        <time>2024-07-03T12:11:01Z</time>
      </trkpt>
      <trkpt lat="49.27723" lon="-0.16467">
        <ele>-1.6</ele>
        <time>2024-07-03T12:11:02Z</time>
      </trkpt>
      <trkpt lat="49.27716" lon="-0.1647">
        <ele>-1.6</ele>
        <time>2024-07-03T12:11:03Z</time>
      </trkpt>
      <trkpt lat="49.27708" lon="-0.16473">
        <ele>-1.6</ele>
        <time>2024-07-03T12:11:04Z</time>
      </trkpt>
      <trkpt lat="49.27701" lon="-0.16474">
        <ele>-1.6</ele>
        <time>2024-07-03T12:11:05Z</time>
      </trkpt>
      <trkpt lat="49.27693" lon="-0.16476">
        <ele>-1.6</ele>
        <time>2024-07-03T12:11:06Z</time>
      </trkpt>
      <trkpt lat="49.27685" lon="-0.16477">
        <ele>-1.6</ele>
        <time>2024-07-03T12:11:07Z</time>
      </trkpt>
      <trkpt lat="49.27677" lon="-0.16478">
        <ele>-1.6</ele>
        <time>2024-07-03T12:11:08Z</time>
      </trkpt>
      <trkpt lat="49.2767" lon="-0.1648">
        <ele>-1.6</ele>
        <time>2024-07-03T12:11:09Z</time>
      </trkpt>
      <trkpt lat="49.27662" lon="-0.16481">
        <ele>-1.8</ele>
        <time>2024-07-03T12:11:10Z</time>
      </trkpt>
      <trkpt lat="49.27654" lon="-0.16482">
        <ele>-1.8</ele>
        <time>2024-07-03T12:11:11Z</time>
      </trkpt>
      <trkpt lat="49.27646" lon="-0.16482">
        <ele>-1.8</ele>
        <time>2024-07-03T12:11:12Z</time>
      </trkpt>
      <trkpt lat="49.27639" lon="-0.16482">
        <ele>-1.8</ele>
        <time>2024-07-03T12:11:13Z</time>
      </trkpt>
      <trkpt lat="49.27631" lon="-0.16483">
        <ele>-1.8</ele>
        <time>2024-07-03T12:11:14Z</time>
      </trkpt>
      <trkpt lat="49.27623" lon="-0.16483">
        <ele>-1.6</ele>
        <time>2024-07-03T12:11:15Z</time>
      </trkpt>
      <trkpt lat="49.27616" lon="-0.16484">
        <ele>-1.6</ele>
        <time>2024-07-03T12:11:16Z</time>
      </trkpt>
      <trkpt lat="49.27608" lon="-0.16484">
        <ele>-1.6</ele>
        <time>2024-07-03T12:11:17Z</time>
      </trkpt>
      <trkpt lat="49.27601" lon="-0.16484">
        <ele>-1.6</ele>
        <time>2024-07-03T12:11:18Z</time>
      </trkpt>
      <trkpt lat="49.27593" lon="-0.16485">
        <ele>-1.6</ele>
        <time>2024-07-03T12:11:19Z</time>
      </trkpt>
      <trkpt lat="49.27586" lon="-0.16486">
        <ele>-1.6</ele>
        <time>2024-07-03T12:11:20Z</time>
      </trkpt>
      <trkpt lat="49.27578" lon="-0.16488">
        <ele>-1.6</ele>
        <time>2024-07-03T12:11:21Z</time>
      </trkpt>
      <trkpt lat="49.27571" lon="-0.1649">
        <ele>-2</ele>
        <time>2024-07-03T12:11:22Z</time>
      </trkpt>
      <trkpt lat="49.27564" lon="-0.16492">
        <ele>-2.2</ele>
        <time>2024-07-03T12:11:23Z</time>
      </trkpt>
      <trkpt lat="49.27556" lon="-0.16494">
        <ele>-2.2</ele>
        <time>2024-07-03T12:11:24Z</time>
      </trkpt>
      <trkpt lat="49.27549" lon="-0.16495">
        <ele>-2.2</ele>
        <time>2024-07-03T12:11:25Z</time>
      </trkpt>
      <trkpt lat="49.27542" lon="-0.16497">
        <ele>-2.2</ele>
        <time>2024-07-03T12:11:26Z</time>
      </trkpt>
      <trkpt lat="49.27535" lon="-0.16499">
        <ele>-2.2</ele>
        <time>2024-07-03T12:11:27Z</time>
      </trkpt>
      <trkpt lat="49.27528" lon="-0.16501">
        <ele>-2.2</ele>
        <time>2024-07-03T12:11:28Z</time>
      </trkpt>
      <trkpt lat="49.2752" lon="-0.16502">
        <ele>-2.2</ele>
        <time>2024-07-03T12:11:29Z</time>
      </trkpt>
      <trkpt lat="49.27513" lon="-0.16502">
        <ele>-2.2</ele>
        <time>2024-07-03T12:11:30Z</time>
      </trkpt>
      <trkpt lat="49.27506" lon="-0.16503">
        <ele>-2.2</ele>
        <time>2024-07-03T12:11:31Z</time>
      </trkpt>
      <trkpt lat="49.27498" lon="-0.16503">
        <ele>-2.2</ele>
        <time>2024-07-03T12:11:32Z</time>
      </trkpt>
      <trkpt lat="49.27491" lon="-0.16503">
        <ele>-2.2</ele>
        <time>2024-07-03T12:11:33Z</time>
      </trkpt>
      <trkpt lat="49.27484" lon="-0.16502">
        <ele>-2.4</ele>
        <time>2024-07-03T12:11:34Z</time>
      </trkpt>
      <trkpt lat="49.27476" lon="-0.16501">
        <ele>-2.4</ele>
        <time>2024-07-03T12:11:35Z</time>
      </trkpt>
      <trkpt lat="49.27469" lon="-0.165">
        <ele>-2.6</ele>
        <time>2024-07-03T12:11:36Z</time>
      </trkpt>
      <trkpt lat="49.27462" lon="-0.16498">
        <ele>-2.8</ele>
        <time>2024-07-03T12:11:37Z</time>
      </trkpt>
      <trkpt lat="49.27454" lon="-0.16496">
        <ele>-2.8</ele>
        <time>2024-07-03T12:11:38Z</time>
      </trkpt>
      <trkpt lat="49.27447" lon="-0.16494">
        <ele>-2.8</ele>
        <time>2024-07-03T12:11:39Z</time>
      </trkpt>
      <trkpt lat="49.2744" lon="-0.16491">
        <ele>-2.8</ele>
        <time>2024-07-03T12:11:40Z</time>
      </trkpt>
      <trkpt lat="49.27433" lon="-0.16489">
        <ele>-2.8</ele>
        <time>2024-07-03T12:11:41Z</time>
      </trkpt>
      <trkpt lat="49.27426" lon="-0.16486">
        <ele>-2.8</ele>
        <time>2024-07-03T12:11:42Z</time>
      </trkpt>
      <trkpt lat="49.27418" lon="-0.16484">
        <ele>-2.6</ele>
        <time>2024-07-03T12:11:43Z</time>
      </trkpt>
      <trkpt lat="49.27411" lon="-0.16481">
        <ele>-2.6</ele>
        <time>2024-07-03T12:11:44Z</time>
      </trkpt>
      <trkpt lat="49.27404" lon="-0.16479">
        <ele>-2.6</ele>
        <time>2024-07-03T12:11:45Z</time>
      </trkpt>
      <trkpt lat="49.27396" lon="-0.16477">
        <ele>-2.6</ele>
        <time>2024-07-03T12:11:46Z</time>
      </trkpt>
      <trkpt lat="49.27389" lon="-0.16475">
        <ele>-2.6</ele>
        <time>2024-07-03T12:11:47Z</time>
      </trkpt>
      <trkpt lat="49.27382" lon="-0.16473">
        <ele>-2.6</ele>
        <time>2024-07-03T12:11:48Z</time>
      </trkpt>
      <trkpt lat="49.27374" lon="-0.16471">
        <ele>-2.8</ele>
        <time>2024-07-03T12:11:49Z</time>
      </trkpt>
      <trkpt lat="49.27367" lon="-0.16468">
        <ele>-2.8</ele>
        <time>2024-07-03T12:11:50Z</time>
      </trkpt>
      <trkpt lat="49.2736" lon="-0.16466">
        <ele>-2.8</ele>
        <time>2024-07-03T12:11:51Z</time>
      </trkpt>
      <trkpt lat="49.27353" lon="-0.16464">
        <ele>-2.8</ele>
        <time>2024-07-03T12:11:52Z</time>
      </trkpt>
      <trkpt lat="49.27346" lon="-0.16462">
        <ele>-2.8</ele>
        <time>2024-07-03T12:11:53Z</time>
      </trkpt>
      <trkpt lat="49.27338" lon="-0.16459">
        <ele>-2.8</ele>
        <time>2024-07-03T12:11:54Z</time>
      </trkpt>
      <trkpt lat="49.27331" lon="-0.16457">
        <ele>-2.8</ele>
        <time>2024-07-03T12:11:55Z</time>
      </trkpt>
      <trkpt lat="49.27324" lon="-0.16455">
        <ele>-2.6</ele>
        <time>2024-07-03T12:11:56Z</time>
      </trkpt>
      <trkpt lat="49.27316" lon="-0.16453">
        <ele>-2.6</ele>
        <time>2024-07-03T12:11:57Z</time>
      </trkpt>
      <trkpt lat="49.27309" lon="-0.16451">
        <ele>-2.8</ele>
        <time>2024-07-03T12:11:58Z</time>
      </trkpt>
      <trkpt lat="49.27302" lon="-0.16449">
        <ele>-2.8</ele>
        <time>2024-07-03T12:11:59Z</time>
      </trkpt>
      <trkpt lat="49.27295" lon="-0.16447">
        <ele>-3</ele>
        <time>2024-07-03T12:12:00Z</time>
      </trkpt>
      <trkpt lat="49.27287" lon="-0.16445">
        <ele>-3</ele>
        <time>2024-07-03T12:12:01Z</time>
      </trkpt>
      <trkpt lat="49.2728" lon="-0.16443">
        <ele>-2.8</ele>
        <time>2024-07-03T12:12:02Z</time>
      </trkpt>
      <trkpt lat="49.27273" lon="-0.16441">
        <ele>-3</ele>
        <time>2024-07-03T12:12:03Z</time>
      </trkpt>
      <trkpt lat="49.27266" lon="-0.16439">
        <ele>-3</ele>
        <time>2024-07-03T12:12:04Z</time>
      </trkpt>
      <trkpt lat="49.27259" lon="-0.16437">
        <ele>-3.2</ele>
        <time>2024-07-03T12:12:05Z</time>
      </trkpt>
      <trkpt lat="49.27251" lon="-0.16435">
        <ele>-3.2</ele>
        <time>2024-07-03T12:12:06Z</time>
      </trkpt>
      <trkpt lat="49.27244" lon="-0.16433">
        <ele>-3.2</ele>
        <time>2024-07-03T12:12:07Z</time>
      </trkpt>
      <trkpt lat="49.27237" lon="-0.16431">
        <ele>-3.2</ele>
        <time>2024-07-03T12:12:08Z</time>
      </trkpt>
      <trkpt lat="49.2723" lon="-0.16429">
        <ele>-3.2</ele>
        <time>2024-07-03T12:12:09Z</time>
      </trkpt>
      <trkpt lat="49.27224" lon="-0.16426">
        <ele>-3</ele>
        <time>2024-07-03T12:12:10Z</time>
      </trkpt>
      <trkpt lat="49.27217" lon="-0.16421">
        <ele>-3</ele>
        <time>2024-07-03T12:12:11Z</time>
      </trkpt>
      <trkpt lat="49.2721" lon="-0.16415">
        <ele>-2.8</ele>
        <time>2024-07-03T12:12:12Z</time>
      </trkpt>
      <trkpt lat="49.27204" lon="-0.16409">
        <ele>-2.6</ele>
        <time>2024-07-03T12:12:13Z</time>
      </trkpt>
      <trkpt lat="49.27198" lon="-0.16402">
        <ele>-2.2</ele>
        <time>2024-07-03T12:12:14Z</time>
      </trkpt>
      <trkpt lat="49.27192" lon="-0.16395">
        <ele>-2.2</ele>
        <time>2024-07-03T12:12:15Z</time>
      </trkpt>
      <trkpt lat="49.27186" lon="-0.16388">
        <ele>-2.2</ele>
        <time>2024-07-03T12:12:16Z</time>
      </trkpt>
      <trkpt lat="49.2718" lon="-0.16381">
        <ele>-2</ele>
        <time>2024-07-03T12:12:17Z</time>
      </trkpt>
      <trkpt lat="49.27174" lon="-0.16373">
        <ele>-2</ele>
        <time>2024-07-03T12:12:18Z</time>
      </trkpt>
      <trkpt lat="49.27168" lon="-0.16366">
        <ele>-2</ele>
        <time>2024-07-03T12:12:19Z</time>
      </trkpt>
      <trkpt lat="49.27162" lon="-0.1636">
        <ele>-2</ele>
        <time>2024-07-03T12:12:20Z</time>
      </trkpt>
      <trkpt lat="49.27156" lon="-0.16353">
        <ele>-2</ele>
        <time>2024-07-03T12:12:21Z</time>
      </trkpt>
      <trkpt lat="49.2715" lon="-0.16346">
        <ele>-2</ele>
        <time>2024-07-03T12:12:22Z</time>
      </trkpt>
      <trkpt lat="49.27143" lon="-0.16339">
        <ele>-2</ele>
        <time>2024-07-03T12:12:23Z</time>
      </trkpt>
      <trkpt lat="49.27137" lon="-0.16332">
        <ele>-2</ele>
        <time>2024-07-03T12:12:24Z</time>
      </trkpt>
      <trkpt lat="49.27132" lon="-0.16325">
        <ele>-2</ele>
        <time>2024-07-03T12:12:25Z</time>
      </trkpt>
      <trkpt lat="49.27125" lon="-0.16317">
        <ele>-2</ele>
        <time>2024-07-03T12:12:26Z</time>
      </trkpt>
      <trkpt lat="49.27119" lon="-0.1631">
        <ele>-2.2</ele>
        <time>2024-07-03T12:12:27Z</time>
      </trkpt>
      <trkpt lat="49.27113" lon="-0.16303">
        <ele>-2.2</ele>
        <time>2024-07-03T12:12:28Z</time>
      </trkpt>
      <trkpt lat="49.27107" lon="-0.16296">
        <ele>-2.4</ele>
        <time>2024-07-03T12:12:29Z</time>
      </trkpt>
      <trkpt lat="49.27101" lon="-0.16289">
        <ele>-2.4</ele>
        <time>2024-07-03T12:12:30Z</time>
      </trkpt>
      <trkpt lat="49.27094" lon="-0.16282">
        <ele>-2.4</ele>
        <time>2024-07-03T12:12:31Z</time>
      </trkpt>
      <trkpt lat="49.27088" lon="-0.16275">
        <ele>-2.4</ele>
        <time>2024-07-03T12:12:32Z</time>
      </trkpt>
      <trkpt lat="49.27082" lon="-0.16268">
        <ele>-2.4</ele>
        <time>2024-07-03T12:12:33Z</time>
      </trkpt>
      <trkpt lat="49.27076" lon="-0.16261">
        <ele>-2.4</ele>
        <time>2024-07-03T12:12:34Z</time>
      </trkpt>
      <trkpt lat="49.2707" lon="-0.16254">
        <ele>-2.2</ele>
        <time>2024-07-03T12:12:35Z</time>
      </trkpt>
      <trkpt lat="49.27065" lon="-0.16247">
        <ele>-2.2</ele>
        <time>2024-07-03T12:12:36Z</time>
      </trkpt>
      <trkpt lat="49.27059" lon="-0.16241">
        <ele>-2</ele>
        <time>2024-07-03T12:12:37Z</time>
      </trkpt>
      <trkpt lat="49.27054" lon="-0.16234">
        <ele>-2</ele>
        <time>2024-07-03T12:12:38Z</time>
      </trkpt>
      <trkpt lat="49.27048" lon="-0.16226">
        <ele>-2</ele>
        <time>2024-07-03T12:12:39Z</time>
      </trkpt>
      <trkpt lat="49.27042" lon="-0.16219">
        <ele>-2</ele>
        <time>2024-07-03T12:12:40Z</time>
      </trkpt>
      <trkpt lat="49.27036" lon="-0.16211">
        <ele>-2</ele>
        <time>2024-07-03T12:12:41Z</time>
      </trkpt>
      <trkpt lat="49.2703" lon="-0.16204">
        <ele>-2</ele>
        <time>2024-07-03T12:12:42Z</time>
      </trkpt>
      <trkpt lat="49.27024" lon="-0.16197">
        <ele>-2.2</ele>
        <time>2024-07-03T12:12:43Z</time>
      </trkpt>
      <trkpt lat="49.27018" lon="-0.1619">
        <ele>-2.4</ele>
        <time>2024-07-03T12:12:44Z</time>
      </trkpt>
      <trkpt lat="49.27012" lon="-0.16183">
        <ele>-2.6</ele>
        <time>2024-07-03T12:12:45Z</time>
      </trkpt>
      <trkpt lat="49.27006" lon="-0.16177">
        <ele>-2.6</ele>
        <time>2024-07-03T12:12:46Z</time>
      </trkpt>
      <trkpt lat="49.27" lon="-0.1617">
        <ele>-2.8</ele>
        <time>2024-07-03T12:12:47Z</time>
      </trkpt>
      <trkpt lat="49.26994" lon="-0.16163">
        <ele>-2.8</ele>
        <time>2024-07-03T12:12:48Z</time>
      </trkpt>
      <trkpt lat="49.26988" lon="-0.16157">
        <ele>-2.8</ele>
        <time>2024-07-03T12:12:49Z</time>
      </trkpt>
      <trkpt lat="49.26982" lon="-0.1615">
        <ele>-3</ele>
        <time>2024-07-03T12:12:50Z</time>
      </trkpt>
      <trkpt lat="49.26976" lon="-0.16143">
        <ele>-3</ele>
        <time>2024-07-03T12:12:51Z</time>
      </trkpt>
      <trkpt lat="49.2697" lon="-0.16135">
        <ele>-2.8</ele>
        <time>2024-07-03T12:12:52Z</time>
      </trkpt>
      <trkpt lat="49.26964" lon="-0.16128">
        <ele>-2.8</ele>
        <time>2024-07-03T12:12:53Z</time>
      </trkpt>
      <trkpt lat="49.26958" lon="-0.16121">
        <ele>-2.8</ele>
        <time>2024-07-03T12:12:54Z</time>
      </trkpt>
      <trkpt lat="49.26952" lon="-0.16113">
        <ele>-2.8</ele>
        <time>2024-07-03T12:12:55Z</time>
      </trkpt>
      <trkpt lat="49.26946" lon="-0.16106">
        <ele>-3</ele>
        <time>2024-07-03T12:12:56Z</time>
      </trkpt>
      <trkpt lat="49.2694" lon="-0.16099">
        <ele>-3</ele>
        <time>2024-07-03T12:12:57Z</time>
      </trkpt>
      <trkpt lat="49.26934" lon="-0.16092">
        <ele>-3.2</ele>
        <time>2024-07-03T12:12:58Z</time>
      </trkpt>
      <trkpt lat="49.26928" lon="-0.16085">
        <ele>-3.2</ele>
        <time>2024-07-03T12:12:59Z</time>
      </trkpt>
      <trkpt lat="49.26922" lon="-0.16078">
        <ele>-3.2</ele>
        <time>2024-07-03T12:13:00Z</time>
      </trkpt>
      <trkpt lat="49.26917" lon="-0.16071">
        <ele>-3.2</ele>
        <time>2024-07-03T12:13:01Z</time>
      </trkpt>
      <trkpt lat="49.26911" lon="-0.16064">
        <ele>-3</ele>
        <time>2024-07-03T12:13:02Z</time>
      </trkpt>
      <trkpt lat="49.26905" lon="-0.16057">
        <ele>-2.8</ele>
        <time>2024-07-03T12:13:03Z</time>
      </trkpt>
      <trkpt lat="49.269" lon="-0.16051">
        <ele>-2.8</ele>
        <time>2024-07-03T12:13:04Z</time>
      </trkpt>
      <trkpt lat="49.26894" lon="-0.16044">
        <ele>-2.6</ele>
        <time>2024-07-03T12:13:05Z</time>
      </trkpt>
      <trkpt lat="49.26889" lon="-0.16038">
        <ele>-2.6</ele>
        <time>2024-07-03T12:13:06Z</time>
      </trkpt>
      <trkpt lat="49.26883" lon="-0.16031">
        <ele>-2.6</ele>
        <time>2024-07-03T12:13:07Z</time>
      </trkpt>
      <trkpt lat="49.26878" lon="-0.16025">
        <ele>-2.6</ele>
        <time>2024-07-03T12:13:08Z</time>
      </trkpt>
      <trkpt lat="49.26872" lon="-0.16019">
        <ele>-2.8</ele>
        <time>2024-07-03T12:13:09Z</time>
      </trkpt>
      <trkpt lat="49.26867" lon="-0.16013">
        <ele>-2.8</ele>
        <time>2024-07-03T12:13:10Z</time>
      </trkpt>
      <trkpt lat="49.26862" lon="-0.16006">
        <ele>-2.8</ele>
        <time>2024-07-03T12:13:11Z</time>
      </trkpt>
      <trkpt lat="49.26856" lon="-0.16">
        <ele>-2.8</ele>
        <time>2024-07-03T12:13:12Z</time>
      </trkpt>
      <trkpt lat="49.26851" lon="-0.15994">
        <ele>-2.6</ele>
        <time>2024-07-03T12:13:13Z</time>
      </trkpt>
      <trkpt lat="49.26846" lon="-0.15988">
        <ele>-2.6</ele>
        <time>2024-07-03T12:13:14Z</time>
      </trkpt>
      <trkpt lat="49.26841" lon="-0.15983">
        <ele>-2.4</ele>
        <time>2024-07-03T12:13:15Z</time>
      </trkpt>
      <trkpt lat="49.26835" lon="-0.15977">
        <ele>-2.2</ele>
        <time>2024-07-03T12:13:16Z</time>
      </trkpt>
      <trkpt lat="49.2683" lon="-0.1597">
        <ele>-2</ele>
        <time>2024-07-03T12:13:17Z</time>
      </trkpt>
      <trkpt lat="49.26825" lon="-0.15964">
        <ele>-2</ele>
        <time>2024-07-03T12:13:18Z</time>
      </trkpt>
      <trkpt lat="49.2682" lon="-0.15957">
        <ele>-2</ele>
        <time>2024-07-03T12:13:19Z</time>
      </trkpt>
      <trkpt lat="49.26813" lon="-0.1595">
        <ele>-2</ele>
        <time>2024-07-03T12:13:20Z</time>
      </trkpt>
      <trkpt lat="49.26806" lon="-0.15943">
        <ele>-2.2</ele>
        <time>2024-07-03T12:13:21Z</time>
      </trkpt>
      <trkpt lat="49.268" lon="-0.15936">
        <ele>-2.4</ele>
        <time>2024-07-03T12:13:22Z</time>
      </trkpt>
      <trkpt lat="49.26793" lon="-0.1593">
        <ele>-2.4</ele>
        <time>2024-07-03T12:13:23Z</time>
      </trkpt>
      <trkpt lat="49.26787" lon="-0.15925">
        <ele>-2.4</ele>
        <time>2024-07-03T12:13:24Z</time>
      </trkpt>
      <trkpt lat="49.2678" lon="-0.1592">
        <ele>-2.6</ele>
        <time>2024-07-03T12:13:25Z</time>
      </trkpt>
      <trkpt lat="49.26773" lon="-0.15916">
        <ele>-2.4</ele>
        <time>2024-07-03T12:13:26Z</time>
      </trkpt>
      <trkpt lat="49.26766" lon="-0.15913">
        <ele>-2.4</ele>
        <time>2024-07-03T12:13:27Z</time>
      </trkpt>
      <trkpt lat="49.26759" lon="-0.1591">
        <ele>-2.4</ele>
        <time>2024-07-03T12:13:28Z</time>
      </trkpt>
      <trkpt lat="49.26751" lon="-0.15907">
        <ele>-2.4</ele>
        <time>2024-07-03T12:13:29Z</time>
      </trkpt>
      <trkpt lat="49.26744" lon="-0.15905">
        <ele>-2.4</ele>
        <time>2024-07-03T12:13:30Z</time>
      </trkpt>
      <trkpt lat="49.26737" lon="-0.15903">
        <ele>-2.4</ele>
        <time>2024-07-03T12:13:31Z</time>
      </trkpt>
      <trkpt lat="49.2673" lon="-0.15901">
        <ele>-2.4</ele>
        <time>2024-07-03T12:13:32Z</time>
      </trkpt>
      <trkpt lat="49.26722" lon="-0.15898">
        <ele>-2.4</ele>
        <time>2024-07-03T12:13:33Z</time>
      </trkpt>
      <trkpt lat="49.26715" lon="-0.15896">
        <ele>-2.4</ele>
        <time>2024-07-03T12:13:34Z</time>
      </trkpt>
      <trkpt lat="49.26709" lon="-0.15894">
        <ele>-2.4</ele>
        <time>2024-07-03T12:13:35Z</time>
      </trkpt>
      <trkpt lat="49.26702" lon="-0.15892">
        <ele>-2.6</ele>
        <time>2024-07-03T12:13:36Z</time>
      </trkpt>
      <trkpt lat="49.26695" lon="-0.15891">
        <ele>-2.6</ele>
        <time>2024-07-03T12:13:37Z</time>
      </trkpt>
      <trkpt lat="49.26688" lon="-0.15888">
        <ele>-2.6</ele>
        <time>2024-07-03T12:13:38Z</time>
      </trkpt>
      <trkpt lat="49.2668" lon="-0.15884">
        <ele>-2.6</ele>
        <time>2024-07-03T12:13:39Z</time>
      </trkpt>
      <trkpt lat="49.26673" lon="-0.15881">
        <ele>-2.4</ele>
        <time>2024-07-03T12:13:40Z</time>
      </trkpt>
      <trkpt lat="49.26665" lon="-0.15877">
        <ele>-2.2</ele>
        <time>2024-07-03T12:13:41Z</time>
      </trkpt>
      <trkpt lat="49.26659" lon="-0.15873">
        <ele>-2.2</ele>
        <time>2024-07-03T12:13:42Z</time>
      </trkpt>
      <trkpt lat="49.26652" lon="-0.15868">
        <ele>-2</ele>
        <time>2024-07-03T12:13:43Z</time>
      </trkpt>
      <trkpt lat="49.26646" lon="-0.15863">
        <ele>-2</ele>
        <time>2024-07-03T12:13:44Z</time>
      </trkpt>
      <trkpt lat="49.26639" lon="-0.15859">
        <ele>-2</ele>
        <time>2024-07-03T12:13:45Z</time>
      </trkpt>
      <trkpt lat="49.26632" lon="-0.15857">
        <ele>-2.2</ele>
        <time>2024-07-03T12:13:46Z</time>
      </trkpt>
      <trkpt lat="49.26625" lon="-0.15857">
        <ele>-2.2</ele>
        <time>2024-07-03T12:13:47Z</time>
      </trkpt>
      <trkpt lat="49.26618" lon="-0.15858">
        <ele>-2.4</ele>
        <time>2024-07-03T12:13:48Z</time>
      </trkpt>
      <trkpt lat="49.26611" lon="-0.15859">
        <ele>-2.4</ele>
        <time>2024-07-03T12:13:49Z</time>
      </trkpt>
      <trkpt lat="49.26604" lon="-0.1586">
        <ele>-2.6</ele>
        <time>2024-07-03T12:13:50Z</time>
      </trkpt>
      <trkpt lat="49.26597" lon="-0.1586">
        <ele>-2.6</ele>
        <time>2024-07-03T12:13:51Z</time>
      </trkpt>
      <trkpt lat="49.2659" lon="-0.15861">
        <ele>-2.8</ele>
        <time>2024-07-03T12:13:52Z</time>
      </trkpt>
      <trkpt lat="49.26583" lon="-0.15863">
        <ele>-2.8</ele>
        <time>2024-07-03T12:13:53Z</time>
      </trkpt>
      <trkpt lat="49.26576" lon="-0.15864">
        <ele>-3</ele>
        <time>2024-07-03T12:13:54Z</time>
      </trkpt>
      <trkpt lat="49.26569" lon="-0.15866">
        <ele>-2.8</ele>
        <time>2024-07-03T12:13:55Z</time>
      </trkpt>
      <trkpt lat="49.26562" lon="-0.15868">
        <ele>-2.8</ele>
        <time>2024-07-03T12:13:56Z</time>
      </trkpt>
      <trkpt lat="49.26555" lon="-0.1587">
        <ele>-2.8</ele>
        <time>2024-07-03T12:13:57Z</time>
      </trkpt>
      <trkpt lat="49.26548" lon="-0.15872">
        <ele>-3</ele>
        <time>2024-07-03T12:13:58Z</time>
      </trkpt>
      <trkpt lat="49.26541" lon="-0.15874">
        <ele>-3</ele>
        <time>2024-07-03T12:13:59Z</time>
      </trkpt>
      <trkpt lat="49.26534" lon="-0.15877">
        <ele>-3.2</ele>
        <time>2024-07-03T12:14:00Z</time>
      </trkpt>
      <trkpt lat="49.26527" lon="-0.15879">
        <ele>-3.4</ele>
        <time>2024-07-03T12:14:01Z</time>
      </trkpt>
      <trkpt lat="49.2652" lon="-0.15882">
        <ele>-3.4</ele>
        <time>2024-07-03T12:14:02Z</time>
      </trkpt>
      <trkpt lat="49.26514" lon="-0.15885">
        <ele>-3.6</ele>
        <time>2024-07-03T12:14:03Z</time>
      </trkpt>
      <trkpt lat="49.26507" lon="-0.15888">
        <ele>-3.6</ele>
        <time>2024-07-03T12:14:04Z</time>
      </trkpt>
      <trkpt lat="49.265" lon="-0.15892">
        <ele>-3.8</ele>
        <time>2024-07-03T12:14:05Z</time>
      </trkpt>
      <trkpt lat="49.26493" lon="-0.15895">
        <ele>-3.8</ele>
        <time>2024-07-03T12:14:06Z</time>
      </trkpt>
      <trkpt lat="49.26487" lon="-0.15898">
        <ele>-3.8</ele>
        <time>2024-07-03T12:14:07Z</time>
      </trkpt>
      <trkpt lat="49.2648" lon="-0.15902">
        <ele>-3.8</ele>
        <time>2024-07-03T12:14:08Z</time>
      </trkpt>
      <trkpt lat="49.26473" lon="-0.15905">
        <ele>-3.6</ele>
        <time>2024-07-03T12:14:09Z</time>
      </trkpt>
      <trkpt lat="49.26466" lon="-0.15909">
        <ele>-3.4</ele>
        <time>2024-07-03T12:14:10Z</time>
      </trkpt>
      <trkpt lat="49.26459" lon="-0.15913">
        <ele>-3.4</ele>
        <time>2024-07-03T12:14:11Z</time>
      </trkpt>
      <trkpt lat="49.26453" lon="-0.15916">
        <ele>-3.4</ele>
        <time>2024-07-03T12:14:12Z</time>
      </trkpt>
      <trkpt lat="49.26446" lon="-0.1592">
        <ele>-3.2</ele>
        <time>2024-07-03T12:14:13Z</time>
      </trkpt>
      <trkpt lat="49.26439" lon="-0.15923">
        <ele>-3.2</ele>
        <time>2024-07-03T12:14:14Z</time>
      </trkpt>
      <trkpt lat="49.26432" lon="-0.15927">
        <ele>-3</ele>
        <time>2024-07-03T12:14:15Z</time>
      </trkpt>
      <trkpt lat="49.26425" lon="-0.15931">
        <ele>-3</ele>
        <time>2024-07-03T12:14:16Z</time>
      </trkpt>
      <trkpt lat="49.26418" lon="-0.15934">
        <ele>-3.4</ele>
        <time>2024-07-03T12:14:17Z</time>
      </trkpt>
      <trkpt lat="49.26411" lon="-0.15938">
        <ele>-3.6</ele>
        <time>2024-07-03T12:14:18Z</time>
      </trkpt>
      <trkpt lat="49.26404" lon="-0.15941">
        <ele>-3.6</ele>
        <time>2024-07-03T12:14:19Z</time>
      </trkpt>
      <trkpt lat="49.26397" lon="-0.15944">
        <ele>-3.6</ele>
        <time>2024-07-03T12:14:20Z</time>
      </trkpt>
      <trkpt lat="49.2639" lon="-0.15948">
        <ele>-3.8</ele>
        <time>2024-07-03T12:14:21Z</time>
      </trkpt>
      <trkpt lat="49.26384" lon="-0.15952">
        <ele>-3.8</ele>
        <time>2024-07-03T12:14:22Z</time>
      </trkpt>
      <trkpt lat="49.26377" lon="-0.15956">
        <ele>-3.8</ele>
        <time>2024-07-03T12:14:23Z</time>
      </trkpt>
      <trkpt lat="49.2637" lon="-0.15959">
        <ele>-3.6</ele>
        <time>2024-07-03T12:14:24Z</time>
      </trkpt>
      <trkpt lat="49.26363" lon="-0.15963">
        <ele>-3.8</ele>
        <time>2024-07-03T12:14:25Z</time>
      </trkpt>
      <trkpt lat="49.26356" lon="-0.15966">
        <ele>-3.8</ele>
        <time>2024-07-03T12:14:26Z</time>
      </trkpt>
      <trkpt lat="49.26349" lon="-0.1597">
        <ele>-3.8</ele>
        <time>2024-07-03T12:14:27Z</time>
      </trkpt>
      <trkpt lat="49.26342" lon="-0.15974">
        <ele>-3.8</ele>
        <time>2024-07-03T12:14:28Z</time>
      </trkpt>
      <trkpt lat="49.26336" lon="-0.15977">
        <ele>-4</ele>
        <time>2024-07-03T12:14:29Z</time>
      </trkpt>
      <trkpt lat="49.26329" lon="-0.1598">
        <ele>-3.8</ele>
        <time>2024-07-03T12:14:30Z</time>
      </trkpt>
      <trkpt lat="49.26322" lon="-0.15984">
        <ele>-3.4</ele>
        <time>2024-07-03T12:14:31Z</time>
      </trkpt>
      <trkpt lat="49.26315" lon="-0.15987">
        <ele>-3.4</ele>
        <time>2024-07-03T12:14:32Z</time>
      </trkpt>
      <trkpt lat="49.26309" lon="-0.15991">
        <ele>-3.2</ele>
        <time>2024-07-03T12:14:33Z</time>
      </trkpt>
      <trkpt lat="49.26302" lon="-0.15994">
        <ele>-3.2</ele>
        <time>2024-07-03T12:14:34Z</time>
      </trkpt>
      <trkpt lat="49.26295" lon="-0.15998">
        <ele>-3.2</ele>
        <time>2024-07-03T12:14:35Z</time>
      </trkpt>
      <trkpt lat="49.26288" lon="-0.16001">
        <ele>-3.2</ele>
        <time>2024-07-03T12:14:36Z</time>
      </trkpt>
      <trkpt lat="49.26281" lon="-0.16005">
        <ele>-3.4</ele>
        <time>2024-07-03T12:14:37Z</time>
      </trkpt>
      <trkpt lat="49.26274" lon="-0.16008">
        <ele>-3.4</ele>
        <time>2024-07-03T12:14:38Z</time>
      </trkpt>
      <trkpt lat="49.26268" lon="-0.16012">
        <ele>-3.4</ele>
        <time>2024-07-03T12:14:39Z</time>
      </trkpt>
      <trkpt lat="49.26261" lon="-0.16015">
        <ele>-3.4</ele>
        <time>2024-07-03T12:14:40Z</time>
      </trkpt>
      <trkpt lat="49.26254" lon="-0.16019">
        <ele>-3.6</ele>
        <time>2024-07-03T12:14:41Z</time>
      </trkpt>
      <trkpt lat="49.26247" lon="-0.16022">
        <ele>-3.8</ele>
        <time>2024-07-03T12:14:42Z</time>
      </trkpt>
      <trkpt lat="49.26241" lon="-0.16026">
        <ele>-3.8</ele>
        <time>2024-07-03T12:14:43Z</time>
      </trkpt>
      <trkpt lat="49.26234" lon="-0.1603">
        <ele>-3.8</ele>
        <time>2024-07-03T12:14:44Z</time>
      </trkpt>
      <trkpt lat="49.26227" lon="-0.16033">
        <ele>-3.8</ele>
        <time>2024-07-03T12:14:45Z</time>
      </trkpt>
      <trkpt lat="49.26221" lon="-0.16037">
        <ele>-3.8</ele>
        <time>2024-07-03T12:14:46Z</time>
      </trkpt>
      <trkpt lat="49.26214" lon="-0.1604">
        <ele>-3.8</ele>
        <time>2024-07-03T12:14:47Z</time>
      </trkpt>
      <trkpt lat="49.26207" lon="-0.16044">
        <ele>-3.6</ele>
        <time>2024-07-03T12:14:48Z</time>
      </trkpt>
      <trkpt lat="49.262" lon="-0.16047">
        <ele>-3.4</ele>
        <time>2024-07-03T12:14:49Z</time>
      </trkpt>
      <trkpt lat="49.26193" lon="-0.1605">
        <ele>-3.4</ele>
        <time>2024-07-03T12:14:50Z</time>
      </trkpt>
      <trkpt lat="49.26186" lon="-0.16053">
        <ele>-3.6</ele>
        <time>2024-07-03T12:14:51Z</time>
      </trkpt>
      <trkpt lat="49.26179" lon="-0.16054">
        <ele>-3.6</ele>
        <time>2024-07-03T12:14:52Z</time>
      </trkpt>
      <trkpt lat="49.26172" lon="-0.16057">
        <ele>-3.6</ele>
        <time>2024-07-03T12:14:53Z</time>
      </trkpt>
      <trkpt lat="49.26165" lon="-0.16059">
        <ele>-3.8</ele>
        <time>2024-07-03T12:14:54Z</time>
      </trkpt>
      <trkpt lat="49.26158" lon="-0.16061">
        <ele>-4</ele>
        <time>2024-07-03T12:14:55Z</time>
      </trkpt>
      <trkpt lat="49.26151" lon="-0.16063">
        <ele>-4</ele>
        <time>2024-07-03T12:14:56Z</time>
      </trkpt>
      <trkpt lat="49.26144" lon="-0.16065">
        <ele>-3.8</ele>
        <time>2024-07-03T12:14:57Z</time>
      </trkpt>
      <trkpt lat="49.26137" lon="-0.16066">
        <ele>-3.8</ele>
        <time>2024-07-03T12:14:58Z</time>
      </trkpt>
      <trkpt lat="49.2613" lon="-0.16068">
        <ele>-3.8</ele>
        <time>2024-07-03T12:14:59Z</time>
      </trkpt>
      <trkpt lat="49.26123" lon="-0.16069">
        <ele>-3.6</ele>
        <time>2024-07-03T12:15:00Z</time>
      </trkpt>
      <trkpt lat="49.26116" lon="-0.1607">
        <ele>-3.6</ele>
        <time>2024-07-03T12:15:01Z</time>
      </trkpt>
      <trkpt lat="49.26108" lon="-0.16071">
        <ele>-3.4</ele>
        <time>2024-07-03T12:15:02Z</time>
      </trkpt>
      <trkpt lat="49.26101" lon="-0.16072">
        <ele>-3.4</ele>
        <time>2024-07-03T12:15:03Z</time>
      </trkpt>
      <trkpt lat="49.26094" lon="-0.16072">
        <ele>-3.6</ele>
        <time>2024-07-03T12:15:04Z</time>
      </trkpt>
      <trkpt lat="49.26087" lon="-0.16073">
        <ele>-3.6</ele>
        <time>2024-07-03T12:15:05Z</time>
      </trkpt>
      <trkpt lat="49.26079" lon="-0.16073">
        <ele>-3.6</ele>
        <time>2024-07-03T12:15:06Z</time>
      </trkpt>
      <trkpt lat="49.26072" lon="-0.16073">
        <ele>-3.6</ele>
        <time>2024-07-03T12:15:07Z</time>
      </trkpt>
      <trkpt lat="49.26064" lon="-0.16074">
        <ele>-3.6</ele>
        <time>2024-07-03T12:15:08Z</time>
      </trkpt>
      <trkpt lat="49.26057" lon="-0.16074">
        <ele>-3.6</ele>
        <time>2024-07-03T12:15:09Z</time>
      </trkpt>
      <trkpt lat="49.2605" lon="-0.16073">
        <ele>-3.6</ele>
        <time>2024-07-03T12:15:10Z</time>
      </trkpt>
      <trkpt lat="49.26042" lon="-0.16073">
        <ele>-3.6</ele>
        <time>2024-07-03T12:15:11Z</time>
      </trkpt>
      <trkpt lat="49.26035" lon="-0.16072">
        <ele>-3.4</ele>
        <time>2024-07-03T12:15:12Z</time>
      </trkpt>
      <trkpt lat="49.26027" lon="-0.16071">
        <ele>-3.4</ele>
        <time>2024-07-03T12:15:13Z</time>
      </trkpt>
      <trkpt lat="49.2602" lon="-0.1607">
        <ele>-3.4</ele>
        <time>2024-07-03T12:15:14Z</time>
      </trkpt>
      <trkpt lat="49.26012" lon="-0.16069">
        <ele>-3.4</ele>
        <time>2024-07-03T12:15:15Z</time>
      </trkpt>
      <trkpt lat="49.26005" lon="-0.16067">
        <ele>-3.2</ele>
        <time>2024-07-03T12:15:16Z</time>
      </trkpt>
      <trkpt lat="49.25997" lon="-0.16066">
        <ele>-3.2</ele>
        <time>2024-07-03T12:15:17Z</time>
      </trkpt>
      <trkpt lat="49.2599" lon="-0.16064">
        <ele>-3</ele>
        <time>2024-07-03T12:15:18Z</time>
      </trkpt>
      <trkpt lat="49.25982" lon="-0.16062">
        <ele>-3</ele>
        <time>2024-07-03T12:15:19Z</time>
      </trkpt>
      <trkpt lat="49.25975" lon="-0.1606">
        <ele>-2.8</ele>
        <time>2024-07-03T12:15:20Z</time>
      </trkpt>
      <trkpt lat="49.25967" lon="-0.16058">
        <ele>-2.6</ele>
        <time>2024-07-03T12:15:21Z</time>
      </trkpt>
      <trkpt lat="49.2596" lon="-0.16057">
        <ele>-2.6</ele>
        <time>2024-07-03T12:15:22Z</time>
      </trkpt>
      <trkpt lat="49.25952" lon="-0.16055">
        <ele>-2.6</ele>
        <time>2024-07-03T12:15:23Z</time>
      </trkpt>
      <trkpt lat="49.25944" lon="-0.16053">
        <ele>-2.8</ele>
        <time>2024-07-03T12:15:24Z</time>
      </trkpt>
      <trkpt lat="49.25937" lon="-0.16051">
        <ele>-2.8</ele>
        <time>2024-07-03T12:15:25Z</time>
      </trkpt>
      <trkpt lat="49.25929" lon="-0.16049">
        <ele>-3</ele>
        <time>2024-07-03T12:15:26Z</time>
      </trkpt>
      <trkpt lat="49.25922" lon="-0.16047">
        <ele>-3.2</ele>
        <time>2024-07-03T12:15:27Z</time>
      </trkpt>
      <trkpt lat="49.25914" lon="-0.16045">
        <ele>-3.2</ele>
        <time>2024-07-03T12:15:28Z</time>
      </trkpt>
      <trkpt lat="49.25907" lon="-0.16043">
        <ele>-3.4</ele>
        <time>2024-07-03T12:15:29Z</time>
      </trkpt>
      <trkpt lat="49.25899" lon="-0.16041">
        <ele>-3.4</ele>
        <time>2024-07-03T12:15:30Z</time>
      </trkpt>
      <trkpt lat="49.25892" lon="-0.16039">
        <ele>-3.4</ele>
        <time>2024-07-03T12:15:31Z</time>
      </trkpt>
      <trkpt lat="49.25884" lon="-0.16037">
        <ele>-3.6</ele>
        <time>2024-07-03T12:15:32Z</time>
      </trkpt>
      <trkpt lat="49.25877" lon="-0.16035">
        <ele>-3.6</ele>
        <time>2024-07-03T12:15:33Z</time>
      </trkpt>
      <trkpt lat="49.25869" lon="-0.16033">
        <ele>-3.4</ele>
        <time>2024-07-03T12:15:34Z</time>
      </trkpt>
      <trkpt lat="49.25861" lon="-0.16031">
        <ele>-3.6</ele>
        <time>2024-07-03T12:15:35Z</time>
      </trkpt>
      <trkpt lat="49.25854" lon="-0.16029">
        <ele>-3.6</ele>
        <time>2024-07-03T12:15:36Z</time>
      </trkpt>
      <trkpt lat="49.25847" lon="-0.16027">
        <ele>-3.8</ele>
        <time>2024-07-03T12:15:37Z</time>
      </trkpt>
      <trkpt lat="49.25839" lon="-0.16025">
        <ele>-3.8</ele>
        <time>2024-07-03T12:15:38Z</time>
      </trkpt>
      <trkpt lat="49.25832" lon="-0.16023">
        <ele>-3.8</ele>
        <time>2024-07-03T12:15:39Z</time>
      </trkpt>
      <trkpt lat="49.25824" lon="-0.16022">
        <ele>-3.8</ele>
        <time>2024-07-03T12:15:40Z</time>
      </trkpt>
      <trkpt lat="49.25817" lon="-0.1602">
        <ele>-3.6</ele>
        <time>2024-07-03T12:15:41Z</time>
      </trkpt>
      <trkpt lat="49.25809" lon="-0.16018">
        <ele>-3.6</ele>
        <time>2024-07-03T12:15:42Z</time>
      </trkpt>
      <trkpt lat="49.25802" lon="-0.16016">
        <ele>-3.4</ele>
        <time>2024-07-03T12:15:43Z</time>
      </trkpt>
      <trkpt lat="49.25794" lon="-0.16014">
        <ele>-3.4</ele>
        <time>2024-07-03T12:15:44Z</time>
      </trkpt>
      <trkpt lat="49.25787" lon="-0.16012">
        <ele>-3.4</ele>
        <time>2024-07-03T12:15:45Z</time>
      </trkpt>
      <trkpt lat="49.25779" lon="-0.1601">
        <ele>-3.2</ele>
        <time>2024-07-03T12:15:46Z</time>
      </trkpt>
      <trkpt lat="49.25772" lon="-0.16008">
        <ele>-3.2</ele>
        <time>2024-07-03T12:15:47Z</time>
      </trkpt>
      <trkpt lat="49.25764" lon="-0.16006">
        <ele>-3</ele>
        <time>2024-07-03T12:15:48Z</time>
      </trkpt>
      <trkpt lat="49.25757" lon="-0.16004">
        <ele>-3</ele>
        <time>2024-07-03T12:15:49Z</time>
      </trkpt>
      <trkpt lat="49.25749" lon="-0.16002">
        <ele>-3</ele>
        <time>2024-07-03T12:15:50Z</time>
      </trkpt>
      <trkpt lat="49.25741" lon="-0.16">
        <ele>-2.8</ele>
        <time>2024-07-03T12:15:51Z</time>
      </trkpt>
      <trkpt lat="49.25733" lon="-0.15997">
        <ele>-2.6</ele>
        <time>2024-07-03T12:15:52Z</time>
      </trkpt>
      <trkpt lat="49.25726" lon="-0.15995">
        <ele>-2.6</ele>
        <time>2024-07-03T12:15:53Z</time>
      </trkpt>
      <trkpt lat="49.25718" lon="-0.15994">
        <ele>-2.6</ele>
        <time>2024-07-03T12:15:54Z</time>
      </trkpt>
      <trkpt lat="49.25711" lon="-0.15992">
        <ele>-2.6</ele>
        <time>2024-07-03T12:15:55Z</time>
      </trkpt>
      <trkpt lat="49.25704" lon="-0.1599">
        <ele>-2.6</ele>
        <time>2024-07-03T12:15:56Z</time>
      </trkpt>
      <trkpt lat="49.25697" lon="-0.15988">
        <ele>-2.4</ele>
        <time>2024-07-03T12:15:57Z</time>
      </trkpt>
      <trkpt lat="49.2569" lon="-0.15987">
        <ele>-2.2</ele>
        <time>2024-07-03T12:15:58Z</time>
      </trkpt>
      <trkpt lat="49.25683" lon="-0.15985">
        <ele>-2</ele>
        <time>2024-07-03T12:15:59Z</time>
      </trkpt>
      <trkpt lat="49.25675" lon="-0.15983">
        <ele>-1.8</ele>
        <time>2024-07-03T12:16:00Z</time>
      </trkpt>
      <trkpt lat="49.25668" lon="-0.15982">
        <ele>-1.8</ele>
        <time>2024-07-03T12:16:01Z</time>
      </trkpt>
      <trkpt lat="49.25661" lon="-0.1598">
        <ele>-1.8</ele>
        <time>2024-07-03T12:16:02Z</time>
      </trkpt>
      <trkpt lat="49.25653" lon="-0.15979">
        <ele>-1.8</ele>
        <time>2024-07-03T12:16:03Z</time>
      </trkpt>
      <trkpt lat="49.25646" lon="-0.15978">
        <ele>-1.8</ele>
        <time>2024-07-03T12:16:04Z</time>
      </trkpt>
      <trkpt lat="49.25638" lon="-0.15977">
        <ele>-1.8</ele>
        <time>2024-07-03T12:16:05Z</time>
      </trkpt>
      <trkpt lat="49.25631" lon="-0.15977">
        <ele>-1.8</ele>
        <time>2024-07-03T12:16:06Z</time>
      </trkpt>
      <trkpt lat="49.25623" lon="-0.15976">
        <ele>-1.6</ele>
        <time>2024-07-03T12:16:07Z</time>
      </trkpt>
      <trkpt lat="49.25616" lon="-0.15976">
        <ele>-1.6</ele>
        <time>2024-07-03T12:16:08Z</time>
      </trkpt>
      <trkpt lat="49.25608" lon="-0.15976">
        <ele>-1.6</ele>
        <time>2024-07-03T12:16:09Z</time>
      </trkpt>
      <trkpt lat="49.25601" lon="-0.15976">
        <ele>-1.6</ele>
        <time>2024-07-03T12:16:10Z</time>
      </trkpt>
      <trkpt lat="49.25594" lon="-0.15976">
        <ele>-1.6</ele>
        <time>2024-07-03T12:16:11Z</time>
      </trkpt>
      <trkpt lat="49.25586" lon="-0.15977">
        <ele>-1.8</ele>
        <time>2024-07-03T12:16:12Z</time>
      </trkpt>
      <trkpt lat="49.25579" lon="-0.15978">
        <ele>-1.8</ele>
        <time>2024-07-03T12:16:13Z</time>
      </trkpt>
      <trkpt lat="49.25572" lon="-0.15979">
        <ele>-1.8</ele>
        <time>2024-07-03T12:16:14Z</time>
      </trkpt>
      <trkpt lat="49.25565" lon="-0.15981">
        <ele>-1.8</ele>
        <time>2024-07-03T12:16:15Z</time>
      </trkpt>
      <trkpt lat="49.25557" lon="-0.15983">
        <ele>-1.8</ele>
        <time>2024-07-03T12:16:16Z</time>
      </trkpt>
      <trkpt lat="49.2555" lon="-0.15985">
        <ele>-1.8</ele>
        <time>2024-07-03T12:16:17Z</time>
      </trkpt>
      <trkpt lat="49.25543" lon="-0.15987">
        <ele>-1.6</ele>
        <time>2024-07-03T12:16:18Z</time>
      </trkpt>
      <trkpt lat="49.25536" lon="-0.15989">
        <ele>-1.4</ele>
        <time>2024-07-03T12:16:19Z</time>
      </trkpt>
      <trkpt lat="49.25529" lon="-0.15992">
        <ele>-1.4</ele>
        <time>2024-07-03T12:16:20Z</time>
      </trkpt>
      <trkpt lat="49.25522" lon="-0.15994">
        <ele>-1.4</ele>
        <time>2024-07-03T12:16:21Z</time>
      </trkpt>
      <trkpt lat="49.25515" lon="-0.15997">
        <ele>-1.4</ele>
        <time>2024-07-03T12:16:22Z</time>
      </trkpt>
      <trkpt lat="49.25508" lon="-0.16">
        <ele>-1.4</ele>
        <time>2024-07-03T12:16:23Z</time>
      </trkpt>
      <trkpt lat="49.25501" lon="-0.16003">
        <ele>-1.4</ele>
        <time>2024-07-03T12:16:24Z</time>
      </trkpt>
      <trkpt lat="49.25495" lon="-0.16006">
        <ele>-1.4</ele>
        <time>2024-07-03T12:16:25Z</time>
      </trkpt>
      <trkpt lat="49.25488" lon="-0.1601">
        <ele>-1.4</ele>
        <time>2024-07-03T12:16:26Z</time>
      </trkpt>
      <trkpt lat="49.25481" lon="-0.16013">
        <ele>-1.4</ele>
        <time>2024-07-03T12:16:27Z</time>
      </trkpt>
      <trkpt lat="49.25474" lon="-0.16017">
        <ele>-1.4</ele>
        <time>2024-07-03T12:16:28Z</time>
      </trkpt>
      <trkpt lat="49.25468" lon="-0.16021">
        <ele>-1.4</ele>
        <time>2024-07-03T12:16:29Z</time>
      </trkpt>
      <trkpt lat="49.25462" lon="-0.16025">
        <ele>-1.4</ele>
        <time>2024-07-03T12:16:30Z</time>
      </trkpt>
      <trkpt lat="49.25455" lon="-0.1603">
        <ele>-1.6</ele>
        <time>2024-07-03T12:16:31Z</time>
      </trkpt>
      <trkpt lat="49.25449" lon="-0.16034">
        <ele>-1.6</ele>
        <time>2024-07-03T12:16:32Z</time>
      </trkpt>
      <trkpt lat="49.25443" lon="-0.16039">
        <ele>-1.6</ele>
        <time>2024-07-03T12:16:33Z</time>
      </trkpt>
      <trkpt lat="49.25436" lon="-0.16043">
        <ele>-1.4</ele>
        <time>2024-07-03T12:16:34Z</time>
      </trkpt>
      <trkpt lat="49.2543" lon="-0.16047">
        <ele>-1.2</ele>
        <time>2024-07-03T12:16:35Z</time>
      </trkpt>
      <trkpt lat="49.25424" lon="-0.16052">
        <ele>-0.8</ele>
        <time>2024-07-03T12:16:36Z</time>
      </trkpt>
      <trkpt lat="49.25418" lon="-0.16057">
        <ele>-0.8</ele>
        <time>2024-07-03T12:16:37Z</time>
      </trkpt>
      <trkpt lat="49.25412" lon="-0.16061">
        <ele>-0.6</ele>
        <time>2024-07-03T12:16:38Z</time>
      </trkpt>
      <trkpt lat="49.25406" lon="-0.16065">
        <ele>-0.6</ele>
        <time>2024-07-03T12:16:39Z</time>
      </trkpt>
      <trkpt lat="49.254" lon="-0.16069">
        <ele>-0.4</ele>
        <time>2024-07-03T12:16:40Z</time>
      </trkpt>
      <trkpt lat="49.25394" lon="-0.16074">
        <ele>-0.4</ele>
        <time>2024-07-03T12:16:41Z</time>
      </trkpt>
      <trkpt lat="49.25388" lon="-0.16079">
        <ele>-0.2</ele>
        <time>2024-07-03T12:16:42Z</time>
      </trkpt>
      <trkpt lat="49.25381" lon="-0.16083">
        <ele>6.3</ele>
        <time>2024-07-03T12:16:43Z</time>
      </trkpt>
      <trkpt lat="49.25375" lon="-0.16088">
        <ele>0.2</ele>
        <time>2024-07-03T12:16:44Z</time>
      </trkpt>
      <trkpt lat="49.25369" lon="-0.16092">
        <ele>0.4</ele>
        <time>2024-07-03T12:16:45Z</time>
      </trkpt>
      <trkpt lat="49.25362" lon="-0.16097">
        <ele>0.4</ele>
        <time>2024-07-03T12:16:46Z</time>
      </trkpt>
      <trkpt lat="49.25356" lon="-0.16101">
        <ele>0.6</ele>
        <time>2024-07-03T12:16:47Z</time>
      </trkpt>
      <trkpt lat="49.2535" lon="-0.16105">
        <ele>0.6</ele>
        <time>2024-07-03T12:16:48Z</time>
      </trkpt>
      <trkpt lat="49.25344" lon="-0.1611">
        <ele>0.8</ele>
        <time>2024-07-03T12:16:49Z</time>
      </trkpt>
      <trkpt lat="49.25338" lon="-0.16115">
        <ele>1</ele>
        <time>2024-07-03T12:16:50Z</time>
      </trkpt>
      <trkpt lat="49.25332" lon="-0.16119">
        <ele>1.2</ele>
        <time>2024-07-03T12:16:51Z</time>
      </trkpt>
      <trkpt lat="49.25326" lon="-0.16123">
        <ele>1.6</ele>
        <time>2024-07-03T12:16:52Z</time>
      </trkpt>
      <trkpt lat="49.2532" lon="-0.16127">
        <ele>2</ele>
        <time>2024-07-03T12:16:53Z</time>
      </trkpt>
      <trkpt lat="49.25314" lon="-0.16131">
        <ele>2.2</ele>
        <time>2024-07-03T12:16:54Z</time>
      </trkpt>
      <trkpt lat="49.25309" lon="-0.16136">
        <ele>2.6</ele>
        <time>2024-07-03T12:16:55Z</time>
      </trkpt>
      <trkpt lat="49.25302" lon="-0.1614">
        <ele>2.8</ele>
        <time>2024-07-03T12:16:56Z</time>
      </trkpt>
      <trkpt lat="49.25296" lon="-0.16144">
        <ele>3.2</ele>
        <time>2024-07-03T12:16:57Z</time>
      </trkpt>
      <trkpt lat="49.2529" lon="-0.16149">
        <ele>3.4</ele>
        <time>2024-07-03T12:16:58Z</time>
      </trkpt>
      <trkpt lat="49.25284" lon="-0.16153">
        <ele>3.4</ele>
        <time>2024-07-03T12:16:59Z</time>
      </trkpt>
      <trkpt lat="49.25278" lon="-0.16158">
        <ele>3.4</ele>
        <time>2024-07-03T12:17:00Z</time>
      </trkpt>
      <trkpt lat="49.25272" lon="-0.16163">
        <ele>3.6</ele>
        <time>2024-07-03T12:17:01Z</time>
      </trkpt>
      <trkpt lat="49.25267" lon="-0.16167">
        <ele>3.6</ele>
        <time>2024-07-03T12:17:02Z</time>
      </trkpt>
      <trkpt lat="49.2526" lon="-0.16172">
        <ele>3.6</ele>
        <time>2024-07-03T12:17:03Z</time>
      </trkpt>
      <trkpt lat="49.25254" lon="-0.16177">
        <ele>3.4</ele>
        <time>2024-07-03T12:17:04Z</time>
      </trkpt>
      <trkpt lat="49.25248" lon="-0.16181">
        <ele>3.4</ele>
        <time>2024-07-03T12:17:05Z</time>
      </trkpt>
      <trkpt lat="49.25241" lon="-0.16188">
        <ele>3.4</ele>
        <time>2024-07-03T12:17:06Z</time>
      </trkpt>
      <trkpt lat="49.25236" lon="-0.16193">
        <ele>3.4</ele>
        <time>2024-07-03T12:17:07Z</time>
      </trkpt>
      <trkpt lat="49.25229" lon="-0.16199">
        <ele>3.4</ele>
        <time>2024-07-03T12:17:08Z</time>
      </trkpt>
      <trkpt lat="49.25223" lon="-0.16204">
        <ele>3.4</ele>
        <time>2024-07-03T12:17:09Z</time>
      </trkpt>
      <trkpt lat="49.25218" lon="-0.16209">
        <ele>3.4</ele>
        <time>2024-07-03T12:17:10Z</time>
      </trkpt>
      <trkpt lat="49.25212" lon="-0.16214">
        <ele>3.6</ele>
        <time>2024-07-03T12:17:11Z</time>
      </trkpt>
      <trkpt lat="49.25207" lon="-0.1622">
        <ele>3.6</ele>
        <time>2024-07-03T12:17:12Z</time>
      </trkpt>
      <trkpt lat="49.25202" lon="-0.16225">
        <ele>3.6</ele>
        <time>2024-07-03T12:17:13Z</time>
      </trkpt>
      <trkpt lat="49.25197" lon="-0.16231">
        <ele>3.4</ele>
        <time>2024-07-03T12:17:14Z</time>
      </trkpt>
      <trkpt lat="49.25192" lon="-0.16236">
        <ele>3.2</ele>
        <time>2024-07-03T12:17:15Z</time>
      </trkpt>
      <trkpt lat="49.25187" lon="-0.16241">
        <ele>3.2</ele>
        <time>2024-07-03T12:17:16Z</time>
      </trkpt>
      <trkpt lat="49.25182" lon="-0.16247">
        <ele>3.2</ele>
        <time>2024-07-03T12:17:17Z</time>
      </trkpt>
      <trkpt lat="49.25177" lon="-0.16252">
        <ele>3.2</ele>
        <time>2024-07-03T12:17:18Z</time>
      </trkpt>
      <trkpt lat="49.25173" lon="-0.16257">
        <ele>3.2</ele>
        <time>2024-07-03T12:17:19Z</time>
      </trkpt>
      <trkpt lat="49.25167" lon="-0.1626">
        <ele>3.4</ele>
        <time>2024-07-03T12:17:20Z</time>
      </trkpt>
      <trkpt lat="49.25162" lon="-0.16259">
        <ele>3.6</ele>
        <time>2024-07-03T12:17:21Z</time>
      </trkpt>
      <trkpt lat="49.25157" lon="-0.16254">
        <ele>4</ele>
        <time>2024-07-03T12:17:22Z</time>
      </trkpt>
      <trkpt lat="49.25152" lon="-0.16247">
        <ele>4.2</ele>
        <time>2024-07-03T12:17:23Z</time>
      </trkpt>
      <trkpt lat="49.25148" lon="-0.16239">
        <ele>4.4</ele>
        <time>2024-07-03T12:17:24Z</time>
      </trkpt>
      <trkpt lat="49.25142" lon="-0.16233">
        <ele>4.6</ele>
        <time>2024-07-03T12:17:25Z</time>
      </trkpt>
      <trkpt lat="49.25136" lon="-0.16227">
        <ele>4.8</ele>
        <time>2024-07-03T12:17:26Z</time>
      </trkpt>
      <trkpt lat="49.2513" lon="-0.16223">
        <ele>4.8</ele>
        <time>2024-07-03T12:17:27Z</time>
      </trkpt>
      <trkpt lat="49.25123" lon="-0.16219">
        <ele>4.8</ele>
        <time>2024-07-03T12:17:28Z</time>
      </trkpt>
      <trkpt lat="49.25116" lon="-0.16216">
        <ele>4.6</ele>
        <time>2024-07-03T12:17:29Z</time>
      </trkpt>
      <trkpt lat="49.25109" lon="-0.16212">
        <ele>4.6</ele>
        <time>2024-07-03T12:17:30Z</time>
      </trkpt>
      <trkpt lat="49.25102" lon="-0.16208">
        <ele>4.4</ele>
        <time>2024-07-03T12:17:31Z</time>
      </trkpt>
      <trkpt lat="49.25096" lon="-0.16204">
        <ele>4.4</ele>
        <time>2024-07-03T12:17:32Z</time>
      </trkpt>
      <trkpt lat="49.25089" lon="-0.16201">
        <ele>4.4</ele>
        <time>2024-07-03T12:17:33Z</time>
      </trkpt>
      <trkpt lat="49.25082" lon="-0.16197">
        <ele>4.2</ele>
        <time>2024-07-03T12:17:34Z</time>
      </trkpt>
      <trkpt lat="49.25075" lon="-0.16194">
        <ele>4.4</ele>
        <time>2024-07-03T12:17:35Z</time>
      </trkpt>
      <trkpt lat="49.25068" lon="-0.16191">
        <ele>4.4</ele>
        <time>2024-07-03T12:17:36Z</time>
      </trkpt>
      <trkpt lat="49.25062" lon="-0.16189">
        <ele>4.6</ele>
        <time>2024-07-03T12:17:37Z</time>
      </trkpt>
      <trkpt lat="49.25055" lon="-0.16186">
        <ele>4.6</ele>
        <time>2024-07-03T12:17:38Z</time>
      </trkpt>
      <trkpt lat="49.25049" lon="-0.16183">
        <ele>4.6</ele>
        <time>2024-07-03T12:17:39Z</time>
      </trkpt>
      <trkpt lat="49.25042" lon="-0.16181">
        <ele>4.8</ele>
        <time>2024-07-03T12:17:40Z</time>
      </trkpt>
      <trkpt lat="49.25035" lon="-0.16179">
        <ele>4.8</ele>
        <time>2024-07-03T12:17:41Z</time>
      </trkpt>
      <trkpt lat="49.25028" lon="-0.16178">
        <ele>5</ele>
        <time>2024-07-03T12:17:42Z</time>
      </trkpt>
      <trkpt lat="49.25021" lon="-0.16177">
        <ele>5</ele>
        <time>2024-07-03T12:17:43Z</time>
      </trkpt>
      <trkpt lat="49.25014" lon="-0.16175">
        <ele>5</ele>
        <time>2024-07-03T12:17:44Z</time>
      </trkpt>
      <trkpt lat="49.25008" lon="-0.16174">
        <ele>5.2</ele>
        <time>2024-07-03T12:17:45Z</time>
      </trkpt>
      <trkpt lat="49.25002" lon="-0.16173">
        <ele>5.2</ele>
        <time>2024-07-03T12:17:46Z</time>
      </trkpt>
      <trkpt lat="49.24995" lon="-0.16173">
        <ele>5.2</ele>
        <time>2024-07-03T12:17:47Z</time>
      </trkpt>
      <trkpt lat="49.24989" lon="-0.16173">
        <ele>5.2</ele>
        <time>2024-07-03T12:17:48Z</time>
      </trkpt>
      <trkpt lat="49.24982" lon="-0.16173">
        <ele>5.2</ele>
        <time>2024-07-03T12:17:49Z</time>
      </trkpt>
      <trkpt lat="49.24974" lon="-0.16172">
        <ele>5.2</ele>
        <time>2024-07-03T12:17:50Z</time>
      </trkpt>
      <trkpt lat="49.24967" lon="-0.16173">
        <ele>5.2</ele>
        <time>2024-07-03T12:17:51Z</time>
      </trkpt>
      <trkpt lat="49.2496" lon="-0.16173">
        <ele>5.2</ele>
        <time>2024-07-03T12:17:52Z</time>
      </trkpt>
      <trkpt lat="49.24953" lon="-0.16173">
        <ele>5</ele>
        <time>2024-07-03T12:17:53Z</time>
      </trkpt>
      <trkpt lat="49.24947" lon="-0.16173">
        <ele>5</ele>
        <time>2024-07-03T12:17:54Z</time>
      </trkpt>
      <trkpt lat="49.2494" lon="-0.16174">
        <ele>5</ele>
        <time>2024-07-03T12:17:55Z</time>
      </trkpt>
      <trkpt lat="49.24933" lon="-0.16175">
        <ele>5</ele>
        <time>2024-07-03T12:17:56Z</time>
      </trkpt>
      <trkpt lat="49.24926" lon="-0.16176">
        <ele>5.2</ele>
        <time>2024-07-03T12:17:57Z</time>
      </trkpt>
      <trkpt lat="49.24919" lon="-0.16177">
        <ele>5.4</ele>
        <time>2024-07-03T12:17:58Z</time>
      </trkpt>
      <trkpt lat="49.24913" lon="-0.16179">
        <ele>5.6</ele>
        <time>2024-07-03T12:17:59Z</time>
      </trkpt>
      <trkpt lat="49.24906" lon="-0.1618">
        <ele>5.6</ele>
        <time>2024-07-03T12:18:00Z</time>
      </trkpt>
      <trkpt lat="49.24899" lon="-0.16182">
        <ele>5.8</ele>
        <time>2024-07-03T12:18:01Z</time>
      </trkpt>
      <trkpt lat="49.24892" lon="-0.16183">
        <ele>5.8</ele>
        <time>2024-07-03T12:18:02Z</time>
      </trkpt>
      <trkpt lat="49.24885" lon="-0.16185">
        <ele>5.8</ele>
        <time>2024-07-03T12:18:03Z</time>
      </trkpt>
      <trkpt lat="49.24878" lon="-0.16186">
        <ele>5.8</ele>
        <time>2024-07-03T12:18:04Z</time>
      </trkpt>
      <trkpt lat="49.24871" lon="-0.16187">
        <ele>5.8</ele>
        <time>2024-07-03T12:18:05Z</time>
      </trkpt>
      <trkpt lat="49.24864" lon="-0.16189">
        <ele>5.8</ele>
        <time>2024-07-03T12:18:06Z</time>
      </trkpt>
      <trkpt lat="49.24857" lon="-0.1619">
        <ele>6</ele>
        <time>2024-07-03T12:18:07Z</time>
      </trkpt>
      <trkpt lat="49.2485" lon="-0.16192">
        <ele>6.2</ele>
        <time>2024-07-03T12:18:08Z</time>
      </trkpt>
      <trkpt lat="49.24843" lon="-0.16194">
        <ele>6.4</ele>
        <time>2024-07-03T12:18:09Z</time>
      </trkpt>
      <trkpt lat="49.24836" lon="-0.16195">
        <ele>6.6</ele>
        <time>2024-07-03T12:18:10Z</time>
      </trkpt>
      <trkpt lat="49.24829" lon="-0.16196">
        <ele>6.8</ele>
        <time>2024-07-03T12:18:11Z</time>
      </trkpt>
      <trkpt lat="49.24822" lon="-0.16198">
        <ele>6.8</ele>
        <time>2024-07-03T12:18:12Z</time>
      </trkpt>
      <trkpt lat="49.24816" lon="-0.16199">
        <ele>6.8</ele>
        <time>2024-07-03T12:18:13Z</time>
      </trkpt>
      <trkpt lat="49.24809" lon="-0.16201">
        <ele>6.8</ele>
        <time>2024-07-03T12:18:14Z</time>
      </trkpt>
      <trkpt lat="49.24803" lon="-0.16203">
        <ele>6.8</ele>
        <time>2024-07-03T12:18:15Z</time>
      </trkpt>
      <trkpt lat="49.24797" lon="-0.16204">
        <ele>6.8</ele>
        <time>2024-07-03T12:18:16Z</time>
      </trkpt>
      <trkpt lat="49.24791" lon="-0.16206">
        <ele>7</ele>
        <time>2024-07-03T12:18:17Z</time>
      </trkpt>
      <trkpt lat="49.24785" lon="-0.16208">
        <ele>7</ele>
        <time>2024-07-03T12:18:18Z</time>
      </trkpt>
      <trkpt lat="49.24779" lon="-0.16209">
        <ele>7</ele>
        <time>2024-07-03T12:18:19Z</time>
      </trkpt>
      <trkpt lat="49.24773" lon="-0.16211">
        <ele>7.2</ele>
        <time>2024-07-03T12:18:20Z</time>
      </trkpt>
      <trkpt lat="49.24767" lon="-0.16212">
        <ele>7.2</ele>
        <time>2024-07-03T12:18:21Z</time>
      </trkpt>
      <trkpt lat="49.24761" lon="-0.16214">
        <ele>7</ele>
        <time>2024-07-03T12:18:22Z</time>
      </trkpt>
      <trkpt lat="49.24755" lon="-0.16216">
        <ele>6.8</ele>
        <time>2024-07-03T12:18:23Z</time>
      </trkpt>
      <trkpt lat="49.24749" lon="-0.16217">
        <ele>6.8</ele>
        <time>2024-07-03T12:18:24Z</time>
      </trkpt>
      <trkpt lat="49.24743" lon="-0.16219">
        <ele>6.6</ele>
        <time>2024-07-03T12:18:25Z</time>
      </trkpt>
      <trkpt lat="49.24737" lon="-0.1622">
        <ele>6.6</ele>
        <time>2024-07-03T12:18:26Z</time>
      </trkpt>
      <trkpt lat="49.24731" lon="-0.16222">
        <ele>6.4</ele>
        <time>2024-07-03T12:18:27Z</time>
      </trkpt>
      <trkpt lat="49.24726" lon="-0.16224">
        <ele>6.4</ele>
        <time>2024-07-03T12:18:28Z</time>
      </trkpt>
      <trkpt lat="49.2472" lon="-0.16226">
        <ele>6.4</ele>
        <time>2024-07-03T12:18:29Z</time>
      </trkpt>
      <trkpt lat="49.24714" lon="-0.16228">
        <ele>6.4</ele>
        <time>2024-07-03T12:18:30Z</time>
      </trkpt>
      <trkpt lat="49.24708" lon="-0.1623">
        <ele>6.4</ele>
        <time>2024-07-03T12:18:31Z</time>
      </trkpt>
      <trkpt lat="49.24702" lon="-0.16233">
        <ele>6.4</ele>
        <time>2024-07-03T12:18:32Z</time>
      </trkpt>
      <trkpt lat="49.24696" lon="-0.16236">
        <ele>6.6</ele>
        <time>2024-07-03T12:18:33Z</time>
      </trkpt>
      <trkpt lat="49.24691" lon="-0.1624">
        <ele>6.4</ele>
        <time>2024-07-03T12:18:34Z</time>
      </trkpt>
      <trkpt lat="49.24685" lon="-0.16244">
        <ele>6.4</ele>
        <time>2024-07-03T12:18:35Z</time>
      </trkpt>
      <trkpt lat="49.2468" lon="-0.16249">
        <ele>6.4</ele>
        <time>2024-07-03T12:18:36Z</time>
      </trkpt>
      <trkpt lat="49.24674" lon="-0.16253">
        <ele>6.2</ele>
        <time>2024-07-03T12:18:37Z</time>
      </trkpt>
      <trkpt lat="49.24669" lon="-0.16258">
        <ele>6.2</ele>
        <time>2024-07-03T12:18:38Z</time>
      </trkpt>
      <trkpt lat="49.24664" lon="-0.16264">
        <ele>6.2</ele>
        <time>2024-07-03T12:18:39Z</time>
      </trkpt>
      <trkpt lat="49.24658" lon="-0.16269">
        <ele>6</ele>
        <time>2024-07-03T12:18:40Z</time>
      </trkpt>
      <trkpt lat="49.24653" lon="-0.16275">
        <ele>6</ele>
        <time>2024-07-03T12:18:41Z</time>
      </trkpt>
      <trkpt lat="49.24648" lon="-0.1628">
        <ele>6</ele>
        <time>2024-07-03T12:18:42Z</time>
      </trkpt>
      <trkpt lat="49.24643" lon="-0.16285">
        <ele>6.2</ele>
        <time>2024-07-03T12:18:43Z</time>
      </trkpt>
      <trkpt lat="49.24638" lon="-0.16291">
        <ele>6.2</ele>
        <time>2024-07-03T12:18:44Z</time>
      </trkpt>
      <trkpt lat="49.24633" lon="-0.16297">
        <ele>6.4</ele>
        <time>2024-07-03T12:18:45Z</time>
      </trkpt>
      <trkpt lat="49.24628" lon="-0.16304">
        <ele>6.4</ele>
        <time>2024-07-03T12:18:46Z</time>
      </trkpt>
      <trkpt lat="49.24623" lon="-0.1631">
        <ele>6.6</ele>
        <time>2024-07-03T12:18:47Z</time>
      </trkpt>
      <trkpt lat="49.24619" lon="-0.16317">
        <ele>6.6</ele>
        <time>2024-07-03T12:18:48Z</time>
      </trkpt>
      <trkpt lat="49.24614" lon="-0.16324">
        <ele>6.6</ele>
        <time>2024-07-03T12:18:49Z</time>
      </trkpt>
      <trkpt lat="49.2461" lon="-0.16331">
        <ele>6.6</ele>
        <time>2024-07-03T12:18:50Z</time>
      </trkpt>
      <trkpt lat="49.24605" lon="-0.16338">
        <ele>6.4</ele>
        <time>2024-07-03T12:18:51Z</time>
      </trkpt>
      <trkpt lat="49.24601" lon="-0.16345">
        <ele>6.2</ele>
        <time>2024-07-03T12:18:52Z</time>
      </trkpt>
      <trkpt lat="49.24596" lon="-0.16353">
        <ele>6.2</ele>
        <time>2024-07-03T12:18:53Z</time>
      </trkpt>
      <trkpt lat="49.24592" lon="-0.1636">
        <ele>6.2</ele>
        <time>2024-07-03T12:18:54Z</time>
      </trkpt>
      <trkpt lat="49.24587" lon="-0.16367">
        <ele>6</ele>
        <time>2024-07-03T12:18:55Z</time>
      </trkpt>
      <trkpt lat="49.24583" lon="-0.16374">
        <ele>6.2</ele>
        <time>2024-07-03T12:18:56Z</time>
      </trkpt>
      <trkpt lat="49.24578" lon="-0.16382">
        <ele>6.2</ele>
        <time>2024-07-03T12:18:57Z</time>
      </trkpt>
      <trkpt lat="49.24574" lon="-0.1639">
        <ele>6.4</ele>
        <time>2024-07-03T12:18:58Z</time>
      </trkpt>
      <trkpt lat="49.24569" lon="-0.16397">
        <ele>6.4</ele>
        <time>2024-07-03T12:18:59Z</time>
      </trkpt>
      <trkpt lat="49.24564" lon="-0.16405">
        <ele>6.4</ele>
        <time>2024-07-03T12:19:00Z</time>
      </trkpt>
      <trkpt lat="49.2456" lon="-0.16412">
        <ele>6.2</ele>
        <time>2024-07-03T12:19:01Z</time>
      </trkpt>
      <trkpt lat="49.24555" lon="-0.1642">
        <ele>6</ele>
        <time>2024-07-03T12:19:02Z</time>
      </trkpt>
      <trkpt lat="49.2455" lon="-0.16427">
        <ele>6</ele>
        <time>2024-07-03T12:19:03Z</time>
      </trkpt>
      <trkpt lat="49.24546" lon="-0.16435">
        <ele>5.8</ele>
        <time>2024-07-03T12:19:04Z</time>
      </trkpt>
      <trkpt lat="49.2454" lon="-0.16442">
        <ele>5.8</ele>
        <time>2024-07-03T12:19:05Z</time>
      </trkpt>
      <trkpt lat="49.24535" lon="-0.1645">
        <ele>5.8</ele>
        <time>2024-07-03T12:19:06Z</time>
      </trkpt>
      <trkpt lat="49.2453" lon="-0.16457">
        <ele>5.8</ele>
        <time>2024-07-03T12:19:07Z</time>
      </trkpt>
      <trkpt lat="49.24526" lon="-0.16464">
        <ele>5.8</ele>
        <time>2024-07-03T12:19:08Z</time>
      </trkpt>
      <trkpt lat="49.24521" lon="-0.16472">
        <ele>5.6</ele>
        <time>2024-07-03T12:19:09Z</time>
      </trkpt>
      <trkpt lat="49.24516" lon="-0.16479">
        <ele>5.2</ele>
        <time>2024-07-03T12:19:10Z</time>
      </trkpt>
      <trkpt lat="49.24512" lon="-0.16486">
        <ele>4.6</ele>
        <time>2024-07-03T12:19:11Z</time>
      </trkpt>
      <trkpt lat="49.24507" lon="-0.16493">
        <ele>4.4</ele>
        <time>2024-07-03T12:19:12Z</time>
      </trkpt>
      <trkpt lat="49.24503" lon="-0.165">
        <ele>4.2</ele>
        <time>2024-07-03T12:19:13Z</time>
      </trkpt>
      <trkpt lat="49.24499" lon="-0.16508">
        <ele>4.2</ele>
        <time>2024-07-03T12:19:14Z</time>
      </trkpt>
      <trkpt lat="49.24495" lon="-0.16516">
        <ele>4.2</ele>
        <time>2024-07-03T12:19:15Z</time>
      </trkpt>
      <trkpt lat="49.24491" lon="-0.16524">
        <ele>4.4</ele>
        <time>2024-07-03T12:19:16Z</time>
      </trkpt>
      <trkpt lat="49.24487" lon="-0.16533">
        <ele>4.8</ele>
        <time>2024-07-03T12:19:17Z</time>
      </trkpt>
      <trkpt lat="49.24484" lon="-0.16541">
        <ele>5.4</ele>
        <time>2024-07-03T12:19:18Z</time>
      </trkpt>
      <trkpt lat="49.24482" lon="-0.1655">
        <ele>5.8</ele>
        <time>2024-07-03T12:19:19Z</time>
      </trkpt>
      <trkpt lat="49.24479" lon="-0.16559">
        <ele>6.2</ele>
        <time>2024-07-03T12:19:20Z</time>
      </trkpt>
      <trkpt lat="49.24476" lon="-0.16568">
        <ele>6.4</ele>
        <time>2024-07-03T12:19:21Z</time>
      </trkpt>
      <trkpt lat="49.24473" lon="-0.16577">
        <ele>6.6</ele>
        <time>2024-07-03T12:19:22Z</time>
      </trkpt>
      <trkpt lat="49.2447" lon="-0.16586">
        <ele>6.8</ele>
        <time>2024-07-03T12:19:23Z</time>
      </trkpt>
      <trkpt lat="49.24467" lon="-0.16594">
        <ele>6.8</ele>
        <time>2024-07-03T12:19:24Z</time>
      </trkpt>
      <trkpt lat="49.24463" lon="-0.16603">
        <ele>6.8</ele>
        <time>2024-07-03T12:19:25Z</time>
      </trkpt>
      <trkpt lat="49.24459" lon="-0.16611">
        <ele>6.8</ele>
        <time>2024-07-03T12:19:26Z</time>
      </trkpt>
      <trkpt lat="49.24456" lon="-0.16619">
        <ele>6.6</ele>
        <time>2024-07-03T12:19:27Z</time>
      </trkpt>
      <trkpt lat="49.24451" lon="-0.16627">
        <ele>6.6</ele>
        <time>2024-07-03T12:19:28Z</time>
      </trkpt>
      <trkpt lat="49.24447" lon="-0.16635">
        <ele>6.6</ele>
        <time>2024-07-03T12:19:29Z</time>
      </trkpt>
      <trkpt lat="49.24443" lon="-0.16642">
        <ele>6.8</ele>
        <time>2024-07-03T12:19:30Z</time>
      </trkpt>
      <trkpt lat="49.24438" lon="-0.1665">
        <ele>6.6</ele>
        <time>2024-07-03T12:19:31Z</time>
      </trkpt>
      <trkpt lat="49.24433" lon="-0.16658">
        <ele>6.6</ele>
        <time>2024-07-03T12:19:32Z</time>
      </trkpt>
      <trkpt lat="49.24428" lon="-0.16666">
        <ele>6.8</ele>
        <time>2024-07-03T12:19:33Z</time>
      </trkpt>
      <trkpt lat="49.24424" lon="-0.16674">
        <ele>6.8</ele>
        <time>2024-07-03T12:19:34Z</time>
      </trkpt>
      <trkpt lat="49.24419" lon="-0.16682">
        <ele>6.8</ele>
        <time>2024-07-03T12:19:35Z</time>
      </trkpt>
      <trkpt lat="49.24414" lon="-0.1669">
        <ele>6.6</ele>
        <time>2024-07-03T12:19:36Z</time>
      </trkpt>
      <trkpt lat="49.24409" lon="-0.16698">
        <ele>6.6</ele>
        <time>2024-07-03T12:19:37Z</time>
      </trkpt>
      <trkpt lat="49.24404" lon="-0.16707">
        <ele>6.6</ele>
        <time>2024-07-03T12:19:38Z</time>
      </trkpt>
      <trkpt lat="49.24399" lon="-0.16715">
        <ele>6.4</ele>
        <time>2024-07-03T12:19:39Z</time>
      </trkpt>
      <trkpt lat="49.24395" lon="-0.16723">
        <ele>6.4</ele>
        <time>2024-07-03T12:19:40Z</time>
      </trkpt>
      <trkpt lat="49.2439" lon="-0.16732">
        <ele>6.2</ele>
        <time>2024-07-03T12:19:41Z</time>
      </trkpt>
      <trkpt lat="49.24385" lon="-0.1674">
        <ele>6.2</ele>
        <time>2024-07-03T12:19:42Z</time>
      </trkpt>
      <trkpt lat="49.2438" lon="-0.16748">
        <ele>6.2</ele>
        <time>2024-07-03T12:19:43Z</time>
      </trkpt>
      <trkpt lat="49.24375" lon="-0.16755">
        <ele>6</ele>
        <time>2024-07-03T12:19:44Z</time>
      </trkpt>
      <trkpt lat="49.2437" lon="-0.16763">
        <ele>5.8</ele>
        <time>2024-07-03T12:19:45Z</time>
      </trkpt>
      <trkpt lat="49.24366" lon="-0.16772">
        <ele>5.6</ele>
        <time>2024-07-03T12:19:46Z</time>
      </trkpt>
      <trkpt lat="49.24361" lon="-0.16781">
        <ele>5.2</ele>
        <time>2024-07-03T12:19:47Z</time>
      </trkpt>
      <trkpt lat="49.24357" lon="-0.16791">
        <ele>5</ele>
        <time>2024-07-03T12:19:48Z</time>
      </trkpt>
      <trkpt lat="49.24355" lon="-0.16801">
        <ele>5</ele>
        <time>2024-07-03T12:19:49Z</time>
      </trkpt>
      <trkpt lat="49.24354" lon="-0.16812">
        <ele>5</ele>
        <time>2024-07-03T12:19:50Z</time>
      </trkpt>
      <trkpt lat="49.24354" lon="-0.16823">
        <ele>5</ele>
        <time>2024-07-03T12:19:51Z</time>
      </trkpt>
      <trkpt lat="49.24355" lon="-0.16834">
        <ele>5.2</ele>
        <time>2024-07-03T12:19:52Z</time>
      </trkpt>
      <trkpt lat="49.24356" lon="-0.16845">
        <ele>5.6</ele>
        <time>2024-07-03T12:19:53Z</time>
      </trkpt>
      <trkpt lat="49.24358" lon="-0.16855">
        <ele>6.2</ele>
        <time>2024-07-03T12:19:54Z</time>
      </trkpt>
      <trkpt lat="49.24359" lon="-0.16865">
        <ele>6.4</ele>
        <time>2024-07-03T12:19:55Z</time>
      </trkpt>
      <trkpt lat="49.24361" lon="-0.16876">
        <ele>6.8</ele>
        <time>2024-07-03T12:19:56Z</time>
      </trkpt>
      <trkpt lat="49.24362" lon="-0.16886">
        <ele>6.8</ele>
        <time>2024-07-03T12:19:57Z</time>
      </trkpt>
      <trkpt lat="49.24364" lon="-0.16896">
        <ele>6.8</ele>
        <time>2024-07-03T12:19:58Z</time>
      </trkpt>
      <trkpt lat="49.24366" lon="-0.16905">
        <ele>6.6</ele>
        <time>2024-07-03T12:19:59Z</time>
      </trkpt>
      <trkpt lat="49.24367" lon="-0.16914">
        <ele>6.4</ele>
        <time>2024-07-03T12:20:00Z</time>
      </trkpt>
      <trkpt lat="49.24369" lon="-0.16923">
        <ele>6.4</ele>
        <time>2024-07-03T12:20:01Z</time>
      </trkpt>
      <trkpt lat="49.2437" lon="-0.16931">
        <ele>6.4</ele>
        <time>2024-07-03T12:20:02Z</time>
      </trkpt>
      <trkpt lat="49.24372" lon="-0.16939">
        <ele>6.4</ele>
        <time>2024-07-03T12:20:03Z</time>
      </trkpt>
      <trkpt lat="49.24373" lon="-0.16947">
        <ele>6.6</ele>
        <time>2024-07-03T12:20:04Z</time>
      </trkpt>
      <trkpt lat="49.24374" lon="-0.16954">
        <ele>6.8</ele>
        <time>2024-07-03T12:20:05Z</time>
      </trkpt>
      <trkpt lat="49.24375" lon="-0.16963">
        <ele>7</ele>
        <time>2024-07-03T12:20:06Z</time>
      </trkpt>
      <trkpt lat="49.24376" lon="-0.16971">
        <ele>7.2</ele>
        <time>2024-07-03T12:20:07Z</time>
      </trkpt>
      <trkpt lat="49.24377" lon="-0.1698">
        <ele>7.4</ele>
        <time>2024-07-03T12:20:08Z</time>
      </trkpt>
      <trkpt lat="49.24378" lon="-0.16989">
        <ele>7.6</ele>
        <time>2024-07-03T12:20:09Z</time>
      </trkpt>
      <trkpt lat="49.24381" lon="-0.16999">
        <ele>7.8</ele>
        <time>2024-07-03T12:20:10Z</time>
      </trkpt>
      <trkpt lat="49.24383" lon="-0.17008">
        <ele>8</ele>
        <time>2024-07-03T12:20:11Z</time>
      </trkpt>
      <trkpt lat="49.24384" lon="-0.17016">
        <ele>8.2</ele>
        <time>2024-07-03T12:20:12Z</time>
      </trkpt>
      <trkpt lat="49.24384" lon="-0.17026">
        <ele>8.4</ele>
        <time>2024-07-03T12:20:13Z</time>
      </trkpt>
      <trkpt lat="49.24385" lon="-0.17036">
        <ele>8.6</ele>
        <time>2024-07-03T12:20:14Z</time>
      </trkpt>
      <trkpt lat="49.24386" lon="-0.17046">
        <ele>8.6</ele>
        <time>2024-07-03T12:20:15Z</time>
      </trkpt>
      <trkpt lat="49.24387" lon="-0.17055">
        <ele>8.8</ele>
        <time>2024-07-03T12:20:16Z</time>
      </trkpt>
      <trkpt lat="49.24388" lon="-0.17064">
        <ele>8.8</ele>
        <time>2024-07-03T12:20:17Z</time>
      </trkpt>
      <trkpt lat="49.24389" lon="-0.17074">
        <ele>9</ele>
        <time>2024-07-03T12:20:18Z</time>
      </trkpt>
      <trkpt lat="49.2439" lon="-0.17083">
        <ele>9.4</ele>
        <time>2024-07-03T12:20:19Z</time>
      </trkpt>
      <trkpt lat="49.2439" lon="-0.17093">
        <ele>9.4</ele>
        <time>2024-07-03T12:20:20Z</time>
      </trkpt>
      <trkpt lat="49.2439" lon="-0.17103">
        <ele>9.6</ele>
        <time>2024-07-03T12:20:21Z</time>
      </trkpt>
      <trkpt lat="49.2439" lon="-0.17113">
        <ele>9.6</ele>
        <time>2024-07-03T12:20:22Z</time>
      </trkpt>
      <trkpt lat="49.2439" lon="-0.17124">
        <ele>9.6</ele>
        <time>2024-07-03T12:20:23Z</time>
      </trkpt>
      <trkpt lat="49.24391" lon="-0.17134">
        <ele>9.6</ele>
        <time>2024-07-03T12:20:24Z</time>
      </trkpt>
      <trkpt lat="49.2439" lon="-0.17146">
        <ele>9.6</ele>
        <time>2024-07-03T12:20:25Z</time>
      </trkpt>
      <trkpt lat="49.2439" lon="-0.17159">
        <ele>9.6</ele>
        <time>2024-07-03T12:20:26Z</time>
      </trkpt>
      <trkpt lat="49.2439" lon="-0.1717">
        <ele>9.6</ele>
        <time>2024-07-03T12:20:27Z</time>
      </trkpt>
      <trkpt lat="49.24389" lon="-0.17181">
        <ele>9.6</ele>
        <time>2024-07-03T12:20:28Z</time>
      </trkpt>
      <trkpt lat="49.24389" lon="-0.17192">
        <ele>9.6</ele>
        <time>2024-07-03T12:20:29Z</time>
      </trkpt>
      <trkpt lat="49.24388" lon="-0.17202">
        <ele>9.8</ele>
        <time>2024-07-03T12:20:30Z</time>
      </trkpt>
      <trkpt lat="49.24388" lon="-0.17213">
        <ele>9.8</ele>
        <time>2024-07-03T12:20:31Z</time>
      </trkpt>
      <trkpt lat="49.24387" lon="-0.17224">
        <ele>10</ele>
        <time>2024-07-03T12:20:32Z</time>
      </trkpt>
      <trkpt lat="49.24387" lon="-0.17234">
        <ele>10.2</ele>
        <time>2024-07-03T12:20:33Z</time>
      </trkpt>
      <trkpt lat="49.24386" lon="-0.17244">
        <ele>10.4</ele>
        <time>2024-07-03T12:20:34Z</time>
      </trkpt>
      <trkpt lat="49.24386" lon="-0.17254">
        <ele>10.4</ele>
        <time>2024-07-03T12:20:35Z</time>
      </trkpt>
      <trkpt lat="49.24386" lon="-0.17264">
        <ele>10.6</ele>
        <time>2024-07-03T12:20:36Z</time>
      </trkpt>
      <trkpt lat="49.24386" lon="-0.17275">
        <ele>10.6</ele>
        <time>2024-07-03T12:20:37Z</time>
      </trkpt>
      <trkpt lat="49.24385" lon="-0.17285">
        <ele>10.6</ele>
        <time>2024-07-03T12:20:38Z</time>
      </trkpt>
      <trkpt lat="49.24385" lon="-0.17295">
        <ele>10.6</ele>
        <time>2024-07-03T12:20:39Z</time>
      </trkpt>
      <trkpt lat="49.24384" lon="-0.17306">
        <ele>10.6</ele>
        <time>2024-07-03T12:20:40Z</time>
      </trkpt>
      <trkpt lat="49.24384" lon="-0.17316">
        <ele>10.4</ele>
        <time>2024-07-03T12:20:41Z</time>
      </trkpt>
      <trkpt lat="49.24384" lon="-0.17327">
        <ele>10.2</ele>
        <time>2024-07-03T12:20:42Z</time>
      </trkpt>
      <trkpt lat="49.24384" lon="-0.17337">
        <ele>10</ele>
        <time>2024-07-03T12:20:43Z</time>
      </trkpt>
      <trkpt lat="49.24384" lon="-0.17348">
        <ele>9.8</ele>
        <time>2024-07-03T12:20:44Z</time>
      </trkpt>
      <trkpt lat="49.24384" lon="-0.17359">
        <ele>9.6</ele>
        <time>2024-07-03T12:20:45Z</time>
      </trkpt>
      <trkpt lat="49.24384" lon="-0.17371">
        <ele>9.4</ele>
        <time>2024-07-03T12:20:46Z</time>
      </trkpt>
      <trkpt lat="49.24383" lon="-0.17382">
        <ele>9.2</ele>
        <time>2024-07-03T12:20:47Z</time>
      </trkpt>
      <trkpt lat="49.24381" lon="-0.17393">
        <ele>9</ele>
        <time>2024-07-03T12:20:48Z</time>
      </trkpt>
      <trkpt lat="49.24379" lon="-0.17403">
        <ele>8.6</ele>
        <time>2024-07-03T12:20:49Z</time>
      </trkpt>
      <trkpt lat="49.24374" lon="-0.1741">
        <ele>8.2</ele>
        <time>2024-07-03T12:20:50Z</time>
      </trkpt>
      <trkpt lat="49.24369" lon="-0.17416">
        <ele>8.2</ele>
        <time>2024-07-03T12:20:51Z</time>
      </trkpt>
      <trkpt lat="49.24361" lon="-0.17419">
        <ele>8</ele>
        <time>2024-07-03T12:20:52Z</time>
      </trkpt>
      <trkpt lat="49.24354" lon="-0.1742">
        <ele>8</ele>
        <time>2024-07-03T12:20:53Z</time>
      </trkpt>
      <trkpt lat="49.24346" lon="-0.17421">
        <ele>8.2</ele>
        <time>2024-07-03T12:20:54Z</time>
      </trkpt>
      <trkpt lat="49.24339" lon="-0.17422">
        <ele>8.4</ele>
        <time>2024-07-03T12:20:55Z</time>
      </trkpt>
      <trkpt lat="49.24332" lon="-0.17422">
        <ele>8.4</ele>
        <time>2024-07-03T12:20:56Z</time>
      </trkpt>
      <trkpt lat="49.24325" lon="-0.17423">
        <ele>8.6</ele>
        <time>2024-07-03T12:20:57Z</time>
      </trkpt>
      <trkpt lat="49.24317" lon="-0.17424">
        <ele>8.6</ele>
        <time>2024-07-03T12:20:58Z</time>
      </trkpt>
      <trkpt lat="49.2431" lon="-0.17424">
        <ele>8.6</ele>
        <time>2024-07-03T12:20:59Z</time>
      </trkpt>
      <trkpt lat="49.24303" lon="-0.17423">
        <ele>8.6</ele>
        <time>2024-07-03T12:21:00Z</time>
      </trkpt>
      <trkpt lat="49.24296" lon="-0.17422">
        <ele>8.6</ele>
        <time>2024-07-03T12:21:01Z</time>
      </trkpt>
      <trkpt lat="49.24289" lon="-0.17421">
        <ele>8.4</ele>
        <time>2024-07-03T12:21:02Z</time>
      </trkpt>
      <trkpt lat="49.24281" lon="-0.17421">
        <ele>8.4</ele>
        <time>2024-07-03T12:21:03Z</time>
      </trkpt>
      <trkpt lat="49.24274" lon="-0.17422">
        <ele>8.4</ele>
        <time>2024-07-03T12:21:04Z</time>
      </trkpt>
      <trkpt lat="49.24267" lon="-0.17423">
        <ele>8.2</ele>
        <time>2024-07-03T12:21:05Z</time>
      </trkpt>
      <trkpt lat="49.2426" lon="-0.17423">
        <ele>8.2</ele>
        <time>2024-07-03T12:21:06Z</time>
      </trkpt>
      <trkpt lat="49.24253" lon="-0.17424">
        <ele>8</ele>
        <time>2024-07-03T12:21:07Z</time>
      </trkpt>
      <trkpt lat="49.24246" lon="-0.17424">
        <ele>7.8</ele>
        <time>2024-07-03T12:21:08Z</time>
      </trkpt>
      <trkpt lat="49.24239" lon="-0.17426">
        <ele>7.8</ele>
        <time>2024-07-03T12:21:09Z</time>
      </trkpt>
      <trkpt lat="49.24232" lon="-0.17428">
        <ele>7.6</ele>
        <time>2024-07-03T12:21:10Z</time>
      </trkpt>
      <trkpt lat="49.24225" lon="-0.1743">
        <ele>7.4</ele>
        <time>2024-07-03T12:21:11Z</time>
      </trkpt>
      <trkpt lat="49.24218" lon="-0.17434">
        <ele>7.4</ele>
        <time>2024-07-03T12:21:12Z</time>
      </trkpt>
      <trkpt lat="49.24212" lon="-0.17439">
        <ele>7.2</ele>
        <time>2024-07-03T12:21:13Z</time>
      </trkpt>
      <trkpt lat="49.24207" lon="-0.17446">
        <ele>7.2</ele>
        <time>2024-07-03T12:21:14Z</time>
      </trkpt>
      <trkpt lat="49.24203" lon="-0.17455">
        <ele>7</ele>
        <time>2024-07-03T12:21:15Z</time>
      </trkpt>
      <trkpt lat="49.242" lon="-0.17463">
        <ele>6.8</ele>
        <time>2024-07-03T12:21:16Z</time>
      </trkpt>
      <trkpt lat="49.24199" lon="-0.17473">
        <ele>6.4</ele>
        <time>2024-07-03T12:21:17Z</time>
      </trkpt>
      <trkpt lat="49.24198" lon="-0.17483">
        <ele>6.2</ele>
        <time>2024-07-03T12:21:18Z</time>
      </trkpt>
      <trkpt lat="49.24198" lon="-0.17493">
        <ele>6.2</ele>
        <time>2024-07-03T12:21:19Z</time>
      </trkpt>
      <trkpt lat="49.24198" lon="-0.17502">
        <ele>6</ele>
        <time>2024-07-03T12:21:20Z</time>
      </trkpt>
      <trkpt lat="49.24199" lon="-0.17512">
        <ele>6</ele>
        <time>2024-07-03T12:21:21Z</time>
      </trkpt>
      <trkpt lat="49.24199" lon="-0.17521">
        <ele>6</ele>
        <time>2024-07-03T12:21:22Z</time>
      </trkpt>
      <trkpt lat="49.24197" lon="-0.1753">
        <ele>6</ele>
        <time>2024-07-03T12:21:23Z</time>
      </trkpt>
      <trkpt lat="49.24195" lon="-0.17539">
        <ele>6.2</ele>
        <time>2024-07-03T12:21:24Z</time>
      </trkpt>
      <trkpt lat="49.24191" lon="-0.17546">
        <ele>6.4</ele>
        <time>2024-07-03T12:21:25Z</time>
      </trkpt>
      <trkpt lat="49.24186" lon="-0.17552">
        <ele>6.4</ele>
        <time>2024-07-03T12:21:26Z</time>
      </trkpt>
      <trkpt lat="49.24179" lon="-0.17557">
        <ele>6.4</ele>
        <time>2024-07-03T12:21:27Z</time>
      </trkpt>
      <trkpt lat="49.24173" lon="-0.17562">
        <ele>6.2</ele>
        <time>2024-07-03T12:21:28Z</time>
      </trkpt>
      <trkpt lat="49.24166" lon="-0.17566">
        <ele>5.8</ele>
        <time>2024-07-03T12:21:29Z</time>
      </trkpt>
      <trkpt lat="49.24159" lon="-0.17571">
        <ele>5.2</ele>
        <time>2024-07-03T12:21:30Z</time>
      </trkpt>
      <trkpt lat="49.24152" lon="-0.17577">
        <ele>4.6</ele>
        <time>2024-07-03T12:21:31Z</time>
      </trkpt>
      <trkpt lat="49.24145" lon="-0.17582">
        <ele>4</ele>
        <time>2024-07-03T12:21:32Z</time>
      </trkpt>
      <trkpt lat="49.24138" lon="-0.17587">
        <ele>3.4</ele>
        <time>2024-07-03T12:21:33Z</time>
      </trkpt>
      <trkpt lat="49.24132" lon="-0.17594">
        <ele>2.8</ele>
        <time>2024-07-03T12:21:34Z</time>
      </trkpt>
      <trkpt lat="49.24126" lon="-0.17601">
        <ele>2.4</ele>
        <time>2024-07-03T12:21:35Z</time>
      </trkpt>
      <trkpt lat="49.2412" lon="-0.17609">
        <ele>2.2</ele>
        <time>2024-07-03T12:21:36Z</time>
      </trkpt>
      <trkpt lat="49.24115" lon="-0.17617">
        <ele>2</ele>
        <time>2024-07-03T12:21:37Z</time>
      </trkpt>
      <trkpt lat="49.24112" lon="-0.17625">
        <ele>1.6</ele>
        <time>2024-07-03T12:21:38Z</time>
      </trkpt>
      <trkpt lat="49.24109" lon="-0.17634">
        <ele>1.2</ele>
        <time>2024-07-03T12:21:39Z</time>
      </trkpt>
      <trkpt lat="49.24109" lon="-0.17644">
        <ele>0.8</ele>
        <time>2024-07-03T12:21:40Z</time>
      </trkpt>
      <trkpt lat="49.2411" lon="-0.17654">
        <ele>0.4</ele>
        <time>2024-07-03T12:21:41Z</time>
      </trkpt>
      <trkpt lat="49.24111" lon="-0.17662">
        <ele>0.2</ele>
        <time>2024-07-03T12:21:42Z</time>
      </trkpt>
      <trkpt lat="49.24112" lon="-0.17672">
        <ele>0.2</ele>
        <time>2024-07-03T12:21:43Z</time>
      </trkpt>
      <trkpt lat="49.24113" lon="-0.17681">
        <ele>0.2</ele>
        <time>2024-07-03T12:21:44Z</time>
      </trkpt>
      <trkpt lat="49.24114" lon="-0.17689">
        <ele>0.4</ele>
        <time>2024-07-03T12:21:45Z</time>
      </trkpt>
      <trkpt lat="49.24115" lon="-0.17697">
        <ele>0.8</ele>
        <time>2024-07-03T12:21:46Z</time>
      </trkpt>
      <trkpt lat="49.24115" lon="-0.17705">
        <ele>1.2</ele>
        <time>2024-07-03T12:21:47Z</time>
      </trkpt>
      <trkpt lat="49.24116" lon="-0.17712">
        <ele>1.4</ele>
        <time>2024-07-03T12:21:48Z</time>
      </trkpt>
      <trkpt lat="49.24116" lon="-0.17719">
        <ele>1.6</ele>
        <time>2024-07-03T12:21:49Z</time>
      </trkpt>
      <trkpt lat="49.24116" lon="-0.17726">
        <ele>1.6</ele>
        <time>2024-07-03T12:21:50Z</time>
      </trkpt>
      <trkpt lat="49.24115" lon="-0.17733">
        <ele>1.8</ele>
        <time>2024-07-03T12:21:51Z</time>
      </trkpt>
      <trkpt lat="49.24114" lon="-0.17739">
        <ele>2</ele>
        <time>2024-07-03T12:21:52Z</time>
      </trkpt>
      <trkpt lat="49.24112" lon="-0.17744">
        <ele>2.2</ele>
        <time>2024-07-03T12:21:53Z</time>
      </trkpt>
      <trkpt lat="49.24112" lon="-0.17748">
        <ele>2.6</ele>
        <time>2024-07-03T12:21:54Z</time>
      </trkpt>
      <trkpt lat="49.24111" lon="-0.1775">
        <ele>3</ele>
        <time>2024-07-03T12:21:55Z</time>
      </trkpt>
      <trkpt lat="49.2411" lon="-0.17751">
        <ele>3.4</ele>
        <time>2024-07-03T12:21:56Z</time>
      </trkpt>
      <trkpt lat="49.2411" lon="-0.17752">
        <ele>3.6</ele>
        <time>2024-07-03T12:21:57Z</time>
      </trkpt>
      <trkpt lat="49.2411" lon="-0.17751">
        <ele>3.8</ele>
        <time>2024-07-03T12:21:58Z</time>
      </trkpt>
      <trkpt lat="49.24106" lon="-0.17756">
        <ele>4.2</ele>
        <time>2024-07-03T12:22:31Z</time>
      </trkpt>
      <trkpt lat="49.24104" lon="-0.17757">
        <ele>4</ele>
        <time>2024-07-03T12:22:32Z</time>
      </trkpt>
      <trkpt lat="49.24101" lon="-0.17757">
        <ele>3.8</ele>
        <time>2024-07-03T12:22:33Z</time>
      </trkpt>
      <trkpt lat="49.24097" lon="-0.17757">
        <ele>3.8</ele>
        <time>2024-07-03T12:22:34Z</time>
      </trkpt>
      <trkpt lat="49.24093" lon="-0.17756">
        <ele>3.8</ele>
        <time>2024-07-03T12:22:35Z</time>
      </trkpt>
      <trkpt lat="49.24088" lon="-0.17756">
        <ele>3.8</ele>
        <time>2024-07-03T12:22:36Z</time>
      </trkpt>
      <trkpt lat="49.24083" lon="-0.17756">
        <ele>3.6</ele>
        <time>2024-07-03T12:22:37Z</time>
      </trkpt>
      <trkpt lat="49.24077" lon="-0.17755">
        <ele>3.4</ele>
        <time>2024-07-03T12:22:38Z</time>
      </trkpt>
      <trkpt lat="49.24071" lon="-0.17754">
        <ele>3</ele>
        <time>2024-07-03T12:22:39Z</time>
      </trkpt>
      <trkpt lat="49.24065" lon="-0.17752">
        <ele>2.6</ele>
        <time>2024-07-03T12:22:40Z</time>
      </trkpt>
      <trkpt lat="49.24059" lon="-0.17751">
        <ele>2.4</ele>
        <time>2024-07-03T12:22:41Z</time>
      </trkpt>
      <trkpt lat="49.24054" lon="-0.17749">
        <ele>2.4</ele>
        <time>2024-07-03T12:22:42Z</time>
      </trkpt>
      <trkpt lat="49.24048" lon="-0.17749">
        <ele>2.4</ele>
        <time>2024-07-03T12:22:43Z</time>
      </trkpt>
      <trkpt lat="49.24042" lon="-0.1775">
        <ele>2.6</ele>
        <time>2024-07-03T12:22:44Z</time>
      </trkpt>
      <trkpt lat="49.24036" lon="-0.17751">
        <ele>2.8</ele>
        <time>2024-07-03T12:22:45Z</time>
      </trkpt>
      <trkpt lat="49.24031" lon="-0.17751">
        <ele>3</ele>
        <time>2024-07-03T12:22:46Z</time>
      </trkpt>
      <trkpt lat="49.24025" lon="-0.17752">
        <ele>3.4</ele>
        <time>2024-07-03T12:22:47Z</time>
      </trkpt>
      <trkpt lat="49.24018" lon="-0.17756">
        <ele>4</ele>
        <time>2024-07-03T12:22:48Z</time>
      </trkpt>
      <trkpt lat="49.24011" lon="-0.17758">
        <ele>4.4</ele>
        <time>2024-07-03T12:22:49Z</time>
      </trkpt>
      <trkpt lat="49.24005" lon="-0.1776">
        <ele>4.8</ele>
        <time>2024-07-03T12:22:50Z</time>
      </trkpt>
      <trkpt lat="49.23998" lon="-0.17762">
        <ele>5</ele>
        <time>2024-07-03T12:22:51Z</time>
      </trkpt>
      <trkpt lat="49.23991" lon="-0.17764">
        <ele>5</ele>
        <time>2024-07-03T12:22:52Z</time>
      </trkpt>
      <trkpt lat="49.23984" lon="-0.17765">
        <ele>5</ele>
        <time>2024-07-03T12:22:53Z</time>
      </trkpt>
      <trkpt lat="49.23976" lon="-0.17766">
        <ele>5</ele>
        <time>2024-07-03T12:22:54Z</time>
      </trkpt>
      <trkpt lat="49.23968" lon="-0.17766">
        <ele>5</ele>
        <time>2024-07-03T12:22:55Z</time>
      </trkpt>
      <trkpt lat="49.23961" lon="-0.17766">
        <ele>4.6</ele>
        <time>2024-07-03T12:22:56Z</time>
      </trkpt>
      <trkpt lat="49.23952" lon="-0.17765">
        <ele>4.2</ele>
        <time>2024-07-03T12:22:57Z</time>
      </trkpt>
      <trkpt lat="49.23944" lon="-0.17765">
        <ele>3.4</ele>
        <time>2024-07-03T12:22:58Z</time>
      </trkpt>
      <trkpt lat="49.23935" lon="-0.17764">
        <ele>2.8</ele>
        <time>2024-07-03T12:22:59Z</time>
      </trkpt>
      <trkpt lat="49.23926" lon="-0.17764">
        <ele>2.4</ele>
        <time>2024-07-03T12:23:00Z</time>
      </trkpt>
      <trkpt lat="49.23918" lon="-0.17764">
        <ele>1.8</ele>
        <time>2024-07-03T12:23:01Z</time>
      </trkpt>
      <trkpt lat="49.23909" lon="-0.17766">
        <ele>1.4</ele>
        <time>2024-07-03T12:23:02Z</time>
      </trkpt>
      <trkpt lat="49.23901" lon="-0.17767">
        <ele>1.2</ele>
        <time>2024-07-03T12:23:03Z</time>
      </trkpt>
      <trkpt lat="49.23893" lon="-0.17771">
        <ele>1</ele>
        <time>2024-07-03T12:23:04Z</time>
      </trkpt>
      <trkpt lat="49.23885" lon="-0.17776">
        <ele>0.6</ele>
        <time>2024-07-03T12:23:05Z</time>
      </trkpt>
      <trkpt lat="49.23878" lon="-0.17781">
        <ele>0.4</ele>
        <time>2024-07-03T12:23:06Z</time>
      </trkpt>
      <trkpt lat="49.2387" lon="-0.17786">
        <ele>0.2</ele>
        <time>2024-07-03T12:23:07Z</time>
      </trkpt>
      <trkpt lat="49.23863" lon="-0.17791">
        <ele>6.6</ele>
        <time>2024-07-03T12:23:08Z</time>
      </trkpt>
      <trkpt lat="49.23856" lon="-0.17797">
        <ele>-0.2</ele>
        <time>2024-07-03T12:23:09Z</time>
      </trkpt>
      <trkpt lat="49.2385" lon="-0.17804">
        <ele>-0.6</ele>
        <time>2024-07-03T12:23:10Z</time>
      </trkpt>
      <trkpt lat="49.23843" lon="-0.1781">
        <ele>-0.6</ele>
        <time>2024-07-03T12:23:11Z</time>
      </trkpt>
      <trkpt lat="49.23837" lon="-0.17816">
        <ele>-0.8</ele>
        <time>2024-07-03T12:23:12Z</time>
      </trkpt>
      <trkpt lat="49.23831" lon="-0.17822">
        <ele>-0.8</ele>
        <time>2024-07-03T12:23:13Z</time>
      </trkpt>
      <trkpt lat="49.23824" lon="-0.17827">
        <ele>-1</ele>
        <time>2024-07-03T12:23:14Z</time>
      </trkpt>
      <trkpt lat="49.23818" lon="-0.17832">
        <ele>-1</ele>
        <time>2024-07-03T12:23:15Z</time>
      </trkpt>
      <trkpt lat="49.23811" lon="-0.17836">
        <ele>-1.2</ele>
        <time>2024-07-03T12:23:16Z</time>
      </trkpt>
      <trkpt lat="49.23805" lon="-0.17841">
        <ele>-1.6</ele>
        <time>2024-07-03T12:23:17Z</time>
      </trkpt>
      <trkpt lat="49.23798" lon="-0.17846">
        <ele>-2.2</ele>
        <time>2024-07-03T12:23:18Z</time>
      </trkpt>
      <trkpt lat="49.23793" lon="-0.17852">
        <ele>-2.6</ele>
        <time>2024-07-03T12:23:19Z</time>
      </trkpt>
      <trkpt lat="49.23787" lon="-0.17857">
        <ele>-3</ele>
        <time>2024-07-03T12:23:20Z</time>
      </trkpt>
      <trkpt lat="49.2378" lon="-0.17862">
        <ele>-3</ele>
        <time>2024-07-03T12:23:21Z</time>
      </trkpt>
      <trkpt lat="49.23774" lon="-0.17868">
        <ele>-3</ele>
        <time>2024-07-03T12:23:22Z</time>
      </trkpt>
      <trkpt lat="49.23768" lon="-0.17873">
        <ele>-3.2</ele>
        <time>2024-07-03T12:23:23Z</time>
      </trkpt>
      <trkpt lat="49.23762" lon="-0.17879">
        <ele>-3.6</ele>
        <time>2024-07-03T12:23:24Z</time>
      </trkpt>
      <trkpt lat="49.23756" lon="-0.17885">
        <ele>-3.6</ele>
        <time>2024-07-03T12:23:25Z</time>
      </trkpt>
      <trkpt lat="49.23749" lon="-0.17891">
        <ele>-3.8</ele>
        <time>2024-07-03T12:23:26Z</time>
      </trkpt>
      <trkpt lat="49.23743" lon="-0.17897">
        <ele>-3.8</ele>
        <time>2024-07-03T12:23:27Z</time>
      </trkpt>
      <trkpt lat="49.23736" lon="-0.17902">
        <ele>-3.8</ele>
        <time>2024-07-03T12:23:28Z</time>
      </trkpt>
      <trkpt lat="49.2373" lon="-0.17907">
        <ele>-3.8</ele>
        <time>2024-07-03T12:23:29Z</time>
      </trkpt>
      <trkpt lat="49.23722" lon="-0.17913">
        <ele>-3.8</ele>
        <time>2024-07-03T12:23:30Z</time>
      </trkpt>
      <trkpt lat="49.23715" lon="-0.17917">
        <ele>-3.6</ele>
        <time>2024-07-03T12:23:31Z</time>
      </trkpt>
      <trkpt lat="49.23709" lon="-0.17922">
        <ele>-3.4</ele>
        <time>2024-07-03T12:23:32Z</time>
      </trkpt>
      <trkpt lat="49.23702" lon="-0.17927">
        <ele>-3.2</ele>
        <time>2024-07-03T12:23:33Z</time>
      </trkpt>
      <trkpt lat="49.23695" lon="-0.17931">
        <ele>-3</ele>
        <time>2024-07-03T12:23:34Z</time>
      </trkpt>
      <trkpt lat="49.23688" lon="-0.17936">
        <ele>-3</ele>
        <time>2024-07-03T12:23:35Z</time>
      </trkpt>
      <trkpt lat="49.23681" lon="-0.17941">
        <ele>-3</ele>
        <time>2024-07-03T12:23:36Z</time>
      </trkpt>
      <trkpt lat="49.23675" lon="-0.17945">
        <ele>-2.8</ele>
        <time>2024-07-03T12:23:37Z</time>
      </trkpt>
      <trkpt lat="49.23669" lon="-0.17949">
        <ele>-2.8</ele>
        <time>2024-07-03T12:23:38Z</time>
      </trkpt>
      <trkpt lat="49.23662" lon="-0.17953">
        <ele>-2.8</ele>
        <time>2024-07-03T12:23:39Z</time>
      </trkpt>
      <trkpt lat="49.23655" lon="-0.17957">
        <ele>-2.8</ele>
        <time>2024-07-03T12:23:40Z</time>
      </trkpt>
      <trkpt lat="49.23648" lon="-0.17961">
        <ele>-2.6</ele>
        <time>2024-07-03T12:23:41Z</time>
      </trkpt>
      <trkpt lat="49.23641" lon="-0.17965">
        <ele>-2.6</ele>
        <time>2024-07-03T12:23:42Z</time>
      </trkpt>
      <trkpt lat="49.23634" lon="-0.17969">
        <ele>-2.6</ele>
        <time>2024-07-03T12:23:43Z</time>
      </trkpt>
      <trkpt lat="49.23628" lon="-0.17973">
        <ele>-2.8</ele>
        <time>2024-07-03T12:23:44Z</time>
      </trkpt>
      <trkpt lat="49.23621" lon="-0.17976">
        <ele>-2.8</ele>
        <time>2024-07-03T12:23:45Z</time>
      </trkpt>
      <trkpt lat="49.23614" lon="-0.1798">
        <ele>-2.8</ele>
        <time>2024-07-03T12:23:46Z</time>
      </trkpt>
      <trkpt lat="49.23608" lon="-0.17983">
        <ele>-2.6</ele>
        <time>2024-07-03T12:23:47Z</time>
      </trkpt>
      <trkpt lat="49.23602" lon="-0.17987">
        <ele>-2.6</ele>
        <time>2024-07-03T12:23:48Z</time>
      </trkpt>
      <trkpt lat="49.23596" lon="-0.1799">
        <ele>-2.4</ele>
        <time>2024-07-03T12:23:49Z</time>
      </trkpt>
      <trkpt lat="49.23589" lon="-0.17994">
        <ele>-2.2</ele>
        <time>2024-07-03T12:23:50Z</time>
      </trkpt>
      <trkpt lat="49.23582" lon="-0.17997">
        <ele>-2.2</ele>
        <time>2024-07-03T12:23:51Z</time>
      </trkpt>
      <trkpt lat="49.23576" lon="-0.18001">
        <ele>-2</ele>
        <time>2024-07-03T12:23:52Z</time>
      </trkpt>
      <trkpt lat="49.23569" lon="-0.18004">
        <ele>-2</ele>
        <time>2024-07-03T12:23:53Z</time>
      </trkpt>
      <trkpt lat="49.23562" lon="-0.18008">
        <ele>-2</ele>
        <time>2024-07-03T12:23:54Z</time>
      </trkpt>
      <trkpt lat="49.23556" lon="-0.18011">
        <ele>-2</ele>
        <time>2024-07-03T12:23:55Z</time>
      </trkpt>
      <trkpt lat="49.23549" lon="-0.18014">
        <ele>-1.8</ele>
        <time>2024-07-03T12:23:56Z</time>
      </trkpt>
      <trkpt lat="49.23542" lon="-0.18016">
        <ele>-1.8</ele>
        <time>2024-07-03T12:23:57Z</time>
      </trkpt>
      <trkpt lat="49.23535" lon="-0.18017">
        <ele>-1.8</ele>
        <time>2024-07-03T12:23:58Z</time>
      </trkpt>
      <trkpt lat="49.23529" lon="-0.18016">
        <ele>-1.8</ele>
        <time>2024-07-03T12:23:59Z</time>
      </trkpt>
      <trkpt lat="49.23523" lon="-0.1801">
        <ele>-1.8</ele>
        <time>2024-07-03T12:24:00Z</time>
      </trkpt>
      <trkpt lat="49.23518" lon="-0.18003">
        <ele>-1.6</ele>
        <time>2024-07-03T12:24:01Z</time>
      </trkpt>
      <trkpt lat="49.23514" lon="-0.17993">
        <ele>-1.4</ele>
        <time>2024-07-03T12:24:02Z</time>
      </trkpt>
      <trkpt lat="49.23511" lon="-0.17982">
        <ele>-1.2</ele>
        <time>2024-07-03T12:24:03Z</time>
      </trkpt>
      <trkpt lat="49.23509" lon="-0.1797">
        <ele>-1</ele>
        <time>2024-07-03T12:24:04Z</time>
      </trkpt>
      <trkpt lat="49.23507" lon="-0.17959">
        <ele>-1</ele>
        <time>2024-07-03T12:24:05Z</time>
      </trkpt>
      <trkpt lat="49.23505" lon="-0.17947">
        <ele>-0.8</ele>
        <time>2024-07-03T12:24:06Z</time>
      </trkpt>
      <trkpt lat="49.23503" lon="-0.17935">
        <ele>-0.8</ele>
        <time>2024-07-03T12:24:07Z</time>
      </trkpt>
      <trkpt lat="49.23501" lon="-0.17922">
        <ele>-0.8</ele>
        <time>2024-07-03T12:24:08Z</time>
      </trkpt>
      <trkpt lat="49.23499" lon="-0.17911">
        <ele>-0.8</ele>
        <time>2024-07-03T12:24:09Z</time>
      </trkpt>
      <trkpt lat="49.23497" lon="-0.17899">
        <ele>-0.8</ele>
        <time>2024-07-03T12:24:10Z</time>
      </trkpt>
      <trkpt lat="49.23494" lon="-0.17887">
        <ele>-1</ele>
        <time>2024-07-03T12:24:11Z</time>
      </trkpt>
      <trkpt lat="49.23491" lon="-0.17875">
        <ele>-1</ele>
        <time>2024-07-03T12:24:12Z</time>
      </trkpt>
      <trkpt lat="49.23488" lon="-0.17864">
        <ele>-1.2</ele>
        <time>2024-07-03T12:24:13Z</time>
      </trkpt>
      <trkpt lat="49.23484" lon="-0.17853">
        <ele>-1.4</ele>
        <time>2024-07-03T12:24:14Z</time>
      </trkpt>
      <trkpt lat="49.23479" lon="-0.17843">
        <ele>-1.6</ele>
        <time>2024-07-03T12:24:15Z</time>
      </trkpt>
      <trkpt lat="49.23474" lon="-0.17834">
        <ele>-1.8</ele>
        <time>2024-07-03T12:24:16Z</time>
      </trkpt>
      <trkpt lat="49.23468" lon="-0.17826">
        <ele>-1.8</ele>
        <time>2024-07-03T12:24:17Z</time>
      </trkpt>
      <trkpt lat="49.23461" lon="-0.17819">
        <ele>-1.8</ele>
        <time>2024-07-03T12:24:18Z</time>
      </trkpt>
      <trkpt lat="49.23455" lon="-0.17812">
        <ele>-2</ele>
        <time>2024-07-03T12:24:19Z</time>
      </trkpt>
      <trkpt lat="49.23448" lon="-0.17805">
        <ele>-2</ele>
        <time>2024-07-03T12:24:20Z</time>
      </trkpt>
      <trkpt lat="49.23441" lon="-0.17799">
        <ele>-2</ele>
        <time>2024-07-03T12:24:21Z</time>
      </trkpt>
      <trkpt lat="49.23434" lon="-0.17792">
        <ele>-2</ele>
        <time>2024-07-03T12:24:22Z</time>
      </trkpt>
      <trkpt lat="49.23427" lon="-0.17786">
        <ele>-2.2</ele>
        <time>2024-07-03T12:24:23Z</time>
      </trkpt>
      <trkpt lat="49.23421" lon="-0.1778">
        <ele>-2.2</ele>
        <time>2024-07-03T12:24:24Z</time>
      </trkpt>
      <trkpt lat="49.23414" lon="-0.17774">
        <ele>-2</ele>
        <time>2024-07-03T12:24:25Z</time>
      </trkpt>
      <trkpt lat="49.23408" lon="-0.17769">
        <ele>-2</ele>
        <time>2024-07-03T12:24:26Z</time>
      </trkpt>
      <trkpt lat="49.23401" lon="-0.17763">
        <ele>-2</ele>
        <time>2024-07-03T12:24:27Z</time>
      </trkpt>
      <trkpt lat="49.23394" lon="-0.17757">
        <ele>-2</ele>
        <time>2024-07-03T12:24:28Z</time>
      </trkpt>
      <trkpt lat="49.23388" lon="-0.17751">
        <ele>-2</ele>
        <time>2024-07-03T12:24:29Z</time>
      </trkpt>
      <trkpt lat="49.23381" lon="-0.17745">
        <ele>-2</ele>
        <time>2024-07-03T12:24:30Z</time>
      </trkpt>
      <trkpt lat="49.23375" lon="-0.1774">
        <ele>-2</ele>
        <time>2024-07-03T12:24:31Z</time>
      </trkpt>
      <trkpt lat="49.23368" lon="-0.17735">
        <ele>-2.2</ele>
        <time>2024-07-03T12:24:32Z</time>
      </trkpt>
      <trkpt lat="49.23362" lon="-0.1773">
        <ele>-2.4</ele>
        <time>2024-07-03T12:24:33Z</time>
      </trkpt>
      <trkpt lat="49.23355" lon="-0.17725">
        <ele>-2.4</ele>
        <time>2024-07-03T12:24:34Z</time>
      </trkpt>
      <trkpt lat="49.23349" lon="-0.17721">
        <ele>-2.4</ele>
        <time>2024-07-03T12:24:35Z</time>
      </trkpt>
      <trkpt lat="49.23342" lon="-0.17717">
        <ele>-2.4</ele>
        <time>2024-07-03T12:24:36Z</time>
      </trkpt>
      <trkpt lat="49.23336" lon="-0.17712">
        <ele>-2.4</ele>
        <time>2024-07-03T12:24:37Z</time>
      </trkpt>
      <trkpt lat="49.23329" lon="-0.17708">
        <ele>-2.6</ele>
        <time>2024-07-03T12:24:38Z</time>
      </trkpt>
      <trkpt lat="49.23323" lon="-0.17704">
        <ele>-2.6</ele>
        <time>2024-07-03T12:24:39Z</time>
      </trkpt>
      <trkpt lat="49.23316" lon="-0.177">
        <ele>-2.6</ele>
        <time>2024-07-03T12:24:40Z</time>
      </trkpt>
      <trkpt lat="49.2331" lon="-0.17696">
        <ele>-2.4</ele>
        <time>2024-07-03T12:24:41Z</time>
      </trkpt>
      <trkpt lat="49.23303" lon="-0.17692">
        <ele>-2.4</ele>
        <time>2024-07-03T12:24:42Z</time>
      </trkpt>
      <trkpt lat="49.23297" lon="-0.17688">
        <ele>-2.4</ele>
        <time>2024-07-03T12:24:43Z</time>
      </trkpt>
      <trkpt lat="49.2329" lon="-0.17684">
        <ele>-2</ele>
        <time>2024-07-03T12:24:44Z</time>
      </trkpt>
      <trkpt lat="49.23284" lon="-0.17681">
        <ele>-1.4</ele>
        <time>2024-07-03T12:24:45Z</time>
      </trkpt>
      <trkpt lat="49.23278" lon="-0.17678">
        <ele>-1.2</ele>
        <time>2024-07-03T12:24:46Z</time>
      </trkpt>
      <trkpt lat="49.23271" lon="-0.17674">
        <ele>-1</ele>
        <time>2024-07-03T12:24:47Z</time>
      </trkpt>
      <trkpt lat="49.23264" lon="-0.17671">
        <ele>-0.8</ele>
        <time>2024-07-03T12:24:48Z</time>
      </trkpt>
      <trkpt lat="49.23257" lon="-0.17667">
        <ele>-1</ele>
        <time>2024-07-03T12:24:49Z</time>
      </trkpt>
      <trkpt lat="49.2325" lon="-0.17663">
        <ele>-1</ele>
        <time>2024-07-03T12:24:50Z</time>
      </trkpt>
      <trkpt lat="49.23243" lon="-0.1766">
        <ele>-1</ele>
        <time>2024-07-03T12:24:51Z</time>
      </trkpt>
      <trkpt lat="49.23236" lon="-0.17656">
        <ele>-1</ele>
        <time>2024-07-03T12:24:52Z</time>
      </trkpt>
      <trkpt lat="49.23229" lon="-0.17653">
        <ele>-1.2</ele>
        <time>2024-07-03T12:24:53Z</time>
      </trkpt>
      <trkpt lat="49.23222" lon="-0.17649">
        <ele>-1.2</ele>
        <time>2024-07-03T12:24:54Z</time>
      </trkpt>
      <trkpt lat="49.23215" lon="-0.17646">
        <ele>-1.2</ele>
        <time>2024-07-03T12:24:55Z</time>
      </trkpt>
      <trkpt lat="49.23208" lon="-0.17642">
        <ele>-1.2</ele>
        <time>2024-07-03T12:24:56Z</time>
      </trkpt>
      <trkpt lat="49.23201" lon="-0.17639">
        <ele>-1.4</ele>
        <time>2024-07-03T12:24:57Z</time>
      </trkpt>
      <trkpt lat="49.23194" lon="-0.17637">
        <ele>-1.4</ele>
        <time>2024-07-03T12:24:58Z</time>
      </trkpt>
      <trkpt lat="49.23187" lon="-0.17634">
        <ele>-1.4</ele>
        <time>2024-07-03T12:24:59Z</time>
      </trkpt>
      <trkpt lat="49.2318" lon="-0.17631">
        <ele>-1.4</ele>
        <time>2024-07-03T12:25:00Z</time>
      </trkpt>
      <trkpt lat="49.23173" lon="-0.17629">
        <ele>-1.6</ele>
        <time>2024-07-03T12:25:01Z</time>
      </trkpt>
      <trkpt lat="49.23166" lon="-0.17627">
        <ele>-1.6</ele>
        <time>2024-07-03T12:25:02Z</time>
      </trkpt>
      <trkpt lat="49.23158" lon="-0.17625">
        <ele>-1.4</ele>
        <time>2024-07-03T12:25:03Z</time>
      </trkpt>
      <trkpt lat="49.23151" lon="-0.17623">
        <ele>-1.4</ele>
        <time>2024-07-03T12:25:04Z</time>
      </trkpt>
      <trkpt lat="49.23144" lon="-0.17622">
        <ele>-1.6</ele>
        <time>2024-07-03T12:25:05Z</time>
      </trkpt>
      <trkpt lat="49.23137" lon="-0.1762">
        <ele>-1.8</ele>
        <time>2024-07-03T12:25:06Z</time>
      </trkpt>
      <trkpt lat="49.2313" lon="-0.17619">
        <ele>-2</ele>
        <time>2024-07-03T12:25:07Z</time>
      </trkpt>
      <trkpt lat="49.23123" lon="-0.17618">
        <ele>-2.4</ele>
        <time>2024-07-03T12:25:08Z</time>
      </trkpt>
      <trkpt lat="49.23115" lon="-0.17617">
        <ele>-2.6</ele>
        <time>2024-07-03T12:25:09Z</time>
      </trkpt>
      <trkpt lat="49.23108" lon="-0.17616">
        <ele>-3.2</ele>
        <time>2024-07-03T12:25:10Z</time>
      </trkpt>
      <trkpt lat="49.23101" lon="-0.17615">
        <ele>-3.6</ele>
        <time>2024-07-03T12:25:11Z</time>
      </trkpt>
      <trkpt lat="49.23094" lon="-0.17615">
        <ele>-3.6</ele>
        <time>2024-07-03T12:25:12Z</time>
      </trkpt>
      <trkpt lat="49.23086" lon="-0.17615">
        <ele>-3.8</ele>
        <time>2024-07-03T12:25:13Z</time>
      </trkpt>
      <trkpt lat="49.23079" lon="-0.17615">
        <ele>-4.2</ele>
        <time>2024-07-03T12:25:14Z</time>
      </trkpt>
      <trkpt lat="49.23071" lon="-0.17616">
        <ele>-4.4</ele>
        <time>2024-07-03T12:25:15Z</time>
      </trkpt>
      <trkpt lat="49.23064" lon="-0.17617">
        <ele>-4.6</ele>
        <time>2024-07-03T12:25:16Z</time>
      </trkpt>
      <trkpt lat="49.23057" lon="-0.17618">
        <ele>-4.6</ele>
        <time>2024-07-03T12:25:17Z</time>
      </trkpt>
      <trkpt lat="49.23049" lon="-0.17619">
        <ele>-4.6</ele>
        <time>2024-07-03T12:25:18Z</time>
      </trkpt>
      <trkpt lat="49.23042" lon="-0.17621">
        <ele>-4.6</ele>
        <time>2024-07-03T12:25:19Z</time>
      </trkpt>
      <trkpt lat="49.23034" lon="-0.17623">
        <ele>-4.8</ele>
        <time>2024-07-03T12:25:20Z</time>
      </trkpt>
      <trkpt lat="49.23027" lon="-0.17625">
        <ele>-4.6</ele>
        <time>2024-07-03T12:25:21Z</time>
      </trkpt>
      <trkpt lat="49.23019" lon="-0.17628">
        <ele>-4.6</ele>
        <time>2024-07-03T12:25:22Z</time>
      </trkpt>
      <trkpt lat="49.23012" lon="-0.17631">
        <ele>-4.6</ele>
        <time>2024-07-03T12:25:23Z</time>
      </trkpt>
      <trkpt lat="49.23005" lon="-0.17634">
        <ele>-4.2</ele>
        <time>2024-07-03T12:25:24Z</time>
      </trkpt>
      <trkpt lat="49.22998" lon="-0.17637">
        <ele>-3.8</ele>
        <time>2024-07-03T12:25:25Z</time>
      </trkpt>
      <trkpt lat="49.2299" lon="-0.1764">
        <ele>-3.4</ele>
        <time>2024-07-03T12:25:26Z</time>
      </trkpt>
      <trkpt lat="49.22983" lon="-0.17643">
        <ele>-3.2</ele>
        <time>2024-07-03T12:25:27Z</time>
      </trkpt>
      <trkpt lat="49.22976" lon="-0.17646">
        <ele>-3</ele>
        <time>2024-07-03T12:25:28Z</time>
      </trkpt>
      <trkpt lat="49.22969" lon="-0.1765">
        <ele>-2.8</ele>
        <time>2024-07-03T12:25:29Z</time>
      </trkpt>
      <trkpt lat="49.22962" lon="-0.17654">
        <ele>-2.8</ele>
        <time>2024-07-03T12:25:30Z</time>
      </trkpt>
      <trkpt lat="49.22955" lon="-0.17658">
        <ele>-2.8</ele>
        <time>2024-07-03T12:25:31Z</time>
      </trkpt>
      <trkpt lat="49.22948" lon="-0.17662">
        <ele>-3</ele>
        <time>2024-07-03T12:25:32Z</time>
      </trkpt>
      <trkpt lat="49.22941" lon="-0.17666">
        <ele>-3.2</ele>
        <time>2024-07-03T12:25:33Z</time>
      </trkpt>
      <trkpt lat="49.22934" lon="-0.17669">
        <ele>-3.2</ele>
        <time>2024-07-03T12:25:34Z</time>
      </trkpt>
      <trkpt lat="49.22927" lon="-0.17673">
        <ele>-3.2</ele>
        <time>2024-07-03T12:25:35Z</time>
      </trkpt>
      <trkpt lat="49.2292" lon="-0.17676">
        <ele>-3.4</ele>
        <time>2024-07-03T12:25:36Z</time>
      </trkpt>
      <trkpt lat="49.22914" lon="-0.17679">
        <ele>-3.4</ele>
        <time>2024-07-03T12:25:37Z</time>
      </trkpt>
      <trkpt lat="49.22907" lon="-0.17682">
        <ele>-3.4</ele>
        <time>2024-07-03T12:25:38Z</time>
      </trkpt>
      <trkpt lat="49.229" lon="-0.17686">
        <ele>-3.4</ele>
        <time>2024-07-03T12:25:39Z</time>
      </trkpt>
      <trkpt lat="49.22893" lon="-0.17688">
        <ele>-3.6</ele>
        <time>2024-07-03T12:25:40Z</time>
      </trkpt>
      <trkpt lat="49.22885" lon="-0.17691">
        <ele>-3.6</ele>
        <time>2024-07-03T12:25:41Z</time>
      </trkpt>
      <trkpt lat="49.22878" lon="-0.17692">
        <ele>-3.8</ele>
        <time>2024-07-03T12:25:42Z</time>
      </trkpt>
      <trkpt lat="49.22871" lon="-0.17693">
        <ele>-3.8</ele>
        <time>2024-07-03T12:25:43Z</time>
      </trkpt>
      <trkpt lat="49.22864" lon="-0.17694">
        <ele>-3.8</ele>
        <time>2024-07-03T12:25:44Z</time>
      </trkpt>
      <trkpt lat="49.22857" lon="-0.17694">
        <ele>-3.8</ele>
        <time>2024-07-03T12:25:45Z</time>
      </trkpt>
      <trkpt lat="49.22849" lon="-0.17694">
        <ele>-3.8</ele>
        <time>2024-07-03T12:25:46Z</time>
      </trkpt>
      <trkpt lat="49.22842" lon="-0.17695">
        <ele>-3.6</ele>
        <time>2024-07-03T12:25:47Z</time>
      </trkpt>
      <trkpt lat="49.22835" lon="-0.17695">
        <ele>-3.6</ele>
        <time>2024-07-03T12:25:48Z</time>
      </trkpt>
      <trkpt lat="49.22828" lon="-0.17695">
        <ele>-3.4</ele>
        <time>2024-07-03T12:25:49Z</time>
      </trkpt>
      <trkpt lat="49.22821" lon="-0.17696">
        <ele>-3.4</ele>
        <time>2024-07-03T12:25:50Z</time>
      </trkpt>
      <trkpt lat="49.22814" lon="-0.17697">
        <ele>-3.2</ele>
        <time>2024-07-03T12:25:51Z</time>
      </trkpt>
      <trkpt lat="49.22808" lon="-0.17698">
        <ele>-3.2</ele>
        <time>2024-07-03T12:25:52Z</time>
      </trkpt>
      <trkpt lat="49.22801" lon="-0.177">
        <ele>-3.2</ele>
        <time>2024-07-03T12:25:53Z</time>
      </trkpt>
      <trkpt lat="49.22794" lon="-0.17702">
        <ele>-3.2</ele>
        <time>2024-07-03T12:25:54Z</time>
      </trkpt>
      <trkpt lat="49.22788" lon="-0.17704">
        <ele>-3</ele>
        <time>2024-07-03T12:25:55Z</time>
      </trkpt>
      <trkpt lat="49.22781" lon="-0.17707">
        <ele>-3</ele>
        <time>2024-07-03T12:25:56Z</time>
      </trkpt>
      <trkpt lat="49.22774" lon="-0.1771">
        <ele>-3.2</ele>
        <time>2024-07-03T12:25:57Z</time>
      </trkpt>
      <trkpt lat="49.22768" lon="-0.17713">
        <ele>-3.2</ele>
        <time>2024-07-03T12:25:58Z</time>
      </trkpt>
      <trkpt lat="49.22762" lon="-0.17716">
        <ele>-3.4</ele>
        <time>2024-07-03T12:25:59Z</time>
      </trkpt>
      <trkpt lat="49.22755" lon="-0.17721">
        <ele>-3.4</ele>
        <time>2024-07-03T12:26:00Z</time>
      </trkpt>
      <trkpt lat="49.22748" lon="-0.17726">
        <ele>-3.6</ele>
        <time>2024-07-03T12:26:01Z</time>
      </trkpt>
      <trkpt lat="49.22741" lon="-0.17731">
        <ele>-3.6</ele>
        <time>2024-07-03T12:26:02Z</time>
      </trkpt>
      <trkpt lat="49.22735" lon="-0.17737">
        <ele>-3.8</ele>
        <time>2024-07-03T12:26:03Z</time>
      </trkpt>
      <trkpt lat="49.22729" lon="-0.17743">
        <ele>-4</ele>
        <time>2024-07-03T12:26:04Z</time>
      </trkpt>
      <trkpt lat="49.22723" lon="-0.1775">
        <ele>-4.2</ele>
        <time>2024-07-03T12:26:05Z</time>
      </trkpt>
      <trkpt lat="49.22719" lon="-0.17756">
        <ele>-4.6</ele>
        <time>2024-07-03T12:26:06Z</time>
      </trkpt>
      <trkpt lat="49.22714" lon="-0.17763">
        <ele>-5</ele>
        <time>2024-07-03T12:26:07Z</time>
      </trkpt>
      <trkpt lat="49.2271" lon="-0.17771">
        <ele>-5.2</ele>
        <time>2024-07-03T12:26:08Z</time>
      </trkpt>
      <trkpt lat="49.22705" lon="-0.17779">
        <ele>-5.4</ele>
        <time>2024-07-03T12:26:09Z</time>
      </trkpt>
      <trkpt lat="49.227" lon="-0.17788">
        <ele>-5.4</ele>
        <time>2024-07-03T12:26:10Z</time>
      </trkpt>
      <trkpt lat="49.22696" lon="-0.17796">
        <ele>-5</ele>
        <time>2024-07-03T12:26:11Z</time>
      </trkpt>
      <trkpt lat="49.2269" lon="-0.17805">
        <ele>-4.2</ele>
        <time>2024-07-03T12:26:12Z</time>
      </trkpt>
      <trkpt lat="49.22685" lon="-0.17813">
        <ele>-3.4</ele>
        <time>2024-07-03T12:26:13Z</time>
      </trkpt>
      <trkpt lat="49.2268" lon="-0.17821">
        <ele>-3</ele>
        <time>2024-07-03T12:26:14Z</time>
      </trkpt>
      <trkpt lat="49.22674" lon="-0.17828">
        <ele>-2.8</ele>
        <time>2024-07-03T12:26:15Z</time>
      </trkpt>
      <trkpt lat="49.22667" lon="-0.17834">
        <ele>-2.6</ele>
        <time>2024-07-03T12:26:16Z</time>
      </trkpt>
      <trkpt lat="49.22661" lon="-0.17839">
        <ele>-2.6</ele>
        <time>2024-07-03T12:26:17Z</time>
      </trkpt>
      <trkpt lat="49.22654" lon="-0.17843">
        <ele>-2.4</ele>
        <time>2024-07-03T12:26:18Z</time>
      </trkpt>
      <trkpt lat="49.22647" lon="-0.17848">
        <ele>-2.2</ele>
        <time>2024-07-03T12:26:19Z</time>
      </trkpt>
      <trkpt lat="49.2264" lon="-0.17852">
        <ele>-2.2</ele>
        <time>2024-07-03T12:26:20Z</time>
      </trkpt>
      <trkpt lat="49.22633" lon="-0.17855">
        <ele>-2</ele>
        <time>2024-07-03T12:26:21Z</time>
      </trkpt>
      <trkpt lat="49.22625" lon="-0.17859">
        <ele>-1.8</ele>
        <time>2024-07-03T12:26:22Z</time>
      </trkpt>
      <trkpt lat="49.22618" lon="-0.17861">
        <ele>-1.6</ele>
        <time>2024-07-03T12:26:23Z</time>
      </trkpt>
      <trkpt lat="49.22611" lon="-0.17863">
        <ele>-1.4</ele>
        <time>2024-07-03T12:26:24Z</time>
      </trkpt>
      <trkpt lat="49.22603" lon="-0.17866">
        <ele>-1.4</ele>
        <time>2024-07-03T12:26:25Z</time>
      </trkpt>
      <trkpt lat="49.22596" lon="-0.17868">
        <ele>-1.4</ele>
        <time>2024-07-03T12:26:26Z</time>
      </trkpt>
      <trkpt lat="49.22589" lon="-0.17869">
        <ele>-1.2</ele>
        <time>2024-07-03T12:26:27Z</time>
      </trkpt>
      <trkpt lat="49.22581" lon="-0.1787">
        <ele>-1.2</ele>
        <time>2024-07-03T12:26:28Z</time>
      </trkpt>
      <trkpt lat="49.22574" lon="-0.17871">
        <ele>-1.2</ele>
        <time>2024-07-03T12:26:29Z</time>
      </trkpt>
      <trkpt lat="49.22567" lon="-0.17871">
        <ele>-1.2</ele>
        <time>2024-07-03T12:26:30Z</time>
      </trkpt>
      <trkpt lat="49.2256" lon="-0.17872">
        <ele>-1.4</ele>
        <time>2024-07-03T12:26:31Z</time>
      </trkpt>
      <trkpt lat="49.22553" lon="-0.17872">
        <ele>-1.4</ele>
        <time>2024-07-03T12:26:32Z</time>
      </trkpt>
      <trkpt lat="49.22546" lon="-0.17873">
        <ele>-1.6</ele>
        <time>2024-07-03T12:26:33Z</time>
      </trkpt>
      <trkpt lat="49.22539" lon="-0.17873">
        <ele>-1.6</ele>
        <time>2024-07-03T12:26:34Z</time>
      </trkpt>
      <trkpt lat="49.22533" lon="-0.17872">
        <ele>-1.6</ele>
        <time>2024-07-03T12:26:35Z</time>
      </trkpt>
      <trkpt lat="49.22526" lon="-0.17871">
        <ele>-1.6</ele>
        <time>2024-07-03T12:26:36Z</time>
      </trkpt>
      <trkpt lat="49.22519" lon="-0.1787">
        <ele>-1.6</ele>
        <time>2024-07-03T12:26:37Z</time>
      </trkpt>
      <trkpt lat="49.22512" lon="-0.17869">
        <ele>-1.4</ele>
        <time>2024-07-03T12:26:38Z</time>
      </trkpt>
      <trkpt lat="49.22506" lon="-0.17868">
        <ele>-1.4</ele>
        <time>2024-07-03T12:26:39Z</time>
      </trkpt>
      <trkpt lat="49.22499" lon="-0.17867">
        <ele>-1.2</ele>
        <time>2024-07-03T12:26:40Z</time>
      </trkpt>
      <trkpt lat="49.22492" lon="-0.17866">
        <ele>-1</ele>
        <time>2024-07-03T12:26:41Z</time>
      </trkpt>
      <trkpt lat="49.22485" lon="-0.17865">
        <ele>-0.8</ele>
        <time>2024-07-03T12:26:42Z</time>
      </trkpt>
      <trkpt lat="49.22478" lon="-0.17863">
        <ele>-0.6</ele>
        <time>2024-07-03T12:26:43Z</time>
      </trkpt>
      <trkpt lat="49.22471" lon="-0.17861">
        <ele>-0.6</ele>
        <time>2024-07-03T12:26:44Z</time>
      </trkpt>
      <trkpt lat="49.22464" lon="-0.17859">
        <ele>-0.6</ele>
        <time>2024-07-03T12:26:45Z</time>
      </trkpt>
      <trkpt lat="49.22457" lon="-0.17856">
        <ele>-0.4</ele>
        <time>2024-07-03T12:26:46Z</time>
      </trkpt>
      <trkpt lat="49.2245" lon="-0.17854">
        <ele>-0.4</ele>
        <time>2024-07-03T12:26:47Z</time>
      </trkpt>
      <trkpt lat="49.22443" lon="-0.17851">
        <ele>-0.4</ele>
        <time>2024-07-03T12:26:48Z</time>
      </trkpt>
      <trkpt lat="49.22436" lon="-0.17848">
        <ele>-0.4</ele>
        <time>2024-07-03T12:26:49Z</time>
      </trkpt>
      <trkpt lat="49.22429" lon="-0.17845">
        <ele>-0.4</ele>
        <time>2024-07-03T12:26:50Z</time>
      </trkpt>
      <trkpt lat="49.22422" lon="-0.17842">
        <ele>-0.4</ele>
        <time>2024-07-03T12:26:51Z</time>
      </trkpt>
      <trkpt lat="49.22415" lon="-0.17839">
        <ele>-0.4</ele>
        <time>2024-07-03T12:26:52Z</time>
      </trkpt>
      <trkpt lat="49.22408" lon="-0.17836">
        <ele>-0.4</ele>
        <time>2024-07-03T12:26:53Z</time>
      </trkpt>
      <trkpt lat="49.22401" lon="-0.17833">
        <ele>-0.6</ele>
        <time>2024-07-03T12:26:54Z</time>
      </trkpt>
      <trkpt lat="49.22393" lon="-0.1783">
        <ele>-0.8</ele>
        <time>2024-07-03T12:26:55Z</time>
      </trkpt>
      <trkpt lat="49.22386" lon="-0.17828">
        <ele>-1.2</ele>
        <time>2024-07-03T12:26:56Z</time>
      </trkpt>
      <trkpt lat="49.22379" lon="-0.17826">
        <ele>-1.4</ele>
        <time>2024-07-03T12:26:57Z</time>
      </trkpt>
      <trkpt lat="49.22372" lon="-0.17824">
        <ele>-1.6</ele>
        <time>2024-07-03T12:26:58Z</time>
      </trkpt>
      <trkpt lat="49.22365" lon="-0.17822">
        <ele>-1.8</ele>
        <time>2024-07-03T12:26:59Z</time>
      </trkpt>
      <trkpt lat="49.22357" lon="-0.17821">
        <ele>-2</ele>
        <time>2024-07-03T12:27:00Z</time>
      </trkpt>
      <trkpt lat="49.2235" lon="-0.1782">
        <ele>-2.2</ele>
        <time>2024-07-03T12:27:01Z</time>
      </trkpt>
      <trkpt lat="49.22342" lon="-0.1782">
        <ele>-2.4</ele>
        <time>2024-07-03T12:27:02Z</time>
      </trkpt>
      <trkpt lat="49.22335" lon="-0.1782">
        <ele>-2.4</ele>
        <time>2024-07-03T12:27:03Z</time>
      </trkpt>
      <trkpt lat="49.22327" lon="-0.1782">
        <ele>-2.4</ele>
        <time>2024-07-03T12:27:04Z</time>
      </trkpt>
      <trkpt lat="49.2232" lon="-0.1782">
        <ele>-2.6</ele>
        <time>2024-07-03T12:27:05Z</time>
      </trkpt>
      <trkpt lat="49.22312" lon="-0.17821">
        <ele>-2.8</ele>
        <time>2024-07-03T12:27:06Z</time>
      </trkpt>
      <trkpt lat="49.22305" lon="-0.17821">
        <ele>-2.8</ele>
        <time>2024-07-03T12:27:07Z</time>
      </trkpt>
      <trkpt lat="49.22297" lon="-0.17822">
        <ele>-3</ele>
        <time>2024-07-03T12:27:08Z</time>
      </trkpt>
      <trkpt lat="49.2229" lon="-0.17822">
        <ele>-3</ele>
        <time>2024-07-03T12:27:09Z</time>
      </trkpt>
      <trkpt lat="49.22282" lon="-0.17822">
        <ele>-3.2</ele>
        <time>2024-07-03T12:27:10Z</time>
      </trkpt>
      <trkpt lat="49.22275" lon="-0.17823">
        <ele>-3.2</ele>
        <time>2024-07-03T12:27:11Z</time>
      </trkpt>
      <trkpt lat="49.22267" lon="-0.17824">
        <ele>-3.4</ele>
        <time>2024-07-03T12:27:12Z</time>
      </trkpt>
      <trkpt lat="49.2226" lon="-0.17824">
        <ele>-3.4</ele>
        <time>2024-07-03T12:27:13Z</time>
      </trkpt>
      <trkpt lat="49.22252" lon="-0.17825">
        <ele>-3.4</ele>
        <time>2024-07-03T12:27:14Z</time>
      </trkpt>
      <trkpt lat="49.22245" lon="-0.17826">
        <ele>-3.4</ele>
        <time>2024-07-03T12:27:15Z</time>
      </trkpt>
      <trkpt lat="49.22238" lon="-0.17827">
        <ele>-3.4</ele>
        <time>2024-07-03T12:27:16Z</time>
      </trkpt>
      <trkpt lat="49.2223" lon="-0.17829">
        <ele>-3.4</ele>
        <time>2024-07-03T12:27:17Z</time>
      </trkpt>
      <trkpt lat="49.22223" lon="-0.17831">
        <ele>-3.4</ele>
        <time>2024-07-03T12:27:18Z</time>
      </trkpt>
      <trkpt lat="49.22216" lon="-0.17833">
        <ele>-3.2</ele>
        <time>2024-07-03T12:27:19Z</time>
      </trkpt>
      <trkpt lat="49.22208" lon="-0.17835">
        <ele>-3.2</ele>
        <time>2024-07-03T12:27:20Z</time>
      </trkpt>
      <trkpt lat="49.22201" lon="-0.17838">
        <ele>-3.2</ele>
        <time>2024-07-03T12:27:21Z</time>
      </trkpt>
      <trkpt lat="49.22194" lon="-0.17841">
        <ele>-3</ele>
        <time>2024-07-03T12:27:22Z</time>
      </trkpt>
      <trkpt lat="49.22187" lon="-0.17844">
        <ele>-3</ele>
        <time>2024-07-03T12:27:23Z</time>
      </trkpt>
      <trkpt lat="49.2218" lon="-0.17846">
        <ele>-2.8</ele>
        <time>2024-07-03T12:27:24Z</time>
      </trkpt>
      <trkpt lat="49.22173" lon="-0.17849">
        <ele>-2.8</ele>
        <time>2024-07-03T12:27:25Z</time>
      </trkpt>
      <trkpt lat="49.22166" lon="-0.17851">
        <ele>-2.6</ele>
        <time>2024-07-03T12:27:26Z</time>
      </trkpt>
      <trkpt lat="49.22159" lon="-0.17852">
        <ele>-2.4</ele>
        <time>2024-07-03T12:27:27Z</time>
      </trkpt>
      <trkpt lat="49.22152" lon="-0.17854">
        <ele>-2.2</ele>
        <time>2024-07-03T12:27:28Z</time>
      </trkpt>
      <trkpt lat="49.22145" lon="-0.17856">
        <ele>-2</ele>
        <time>2024-07-03T12:27:29Z</time>
      </trkpt>
      <trkpt lat="49.22139" lon="-0.17859">
        <ele>-2</ele>
        <time>2024-07-03T12:27:30Z</time>
      </trkpt>
      <trkpt lat="49.22132" lon="-0.1786">
        <ele>-2.2</ele>
        <time>2024-07-03T12:27:31Z</time>
      </trkpt>
      <trkpt lat="49.22125" lon="-0.17861">
        <ele>-2.2</ele>
        <time>2024-07-03T12:27:32Z</time>
      </trkpt>
      <trkpt lat="49.22117" lon="-0.17862">
        <ele>-2.4</ele>
        <time>2024-07-03T12:27:33Z</time>
      </trkpt>
      <trkpt lat="49.2211" lon="-0.17862">
        <ele>-2.6</ele>
        <time>2024-07-03T12:27:34Z</time>
      </trkpt>
      <trkpt lat="49.22103" lon="-0.17862">
        <ele>-2.6</ele>
        <time>2024-07-03T12:27:35Z</time>
      </trkpt>
      <trkpt lat="49.22095" lon="-0.17863">
        <ele>-2.8</ele>
        <time>2024-07-03T12:27:36Z</time>
      </trkpt>
      <trkpt lat="49.22087" lon="-0.17863">
        <ele>-3</ele>
        <time>2024-07-03T12:27:37Z</time>
      </trkpt>
      <trkpt lat="49.22079" lon="-0.17865">
        <ele>-3</ele>
        <time>2024-07-03T12:27:38Z</time>
      </trkpt>
      <trkpt lat="49.22072" lon="-0.17867">
        <ele>-3</ele>
        <time>2024-07-03T12:27:39Z</time>
      </trkpt>
      <trkpt lat="49.22064" lon="-0.17869">
        <ele>-3</ele>
        <time>2024-07-03T12:27:40Z</time>
      </trkpt>
      <trkpt lat="49.22057" lon="-0.17871">
        <ele>-3</ele>
        <time>2024-07-03T12:27:41Z</time>
      </trkpt>
      <trkpt lat="49.22051" lon="-0.17873">
        <ele>-3</ele>
        <time>2024-07-03T12:27:42Z</time>
      </trkpt>
      <trkpt lat="49.22045" lon="-0.17876">
        <ele>-3</ele>
        <time>2024-07-03T12:27:43Z</time>
      </trkpt>
      <trkpt lat="49.22038" lon="-0.17879">
        <ele>-3</ele>
        <time>2024-07-03T12:27:44Z</time>
      </trkpt>
      <trkpt lat="49.22032" lon="-0.17883">
        <ele>-3</ele>
        <time>2024-07-03T12:27:45Z</time>
      </trkpt>
      <trkpt lat="49.22027" lon="-0.17887">
        <ele>-3</ele>
        <time>2024-07-03T12:27:46Z</time>
      </trkpt>
      <trkpt lat="49.22021" lon="-0.17891">
        <ele>-3</ele>
        <time>2024-07-03T12:27:47Z</time>
      </trkpt>
      <trkpt lat="49.22015" lon="-0.17895">
        <ele>-3</ele>
        <time>2024-07-03T12:27:48Z</time>
      </trkpt>
      <trkpt lat="49.22009" lon="-0.179">
        <ele>-3</ele>
        <time>2024-07-03T12:27:49Z</time>
      </trkpt>
      <trkpt lat="49.22003" lon="-0.17904">
        <ele>-3</ele>
        <time>2024-07-03T12:27:50Z</time>
      </trkpt>
      <trkpt lat="49.21996" lon="-0.17907">
        <ele>-3</ele>
        <time>2024-07-03T12:27:51Z</time>
      </trkpt>
      <trkpt lat="49.2199" lon="-0.17911">
        <ele>-3</ele>
        <time>2024-07-03T12:27:52Z</time>
      </trkpt>
      <trkpt lat="49.21983" lon="-0.17914">
        <ele>-3</ele>
        <time>2024-07-03T12:27:53Z</time>
      </trkpt>
      <trkpt lat="49.21975" lon="-0.17917">
        <ele>-2.8</ele>
        <time>2024-07-03T12:27:54Z</time>
      </trkpt>
      <trkpt lat="49.21968" lon="-0.1792">
        <ele>-2.6</ele>
        <time>2024-07-03T12:27:55Z</time>
      </trkpt>
      <trkpt lat="49.21961" lon="-0.17922">
        <ele>-2.4</ele>
        <time>2024-07-03T12:27:56Z</time>
      </trkpt>
      <trkpt lat="49.21955" lon="-0.17924">
        <ele>-2.2</ele>
        <time>2024-07-03T12:27:57Z</time>
      </trkpt>
      <trkpt lat="49.21948" lon="-0.17926">
        <ele>-2</ele>
        <time>2024-07-03T12:27:58Z</time>
      </trkpt>
      <trkpt lat="49.21942" lon="-0.17926">
        <ele>-1.8</ele>
        <time>2024-07-03T12:27:59Z</time>
      </trkpt>
      <trkpt lat="49.21935" lon="-0.17927">
        <ele>-1.4</ele>
        <time>2024-07-03T12:28:00Z</time>
      </trkpt>
      <trkpt lat="49.21929" lon="-0.17927">
        <ele>-1.2</ele>
        <time>2024-07-03T12:28:01Z</time>
      </trkpt>
      <trkpt lat="49.21922" lon="-0.17927">
        <ele>-0.8</ele>
        <time>2024-07-03T12:28:02Z</time>
      </trkpt>
      <trkpt lat="49.21916" lon="-0.17927">
        <ele>-0.4</ele>
        <time>2024-07-03T12:28:03Z</time>
      </trkpt>
      <trkpt lat="49.2191" lon="-0.17926">
        <ele>9.6</ele>
        <time>2024-07-03T12:28:04Z</time>
      </trkpt>
      <trkpt lat="49.21904" lon="-0.17925">
        <ele>0.6</ele>
        <time>2024-07-03T12:28:05Z</time>
      </trkpt>
      <trkpt lat="49.21897" lon="-0.17924">
        <ele>1.2</ele>
        <time>2024-07-03T12:28:06Z</time>
      </trkpt>
      <trkpt lat="49.21891" lon="-0.17923">
        <ele>1.6</ele>
        <time>2024-07-03T12:28:07Z</time>
      </trkpt>
      <trkpt lat="49.21884" lon="-0.17921">
        <ele>2</ele>
        <time>2024-07-03T12:28:08Z</time>
      </trkpt>
      <trkpt lat="49.21877" lon="-0.17919">
        <ele>2.4</ele>
        <time>2024-07-03T12:28:09Z</time>
      </trkpt>
      <trkpt lat="49.21869" lon="-0.17917">
        <ele>2.8</ele>
        <time>2024-07-03T12:28:10Z</time>
      </trkpt>
      <trkpt lat="49.21862" lon="-0.17914">
        <ele>3.2</ele>
        <time>2024-07-03T12:28:11Z</time>
      </trkpt>
      <trkpt lat="49.21854" lon="-0.17911">
        <ele>3.4</ele>
        <time>2024-07-03T12:28:12Z</time>
      </trkpt>
      <trkpt lat="49.21847" lon="-0.17907">
        <ele>3.4</ele>
        <time>2024-07-03T12:28:13Z</time>
      </trkpt>
      <trkpt lat="49.21839" lon="-0.17904">
        <ele>3.4</ele>
        <time>2024-07-03T12:28:14Z</time>
      </trkpt>
      <trkpt lat="49.21831" lon="-0.17901">
        <ele>3.2</ele>
        <time>2024-07-03T12:28:15Z</time>
      </trkpt>
      <trkpt lat="49.21823" lon="-0.17898">
        <ele>2.8</ele>
        <time>2024-07-03T12:28:16Z</time>
      </trkpt>
      <trkpt lat="49.21815" lon="-0.17895">
        <ele>2.4</ele>
        <time>2024-07-03T12:28:17Z</time>
      </trkpt>
      <trkpt lat="49.21807" lon="-0.17893">
        <ele>1.8</ele>
        <time>2024-07-03T12:28:18Z</time>
      </trkpt>
      <trkpt lat="49.21799" lon="-0.17891">
        <ele>1.4</ele>
        <time>2024-07-03T12:28:19Z</time>
      </trkpt>
      <trkpt lat="49.21791" lon="-0.17889">
        <ele>0.6</ele>
        <time>2024-07-03T12:28:20Z</time>
      </trkpt>
      <trkpt lat="49.21784" lon="-0.17888">
        <ele>0.2</ele>
        <time>2024-07-03T12:28:21Z</time>
      </trkpt>
      <trkpt lat="49.21776" lon="-0.17886">
        <ele>0.2</ele>
        <time>2024-07-03T12:28:22Z</time>
      </trkpt>
      <trkpt lat="49.21768" lon="-0.17885">
        <ele>7.5</ele>
        <time>2024-07-03T12:28:23Z</time>
      </trkpt>
      <trkpt lat="49.2176" lon="-0.17883">
        <ele>-0.4</ele>
        <time>2024-07-03T12:28:24Z</time>
      </trkpt>
      <trkpt lat="49.21752" lon="-0.17883">
        <ele>-0.4</ele>
        <time>2024-07-03T12:28:25Z</time>
      </trkpt>
      <trkpt lat="49.21744" lon="-0.17882">
        <ele>-0.4</ele>
        <time>2024-07-03T12:28:26Z</time>
      </trkpt>
      <trkpt lat="49.21736" lon="-0.17882">
        <ele>-0.2</ele>
        <time>2024-07-03T12:28:27Z</time>
      </trkpt>
      <trkpt lat="49.21728" lon="-0.17881">
        <ele>-0.2</ele>
        <time>2024-07-03T12:28:28Z</time>
      </trkpt>
      <trkpt lat="49.21719" lon="-0.17881">
        <ele>-0.2</ele>
        <time>2024-07-03T12:28:29Z</time>
      </trkpt>
      <trkpt lat="49.21711" lon="-0.17881">
        <ele>-0.4</ele>
        <time>2024-07-03T12:28:30Z</time>
      </trkpt>
      <trkpt lat="49.21703" lon="-0.17882">
        <ele>-0.4</ele>
        <time>2024-07-03T12:28:31Z</time>
      </trkpt>
      <trkpt lat="49.21695" lon="-0.17883">
        <ele>-0.6</ele>
        <time>2024-07-03T12:28:32Z</time>
      </trkpt>
      <trkpt lat="49.21687" lon="-0.17885">
        <ele>-1</ele>
        <time>2024-07-03T12:28:33Z</time>
      </trkpt>
      <trkpt lat="49.21679" lon="-0.17887">
        <ele>-1.6</ele>
        <time>2024-07-03T12:28:34Z</time>
      </trkpt>
      <trkpt lat="49.21672" lon="-0.1789">
        <ele>-1.8</ele>
        <time>2024-07-03T12:28:35Z</time>
      </trkpt>
      <trkpt lat="49.21664" lon="-0.17893">
        <ele>-2</ele>
        <time>2024-07-03T12:28:36Z</time>
      </trkpt>
      <trkpt lat="49.21656" lon="-0.17895">
        <ele>-2</ele>
        <time>2024-07-03T12:28:37Z</time>
      </trkpt>
      <trkpt lat="49.21649" lon="-0.17898">
        <ele>-1.8</ele>
        <time>2024-07-03T12:28:38Z</time>
      </trkpt>
      <trkpt lat="49.21642" lon="-0.179">
        <ele>-1.6</ele>
        <time>2024-07-03T12:28:39Z</time>
      </trkpt>
      <trkpt lat="49.21634" lon="-0.17903">
        <ele>-1.6</ele>
        <time>2024-07-03T12:28:40Z</time>
      </trkpt>
      <trkpt lat="49.21627" lon="-0.17906">
        <ele>-1.6</ele>
        <time>2024-07-03T12:28:41Z</time>
      </trkpt>
      <trkpt lat="49.2162" lon="-0.17909">
        <ele>-1.4</ele>
        <time>2024-07-03T12:28:42Z</time>
      </trkpt>
      <trkpt lat="49.21613" lon="-0.17913">
        <ele>-1.4</ele>
        <time>2024-07-03T12:28:43Z</time>
      </trkpt>
      <trkpt lat="49.21605" lon="-0.17917">
        <ele>-1.6</ele>
        <time>2024-07-03T12:28:44Z</time>
      </trkpt>
      <trkpt lat="49.21598" lon="-0.17921">
        <ele>-1.8</ele>
        <time>2024-07-03T12:28:45Z</time>
      </trkpt>
      <trkpt lat="49.21591" lon="-0.17924">
        <ele>-2</ele>
        <time>2024-07-03T12:28:46Z</time>
      </trkpt>
      <trkpt lat="49.21584" lon="-0.17928">
        <ele>-2</ele>
        <time>2024-07-03T12:28:47Z</time>
      </trkpt>
      <trkpt lat="49.21577" lon="-0.17931">
        <ele>-2</ele>
        <time>2024-07-03T12:28:48Z</time>
      </trkpt>
      <trkpt lat="49.21569" lon="-0.17934">
        <ele>-2.2</ele>
        <time>2024-07-03T12:28:49Z</time>
      </trkpt>
      <trkpt lat="49.21562" lon="-0.17936">
        <ele>-2.2</ele>
        <time>2024-07-03T12:28:50Z</time>
      </trkpt>
      <trkpt lat="49.21554" lon="-0.17938">
        <ele>-2.2</ele>
        <time>2024-07-03T12:28:51Z</time>
      </trkpt>
      <trkpt lat="49.21546" lon="-0.1794">
        <ele>-2.4</ele>
        <time>2024-07-03T12:28:52Z</time>
      </trkpt>
      <trkpt lat="49.21539" lon="-0.17942">
        <ele>-2.6</ele>
        <time>2024-07-03T12:28:53Z</time>
      </trkpt>
      <trkpt lat="49.21531" lon="-0.17944">
        <ele>-2.8</ele>
        <time>2024-07-03T12:28:54Z</time>
      </trkpt>
      <trkpt lat="49.21524" lon="-0.17946">
        <ele>-2.8</ele>
        <time>2024-07-03T12:28:55Z</time>
      </trkpt>
      <trkpt lat="49.21517" lon="-0.17948">
        <ele>-2.8</ele>
        <time>2024-07-03T12:28:56Z</time>
      </trkpt>
      <trkpt lat="49.21509" lon="-0.17949">
        <ele>-2.8</ele>
        <time>2024-07-03T12:28:57Z</time>
      </trkpt>
      <trkpt lat="49.21502" lon="-0.17951">
        <ele>-3</ele>
        <time>2024-07-03T12:28:58Z</time>
      </trkpt>
      <trkpt lat="49.21494" lon="-0.17952">
        <ele>-3</ele>
        <time>2024-07-03T12:28:59Z</time>
      </trkpt>
      <trkpt lat="49.21487" lon="-0.17953">
        <ele>-3</ele>
        <time>2024-07-03T12:29:00Z</time>
      </trkpt>
      <trkpt lat="49.21479" lon="-0.17953">
        <ele>-3</ele>
        <time>2024-07-03T12:29:01Z</time>
      </trkpt>
      <trkpt lat="49.21471" lon="-0.17952">
        <ele>-3</ele>
        <time>2024-07-03T12:29:02Z</time>
      </trkpt>
      <trkpt lat="49.21463" lon="-0.17951">
        <ele>-3</ele>
        <time>2024-07-03T12:29:03Z</time>
      </trkpt>
      <trkpt lat="49.21456" lon="-0.1795">
        <ele>-3.2</ele>
        <time>2024-07-03T12:29:04Z</time>
      </trkpt>
      <trkpt lat="49.21448" lon="-0.17949">
        <ele>-3.4</ele>
        <time>2024-07-03T12:29:05Z</time>
      </trkpt>
      <trkpt lat="49.21441" lon="-0.17948">
        <ele>-3.8</ele>
        <time>2024-07-03T12:29:06Z</time>
      </trkpt>
      <trkpt lat="49.21433" lon="-0.17946">
        <ele>-4.4</ele>
        <time>2024-07-03T12:29:07Z</time>
      </trkpt>
      <trkpt lat="49.21426" lon="-0.17946">
        <ele>-5</ele>
        <time>2024-07-03T12:29:08Z</time>
      </trkpt>
      <trkpt lat="49.21419" lon="-0.17945">
        <ele>-5.2</ele>
        <time>2024-07-03T12:29:09Z</time>
      </trkpt>
      <trkpt lat="49.21412" lon="-0.17945">
        <ele>-5</ele>
        <time>2024-07-03T12:29:10Z</time>
      </trkpt>
      <trkpt lat="49.21404" lon="-0.17944">
        <ele>-4.8</ele>
        <time>2024-07-03T12:29:11Z</time>
      </trkpt>
      <trkpt lat="49.21397" lon="-0.17945">
        <ele>-4.6</ele>
        <time>2024-07-03T12:29:12Z</time>
      </trkpt>
      <trkpt lat="49.2139" lon="-0.17946">
        <ele>-4.2</ele>
        <time>2024-07-03T12:29:13Z</time>
      </trkpt>
      <trkpt lat="49.21383" lon="-0.17948">
        <ele>-4</ele>
        <time>2024-07-03T12:29:14Z</time>
      </trkpt>
      <trkpt lat="49.21376" lon="-0.17951">
        <ele>-3.8</ele>
        <time>2024-07-03T12:29:15Z</time>
      </trkpt>
      <trkpt lat="49.21369" lon="-0.17954">
        <ele>-4</ele>
        <time>2024-07-03T12:29:16Z</time>
      </trkpt>
      <trkpt lat="49.21362" lon="-0.17958">
        <ele>-4.2</ele>
        <time>2024-07-03T12:29:17Z</time>
      </trkpt>
      <trkpt lat="49.21355" lon="-0.17962">
        <ele>-4.2</ele>
        <time>2024-07-03T12:29:18Z</time>
      </trkpt>
      <trkpt lat="49.21348" lon="-0.17965">
        <ele>-4.2</ele>
        <time>2024-07-03T12:29:19Z</time>
      </trkpt>
      <trkpt lat="49.21341" lon="-0.17968">
        <ele>-4</ele>
        <time>2024-07-03T12:29:20Z</time>
      </trkpt>
      <trkpt lat="49.21335" lon="-0.17971">
        <ele>-4</ele>
        <time>2024-07-03T12:29:21Z</time>
      </trkpt>
      <trkpt lat="49.21328" lon="-0.17974">
        <ele>-3.8</ele>
        <time>2024-07-03T12:29:22Z</time>
      </trkpt>
      <trkpt lat="49.21321" lon="-0.17976">
        <ele>-3.6</ele>
        <time>2024-07-03T12:29:23Z</time>
      </trkpt>
      <trkpt lat="49.21314" lon="-0.17977">
        <ele>-3.6</ele>
        <time>2024-07-03T12:29:24Z</time>
      </trkpt>
      <trkpt lat="49.21306" lon="-0.17978">
        <ele>-3.6</ele>
        <time>2024-07-03T12:29:25Z</time>
      </trkpt>
      <trkpt lat="49.21299" lon="-0.17977">
        <ele>-3.8</ele>
        <time>2024-07-03T12:29:26Z</time>
      </trkpt>
      <trkpt lat="49.21292" lon="-0.17974">
        <ele>-3.8</ele>
        <time>2024-07-03T12:29:27Z</time>
      </trkpt>
      <trkpt lat="49.21285" lon="-0.1797">
        <ele>-3.8</ele>
        <time>2024-07-03T12:29:28Z</time>
      </trkpt>
      <trkpt lat="49.21279" lon="-0.17965">
        <ele>-3.8</ele>
        <time>2024-07-03T12:29:29Z</time>
      </trkpt>
      <trkpt lat="49.21273" lon="-0.17958">
        <ele>-3.8</ele>
        <time>2024-07-03T12:29:30Z</time>
      </trkpt>
      <trkpt lat="49.21267" lon="-0.17952">
        <ele>-3.6</ele>
        <time>2024-07-03T12:29:31Z</time>
      </trkpt>
      <trkpt lat="49.21261" lon="-0.17945">
        <ele>-3.2</ele>
        <time>2024-07-03T12:29:32Z</time>
      </trkpt>
      <trkpt lat="49.21255" lon="-0.17938">
        <ele>-2.6</ele>
        <time>2024-07-03T12:29:33Z</time>
      </trkpt>
      <trkpt lat="49.2125" lon="-0.1793">
        <ele>-2.4</ele>
        <time>2024-07-03T12:29:34Z</time>
      </trkpt>
      <trkpt lat="49.21243" lon="-0.17923">
        <ele>-2.2</ele>
        <time>2024-07-03T12:29:35Z</time>
      </trkpt>
      <trkpt lat="49.21237" lon="-0.17917">
        <ele>-2</ele>
        <time>2024-07-03T12:29:36Z</time>
      </trkpt>
      <trkpt lat="49.2123" lon="-0.17912">
        <ele>-2</ele>
        <time>2024-07-03T12:29:37Z</time>
      </trkpt>
      <trkpt lat="49.21223" lon="-0.17906">
        <ele>-2</ele>
        <time>2024-07-03T12:29:38Z</time>
      </trkpt>
      <trkpt lat="49.21217" lon="-0.17902">
        <ele>-2</ele>
        <time>2024-07-03T12:29:39Z</time>
      </trkpt>
      <trkpt lat="49.2121" lon="-0.17897">
        <ele>-2</ele>
        <time>2024-07-03T12:29:40Z</time>
      </trkpt>
      <trkpt lat="49.21204" lon="-0.17894">
        <ele>-2</ele>
        <time>2024-07-03T12:29:41Z</time>
      </trkpt>
      <trkpt lat="49.21196" lon="-0.1789">
        <ele>-1.8</ele>
        <time>2024-07-03T12:29:42Z</time>
      </trkpt>
      <trkpt lat="49.21189" lon="-0.17887">
        <ele>-1.6</ele>
        <time>2024-07-03T12:29:43Z</time>
      </trkpt>
      <trkpt lat="49.21183" lon="-0.17884">
        <ele>-1.4</ele>
        <time>2024-07-03T12:29:44Z</time>
      </trkpt>
      <trkpt lat="49.21177" lon="-0.17882">
        <ele>-1.2</ele>
        <time>2024-07-03T12:29:45Z</time>
      </trkpt>
      <trkpt lat="49.21171" lon="-0.17881">
        <ele>-0.6</ele>
        <time>2024-07-03T12:29:46Z</time>
      </trkpt>
      <trkpt lat="49.21165" lon="-0.17879">
        <ele>-0.2</ele>
        <time>2024-07-03T12:29:47Z</time>
      </trkpt>
      <trkpt lat="49.21159" lon="-0.17878">
        <ele>8.2</ele>
        <time>2024-07-03T12:29:48Z</time>
      </trkpt>
      <trkpt lat="49.21153" lon="-0.17878">
        <ele>0.4</ele>
        <time>2024-07-03T12:29:49Z</time>
      </trkpt>
      <trkpt lat="49.21148" lon="-0.17877">
        <ele>0.6</ele>
        <time>2024-07-03T12:29:50Z</time>
      </trkpt>
      <trkpt lat="49.21143" lon="-0.17877">
        <ele>0.8</ele>
        <time>2024-07-03T12:29:51Z</time>
      </trkpt>
      <trkpt lat="49.21137" lon="-0.17876">
        <ele>1</ele>
        <time>2024-07-03T12:29:52Z</time>
      </trkpt>
      <trkpt lat="49.21131" lon="-0.17875">
        <ele>1.2</ele>
        <time>2024-07-03T12:29:53Z</time>
      </trkpt>
      <trkpt lat="49.21125" lon="-0.17874">
        <ele>1.2</ele>
        <time>2024-07-03T12:29:54Z</time>
      </trkpt>
      <trkpt lat="49.21119" lon="-0.17874">
        <ele>1.4</ele>
        <time>2024-07-03T12:29:55Z</time>
      </trkpt>
      <trkpt lat="49.21114" lon="-0.17873">
        <ele>1.8</ele>
        <time>2024-07-03T12:29:56Z</time>
      </trkpt>
      <trkpt lat="49.21108" lon="-0.17872">
        <ele>2</ele>
        <time>2024-07-03T12:29:57Z</time>
      </trkpt>
      <trkpt lat="49.21103" lon="-0.17872">
        <ele>2.2</ele>
        <time>2024-07-03T12:29:58Z</time>
      </trkpt>
      <trkpt lat="49.21097" lon="-0.17871">
        <ele>2.2</ele>
        <time>2024-07-03T12:29:59Z</time>
      </trkpt>
      <trkpt lat="49.21091" lon="-0.1787">
        <ele>2.4</ele>
        <time>2024-07-03T12:30:00Z</time>
      </trkpt>
      <trkpt lat="49.21084" lon="-0.1787">
        <ele>2.6</ele>
        <time>2024-07-03T12:30:01Z</time>
      </trkpt>
      <trkpt lat="49.21078" lon="-0.17869">
        <ele>2.6</ele>
        <time>2024-07-03T12:30:02Z</time>
      </trkpt>
      <trkpt lat="49.21072" lon="-0.17868">
        <ele>2.8</ele>
        <time>2024-07-03T12:30:03Z</time>
      </trkpt>
      <trkpt lat="49.21066" lon="-0.17866">
        <ele>2.8</ele>
        <time>2024-07-03T12:30:04Z</time>
      </trkpt>
      <trkpt lat="49.2106" lon="-0.17865">
        <ele>2.8</ele>
        <time>2024-07-03T12:30:05Z</time>
      </trkpt>
      <trkpt lat="49.21053" lon="-0.17864">
        <ele>2.8</ele>
        <time>2024-07-03T12:30:06Z</time>
      </trkpt>
      <trkpt lat="49.21047" lon="-0.17862">
        <ele>2.8</ele>
        <time>2024-07-03T12:30:07Z</time>
      </trkpt>
      <trkpt lat="49.21041" lon="-0.17861">
        <ele>2.8</ele>
        <time>2024-07-03T12:30:08Z</time>
      </trkpt>
      <trkpt lat="49.21035" lon="-0.1786">
        <ele>2.8</ele>
        <time>2024-07-03T12:30:09Z</time>
      </trkpt>
      <trkpt lat="49.21029" lon="-0.17859">
        <ele>2.8</ele>
        <time>2024-07-03T12:30:10Z</time>
      </trkpt>
      <trkpt lat="49.21022" lon="-0.17859">
        <ele>2.8</ele>
        <time>2024-07-03T12:30:11Z</time>
      </trkpt>
      <trkpt lat="49.21015" lon="-0.17858">
        <ele>3</ele>
        <time>2024-07-03T12:30:12Z</time>
      </trkpt>
      <trkpt lat="49.21008" lon="-0.17858">
        <ele>3</ele>
        <time>2024-07-03T12:30:13Z</time>
      </trkpt>
      <trkpt lat="49.21001" lon="-0.17858">
        <ele>3</ele>
        <time>2024-07-03T12:30:14Z</time>
      </trkpt>
      <trkpt lat="49.20994" lon="-0.17858">
        <ele>3</ele>
        <time>2024-07-03T12:30:15Z</time>
      </trkpt>
      <trkpt lat="49.20987" lon="-0.17859">
        <ele>3</ele>
        <time>2024-07-03T12:30:16Z</time>
      </trkpt>
      <trkpt lat="49.20981" lon="-0.17859">
        <ele>3</ele>
        <time>2024-07-03T12:30:17Z</time>
      </trkpt>
      <trkpt lat="49.20974" lon="-0.17859">
        <ele>3</ele>
        <time>2024-07-03T12:30:18Z</time>
      </trkpt>
      <trkpt lat="49.20967" lon="-0.17859">
        <ele>3</ele>
        <time>2024-07-03T12:30:19Z</time>
      </trkpt>
      <trkpt lat="49.20961" lon="-0.1786">
        <ele>3</ele>
        <time>2024-07-03T12:30:20Z</time>
      </trkpt>
      <trkpt lat="49.20954" lon="-0.1786">
        <ele>3.2</ele>
        <time>2024-07-03T12:30:21Z</time>
      </trkpt>
      <trkpt lat="49.20948" lon="-0.17861">
        <ele>3.2</ele>
        <time>2024-07-03T12:30:22Z</time>
      </trkpt>
      <trkpt lat="49.20941" lon="-0.17862">
        <ele>3.2</ele>
        <time>2024-07-03T12:30:23Z</time>
      </trkpt>
      <trkpt lat="49.20935" lon="-0.17862">
        <ele>3.4</ele>
        <time>2024-07-03T12:30:24Z</time>
      </trkpt>
      <trkpt lat="49.20928" lon="-0.17863">
        <ele>3.4</ele>
        <time>2024-07-03T12:30:25Z</time>
      </trkpt>
      <trkpt lat="49.20922" lon="-0.17863">
        <ele>3.4</ele>
        <time>2024-07-03T12:30:26Z</time>
      </trkpt>
      <trkpt lat="49.20914" lon="-0.17863">
        <ele>3.4</ele>
        <time>2024-07-03T12:30:27Z</time>
      </trkpt>
      <trkpt lat="49.20906" lon="-0.17865">
        <ele>3.2</ele>
        <time>2024-07-03T12:30:28Z</time>
      </trkpt>
      <trkpt lat="49.20899" lon="-0.17865">
        <ele>3.2</ele>
        <time>2024-07-03T12:30:29Z</time>
      </trkpt>
      <trkpt lat="49.2089" lon="-0.17867">
        <ele>3</ele>
        <time>2024-07-03T12:30:30Z</time>
      </trkpt>
      <trkpt lat="49.20883" lon="-0.17867">
        <ele>3</ele>
        <time>2024-07-03T12:30:31Z</time>
      </trkpt>
      <trkpt lat="49.20876" lon="-0.17865">
        <ele>2.8</ele>
        <time>2024-07-03T12:30:32Z</time>
      </trkpt>
      <trkpt lat="49.20868" lon="-0.17864">
        <ele>2.8</ele>
        <time>2024-07-03T12:30:33Z</time>
      </trkpt>
      <trkpt lat="49.20861" lon="-0.17862">
        <ele>2.4</ele>
        <time>2024-07-03T12:30:34Z</time>
      </trkpt>
      <trkpt lat="49.20853" lon="-0.1786">
        <ele>2.2</ele>
        <time>2024-07-03T12:30:35Z</time>
      </trkpt>
      <trkpt lat="49.20846" lon="-0.17858">
        <ele>2</ele>
        <time>2024-07-03T12:30:36Z</time>
      </trkpt>
      <trkpt lat="49.20838" lon="-0.17856">
        <ele>1.8</ele>
        <time>2024-07-03T12:30:37Z</time>
      </trkpt>
      <trkpt lat="49.20831" lon="-0.17854">
        <ele>1.6</ele>
        <time>2024-07-03T12:30:38Z</time>
      </trkpt>
      <trkpt lat="49.20823" lon="-0.17851">
        <ele>1.4</ele>
        <time>2024-07-03T12:30:39Z</time>
      </trkpt>
      <trkpt lat="49.20817" lon="-0.17849">
        <ele>0.8</ele>
        <time>2024-07-03T12:30:40Z</time>
      </trkpt>
      <trkpt lat="49.20809" lon="-0.17848">
        <ele>0.4</ele>
        <time>2024-07-03T12:30:41Z</time>
      </trkpt>
      <trkpt lat="49.20802" lon="-0.17846">
        <ele>9.4</ele>
        <time>2024-07-03T12:30:42Z</time>
      </trkpt>
      <trkpt lat="49.20795" lon="-0.17843">
        <ele>-0.2</ele>
        <time>2024-07-03T12:30:43Z</time>
      </trkpt>
      <trkpt lat="49.20786" lon="-0.17843">
        <ele>-0.2</ele>
        <time>2024-07-03T12:30:44Z</time>
      </trkpt>
      <trkpt lat="49.20778" lon="-0.17841">
        <ele>-0.2</ele>
        <time>2024-07-03T12:30:45Z</time>
      </trkpt>
      <trkpt lat="49.2077" lon="-0.17839">
        <ele>8.4</ele>
        <time>2024-07-03T12:30:46Z</time>
      </trkpt>
      <trkpt lat="49.20762" lon="-0.17837">
        <ele>0.2</ele>
        <time>2024-07-03T12:30:47Z</time>
      </trkpt>
      <trkpt lat="49.20754" lon="-0.17835">
        <ele>0.2</ele>
        <time>2024-07-03T12:30:48Z</time>
      </trkpt>
      <trkpt lat="49.20746" lon="-0.17832">
        <ele>0.4</ele>
        <time>2024-07-03T12:30:49Z</time>
      </trkpt>
      <trkpt lat="49.20738" lon="-0.1783">
        <ele>0.2</ele>
        <time>2024-07-03T12:30:50Z</time>
      </trkpt>
      <trkpt lat="49.2073" lon="-0.17827">
        <ele>0.2</ele>
        <time>2024-07-03T12:30:51Z</time>
      </trkpt>
      <trkpt lat="49.20721" lon="-0.17824">
        <ele>7</ele>
        <time>2024-07-03T12:30:52Z</time>
      </trkpt>
      <trkpt lat="49.20713" lon="-0.17821">
        <ele>-0.2</ele>
        <time>2024-07-03T12:30:53Z</time>
      </trkpt>
      <trkpt lat="49.20705" lon="-0.17818">
        <ele>-0.6</ele>
        <time>2024-07-03T12:30:54Z</time>
      </trkpt>
      <trkpt lat="49.20697" lon="-0.17815">
        <ele>-0.6</ele>
        <time>2024-07-03T12:30:55Z</time>
      </trkpt>
      <trkpt lat="49.20688" lon="-0.17811">
        <ele>-0.8</ele>
        <time>2024-07-03T12:30:56Z</time>
      </trkpt>
      <trkpt lat="49.2068" lon="-0.17806">
        <ele>-1</ele>
        <time>2024-07-03T12:30:57Z</time>
      </trkpt>
      <trkpt lat="49.20672" lon="-0.17801">
        <ele>-1.2</ele>
        <time>2024-07-03T12:30:58Z</time>
      </trkpt>
      <trkpt lat="49.20664" lon="-0.17796">
        <ele>-1.4</ele>
        <time>2024-07-03T12:30:59Z</time>
      </trkpt>
      <trkpt lat="49.20656" lon="-0.17791">
        <ele>-1.8</ele>
        <time>2024-07-03T12:31:00Z</time>
      </trkpt>
      <trkpt lat="49.20649" lon="-0.17785">
        <ele>-2.2</ele>
        <time>2024-07-03T12:31:01Z</time>
      </trkpt>
      <trkpt lat="49.20641" lon="-0.1778">
        <ele>-2.4</ele>
        <time>2024-07-03T12:31:02Z</time>
      </trkpt>
      <trkpt lat="49.20635" lon="-0.17774">
        <ele>-2.6</ele>
        <time>2024-07-03T12:31:03Z</time>
      </trkpt>
      <trkpt lat="49.20628" lon="-0.17768">
        <ele>-2.8</ele>
        <time>2024-07-03T12:31:04Z</time>
      </trkpt>
      <trkpt lat="49.20622" lon="-0.17762">
        <ele>-2.8</ele>
        <time>2024-07-03T12:31:05Z</time>
      </trkpt>
      <trkpt lat="49.20614" lon="-0.17756">
        <ele>-2.6</ele>
        <time>2024-07-03T12:31:06Z</time>
      </trkpt>
      <trkpt lat="49.20606" lon="-0.17751">
        <ele>-2.6</ele>
        <time>2024-07-03T12:31:07Z</time>
      </trkpt>
      <trkpt lat="49.20599" lon="-0.17748">
        <ele>-2.6</ele>
        <time>2024-07-03T12:31:08Z</time>
      </trkpt>
      <trkpt lat="49.20592" lon="-0.17746">
        <ele>-2.6</ele>
        <time>2024-07-03T12:31:09Z</time>
      </trkpt>
      <trkpt lat="49.20584" lon="-0.17745">
        <ele>-2.6</ele>
        <time>2024-07-03T12:31:10Z</time>
      </trkpt>
      <trkpt lat="49.20577" lon="-0.17744">
        <ele>-2.6</ele>
        <time>2024-07-03T12:31:11Z</time>
      </trkpt>
      <trkpt lat="49.2057" lon="-0.17745">
        <ele>-2.6</ele>
        <time>2024-07-03T12:31:12Z</time>
      </trkpt>
      <trkpt lat="49.20562" lon="-0.17747">
        <ele>-2.6</ele>
        <time>2024-07-03T12:31:13Z</time>
      </trkpt>
      <trkpt lat="49.20555" lon="-0.17748">
        <ele>-2.6</ele>
        <time>2024-07-03T12:31:14Z</time>
      </trkpt>
      <trkpt lat="49.20548" lon="-0.17749">
        <ele>-2.6</ele>
        <time>2024-07-03T12:31:15Z</time>
      </trkpt>
      <trkpt lat="49.2054" lon="-0.1775">
        <ele>-2.6</ele>
        <time>2024-07-03T12:31:16Z</time>
      </trkpt>
      <trkpt lat="49.20533" lon="-0.1775">
        <ele>-2.6</ele>
        <time>2024-07-03T12:31:17Z</time>
      </trkpt>
      <trkpt lat="49.20526" lon="-0.17751">
        <ele>-2.6</ele>
        <time>2024-07-03T12:31:18Z</time>
      </trkpt>
      <trkpt lat="49.20518" lon="-0.17752">
        <ele>-2.6</ele>
        <time>2024-07-03T12:31:19Z</time>
      </trkpt>
      <trkpt lat="49.20511" lon="-0.17752">
        <ele>-2.6</ele>
        <time>2024-07-03T12:31:20Z</time>
      </trkpt>
      <trkpt lat="49.20505" lon="-0.17752">
        <ele>-2.6</ele>
        <time>2024-07-03T12:31:21Z</time>
      </trkpt>
      <trkpt lat="49.20497" lon="-0.17752">
        <ele>-2.6</ele>
        <time>2024-07-03T12:31:22Z</time>
      </trkpt>
      <trkpt lat="49.2049" lon="-0.17752">
        <ele>-2.4</ele>
        <time>2024-07-03T12:31:23Z</time>
      </trkpt>
      <trkpt lat="49.20483" lon="-0.17751">
        <ele>-2.4</ele>
        <time>2024-07-03T12:31:24Z</time>
      </trkpt>
      <trkpt lat="49.20475" lon="-0.1775">
        <ele>-2.4</ele>
        <time>2024-07-03T12:31:25Z</time>
      </trkpt>
      <trkpt lat="49.20467" lon="-0.17748">
        <ele>-2.6</ele>
        <time>2024-07-03T12:31:26Z</time>
      </trkpt>
      <trkpt lat="49.2046" lon="-0.17747">
        <ele>-2.6</ele>
        <time>2024-07-03T12:31:27Z</time>
      </trkpt>
      <trkpt lat="49.20453" lon="-0.17745">
        <ele>-2.8</ele>
        <time>2024-07-03T12:31:28Z</time>
      </trkpt>
      <trkpt lat="49.20446" lon="-0.17742">
        <ele>-2.8</ele>
        <time>2024-07-03T12:31:29Z</time>
      </trkpt>
      <trkpt lat="49.20438" lon="-0.1774">
        <ele>-3</ele>
        <time>2024-07-03T12:31:30Z</time>
      </trkpt>
      <trkpt lat="49.20431" lon="-0.17737">
        <ele>-2.8</ele>
        <time>2024-07-03T12:31:31Z</time>
      </trkpt>
      <trkpt lat="49.20424" lon="-0.17734">
        <ele>-2.8</ele>
        <time>2024-07-03T12:31:32Z</time>
      </trkpt>
      <trkpt lat="49.20417" lon="-0.17731">
        <ele>-2.8</ele>
        <time>2024-07-03T12:31:33Z</time>
      </trkpt>
      <trkpt lat="49.2041" lon="-0.17728">
        <ele>-2.4</ele>
        <time>2024-07-03T12:31:34Z</time>
      </trkpt>
      <trkpt lat="49.20402" lon="-0.17726">
        <ele>-2.4</ele>
        <time>2024-07-03T12:31:35Z</time>
      </trkpt>
      <trkpt lat="49.20395" lon="-0.17723">
        <ele>-2.4</ele>
        <time>2024-07-03T12:31:36Z</time>
      </trkpt>
      <trkpt lat="49.20388" lon="-0.1772">
        <ele>-2.2</ele>
        <time>2024-07-03T12:31:37Z</time>
      </trkpt>
      <trkpt lat="49.20381" lon="-0.17717">
        <ele>-2.2</ele>
        <time>2024-07-03T12:31:38Z</time>
      </trkpt>
      <trkpt lat="49.20374" lon="-0.17714">
        <ele>-2.4</ele>
        <time>2024-07-03T12:31:39Z</time>
      </trkpt>
      <trkpt lat="49.20366" lon="-0.17712">
        <ele>-2.8</ele>
        <time>2024-07-03T12:31:40Z</time>
      </trkpt>
      <trkpt lat="49.20359" lon="-0.17709">
        <ele>-3</ele>
        <time>2024-07-03T12:31:41Z</time>
      </trkpt>
      <trkpt lat="49.20351" lon="-0.17707">
        <ele>-3</ele>
        <time>2024-07-03T12:31:42Z</time>
      </trkpt>
      <trkpt lat="49.20344" lon="-0.17705">
        <ele>-3</ele>
        <time>2024-07-03T12:31:43Z</time>
      </trkpt>
      <trkpt lat="49.20337" lon="-0.17703">
        <ele>-3.2</ele>
        <time>2024-07-03T12:31:44Z</time>
      </trkpt>
      <trkpt lat="49.20329" lon="-0.177">
        <ele>-3.6</ele>
        <time>2024-07-03T12:31:45Z</time>
      </trkpt>
      <trkpt lat="49.20322" lon="-0.17698">
        <ele>-4</ele>
        <time>2024-07-03T12:31:46Z</time>
      </trkpt>
      <trkpt lat="49.20314" lon="-0.17697">
        <ele>-4</ele>
        <time>2024-07-03T12:31:47Z</time>
      </trkpt>
      <trkpt lat="49.20306" lon="-0.17695">
        <ele>-4</ele>
        <time>2024-07-03T12:31:48Z</time>
      </trkpt>
      <trkpt lat="49.20299" lon="-0.17694">
        <ele>-4</ele>
        <time>2024-07-03T12:31:49Z</time>
      </trkpt>
      <trkpt lat="49.20291" lon="-0.17692">
        <ele>-3.8</ele>
        <time>2024-07-03T12:31:50Z</time>
      </trkpt>
      <trkpt lat="49.20283" lon="-0.17691">
        <ele>-3.6</ele>
        <time>2024-07-03T12:31:51Z</time>
      </trkpt>
      <trkpt lat="49.20275" lon="-0.1769">
        <ele>-3.2</ele>
        <time>2024-07-03T12:31:52Z</time>
      </trkpt>
      <trkpt lat="49.20267" lon="-0.17689">
        <ele>-3</ele>
        <time>2024-07-03T12:31:53Z</time>
      </trkpt>
      <trkpt lat="49.2026" lon="-0.17688">
        <ele>-3</ele>
        <time>2024-07-03T12:31:54Z</time>
      </trkpt>
      <trkpt lat="49.20252" lon="-0.17687">
        <ele>-2.8</ele>
        <time>2024-07-03T12:31:55Z</time>
      </trkpt>
      <trkpt lat="49.20244" lon="-0.17686">
        <ele>-2.8</ele>
        <time>2024-07-03T12:31:56Z</time>
      </trkpt>
      <trkpt lat="49.20237" lon="-0.17685">
        <ele>-2.6</ele>
        <time>2024-07-03T12:31:57Z</time>
      </trkpt>
      <trkpt lat="49.20229" lon="-0.17684">
        <ele>-2.6</ele>
        <time>2024-07-03T12:31:58Z</time>
      </trkpt>
      <trkpt lat="49.20222" lon="-0.17683">
        <ele>-2.6</ele>
        <time>2024-07-03T12:31:59Z</time>
      </trkpt>
      <trkpt lat="49.20214" lon="-0.17682">
        <ele>-2.6</ele>
        <time>2024-07-03T12:32:00Z</time>
      </trkpt>
      <trkpt lat="49.20207" lon="-0.17681">
        <ele>-2.4</ele>
        <time>2024-07-03T12:32:01Z</time>
      </trkpt>
      <trkpt lat="49.20199" lon="-0.1768">
        <ele>-2.4</ele>
        <time>2024-07-03T12:32:02Z</time>
      </trkpt>
      <trkpt lat="49.20192" lon="-0.17679">
        <ele>-2.2</ele>
        <time>2024-07-03T12:32:03Z</time>
      </trkpt>
      <trkpt lat="49.20184" lon="-0.17678">
        <ele>-2</ele>
        <time>2024-07-03T12:32:04Z</time>
      </trkpt>
      <trkpt lat="49.20177" lon="-0.17677">
        <ele>-2</ele>
        <time>2024-07-03T12:32:05Z</time>
      </trkpt>
      <trkpt lat="49.20169" lon="-0.17676">
        <ele>-1.8</ele>
        <time>2024-07-03T12:32:06Z</time>
      </trkpt>
      <trkpt lat="49.20162" lon="-0.17675">
        <ele>-1.8</ele>
        <time>2024-07-03T12:32:07Z</time>
      </trkpt>
      <trkpt lat="49.20155" lon="-0.17674">
        <ele>-1.8</ele>
        <time>2024-07-03T12:32:08Z</time>
      </trkpt>
      <trkpt lat="49.20148" lon="-0.17673">
        <ele>-1.8</ele>
        <time>2024-07-03T12:32:09Z</time>
      </trkpt>
      <trkpt lat="49.20141" lon="-0.17672">
        <ele>-2</ele>
        <time>2024-07-03T12:32:10Z</time>
      </trkpt>
      <trkpt lat="49.20134" lon="-0.17671">
        <ele>-2</ele>
        <time>2024-07-03T12:32:11Z</time>
      </trkpt>
      <trkpt lat="49.20127" lon="-0.1767">
        <ele>-1.8</ele>
        <time>2024-07-03T12:32:12Z</time>
      </trkpt>
      <trkpt lat="49.2012" lon="-0.17669">
        <ele>-2</ele>
        <time>2024-07-03T12:32:13Z</time>
      </trkpt>
      <trkpt lat="49.20113" lon="-0.17668">
        <ele>-2</ele>
        <time>2024-07-03T12:32:14Z</time>
      </trkpt>
      <trkpt lat="49.20106" lon="-0.17667">
        <ele>-1.8</ele>
        <time>2024-07-03T12:32:15Z</time>
      </trkpt>
      <trkpt lat="49.20099" lon="-0.17666">
        <ele>-1.8</ele>
        <time>2024-07-03T12:32:16Z</time>
      </trkpt>
      <trkpt lat="49.20092" lon="-0.17665">
        <ele>-1.6</ele>
        <time>2024-07-03T12:32:17Z</time>
      </trkpt>
      <trkpt lat="49.20085" lon="-0.17663">
        <ele>-1.4</ele>
        <time>2024-07-03T12:32:18Z</time>
      </trkpt>
      <trkpt lat="49.20078" lon="-0.17662">
        <ele>-1.4</ele>
        <time>2024-07-03T12:32:19Z</time>
      </trkpt>
      <trkpt lat="49.20072" lon="-0.1766">
        <ele>-1.4</ele>
        <time>2024-07-03T12:32:20Z</time>
      </trkpt>
      <trkpt lat="49.20066" lon="-0.17659">
        <ele>-1.4</ele>
        <time>2024-07-03T12:32:21Z</time>
      </trkpt>
      <trkpt lat="49.2006" lon="-0.17657">
        <ele>-1.6</ele>
        <time>2024-07-03T12:32:22Z</time>
      </trkpt>
      <trkpt lat="49.20053" lon="-0.17657">
        <ele>-1.6</ele>
        <time>2024-07-03T12:32:23Z</time>
      </trkpt>
      <trkpt lat="49.20047" lon="-0.17659">
        <ele>-1.6</ele>
        <time>2024-07-03T12:32:24Z</time>
      </trkpt>
      <trkpt lat="49.20041" lon="-0.17657">
        <ele>-1.6</ele>
        <time>2024-07-03T12:32:25Z</time>
      </trkpt>
      <trkpt lat="49.20034" lon="-0.17656">
        <ele>-1.4</ele>
        <time>2024-07-03T12:32:26Z</time>
      </trkpt>
      <trkpt lat="49.20028" lon="-0.17656">
        <ele>-1.4</ele>
        <time>2024-07-03T12:32:27Z</time>
      </trkpt>
      <trkpt lat="49.20021" lon="-0.17654">
        <ele>-1.2</ele>
        <time>2024-07-03T12:32:28Z</time>
      </trkpt>
      <trkpt lat="49.20015" lon="-0.17653">
        <ele>-0.8</ele>
        <time>2024-07-03T12:32:29Z</time>
      </trkpt>
      <trkpt lat="49.20008" lon="-0.17652">
        <ele>-0.6</ele>
        <time>2024-07-03T12:32:30Z</time>
      </trkpt>
      <trkpt lat="49.20002" lon="-0.17651">
        <ele>-0.4</ele>
        <time>2024-07-03T12:32:31Z</time>
      </trkpt>
      <trkpt lat="49.19995" lon="-0.1765">
        <ele>-0.2</ele>
        <time>2024-07-03T12:32:32Z</time>
      </trkpt>
      <trkpt lat="49.19988" lon="-0.1765">
        <ele>9.4</ele>
        <time>2024-07-03T12:32:33Z</time>
      </trkpt>
      <trkpt lat="49.19982" lon="-0.17648">
        <ele>0.4</ele>
        <time>2024-07-03T12:32:34Z</time>
      </trkpt>
      <trkpt lat="49.19975" lon="-0.17647">
        <ele>1</ele>
        <time>2024-07-03T12:32:35Z</time>
      </trkpt>
      <trkpt lat="49.19969" lon="-0.17646">
        <ele>1.4</ele>
        <time>2024-07-03T12:32:36Z</time>
      </trkpt>
      <trkpt lat="49.19962" lon="-0.17645">
        <ele>1.8</ele>
        <time>2024-07-03T12:32:37Z</time>
      </trkpt>
      <trkpt lat="49.19955" lon="-0.17643">
        <ele>2</ele>
        <time>2024-07-03T12:32:38Z</time>
      </trkpt>
      <trkpt lat="49.19949" lon="-0.17642">
        <ele>2.4</ele>
        <time>2024-07-03T12:32:39Z</time>
      </trkpt>
      <trkpt lat="49.19942" lon="-0.1764">
        <ele>2.4</ele>
        <time>2024-07-03T12:32:40Z</time>
      </trkpt>
      <trkpt lat="49.19935" lon="-0.17639">
        <ele>2.6</ele>
        <time>2024-07-03T12:32:41Z</time>
      </trkpt>
      <trkpt lat="49.19929" lon="-0.17637">
        <ele>2.8</ele>
        <time>2024-07-03T12:32:42Z</time>
      </trkpt>
      <trkpt lat="49.19922" lon="-0.17636">
        <ele>2.8</ele>
        <time>2024-07-03T12:32:43Z</time>
      </trkpt>
      <trkpt lat="49.19915" lon="-0.17634">
        <ele>2.6</ele>
        <time>2024-07-03T12:32:44Z</time>
      </trkpt>
      <trkpt lat="49.19909" lon="-0.17633">
        <ele>2.6</ele>
        <time>2024-07-03T12:32:45Z</time>
      </trkpt>
      <trkpt lat="49.19902" lon="-0.17631">
        <ele>2.4</ele>
        <time>2024-07-03T12:32:46Z</time>
      </trkpt>
      <trkpt lat="49.19896" lon="-0.17629">
        <ele>2.4</ele>
        <time>2024-07-03T12:32:47Z</time>
      </trkpt>
      <trkpt lat="49.1989" lon="-0.17628">
        <ele>2.4</ele>
        <time>2024-07-03T12:32:48Z</time>
      </trkpt>
      <trkpt lat="49.19883" lon="-0.17626">
        <ele>2.4</ele>
        <time>2024-07-03T12:32:49Z</time>
      </trkpt>
      <trkpt lat="49.19877" lon="-0.17624">
        <ele>2.4</ele>
        <time>2024-07-03T12:32:50Z</time>
      </trkpt>
      <trkpt lat="49.19871" lon="-0.17623">
        <ele>2.4</ele>
        <time>2024-07-03T12:32:51Z</time>
      </trkpt>
      <trkpt lat="49.19864" lon="-0.17621">
        <ele>2.4</ele>
        <time>2024-07-03T12:32:52Z</time>
      </trkpt>
      <trkpt lat="49.19858" lon="-0.17619">
        <ele>2.2</ele>
        <time>2024-07-03T12:32:53Z</time>
      </trkpt>
      <trkpt lat="49.19852" lon="-0.17617">
        <ele>2</ele>
        <time>2024-07-03T12:32:54Z</time>
      </trkpt>
      <trkpt lat="49.19846" lon="-0.17615">
        <ele>1.8</ele>
        <time>2024-07-03T12:32:55Z</time>
      </trkpt>
      <trkpt lat="49.1984" lon="-0.17613">
        <ele>1.6</ele>
        <time>2024-07-03T12:32:56Z</time>
      </trkpt>
      <trkpt lat="49.19833" lon="-0.17612">
        <ele>1.6</ele>
        <time>2024-07-03T12:32:57Z</time>
      </trkpt>
      <trkpt lat="49.19827" lon="-0.1761">
        <ele>1.8</ele>
        <time>2024-07-03T12:32:58Z</time>
      </trkpt>
      <trkpt lat="49.19821" lon="-0.17609">
        <ele>2.2</ele>
        <time>2024-07-03T12:32:59Z</time>
      </trkpt>
      <trkpt lat="49.19815" lon="-0.17608">
        <ele>2.8</ele>
        <time>2024-07-03T12:33:00Z</time>
      </trkpt>
      <trkpt lat="49.19808" lon="-0.17607">
        <ele>3.4</ele>
        <time>2024-07-03T12:33:01Z</time>
      </trkpt>
      <trkpt lat="49.19802" lon="-0.17607">
        <ele>4</ele>
        <time>2024-07-03T12:33:02Z</time>
      </trkpt>
      <trkpt lat="49.19796" lon="-0.17607">
        <ele>4.4</ele>
        <time>2024-07-03T12:33:03Z</time>
      </trkpt>
      <trkpt lat="49.1979" lon="-0.17607">
        <ele>4.6</ele>
        <time>2024-07-03T12:33:04Z</time>
      </trkpt>
      <trkpt lat="49.19784" lon="-0.17607">
        <ele>4.8</ele>
        <time>2024-07-03T12:33:05Z</time>
      </trkpt>
      <trkpt lat="49.19779" lon="-0.17608">
        <ele>5.2</ele>
        <time>2024-07-03T12:33:06Z</time>
      </trkpt>
      <trkpt lat="49.19773" lon="-0.17609">
        <ele>5.6</ele>
        <time>2024-07-03T12:33:07Z</time>
      </trkpt>
      <trkpt lat="49.19768" lon="-0.17611">
        <ele>5.8</ele>
        <time>2024-07-03T12:33:08Z</time>
      </trkpt>
      <trkpt lat="49.19762" lon="-0.17613">
        <ele>6.2</ele>
        <time>2024-07-03T12:33:09Z</time>
      </trkpt>
      <trkpt lat="49.19757" lon="-0.17614">
        <ele>6.4</ele>
        <time>2024-07-03T12:33:10Z</time>
      </trkpt>
      <trkpt lat="49.19752" lon="-0.17616">
        <ele>6.6</ele>
        <time>2024-07-03T12:33:11Z</time>
      </trkpt>
      <trkpt lat="49.19747" lon="-0.17618">
        <ele>6.8</ele>
        <time>2024-07-03T12:33:12Z</time>
      </trkpt>
      <trkpt lat="49.19743" lon="-0.1762">
        <ele>7</ele>
        <time>2024-07-03T12:33:13Z</time>
      </trkpt>
      <trkpt lat="49.19738" lon="-0.17622">
        <ele>7.2</ele>
        <time>2024-07-03T12:33:14Z</time>
      </trkpt>
      <trkpt lat="49.19733" lon="-0.17625">
        <ele>7.6</ele>
        <time>2024-07-03T12:33:15Z</time>
      </trkpt>
      <trkpt lat="49.19727" lon="-0.17628">
        <ele>7.8</ele>
        <time>2024-07-03T12:33:16Z</time>
      </trkpt>
      <trkpt lat="49.19722" lon="-0.17631">
        <ele>8</ele>
        <time>2024-07-03T12:33:17Z</time>
      </trkpt>
      <trkpt lat="49.19716" lon="-0.17633">
        <ele>8.2</ele>
        <time>2024-07-03T12:33:18Z</time>
      </trkpt>
      <trkpt lat="49.19711" lon="-0.17635">
        <ele>8.8</ele>
        <time>2024-07-03T12:33:19Z</time>
      </trkpt>
      <trkpt lat="49.19706" lon="-0.17637">
        <ele>9</ele>
        <time>2024-07-03T12:33:20Z</time>
      </trkpt>
      <trkpt lat="49.197" lon="-0.17639">
        <ele>9.2</ele>
        <time>2024-07-03T12:33:21Z</time>
      </trkpt>
      <trkpt lat="49.19695" lon="-0.17641">
        <ele>9.4</ele>
        <time>2024-07-03T12:33:22Z</time>
      </trkpt>
      <trkpt lat="49.19691" lon="-0.17643">
        <ele>9.4</ele>
        <time>2024-07-03T12:33:23Z</time>
      </trkpt>
      <trkpt lat="49.19686" lon="-0.17644">
        <ele>9.6</ele>
        <time>2024-07-03T12:33:24Z</time>
      </trkpt>
      <trkpt lat="49.19682" lon="-0.17647">
        <ele>9.8</ele>
        <time>2024-07-03T12:33:25Z</time>
      </trkpt>
      <trkpt lat="49.19677" lon="-0.17649">
        <ele>10.2</ele>
        <time>2024-07-03T12:33:26Z</time>
      </trkpt>
      <trkpt lat="49.19674" lon="-0.17653">
        <ele>10.4</ele>
        <time>2024-07-03T12:33:27Z</time>
      </trkpt>
      <trkpt lat="49.19671" lon="-0.17658">
        <ele>10.4</ele>
        <time>2024-07-03T12:33:28Z</time>
      </trkpt>
      <trkpt lat="49.19669" lon="-0.17664">
        <ele>10.4</ele>
        <time>2024-07-03T12:33:29Z</time>
      </trkpt>
      <trkpt lat="49.19668" lon="-0.17671">
        <ele>10.4</ele>
        <time>2024-07-03T12:33:30Z</time>
      </trkpt>
      <trkpt lat="49.19668" lon="-0.17679">
        <ele>10.2</ele>
        <time>2024-07-03T12:33:31Z</time>
      </trkpt>
      <trkpt lat="49.19667" lon="-0.17687">
        <ele>10.2</ele>
        <time>2024-07-03T12:33:32Z</time>
      </trkpt>
      <trkpt lat="49.19667" lon="-0.17695">
        <ele>10</ele>
        <time>2024-07-03T12:33:33Z</time>
      </trkpt>
      <trkpt lat="49.19667" lon="-0.17703">
        <ele>10</ele>
        <time>2024-07-03T12:33:34Z</time>
      </trkpt>
      <trkpt lat="49.19665" lon="-0.17712">
        <ele>10</ele>
        <time>2024-07-03T12:33:35Z</time>
      </trkpt>
      <trkpt lat="49.19663" lon="-0.1772">
        <ele>9.8</ele>
        <time>2024-07-03T12:33:36Z</time>
      </trkpt>
      <trkpt lat="49.1966" lon="-0.17728">
        <ele>9.8</ele>
        <time>2024-07-03T12:33:37Z</time>
      </trkpt>
      <trkpt lat="49.19657" lon="-0.17736">
        <ele>9.8</ele>
        <time>2024-07-03T12:33:38Z</time>
      </trkpt>
      <trkpt lat="49.19654" lon="-0.17743">
        <ele>9.8</ele>
        <time>2024-07-03T12:33:39Z</time>
      </trkpt>
      <trkpt lat="49.19651" lon="-0.17751">
        <ele>9.8</ele>
        <time>2024-07-03T12:33:40Z</time>
      </trkpt>
      <trkpt lat="49.19648" lon="-0.17758">
        <ele>10</ele>
        <time>2024-07-03T12:33:41Z</time>
      </trkpt>
      <trkpt lat="49.19644" lon="-0.17765">
        <ele>10.2</ele>
        <time>2024-07-03T12:33:42Z</time>
      </trkpt>
      <trkpt lat="49.19641" lon="-0.17772">
        <ele>10.4</ele>
        <time>2024-07-03T12:33:43Z</time>
      </trkpt>
      <trkpt lat="49.19638" lon="-0.17779">
        <ele>10.8</ele>
        <time>2024-07-03T12:33:44Z</time>
      </trkpt>
      <trkpt lat="49.19634" lon="-0.17785">
        <ele>11.2</ele>
        <time>2024-07-03T12:33:45Z</time>
      </trkpt>
      <trkpt lat="49.19631" lon="-0.17791">
        <ele>11.2</ele>
        <time>2024-07-03T12:33:46Z</time>
      </trkpt>
      <trkpt lat="49.19628" lon="-0.17798">
        <ele>11.2</ele>
        <time>2024-07-03T12:33:47Z</time>
      </trkpt>
      <trkpt lat="49.19624" lon="-0.17804">
        <ele>11.2</ele>
        <time>2024-07-03T12:33:48Z</time>
      </trkpt>
      <trkpt lat="49.19621" lon="-0.17809">
        <ele>11.4</ele>
        <time>2024-07-03T12:33:49Z</time>
      </trkpt>
      <trkpt lat="49.19618" lon="-0.17815">
        <ele>11.6</ele>
        <time>2024-07-03T12:33:50Z</time>
      </trkpt>
      <trkpt lat="49.19614" lon="-0.1782">
        <ele>11.8</ele>
        <time>2024-07-03T12:33:51Z</time>
      </trkpt>
      <trkpt lat="49.19611" lon="-0.17825">
        <ele>12.2</ele>
        <time>2024-07-03T12:33:52Z</time>
      </trkpt>
      <trkpt lat="49.19609" lon="-0.1783">
        <ele>12.6</ele>
        <time>2024-07-03T12:33:53Z</time>
      </trkpt>
      <trkpt lat="49.19606" lon="-0.17834">
        <ele>13.2</ele>
        <time>2024-07-03T12:33:54Z</time>
      </trkpt>
      <trkpt lat="49.19603" lon="-0.17838">
        <ele>13.8</ele>
        <time>2024-07-03T12:33:55Z</time>
      </trkpt>
      <trkpt lat="49.19599" lon="-0.17843">
        <ele>14.4</ele>
        <time>2024-07-03T12:33:56Z</time>
      </trkpt>
      <trkpt lat="49.19596" lon="-0.17847">
        <ele>14.8</ele>
        <time>2024-07-03T12:33:57Z</time>
      </trkpt>
      <trkpt lat="49.19592" lon="-0.17852">
        <ele>15.4</ele>
        <time>2024-07-03T12:33:58Z</time>
      </trkpt>
      <trkpt lat="49.19589" lon="-0.17856">
        <ele>15.8</ele>
        <time>2024-07-03T12:33:59Z</time>
      </trkpt>
      <trkpt lat="49.19586" lon="-0.1786">
        <ele>16</ele>
        <time>2024-07-03T12:34:00Z</time>
      </trkpt>
      <trkpt lat="49.19582" lon="-0.17865">
        <ele>16.2</ele>
        <time>2024-07-03T12:34:01Z</time>
      </trkpt>
      <trkpt lat="49.19579" lon="-0.1787">
        <ele>16.4</ele>
        <time>2024-07-03T12:34:02Z</time>
      </trkpt>
      <trkpt lat="49.19575" lon="-0.17875">
        <ele>16.6</ele>
        <time>2024-07-03T12:34:03Z</time>
      </trkpt>
      <trkpt lat="49.19571" lon="-0.1788">
        <ele>16.6</ele>
        <time>2024-07-03T12:34:04Z</time>
      </trkpt>
      <trkpt lat="49.19567" lon="-0.17885">
        <ele>16.8</ele>
        <time>2024-07-03T12:34:05Z</time>
      </trkpt>
      <trkpt lat="49.19562" lon="-0.17891">
        <ele>17</ele>
        <time>2024-07-03T12:34:06Z</time>
      </trkpt>
      <trkpt lat="49.19558" lon="-0.17897">
        <ele>17.2</ele>
        <time>2024-07-03T12:34:07Z</time>
      </trkpt>
      <trkpt lat="49.19553" lon="-0.17903">
        <ele>17.2</ele>
        <time>2024-07-03T12:34:08Z</time>
      </trkpt>
      <trkpt lat="49.19549" lon="-0.17909">
        <ele>17.4</ele>
        <time>2024-07-03T12:34:09Z</time>
      </trkpt>
      <trkpt lat="49.19545" lon="-0.17914">
        <ele>17.4</ele>
        <time>2024-07-03T12:34:10Z</time>
      </trkpt>
      <trkpt lat="49.19541" lon="-0.1792">
        <ele>17.6</ele>
        <time>2024-07-03T12:34:11Z</time>
      </trkpt>
      <trkpt lat="49.19538" lon="-0.17926">
        <ele>17.8</ele>
        <time>2024-07-03T12:34:12Z</time>
      </trkpt>
      <trkpt lat="49.19533" lon="-0.17932">
        <ele>18</ele>
        <time>2024-07-03T12:34:13Z</time>
      </trkpt>
      <trkpt lat="49.19529" lon="-0.17938">
        <ele>18.2</ele>
        <time>2024-07-03T12:34:14Z</time>
      </trkpt>
      <trkpt lat="49.19525" lon="-0.17945">
        <ele>18.2</ele>
        <time>2024-07-03T12:34:15Z</time>
      </trkpt>
      <trkpt lat="49.19521" lon="-0.17952">
        <ele>18.2</ele>
        <time>2024-07-03T12:34:16Z</time>
      </trkpt>
      <trkpt lat="49.19517" lon="-0.17959">
        <ele>18.4</ele>
        <time>2024-07-03T12:34:17Z</time>
      </trkpt>
      <trkpt lat="49.19513" lon="-0.17966">
        <ele>18.6</ele>
        <time>2024-07-03T12:34:18Z</time>
      </trkpt>
      <trkpt lat="49.19509" lon="-0.17972">
        <ele>18.8</ele>
        <time>2024-07-03T12:34:19Z</time>
      </trkpt>
      <trkpt lat="49.19506" lon="-0.17979">
        <ele>19</ele>
        <time>2024-07-03T12:34:20Z</time>
      </trkpt>
      <trkpt lat="49.19502" lon="-0.17985">
        <ele>19.4</ele>
        <time>2024-07-03T12:34:21Z</time>
      </trkpt>
      <trkpt lat="49.19498" lon="-0.17992">
        <ele>19.8</ele>
        <time>2024-07-03T12:34:22Z</time>
      </trkpt>
      <trkpt lat="49.19494" lon="-0.17998">
        <ele>20</ele>
        <time>2024-07-03T12:34:23Z</time>
      </trkpt>
      <trkpt lat="49.19491" lon="-0.18005">
        <ele>20.2</ele>
        <time>2024-07-03T12:34:24Z</time>
      </trkpt>
      <trkpt lat="49.19487" lon="-0.18011">
        <ele>20.4</ele>
        <time>2024-07-03T12:34:25Z</time>
      </trkpt>
      <trkpt lat="49.19484" lon="-0.18017">
        <ele>20.8</ele>
        <time>2024-07-03T12:34:26Z</time>
      </trkpt>
      <trkpt lat="49.1948" lon="-0.18023">
        <ele>20.8</ele>
        <time>2024-07-03T12:34:27Z</time>
      </trkpt>
      <trkpt lat="49.19476" lon="-0.18029">
        <ele>20.8</ele>
        <time>2024-07-03T12:34:28Z</time>
      </trkpt>
      <trkpt lat="49.19472" lon="-0.18036">
        <ele>21</ele>
        <time>2024-07-03T12:34:29Z</time>
      </trkpt>
      <trkpt lat="49.19468" lon="-0.18042">
        <ele>21</ele>
        <time>2024-07-03T12:34:30Z</time>
      </trkpt>
      <trkpt lat="49.19464" lon="-0.18048">
        <ele>21.2</ele>
        <time>2024-07-03T12:34:31Z</time>
      </trkpt>
      <trkpt lat="49.19459" lon="-0.18055">
        <ele>21.6</ele>
        <time>2024-07-03T12:34:32Z</time>
      </trkpt>
      <trkpt lat="49.19455" lon="-0.18061">
        <ele>22</ele>
        <time>2024-07-03T12:34:33Z</time>
      </trkpt>
      <trkpt lat="49.1945" lon="-0.18067">
        <ele>22.4</ele>
        <time>2024-07-03T12:34:34Z</time>
      </trkpt>
      <trkpt lat="49.19445" lon="-0.18073">
        <ele>22.4</ele>
        <time>2024-07-03T12:34:35Z</time>
      </trkpt>
      <trkpt lat="49.1944" lon="-0.18079">
        <ele>22.6</ele>
        <time>2024-07-03T12:34:36Z</time>
      </trkpt>
      <trkpt lat="49.19435" lon="-0.18085">
        <ele>22.8</ele>
        <time>2024-07-03T12:34:37Z</time>
      </trkpt>
      <trkpt lat="49.1943" lon="-0.18091">
        <ele>22.8</ele>
        <time>2024-07-03T12:34:38Z</time>
      </trkpt>
      <trkpt lat="49.19425" lon="-0.18096">
        <ele>23</ele>
        <time>2024-07-03T12:34:39Z</time>
      </trkpt>
      <trkpt lat="49.1942" lon="-0.18102">
        <ele>23</ele>
        <time>2024-07-03T12:34:40Z</time>
      </trkpt>
      <trkpt lat="49.19414" lon="-0.18106">
        <ele>23.2</ele>
        <time>2024-07-03T12:34:41Z</time>
      </trkpt>
      <trkpt lat="49.19409" lon="-0.18111">
        <ele>23.2</ele>
        <time>2024-07-03T12:34:42Z</time>
      </trkpt>
      <trkpt lat="49.19403" lon="-0.18114">
        <ele>23.4</ele>
        <time>2024-07-03T12:34:43Z</time>
      </trkpt>
      <trkpt lat="49.19398" lon="-0.18118">
        <ele>23.4</ele>
        <time>2024-07-03T12:34:44Z</time>
      </trkpt>
      <trkpt lat="49.19392" lon="-0.18121">
        <ele>23.6</ele>
        <time>2024-07-03T12:34:45Z</time>
      </trkpt>
      <trkpt lat="49.19386" lon="-0.18124">
        <ele>23.8</ele>
        <time>2024-07-03T12:34:46Z</time>
      </trkpt>
      <trkpt lat="49.1938" lon="-0.18128">
        <ele>23.8</ele>
        <time>2024-07-03T12:34:47Z</time>
      </trkpt>
      <trkpt lat="49.19374" lon="-0.18132">
        <ele>24</ele>
        <time>2024-07-03T12:34:48Z</time>
      </trkpt>
      <trkpt lat="49.19368" lon="-0.18136">
        <ele>24.2</ele>
        <time>2024-07-03T12:34:49Z</time>
      </trkpt>
      <trkpt lat="49.19361" lon="-0.1814">
        <ele>24.2</ele>
        <time>2024-07-03T12:34:50Z</time>
      </trkpt>
      <trkpt lat="49.19355" lon="-0.18144">
        <ele>24.4</ele>
        <time>2024-07-03T12:34:51Z</time>
      </trkpt>
      <trkpt lat="49.19348" lon="-0.18149">
        <ele>24.4</ele>
        <time>2024-07-03T12:34:52Z</time>
      </trkpt>
      <trkpt lat="49.19342" lon="-0.18154">
        <ele>24.6</ele>
        <time>2024-07-03T12:34:53Z</time>
      </trkpt>
      <trkpt lat="49.19335" lon="-0.18159">
        <ele>24.6</ele>
        <time>2024-07-03T12:34:54Z</time>
      </trkpt>
      <trkpt lat="49.19329" lon="-0.18164">
        <ele>24.6</ele>
        <time>2024-07-03T12:34:55Z</time>
      </trkpt>
      <trkpt lat="49.19323" lon="-0.18169">
        <ele>24.6</ele>
        <time>2024-07-03T12:34:56Z</time>
      </trkpt>
      <trkpt lat="49.19317" lon="-0.18174">
        <ele>24.6</ele>
        <time>2024-07-03T12:34:57Z</time>
      </trkpt>
      <trkpt lat="49.1931" lon="-0.18179">
        <ele>24.4</ele>
        <time>2024-07-03T12:34:58Z</time>
      </trkpt>
      <trkpt lat="49.19304" lon="-0.18184">
        <ele>24.4</ele>
        <time>2024-07-03T12:34:59Z</time>
      </trkpt>
      <trkpt lat="49.19298" lon="-0.18189">
        <ele>24.6</ele>
        <time>2024-07-03T12:35:00Z</time>
      </trkpt>
      <trkpt lat="49.19291" lon="-0.18195">
        <ele>24.4</ele>
        <time>2024-07-03T12:35:01Z</time>
      </trkpt>
      <trkpt lat="49.19285" lon="-0.182">
        <ele>24.4</ele>
        <time>2024-07-03T12:35:02Z</time>
      </trkpt>
      <trkpt lat="49.19279" lon="-0.18205">
        <ele>24.4</ele>
        <time>2024-07-03T12:35:03Z</time>
      </trkpt>
      <trkpt lat="49.19273" lon="-0.18211">
        <ele>24.4</ele>
        <time>2024-07-03T12:35:04Z</time>
      </trkpt>
      <trkpt lat="49.19267" lon="-0.18216">
        <ele>24.4</ele>
        <time>2024-07-03T12:35:05Z</time>
      </trkpt>
      <trkpt lat="49.19261" lon="-0.18222">
        <ele>24.4</ele>
        <time>2024-07-03T12:35:06Z</time>
      </trkpt>
      <trkpt lat="49.19255" lon="-0.18228">
        <ele>24.4</ele>
        <time>2024-07-03T12:35:07Z</time>
      </trkpt>
      <trkpt lat="49.19249" lon="-0.18234">
        <ele>24.4</ele>
        <time>2024-07-03T12:35:08Z</time>
      </trkpt>
      <trkpt lat="49.19243" lon="-0.1824">
        <ele>24.4</ele>
        <time>2024-07-03T12:35:09Z</time>
      </trkpt>
      <trkpt lat="49.19237" lon="-0.18246">
        <ele>24.6</ele>
        <time>2024-07-03T12:35:10Z</time>
      </trkpt>
      <trkpt lat="49.19231" lon="-0.18252">
        <ele>24.6</ele>
        <time>2024-07-03T12:35:11Z</time>
      </trkpt>
      <trkpt lat="49.19226" lon="-0.18258">
        <ele>24.6</ele>
        <time>2024-07-03T12:35:12Z</time>
      </trkpt>
      <trkpt lat="49.1922" lon="-0.18265">
        <ele>24.6</ele>
        <time>2024-07-03T12:35:13Z</time>
      </trkpt>
      <trkpt lat="49.19214" lon="-0.1827">
        <ele>24.8</ele>
        <time>2024-07-03T12:35:14Z</time>
      </trkpt>
      <trkpt lat="49.19208" lon="-0.18276">
        <ele>24.8</ele>
        <time>2024-07-03T12:35:15Z</time>
      </trkpt>
      <trkpt lat="49.19202" lon="-0.18282">
        <ele>25</ele>
        <time>2024-07-03T12:35:16Z</time>
      </trkpt>
      <trkpt lat="49.19196" lon="-0.18288">
        <ele>25.2</ele>
        <time>2024-07-03T12:35:17Z</time>
      </trkpt>
      <trkpt lat="49.1919" lon="-0.18295">
        <ele>25.2</ele>
        <time>2024-07-03T12:35:18Z</time>
      </trkpt>
      <trkpt lat="49.19184" lon="-0.18301">
        <ele>25.2</ele>
        <time>2024-07-03T12:35:19Z</time>
      </trkpt>
      <trkpt lat="49.19179" lon="-0.18308">
        <ele>25.4</ele>
        <time>2024-07-03T12:35:20Z</time>
      </trkpt>
      <trkpt lat="49.19173" lon="-0.18314">
        <ele>25.4</ele>
        <time>2024-07-03T12:35:21Z</time>
      </trkpt>
      <trkpt lat="49.19167" lon="-0.18321">
        <ele>25.4</ele>
        <time>2024-07-03T12:35:22Z</time>
      </trkpt>
      <trkpt lat="49.19161" lon="-0.18328">
        <ele>25.4</ele>
        <time>2024-07-03T12:35:23Z</time>
      </trkpt>
      <trkpt lat="49.19155" lon="-0.18334">
        <ele>25.4</ele>
        <time>2024-07-03T12:35:24Z</time>
      </trkpt>
      <trkpt lat="49.1915" lon="-0.1834">
        <ele>25.4</ele>
        <time>2024-07-03T12:35:25Z</time>
      </trkpt>
      <trkpt lat="49.19144" lon="-0.18346">
        <ele>25.6</ele>
        <time>2024-07-03T12:35:26Z</time>
      </trkpt>
      <trkpt lat="49.19138" lon="-0.18351">
        <ele>25.8</ele>
        <time>2024-07-03T12:35:27Z</time>
      </trkpt>
      <trkpt lat="49.19132" lon="-0.18356">
        <ele>25.8</ele>
        <time>2024-07-03T12:35:28Z</time>
      </trkpt>
      <trkpt lat="49.19127" lon="-0.18361">
        <ele>25.8</ele>
        <time>2024-07-03T12:35:29Z</time>
      </trkpt>
      <trkpt lat="49.19121" lon="-0.18365">
        <ele>26</ele>
        <time>2024-07-03T12:35:30Z</time>
      </trkpt>
      <trkpt lat="49.19114" lon="-0.1837">
        <ele>26</ele>
        <time>2024-07-03T12:35:31Z</time>
      </trkpt>
      <trkpt lat="49.19107" lon="-0.18374">
        <ele>26</ele>
        <time>2024-07-03T12:35:32Z</time>
      </trkpt>
      <trkpt lat="49.19101" lon="-0.18378">
        <ele>26</ele>
        <time>2024-07-03T12:35:33Z</time>
      </trkpt>
      <trkpt lat="49.19094" lon="-0.18382">
        <ele>26</ele>
        <time>2024-07-03T12:35:34Z</time>
      </trkpt>
      <trkpt lat="49.19087" lon="-0.18386">
        <ele>26.2</ele>
        <time>2024-07-03T12:35:35Z</time>
      </trkpt>
      <trkpt lat="49.1908" lon="-0.18391">
        <ele>26.2</ele>
        <time>2024-07-03T12:35:36Z</time>
      </trkpt>
      <trkpt lat="49.19072" lon="-0.18395">
        <ele>26.2</ele>
        <time>2024-07-03T12:35:37Z</time>
      </trkpt>
      <trkpt lat="49.19065" lon="-0.18399">
        <ele>26.2</ele>
        <time>2024-07-03T12:35:38Z</time>
      </trkpt>
      <trkpt lat="49.19059" lon="-0.18403">
        <ele>26.2</ele>
        <time>2024-07-03T12:35:39Z</time>
      </trkpt>
      <trkpt lat="49.19051" lon="-0.18407">
        <ele>26.4</ele>
        <time>2024-07-03T12:35:40Z</time>
      </trkpt>
      <trkpt lat="49.19044" lon="-0.18412">
        <ele>26.6</ele>
        <time>2024-07-03T12:35:41Z</time>
      </trkpt>
      <trkpt lat="49.19037" lon="-0.18417">
        <ele>26.6</ele>
        <time>2024-07-03T12:35:42Z</time>
      </trkpt>
      <trkpt lat="49.1903" lon="-0.18422">
        <ele>26.8</ele>
        <time>2024-07-03T12:35:43Z</time>
      </trkpt>
      <trkpt lat="49.19023" lon="-0.18428">
        <ele>26.8</ele>
        <time>2024-07-03T12:35:44Z</time>
      </trkpt>
      <trkpt lat="49.19016" lon="-0.18434">
        <ele>26.8</ele>
        <time>2024-07-03T12:35:45Z</time>
      </trkpt>
      <trkpt lat="49.1901" lon="-0.18439">
        <ele>26.8</ele>
        <time>2024-07-03T12:35:46Z</time>
      </trkpt>
      <trkpt lat="49.19004" lon="-0.18445">
        <ele>26.6</ele>
        <time>2024-07-03T12:35:47Z</time>
      </trkpt>
      <trkpt lat="49.18998" lon="-0.18451">
        <ele>26.4</ele>
        <time>2024-07-03T12:35:48Z</time>
      </trkpt>
      <trkpt lat="49.18993" lon="-0.18457">
        <ele>26.2</ele>
        <time>2024-07-03T12:35:49Z</time>
      </trkpt>
      <trkpt lat="49.18987" lon="-0.18463">
        <ele>26.2</ele>
        <time>2024-07-03T12:35:50Z</time>
      </trkpt>
      <trkpt lat="49.18981" lon="-0.18468">
        <ele>26.2</ele>
        <time>2024-07-03T12:35:51Z</time>
      </trkpt>
      <trkpt lat="49.18976" lon="-0.18473">
        <ele>26.2</ele>
        <time>2024-07-03T12:35:52Z</time>
      </trkpt>
      <trkpt lat="49.1897" lon="-0.18477">
        <ele>26.4</ele>
        <time>2024-07-03T12:35:53Z</time>
      </trkpt>
      <trkpt lat="49.18965" lon="-0.18481">
        <ele>26.6</ele>
        <time>2024-07-03T12:35:54Z</time>
      </trkpt>
      <trkpt lat="49.18961" lon="-0.18485">
        <ele>26.8</ele>
        <time>2024-07-03T12:35:55Z</time>
      </trkpt>
      <trkpt lat="49.18956" lon="-0.18489">
        <ele>27</ele>
        <time>2024-07-03T12:35:56Z</time>
      </trkpt>
      <trkpt lat="49.18952" lon="-0.18493">
        <ele>27</ele>
        <time>2024-07-03T12:35:57Z</time>
      </trkpt>
      <trkpt lat="49.18947" lon="-0.18498">
        <ele>27.2</ele>
        <time>2024-07-03T12:35:58Z</time>
      </trkpt>
      <trkpt lat="49.18942" lon="-0.18502">
        <ele>27.4</ele>
        <time>2024-07-03T12:35:59Z</time>
      </trkpt>
      <trkpt lat="49.18938" lon="-0.18507">
        <ele>27.6</ele>
        <time>2024-07-03T12:36:00Z</time>
      </trkpt>
      <trkpt lat="49.18932" lon="-0.18512">
        <ele>27.6</ele>
        <time>2024-07-03T12:36:01Z</time>
      </trkpt>
      <trkpt lat="49.18927" lon="-0.18517">
        <ele>27.8</ele>
        <time>2024-07-03T12:36:02Z</time>
      </trkpt>
      <trkpt lat="49.18921" lon="-0.18523">
        <ele>27.8</ele>
        <time>2024-07-03T12:36:03Z</time>
      </trkpt>
      <trkpt lat="49.18916" lon="-0.18529">
        <ele>27.8</ele>
        <time>2024-07-03T12:36:04Z</time>
      </trkpt>
      <trkpt lat="49.1891" lon="-0.18535">
        <ele>27.8</ele>
        <time>2024-07-03T12:36:05Z</time>
      </trkpt>
      <trkpt lat="49.18904" lon="-0.18541">
        <ele>27.8</ele>
        <time>2024-07-03T12:36:06Z</time>
      </trkpt>
      <trkpt lat="49.18898" lon="-0.18547">
        <ele>27.6</ele>
        <time>2024-07-03T12:36:07Z</time>
      </trkpt>
      <trkpt lat="49.18891" lon="-0.18552">
        <ele>27.6</ele>
        <time>2024-07-03T12:36:08Z</time>
      </trkpt>
      <trkpt lat="49.18885" lon="-0.18558">
        <ele>27.6</ele>
        <time>2024-07-03T12:36:09Z</time>
      </trkpt>
      <trkpt lat="49.18879" lon="-0.18563">
        <ele>27.6</ele>
        <time>2024-07-03T12:36:10Z</time>
      </trkpt>
      <trkpt lat="49.18873" lon="-0.18568">
        <ele>27.8</ele>
        <time>2024-07-03T12:36:11Z</time>
      </trkpt>
      <trkpt lat="49.18867" lon="-0.18573">
        <ele>27.8</ele>
        <time>2024-07-03T12:36:12Z</time>
      </trkpt>
      <trkpt lat="49.18861" lon="-0.18578">
        <ele>28</ele>
        <time>2024-07-03T12:36:13Z</time>
      </trkpt>
      <trkpt lat="49.18855" lon="-0.18582">
        <ele>28</ele>
        <time>2024-07-03T12:36:14Z</time>
      </trkpt>
      <trkpt lat="49.18849" lon="-0.18586">
        <ele>28</ele>
        <time>2024-07-03T12:36:15Z</time>
      </trkpt>
      <trkpt lat="49.18844" lon="-0.18589">
        <ele>28</ele>
        <time>2024-07-03T12:36:16Z</time>
      </trkpt>
      <trkpt lat="49.18839" lon="-0.18592">
        <ele>28.2</ele>
        <time>2024-07-03T12:36:17Z</time>
      </trkpt>
      <trkpt lat="49.18833" lon="-0.18596">
        <ele>28.2</ele>
        <time>2024-07-03T12:36:18Z</time>
      </trkpt>
      <trkpt lat="49.18828" lon="-0.18599">
        <ele>28.4</ele>
        <time>2024-07-03T12:36:19Z</time>
      </trkpt>
      <trkpt lat="49.18822" lon="-0.18602">
        <ele>28.8</ele>
        <time>2024-07-03T12:36:20Z</time>
      </trkpt>
      <trkpt lat="49.18816" lon="-0.18606">
        <ele>28.8</ele>
        <time>2024-07-03T12:36:21Z</time>
      </trkpt>
      <trkpt lat="49.1881" lon="-0.18609">
        <ele>28.8</ele>
        <time>2024-07-03T12:36:22Z</time>
      </trkpt>
      <trkpt lat="49.18804" lon="-0.18613">
        <ele>29</ele>
        <time>2024-07-03T12:36:23Z</time>
      </trkpt>
      <trkpt lat="49.18797" lon="-0.18617">
        <ele>28.8</ele>
        <time>2024-07-03T12:36:24Z</time>
      </trkpt>
      <trkpt lat="49.1879" lon="-0.18621">
        <ele>28.4</ele>
        <time>2024-07-03T12:36:25Z</time>
      </trkpt>
      <trkpt lat="49.18784" lon="-0.18627">
        <ele>28</ele>
        <time>2024-07-03T12:36:26Z</time>
      </trkpt>
      <trkpt lat="49.18777" lon="-0.18632">
        <ele>27.8</ele>
        <time>2024-07-03T12:36:27Z</time>
      </trkpt>
      <trkpt lat="49.18771" lon="-0.18636">
        <ele>27.6</ele>
        <time>2024-07-03T12:36:28Z</time>
      </trkpt>
      <trkpt lat="49.18764" lon="-0.1864">
        <ele>27.6</ele>
        <time>2024-07-03T12:36:29Z</time>
      </trkpt>
      <trkpt lat="49.18757" lon="-0.18644">
        <ele>27.6</ele>
        <time>2024-07-03T12:36:30Z</time>
      </trkpt>
      <trkpt lat="49.1875" lon="-0.18648">
        <ele>27.4</ele>
        <time>2024-07-03T12:36:31Z</time>
      </trkpt>
      <trkpt lat="49.18744" lon="-0.18653">
        <ele>27.4</ele>
        <time>2024-07-03T12:36:32Z</time>
      </trkpt>
      <trkpt lat="49.18737" lon="-0.18657">
        <ele>27.6</ele>
        <time>2024-07-03T12:36:33Z</time>
      </trkpt>
      <trkpt lat="49.18731" lon="-0.18661">
        <ele>27.6</ele>
        <time>2024-07-03T12:36:34Z</time>
      </trkpt>
      <trkpt lat="49.18724" lon="-0.18665">
        <ele>27.6</ele>
        <time>2024-07-03T12:36:35Z</time>
      </trkpt>
      <trkpt lat="49.18718" lon="-0.1867">
        <ele>27.6</ele>
        <time>2024-07-03T12:36:36Z</time>
      </trkpt>
      <trkpt lat="49.18712" lon="-0.18675">
        <ele>27.6</ele>
        <time>2024-07-03T12:36:37Z</time>
      </trkpt>
      <trkpt lat="49.18705" lon="-0.1868">
        <ele>27.6</ele>
        <time>2024-07-03T12:36:38Z</time>
      </trkpt>
      <trkpt lat="49.18699" lon="-0.18686">
        <ele>27.4</ele>
        <time>2024-07-03T12:36:39Z</time>
      </trkpt>
      <trkpt lat="49.18693" lon="-0.18692">
        <ele>27.4</ele>
        <time>2024-07-03T12:36:40Z</time>
      </trkpt>
      <trkpt lat="49.18687" lon="-0.18699">
        <ele>27.4</ele>
        <time>2024-07-03T12:36:41Z</time>
      </trkpt>
      <trkpt lat="49.18682" lon="-0.18706">
        <ele>27.4</ele>
        <time>2024-07-03T12:36:42Z</time>
      </trkpt>
      <trkpt lat="49.18676" lon="-0.18713">
        <ele>27.4</ele>
        <time>2024-07-03T12:36:43Z</time>
      </trkpt>
      <trkpt lat="49.1867" lon="-0.1872">
        <ele>27.4</ele>
        <time>2024-07-03T12:36:44Z</time>
      </trkpt>
      <trkpt lat="49.18664" lon="-0.18726">
        <ele>27.4</ele>
        <time>2024-07-03T12:36:45Z</time>
      </trkpt>
      <trkpt lat="49.18658" lon="-0.18733">
        <ele>27.2</ele>
        <time>2024-07-03T12:36:46Z</time>
      </trkpt>
      <trkpt lat="49.18653" lon="-0.1874">
        <ele>27.2</ele>
        <time>2024-07-03T12:36:47Z</time>
      </trkpt>
      <trkpt lat="49.18648" lon="-0.18746">
        <ele>27</ele>
        <time>2024-07-03T12:36:48Z</time>
      </trkpt>
      <trkpt lat="49.18642" lon="-0.18753">
        <ele>27</ele>
        <time>2024-07-03T12:36:49Z</time>
      </trkpt>
      <trkpt lat="49.18637" lon="-0.18759">
        <ele>27.2</ele>
        <time>2024-07-03T12:36:50Z</time>
      </trkpt>
      <trkpt lat="49.18632" lon="-0.18765">
        <ele>27.2</ele>
        <time>2024-07-03T12:36:51Z</time>
      </trkpt>
      <trkpt lat="49.18627" lon="-0.18771">
        <ele>27.2</ele>
        <time>2024-07-03T12:36:52Z</time>
      </trkpt>
      <trkpt lat="49.18621" lon="-0.18777">
        <ele>27.2</ele>
        <time>2024-07-03T12:36:53Z</time>
      </trkpt>
      <trkpt lat="49.18616" lon="-0.18784">
        <ele>27.4</ele>
        <time>2024-07-03T12:36:54Z</time>
      </trkpt>
      <trkpt lat="49.18611" lon="-0.1879">
        <ele>27.4</ele>
        <time>2024-07-03T12:36:55Z</time>
      </trkpt>
      <trkpt lat="49.18606" lon="-0.18796">
        <ele>27.4</ele>
        <time>2024-07-03T12:36:56Z</time>
      </trkpt>
      <trkpt lat="49.18601" lon="-0.18803">
        <ele>27.6</ele>
        <time>2024-07-03T12:36:57Z</time>
      </trkpt>
      <trkpt lat="49.18595" lon="-0.18809">
        <ele>27.6</ele>
        <time>2024-07-03T12:36:58Z</time>
      </trkpt>
      <trkpt lat="49.1859" lon="-0.18815">
        <ele>27.6</ele>
        <time>2024-07-03T12:36:59Z</time>
      </trkpt>
      <trkpt lat="49.18586" lon="-0.18821">
        <ele>27.8</ele>
        <time>2024-07-03T12:37:00Z</time>
      </trkpt>
      <trkpt lat="49.18582" lon="-0.18827">
        <ele>27.8</ele>
        <time>2024-07-03T12:37:01Z</time>
      </trkpt>
      <trkpt lat="49.18579" lon="-0.18833">
        <ele>27.8</ele>
        <time>2024-07-03T12:37:02Z</time>
      </trkpt>
      <trkpt lat="49.18576" lon="-0.1884">
        <ele>27.8</ele>
        <time>2024-07-03T12:37:03Z</time>
      </trkpt>
      <trkpt lat="49.18573" lon="-0.18844">
        <ele>28</ele>
        <time>2024-07-03T12:37:04Z</time>
      </trkpt>
      <trkpt lat="49.18571" lon="-0.18849">
        <ele>28</ele>
        <time>2024-07-03T12:37:05Z</time>
      </trkpt>
      <trkpt lat="49.1857" lon="-0.18852">
        <ele>28.2</ele>
        <time>2024-07-03T12:37:06Z</time>
      </trkpt>
      <trkpt lat="49.1857" lon="-0.18855">
        <ele>28.2</ele>
        <time>2024-07-03T12:37:07Z</time>
      </trkpt>
      <trkpt lat="49.18569" lon="-0.18856">
        <ele>28.6</ele>
        <time>2024-07-03T12:37:08Z</time>
      </trkpt>
      <trkpt lat="49.18569" lon="-0.18856">
        <ele>29</ele>
        <time>2024-07-03T12:37:09Z</time>
      </trkpt>
      <trkpt lat="49.18569" lon="-0.18856">
        <ele>29.4</ele>
        <time>2024-07-03T12:37:10Z</time>
      </trkpt>
      <trkpt lat="49.18563" lon="-0.18861">
        <ele>30.6</ele>
        <time>2024-07-03T12:38:02Z</time>
      </trkpt>
      <trkpt lat="49.18561" lon="-0.18859">
        <ele>30.6</ele>
        <time>2024-07-03T12:38:03Z</time>
      </trkpt>
      <trkpt lat="49.18559" lon="-0.18856">
        <ele>30.6</ele>
        <time>2024-07-03T12:38:04Z</time>
      </trkpt>
      <trkpt lat="49.18555" lon="-0.18854">
        <ele>30.4</ele>
        <time>2024-07-03T12:38:05Z</time>
      </trkpt>
      <trkpt lat="49.18552" lon="-0.18852">
        <ele>30.4</ele>
        <time>2024-07-03T12:38:06Z</time>
      </trkpt>
      <trkpt lat="49.18548" lon="-0.1885">
        <ele>30.4</ele>
        <time>2024-07-03T12:38:07Z</time>
      </trkpt>
      <trkpt lat="49.18544" lon="-0.18848">
        <ele>30.2</ele>
        <time>2024-07-03T12:38:08Z</time>
      </trkpt>
      <trkpt lat="49.18539" lon="-0.18846">
        <ele>30.2</ele>
        <time>2024-07-03T12:38:09Z</time>
      </trkpt>
      <trkpt lat="49.18534" lon="-0.18844">
        <ele>30.2</ele>
        <time>2024-07-03T12:38:10Z</time>
      </trkpt>
      <trkpt lat="49.18529" lon="-0.18842">
        <ele>30.2</ele>
        <time>2024-07-03T12:38:11Z</time>
      </trkpt>
      <trkpt lat="49.18524" lon="-0.18841">
        <ele>30.4</ele>
        <time>2024-07-03T12:38:12Z</time>
      </trkpt>
      <trkpt lat="49.18519" lon="-0.18839">
        <ele>30.4</ele>
        <time>2024-07-03T12:38:13Z</time>
      </trkpt>
      <trkpt lat="49.18514" lon="-0.18839">
        <ele>30.4</ele>
        <time>2024-07-03T12:38:14Z</time>
      </trkpt>
      <trkpt lat="49.18508" lon="-0.18838">
        <ele>30.4</ele>
        <time>2024-07-03T12:38:15Z</time>
      </trkpt>
      <trkpt lat="49.18502" lon="-0.18837">
        <ele>30.4</ele>
        <time>2024-07-03T12:38:16Z</time>
      </trkpt>
      <trkpt lat="49.18496" lon="-0.18836">
        <ele>30.4</ele>
        <time>2024-07-03T12:38:17Z</time>
      </trkpt>
      <trkpt lat="49.18489" lon="-0.18835">
        <ele>30.2</ele>
        <time>2024-07-03T12:38:18Z</time>
      </trkpt>
      <trkpt lat="49.18483" lon="-0.18834">
        <ele>30</ele>
        <time>2024-07-03T12:38:19Z</time>
      </trkpt>
      <trkpt lat="49.18477" lon="-0.18834">
        <ele>29.8</ele>
        <time>2024-07-03T12:38:20Z</time>
      </trkpt>
      <trkpt lat="49.18471" lon="-0.18833">
        <ele>29.8</ele>
        <time>2024-07-03T12:38:21Z</time>
      </trkpt>
      <trkpt lat="49.18465" lon="-0.18832">
        <ele>29.8</ele>
        <time>2024-07-03T12:38:22Z</time>
      </trkpt>
      <trkpt lat="49.18459" lon="-0.18831">
        <ele>29.8</ele>
        <time>2024-07-03T12:38:23Z</time>
      </trkpt>
      <trkpt lat="49.18452" lon="-0.18831">
        <ele>30</ele>
        <time>2024-07-03T12:38:24Z</time>
      </trkpt>
      <trkpt lat="49.18445" lon="-0.1883">
        <ele>30</ele>
        <time>2024-07-03T12:38:25Z</time>
      </trkpt>
      <trkpt lat="49.18438" lon="-0.18829">
        <ele>30</ele>
        <time>2024-07-03T12:38:26Z</time>
      </trkpt>
      <trkpt lat="49.18431" lon="-0.18827">
        <ele>30</ele>
        <time>2024-07-03T12:38:27Z</time>
      </trkpt>
      <trkpt lat="49.18424" lon="-0.18824">
        <ele>30</ele>
        <time>2024-07-03T12:38:28Z</time>
      </trkpt>
      <trkpt lat="49.18417" lon="-0.18822">
        <ele>30</ele>
        <time>2024-07-03T12:38:29Z</time>
      </trkpt>
      <trkpt lat="49.1841" lon="-0.18819">
        <ele>30</ele>
        <time>2024-07-03T12:38:30Z</time>
      </trkpt>
      <trkpt lat="49.18403" lon="-0.18817">
        <ele>29.8</ele>
        <time>2024-07-03T12:38:31Z</time>
      </trkpt>
      <trkpt lat="49.18397" lon="-0.18815">
        <ele>29.8</ele>
        <time>2024-07-03T12:38:32Z</time>
      </trkpt>
      <trkpt lat="49.1839" lon="-0.18812">
        <ele>29.8</ele>
        <time>2024-07-03T12:38:33Z</time>
      </trkpt>
      <trkpt lat="49.18384" lon="-0.1881">
        <ele>29.8</ele>
        <time>2024-07-03T12:38:34Z</time>
      </trkpt>
      <trkpt lat="49.18377" lon="-0.18808">
        <ele>29.8</ele>
        <time>2024-07-03T12:38:35Z</time>
      </trkpt>
      <trkpt lat="49.1837" lon="-0.18806">
        <ele>29.8</ele>
        <time>2024-07-03T12:38:36Z</time>
      </trkpt>
      <trkpt lat="49.18363" lon="-0.18804">
        <ele>30</ele>
        <time>2024-07-03T12:38:37Z</time>
      </trkpt>
      <trkpt lat="49.18356" lon="-0.18802">
        <ele>30</ele>
        <time>2024-07-03T12:38:38Z</time>
      </trkpt>
      <trkpt lat="49.18349" lon="-0.18799">
        <ele>30.2</ele>
        <time>2024-07-03T12:38:39Z</time>
      </trkpt>
      <trkpt lat="49.18342" lon="-0.18796">
        <ele>30.2</ele>
        <time>2024-07-03T12:38:40Z</time>
      </trkpt>
      <trkpt lat="49.18335" lon="-0.18794">
        <ele>30.2</ele>
        <time>2024-07-03T12:38:41Z</time>
      </trkpt>
      <trkpt lat="49.18328" lon="-0.18791">
        <ele>30.2</ele>
        <time>2024-07-03T12:38:42Z</time>
      </trkpt>
      <trkpt lat="49.18321" lon="-0.18788">
        <ele>30.2</ele>
        <time>2024-07-03T12:38:43Z</time>
      </trkpt>
      <trkpt lat="49.18314" lon="-0.18785">
        <ele>30</ele>
        <time>2024-07-03T12:38:44Z</time>
      </trkpt>
      <trkpt lat="49.18307" lon="-0.18783">
        <ele>30</ele>
        <time>2024-07-03T12:38:45Z</time>
      </trkpt>
      <trkpt lat="49.18301" lon="-0.18781">
        <ele>30</ele>
        <time>2024-07-03T12:38:46Z</time>
      </trkpt>
      <trkpt lat="49.18294" lon="-0.18778">
        <ele>29.8</ele>
        <time>2024-07-03T12:38:47Z</time>
      </trkpt>
      <trkpt lat="49.18287" lon="-0.18776">
        <ele>30</ele>
        <time>2024-07-03T12:38:48Z</time>
      </trkpt>
      <trkpt lat="49.18281" lon="-0.18774">
        <ele>30</ele>
        <time>2024-07-03T12:38:49Z</time>
      </trkpt>
      <trkpt lat="49.18274" lon="-0.18773">
        <ele>30</ele>
        <time>2024-07-03T12:38:50Z</time>
      </trkpt>
      <trkpt lat="49.18267" lon="-0.18773">
        <ele>30</ele>
        <time>2024-07-03T12:38:51Z</time>
      </trkpt>
      <trkpt lat="49.1826" lon="-0.18773">
        <ele>30</ele>
        <time>2024-07-03T12:38:52Z</time>
      </trkpt>
      <trkpt lat="49.18254" lon="-0.18769">
        <ele>29.8</ele>
        <time>2024-07-03T12:38:53Z</time>
      </trkpt>
      <trkpt lat="49.18248" lon="-0.18764">
        <ele>29.8</ele>
        <time>2024-07-03T12:38:54Z</time>
      </trkpt>
      <trkpt lat="49.18243" lon="-0.18759">
        <ele>29.8</ele>
        <time>2024-07-03T12:38:55Z</time>
      </trkpt>
      <trkpt lat="49.18237" lon="-0.18755">
        <ele>29.8</ele>
        <time>2024-07-03T12:38:56Z</time>
      </trkpt>
      <trkpt lat="49.18231" lon="-0.18751">
        <ele>29.8</ele>
        <time>2024-07-03T12:38:57Z</time>
      </trkpt>
      <trkpt lat="49.18225" lon="-0.18748">
        <ele>29.8</ele>
        <time>2024-07-03T12:38:58Z</time>
      </trkpt>
      <trkpt lat="49.18219" lon="-0.18744">
        <ele>29.8</ele>
        <time>2024-07-03T12:38:59Z</time>
      </trkpt>
      <trkpt lat="49.18213" lon="-0.18741">
        <ele>29.8</ele>
        <time>2024-07-03T12:39:00Z</time>
      </trkpt>
      <trkpt lat="49.18206" lon="-0.18736">
        <ele>29.6</ele>
        <time>2024-07-03T12:39:01Z</time>
      </trkpt>
      <trkpt lat="49.182" lon="-0.18732">
        <ele>29.4</ele>
        <time>2024-07-03T12:39:02Z</time>
      </trkpt>
      <trkpt lat="49.18194" lon="-0.18727">
        <ele>29.2</ele>
        <time>2024-07-03T12:39:03Z</time>
      </trkpt>
      <trkpt lat="49.18187" lon="-0.18722">
        <ele>29.2</ele>
        <time>2024-07-03T12:39:04Z</time>
      </trkpt>
      <trkpt lat="49.1818" lon="-0.18718">
        <ele>29.2</ele>
        <time>2024-07-03T12:39:05Z</time>
      </trkpt>
      <trkpt lat="49.18174" lon="-0.18713">
        <ele>29.2</ele>
        <time>2024-07-03T12:39:06Z</time>
      </trkpt>
      <trkpt lat="49.18167" lon="-0.18708">
        <ele>29.2</ele>
        <time>2024-07-03T12:39:07Z</time>
      </trkpt>
      <trkpt lat="49.18161" lon="-0.18703">
        <ele>29.4</ele>
        <time>2024-07-03T12:39:08Z</time>
      </trkpt>
      <trkpt lat="49.18154" lon="-0.18698">
        <ele>29.4</ele>
        <time>2024-07-03T12:39:09Z</time>
      </trkpt>
      <trkpt lat="49.18148" lon="-0.18693">
        <ele>29.6</ele>
        <time>2024-07-03T12:39:10Z</time>
      </trkpt>
      <trkpt lat="49.18141" lon="-0.18688">
        <ele>29.6</ele>
        <time>2024-07-03T12:39:11Z</time>
      </trkpt>
      <trkpt lat="49.18134" lon="-0.18684">
        <ele>29.6</ele>
        <time>2024-07-03T12:39:12Z</time>
      </trkpt>
      <trkpt lat="49.18128" lon="-0.1868">
        <ele>29.4</ele>
        <time>2024-07-03T12:39:13Z</time>
      </trkpt>
      <trkpt lat="49.1812" lon="-0.18675">
        <ele>29.2</ele>
        <time>2024-07-03T12:39:14Z</time>
      </trkpt>
      <trkpt lat="49.18113" lon="-0.18672">
        <ele>29</ele>
        <time>2024-07-03T12:39:15Z</time>
      </trkpt>
      <trkpt lat="49.18105" lon="-0.18668">
        <ele>28.8</ele>
        <time>2024-07-03T12:39:16Z</time>
      </trkpt>
      <trkpt lat="49.18096" lon="-0.18665">
        <ele>28.6</ele>
        <time>2024-07-03T12:39:17Z</time>
      </trkpt>
      <trkpt lat="49.18088" lon="-0.18662">
        <ele>28.2</ele>
        <time>2024-07-03T12:39:18Z</time>
      </trkpt>
      <trkpt lat="49.1808" lon="-0.18659">
        <ele>27.8</ele>
        <time>2024-07-03T12:39:19Z</time>
      </trkpt>
      <trkpt lat="49.18072" lon="-0.18656">
        <ele>27.2</ele>
        <time>2024-07-03T12:39:20Z</time>
      </trkpt>
      <trkpt lat="49.18063" lon="-0.18653">
        <ele>27</ele>
        <time>2024-07-03T12:39:21Z</time>
      </trkpt>
      <trkpt lat="49.18054" lon="-0.18651">
        <ele>26.8</ele>
        <time>2024-07-03T12:39:22Z</time>
      </trkpt>
      <trkpt lat="49.18046" lon="-0.18649">
        <ele>26.8</ele>
        <time>2024-07-03T12:39:23Z</time>
      </trkpt>
      <trkpt lat="49.18039" lon="-0.18648">
        <ele>27.2</ele>
        <time>2024-07-03T12:39:24Z</time>
      </trkpt>
      <trkpt lat="49.18032" lon="-0.18647">
        <ele>27.6</ele>
        <time>2024-07-03T12:39:25Z</time>
      </trkpt>
      <trkpt lat="49.18026" lon="-0.18646">
        <ele>28</ele>
        <time>2024-07-03T12:39:26Z</time>
      </trkpt>
      <trkpt lat="49.1802" lon="-0.18645">
        <ele>28.6</ele>
        <time>2024-07-03T12:39:27Z</time>
      </trkpt>
      <trkpt lat="49.18015" lon="-0.18643">
        <ele>29.2</ele>
        <time>2024-07-03T12:39:28Z</time>
      </trkpt>
      <trkpt lat="49.18009" lon="-0.18641">
        <ele>29.6</ele>
        <time>2024-07-03T12:39:29Z</time>
      </trkpt>
      <trkpt lat="49.18004" lon="-0.1864">
        <ele>29.8</ele>
        <time>2024-07-03T12:39:30Z</time>
      </trkpt>
      <trkpt lat="49.18" lon="-0.18639">
        <ele>30</ele>
        <time>2024-07-03T12:39:31Z</time>
      </trkpt>
      <trkpt lat="49.17996" lon="-0.18639">
        <ele>30.2</ele>
        <time>2024-07-03T12:39:32Z</time>
      </trkpt>
      <trkpt lat="49.17993" lon="-0.18639">
        <ele>30.4</ele>
        <time>2024-07-03T12:39:33Z</time>
      </trkpt>
      <trkpt lat="49.17991" lon="-0.18639">
        <ele>30.8</ele>
        <time>2024-07-03T12:39:34Z</time>
      </trkpt>
      <trkpt lat="49.17989" lon="-0.18639">
        <ele>31</ele>
        <time>2024-07-03T12:39:35Z</time>
      </trkpt>
      <trkpt lat="49.17988" lon="-0.18639">
        <ele>31.2</ele>
        <time>2024-07-03T12:39:36Z</time>
      </trkpt>
      <trkpt lat="49.17986" lon="-0.1864">
        <ele>31.2</ele>
        <time>2024-07-03T12:39:37Z</time>
      </trkpt>
      <trkpt lat="49.17985" lon="-0.18642">
        <ele>31.2</ele>
        <time>2024-07-03T12:39:38Z</time>
      </trkpt>
      <trkpt lat="49.17983" lon="-0.18644">
        <ele>31.2</ele>
        <time>2024-07-03T12:39:39Z</time>
      </trkpt>
      <trkpt lat="49.17979" lon="-0.18648">
        <ele>31.2</ele>
        <time>2024-07-03T12:39:40Z</time>
      </trkpt>
      <trkpt lat="49.17976" lon="-0.18653">
        <ele>30.8</ele>
        <time>2024-07-03T12:39:41Z</time>
      </trkpt>
      <trkpt lat="49.17974" lon="-0.18658">
        <ele>30.6</ele>
        <time>2024-07-03T12:39:42Z</time>
      </trkpt>
      <trkpt lat="49.17972" lon="-0.18664">
        <ele>30.2</ele>
        <time>2024-07-03T12:39:43Z</time>
      </trkpt>
      <trkpt lat="49.17971" lon="-0.18671">
        <ele>30</ele>
        <time>2024-07-03T12:39:44Z</time>
      </trkpt>
      <trkpt lat="49.1797" lon="-0.18678">
        <ele>29.8</ele>
        <time>2024-07-03T12:39:45Z</time>
      </trkpt>
      <trkpt lat="49.17969" lon="-0.18686">
        <ele>29.6</ele>
        <time>2024-07-03T12:39:46Z</time>
      </trkpt>
      <trkpt lat="49.17968" lon="-0.18693">
        <ele>29.6</ele>
        <time>2024-07-03T12:39:47Z</time>
      </trkpt>
      <trkpt lat="49.17968" lon="-0.187">
        <ele>29.8</ele>
        <time>2024-07-03T12:39:48Z</time>
      </trkpt>
      <trkpt lat="49.17968" lon="-0.18707">
        <ele>30.2</ele>
        <time>2024-07-03T12:39:49Z</time>
      </trkpt>
      <trkpt lat="49.17967" lon="-0.18715">
        <ele>30.6</ele>
        <time>2024-07-03T12:39:50Z</time>
      </trkpt>
      <trkpt lat="49.17966" lon="-0.18724">
        <ele>30.6</ele>
        <time>2024-07-03T12:39:51Z</time>
      </trkpt>
      <trkpt lat="49.17966" lon="-0.18732">
        <ele>30.8</ele>
        <time>2024-07-03T12:39:52Z</time>
      </trkpt>
      <trkpt lat="49.17965" lon="-0.1874">
        <ele>30.4</ele>
        <time>2024-07-03T12:39:53Z</time>
      </trkpt>
      <trkpt lat="49.17964" lon="-0.18749">
        <ele>30.2</ele>
        <time>2024-07-03T12:39:54Z</time>
      </trkpt>
      <trkpt lat="49.17964" lon="-0.18757">
        <ele>30</ele>
        <time>2024-07-03T12:39:55Z</time>
      </trkpt>
      <trkpt lat="49.17963" lon="-0.18764">
        <ele>30</ele>
        <time>2024-07-03T12:39:56Z</time>
      </trkpt>
      <trkpt lat="49.17963" lon="-0.18771">
        <ele>30</ele>
        <time>2024-07-03T12:39:57Z</time>
      </trkpt>
      <trkpt lat="49.17963" lon="-0.18777">
        <ele>30</ele>
        <time>2024-07-03T12:39:58Z</time>
      </trkpt>
      <trkpt lat="49.17962" lon="-0.18784">
        <ele>30.2</ele>
        <time>2024-07-03T12:39:59Z</time>
      </trkpt>
      <trkpt lat="49.17962" lon="-0.1879">
        <ele>30.2</ele>
        <time>2024-07-03T12:40:00Z</time>
      </trkpt>
      <trkpt lat="49.17962" lon="-0.18797">
        <ele>30.4</ele>
        <time>2024-07-03T12:40:01Z</time>
      </trkpt>
      <trkpt lat="49.17962" lon="-0.18805">
        <ele>30.6</ele>
        <time>2024-07-03T12:40:02Z</time>
      </trkpt>
      <trkpt lat="49.17962" lon="-0.18813">
        <ele>30.8</ele>
        <time>2024-07-03T12:40:03Z</time>
      </trkpt>
      <trkpt lat="49.17962" lon="-0.18821">
        <ele>30.6</ele>
        <time>2024-07-03T12:40:04Z</time>
      </trkpt>
      <trkpt lat="49.17961" lon="-0.18829">
        <ele>30.4</ele>
        <time>2024-07-03T12:40:05Z</time>
      </trkpt>
      <trkpt lat="49.17961" lon="-0.18837">
        <ele>30.4</ele>
        <time>2024-07-03T12:40:06Z</time>
      </trkpt>
      <trkpt lat="49.17961" lon="-0.18846">
        <ele>30.2</ele>
        <time>2024-07-03T12:40:07Z</time>
      </trkpt>
      <trkpt lat="49.17961" lon="-0.18854">
        <ele>29.8</ele>
        <time>2024-07-03T12:40:08Z</time>
      </trkpt>
      <trkpt lat="49.17959" lon="-0.18862">
        <ele>29.8</ele>
        <time>2024-07-03T12:40:09Z</time>
      </trkpt>
      <trkpt lat="49.17957" lon="-0.1887">
        <ele>29.6</ele>
        <time>2024-07-03T12:40:10Z</time>
      </trkpt>
      <trkpt lat="49.17953" lon="-0.18877">
        <ele>29.6</ele>
        <time>2024-07-03T12:40:11Z</time>
      </trkpt>
      <trkpt lat="49.17949" lon="-0.18884">
        <ele>29.8</ele>
        <time>2024-07-03T12:40:12Z</time>
      </trkpt>
      <trkpt lat="49.17944" lon="-0.18891">
        <ele>29.8</ele>
        <time>2024-07-03T12:40:13Z</time>
      </trkpt>
      <trkpt lat="49.17939" lon="-0.18898">
        <ele>29.8</ele>
        <time>2024-07-03T12:40:14Z</time>
      </trkpt>
      <trkpt lat="49.17933" lon="-0.18906">
        <ele>30</ele>
        <time>2024-07-03T12:40:15Z</time>
      </trkpt>
      <trkpt lat="49.17928" lon="-0.18913">
        <ele>29.8</ele>
        <time>2024-07-03T12:40:16Z</time>
      </trkpt>
      <trkpt lat="49.17922" lon="-0.18921">
        <ele>29.4</ele>
        <time>2024-07-03T12:40:17Z</time>
      </trkpt>
      <trkpt lat="49.17916" lon="-0.18928">
        <ele>29.2</ele>
        <time>2024-07-03T12:40:18Z</time>
      </trkpt>
      <trkpt lat="49.1791" lon="-0.18936">
        <ele>29</ele>
        <time>2024-07-03T12:40:19Z</time>
      </trkpt>
      <trkpt lat="49.17904" lon="-0.18943">
        <ele>29</ele>
        <time>2024-07-03T12:40:20Z</time>
      </trkpt>
      <trkpt lat="49.17898" lon="-0.18949">
        <ele>29.2</ele>
        <time>2024-07-03T12:40:21Z</time>
      </trkpt>
      <trkpt lat="49.17892" lon="-0.18956">
        <ele>29.4</ele>
        <time>2024-07-03T12:40:22Z</time>
      </trkpt>
      <trkpt lat="49.17886" lon="-0.18963">
        <ele>29.8</ele>
        <time>2024-07-03T12:40:23Z</time>
      </trkpt>
      <trkpt lat="49.17879" lon="-0.18969">
        <ele>30</ele>
        <time>2024-07-03T12:40:24Z</time>
      </trkpt>
      <trkpt lat="49.17873" lon="-0.18974">
        <ele>30.2</ele>
        <time>2024-07-03T12:40:25Z</time>
      </trkpt>
      <trkpt lat="49.17867" lon="-0.1898">
        <ele>30.2</ele>
        <time>2024-07-03T12:40:26Z</time>
      </trkpt>
      <trkpt lat="49.17861" lon="-0.18987">
        <ele>30.4</ele>
        <time>2024-07-03T12:40:27Z</time>
      </trkpt>
      <trkpt lat="49.17855" lon="-0.18993">
        <ele>30.4</ele>
        <time>2024-07-03T12:40:28Z</time>
      </trkpt>
      <trkpt lat="49.17849" lon="-0.18999">
        <ele>30.6</ele>
        <time>2024-07-03T12:40:29Z</time>
      </trkpt>
      <trkpt lat="49.17844" lon="-0.19004">
        <ele>30.8</ele>
        <time>2024-07-03T12:40:30Z</time>
      </trkpt>
      <trkpt lat="49.17839" lon="-0.19008">
        <ele>30.8</ele>
        <time>2024-07-03T12:40:31Z</time>
      </trkpt>
      <trkpt lat="49.17834" lon="-0.19012">
        <ele>31</ele>
        <time>2024-07-03T12:40:32Z</time>
      </trkpt>
      <trkpt lat="49.1783" lon="-0.19017">
        <ele>31</ele>
        <time>2024-07-03T12:40:33Z</time>
      </trkpt>
      <trkpt lat="49.17826" lon="-0.19023">
        <ele>31.2</ele>
        <time>2024-07-03T12:40:34Z</time>
      </trkpt>
      <trkpt lat="49.17821" lon="-0.19028">
        <ele>31.2</ele>
        <time>2024-07-03T12:40:35Z</time>
      </trkpt>
      <trkpt lat="49.17817" lon="-0.19033">
        <ele>31.2</ele>
        <time>2024-07-03T12:40:36Z</time>
      </trkpt>
      <trkpt lat="49.17813" lon="-0.19038">
        <ele>31.2</ele>
        <time>2024-07-03T12:40:37Z</time>
      </trkpt>
      <trkpt lat="49.17808" lon="-0.19044">
        <ele>31.2</ele>
        <time>2024-07-03T12:40:38Z</time>
      </trkpt>
      <trkpt lat="49.17803" lon="-0.19051">
        <ele>31.2</ele>
        <time>2024-07-03T12:40:39Z</time>
      </trkpt>
      <trkpt lat="49.17798" lon="-0.19057">
        <ele>31</ele>
        <time>2024-07-03T12:40:40Z</time>
      </trkpt>
      <trkpt lat="49.17794" lon="-0.19063">
        <ele>31</ele>
        <time>2024-07-03T12:40:41Z</time>
      </trkpt>
      <trkpt lat="49.17789" lon="-0.1907">
        <ele>31</ele>
        <time>2024-07-03T12:40:42Z</time>
      </trkpt>
      <trkpt lat="49.17785" lon="-0.19077">
        <ele>30.8</ele>
        <time>2024-07-03T12:40:43Z</time>
      </trkpt>
      <trkpt lat="49.17782" lon="-0.19085">
        <ele>30.8</ele>
        <time>2024-07-03T12:40:44Z</time>
      </trkpt>
      <trkpt lat="49.17778" lon="-0.19091">
        <ele>30.8</ele>
        <time>2024-07-03T12:40:45Z</time>
      </trkpt>
      <trkpt lat="49.17774" lon="-0.19098">
        <ele>30.8</ele>
        <time>2024-07-03T12:40:46Z</time>
      </trkpt>
      <trkpt lat="49.1777" lon="-0.19105">
        <ele>30.8</ele>
        <time>2024-07-03T12:40:47Z</time>
      </trkpt>
      <trkpt lat="49.17766" lon="-0.19112">
        <ele>30.8</ele>
        <time>2024-07-03T12:40:48Z</time>
      </trkpt>
      <trkpt lat="49.17762" lon="-0.19119">
        <ele>30.6</ele>
        <time>2024-07-03T12:40:49Z</time>
      </trkpt>
      <trkpt lat="49.17757" lon="-0.19126">
        <ele>30.6</ele>
        <time>2024-07-03T12:40:50Z</time>
      </trkpt>
      <trkpt lat="49.17753" lon="-0.19134">
        <ele>30.6</ele>
        <time>2024-07-03T12:40:51Z</time>
      </trkpt>
      <trkpt lat="49.17749" lon="-0.19141">
        <ele>30.6</ele>
        <time>2024-07-03T12:40:52Z</time>
      </trkpt>
      <trkpt lat="49.17745" lon="-0.19148">
        <ele>30.6</ele>
        <time>2024-07-03T12:40:53Z</time>
      </trkpt>
      <trkpt lat="49.17741" lon="-0.19156">
        <ele>30.4</ele>
        <time>2024-07-03T12:40:54Z</time>
      </trkpt>
      <trkpt lat="49.17736" lon="-0.19164">
        <ele>30.4</ele>
        <time>2024-07-03T12:40:55Z</time>
      </trkpt>
      <trkpt lat="49.17731" lon="-0.19173">
        <ele>30.6</ele>
        <time>2024-07-03T12:40:56Z</time>
      </trkpt>
      <trkpt lat="49.17727" lon="-0.19181">
        <ele>30.6</ele>
        <time>2024-07-03T12:40:57Z</time>
      </trkpt>
      <trkpt lat="49.17723" lon="-0.1919">
        <ele>30.8</ele>
        <time>2024-07-03T12:40:58Z</time>
      </trkpt>
      <trkpt lat="49.17718" lon="-0.19198">
        <ele>31</ele>
        <time>2024-07-03T12:40:59Z</time>
      </trkpt>
      <trkpt lat="49.17714" lon="-0.19206">
        <ele>31</ele>
        <time>2024-07-03T12:41:00Z</time>
      </trkpt>
      <trkpt lat="49.1771" lon="-0.19215">
        <ele>31</ele>
        <time>2024-07-03T12:41:01Z</time>
      </trkpt>
      <trkpt lat="49.17706" lon="-0.19223">
        <ele>31</ele>
        <time>2024-07-03T12:41:02Z</time>
      </trkpt>
      <trkpt lat="49.17702" lon="-0.19231">
        <ele>30.8</ele>
        <time>2024-07-03T12:41:03Z</time>
      </trkpt>
      <trkpt lat="49.17699" lon="-0.1924">
        <ele>30.4</ele>
        <time>2024-07-03T12:41:04Z</time>
      </trkpt>
      <trkpt lat="49.17695" lon="-0.19248">
        <ele>30.2</ele>
        <time>2024-07-03T12:41:05Z</time>
      </trkpt>
      <trkpt lat="49.17691" lon="-0.19257">
        <ele>29.8</ele>
        <time>2024-07-03T12:41:06Z</time>
      </trkpt>
      <trkpt lat="49.17688" lon="-0.19265">
        <ele>29.6</ele>
        <time>2024-07-03T12:41:07Z</time>
      </trkpt>
      <trkpt lat="49.17684" lon="-0.19274">
        <ele>29.6</ele>
        <time>2024-07-03T12:41:08Z</time>
      </trkpt>
      <trkpt lat="49.1768" lon="-0.19283">
        <ele>29.6</ele>
        <time>2024-07-03T12:41:09Z</time>
      </trkpt>
      <trkpt lat="49.17677" lon="-0.19291">
        <ele>29.6</ele>
        <time>2024-07-03T12:41:10Z</time>
      </trkpt>
      <trkpt lat="49.17673" lon="-0.193">
        <ele>29.6</ele>
        <time>2024-07-03T12:41:11Z</time>
      </trkpt>
      <trkpt lat="49.17669" lon="-0.19309">
        <ele>29.6</ele>
        <time>2024-07-03T12:41:12Z</time>
      </trkpt>
      <trkpt lat="49.17666" lon="-0.19318">
        <ele>29.6</ele>
        <time>2024-07-03T12:41:13Z</time>
      </trkpt>
      <trkpt lat="49.17662" lon="-0.19327">
        <ele>29.8</ele>
        <time>2024-07-03T12:41:14Z</time>
      </trkpt>
      <trkpt lat="49.17659" lon="-0.19336">
        <ele>29.8</ele>
        <time>2024-07-03T12:41:15Z</time>
      </trkpt>
      <trkpt lat="49.17656" lon="-0.19345">
        <ele>29.6</ele>
        <time>2024-07-03T12:41:16Z</time>
      </trkpt>
      <trkpt lat="49.17654" lon="-0.19352">
        <ele>29.2</ele>
        <time>2024-07-03T12:41:17Z</time>
      </trkpt>
      <trkpt lat="49.17651" lon="-0.19362">
        <ele>28.6</ele>
        <time>2024-07-03T12:41:18Z</time>
      </trkpt>
      <trkpt lat="49.17648" lon="-0.19372">
        <ele>28</ele>
        <time>2024-07-03T12:41:19Z</time>
      </trkpt>
      <trkpt lat="49.17645" lon="-0.19382">
        <ele>27.8</ele>
        <time>2024-07-03T12:41:20Z</time>
      </trkpt>
      <trkpt lat="49.17643" lon="-0.19393">
        <ele>27.6</ele>
        <time>2024-07-03T12:41:21Z</time>
      </trkpt>
      <trkpt lat="49.1764" lon="-0.19404">
        <ele>27.2</ele>
        <time>2024-07-03T12:41:22Z</time>
      </trkpt>
      <trkpt lat="49.17638" lon="-0.19415">
        <ele>26.4</ele>
        <time>2024-07-03T12:41:23Z</time>
      </trkpt>
      <trkpt lat="49.17635" lon="-0.19429">
        <ele>25.2</ele>
        <time>2024-07-03T12:41:24Z</time>
      </trkpt>
      <trkpt lat="49.17631" lon="-0.19444">
        <ele>24</ele>
        <time>2024-07-03T12:41:25Z</time>
      </trkpt>
      <trkpt lat="49.17628" lon="-0.19461">
        <ele>23</ele>
        <time>2024-07-03T12:41:26Z</time>
      </trkpt>
      <trkpt lat="49.17623" lon="-0.19478">
        <ele>21.8</ele>
        <time>2024-07-03T12:41:27Z</time>
      </trkpt>
      <trkpt lat="49.17618" lon="-0.19495">
        <ele>21</ele>
        <time>2024-07-03T12:41:28Z</time>
      </trkpt>
      <trkpt lat="49.17614" lon="-0.19512">
        <ele>20.4</ele>
        <time>2024-07-03T12:41:29Z</time>
      </trkpt>
      <trkpt lat="49.1761" lon="-0.1953">
        <ele>19.2</ele>
        <time>2024-07-03T12:41:30Z</time>
      </trkpt>
      <trkpt lat="49.17606" lon="-0.19547">
        <ele>17.8</ele>
        <time>2024-07-03T12:41:31Z</time>
      </trkpt>
      <trkpt lat="49.17602" lon="-0.19563">
        <ele>16.6</ele>
        <time>2024-07-03T12:41:32Z</time>
      </trkpt>
      <trkpt lat="49.17597" lon="-0.1958">
        <ele>15.6</ele>
        <time>2024-07-03T12:41:33Z</time>
      </trkpt>
      <trkpt lat="49.1759" lon="-0.19598">
        <ele>14.4</ele>
        <time>2024-07-03T12:41:34Z</time>
      </trkpt>
      <trkpt lat="49.17584" lon="-0.19616">
        <ele>13.4</ele>
        <time>2024-07-03T12:41:35Z</time>
      </trkpt>
      <trkpt lat="49.17579" lon="-0.19634">
        <ele>12</ele>
        <time>2024-07-03T12:41:36Z</time>
      </trkpt>
      <trkpt lat="49.17573" lon="-0.19651">
        <ele>10.6</ele>
        <time>2024-07-03T12:41:37Z</time>
      </trkpt>
      <trkpt lat="49.17567" lon="-0.19669">
        <ele>9.4</ele>
        <time>2024-07-03T12:41:38Z</time>
      </trkpt>
      <trkpt lat="49.1756" lon="-0.19685">
        <ele>8.4</ele>
        <time>2024-07-03T12:41:39Z</time>
      </trkpt>
      <trkpt lat="49.17554" lon="-0.19702">
        <ele>7.2</ele>
        <time>2024-07-03T12:41:40Z</time>
      </trkpt>
      <trkpt lat="49.17548" lon="-0.1972">
        <ele>6.4</ele>
        <time>2024-07-03T12:41:41Z</time>
      </trkpt>
      <trkpt lat="49.17545" lon="-0.19738">
        <ele>5.8</ele>
        <time>2024-07-03T12:41:42Z</time>
      </trkpt>
      <trkpt lat="49.17541" lon="-0.19756">
        <ele>5.6</ele>
        <time>2024-07-03T12:41:43Z</time>
      </trkpt>
      <trkpt lat="49.17538" lon="-0.19773">
        <ele>5.4</ele>
        <time>2024-07-03T12:41:44Z</time>
      </trkpt>
      <trkpt lat="49.17534" lon="-0.19789">
        <ele>5.4</ele>
        <time>2024-07-03T12:41:45Z</time>
      </trkpt>
      <trkpt lat="49.17531" lon="-0.19806">
        <ele>5.2</ele>
        <time>2024-07-03T12:41:46Z</time>
      </trkpt>
      <trkpt lat="49.17528" lon="-0.19822">
        <ele>5</ele>
        <time>2024-07-03T12:41:47Z</time>
      </trkpt>
      <trkpt lat="49.17525" lon="-0.19837">
        <ele>4.8</ele>
        <time>2024-07-03T12:41:48Z</time>
      </trkpt>
      <trkpt lat="49.17521" lon="-0.19854">
        <ele>4.6</ele>
        <time>2024-07-03T12:41:49Z</time>
      </trkpt>
      <trkpt lat="49.17518" lon="-0.19869">
        <ele>4.4</ele>
        <time>2024-07-03T12:41:50Z</time>
      </trkpt>
      <trkpt lat="49.17514" lon="-0.19885">
        <ele>4.2</ele>
        <time>2024-07-03T12:41:51Z</time>
      </trkpt>
      <trkpt lat="49.17511" lon="-0.199">
        <ele>4</ele>
        <time>2024-07-03T12:41:52Z</time>
      </trkpt>
      <trkpt lat="49.17508" lon="-0.19914">
        <ele>3.6</ele>
        <time>2024-07-03T12:41:53Z</time>
      </trkpt>
      <trkpt lat="49.17505" lon="-0.19929">
        <ele>3.2</ele>
        <time>2024-07-03T12:41:54Z</time>
      </trkpt>
      <trkpt lat="49.17502" lon="-0.19943">
        <ele>3.2</ele>
        <time>2024-07-03T12:41:55Z</time>
      </trkpt>
      <trkpt lat="49.17498" lon="-0.19958">
        <ele>3.2</ele>
        <time>2024-07-03T12:41:56Z</time>
      </trkpt>
      <trkpt lat="49.17495" lon="-0.19973">
        <ele>3.2</ele>
        <time>2024-07-03T12:41:57Z</time>
      </trkpt>
      <trkpt lat="49.17491" lon="-0.19988">
        <ele>3.2</ele>
        <time>2024-07-03T12:41:58Z</time>
      </trkpt>
      <trkpt lat="49.17488" lon="-0.20003">
        <ele>3.6</ele>
        <time>2024-07-03T12:41:59Z</time>
      </trkpt>
      <trkpt lat="49.17485" lon="-0.20018">
        <ele>3.6</ele>
        <time>2024-07-03T12:42:00Z</time>
      </trkpt>
      <trkpt lat="49.17481" lon="-0.20034">
        <ele>3.8</ele>
        <time>2024-07-03T12:42:01Z</time>
      </trkpt>
      <trkpt lat="49.17477" lon="-0.20049">
        <ele>3.6</ele>
        <time>2024-07-03T12:42:02Z</time>
      </trkpt>
      <trkpt lat="49.17474" lon="-0.20065">
        <ele>3.2</ele>
        <time>2024-07-03T12:42:03Z</time>
      </trkpt>
      <trkpt lat="49.17471" lon="-0.20081">
        <ele>3</ele>
        <time>2024-07-03T12:42:04Z</time>
      </trkpt>
      <trkpt lat="49.17468" lon="-0.20096">
        <ele>2.6</ele>
        <time>2024-07-03T12:42:05Z</time>
      </trkpt>
      <trkpt lat="49.17464" lon="-0.20111">
        <ele>2.4</ele>
        <time>2024-07-03T12:42:06Z</time>
      </trkpt>
      <trkpt lat="49.17461" lon="-0.20126">
        <ele>2.2</ele>
        <time>2024-07-03T12:42:07Z</time>
      </trkpt>
      <trkpt lat="49.17458" lon="-0.20142">
        <ele>2</ele>
        <time>2024-07-03T12:42:08Z</time>
      </trkpt>
      <trkpt lat="49.17455" lon="-0.20156">
        <ele>1.8</ele>
        <time>2024-07-03T12:42:09Z</time>
      </trkpt>
      <trkpt lat="49.17451" lon="-0.20172">
        <ele>1.6</ele>
        <time>2024-07-03T12:42:10Z</time>
      </trkpt>
      <trkpt lat="49.17447" lon="-0.20187">
        <ele>1.6</ele>
        <time>2024-07-03T12:42:11Z</time>
      </trkpt>
      <trkpt lat="49.17444" lon="-0.20202">
        <ele>1.6</ele>
        <time>2024-07-03T12:42:12Z</time>
      </trkpt>
      <trkpt lat="49.1744" lon="-0.20217">
        <ele>1.4</ele>
        <time>2024-07-03T12:42:13Z</time>
      </trkpt>
      <trkpt lat="49.17437" lon="-0.20232">
        <ele>1.2</ele>
        <time>2024-07-03T12:42:14Z</time>
      </trkpt>
      <trkpt lat="49.17434" lon="-0.20247">
        <ele>1</ele>
        <time>2024-07-03T12:42:15Z</time>
      </trkpt>
      <trkpt lat="49.17431" lon="-0.20261">
        <ele>0.8</ele>
        <time>2024-07-03T12:42:16Z</time>
      </trkpt>
      <trkpt lat="49.17428" lon="-0.20276">
        <ele>0.6</ele>
        <time>2024-07-03T12:42:17Z</time>
      </trkpt>
      <trkpt lat="49.17425" lon="-0.2029">
        <ele>0.4</ele>
        <time>2024-07-03T12:42:18Z</time>
      </trkpt>
      <trkpt lat="49.17423" lon="-0.20304">
        <ele>0.2</ele>
        <time>2024-07-03T12:42:19Z</time>
      </trkpt>
      <trkpt lat="49.1742" lon="-0.20318">
        <ele>8</ele>
        <time>2024-07-03T12:42:20Z</time>
      </trkpt>
      <trkpt lat="49.17418" lon="-0.20332">
        <ele>-0.4</ele>
        <time>2024-07-03T12:42:21Z</time>
      </trkpt>
      <trkpt lat="49.17416" lon="-0.20346">
        <ele>-0.8</ele>
        <time>2024-07-03T12:42:22Z</time>
      </trkpt>
      <trkpt lat="49.17414" lon="-0.2036">
        <ele>-1.4</ele>
        <time>2024-07-03T12:42:23Z</time>
      </trkpt>
      <trkpt lat="49.17412" lon="-0.20373">
        <ele>-1.6</ele>
        <time>2024-07-03T12:42:24Z</time>
      </trkpt>
      <trkpt lat="49.1741" lon="-0.20387">
        <ele>-1.8</ele>
        <time>2024-07-03T12:42:25Z</time>
      </trkpt>
      <trkpt lat="49.17408" lon="-0.204">
        <ele>-2</ele>
        <time>2024-07-03T12:42:26Z</time>
      </trkpt>
      <trkpt lat="49.17406" lon="-0.20414">
        <ele>-1.6</ele>
        <time>2024-07-03T12:42:27Z</time>
      </trkpt>
      <trkpt lat="49.17403" lon="-0.20427">
        <ele>-0.8</ele>
        <time>2024-07-03T12:42:28Z</time>
      </trkpt>
      <trkpt lat="49.174" lon="-0.2044">
        <ele>-0.4</ele>
        <time>2024-07-03T12:42:29Z</time>
      </trkpt>
      <trkpt lat="49.17397" lon="-0.20453">
        <ele>-0.2</ele>
        <time>2024-07-03T12:42:30Z</time>
      </trkpt>
      <trkpt lat="49.17394" lon="-0.20466">
        <ele>0.2</ele>
        <time>2024-07-03T12:42:31Z</time>
      </trkpt>
      <trkpt lat="49.17392" lon="-0.2048">
        <ele>0.4</ele>
        <time>2024-07-03T12:42:32Z</time>
      </trkpt>
      <trkpt lat="49.17389" lon="-0.20493">
        <ele>0.6</ele>
        <time>2024-07-03T12:42:33Z</time>
      </trkpt>
      <trkpt lat="49.17387" lon="-0.20507">
        <ele>0.6</ele>
        <time>2024-07-03T12:42:34Z</time>
      </trkpt>
      <trkpt lat="49.17385" lon="-0.2052">
        <ele>1</ele>
        <time>2024-07-03T12:42:35Z</time>
      </trkpt>
      <trkpt lat="49.17383" lon="-0.20533">
        <ele>1.2</ele>
        <time>2024-07-03T12:42:36Z</time>
      </trkpt>
      <trkpt lat="49.17381" lon="-0.20544">
        <ele>1.2</ele>
        <time>2024-07-03T12:42:37Z</time>
      </trkpt>
      <trkpt lat="49.17379" lon="-0.20556">
        <ele>1.2</ele>
        <time>2024-07-03T12:42:38Z</time>
      </trkpt>
      <trkpt lat="49.17376" lon="-0.20567">
        <ele>1.4</ele>
        <time>2024-07-03T12:42:39Z</time>
      </trkpt>
      <trkpt lat="49.17372" lon="-0.20577">
        <ele>1.4</ele>
        <time>2024-07-03T12:42:40Z</time>
      </trkpt>
      <trkpt lat="49.17367" lon="-0.20585">
        <ele>1.4</ele>
        <time>2024-07-03T12:42:41Z</time>
      </trkpt>
      <trkpt lat="49.17361" lon="-0.20592">
        <ele>1.4</ele>
        <time>2024-07-03T12:42:42Z</time>
      </trkpt>
      <trkpt lat="49.17354" lon="-0.20597">
        <ele>1.2</ele>
        <time>2024-07-03T12:42:43Z</time>
      </trkpt>
      <trkpt lat="49.17347" lon="-0.20601">
        <ele>1.2</ele>
        <time>2024-07-03T12:42:44Z</time>
      </trkpt>
      <trkpt lat="49.17339" lon="-0.20603">
        <ele>1.2</ele>
        <time>2024-07-03T12:42:45Z</time>
      </trkpt>
      <trkpt lat="49.17331" lon="-0.20605">
        <ele>1.2</ele>
        <time>2024-07-03T12:42:46Z</time>
      </trkpt>
      <trkpt lat="49.17323" lon="-0.20606">
        <ele>1.2</ele>
        <time>2024-07-03T12:42:47Z</time>
      </trkpt>
      <trkpt lat="49.17314" lon="-0.20608">
        <ele>1.2</ele>
        <time>2024-07-03T12:42:48Z</time>
      </trkpt>
      <trkpt lat="49.17307" lon="-0.2061">
        <ele>1.2</ele>
        <time>2024-07-03T12:42:49Z</time>
      </trkpt>
      <trkpt lat="49.17299" lon="-0.20613">
        <ele>1.2</ele>
        <time>2024-07-03T12:42:50Z</time>
      </trkpt>
      <trkpt lat="49.17291" lon="-0.20617">
        <ele>1.2</ele>
        <time>2024-07-03T12:42:51Z</time>
      </trkpt>
      <trkpt lat="49.17284" lon="-0.20622">
        <ele>1.2</ele>
        <time>2024-07-03T12:42:52Z</time>
      </trkpt>
      <trkpt lat="49.17277" lon="-0.20627">
        <ele>1.2</ele>
        <time>2024-07-03T12:42:53Z</time>
      </trkpt>
      <trkpt lat="49.17271" lon="-0.20633">
        <ele>1.4</ele>
        <time>2024-07-03T12:42:54Z</time>
      </trkpt>
      <trkpt lat="49.17265" lon="-0.20638">
        <ele>1.6</ele>
        <time>2024-07-03T12:42:55Z</time>
      </trkpt>
      <trkpt lat="49.17258" lon="-0.20644">
        <ele>1.8</ele>
        <time>2024-07-03T12:42:56Z</time>
      </trkpt>
      <trkpt lat="49.17252" lon="-0.2065">
        <ele>1.8</ele>
        <time>2024-07-03T12:42:57Z</time>
      </trkpt>
      <trkpt lat="49.17245" lon="-0.20656">
        <ele>1.8</ele>
        <time>2024-07-03T12:42:58Z</time>
      </trkpt>
      <trkpt lat="49.17237" lon="-0.20663">
        <ele>1.4</ele>
        <time>2024-07-03T12:42:59Z</time>
      </trkpt>
      <trkpt lat="49.1723" lon="-0.20669">
        <ele>1</ele>
        <time>2024-07-03T12:43:00Z</time>
      </trkpt>
      <trkpt lat="49.17223" lon="-0.20675">
        <ele>0.6</ele>
        <time>2024-07-03T12:43:01Z</time>
      </trkpt>
      <trkpt lat="49.17215" lon="-0.2068">
        <ele>0.4</ele>
        <time>2024-07-03T12:43:02Z</time>
      </trkpt>
      <trkpt lat="49.17208" lon="-0.20684">
        <ele>0.4</ele>
        <time>2024-07-03T12:43:03Z</time>
      </trkpt>
      <trkpt lat="49.17199" lon="-0.20687">
        <ele>0.4</ele>
        <time>2024-07-03T12:43:04Z</time>
      </trkpt>
      <trkpt lat="49.1719" lon="-0.20689">
        <ele>0.4</ele>
        <time>2024-07-03T12:43:05Z</time>
      </trkpt>
      <trkpt lat="49.17181" lon="-0.20691">
        <ele>0.4</ele>
        <time>2024-07-03T12:43:06Z</time>
      </trkpt>
      <trkpt lat="49.17173" lon="-0.20694">
        <ele>0.6</ele>
        <time>2024-07-03T12:43:07Z</time>
      </trkpt>
      <trkpt lat="49.17166" lon="-0.20696">
        <ele>1</ele>
        <time>2024-07-03T12:43:08Z</time>
      </trkpt>
      <trkpt lat="49.17158" lon="-0.20699">
        <ele>1.4</ele>
        <time>2024-07-03T12:43:09Z</time>
      </trkpt>
      <trkpt lat="49.1715" lon="-0.20702">
        <ele>1.8</ele>
        <time>2024-07-03T12:43:10Z</time>
      </trkpt>
      <trkpt lat="49.17143" lon="-0.20705">
        <ele>2.2</ele>
        <time>2024-07-03T12:43:11Z</time>
      </trkpt>
      <trkpt lat="49.17136" lon="-0.20708">
        <ele>2.4</ele>
        <time>2024-07-03T12:43:12Z</time>
      </trkpt>
      <trkpt lat="49.17129" lon="-0.20712">
        <ele>2.6</ele>
        <time>2024-07-03T12:43:13Z</time>
      </trkpt>
      <trkpt lat="49.17121" lon="-0.20717">
        <ele>2.8</ele>
        <time>2024-07-03T12:43:14Z</time>
      </trkpt>
      <trkpt lat="49.17113" lon="-0.20722">
        <ele>3</ele>
        <time>2024-07-03T12:43:15Z</time>
      </trkpt>
      <trkpt lat="49.17106" lon="-0.20728">
        <ele>3</ele>
        <time>2024-07-03T12:43:16Z</time>
      </trkpt>
      <trkpt lat="49.17099" lon="-0.20733">
        <ele>3.2</ele>
        <time>2024-07-03T12:43:17Z</time>
      </trkpt>
      <trkpt lat="49.17091" lon="-0.20739">
        <ele>3.2</ele>
        <time>2024-07-03T12:43:18Z</time>
      </trkpt>
      <trkpt lat="49.17084" lon="-0.20744">
        <ele>3</ele>
        <time>2024-07-03T12:43:19Z</time>
      </trkpt>
      <trkpt lat="49.17077" lon="-0.2075">
        <ele>2.8</ele>
        <time>2024-07-03T12:43:20Z</time>
      </trkpt>
      <trkpt lat="49.17071" lon="-0.20755">
        <ele>2.6</ele>
        <time>2024-07-03T12:43:21Z</time>
      </trkpt>
      <trkpt lat="49.17064" lon="-0.2076">
        <ele>2.6</ele>
        <time>2024-07-03T12:43:22Z</time>
      </trkpt>
      <trkpt lat="49.17058" lon="-0.20765">
        <ele>2.4</ele>
        <time>2024-07-03T12:43:23Z</time>
      </trkpt>
      <trkpt lat="49.17051" lon="-0.20771">
        <ele>2.4</ele>
        <time>2024-07-03T12:43:24Z</time>
      </trkpt>
      <trkpt lat="49.17045" lon="-0.20777">
        <ele>2.4</ele>
        <time>2024-07-03T12:43:25Z</time>
      </trkpt>
      <trkpt lat="49.17038" lon="-0.20782">
        <ele>2.6</ele>
        <time>2024-07-03T12:43:26Z</time>
      </trkpt>
      <trkpt lat="49.17032" lon="-0.20788">
        <ele>2.8</ele>
        <time>2024-07-03T12:43:27Z</time>
      </trkpt>
      <trkpt lat="49.17025" lon="-0.20794">
        <ele>2.8</ele>
        <time>2024-07-03T12:43:28Z</time>
      </trkpt>
      <trkpt lat="49.17019" lon="-0.208">
        <ele>3</ele>
        <time>2024-07-03T12:43:29Z</time>
      </trkpt>
      <trkpt lat="49.17012" lon="-0.20806">
        <ele>3</ele>
        <time>2024-07-03T12:43:30Z</time>
      </trkpt>
      <trkpt lat="49.17006" lon="-0.20811">
        <ele>3.2</ele>
        <time>2024-07-03T12:43:31Z</time>
      </trkpt>
      <trkpt lat="49.17" lon="-0.20817">
        <ele>3</ele>
        <time>2024-07-03T12:43:32Z</time>
      </trkpt>
      <trkpt lat="49.16995" lon="-0.20824">
        <ele>3</ele>
        <time>2024-07-03T12:43:33Z</time>
      </trkpt>
      <trkpt lat="49.16989" lon="-0.20831">
        <ele>2.8</ele>
        <time>2024-07-03T12:43:34Z</time>
      </trkpt>
      <trkpt lat="49.16984" lon="-0.20837">
        <ele>2.6</ele>
        <time>2024-07-03T12:43:35Z</time>
      </trkpt>
      <trkpt lat="49.16978" lon="-0.20845">
        <ele>2.6</ele>
        <time>2024-07-03T12:43:36Z</time>
      </trkpt>
      <trkpt lat="49.16972" lon="-0.20852">
        <ele>2.4</ele>
        <time>2024-07-03T12:43:37Z</time>
      </trkpt>
      <trkpt lat="49.16966" lon="-0.20859">
        <ele>2.6</ele>
        <time>2024-07-03T12:43:38Z</time>
      </trkpt>
      <trkpt lat="49.16961" lon="-0.20866">
        <ele>2.6</ele>
        <time>2024-07-03T12:43:39Z</time>
      </trkpt>
      <trkpt lat="49.16955" lon="-0.20873">
        <ele>2.6</ele>
        <time>2024-07-03T12:43:40Z</time>
      </trkpt>
      <trkpt lat="49.16948" lon="-0.20881">
        <ele>2.6</ele>
        <time>2024-07-03T12:43:41Z</time>
      </trkpt>
      <trkpt lat="49.16942" lon="-0.20888">
        <ele>2.6</ele>
        <time>2024-07-03T12:43:42Z</time>
      </trkpt>
      <trkpt lat="49.16935" lon="-0.20896">
        <ele>2.6</ele>
        <time>2024-07-03T12:43:43Z</time>
      </trkpt>
      <trkpt lat="49.16929" lon="-0.20903">
        <ele>2.6</ele>
        <time>2024-07-03T12:43:44Z</time>
      </trkpt>
      <trkpt lat="49.16923" lon="-0.2091">
        <ele>2.6</ele>
        <time>2024-07-03T12:43:45Z</time>
      </trkpt>
      <trkpt lat="49.16917" lon="-0.20917">
        <ele>2.6</ele>
        <time>2024-07-03T12:43:46Z</time>
      </trkpt>
      <trkpt lat="49.16911" lon="-0.20924">
        <ele>2.6</ele>
        <time>2024-07-03T12:43:47Z</time>
      </trkpt>
      <trkpt lat="49.16904" lon="-0.20931">
        <ele>2.6</ele>
        <time>2024-07-03T12:43:48Z</time>
      </trkpt>
      <trkpt lat="49.16898" lon="-0.20938">
        <ele>2.8</ele>
        <time>2024-07-03T12:43:49Z</time>
      </trkpt>
      <trkpt lat="49.16891" lon="-0.20944">
        <ele>3</ele>
        <time>2024-07-03T12:43:50Z</time>
      </trkpt>
      <trkpt lat="49.16883" lon="-0.20951">
        <ele>3</ele>
        <time>2024-07-03T12:43:51Z</time>
      </trkpt>
      <trkpt lat="49.16876" lon="-0.20958">
        <ele>3.2</ele>
        <time>2024-07-03T12:43:52Z</time>
      </trkpt>
      <trkpt lat="49.16869" lon="-0.20966">
        <ele>3</ele>
        <time>2024-07-03T12:43:53Z</time>
      </trkpt>
      <trkpt lat="49.16862" lon="-0.20974">
        <ele>2.4</ele>
        <time>2024-07-03T12:43:54Z</time>
      </trkpt>
      <trkpt lat="49.16855" lon="-0.20982">
        <ele>1.6</ele>
        <time>2024-07-03T12:43:55Z</time>
      </trkpt>
      <trkpt lat="49.16848" lon="-0.2099">
        <ele>1.2</ele>
        <time>2024-07-03T12:43:56Z</time>
      </trkpt>
      <trkpt lat="49.16841" lon="-0.20999">
        <ele>1</ele>
        <time>2024-07-03T12:43:57Z</time>
      </trkpt>
      <trkpt lat="49.16834" lon="-0.21008">
        <ele>0.8</ele>
        <time>2024-07-03T12:43:58Z</time>
      </trkpt>
      <trkpt lat="49.16827" lon="-0.21017">
        <ele>0.6</ele>
        <time>2024-07-03T12:43:59Z</time>
      </trkpt>
      <trkpt lat="49.16821" lon="-0.21026">
        <ele>0.4</ele>
        <time>2024-07-03T12:44:00Z</time>
      </trkpt>
      <trkpt lat="49.16815" lon="-0.21035">
        <ele>0.2</ele>
        <time>2024-07-03T12:44:01Z</time>
      </trkpt>
      <trkpt lat="49.16809" lon="-0.21044">
        <ele>0.2</ele>
        <time>2024-07-03T12:44:02Z</time>
      </trkpt>
      <trkpt lat="49.16803" lon="-0.21053">
        <ele>9</ele>
        <time>2024-07-03T12:44:03Z</time>
      </trkpt>
      <trkpt lat="49.16797" lon="-0.21062">
        <ele>-0.4</ele>
        <time>2024-07-03T12:44:04Z</time>
      </trkpt>
      <trkpt lat="49.16792" lon="-0.21071">
        <ele>-0.6</ele>
        <time>2024-07-03T12:44:05Z</time>
      </trkpt>
      <trkpt lat="49.16786" lon="-0.2108">
        <ele>-0.8</ele>
        <time>2024-07-03T12:44:06Z</time>
      </trkpt>
      <trkpt lat="49.16781" lon="-0.21089">
        <ele>-1</ele>
        <time>2024-07-03T12:44:07Z</time>
      </trkpt>
      <trkpt lat="49.16775" lon="-0.21097">
        <ele>-1</ele>
        <time>2024-07-03T12:44:08Z</time>
      </trkpt>
      <trkpt lat="49.1677" lon="-0.21106">
        <ele>-1</ele>
        <time>2024-07-03T12:44:09Z</time>
      </trkpt>
      <trkpt lat="49.16765" lon="-0.21114">
        <ele>-1</ele>
        <time>2024-07-03T12:44:10Z</time>
      </trkpt>
      <trkpt lat="49.1676" lon="-0.21124">
        <ele>-1</ele>
        <time>2024-07-03T12:44:11Z</time>
      </trkpt>
      <trkpt lat="49.16755" lon="-0.21133">
        <ele>-1.2</ele>
        <time>2024-07-03T12:44:12Z</time>
      </trkpt>
      <trkpt lat="49.16751" lon="-0.21143">
        <ele>-1.2</ele>
        <time>2024-07-03T12:44:13Z</time>
      </trkpt>
      <trkpt lat="49.16747" lon="-0.21153">
        <ele>-1.6</ele>
        <time>2024-07-03T12:44:14Z</time>
      </trkpt>
      <trkpt lat="49.16744" lon="-0.21163">
        <ele>-1.6</ele>
        <time>2024-07-03T12:44:15Z</time>
      </trkpt>
      <trkpt lat="49.16741" lon="-0.21173">
        <ele>-1.6</ele>
        <time>2024-07-03T12:44:16Z</time>
      </trkpt>
      <trkpt lat="49.16739" lon="-0.21183">
        <ele>-1.8</ele>
        <time>2024-07-03T12:44:17Z</time>
      </trkpt>
      <trkpt lat="49.16736" lon="-0.21193">
        <ele>-1.6</ele>
        <time>2024-07-03T12:44:18Z</time>
      </trkpt>
      <trkpt lat="49.16734" lon="-0.21203">
        <ele>-1.6</ele>
        <time>2024-07-03T12:44:19Z</time>
      </trkpt>
      <trkpt lat="49.16732" lon="-0.21214">
        <ele>-1.4</ele>
        <time>2024-07-03T12:44:20Z</time>
      </trkpt>
      <trkpt lat="49.16729" lon="-0.21224">
        <ele>-1.2</ele>
        <time>2024-07-03T12:44:21Z</time>
      </trkpt>
      <trkpt lat="49.16727" lon="-0.21235">
        <ele>-1.2</ele>
        <time>2024-07-03T12:44:22Z</time>
      </trkpt>
      <trkpt lat="49.16725" lon="-0.21245">
        <ele>-1</ele>
        <time>2024-07-03T12:44:23Z</time>
      </trkpt>
      <trkpt lat="49.16722" lon="-0.21255">
        <ele>-1.2</ele>
        <time>2024-07-03T12:44:24Z</time>
      </trkpt>
      <trkpt lat="49.1672" lon="-0.21266">
        <ele>-1.2</ele>
        <time>2024-07-03T12:44:25Z</time>
      </trkpt>
      <trkpt lat="49.16718" lon="-0.21276">
        <ele>-1</ele>
        <time>2024-07-03T12:44:26Z</time>
      </trkpt>
      <trkpt lat="49.16715" lon="-0.21286">
        <ele>-1</ele>
        <time>2024-07-03T12:44:27Z</time>
      </trkpt>
      <trkpt lat="49.16712" lon="-0.21296">
        <ele>-1</ele>
        <time>2024-07-03T12:44:28Z</time>
      </trkpt>
      <trkpt lat="49.16709" lon="-0.21306">
        <ele>-1</ele>
        <time>2024-07-03T12:44:29Z</time>
      </trkpt>
      <trkpt lat="49.16705" lon="-0.21316">
        <ele>-1</ele>
        <time>2024-07-03T12:44:30Z</time>
      </trkpt>
      <trkpt lat="49.16702" lon="-0.21326">
        <ele>-1</ele>
        <time>2024-07-03T12:44:31Z</time>
      </trkpt>
      <trkpt lat="49.16697" lon="-0.21336">
        <ele>-1</ele>
        <time>2024-07-03T12:44:32Z</time>
      </trkpt>
      <trkpt lat="49.16693" lon="-0.21344">
        <ele>-0.8</ele>
        <time>2024-07-03T12:44:33Z</time>
      </trkpt>
      <trkpt lat="49.16687" lon="-0.21352">
        <ele>-0.8</ele>
        <time>2024-07-03T12:44:34Z</time>
      </trkpt>
      <trkpt lat="49.16681" lon="-0.21359">
        <ele>-0.8</ele>
        <time>2024-07-03T12:44:35Z</time>
      </trkpt>
      <trkpt lat="49.16675" lon="-0.21364">
        <ele>-0.8</ele>
        <time>2024-07-03T12:44:36Z</time>
      </trkpt>
      <trkpt lat="49.16667" lon="-0.21368">
        <ele>-0.6</ele>
        <time>2024-07-03T12:44:37Z</time>
      </trkpt>
      <trkpt lat="49.1666" lon="-0.21371">
        <ele>-0.4</ele>
        <time>2024-07-03T12:44:38Z</time>
      </trkpt>
      <trkpt lat="49.16652" lon="-0.21372">
        <ele>8.4</ele>
        <time>2024-07-03T12:44:39Z</time>
      </trkpt>
      <trkpt lat="49.16645" lon="-0.21372">
        <ele>0.2</ele>
        <time>2024-07-03T12:44:40Z</time>
      </trkpt>
      <trkpt lat="49.16637" lon="-0.21372">
        <ele>0.6</ele>
        <time>2024-07-03T12:44:41Z</time>
      </trkpt>
      <trkpt lat="49.16629" lon="-0.21372">
        <ele>0.8</ele>
        <time>2024-07-03T12:44:42Z</time>
      </trkpt>
      <trkpt lat="49.16622" lon="-0.21372">
        <ele>1</ele>
        <time>2024-07-03T12:44:43Z</time>
      </trkpt>
      <trkpt lat="49.16614" lon="-0.21371">
        <ele>1</ele>
        <time>2024-07-03T12:44:44Z</time>
      </trkpt>
      <trkpt lat="49.16607" lon="-0.2137">
        <ele>1</ele>
        <time>2024-07-03T12:44:45Z</time>
      </trkpt>
      <trkpt lat="49.16599" lon="-0.21368">
        <ele>1</ele>
        <time>2024-07-03T12:44:46Z</time>
      </trkpt>
      <trkpt lat="49.16591" lon="-0.21367">
        <ele>1</ele>
        <time>2024-07-03T12:44:47Z</time>
      </trkpt>
      <trkpt lat="49.16584" lon="-0.21366">
        <ele>1</ele>
        <time>2024-07-03T12:44:48Z</time>
      </trkpt>
      <trkpt lat="49.16576" lon="-0.21364">
        <ele>1.2</ele>
        <time>2024-07-03T12:44:49Z</time>
      </trkpt>
      <trkpt lat="49.16568" lon="-0.21362">
        <ele>1.2</ele>
        <time>2024-07-03T12:44:50Z</time>
      </trkpt>
      <trkpt lat="49.16561" lon="-0.2136">
        <ele>1.2</ele>
        <time>2024-07-03T12:44:51Z</time>
      </trkpt>
      <trkpt lat="49.16553" lon="-0.21357">
        <ele>1.2</ele>
        <time>2024-07-03T12:44:52Z</time>
      </trkpt>
      <trkpt lat="49.16545" lon="-0.21355">
        <ele>1.4</ele>
        <time>2024-07-03T12:44:53Z</time>
      </trkpt>
      <trkpt lat="49.16538" lon="-0.21353">
        <ele>1.6</ele>
        <time>2024-07-03T12:44:54Z</time>
      </trkpt>
      <trkpt lat="49.1653" lon="-0.21351">
        <ele>1.8</ele>
        <time>2024-07-03T12:44:55Z</time>
      </trkpt>
      <trkpt lat="49.16522" lon="-0.2135">
        <ele>2</ele>
        <time>2024-07-03T12:44:56Z</time>
      </trkpt>
      <trkpt lat="49.16515" lon="-0.21349">
        <ele>2</ele>
        <time>2024-07-03T12:44:57Z</time>
      </trkpt>
      <trkpt lat="49.16507" lon="-0.21349">
        <ele>2.2</ele>
        <time>2024-07-03T12:44:58Z</time>
      </trkpt>
      <trkpt lat="49.165" lon="-0.21349">
        <ele>2.2</ele>
        <time>2024-07-03T12:44:59Z</time>
      </trkpt>
      <trkpt lat="49.16492" lon="-0.2135">
        <ele>2.4</ele>
        <time>2024-07-03T12:45:00Z</time>
      </trkpt>
      <trkpt lat="49.16485" lon="-0.21351">
        <ele>2.4</ele>
        <time>2024-07-03T12:45:01Z</time>
      </trkpt>
      <trkpt lat="49.16478" lon="-0.21352">
        <ele>2.4</ele>
        <time>2024-07-03T12:45:02Z</time>
      </trkpt>
      <trkpt lat="49.1647" lon="-0.21353">
        <ele>2.6</ele>
        <time>2024-07-03T12:45:03Z</time>
      </trkpt>
      <trkpt lat="49.16463" lon="-0.21354">
        <ele>2.6</ele>
        <time>2024-07-03T12:45:04Z</time>
      </trkpt>
      <trkpt lat="49.16455" lon="-0.21355">
        <ele>2.6</ele>
        <time>2024-07-03T12:45:05Z</time>
      </trkpt>
      <trkpt lat="49.16447" lon="-0.21357">
        <ele>2.6</ele>
        <time>2024-07-03T12:45:06Z</time>
      </trkpt>
      <trkpt lat="49.1644" lon="-0.21358">
        <ele>2.6</ele>
        <time>2024-07-03T12:45:07Z</time>
      </trkpt>
      <trkpt lat="49.16432" lon="-0.21359">
        <ele>2.6</ele>
        <time>2024-07-03T12:45:08Z</time>
      </trkpt>
      <trkpt lat="49.16424" lon="-0.21361">
        <ele>2.6</ele>
        <time>2024-07-03T12:45:09Z</time>
      </trkpt>
      <trkpt lat="49.16416" lon="-0.21363">
        <ele>2.4</ele>
        <time>2024-07-03T12:45:10Z</time>
      </trkpt>
      <trkpt lat="49.16408" lon="-0.21365">
        <ele>2.2</ele>
        <time>2024-07-03T12:45:11Z</time>
      </trkpt>
      <trkpt lat="49.16401" lon="-0.21367">
        <ele>2.2</ele>
        <time>2024-07-03T12:45:12Z</time>
      </trkpt>
      <trkpt lat="49.16393" lon="-0.2137">
        <ele>2.2</ele>
        <time>2024-07-03T12:45:13Z</time>
      </trkpt>
      <trkpt lat="49.16385" lon="-0.21374">
        <ele>2.2</ele>
        <time>2024-07-03T12:45:14Z</time>
      </trkpt>
      <trkpt lat="49.16378" lon="-0.21378">
        <ele>2.2</ele>
        <time>2024-07-03T12:45:15Z</time>
      </trkpt>
      <trkpt lat="49.16371" lon="-0.21384">
        <ele>2.2</ele>
        <time>2024-07-03T12:45:16Z</time>
      </trkpt>
      <trkpt lat="49.16364" lon="-0.21389">
        <ele>2.2</ele>
        <time>2024-07-03T12:45:17Z</time>
      </trkpt>
      <trkpt lat="49.16358" lon="-0.21395">
        <ele>2.2</ele>
        <time>2024-07-03T12:45:18Z</time>
      </trkpt>
      <trkpt lat="49.16351" lon="-0.21402">
        <ele>2</ele>
        <time>2024-07-03T12:45:19Z</time>
      </trkpt>
      <trkpt lat="49.16345" lon="-0.21408">
        <ele>2</ele>
        <time>2024-07-03T12:45:20Z</time>
      </trkpt>
      <trkpt lat="49.16339" lon="-0.21415">
        <ele>2</ele>
        <time>2024-07-03T12:45:21Z</time>
      </trkpt>
      <trkpt lat="49.16333" lon="-0.21422">
        <ele>1.8</ele>
        <time>2024-07-03T12:45:22Z</time>
      </trkpt>
      <trkpt lat="49.16327" lon="-0.2143">
        <ele>1.8</ele>
        <time>2024-07-03T12:45:23Z</time>
      </trkpt>
      <trkpt lat="49.16321" lon="-0.21437">
        <ele>1.8</ele>
        <time>2024-07-03T12:45:24Z</time>
      </trkpt>
      <trkpt lat="49.16314" lon="-0.21444">
        <ele>1.8</ele>
        <time>2024-07-03T12:45:25Z</time>
      </trkpt>
      <trkpt lat="49.16308" lon="-0.21451">
        <ele>1.8</ele>
        <time>2024-07-03T12:45:26Z</time>
      </trkpt>
      <trkpt lat="49.16302" lon="-0.21458">
        <ele>1.6</ele>
        <time>2024-07-03T12:45:27Z</time>
      </trkpt>
      <trkpt lat="49.16296" lon="-0.21464">
        <ele>1.6</ele>
        <time>2024-07-03T12:45:28Z</time>
      </trkpt>
      <trkpt lat="49.16289" lon="-0.21471">
        <ele>1.4</ele>
        <time>2024-07-03T12:45:29Z</time>
      </trkpt>
      <trkpt lat="49.16283" lon="-0.21478">
        <ele>1.4</ele>
        <time>2024-07-03T12:45:30Z</time>
      </trkpt>
      <trkpt lat="49.16277" lon="-0.21485">
        <ele>1.2</ele>
        <time>2024-07-03T12:45:31Z</time>
      </trkpt>
      <trkpt lat="49.16271" lon="-0.21492">
        <ele>1</ele>
        <time>2024-07-03T12:45:32Z</time>
      </trkpt>
      <trkpt lat="49.16265" lon="-0.21499">
        <ele>0.6</ele>
        <time>2024-07-03T12:45:33Z</time>
      </trkpt>
      <trkpt lat="49.16259" lon="-0.21506">
        <ele>0.6</ele>
        <time>2024-07-03T12:45:34Z</time>
      </trkpt>
      <trkpt lat="49.16253" lon="-0.21512">
        <ele>0.4</ele>
        <time>2024-07-03T12:45:35Z</time>
      </trkpt>
      <trkpt lat="49.16247" lon="-0.21519">
        <ele>0.4</ele>
        <time>2024-07-03T12:45:36Z</time>
      </trkpt>
      <trkpt lat="49.16241" lon="-0.21525">
        <ele>0.4</ele>
        <time>2024-07-03T12:45:37Z</time>
      </trkpt>
      <trkpt lat="49.16235" lon="-0.21532">
        <ele>0.4</ele>
        <time>2024-07-03T12:45:38Z</time>
      </trkpt>
      <trkpt lat="49.1623" lon="-0.2154">
        <ele>0.4</ele>
        <time>2024-07-03T12:45:39Z</time>
      </trkpt>
      <trkpt lat="49.16225" lon="-0.21548">
        <ele>0.6</ele>
        <time>2024-07-03T12:45:40Z</time>
      </trkpt>
      <trkpt lat="49.16219" lon="-0.21557">
        <ele>0.8</ele>
        <time>2024-07-03T12:45:41Z</time>
      </trkpt>
      <trkpt lat="49.16215" lon="-0.21566">
        <ele>0.8</ele>
        <time>2024-07-03T12:45:42Z</time>
      </trkpt>
      <trkpt lat="49.16211" lon="-0.21576">
        <ele>1</ele>
        <time>2024-07-03T12:45:43Z</time>
      </trkpt>
      <trkpt lat="49.16208" lon="-0.21586">
        <ele>1</ele>
        <time>2024-07-03T12:45:44Z</time>
      </trkpt>
      <trkpt lat="49.16205" lon="-0.21596">
        <ele>1</ele>
        <time>2024-07-03T12:45:45Z</time>
      </trkpt>
      <trkpt lat="49.16202" lon="-0.21606">
        <ele>1</ele>
        <time>2024-07-03T12:45:46Z</time>
      </trkpt>
      <trkpt lat="49.16199" lon="-0.21615">
        <ele>1</ele>
        <time>2024-07-03T12:45:47Z</time>
      </trkpt>
      <trkpt lat="49.16197" lon="-0.21625">
        <ele>1</ele>
        <time>2024-07-03T12:45:48Z</time>
      </trkpt>
      <trkpt lat="49.16195" lon="-0.21634">
        <ele>1</ele>
        <time>2024-07-03T12:45:49Z</time>
      </trkpt>
      <trkpt lat="49.16194" lon="-0.21643">
        <ele>1.2</ele>
        <time>2024-07-03T12:45:50Z</time>
      </trkpt>
      <trkpt lat="49.16192" lon="-0.21652">
        <ele>1.2</ele>
        <time>2024-07-03T12:45:51Z</time>
      </trkpt>
      <trkpt lat="49.16191" lon="-0.21661">
        <ele>1.2</ele>
        <time>2024-07-03T12:45:52Z</time>
      </trkpt>
      <trkpt lat="49.16189" lon="-0.21671">
        <ele>1.2</ele>
        <time>2024-07-03T12:45:53Z</time>
      </trkpt>
      <trkpt lat="49.16187" lon="-0.21681">
        <ele>1.2</ele>
        <time>2024-07-03T12:45:54Z</time>
      </trkpt>
      <trkpt lat="49.16185" lon="-0.21691">
        <ele>1.2</ele>
        <time>2024-07-03T12:45:55Z</time>
      </trkpt>
      <trkpt lat="49.16184" lon="-0.21702">
        <ele>1.2</ele>
        <time>2024-07-03T12:45:56Z</time>
      </trkpt>
      <trkpt lat="49.16182" lon="-0.21712">
        <ele>1</ele>
        <time>2024-07-03T12:45:57Z</time>
      </trkpt>
      <trkpt lat="49.16181" lon="-0.21723">
        <ele>0.8</ele>
        <time>2024-07-03T12:45:58Z</time>
      </trkpt>
      <trkpt lat="49.16179" lon="-0.21733">
        <ele>0.6</ele>
        <time>2024-07-03T12:45:59Z</time>
      </trkpt>
      <trkpt lat="49.16178" lon="-0.21743">
        <ele>0.4</ele>
        <time>2024-07-03T12:46:00Z</time>
      </trkpt>
      <trkpt lat="49.16177" lon="-0.21753">
        <ele>0.4</ele>
        <time>2024-07-03T12:46:01Z</time>
      </trkpt>
      <trkpt lat="49.16176" lon="-0.21763">
        <ele>0.4</ele>
        <time>2024-07-03T12:46:02Z</time>
      </trkpt>
      <trkpt lat="49.16175" lon="-0.21773">
        <ele>0.4</ele>
        <time>2024-07-03T12:46:03Z</time>
      </trkpt>
      <trkpt lat="49.16174" lon="-0.21783">
        <ele>0.4</ele>
        <time>2024-07-03T12:46:04Z</time>
      </trkpt>
      <trkpt lat="49.16173" lon="-0.21793">
        <ele>0.4</ele>
        <time>2024-07-03T12:46:05Z</time>
      </trkpt>
      <trkpt lat="49.16172" lon="-0.21803">
        <ele>0.4</ele>
        <time>2024-07-03T12:46:06Z</time>
      </trkpt>
      <trkpt lat="49.16172" lon="-0.21813">
        <ele>0.4</ele>
        <time>2024-07-03T12:46:07Z</time>
      </trkpt>
      <trkpt lat="49.16171" lon="-0.21822">
        <ele>0.4</ele>
        <time>2024-07-03T12:46:08Z</time>
      </trkpt>
      <trkpt lat="49.16171" lon="-0.21832">
        <ele>0.4</ele>
        <time>2024-07-03T12:46:09Z</time>
      </trkpt>
      <trkpt lat="49.16171" lon="-0.2184">
        <ele>0.4</ele>
        <time>2024-07-03T12:46:10Z</time>
      </trkpt>
      <trkpt lat="49.16171" lon="-0.2185">
        <ele>0.2</ele>
        <time>2024-07-03T12:46:11Z</time>
      </trkpt>
      <trkpt lat="49.16171" lon="-0.2186">
        <ele>0.2</ele>
        <time>2024-07-03T12:46:12Z</time>
      </trkpt>
      <trkpt lat="49.1617" lon="-0.2187">
        <ele>0.2</ele>
        <time>2024-07-03T12:46:13Z</time>
      </trkpt>
      <trkpt lat="49.1617" lon="-0.21879">
        <ele>0.2</ele>
        <time>2024-07-03T12:46:14Z</time>
      </trkpt>
      <trkpt lat="49.1617" lon="-0.21889">
        <ele>0.2</ele>
        <time>2024-07-03T12:46:15Z</time>
      </trkpt>
      <trkpt lat="49.16169" lon="-0.21898">
        <ele>0.4</ele>
        <time>2024-07-03T12:46:16Z</time>
      </trkpt>
      <trkpt lat="49.16167" lon="-0.21907">
        <ele>0.6</ele>
        <time>2024-07-03T12:46:17Z</time>
      </trkpt>
      <trkpt lat="49.16165" lon="-0.21916">
        <ele>0.8</ele>
        <time>2024-07-03T12:46:18Z</time>
      </trkpt>
      <trkpt lat="49.16163" lon="-0.21926">
        <ele>0.8</ele>
        <time>2024-07-03T12:46:19Z</time>
      </trkpt>
      <trkpt lat="49.16159" lon="-0.21936">
        <ele>1</ele>
        <time>2024-07-03T12:46:20Z</time>
      </trkpt>
      <trkpt lat="49.16155" lon="-0.21946">
        <ele>1</ele>
        <time>2024-07-03T12:46:21Z</time>
      </trkpt>
      <trkpt lat="49.1615" lon="-0.21955">
        <ele>1</ele>
        <time>2024-07-03T12:46:22Z</time>
      </trkpt>
      <trkpt lat="49.16144" lon="-0.21962">
        <ele>0.8</ele>
        <time>2024-07-03T12:46:23Z</time>
      </trkpt>
      <trkpt lat="49.16137" lon="-0.21968">
        <ele>0.8</ele>
        <time>2024-07-03T12:46:24Z</time>
      </trkpt>
      <trkpt lat="49.16131" lon="-0.21973">
        <ele>0.8</ele>
        <time>2024-07-03T12:46:25Z</time>
      </trkpt>
      <trkpt lat="49.16123" lon="-0.21978">
        <ele>0.8</ele>
        <time>2024-07-03T12:46:26Z</time>
      </trkpt>
      <trkpt lat="49.16115" lon="-0.21982">
        <ele>0.8</ele>
        <time>2024-07-03T12:46:27Z</time>
      </trkpt>
      <trkpt lat="49.16107" lon="-0.21986">
        <ele>0.8</ele>
        <time>2024-07-03T12:46:28Z</time>
      </trkpt>
      <trkpt lat="49.161" lon="-0.21991">
        <ele>0.8</ele>
        <time>2024-07-03T12:46:29Z</time>
      </trkpt>
      <trkpt lat="49.16092" lon="-0.21996">
        <ele>0.8</ele>
        <time>2024-07-03T12:46:30Z</time>
      </trkpt>
      <trkpt lat="49.16085" lon="-0.22">
        <ele>0.8</ele>
        <time>2024-07-03T12:46:31Z</time>
      </trkpt>
      <trkpt lat="49.16078" lon="-0.22005">
        <ele>0.6</ele>
        <time>2024-07-03T12:46:32Z</time>
      </trkpt>
      <trkpt lat="49.16071" lon="-0.2201">
        <ele>0.6</ele>
        <time>2024-07-03T12:46:33Z</time>
      </trkpt>
      <trkpt lat="49.16064" lon="-0.22015">
        <ele>0.6</ele>
        <time>2024-07-03T12:46:34Z</time>
      </trkpt>
      <trkpt lat="49.16057" lon="-0.2202">
        <ele>0.6</ele>
        <time>2024-07-03T12:46:35Z</time>
      </trkpt>
      <trkpt lat="49.16051" lon="-0.22025">
        <ele>0.6</ele>
        <time>2024-07-03T12:46:36Z</time>
      </trkpt>
      <trkpt lat="49.16044" lon="-0.2203">
        <ele>0.6</ele>
        <time>2024-07-03T12:46:37Z</time>
      </trkpt>
      <trkpt lat="49.16038" lon="-0.22035">
        <ele>0.6</ele>
        <time>2024-07-03T12:46:38Z</time>
      </trkpt>
      <trkpt lat="49.16031" lon="-0.2204">
        <ele>0.6</ele>
        <time>2024-07-03T12:46:39Z</time>
      </trkpt>
      <trkpt lat="49.16025" lon="-0.22045">
        <ele>0.8</ele>
        <time>2024-07-03T12:46:40Z</time>
      </trkpt>
      <trkpt lat="49.16018" lon="-0.2205">
        <ele>0.8</ele>
        <time>2024-07-03T12:46:41Z</time>
      </trkpt>
      <trkpt lat="49.16012" lon="-0.22056">
        <ele>0.8</ele>
        <time>2024-07-03T12:46:42Z</time>
      </trkpt>
      <trkpt lat="49.16005" lon="-0.22061">
        <ele>0.6</ele>
        <time>2024-07-03T12:46:43Z</time>
      </trkpt>
      <trkpt lat="49.15999" lon="-0.22066">
        <ele>0.6</ele>
        <time>2024-07-03T12:46:44Z</time>
      </trkpt>
      <trkpt lat="49.15993" lon="-0.22071">
        <ele>0.8</ele>
        <time>2024-07-03T12:46:45Z</time>
      </trkpt>
      <trkpt lat="49.15986" lon="-0.22076">
        <ele>0.8</ele>
        <time>2024-07-03T12:46:46Z</time>
      </trkpt>
      <trkpt lat="49.1598" lon="-0.22081">
        <ele>0.8</ele>
        <time>2024-07-03T12:46:47Z</time>
      </trkpt>
      <trkpt lat="49.15974" lon="-0.22086">
        <ele>0.8</ele>
        <time>2024-07-03T12:46:48Z</time>
      </trkpt>
      <trkpt lat="49.15967" lon="-0.22091">
        <ele>0.8</ele>
        <time>2024-07-03T12:46:49Z</time>
      </trkpt>
      <trkpt lat="49.15961" lon="-0.22096">
        <ele>0.8</ele>
        <time>2024-07-03T12:46:50Z</time>
      </trkpt>
      <trkpt lat="49.15955" lon="-0.22101">
        <ele>1</ele>
        <time>2024-07-03T12:46:51Z</time>
      </trkpt>
      <trkpt lat="49.15949" lon="-0.22105">
        <ele>0.8</ele>
        <time>2024-07-03T12:46:52Z</time>
      </trkpt>
      <trkpt lat="49.15943" lon="-0.2211">
        <ele>0.8</ele>
        <time>2024-07-03T12:46:53Z</time>
      </trkpt>
      <trkpt lat="49.15936" lon="-0.22113">
        <ele>0.8</ele>
        <time>2024-07-03T12:46:54Z</time>
      </trkpt>
      <trkpt lat="49.1593" lon="-0.22117">
        <ele>0.8</ele>
        <time>2024-07-03T12:46:55Z</time>
      </trkpt>
      <trkpt lat="49.15924" lon="-0.2212">
        <ele>0.8</ele>
        <time>2024-07-03T12:46:56Z</time>
      </trkpt>
      <trkpt lat="49.15918" lon="-0.22123">
        <ele>0.8</ele>
        <time>2024-07-03T12:46:57Z</time>
      </trkpt>
      <trkpt lat="49.15911" lon="-0.22125">
        <ele>1</ele>
        <time>2024-07-03T12:46:58Z</time>
      </trkpt>
      <trkpt lat="49.15904" lon="-0.22127">
        <ele>1.6</ele>
        <time>2024-07-03T12:46:59Z</time>
      </trkpt>
      <trkpt lat="49.15897" lon="-0.22129">
        <ele>2</ele>
        <time>2024-07-03T12:47:00Z</time>
      </trkpt>
      <trkpt lat="49.1589" lon="-0.2213">
        <ele>2.4</ele>
        <time>2024-07-03T12:47:01Z</time>
      </trkpt>
      <trkpt lat="49.15883" lon="-0.22132">
        <ele>2.4</ele>
        <time>2024-07-03T12:47:02Z</time>
      </trkpt>
      <trkpt lat="49.15876" lon="-0.22133">
        <ele>2.6</ele>
        <time>2024-07-03T12:47:03Z</time>
      </trkpt>
      <trkpt lat="49.15869" lon="-0.22135">
        <ele>2.6</ele>
        <time>2024-07-03T12:47:04Z</time>
      </trkpt>
      <trkpt lat="49.15862" lon="-0.22137">
        <ele>2.4</ele>
        <time>2024-07-03T12:47:05Z</time>
      </trkpt>
      <trkpt lat="49.15856" lon="-0.22139">
        <ele>2.2</ele>
        <time>2024-07-03T12:47:06Z</time>
      </trkpt>
      <trkpt lat="49.15849" lon="-0.22141">
        <ele>2</ele>
        <time>2024-07-03T12:47:07Z</time>
      </trkpt>
      <trkpt lat="49.15842" lon="-0.22143">
        <ele>2</ele>
        <time>2024-07-03T12:47:08Z</time>
      </trkpt>
      <trkpt lat="49.15835" lon="-0.22146">
        <ele>2</ele>
        <time>2024-07-03T12:47:09Z</time>
      </trkpt>
      <trkpt lat="49.15828" lon="-0.22148">
        <ele>2.2</ele>
        <time>2024-07-03T12:47:10Z</time>
      </trkpt>
      <trkpt lat="49.15821" lon="-0.22151">
        <ele>2.4</ele>
        <time>2024-07-03T12:47:11Z</time>
      </trkpt>
      <trkpt lat="49.15813" lon="-0.22153">
        <ele>2.6</ele>
        <time>2024-07-03T12:47:12Z</time>
      </trkpt>
      <trkpt lat="49.15798" lon="-0.22158">
        <ele>2.8</ele>
        <time>2024-07-03T12:47:13Z</time>
      </trkpt>
      <trkpt lat="49.15794" lon="-0.22159">
        <ele>2.8</ele>
        <time>2024-07-03T12:47:14Z</time>
      </trkpt>
      <trkpt lat="49.1579" lon="-0.2216">
        <ele>2.8</ele>
        <time>2024-07-03T12:47:15Z</time>
      </trkpt>
      <trkpt lat="49.15783" lon="-0.22162">
        <ele>2.8</ele>
        <time>2024-07-03T12:47:16Z</time>
      </trkpt>
      <trkpt lat="49.15775" lon="-0.22164">
        <ele>2.6</ele>
        <time>2024-07-03T12:47:17Z</time>
      </trkpt>
      <trkpt lat="49.15767" lon="-0.22166">
        <ele>2.4</ele>
        <time>2024-07-03T12:47:18Z</time>
      </trkpt>
      <trkpt lat="49.15759" lon="-0.22169">
        <ele>2.2</ele>
        <time>2024-07-03T12:47:19Z</time>
      </trkpt>
      <trkpt lat="49.15751" lon="-0.22171">
        <ele>2</ele>
        <time>2024-07-03T12:47:20Z</time>
      </trkpt>
      <trkpt lat="49.15743" lon="-0.22173">
        <ele>1.8</ele>
        <time>2024-07-03T12:47:21Z</time>
      </trkpt>
      <trkpt lat="49.15735" lon="-0.22174">
        <ele>1.8</ele>
        <time>2024-07-03T12:47:22Z</time>
      </trkpt>
      <trkpt lat="49.15727" lon="-0.22175">
        <ele>1.8</ele>
        <time>2024-07-03T12:47:23Z</time>
      </trkpt>
      <trkpt lat="49.15718" lon="-0.22175">
        <ele>1.6</ele>
        <time>2024-07-03T12:47:24Z</time>
      </trkpt>
      <trkpt lat="49.1571" lon="-0.22176">
        <ele>1.2</ele>
        <time>2024-07-03T12:47:25Z</time>
      </trkpt>
      <trkpt lat="49.15702" lon="-0.22175">
        <ele>0.6</ele>
        <time>2024-07-03T12:47:26Z</time>
      </trkpt>
      <trkpt lat="49.15694" lon="-0.22174">
        <ele>0.2</ele>
        <time>2024-07-03T12:47:27Z</time>
      </trkpt>
      <trkpt lat="49.15686" lon="-0.22172">
        <ele>8</ele>
        <time>2024-07-03T12:47:28Z</time>
      </trkpt>
      <trkpt lat="49.15678" lon="-0.2217">
        <ele>-0.2</ele>
        <time>2024-07-03T12:47:29Z</time>
      </trkpt>
      <trkpt lat="49.1567" lon="-0.22168">
        <ele>-0.2</ele>
        <time>2024-07-03T12:47:30Z</time>
      </trkpt>
      <trkpt lat="49.15662" lon="-0.22167">
        <ele>8</ele>
        <time>2024-07-03T12:47:31Z</time>
      </trkpt>
      <trkpt lat="49.15654" lon="-0.22165">
        <ele>0.2</ele>
        <time>2024-07-03T12:47:32Z</time>
      </trkpt>
      <trkpt lat="49.15646" lon="-0.22163">
        <ele>0.2</ele>
        <time>2024-07-03T12:47:33Z</time>
      </trkpt>
      <trkpt lat="49.15639" lon="-0.22161">
        <ele>0.4</ele>
        <time>2024-07-03T12:47:34Z</time>
      </trkpt>
      <trkpt lat="49.15631" lon="-0.22159">
        <ele>0.4</ele>
        <time>2024-07-03T12:47:35Z</time>
      </trkpt>
      <trkpt lat="49.15623" lon="-0.22157">
        <ele>0.4</ele>
        <time>2024-07-03T12:47:36Z</time>
      </trkpt>
      <trkpt lat="49.15615" lon="-0.22156">
        <ele>0.6</ele>
        <time>2024-07-03T12:47:37Z</time>
      </trkpt>
      <trkpt lat="49.15607" lon="-0.22154">
        <ele>0.6</ele>
        <time>2024-07-03T12:47:38Z</time>
      </trkpt>
      <trkpt lat="49.15599" lon="-0.22153">
        <ele>0.6</ele>
        <time>2024-07-03T12:47:39Z</time>
      </trkpt>
      <trkpt lat="49.15591" lon="-0.22152">
        <ele>0.8</ele>
        <time>2024-07-03T12:47:40Z</time>
      </trkpt>
      <trkpt lat="49.15583" lon="-0.2215">
        <ele>0.8</ele>
        <time>2024-07-03T12:47:41Z</time>
      </trkpt>
      <trkpt lat="49.15576" lon="-0.22149">
        <ele>0.8</ele>
        <time>2024-07-03T12:47:42Z</time>
      </trkpt>
      <trkpt lat="49.15568" lon="-0.22148">
        <ele>0.8</ele>
        <time>2024-07-03T12:47:43Z</time>
      </trkpt>
      <trkpt lat="49.15561" lon="-0.22147">
        <ele>0.8</ele>
        <time>2024-07-03T12:47:44Z</time>
      </trkpt>
      <trkpt lat="49.15553" lon="-0.22146">
        <ele>0.8</ele>
        <time>2024-07-03T12:47:45Z</time>
      </trkpt>
      <trkpt lat="49.15545" lon="-0.22146">
        <ele>0.8</ele>
        <time>2024-07-03T12:47:46Z</time>
      </trkpt>
      <trkpt lat="49.15538" lon="-0.22145">
        <ele>0.6</ele>
        <time>2024-07-03T12:47:47Z</time>
      </trkpt>
      <trkpt lat="49.1553" lon="-0.22143">
        <ele>0.6</ele>
        <time>2024-07-03T12:47:48Z</time>
      </trkpt>
      <trkpt lat="49.15522" lon="-0.22142">
        <ele>0.4</ele>
        <time>2024-07-03T12:47:49Z</time>
      </trkpt>
      <trkpt lat="49.15514" lon="-0.22141">
        <ele>0.4</ele>
        <time>2024-07-03T12:47:50Z</time>
      </trkpt>
      <trkpt lat="49.15507" lon="-0.22141">
        <ele>0.4</ele>
        <time>2024-07-03T12:47:51Z</time>
      </trkpt>
      <trkpt lat="49.15499" lon="-0.22141">
        <ele>0.4</ele>
        <time>2024-07-03T12:47:52Z</time>
      </trkpt>
      <trkpt lat="49.15491" lon="-0.2214">
        <ele>0.2</ele>
        <time>2024-07-03T12:47:53Z</time>
      </trkpt>
      <trkpt lat="49.15484" lon="-0.2214">
        <ele>0.2</ele>
        <time>2024-07-03T12:47:54Z</time>
      </trkpt>
      <trkpt lat="49.15476" lon="-0.2214">
        <ele>0.2</ele>
        <time>2024-07-03T12:47:55Z</time>
      </trkpt>
      <trkpt lat="49.15469" lon="-0.22139">
        <ele>0.2</ele>
        <time>2024-07-03T12:47:56Z</time>
      </trkpt>
      <trkpt lat="49.15461" lon="-0.22139">
        <ele>0.2</ele>
        <time>2024-07-03T12:47:57Z</time>
      </trkpt>
      <trkpt lat="49.15454" lon="-0.22139">
        <ele>0.4</ele>
        <time>2024-07-03T12:47:58Z</time>
      </trkpt>
      <trkpt lat="49.15447" lon="-0.22139">
        <ele>0.6</ele>
        <time>2024-07-03T12:47:59Z</time>
      </trkpt>
      <trkpt lat="49.1544" lon="-0.22139">
        <ele>0.6</ele>
        <time>2024-07-03T12:48:00Z</time>
      </trkpt>
      <trkpt lat="49.15433" lon="-0.22139">
        <ele>0.6</ele>
        <time>2024-07-03T12:48:01Z</time>
      </trkpt>
      <trkpt lat="49.15425" lon="-0.22139">
        <ele>0.6</ele>
        <time>2024-07-03T12:48:02Z</time>
      </trkpt>
      <trkpt lat="49.15418" lon="-0.2214">
        <ele>0.6</ele>
        <time>2024-07-03T12:48:03Z</time>
      </trkpt>
      <trkpt lat="49.15411" lon="-0.2214">
        <ele>0.4</ele>
        <time>2024-07-03T12:48:04Z</time>
      </trkpt>
      <trkpt lat="49.15404" lon="-0.22142">
        <ele>0.2</ele>
        <time>2024-07-03T12:48:05Z</time>
      </trkpt>
      <trkpt lat="49.15397" lon="-0.22145">
        <ele>0.2</ele>
        <time>2024-07-03T12:48:06Z</time>
      </trkpt>
      <trkpt lat="49.15391" lon="-0.2215">
        <ele>0.2</ele>
        <time>2024-07-03T12:48:07Z</time>
      </trkpt>
      <trkpt lat="49.15385" lon="-0.22157">
        <ele>0.2</ele>
        <time>2024-07-03T12:48:08Z</time>
      </trkpt>
      <trkpt lat="49.1538" lon="-0.22165">
        <ele>0.2</ele>
        <time>2024-07-03T12:48:09Z</time>
      </trkpt>
      <trkpt lat="49.15374" lon="-0.22172">
        <ele>0.2</ele>
        <time>2024-07-03T12:48:10Z</time>
      </trkpt>
      <trkpt lat="49.15369" lon="-0.22181">
        <ele>0.2</ele>
        <time>2024-07-03T12:48:11Z</time>
      </trkpt>
      <trkpt lat="49.15363" lon="-0.22189">
        <ele>7.3</ele>
        <time>2024-07-03T12:48:12Z</time>
      </trkpt>
      <trkpt lat="49.15359" lon="-0.22198">
        <ele>-0.2</ele>
        <time>2024-07-03T12:48:13Z</time>
      </trkpt>
      <trkpt lat="49.15355" lon="-0.22206">
        <ele>-0.4</ele>
        <time>2024-07-03T12:48:14Z</time>
      </trkpt>
      <trkpt lat="49.1535" lon="-0.22214">
        <ele>-0.8</ele>
        <time>2024-07-03T12:48:15Z</time>
      </trkpt>
      <trkpt lat="49.15345" lon="-0.22221">
        <ele>-0.6</ele>
        <time>2024-07-03T12:48:16Z</time>
      </trkpt>
      <trkpt lat="49.1534" lon="-0.2223">
        <ele>-0.4</ele>
        <time>2024-07-03T12:48:17Z</time>
      </trkpt>
      <trkpt lat="49.15334" lon="-0.22239">
        <ele>-0.2</ele>
        <time>2024-07-03T12:48:18Z</time>
      </trkpt>
      <trkpt lat="49.15329" lon="-0.22248">
        <ele>-0.2</ele>
        <time>2024-07-03T12:48:19Z</time>
      </trkpt>
      <trkpt lat="49.15324" lon="-0.22257">
        <ele>0.2</ele>
        <time>2024-07-03T12:48:20Z</time>
      </trkpt>
      <trkpt lat="49.1532" lon="-0.22266">
        <ele>0.4</ele>
        <time>2024-07-03T12:48:21Z</time>
      </trkpt>
      <trkpt lat="49.15316" lon="-0.22275">
        <ele>0.4</ele>
        <time>2024-07-03T12:48:22Z</time>
      </trkpt>
      <trkpt lat="49.15312" lon="-0.22285">
        <ele>0.6</ele>
        <time>2024-07-03T12:48:23Z</time>
      </trkpt>
      <trkpt lat="49.15309" lon="-0.22296">
        <ele>0.6</ele>
        <time>2024-07-03T12:48:24Z</time>
      </trkpt>
      <trkpt lat="49.15305" lon="-0.22307">
        <ele>0.6</ele>
        <time>2024-07-03T12:48:25Z</time>
      </trkpt>
      <trkpt lat="49.15303" lon="-0.22317">
        <ele>0.8</ele>
        <time>2024-07-03T12:48:26Z</time>
      </trkpt>
      <trkpt lat="49.153" lon="-0.22328">
        <ele>0.8</ele>
        <time>2024-07-03T12:48:27Z</time>
      </trkpt>
      <trkpt lat="49.15296" lon="-0.22339">
        <ele>0.8</ele>
        <time>2024-07-03T12:48:28Z</time>
      </trkpt>
      <trkpt lat="49.15293" lon="-0.22349">
        <ele>0.8</ele>
        <time>2024-07-03T12:48:29Z</time>
      </trkpt>
      <trkpt lat="49.1529" lon="-0.22359">
        <ele>0.8</ele>
        <time>2024-07-03T12:48:30Z</time>
      </trkpt>
      <trkpt lat="49.15285" lon="-0.22367">
        <ele>0.2</ele>
        <time>2024-07-03T12:48:31Z</time>
      </trkpt>
      <trkpt lat="49.1528" lon="-0.22375">
        <ele>-0.4</ele>
        <time>2024-07-03T12:48:32Z</time>
      </trkpt>
      <trkpt lat="49.15274" lon="-0.22381">
        <ele>-1</ele>
        <time>2024-07-03T12:48:33Z</time>
      </trkpt>
      <trkpt lat="49.15269" lon="-0.22388">
        <ele>-1.2</ele>
        <time>2024-07-03T12:48:34Z</time>
      </trkpt>
      <trkpt lat="49.15263" lon="-0.22394">
        <ele>-1.2</ele>
        <time>2024-07-03T12:48:35Z</time>
      </trkpt>
      <trkpt lat="49.15257" lon="-0.224">
        <ele>-1.2</ele>
        <time>2024-07-03T12:48:36Z</time>
      </trkpt>
      <trkpt lat="49.15251" lon="-0.22406">
        <ele>-1</ele>
        <time>2024-07-03T12:48:37Z</time>
      </trkpt>
      <trkpt lat="49.15245" lon="-0.22413">
        <ele>-0.8</ele>
        <time>2024-07-03T12:48:38Z</time>
      </trkpt>
      <trkpt lat="49.15239" lon="-0.2242">
        <ele>-0.4</ele>
        <time>2024-07-03T12:48:39Z</time>
      </trkpt>
      <trkpt lat="49.15233" lon="-0.22427">
        <ele>8.1</ele>
        <time>2024-07-03T12:48:40Z</time>
      </trkpt>
      <trkpt lat="49.15227" lon="-0.22435">
        <ele>0.2</ele>
        <time>2024-07-03T12:48:41Z</time>
      </trkpt>
      <trkpt lat="49.15222" lon="-0.22442">
        <ele>0.2</ele>
        <time>2024-07-03T12:48:42Z</time>
      </trkpt>
      <trkpt lat="49.15218" lon="-0.2245">
        <ele>0.2</ele>
        <time>2024-07-03T12:48:43Z</time>
      </trkpt>
      <trkpt lat="49.15214" lon="-0.22457">
        <ele>0.2</ele>
        <time>2024-07-03T12:48:44Z</time>
      </trkpt>
      <trkpt lat="49.15209" lon="-0.22464">
        <ele>0.2</ele>
        <time>2024-07-03T12:48:45Z</time>
      </trkpt>
      <trkpt lat="49.15206" lon="-0.22471">
        <ele>0.2</ele>
        <time>2024-07-03T12:48:46Z</time>
      </trkpt>
      <trkpt lat="49.15204" lon="-0.22479">
        <ele>0.4</ele>
        <time>2024-07-03T12:48:47Z</time>
      </trkpt>
      <trkpt lat="49.15204" lon="-0.22488">
        <ele>0.4</ele>
        <time>2024-07-03T12:48:48Z</time>
      </trkpt>
      <trkpt lat="49.15207" lon="-0.22497">
        <ele>0.6</ele>
        <time>2024-07-03T12:48:49Z</time>
      </trkpt>
      <trkpt lat="49.1521" lon="-0.22504">
        <ele>0.8</ele>
        <time>2024-07-03T12:48:50Z</time>
      </trkpt>
      <trkpt lat="49.15214" lon="-0.22512">
        <ele>1.2</ele>
        <time>2024-07-03T12:48:51Z</time>
      </trkpt>
      <trkpt lat="49.15217" lon="-0.22519">
        <ele>1.4</ele>
        <time>2024-07-03T12:48:52Z</time>
      </trkpt>
      <trkpt lat="49.15221" lon="-0.22527">
        <ele>1.8</ele>
        <time>2024-07-03T12:48:53Z</time>
      </trkpt>
      <trkpt lat="49.15224" lon="-0.22535">
        <ele>1.8</ele>
        <time>2024-07-03T12:48:54Z</time>
      </trkpt>
      <trkpt lat="49.15228" lon="-0.22543">
        <ele>2</ele>
        <time>2024-07-03T12:48:55Z</time>
      </trkpt>
      <trkpt lat="49.15232" lon="-0.22551">
        <ele>2</ele>
        <time>2024-07-03T12:48:56Z</time>
      </trkpt>
      <trkpt lat="49.15235" lon="-0.22558">
        <ele>2</ele>
        <time>2024-07-03T12:48:57Z</time>
      </trkpt>
      <trkpt lat="49.15239" lon="-0.22566">
        <ele>2</ele>
        <time>2024-07-03T12:48:58Z</time>
      </trkpt>
      <trkpt lat="49.15242" lon="-0.22573">
        <ele>2.2</ele>
        <time>2024-07-03T12:48:59Z</time>
      </trkpt>
      <trkpt lat="49.15246" lon="-0.22581">
        <ele>2.4</ele>
        <time>2024-07-03T12:49:00Z</time>
      </trkpt>
      <trkpt lat="49.1525" lon="-0.22589">
        <ele>2.6</ele>
        <time>2024-07-03T12:49:01Z</time>
      </trkpt>
      <trkpt lat="49.15254" lon="-0.22597">
        <ele>2.6</ele>
        <time>2024-07-03T12:49:02Z</time>
      </trkpt>
      <trkpt lat="49.15258" lon="-0.22605">
        <ele>2.8</ele>
        <time>2024-07-03T12:49:03Z</time>
      </trkpt>
      <trkpt lat="49.15262" lon="-0.22613">
        <ele>2.8</ele>
        <time>2024-07-03T12:49:04Z</time>
      </trkpt>
      <trkpt lat="49.15266" lon="-0.2262">
        <ele>2.8</ele>
        <time>2024-07-03T12:49:05Z</time>
      </trkpt>
      <trkpt lat="49.1527" lon="-0.22628">
        <ele>2.8</ele>
        <time>2024-07-03T12:49:06Z</time>
      </trkpt>
      <trkpt lat="49.15273" lon="-0.22637">
        <ele>2.8</ele>
        <time>2024-07-03T12:49:07Z</time>
      </trkpt>
      <trkpt lat="49.15277" lon="-0.22645">
        <ele>3</ele>
        <time>2024-07-03T12:49:08Z</time>
      </trkpt>
      <trkpt lat="49.15281" lon="-0.22654">
        <ele>3.4</ele>
        <time>2024-07-03T12:49:09Z</time>
      </trkpt>
      <trkpt lat="49.15284" lon="-0.22662">
        <ele>3.6</ele>
        <time>2024-07-03T12:49:10Z</time>
      </trkpt>
      <trkpt lat="49.15288" lon="-0.2267">
        <ele>3.6</ele>
        <time>2024-07-03T12:49:11Z</time>
      </trkpt>
      <trkpt lat="49.15291" lon="-0.22678">
        <ele>3.6</ele>
        <time>2024-07-03T12:49:12Z</time>
      </trkpt>
      <trkpt lat="49.15295" lon="-0.22686">
        <ele>3.8</ele>
        <time>2024-07-03T12:49:13Z</time>
      </trkpt>
      <trkpt lat="49.15298" lon="-0.22694">
        <ele>3.8</ele>
        <time>2024-07-03T12:49:14Z</time>
      </trkpt>
      <trkpt lat="49.153" lon="-0.22702">
        <ele>3.8</ele>
        <time>2024-07-03T12:49:15Z</time>
      </trkpt>
      <trkpt lat="49.15302" lon="-0.22711">
        <ele>3.6</ele>
        <time>2024-07-03T12:49:16Z</time>
      </trkpt>
      <trkpt lat="49.15304" lon="-0.2272">
        <ele>3.6</ele>
        <time>2024-07-03T12:49:17Z</time>
      </trkpt>
      <trkpt lat="49.15304" lon="-0.22729">
        <ele>3.6</ele>
        <time>2024-07-03T12:49:18Z</time>
      </trkpt>
      <trkpt lat="49.15303" lon="-0.22737">
        <ele>3.6</ele>
        <time>2024-07-03T12:49:19Z</time>
      </trkpt>
      <trkpt lat="49.15301" lon="-0.22746">
        <ele>3.8</ele>
        <time>2024-07-03T12:49:20Z</time>
      </trkpt>
      <trkpt lat="49.15299" lon="-0.22754">
        <ele>3.6</ele>
        <time>2024-07-03T12:49:21Z</time>
      </trkpt>
      <trkpt lat="49.15297" lon="-0.22762">
        <ele>3.4</ele>
        <time>2024-07-03T12:49:22Z</time>
      </trkpt>
      <trkpt lat="49.15295" lon="-0.22769">
        <ele>3.4</ele>
        <time>2024-07-03T12:49:23Z</time>
      </trkpt>
      <trkpt lat="49.15293" lon="-0.22778">
        <ele>3.6</ele>
        <time>2024-07-03T12:49:24Z</time>
      </trkpt>
      <trkpt lat="49.15291" lon="-0.22786">
        <ele>3.4</ele>
        <time>2024-07-03T12:49:25Z</time>
      </trkpt>
      <trkpt lat="49.15289" lon="-0.22794">
        <ele>3.4</ele>
        <time>2024-07-03T12:49:26Z</time>
      </trkpt>
      <trkpt lat="49.15287" lon="-0.22803">
        <ele>3.4</ele>
        <time>2024-07-03T12:49:27Z</time>
      </trkpt>
      <trkpt lat="49.15285" lon="-0.22811">
        <ele>3.4</ele>
        <time>2024-07-03T12:49:28Z</time>
      </trkpt>
      <trkpt lat="49.15283" lon="-0.22819">
        <ele>3.4</ele>
        <time>2024-07-03T12:49:29Z</time>
      </trkpt>
      <trkpt lat="49.15281" lon="-0.22828">
        <ele>3.4</ele>
        <time>2024-07-03T12:49:30Z</time>
      </trkpt>
      <trkpt lat="49.15279" lon="-0.22836">
        <ele>3.6</ele>
        <time>2024-07-03T12:49:31Z</time>
      </trkpt>
      <trkpt lat="49.15277" lon="-0.22845">
        <ele>3.6</ele>
        <time>2024-07-03T12:49:32Z</time>
      </trkpt>
      <trkpt lat="49.15275" lon="-0.22853">
        <ele>3.6</ele>
        <time>2024-07-03T12:49:33Z</time>
      </trkpt>
      <trkpt lat="49.15274" lon="-0.22861">
        <ele>3.8</ele>
        <time>2024-07-03T12:49:34Z</time>
      </trkpt>
      <trkpt lat="49.15272" lon="-0.22869">
        <ele>3.6</ele>
        <time>2024-07-03T12:49:35Z</time>
      </trkpt>
      <trkpt lat="49.1527" lon="-0.22878">
        <ele>3.6</ele>
        <time>2024-07-03T12:49:36Z</time>
      </trkpt>
      <trkpt lat="49.15268" lon="-0.22886">
        <ele>3.4</ele>
        <time>2024-07-03T12:49:37Z</time>
      </trkpt>
      <trkpt lat="49.15267" lon="-0.22895">
        <ele>3.4</ele>
        <time>2024-07-03T12:49:38Z</time>
      </trkpt>
      <trkpt lat="49.15265" lon="-0.22903">
        <ele>3.2</ele>
        <time>2024-07-03T12:49:39Z</time>
      </trkpt>
      <trkpt lat="49.15264" lon="-0.22911">
        <ele>3</ele>
        <time>2024-07-03T12:49:40Z</time>
      </trkpt>
      <trkpt lat="49.15262" lon="-0.2292">
        <ele>3</ele>
        <time>2024-07-03T12:49:41Z</time>
      </trkpt>
      <trkpt lat="49.1526" lon="-0.22928">
        <ele>3.2</ele>
        <time>2024-07-03T12:49:42Z</time>
      </trkpt>
      <trkpt lat="49.15258" lon="-0.22937">
        <ele>3.2</ele>
        <time>2024-07-03T12:49:43Z</time>
      </trkpt>
      <trkpt lat="49.15257" lon="-0.22945">
        <ele>3.8</ele>
        <time>2024-07-03T12:49:44Z</time>
      </trkpt>
      <trkpt lat="49.15255" lon="-0.22953">
        <ele>4</ele>
        <time>2024-07-03T12:49:45Z</time>
      </trkpt>
      <trkpt lat="49.15253" lon="-0.22962">
        <ele>4.2</ele>
        <time>2024-07-03T12:49:46Z</time>
      </trkpt>
      <trkpt lat="49.15252" lon="-0.2297">
        <ele>4.4</ele>
        <time>2024-07-03T12:49:47Z</time>
      </trkpt>
      <trkpt lat="49.1525" lon="-0.22979">
        <ele>4.4</ele>
        <time>2024-07-03T12:49:48Z</time>
      </trkpt>
      <trkpt lat="49.15248" lon="-0.22988">
        <ele>4.2</ele>
        <time>2024-07-03T12:49:49Z</time>
      </trkpt>
      <trkpt lat="49.15246" lon="-0.22997">
        <ele>4.2</ele>
        <time>2024-07-03T12:49:50Z</time>
      </trkpt>
      <trkpt lat="49.15244" lon="-0.23006">
        <ele>4.2</ele>
        <time>2024-07-03T12:49:51Z</time>
      </trkpt>
      <trkpt lat="49.15243" lon="-0.23015">
        <ele>4.2</ele>
        <time>2024-07-03T12:49:52Z</time>
      </trkpt>
      <trkpt lat="49.15241" lon="-0.23023">
        <ele>4.2</ele>
        <time>2024-07-03T12:49:53Z</time>
      </trkpt>
      <trkpt lat="49.15239" lon="-0.23032">
        <ele>4.2</ele>
        <time>2024-07-03T12:49:54Z</time>
      </trkpt>
      <trkpt lat="49.15237" lon="-0.23041">
        <ele>4.4</ele>
        <time>2024-07-03T12:49:55Z</time>
      </trkpt>
      <trkpt lat="49.15235" lon="-0.2305">
        <ele>4.6</ele>
        <time>2024-07-03T12:49:56Z</time>
      </trkpt>
      <trkpt lat="49.15233" lon="-0.2306">
        <ele>4.8</ele>
        <time>2024-07-03T12:49:57Z</time>
      </trkpt>
      <trkpt lat="49.15231" lon="-0.23069">
        <ele>4.8</ele>
        <time>2024-07-03T12:49:58Z</time>
      </trkpt>
      <trkpt lat="49.15229" lon="-0.23078">
        <ele>5</ele>
        <time>2024-07-03T12:49:59Z</time>
      </trkpt>
      <trkpt lat="49.15227" lon="-0.23087">
        <ele>5</ele>
        <time>2024-07-03T12:50:00Z</time>
      </trkpt>
      <trkpt lat="49.15225" lon="-0.23096">
        <ele>5.2</ele>
        <time>2024-07-03T12:50:01Z</time>
      </trkpt>
      <trkpt lat="49.15223" lon="-0.23106">
        <ele>5.2</ele>
        <time>2024-07-03T12:50:02Z</time>
      </trkpt>
      <trkpt lat="49.15221" lon="-0.23115">
        <ele>5.2</ele>
        <time>2024-07-03T12:50:03Z</time>
      </trkpt>
      <trkpt lat="49.15219" lon="-0.23124">
        <ele>5.2</ele>
        <time>2024-07-03T12:50:04Z</time>
      </trkpt>
      <trkpt lat="49.15217" lon="-0.23134">
        <ele>5.4</ele>
        <time>2024-07-03T12:50:05Z</time>
      </trkpt>
      <trkpt lat="49.15215" lon="-0.23143">
        <ele>5.6</ele>
        <time>2024-07-03T12:50:06Z</time>
      </trkpt>
      <trkpt lat="49.15213" lon="-0.23152">
        <ele>5.6</ele>
        <time>2024-07-03T12:50:07Z</time>
      </trkpt>
      <trkpt lat="49.15211" lon="-0.23161">
        <ele>5.8</ele>
        <time>2024-07-03T12:50:08Z</time>
      </trkpt>
      <trkpt lat="49.1521" lon="-0.2317">
        <ele>6</ele>
        <time>2024-07-03T12:50:09Z</time>
      </trkpt>
      <trkpt lat="49.15208" lon="-0.2318">
        <ele>6.2</ele>
        <time>2024-07-03T12:50:10Z</time>
      </trkpt>
      <trkpt lat="49.15206" lon="-0.23189">
        <ele>6.4</ele>
        <time>2024-07-03T12:50:11Z</time>
      </trkpt>
      <trkpt lat="49.15204" lon="-0.23199">
        <ele>6.6</ele>
        <time>2024-07-03T12:50:12Z</time>
      </trkpt>
      <trkpt lat="49.15202" lon="-0.23208">
        <ele>6.8</ele>
        <time>2024-07-03T12:50:13Z</time>
      </trkpt>
      <trkpt lat="49.152" lon="-0.23218">
        <ele>7</ele>
        <time>2024-07-03T12:50:14Z</time>
      </trkpt>
      <trkpt lat="49.15198" lon="-0.23228">
        <ele>6.8</ele>
        <time>2024-07-03T12:50:15Z</time>
      </trkpt>
      <trkpt lat="49.15196" lon="-0.23238">
        <ele>6.8</ele>
        <time>2024-07-03T12:50:16Z</time>
      </trkpt>
      <trkpt lat="49.15194" lon="-0.23248">
        <ele>7</ele>
        <time>2024-07-03T12:50:17Z</time>
      </trkpt>
      <trkpt lat="49.15192" lon="-0.23257">
        <ele>7</ele>
        <time>2024-07-03T12:50:18Z</time>
      </trkpt>
      <trkpt lat="49.1519" lon="-0.23267">
        <ele>6.8</ele>
        <time>2024-07-03T12:50:19Z</time>
      </trkpt>
      <trkpt lat="49.15188" lon="-0.23277">
        <ele>6.6</ele>
        <time>2024-07-03T12:50:20Z</time>
      </trkpt>
      <trkpt lat="49.15186" lon="-0.23286">
        <ele>6.6</ele>
        <time>2024-07-03T12:50:21Z</time>
      </trkpt>
      <trkpt lat="49.15185" lon="-0.23296">
        <ele>6.6</ele>
        <time>2024-07-03T12:50:22Z</time>
      </trkpt>
      <trkpt lat="49.15183" lon="-0.23305">
        <ele>6.6</ele>
        <time>2024-07-03T12:50:23Z</time>
      </trkpt>
      <trkpt lat="49.15181" lon="-0.23315">
        <ele>6.6</ele>
        <time>2024-07-03T12:50:24Z</time>
      </trkpt>
      <trkpt lat="49.15179" lon="-0.23324">
        <ele>6.6</ele>
        <time>2024-07-03T12:50:25Z</time>
      </trkpt>
      <trkpt lat="49.15177" lon="-0.23334">
        <ele>6.6</ele>
        <time>2024-07-03T12:50:26Z</time>
      </trkpt>
      <trkpt lat="49.15175" lon="-0.23343">
        <ele>6.6</ele>
        <time>2024-07-03T12:50:27Z</time>
      </trkpt>
      <trkpt lat="49.15173" lon="-0.23353">
        <ele>6.6</ele>
        <time>2024-07-03T12:50:28Z</time>
      </trkpt>
      <trkpt lat="49.15171" lon="-0.23363">
        <ele>6.6</ele>
        <time>2024-07-03T12:50:29Z</time>
      </trkpt>
      <trkpt lat="49.15169" lon="-0.23372">
        <ele>6.6</ele>
        <time>2024-07-03T12:50:30Z</time>
      </trkpt>
      <trkpt lat="49.15167" lon="-0.23382">
        <ele>6.8</ele>
        <time>2024-07-03T12:50:31Z</time>
      </trkpt>
      <trkpt lat="49.15165" lon="-0.23391">
        <ele>7</ele>
        <time>2024-07-03T12:50:32Z</time>
      </trkpt>
      <trkpt lat="49.15163" lon="-0.23401">
        <ele>7.2</ele>
        <time>2024-07-03T12:50:33Z</time>
      </trkpt>
      <trkpt lat="49.15161" lon="-0.23411">
        <ele>7.4</ele>
        <time>2024-07-03T12:50:34Z</time>
      </trkpt>
      <trkpt lat="49.1516" lon="-0.2342">
        <ele>7.4</ele>
        <time>2024-07-03T12:50:35Z</time>
      </trkpt>
      <trkpt lat="49.15158" lon="-0.2343">
        <ele>7.4</ele>
        <time>2024-07-03T12:50:36Z</time>
      </trkpt>
      <trkpt lat="49.15156" lon="-0.23439">
        <ele>7.4</ele>
        <time>2024-07-03T12:50:37Z</time>
      </trkpt>
      <trkpt lat="49.15154" lon="-0.23449">
        <ele>7.4</ele>
        <time>2024-07-03T12:50:38Z</time>
      </trkpt>
      <trkpt lat="49.15152" lon="-0.23458">
        <ele>7.2</ele>
        <time>2024-07-03T12:50:39Z</time>
      </trkpt>
      <trkpt lat="49.1515" lon="-0.23468">
        <ele>7.2</ele>
        <time>2024-07-03T12:50:40Z</time>
      </trkpt>
      <trkpt lat="49.15148" lon="-0.23478">
        <ele>7.2</ele>
        <time>2024-07-03T12:50:41Z</time>
      </trkpt>
      <trkpt lat="49.15146" lon="-0.23487">
        <ele>7.2</ele>
        <time>2024-07-03T12:50:42Z</time>
      </trkpt>
      <trkpt lat="49.15144" lon="-0.23497">
        <ele>7.2</ele>
        <time>2024-07-03T12:50:43Z</time>
      </trkpt>
      <trkpt lat="49.15142" lon="-0.23506">
        <ele>7.4</ele>
        <time>2024-07-03T12:50:44Z</time>
      </trkpt>
      <trkpt lat="49.1514" lon="-0.23516">
        <ele>7.6</ele>
        <time>2024-07-03T12:50:45Z</time>
      </trkpt>
      <trkpt lat="49.15138" lon="-0.23525">
        <ele>7.8</ele>
        <time>2024-07-03T12:50:46Z</time>
      </trkpt>
      <trkpt lat="49.15136" lon="-0.23534">
        <ele>8</ele>
        <time>2024-07-03T12:50:47Z</time>
      </trkpt>
      <trkpt lat="49.15134" lon="-0.23543">
        <ele>8.2</ele>
        <time>2024-07-03T12:50:48Z</time>
      </trkpt>
      <trkpt lat="49.15132" lon="-0.23552">
        <ele>8.4</ele>
        <time>2024-07-03T12:50:49Z</time>
      </trkpt>
      <trkpt lat="49.1513" lon="-0.23561">
        <ele>8.4</ele>
        <time>2024-07-03T12:50:50Z</time>
      </trkpt>
      <trkpt lat="49.15128" lon="-0.2357">
        <ele>8.8</ele>
        <time>2024-07-03T12:50:51Z</time>
      </trkpt>
      <trkpt lat="49.15126" lon="-0.2358">
        <ele>9.2</ele>
        <time>2024-07-03T12:50:52Z</time>
      </trkpt>
      <trkpt lat="49.15123" lon="-0.23589">
        <ele>9.6</ele>
        <time>2024-07-03T12:50:53Z</time>
      </trkpt>
      <trkpt lat="49.15121" lon="-0.23598">
        <ele>10</ele>
        <time>2024-07-03T12:50:54Z</time>
      </trkpt>
      <trkpt lat="49.15119" lon="-0.23607">
        <ele>10.2</ele>
        <time>2024-07-03T12:50:55Z</time>
      </trkpt>
      <trkpt lat="49.15116" lon="-0.23616">
        <ele>10.6</ele>
        <time>2024-07-03T12:50:56Z</time>
      </trkpt>
      <trkpt lat="49.15114" lon="-0.23626">
        <ele>11</ele>
        <time>2024-07-03T12:50:57Z</time>
      </trkpt>
      <trkpt lat="49.15111" lon="-0.23635">
        <ele>11.2</ele>
        <time>2024-07-03T12:50:58Z</time>
      </trkpt>
      <trkpt lat="49.15109" lon="-0.23644">
        <ele>11.2</ele>
        <time>2024-07-03T12:50:59Z</time>
      </trkpt>
      <trkpt lat="49.15106" lon="-0.23653">
        <ele>11.4</ele>
        <time>2024-07-03T12:51:00Z</time>
      </trkpt>
      <trkpt lat="49.15104" lon="-0.23663">
        <ele>11.4</ele>
        <time>2024-07-03T12:51:01Z</time>
      </trkpt>
      <trkpt lat="49.15101" lon="-0.23672">
        <ele>11.6</ele>
        <time>2024-07-03T12:51:02Z</time>
      </trkpt>
      <trkpt lat="49.15099" lon="-0.23681">
        <ele>11.8</ele>
        <time>2024-07-03T12:51:03Z</time>
      </trkpt>
      <trkpt lat="49.15096" lon="-0.2369">
        <ele>12</ele>
        <time>2024-07-03T12:51:04Z</time>
      </trkpt>
      <trkpt lat="49.15093" lon="-0.23699">
        <ele>12.2</ele>
        <time>2024-07-03T12:51:05Z</time>
      </trkpt>
      <trkpt lat="49.15091" lon="-0.23708">
        <ele>12.4</ele>
        <time>2024-07-03T12:51:06Z</time>
      </trkpt>
      <trkpt lat="49.15088" lon="-0.23717">
        <ele>12.8</ele>
        <time>2024-07-03T12:51:07Z</time>
      </trkpt>
      <trkpt lat="49.15085" lon="-0.23726">
        <ele>13.2</ele>
        <time>2024-07-03T12:51:08Z</time>
      </trkpt>
      <trkpt lat="49.15083" lon="-0.23734">
        <ele>13.4</ele>
        <time>2024-07-03T12:51:09Z</time>
      </trkpt>
      <trkpt lat="49.1508" lon="-0.23743">
        <ele>13.8</ele>
        <time>2024-07-03T12:51:10Z</time>
      </trkpt>
      <trkpt lat="49.15078" lon="-0.23751">
        <ele>14.2</ele>
        <time>2024-07-03T12:51:11Z</time>
      </trkpt>
      <trkpt lat="49.15075" lon="-0.23758">
        <ele>14.8</ele>
        <time>2024-07-03T12:51:12Z</time>
      </trkpt>
      <trkpt lat="49.15073" lon="-0.23766">
        <ele>15.2</ele>
        <time>2024-07-03T12:51:13Z</time>
      </trkpt>
      <trkpt lat="49.1507" lon="-0.23774">
        <ele>15.4</ele>
        <time>2024-07-03T12:51:14Z</time>
      </trkpt>
      <trkpt lat="49.15068" lon="-0.23782">
        <ele>15.8</ele>
        <time>2024-07-03T12:51:15Z</time>
      </trkpt>
      <trkpt lat="49.15065" lon="-0.2379">
        <ele>16</ele>
        <time>2024-07-03T12:51:16Z</time>
      </trkpt>
      <trkpt lat="49.15063" lon="-0.23798">
        <ele>16.2</ele>
        <time>2024-07-03T12:51:17Z</time>
      </trkpt>
      <trkpt lat="49.1506" lon="-0.23807">
        <ele>16.2</ele>
        <time>2024-07-03T12:51:18Z</time>
      </trkpt>
      <trkpt lat="49.15058" lon="-0.23816">
        <ele>16.2</ele>
        <time>2024-07-03T12:51:19Z</time>
      </trkpt>
      <trkpt lat="49.15055" lon="-0.23825">
        <ele>16.2</ele>
        <time>2024-07-03T12:51:20Z</time>
      </trkpt>
      <trkpt lat="49.15052" lon="-0.23834">
        <ele>16.2</ele>
        <time>2024-07-03T12:51:21Z</time>
      </trkpt>
      <trkpt lat="49.1505" lon="-0.23844">
        <ele>16.4</ele>
        <time>2024-07-03T12:51:22Z</time>
      </trkpt>
      <trkpt lat="49.15047" lon="-0.23853">
        <ele>16.4</ele>
        <time>2024-07-03T12:51:23Z</time>
      </trkpt>
      <trkpt lat="49.15045" lon="-0.23863">
        <ele>16.4</ele>
        <time>2024-07-03T12:51:24Z</time>
      </trkpt>
      <trkpt lat="49.15042" lon="-0.23872">
        <ele>16.4</ele>
        <time>2024-07-03T12:51:25Z</time>
      </trkpt>
      <trkpt lat="49.1504" lon="-0.23882">
        <ele>16.4</ele>
        <time>2024-07-03T12:51:26Z</time>
      </trkpt>
      <trkpt lat="49.15038" lon="-0.23892">
        <ele>16.4</ele>
        <time>2024-07-03T12:51:27Z</time>
      </trkpt>
      <trkpt lat="49.15037" lon="-0.23902">
        <ele>16.2</ele>
        <time>2024-07-03T12:51:28Z</time>
      </trkpt>
      <trkpt lat="49.15035" lon="-0.23912">
        <ele>16</ele>
        <time>2024-07-03T12:51:29Z</time>
      </trkpt>
      <trkpt lat="49.15034" lon="-0.23923">
        <ele>15.8</ele>
        <time>2024-07-03T12:51:30Z</time>
      </trkpt>
      <trkpt lat="49.15033" lon="-0.23933">
        <ele>15.8</ele>
        <time>2024-07-03T12:51:31Z</time>
      </trkpt>
      <trkpt lat="49.15032" lon="-0.23944">
        <ele>15.8</ele>
        <time>2024-07-03T12:51:32Z</time>
      </trkpt>
      <trkpt lat="49.15031" lon="-0.23955">
        <ele>15.6</ele>
        <time>2024-07-03T12:51:33Z</time>
      </trkpt>
      <trkpt lat="49.1503" lon="-0.23966">
        <ele>15.6</ele>
        <time>2024-07-03T12:51:34Z</time>
      </trkpt>
      <trkpt lat="49.1503" lon="-0.23977">
        <ele>15.6</ele>
        <time>2024-07-03T12:51:35Z</time>
      </trkpt>
      <trkpt lat="49.15029" lon="-0.23988">
        <ele>15.4</ele>
        <time>2024-07-03T12:51:36Z</time>
      </trkpt>
      <trkpt lat="49.15028" lon="-0.23999">
        <ele>15.4</ele>
        <time>2024-07-03T12:51:37Z</time>
      </trkpt>
      <trkpt lat="49.15028" lon="-0.2401">
        <ele>15.2</ele>
        <time>2024-07-03T12:51:38Z</time>
      </trkpt>
      <trkpt lat="49.15027" lon="-0.24021">
        <ele>15.2</ele>
        <time>2024-07-03T12:51:39Z</time>
      </trkpt>
      <trkpt lat="49.15027" lon="-0.24032">
        <ele>15</ele>
        <time>2024-07-03T12:51:40Z</time>
      </trkpt>
      <trkpt lat="49.15026" lon="-0.24043">
        <ele>15</ele>
        <time>2024-07-03T12:51:41Z</time>
      </trkpt>
      <trkpt lat="49.15025" lon="-0.24054">
        <ele>14.8</ele>
        <time>2024-07-03T12:51:42Z</time>
      </trkpt>
      <trkpt lat="49.15024" lon="-0.24065">
        <ele>14.8</ele>
        <time>2024-07-03T12:51:43Z</time>
      </trkpt>
      <trkpt lat="49.15023" lon="-0.24077">
        <ele>14.8</ele>
        <time>2024-07-03T12:51:44Z</time>
      </trkpt>
      <trkpt lat="49.15022" lon="-0.24088">
        <ele>14.8</ele>
        <time>2024-07-03T12:51:45Z</time>
      </trkpt>
      <trkpt lat="49.1502" lon="-0.241">
        <ele>14.6</ele>
        <time>2024-07-03T12:51:46Z</time>
      </trkpt>
      <trkpt lat="49.15019" lon="-0.24111">
        <ele>14.6</ele>
        <time>2024-07-03T12:51:47Z</time>
      </trkpt>
      <trkpt lat="49.15017" lon="-0.24123">
        <ele>14.4</ele>
        <time>2024-07-03T12:51:48Z</time>
      </trkpt>
      <trkpt lat="49.15015" lon="-0.24134">
        <ele>14.2</ele>
        <time>2024-07-03T12:51:49Z</time>
      </trkpt>
      <trkpt lat="49.15013" lon="-0.24146">
        <ele>14</ele>
        <time>2024-07-03T12:51:50Z</time>
      </trkpt>
      <trkpt lat="49.15011" lon="-0.24157">
        <ele>14</ele>
        <time>2024-07-03T12:51:51Z</time>
      </trkpt>
      <trkpt lat="49.15008" lon="-0.24169">
        <ele>14</ele>
        <time>2024-07-03T12:51:52Z</time>
      </trkpt>
      <trkpt lat="49.15006" lon="-0.2418">
        <ele>14</ele>
        <time>2024-07-03T12:51:53Z</time>
      </trkpt>
      <trkpt lat="49.15004" lon="-0.24192">
        <ele>14.2</ele>
        <time>2024-07-03T12:51:54Z</time>
      </trkpt>
      <trkpt lat="49.15002" lon="-0.24203">
        <ele>14.2</ele>
        <time>2024-07-03T12:51:55Z</time>
      </trkpt>
      <trkpt lat="49.14999" lon="-0.24214">
        <ele>14.4</ele>
        <time>2024-07-03T12:51:56Z</time>
      </trkpt>
      <trkpt lat="49.14997" lon="-0.24226">
        <ele>14.4</ele>
        <time>2024-07-03T12:51:57Z</time>
      </trkpt>
      <trkpt lat="49.14994" lon="-0.24237">
        <ele>14.4</ele>
        <time>2024-07-03T12:51:58Z</time>
      </trkpt>
      <trkpt lat="49.14992" lon="-0.24248">
        <ele>14.4</ele>
        <time>2024-07-03T12:51:59Z</time>
      </trkpt>
      <trkpt lat="49.14989" lon="-0.24259">
        <ele>14.4</ele>
        <time>2024-07-03T12:52:00Z</time>
      </trkpt>
      <trkpt lat="49.14987" lon="-0.24271">
        <ele>14.2</ele>
        <time>2024-07-03T12:52:01Z</time>
      </trkpt>
      <trkpt lat="49.14985" lon="-0.24282">
        <ele>14.2</ele>
        <time>2024-07-03T12:52:02Z</time>
      </trkpt>
      <trkpt lat="49.14982" lon="-0.24293">
        <ele>14.2</ele>
        <time>2024-07-03T12:52:03Z</time>
      </trkpt>
      <trkpt lat="49.1498" lon="-0.24304">
        <ele>14</ele>
        <time>2024-07-03T12:52:04Z</time>
      </trkpt>
      <trkpt lat="49.14977" lon="-0.24315">
        <ele>13.8</ele>
        <time>2024-07-03T12:52:05Z</time>
      </trkpt>
      <trkpt lat="49.14975" lon="-0.24326">
        <ele>13.6</ele>
        <time>2024-07-03T12:52:06Z</time>
      </trkpt>
      <trkpt lat="49.14973" lon="-0.24337">
        <ele>13.6</ele>
        <time>2024-07-03T12:52:07Z</time>
      </trkpt>
      <trkpt lat="49.1497" lon="-0.24348">
        <ele>13.4</ele>
        <time>2024-07-03T12:52:08Z</time>
      </trkpt>
      <trkpt lat="49.14968" lon="-0.24359">
        <ele>13.2</ele>
        <time>2024-07-03T12:52:09Z</time>
      </trkpt>
      <trkpt lat="49.14965" lon="-0.2437">
        <ele>13.2</ele>
        <time>2024-07-03T12:52:10Z</time>
      </trkpt>
      <trkpt lat="49.14963" lon="-0.24382">
        <ele>13</ele>
        <time>2024-07-03T12:52:11Z</time>
      </trkpt>
      <trkpt lat="49.1496" lon="-0.24393">
        <ele>13</ele>
        <time>2024-07-03T12:52:12Z</time>
      </trkpt>
      <trkpt lat="49.14957" lon="-0.24404">
        <ele>13</ele>
        <time>2024-07-03T12:52:13Z</time>
      </trkpt>
      <trkpt lat="49.14955" lon="-0.24416">
        <ele>13</ele>
        <time>2024-07-03T12:52:14Z</time>
      </trkpt>
      <trkpt lat="49.14952" lon="-0.24427">
        <ele>13</ele>
        <time>2024-07-03T12:52:15Z</time>
      </trkpt>
      <trkpt lat="49.14949" lon="-0.24439">
        <ele>13</ele>
        <time>2024-07-03T12:52:16Z</time>
      </trkpt>
      <trkpt lat="49.14947" lon="-0.2445">
        <ele>13</ele>
        <time>2024-07-03T12:52:17Z</time>
      </trkpt>
      <trkpt lat="49.14944" lon="-0.24461">
        <ele>13</ele>
        <time>2024-07-03T12:52:18Z</time>
      </trkpt>
      <trkpt lat="49.14942" lon="-0.24472">
        <ele>13</ele>
        <time>2024-07-03T12:52:19Z</time>
      </trkpt>
      <trkpt lat="49.14939" lon="-0.24483">
        <ele>13</ele>
        <time>2024-07-03T12:52:20Z</time>
      </trkpt>
      <trkpt lat="49.14937" lon="-0.24494">
        <ele>13</ele>
        <time>2024-07-03T12:52:21Z</time>
      </trkpt>
      <trkpt lat="49.14934" lon="-0.24505">
        <ele>13</ele>
        <time>2024-07-03T12:52:22Z</time>
      </trkpt>
      <trkpt lat="49.14931" lon="-0.24516">
        <ele>13</ele>
        <time>2024-07-03T12:52:23Z</time>
      </trkpt>
      <trkpt lat="49.14929" lon="-0.24527">
        <ele>13</ele>
        <time>2024-07-03T12:52:24Z</time>
      </trkpt>
      <trkpt lat="49.14926" lon="-0.24538">
        <ele>13</ele>
        <time>2024-07-03T12:52:25Z</time>
      </trkpt>
      <trkpt lat="49.14924" lon="-0.24549">
        <ele>13</ele>
        <time>2024-07-03T12:52:26Z</time>
      </trkpt>
      <trkpt lat="49.14922" lon="-0.24559">
        <ele>13</ele>
        <time>2024-07-03T12:52:27Z</time>
      </trkpt>
      <trkpt lat="49.14919" lon="-0.2457">
        <ele>13</ele>
        <time>2024-07-03T12:52:28Z</time>
      </trkpt>
      <trkpt lat="49.14917" lon="-0.24581">
        <ele>12.6</ele>
        <time>2024-07-03T12:52:29Z</time>
      </trkpt>
      <trkpt lat="49.14915" lon="-0.24592">
        <ele>12.6</ele>
        <time>2024-07-03T12:52:30Z</time>
      </trkpt>
      <trkpt lat="49.14912" lon="-0.24603">
        <ele>12.6</ele>
        <time>2024-07-03T12:52:31Z</time>
      </trkpt>
      <trkpt lat="49.1491" lon="-0.24614">
        <ele>12.6</ele>
        <time>2024-07-03T12:52:32Z</time>
      </trkpt>
      <trkpt lat="49.14908" lon="-0.24625">
        <ele>12.8</ele>
        <time>2024-07-03T12:52:33Z</time>
      </trkpt>
      <trkpt lat="49.14905" lon="-0.24636">
        <ele>12.8</ele>
        <time>2024-07-03T12:52:34Z</time>
      </trkpt>
      <trkpt lat="49.14903" lon="-0.24646">
        <ele>13</ele>
        <time>2024-07-03T12:52:35Z</time>
      </trkpt>
      <trkpt lat="49.149" lon="-0.24657">
        <ele>13</ele>
        <time>2024-07-03T12:52:36Z</time>
      </trkpt>
      <trkpt lat="49.14898" lon="-0.24668">
        <ele>12.8</ele>
        <time>2024-07-03T12:52:37Z</time>
      </trkpt>
      <trkpt lat="49.14895" lon="-0.24679">
        <ele>12.6</ele>
        <time>2024-07-03T12:52:38Z</time>
      </trkpt>
      <trkpt lat="49.14893" lon="-0.2469">
        <ele>12.4</ele>
        <time>2024-07-03T12:52:39Z</time>
      </trkpt>
      <trkpt lat="49.14891" lon="-0.24701">
        <ele>12.2</ele>
        <time>2024-07-03T12:52:40Z</time>
      </trkpt>
      <trkpt lat="49.14888" lon="-0.24711">
        <ele>12.2</ele>
        <time>2024-07-03T12:52:41Z</time>
      </trkpt>
      <trkpt lat="49.14886" lon="-0.24722">
        <ele>12.2</ele>
        <time>2024-07-03T12:52:42Z</time>
      </trkpt>
      <trkpt lat="49.14884" lon="-0.24732">
        <ele>12.2</ele>
        <time>2024-07-03T12:52:43Z</time>
      </trkpt>
      <trkpt lat="49.14881" lon="-0.24743">
        <ele>12.4</ele>
        <time>2024-07-03T12:52:44Z</time>
      </trkpt>
      <trkpt lat="49.14879" lon="-0.24754">
        <ele>12.4</ele>
        <time>2024-07-03T12:52:45Z</time>
      </trkpt>
      <trkpt lat="49.14877" lon="-0.24764">
        <ele>12.6</ele>
        <time>2024-07-03T12:52:46Z</time>
      </trkpt>
      <trkpt lat="49.14874" lon="-0.24775">
        <ele>13</ele>
        <time>2024-07-03T12:52:47Z</time>
      </trkpt>
      <trkpt lat="49.14872" lon="-0.24785">
        <ele>13</ele>
        <time>2024-07-03T12:52:48Z</time>
      </trkpt>
      <trkpt lat="49.1487" lon="-0.24795">
        <ele>13.2</ele>
        <time>2024-07-03T12:52:49Z</time>
      </trkpt>
      <trkpt lat="49.14868" lon="-0.24805">
        <ele>13.2</ele>
        <time>2024-07-03T12:52:50Z</time>
      </trkpt>
      <trkpt lat="49.14866" lon="-0.24816">
        <ele>13.4</ele>
        <time>2024-07-03T12:52:51Z</time>
      </trkpt>
      <trkpt lat="49.14864" lon="-0.24826">
        <ele>13.4</ele>
        <time>2024-07-03T12:52:52Z</time>
      </trkpt>
      <trkpt lat="49.14861" lon="-0.24836">
        <ele>13.6</ele>
        <time>2024-07-03T12:52:53Z</time>
      </trkpt>
      <trkpt lat="49.14859" lon="-0.24846">
        <ele>13.6</ele>
        <time>2024-07-03T12:52:54Z</time>
      </trkpt>
      <trkpt lat="49.14857" lon="-0.24856">
        <ele>13.8</ele>
        <time>2024-07-03T12:52:55Z</time>
      </trkpt>
      <trkpt lat="49.14855" lon="-0.24866">
        <ele>13.8</ele>
        <time>2024-07-03T12:52:56Z</time>
      </trkpt>
      <trkpt lat="49.14853" lon="-0.24876">
        <ele>13.8</ele>
        <time>2024-07-03T12:52:57Z</time>
      </trkpt>
      <trkpt lat="49.14851" lon="-0.24885">
        <ele>14</ele>
        <time>2024-07-03T12:52:58Z</time>
      </trkpt>
      <trkpt lat="49.14848" lon="-0.24895">
        <ele>14</ele>
        <time>2024-07-03T12:52:59Z</time>
      </trkpt>
      <trkpt lat="49.14846" lon="-0.24904">
        <ele>14.2</ele>
        <time>2024-07-03T12:53:00Z</time>
      </trkpt>
      <trkpt lat="49.14843" lon="-0.24913">
        <ele>14.4</ele>
        <time>2024-07-03T12:53:01Z</time>
      </trkpt>
      <trkpt lat="49.14841" lon="-0.24922">
        <ele>14.6</ele>
        <time>2024-07-03T12:53:02Z</time>
      </trkpt>
      <trkpt lat="49.14838" lon="-0.24931">
        <ele>14.8</ele>
        <time>2024-07-03T12:53:03Z</time>
      </trkpt>
      <trkpt lat="49.14834" lon="-0.2494">
        <ele>14.8</ele>
        <time>2024-07-03T12:53:04Z</time>
      </trkpt>
      <trkpt lat="49.1483" lon="-0.24947">
        <ele>14.8</ele>
        <time>2024-07-03T12:53:05Z</time>
      </trkpt>
      <trkpt lat="49.14825" lon="-0.24954">
        <ele>15</ele>
        <time>2024-07-03T12:53:06Z</time>
      </trkpt>
      <trkpt lat="49.1482" lon="-0.24961">
        <ele>15</ele>
        <time>2024-07-03T12:53:07Z</time>
      </trkpt>
      <trkpt lat="49.14815" lon="-0.24968">
        <ele>15</ele>
        <time>2024-07-03T12:53:08Z</time>
      </trkpt>
      <trkpt lat="49.14809" lon="-0.24974">
        <ele>14.8</ele>
        <time>2024-07-03T12:53:09Z</time>
      </trkpt>
      <trkpt lat="49.14804" lon="-0.24981">
        <ele>14.6</ele>
        <time>2024-07-03T12:53:10Z</time>
      </trkpt>
      <trkpt lat="49.14798" lon="-0.24987">
        <ele>14.6</ele>
        <time>2024-07-03T12:53:11Z</time>
      </trkpt>
      <trkpt lat="49.14793" lon="-0.24993">
        <ele>14.8</ele>
        <time>2024-07-03T12:53:12Z</time>
      </trkpt>
      <trkpt lat="49.14787" lon="-0.25">
        <ele>14.8</ele>
        <time>2024-07-03T12:53:13Z</time>
      </trkpt>
      <trkpt lat="49.14782" lon="-0.25005">
        <ele>14.8</ele>
        <time>2024-07-03T12:53:14Z</time>
      </trkpt>
      <trkpt lat="49.14776" lon="-0.25011">
        <ele>14.6</ele>
        <time>2024-07-03T12:53:15Z</time>
      </trkpt>
      <trkpt lat="49.14771" lon="-0.25016">
        <ele>14.6</ele>
        <time>2024-07-03T12:53:16Z</time>
      </trkpt>
      <trkpt lat="49.14766" lon="-0.25022">
        <ele>14.8</ele>
        <time>2024-07-03T12:53:17Z</time>
      </trkpt>
      <trkpt lat="49.14761" lon="-0.25027">
        <ele>14.8</ele>
        <time>2024-07-03T12:53:18Z</time>
      </trkpt>
      <trkpt lat="49.14757" lon="-0.25032">
        <ele>14.8</ele>
        <time>2024-07-03T12:53:19Z</time>
      </trkpt>
      <trkpt lat="49.14752" lon="-0.25037">
        <ele>15</ele>
        <time>2024-07-03T12:53:20Z</time>
      </trkpt>
      <trkpt lat="49.14748" lon="-0.25042">
        <ele>15.2</ele>
        <time>2024-07-03T12:53:21Z</time>
      </trkpt>
      <trkpt lat="49.14744" lon="-0.25047">
        <ele>15.6</ele>
        <time>2024-07-03T12:53:22Z</time>
      </trkpt>
      <trkpt lat="49.14739" lon="-0.25052">
        <ele>16</ele>
        <time>2024-07-03T12:53:23Z</time>
      </trkpt>
      <trkpt lat="49.14734" lon="-0.25057">
        <ele>16.4</ele>
        <time>2024-07-03T12:53:24Z</time>
      </trkpt>
      <trkpt lat="49.1473" lon="-0.25062">
        <ele>16.6</ele>
        <time>2024-07-03T12:53:25Z</time>
      </trkpt>
      <trkpt lat="49.14725" lon="-0.25067">
        <ele>16.8</ele>
        <time>2024-07-03T12:53:26Z</time>
      </trkpt>
      <trkpt lat="49.14721" lon="-0.25072">
        <ele>17</ele>
        <time>2024-07-03T12:53:27Z</time>
      </trkpt>
      <trkpt lat="49.14716" lon="-0.25077">
        <ele>17</ele>
        <time>2024-07-03T12:53:28Z</time>
      </trkpt>
      <trkpt lat="49.14711" lon="-0.25082">
        <ele>17</ele>
        <time>2024-07-03T12:53:29Z</time>
      </trkpt>
      <trkpt lat="49.14706" lon="-0.25088">
        <ele>17</ele>
        <time>2024-07-03T12:53:30Z</time>
      </trkpt>
      <trkpt lat="49.14701" lon="-0.25093">
        <ele>17</ele>
        <time>2024-07-03T12:53:31Z</time>
      </trkpt>
      <trkpt lat="49.14696" lon="-0.25099">
        <ele>17</ele>
        <time>2024-07-03T12:53:32Z</time>
      </trkpt>
      <trkpt lat="49.14691" lon="-0.25105">
        <ele>17</ele>
        <time>2024-07-03T12:53:33Z</time>
      </trkpt>
      <trkpt lat="49.14685" lon="-0.25111">
        <ele>17</ele>
        <time>2024-07-03T12:53:34Z</time>
      </trkpt>
      <trkpt lat="49.1468" lon="-0.25117">
        <ele>17</ele>
        <time>2024-07-03T12:53:35Z</time>
      </trkpt>
      <trkpt lat="49.14674" lon="-0.25124">
        <ele>16.8</ele>
        <time>2024-07-03T12:53:36Z</time>
      </trkpt>
      <trkpt lat="49.14669" lon="-0.2513">
        <ele>16.6</ele>
        <time>2024-07-03T12:53:37Z</time>
      </trkpt>
      <trkpt lat="49.14663" lon="-0.25136">
        <ele>16.4</ele>
        <time>2024-07-03T12:53:38Z</time>
      </trkpt>
      <trkpt lat="49.14658" lon="-0.25143">
        <ele>16.2</ele>
        <time>2024-07-03T12:53:39Z</time>
      </trkpt>
      <trkpt lat="49.14652" lon="-0.25149">
        <ele>16</ele>
        <time>2024-07-03T12:53:40Z</time>
      </trkpt>
      <trkpt lat="49.14647" lon="-0.25155">
        <ele>15.8</ele>
        <time>2024-07-03T12:53:41Z</time>
      </trkpt>
      <trkpt lat="49.14642" lon="-0.25161">
        <ele>15.6</ele>
        <time>2024-07-03T12:53:42Z</time>
      </trkpt>
      <trkpt lat="49.14636" lon="-0.25167">
        <ele>15.6</ele>
        <time>2024-07-03T12:53:43Z</time>
      </trkpt>
      <trkpt lat="49.14631" lon="-0.25174">
        <ele>15.6</ele>
        <time>2024-07-03T12:53:44Z</time>
      </trkpt>
      <trkpt lat="49.14626" lon="-0.25179">
        <ele>15.6</ele>
        <time>2024-07-03T12:53:45Z</time>
      </trkpt>
      <trkpt lat="49.14621" lon="-0.25185">
        <ele>15.6</ele>
        <time>2024-07-03T12:53:46Z</time>
      </trkpt>
      <trkpt lat="49.14616" lon="-0.25191">
        <ele>15.6</ele>
        <time>2024-07-03T12:53:47Z</time>
      </trkpt>
      <trkpt lat="49.1461" lon="-0.25197">
        <ele>15.6</ele>
        <time>2024-07-03T12:53:48Z</time>
      </trkpt>
      <trkpt lat="49.14605" lon="-0.25203">
        <ele>15.4</ele>
        <time>2024-07-03T12:53:49Z</time>
      </trkpt>
      <trkpt lat="49.146" lon="-0.25209">
        <ele>15.2</ele>
        <time>2024-07-03T12:53:50Z</time>
      </trkpt>
      <trkpt lat="49.14595" lon="-0.25215">
        <ele>15.2</ele>
        <time>2024-07-03T12:53:51Z</time>
      </trkpt>
      <trkpt lat="49.1459" lon="-0.2522">
        <ele>15</ele>
        <time>2024-07-03T12:53:52Z</time>
      </trkpt>
      <trkpt lat="49.14585" lon="-0.25225">
        <ele>14.8</ele>
        <time>2024-07-03T12:53:53Z</time>
      </trkpt>
      <trkpt lat="49.14581" lon="-0.2523">
        <ele>15</ele>
        <time>2024-07-03T12:53:54Z</time>
      </trkpt>
      <trkpt lat="49.14576" lon="-0.25234">
        <ele>15.2</ele>
        <time>2024-07-03T12:53:55Z</time>
      </trkpt>
      <trkpt lat="49.14572" lon="-0.25239">
        <ele>15.2</ele>
        <time>2024-07-03T12:53:56Z</time>
      </trkpt>
      <trkpt lat="49.14568" lon="-0.25244">
        <ele>15.4</ele>
        <time>2024-07-03T12:53:57Z</time>
      </trkpt>
      <trkpt lat="49.14564" lon="-0.25248">
        <ele>15.4</ele>
        <time>2024-07-03T12:53:58Z</time>
      </trkpt>
      <trkpt lat="49.1456" lon="-0.25253">
        <ele>15.6</ele>
        <time>2024-07-03T12:53:59Z</time>
      </trkpt>
      <trkpt lat="49.14556" lon="-0.25257">
        <ele>15.8</ele>
        <time>2024-07-03T12:54:00Z</time>
      </trkpt>
      <trkpt lat="49.14553" lon="-0.25261">
        <ele>15.8</ele>
        <time>2024-07-03T12:54:01Z</time>
      </trkpt>
      <trkpt lat="49.1455" lon="-0.25265">
        <ele>16</ele>
        <time>2024-07-03T12:54:02Z</time>
      </trkpt>
      <trkpt lat="49.14547" lon="-0.25268">
        <ele>16.2</ele>
        <time>2024-07-03T12:54:03Z</time>
      </trkpt>
      <trkpt lat="49.14545" lon="-0.2527">
        <ele>16.4</ele>
        <time>2024-07-03T12:54:04Z</time>
      </trkpt>
      <trkpt lat="49.14543" lon="-0.25272">
        <ele>16.4</ele>
        <time>2024-07-03T12:54:05Z</time>
      </trkpt>
      <trkpt lat="49.14542" lon="-0.25273">
        <ele>16.6</ele>
        <time>2024-07-03T12:54:06Z</time>
      </trkpt>
      <trkpt lat="49.14541" lon="-0.25273">
        <ele>16.8</ele>
        <time>2024-07-03T12:54:07Z</time>
      </trkpt>
      <trkpt lat="49.14541" lon="-0.25273">
        <ele>17</ele>
        <time>2024-07-03T12:54:08Z</time>
      </trkpt>
      <trkpt lat="49.14541" lon="-0.25273">
        <ele>17.2</ele>
        <time>2024-07-03T12:54:09Z</time>
      </trkpt>
      <trkpt lat="49.14539" lon="-0.25276">
        <ele>17.4</ele>
        <time>2024-07-03T12:54:48Z</time>
      </trkpt>
      <trkpt lat="49.14537" lon="-0.25277">
        <ele>17.4</ele>
        <time>2024-07-03T12:54:49Z</time>
      </trkpt>
      <trkpt lat="49.14534" lon="-0.25277">
        <ele>17.4</ele>
        <time>2024-07-03T12:54:50Z</time>
      </trkpt>
      <trkpt lat="49.14531" lon="-0.25275">
        <ele>17.4</ele>
        <time>2024-07-03T12:54:51Z</time>
      </trkpt>
      <trkpt lat="49.14528" lon="-0.25273">
        <ele>17.4</ele>
        <time>2024-07-03T12:54:52Z</time>
      </trkpt>
      <trkpt lat="49.14526" lon="-0.2527">
        <ele>17.4</ele>
        <time>2024-07-03T12:54:53Z</time>
      </trkpt>
      <trkpt lat="49.14523" lon="-0.25267">
        <ele>17.4</ele>
        <time>2024-07-03T12:54:54Z</time>
      </trkpt>
      <trkpt lat="49.14519" lon="-0.25262">
        <ele>17.4</ele>
        <time>2024-07-03T12:54:55Z</time>
      </trkpt>
      <trkpt lat="49.14516" lon="-0.25257">
        <ele>17.4</ele>
        <time>2024-07-03T12:54:56Z</time>
      </trkpt>
      <trkpt lat="49.14512" lon="-0.25251">
        <ele>17.2</ele>
        <time>2024-07-03T12:54:57Z</time>
      </trkpt>
      <trkpt lat="49.14508" lon="-0.25244">
        <ele>17.2</ele>
        <time>2024-07-03T12:54:58Z</time>
      </trkpt>
      <trkpt lat="49.14505" lon="-0.25237">
        <ele>17</ele>
        <time>2024-07-03T12:54:59Z</time>
      </trkpt>
      <trkpt lat="49.14501" lon="-0.25229">
        <ele>17</ele>
        <time>2024-07-03T12:55:00Z</time>
      </trkpt>
      <trkpt lat="49.14497" lon="-0.25221">
        <ele>16.8</ele>
        <time>2024-07-03T12:55:01Z</time>
      </trkpt>
      <trkpt lat="49.14493" lon="-0.25212">
        <ele>16.8</ele>
        <time>2024-07-03T12:55:02Z</time>
      </trkpt>
      <trkpt lat="49.14489" lon="-0.25203">
        <ele>16.8</ele>
        <time>2024-07-03T12:55:03Z</time>
      </trkpt>
      <trkpt lat="49.14485" lon="-0.25194">
        <ele>17</ele>
        <time>2024-07-03T12:55:04Z</time>
      </trkpt>
      <trkpt lat="49.14481" lon="-0.25185">
        <ele>17</ele>
        <time>2024-07-03T12:55:05Z</time>
      </trkpt>
      <trkpt lat="49.14477" lon="-0.25175">
        <ele>17.2</ele>
        <time>2024-07-03T12:55:06Z</time>
      </trkpt>
      <trkpt lat="49.14472" lon="-0.25166">
        <ele>17.2</ele>
        <time>2024-07-03T12:55:07Z</time>
      </trkpt>
      <trkpt lat="49.14468" lon="-0.25156">
        <ele>17.2</ele>
        <time>2024-07-03T12:55:08Z</time>
      </trkpt>
      <trkpt lat="49.14464" lon="-0.25145">
        <ele>17.2</ele>
        <time>2024-07-03T12:55:09Z</time>
      </trkpt>
      <trkpt lat="49.1446" lon="-0.25135">
        <ele>17.2</ele>
        <time>2024-07-03T12:55:10Z</time>
      </trkpt>
      <trkpt lat="49.14455" lon="-0.25125">
        <ele>17.4</ele>
        <time>2024-07-03T12:55:11Z</time>
      </trkpt>
      <trkpt lat="49.14451" lon="-0.25114">
        <ele>17.4</ele>
        <time>2024-07-03T12:55:12Z</time>
      </trkpt>
      <trkpt lat="49.14447" lon="-0.25104">
        <ele>17.4</ele>
        <time>2024-07-03T12:55:13Z</time>
      </trkpt>
      <trkpt lat="49.14442" lon="-0.25094">
        <ele>17.4</ele>
        <time>2024-07-03T12:55:14Z</time>
      </trkpt>
      <trkpt lat="49.14437" lon="-0.25085">
        <ele>17.6</ele>
        <time>2024-07-03T12:55:15Z</time>
      </trkpt>
      <trkpt lat="49.14431" lon="-0.25076">
        <ele>17.6</ele>
        <time>2024-07-03T12:55:16Z</time>
      </trkpt>
      <trkpt lat="49.14427" lon="-0.25066">
        <ele>17.8</ele>
        <time>2024-07-03T12:55:17Z</time>
      </trkpt>
      <trkpt lat="49.14422" lon="-0.25057">
        <ele>18</ele>
        <time>2024-07-03T12:55:18Z</time>
      </trkpt>
      <trkpt lat="49.14416" lon="-0.25047">
        <ele>18</ele>
        <time>2024-07-03T12:55:19Z</time>
      </trkpt>
      <trkpt lat="49.14411" lon="-0.25037">
        <ele>18.2</ele>
        <time>2024-07-03T12:55:20Z</time>
      </trkpt>
      <trkpt lat="49.14406" lon="-0.25027">
        <ele>18</ele>
        <time>2024-07-03T12:55:21Z</time>
      </trkpt>
      <trkpt lat="49.14401" lon="-0.25017">
        <ele>18</ele>
        <time>2024-07-03T12:55:22Z</time>
      </trkpt>
      <trkpt lat="49.14396" lon="-0.25007">
        <ele>18</ele>
        <time>2024-07-03T12:55:23Z</time>
      </trkpt>
      <trkpt lat="49.14391" lon="-0.24996">
        <ele>18</ele>
        <time>2024-07-03T12:55:24Z</time>
      </trkpt>
      <trkpt lat="49.14387" lon="-0.24986">
        <ele>18</ele>
        <time>2024-07-03T12:55:25Z</time>
      </trkpt>
      <trkpt lat="49.14383" lon="-0.24975">
        <ele>18</ele>
        <time>2024-07-03T12:55:26Z</time>
      </trkpt>
      <trkpt lat="49.14378" lon="-0.24964">
        <ele>18</ele>
        <time>2024-07-03T12:55:27Z</time>
      </trkpt>
      <trkpt lat="49.14374" lon="-0.24954">
        <ele>18</ele>
        <time>2024-07-03T12:55:28Z</time>
      </trkpt>
      <trkpt lat="49.14369" lon="-0.24944">
        <ele>18.2</ele>
        <time>2024-07-03T12:55:29Z</time>
      </trkpt>
      <trkpt lat="49.14364" lon="-0.24934">
        <ele>18.4</ele>
        <time>2024-07-03T12:55:30Z</time>
      </trkpt>
      <trkpt lat="49.1436" lon="-0.24924">
        <ele>18.6</ele>
        <time>2024-07-03T12:55:31Z</time>
      </trkpt>
      <trkpt lat="49.14355" lon="-0.24913">
        <ele>18.8</ele>
        <time>2024-07-03T12:55:32Z</time>
      </trkpt>
      <trkpt lat="49.14351" lon="-0.24903">
        <ele>19</ele>
        <time>2024-07-03T12:55:33Z</time>
      </trkpt>
      <trkpt lat="49.14347" lon="-0.24893">
        <ele>19.2</ele>
        <time>2024-07-03T12:55:34Z</time>
      </trkpt>
      <trkpt lat="49.14343" lon="-0.24883">
        <ele>19.4</ele>
        <time>2024-07-03T12:55:35Z</time>
      </trkpt>
      <trkpt lat="49.14339" lon="-0.24873">
        <ele>19.4</ele>
        <time>2024-07-03T12:55:36Z</time>
      </trkpt>
      <trkpt lat="49.14335" lon="-0.24863">
        <ele>19.6</ele>
        <time>2024-07-03T12:55:37Z</time>
      </trkpt>
      <trkpt lat="49.14331" lon="-0.24853">
        <ele>19.4</ele>
        <time>2024-07-03T12:55:38Z</time>
      </trkpt>
      <trkpt lat="49.14327" lon="-0.24844">
        <ele>19.2</ele>
        <time>2024-07-03T12:55:39Z</time>
      </trkpt>
      <trkpt lat="49.14322" lon="-0.24834">
        <ele>19</ele>
        <time>2024-07-03T12:55:40Z</time>
      </trkpt>
      <trkpt lat="49.14318" lon="-0.24824">
        <ele>19</ele>
        <time>2024-07-03T12:55:41Z</time>
      </trkpt>
      <trkpt lat="49.14314" lon="-0.24815">
        <ele>18.8</ele>
        <time>2024-07-03T12:55:42Z</time>
      </trkpt>
      <trkpt lat="49.1431" lon="-0.24805">
        <ele>18.8</ele>
        <time>2024-07-03T12:55:43Z</time>
      </trkpt>
      <trkpt lat="49.14306" lon="-0.24795">
        <ele>18.8</ele>
        <time>2024-07-03T12:55:44Z</time>
      </trkpt>
      <trkpt lat="49.14301" lon="-0.24786">
        <ele>18.6</ele>
        <time>2024-07-03T12:55:45Z</time>
      </trkpt>
      <trkpt lat="49.14297" lon="-0.24776">
        <ele>18.6</ele>
        <time>2024-07-03T12:55:46Z</time>
      </trkpt>
      <trkpt lat="49.14292" lon="-0.24767">
        <ele>18.6</ele>
        <time>2024-07-03T12:55:47Z</time>
      </trkpt>
      <trkpt lat="49.14288" lon="-0.24757">
        <ele>18.6</ele>
        <time>2024-07-03T12:55:48Z</time>
      </trkpt>
      <trkpt lat="49.14284" lon="-0.24747">
        <ele>18.6</ele>
        <time>2024-07-03T12:55:49Z</time>
      </trkpt>
      <trkpt lat="49.1428" lon="-0.24737">
        <ele>18.6</ele>
        <time>2024-07-03T12:55:50Z</time>
      </trkpt>
      <trkpt lat="49.14276" lon="-0.24727">
        <ele>18.6</ele>
        <time>2024-07-03T12:55:51Z</time>
      </trkpt>
      <trkpt lat="49.14271" lon="-0.24718">
        <ele>18.8</ele>
        <time>2024-07-03T12:55:52Z</time>
      </trkpt>
      <trkpt lat="49.14267" lon="-0.24708">
        <ele>18.8</ele>
        <time>2024-07-03T12:55:53Z</time>
      </trkpt>
      <trkpt lat="49.14262" lon="-0.24698">
        <ele>18.8</ele>
        <time>2024-07-03T12:55:54Z</time>
      </trkpt>
      <trkpt lat="49.14258" lon="-0.24688">
        <ele>18.8</ele>
        <time>2024-07-03T12:55:55Z</time>
      </trkpt>
      <trkpt lat="49.14253" lon="-0.24678">
        <ele>18.6</ele>
        <time>2024-07-03T12:55:56Z</time>
      </trkpt>
      <trkpt lat="49.14249" lon="-0.24668">
        <ele>18.4</ele>
        <time>2024-07-03T12:55:57Z</time>
      </trkpt>
      <trkpt lat="49.14245" lon="-0.24658">
        <ele>18.2</ele>
        <time>2024-07-03T12:55:58Z</time>
      </trkpt>
      <trkpt lat="49.1424" lon="-0.24648">
        <ele>18.2</ele>
        <time>2024-07-03T12:55:59Z</time>
      </trkpt>
      <trkpt lat="49.14236" lon="-0.24639">
        <ele>18</ele>
        <time>2024-07-03T12:56:00Z</time>
      </trkpt>
      <trkpt lat="49.14231" lon="-0.24629">
        <ele>18</ele>
        <time>2024-07-03T12:56:01Z</time>
      </trkpt>
      <trkpt lat="49.14226" lon="-0.24619">
        <ele>18</ele>
        <time>2024-07-03T12:56:02Z</time>
      </trkpt>
      <trkpt lat="49.14221" lon="-0.2461">
        <ele>18</ele>
        <time>2024-07-03T12:56:03Z</time>
      </trkpt>
      <trkpt lat="49.14216" lon="-0.24601">
        <ele>17.8</ele>
        <time>2024-07-03T12:56:04Z</time>
      </trkpt>
      <trkpt lat="49.14211" lon="-0.24592">
        <ele>17.8</ele>
        <time>2024-07-03T12:56:05Z</time>
      </trkpt>
      <trkpt lat="49.14205" lon="-0.24584">
        <ele>17.6</ele>
        <time>2024-07-03T12:56:06Z</time>
      </trkpt>
      <trkpt lat="49.14198" lon="-0.24578">
        <ele>17.6</ele>
        <time>2024-07-03T12:56:07Z</time>
      </trkpt>
      <trkpt lat="49.14191" lon="-0.24575">
        <ele>17.2</ele>
        <time>2024-07-03T12:56:08Z</time>
      </trkpt>
      <trkpt lat="49.14183" lon="-0.24577">
        <ele>17</ele>
        <time>2024-07-03T12:56:09Z</time>
      </trkpt>
      <trkpt lat="49.14176" lon="-0.24582">
        <ele>16.6</ele>
        <time>2024-07-03T12:56:10Z</time>
      </trkpt>
      <trkpt lat="49.14169" lon="-0.24589">
        <ele>16.4</ele>
        <time>2024-07-03T12:56:11Z</time>
      </trkpt>
      <trkpt lat="49.14164" lon="-0.24598">
        <ele>15.8</ele>
        <time>2024-07-03T12:56:12Z</time>
      </trkpt>
      <trkpt lat="49.14159" lon="-0.24607">
        <ele>15.6</ele>
        <time>2024-07-03T12:56:13Z</time>
      </trkpt>
      <trkpt lat="49.14155" lon="-0.24617">
        <ele>15.2</ele>
        <time>2024-07-03T12:56:14Z</time>
      </trkpt>
      <trkpt lat="49.1415" lon="-0.24626">
        <ele>15</ele>
        <time>2024-07-03T12:56:15Z</time>
      </trkpt>
      <trkpt lat="49.14146" lon="-0.24636">
        <ele>15</ele>
        <time>2024-07-03T12:56:16Z</time>
      </trkpt>
      <trkpt lat="49.14142" lon="-0.24645">
        <ele>15.2</ele>
        <time>2024-07-03T12:56:17Z</time>
      </trkpt>
      <trkpt lat="49.14138" lon="-0.24654">
        <ele>15.4</ele>
        <time>2024-07-03T12:56:18Z</time>
      </trkpt>
      <trkpt lat="49.14134" lon="-0.24664">
        <ele>15.6</ele>
        <time>2024-07-03T12:56:19Z</time>
      </trkpt>
      <trkpt lat="49.14129" lon="-0.24673">
        <ele>15.6</ele>
        <time>2024-07-03T12:56:20Z</time>
      </trkpt>
      <trkpt lat="49.14125" lon="-0.24683">
        <ele>15.8</ele>
        <time>2024-07-03T12:56:21Z</time>
      </trkpt>
      <trkpt lat="49.14121" lon="-0.24692">
        <ele>15.8</ele>
        <time>2024-07-03T12:56:22Z</time>
      </trkpt>
      <trkpt lat="49.14116" lon="-0.24702">
        <ele>16</ele>
        <time>2024-07-03T12:56:23Z</time>
      </trkpt>
      <trkpt lat="49.14112" lon="-0.24711">
        <ele>16.2</ele>
        <time>2024-07-03T12:56:24Z</time>
      </trkpt>
      <trkpt lat="49.14108" lon="-0.24721">
        <ele>16.4</ele>
        <time>2024-07-03T12:56:25Z</time>
      </trkpt>
      <trkpt lat="49.14104" lon="-0.2473">
        <ele>16.6</ele>
        <time>2024-07-03T12:56:26Z</time>
      </trkpt>
      <trkpt lat="49.14099" lon="-0.24739">
        <ele>16.8</ele>
        <time>2024-07-03T12:56:27Z</time>
      </trkpt>
      <trkpt lat="49.14095" lon="-0.24749">
        <ele>16.8</ele>
        <time>2024-07-03T12:56:28Z</time>
      </trkpt>
      <trkpt lat="49.14091" lon="-0.24758">
        <ele>16.6</ele>
        <time>2024-07-03T12:56:29Z</time>
      </trkpt>
      <trkpt lat="49.14087" lon="-0.24767">
        <ele>16.4</ele>
        <time>2024-07-03T12:56:30Z</time>
      </trkpt>
      <trkpt lat="49.14083" lon="-0.24777">
        <ele>16.4</ele>
        <time>2024-07-03T12:56:31Z</time>
      </trkpt>
      <trkpt lat="49.14078" lon="-0.24786">
        <ele>16.2</ele>
        <time>2024-07-03T12:56:32Z</time>
      </trkpt>
      <trkpt lat="49.14074" lon="-0.24795">
        <ele>16</ele>
        <time>2024-07-03T12:56:33Z</time>
      </trkpt>
      <trkpt lat="49.1407" lon="-0.24804">
        <ele>15.8</ele>
        <time>2024-07-03T12:56:34Z</time>
      </trkpt>
      <trkpt lat="49.14066" lon="-0.24813">
        <ele>15.8</ele>
        <time>2024-07-03T12:56:35Z</time>
      </trkpt>
      <trkpt lat="49.14062" lon="-0.24822">
        <ele>15.8</ele>
        <time>2024-07-03T12:56:36Z</time>
      </trkpt>
      <trkpt lat="49.14058" lon="-0.24832">
        <ele>16</ele>
        <time>2024-07-03T12:56:37Z</time>
      </trkpt>
      <trkpt lat="49.14054" lon="-0.24841">
        <ele>16.2</ele>
        <time>2024-07-03T12:56:38Z</time>
      </trkpt>
      <trkpt lat="49.1405" lon="-0.2485">
        <ele>16.4</ele>
        <time>2024-07-03T12:56:39Z</time>
      </trkpt>
      <trkpt lat="49.14046" lon="-0.24859">
        <ele>16.4</ele>
        <time>2024-07-03T12:56:40Z</time>
      </trkpt>
      <trkpt lat="49.14042" lon="-0.24868">
        <ele>16.6</ele>
        <time>2024-07-03T12:56:41Z</time>
      </trkpt>
      <trkpt lat="49.14038" lon="-0.24876">
        <ele>16.6</ele>
        <time>2024-07-03T12:56:42Z</time>
      </trkpt>
      <trkpt lat="49.14034" lon="-0.24885">
        <ele>16.6</ele>
        <time>2024-07-03T12:56:43Z</time>
      </trkpt>
      <trkpt lat="49.1403" lon="-0.24894">
        <ele>16.6</ele>
        <time>2024-07-03T12:56:44Z</time>
      </trkpt>
      <trkpt lat="49.14026" lon="-0.24903">
        <ele>16.8</ele>
        <time>2024-07-03T12:56:45Z</time>
      </trkpt>
      <trkpt lat="49.14022" lon="-0.24913">
        <ele>17</ele>
        <time>2024-07-03T12:56:46Z</time>
      </trkpt>
      <trkpt lat="49.14017" lon="-0.24922">
        <ele>17.4</ele>
        <time>2024-07-03T12:56:47Z</time>
      </trkpt>
      <trkpt lat="49.14013" lon="-0.24931">
        <ele>17.4</ele>
        <time>2024-07-03T12:56:48Z</time>
      </trkpt>
      <trkpt lat="49.14009" lon="-0.2494">
        <ele>17.6</ele>
        <time>2024-07-03T12:56:49Z</time>
      </trkpt>
      <trkpt lat="49.14005" lon="-0.24949">
        <ele>17.6</ele>
        <time>2024-07-03T12:56:50Z</time>
      </trkpt>
      <trkpt lat="49.14001" lon="-0.24958">
        <ele>17.6</ele>
        <time>2024-07-03T12:56:51Z</time>
      </trkpt>
      <trkpt lat="49.13996" lon="-0.24968">
        <ele>17.4</ele>
        <time>2024-07-03T12:56:52Z</time>
      </trkpt>
      <trkpt lat="49.13992" lon="-0.24977">
        <ele>17.4</ele>
        <time>2024-07-03T12:56:53Z</time>
      </trkpt>
      <trkpt lat="49.13988" lon="-0.24986">
        <ele>17</ele>
        <time>2024-07-03T12:56:54Z</time>
      </trkpt>
      <trkpt lat="49.13984" lon="-0.24995">
        <ele>17</ele>
        <time>2024-07-03T12:56:55Z</time>
      </trkpt>
      <trkpt lat="49.1398" lon="-0.25004">
        <ele>16.8</ele>
        <time>2024-07-03T12:56:56Z</time>
      </trkpt>
      <trkpt lat="49.13976" lon="-0.25013">
        <ele>16.8</ele>
        <time>2024-07-03T12:56:57Z</time>
      </trkpt>
      <trkpt lat="49.13972" lon="-0.25022">
        <ele>16.6</ele>
        <time>2024-07-03T12:56:58Z</time>
      </trkpt>
      <trkpt lat="49.13968" lon="-0.25031">
        <ele>16.8</ele>
        <time>2024-07-03T12:56:59Z</time>
      </trkpt>
      <trkpt lat="49.13963" lon="-0.2504">
        <ele>17.2</ele>
        <time>2024-07-03T12:57:00Z</time>
      </trkpt>
      <trkpt lat="49.13959" lon="-0.2505">
        <ele>17.4</ele>
        <time>2024-07-03T12:57:01Z</time>
      </trkpt>
      <trkpt lat="49.13955" lon="-0.25059">
        <ele>17.6</ele>
        <time>2024-07-03T12:57:02Z</time>
      </trkpt>
      <trkpt lat="49.13951" lon="-0.25068">
        <ele>17.6</ele>
        <time>2024-07-03T12:57:03Z</time>
      </trkpt>
      <trkpt lat="49.13947" lon="-0.25077">
        <ele>17.6</ele>
        <time>2024-07-03T12:57:04Z</time>
      </trkpt>
      <trkpt lat="49.13943" lon="-0.25085">
        <ele>17.6</ele>
        <time>2024-07-03T12:57:05Z</time>
      </trkpt>
      <trkpt lat="49.13939" lon="-0.25094">
        <ele>17.6</ele>
        <time>2024-07-03T12:57:06Z</time>
      </trkpt>
      <trkpt lat="49.13935" lon="-0.25103">
        <ele>17.8</ele>
        <time>2024-07-03T12:57:07Z</time>
      </trkpt>
      <trkpt lat="49.13931" lon="-0.25111">
        <ele>18</ele>
        <time>2024-07-03T12:57:08Z</time>
      </trkpt>
      <trkpt lat="49.13927" lon="-0.2512">
        <ele>18.6</ele>
        <time>2024-07-03T12:57:09Z</time>
      </trkpt>
      <trkpt lat="49.13923" lon="-0.25128">
        <ele>19</ele>
        <time>2024-07-03T12:57:10Z</time>
      </trkpt>
      <trkpt lat="49.13919" lon="-0.25136">
        <ele>19.6</ele>
        <time>2024-07-03T12:57:11Z</time>
      </trkpt>
      <trkpt lat="49.13915" lon="-0.25143">
        <ele>20</ele>
        <time>2024-07-03T12:57:12Z</time>
      </trkpt>
      <trkpt lat="49.13911" lon="-0.25151">
        <ele>20.4</ele>
        <time>2024-07-03T12:57:13Z</time>
      </trkpt>
      <trkpt lat="49.13907" lon="-0.25158">
        <ele>20.8</ele>
        <time>2024-07-03T12:57:14Z</time>
      </trkpt>
      <trkpt lat="49.13902" lon="-0.25165">
        <ele>21</ele>
        <time>2024-07-03T12:57:15Z</time>
      </trkpt>
      <trkpt lat="49.13898" lon="-0.25171">
        <ele>21.2</ele>
        <time>2024-07-03T12:57:16Z</time>
      </trkpt>
      <trkpt lat="49.13894" lon="-0.25177">
        <ele>21.6</ele>
        <time>2024-07-03T12:57:17Z</time>
      </trkpt>
      <trkpt lat="49.1389" lon="-0.25183">
        <ele>22</ele>
        <time>2024-07-03T12:57:18Z</time>
      </trkpt>
      <trkpt lat="49.13885" lon="-0.25189">
        <ele>22.6</ele>
        <time>2024-07-03T12:57:19Z</time>
      </trkpt>
      <trkpt lat="49.13881" lon="-0.25194">
        <ele>23</ele>
        <time>2024-07-03T12:57:20Z</time>
      </trkpt>
      <trkpt lat="49.13877" lon="-0.25199">
        <ele>23.4</ele>
        <time>2024-07-03T12:57:21Z</time>
      </trkpt>
      <trkpt lat="49.13873" lon="-0.25204">
        <ele>23.6</ele>
        <time>2024-07-03T12:57:22Z</time>
      </trkpt>
      <trkpt lat="49.13869" lon="-0.25209">
        <ele>23.8</ele>
        <time>2024-07-03T12:57:23Z</time>
      </trkpt>
      <trkpt lat="49.13865" lon="-0.25213">
        <ele>24</ele>
        <time>2024-07-03T12:57:24Z</time>
      </trkpt>
      <trkpt lat="49.1386" lon="-0.25217">
        <ele>24.2</ele>
        <time>2024-07-03T12:57:25Z</time>
      </trkpt>
      <trkpt lat="49.13853" lon="-0.25222">
        <ele>24.4</ele>
        <time>2024-07-03T12:57:26Z</time>
      </trkpt>
      <trkpt lat="49.13847" lon="-0.25227">
        <ele>24.6</ele>
        <time>2024-07-03T12:57:27Z</time>
      </trkpt>
      <trkpt lat="49.13841" lon="-0.25233">
        <ele>24.8</ele>
        <time>2024-07-03T12:57:28Z</time>
      </trkpt>
      <trkpt lat="49.13836" lon="-0.25239">
        <ele>25.2</ele>
        <time>2024-07-03T12:57:29Z</time>
      </trkpt>
      <trkpt lat="49.1383" lon="-0.25244">
        <ele>25.4</ele>
        <time>2024-07-03T12:57:30Z</time>
      </trkpt>
      <trkpt lat="49.13825" lon="-0.2525">
        <ele>25.6</ele>
        <time>2024-07-03T12:57:31Z</time>
      </trkpt>
      <trkpt lat="49.13819" lon="-0.25255">
        <ele>25.6</ele>
        <time>2024-07-03T12:57:32Z</time>
      </trkpt>
      <trkpt lat="49.13813" lon="-0.25261">
        <ele>25.8</ele>
        <time>2024-07-03T12:57:33Z</time>
      </trkpt>
      <trkpt lat="49.13807" lon="-0.25267">
        <ele>26</ele>
        <time>2024-07-03T12:57:34Z</time>
      </trkpt>
      <trkpt lat="49.13801" lon="-0.25272">
        <ele>26</ele>
        <time>2024-07-03T12:57:35Z</time>
      </trkpt>
      <trkpt lat="49.13795" lon="-0.25278">
        <ele>26.2</ele>
        <time>2024-07-03T12:57:36Z</time>
      </trkpt>
      <trkpt lat="49.13789" lon="-0.25284">
        <ele>26.2</ele>
        <time>2024-07-03T12:57:37Z</time>
      </trkpt>
      <trkpt lat="49.13783" lon="-0.2529">
        <ele>26.2</ele>
        <time>2024-07-03T12:57:38Z</time>
      </trkpt>
      <trkpt lat="49.13777" lon="-0.25295">
        <ele>26.4</ele>
        <time>2024-07-03T12:57:39Z</time>
      </trkpt>
      <trkpt lat="49.13771" lon="-0.25301">
        <ele>26.4</ele>
        <time>2024-07-03T12:57:40Z</time>
      </trkpt>
      <trkpt lat="49.13765" lon="-0.25307">
        <ele>26.4</ele>
        <time>2024-07-03T12:57:41Z</time>
      </trkpt>
      <trkpt lat="49.13758" lon="-0.25313">
        <ele>26.4</ele>
        <time>2024-07-03T12:57:42Z</time>
      </trkpt>
      <trkpt lat="49.13752" lon="-0.25319">
        <ele>26.4</ele>
        <time>2024-07-03T12:57:43Z</time>
      </trkpt>
      <trkpt lat="49.13745" lon="-0.25325">
        <ele>26.4</ele>
        <time>2024-07-03T12:57:44Z</time>
      </trkpt>
      <trkpt lat="49.13739" lon="-0.25331">
        <ele>26.2</ele>
        <time>2024-07-03T12:57:45Z</time>
      </trkpt>
      <trkpt lat="49.13732" lon="-0.25338">
        <ele>25.8</ele>
        <time>2024-07-03T12:57:46Z</time>
      </trkpt>
      <trkpt lat="49.13726" lon="-0.25344">
        <ele>25.4</ele>
        <time>2024-07-03T12:57:47Z</time>
      </trkpt>
      <trkpt lat="49.13719" lon="-0.25351">
        <ele>25</ele>
        <time>2024-07-03T12:57:48Z</time>
      </trkpt>
      <trkpt lat="49.13712" lon="-0.25358">
        <ele>24.6</ele>
        <time>2024-07-03T12:57:49Z</time>
      </trkpt>
      <trkpt lat="49.13705" lon="-0.25366">
        <ele>24.2</ele>
        <time>2024-07-03T12:57:50Z</time>
      </trkpt>
      <trkpt lat="49.13698" lon="-0.25374">
        <ele>23.8</ele>
        <time>2024-07-03T12:57:51Z</time>
      </trkpt>
      <trkpt lat="49.13692" lon="-0.25383">
        <ele>23.4</ele>
        <time>2024-07-03T12:57:52Z</time>
      </trkpt>
      <trkpt lat="49.13685" lon="-0.25393">
        <ele>23.2</ele>
        <time>2024-07-03T12:57:53Z</time>
      </trkpt>
      <trkpt lat="49.13679" lon="-0.25402">
        <ele>22.8</ele>
        <time>2024-07-03T12:57:54Z</time>
      </trkpt>
      <trkpt lat="49.13673" lon="-0.25412">
        <ele>22.4</ele>
        <time>2024-07-03T12:57:55Z</time>
      </trkpt>
      <trkpt lat="49.13668" lon="-0.25423">
        <ele>21.6</ele>
        <time>2024-07-03T12:57:56Z</time>
      </trkpt>
      <trkpt lat="49.13663" lon="-0.25433">
        <ele>21</ele>
        <time>2024-07-03T12:57:57Z</time>
      </trkpt>
      <trkpt lat="49.13659" lon="-0.25444">
        <ele>20.4</ele>
        <time>2024-07-03T12:57:58Z</time>
      </trkpt>
      <trkpt lat="49.13656" lon="-0.25455">
        <ele>20.2</ele>
        <time>2024-07-03T12:57:59Z</time>
      </trkpt>
      <trkpt lat="49.13652" lon="-0.25465">
        <ele>20</ele>
        <time>2024-07-03T12:58:00Z</time>
      </trkpt>
      <trkpt lat="49.13649" lon="-0.25476">
        <ele>19.8</ele>
        <time>2024-07-03T12:58:01Z</time>
      </trkpt>
      <trkpt lat="49.13646" lon="-0.25487">
        <ele>19.6</ele>
        <time>2024-07-03T12:58:02Z</time>
      </trkpt>
      <trkpt lat="49.13643" lon="-0.25498">
        <ele>19.6</ele>
        <time>2024-07-03T12:58:03Z</time>
      </trkpt>
      <trkpt lat="49.13641" lon="-0.25509">
        <ele>19.8</ele>
        <time>2024-07-03T12:58:04Z</time>
      </trkpt>
      <trkpt lat="49.13639" lon="-0.2552">
        <ele>20.2</ele>
        <time>2024-07-03T12:58:05Z</time>
      </trkpt>
      <trkpt lat="49.13637" lon="-0.25531">
        <ele>20.6</ele>
        <time>2024-07-03T12:58:06Z</time>
      </trkpt>
      <trkpt lat="49.13636" lon="-0.25542">
        <ele>20.8</ele>
        <time>2024-07-03T12:58:07Z</time>
      </trkpt>
      <trkpt lat="49.13635" lon="-0.25554">
        <ele>21</ele>
        <time>2024-07-03T12:58:08Z</time>
      </trkpt>
      <trkpt lat="49.13635" lon="-0.25565">
        <ele>21</ele>
        <time>2024-07-03T12:58:09Z</time>
      </trkpt>
      <trkpt lat="49.13635" lon="-0.25576">
        <ele>21</ele>
        <time>2024-07-03T12:58:10Z</time>
      </trkpt>
      <trkpt lat="49.13635" lon="-0.25587">
        <ele>21</ele>
        <time>2024-07-03T12:58:11Z</time>
      </trkpt>
      <trkpt lat="49.13635" lon="-0.25598">
        <ele>20.8</ele>
        <time>2024-07-03T12:58:12Z</time>
      </trkpt>
      <trkpt lat="49.13636" lon="-0.25609">
        <ele>20.6</ele>
        <time>2024-07-03T12:58:13Z</time>
      </trkpt>
      <trkpt lat="49.13637" lon="-0.2562">
        <ele>20.6</ele>
        <time>2024-07-03T12:58:14Z</time>
      </trkpt>
      <trkpt lat="49.13638" lon="-0.25631">
        <ele>20.4</ele>
        <time>2024-07-03T12:58:15Z</time>
      </trkpt>
      <trkpt lat="49.1364" lon="-0.25642">
        <ele>20</ele>
        <time>2024-07-03T12:58:16Z</time>
      </trkpt>
      <trkpt lat="49.13642" lon="-0.25653">
        <ele>20.2</ele>
        <time>2024-07-03T12:58:17Z</time>
      </trkpt>
      <trkpt lat="49.13645" lon="-0.25663">
        <ele>20.2</ele>
        <time>2024-07-03T12:58:18Z</time>
      </trkpt>
      <trkpt lat="49.13647" lon="-0.25673">
        <ele>20.2</ele>
        <time>2024-07-03T12:58:19Z</time>
      </trkpt>
      <trkpt lat="49.1365" lon="-0.25683">
        <ele>19.8</ele>
        <time>2024-07-03T12:58:20Z</time>
      </trkpt>
      <trkpt lat="49.13653" lon="-0.25694">
        <ele>19.6</ele>
        <time>2024-07-03T12:58:21Z</time>
      </trkpt>
      <trkpt lat="49.13656" lon="-0.25704">
        <ele>19.6</ele>
        <time>2024-07-03T12:58:22Z</time>
      </trkpt>
      <trkpt lat="49.1366" lon="-0.25714">
        <ele>19.6</ele>
        <time>2024-07-03T12:58:23Z</time>
      </trkpt>
      <trkpt lat="49.13664" lon="-0.25723">
        <ele>19.6</ele>
        <time>2024-07-03T12:58:24Z</time>
      </trkpt>
      <trkpt lat="49.13669" lon="-0.25733">
        <ele>19.6</ele>
        <time>2024-07-03T12:58:25Z</time>
      </trkpt>
      <trkpt lat="49.13673" lon="-0.25743">
        <ele>19.6</ele>
        <time>2024-07-03T12:58:26Z</time>
      </trkpt>
      <trkpt lat="49.13678" lon="-0.25752">
        <ele>19.4</ele>
        <time>2024-07-03T12:58:27Z</time>
      </trkpt>
      <trkpt lat="49.13683" lon="-0.2576">
        <ele>19.4</ele>
        <time>2024-07-03T12:58:28Z</time>
      </trkpt>
      <trkpt lat="49.13689" lon="-0.25768">
        <ele>19.4</ele>
        <time>2024-07-03T12:58:29Z</time>
      </trkpt>
      <trkpt lat="49.13694" lon="-0.25776">
        <ele>19.4</ele>
        <time>2024-07-03T12:58:30Z</time>
      </trkpt>
      <trkpt lat="49.137" lon="-0.25784">
        <ele>19.2</ele>
        <time>2024-07-03T12:58:31Z</time>
      </trkpt>
      <trkpt lat="49.13706" lon="-0.2579">
        <ele>19.2</ele>
        <time>2024-07-03T12:58:32Z</time>
      </trkpt>
      <trkpt lat="49.13712" lon="-0.25797">
        <ele>19.2</ele>
        <time>2024-07-03T12:58:33Z</time>
      </trkpt>
      <trkpt lat="49.13718" lon="-0.25803">
        <ele>19.2</ele>
        <time>2024-07-03T12:58:34Z</time>
      </trkpt>
      <trkpt lat="49.13724" lon="-0.25809">
        <ele>19.4</ele>
        <time>2024-07-03T12:58:35Z</time>
      </trkpt>
      <trkpt lat="49.13731" lon="-0.25814">
        <ele>19.4</ele>
        <time>2024-07-03T12:58:36Z</time>
      </trkpt>
      <trkpt lat="49.13737" lon="-0.2582">
        <ele>19.6</ele>
        <time>2024-07-03T12:58:37Z</time>
      </trkpt>
      <trkpt lat="49.13744" lon="-0.25825">
        <ele>19.8</ele>
        <time>2024-07-03T12:58:38Z</time>
      </trkpt>
      <trkpt lat="49.1375" lon="-0.2583">
        <ele>20</ele>
        <time>2024-07-03T12:58:39Z</time>
      </trkpt>
      <trkpt lat="49.13757" lon="-0.25836">
        <ele>20</ele>
        <time>2024-07-03T12:58:40Z</time>
      </trkpt>
      <trkpt lat="49.13763" lon="-0.25841">
        <ele>20</ele>
        <time>2024-07-03T12:58:41Z</time>
      </trkpt>
      <trkpt lat="49.13769" lon="-0.25846">
        <ele>20</ele>
        <time>2024-07-03T12:58:42Z</time>
      </trkpt>
      <trkpt lat="49.13774" lon="-0.25852">
        <ele>20</ele>
        <time>2024-07-03T12:58:43Z</time>
      </trkpt>
      <trkpt lat="49.13781" lon="-0.25858">
        <ele>20</ele>
        <time>2024-07-03T12:58:44Z</time>
      </trkpt>
      <trkpt lat="49.13787" lon="-0.25864">
        <ele>20.2</ele>
        <time>2024-07-03T12:58:45Z</time>
      </trkpt>
      <trkpt lat="49.13793" lon="-0.2587">
        <ele>20.2</ele>
        <time>2024-07-03T12:58:46Z</time>
      </trkpt>
      <trkpt lat="49.13799" lon="-0.25876">
        <ele>20.2</ele>
        <time>2024-07-03T12:58:47Z</time>
      </trkpt>
      <trkpt lat="49.13805" lon="-0.25882">
        <ele>20.4</ele>
        <time>2024-07-03T12:58:48Z</time>
      </trkpt>
      <trkpt lat="49.13811" lon="-0.25889">
        <ele>20.2</ele>
        <time>2024-07-03T12:58:49Z</time>
      </trkpt>
      <trkpt lat="49.13818" lon="-0.25896">
        <ele>19.8</ele>
        <time>2024-07-03T12:58:50Z</time>
      </trkpt>
      <trkpt lat="49.13824" lon="-0.25904">
        <ele>19.6</ele>
        <time>2024-07-03T12:58:51Z</time>
      </trkpt>
      <trkpt lat="49.1383" lon="-0.25912">
        <ele>19.4</ele>
        <time>2024-07-03T12:58:52Z</time>
      </trkpt>
      <trkpt lat="49.13835" lon="-0.2592">
        <ele>19.2</ele>
        <time>2024-07-03T12:58:53Z</time>
      </trkpt>
      <trkpt lat="49.13839" lon="-0.25929">
        <ele>19</ele>
        <time>2024-07-03T12:58:54Z</time>
      </trkpt>
      <trkpt lat="49.13844" lon="-0.25937">
        <ele>18.8</ele>
        <time>2024-07-03T12:58:55Z</time>
      </trkpt>
      <trkpt lat="49.1385" lon="-0.25947">
        <ele>18.6</ele>
        <time>2024-07-03T12:58:56Z</time>
      </trkpt>
      <trkpt lat="49.13854" lon="-0.25956">
        <ele>18.4</ele>
        <time>2024-07-03T12:58:57Z</time>
      </trkpt>
      <trkpt lat="49.13859" lon="-0.25966">
        <ele>17.8</ele>
        <time>2024-07-03T12:58:58Z</time>
      </trkpt>
      <trkpt lat="49.13863" lon="-0.25975">
        <ele>17.6</ele>
        <time>2024-07-03T12:58:59Z</time>
      </trkpt>
      <trkpt lat="49.13867" lon="-0.25985">
        <ele>17.4</ele>
        <time>2024-07-03T12:59:00Z</time>
      </trkpt>
      <trkpt lat="49.13871" lon="-0.25995">
        <ele>17.4</ele>
        <time>2024-07-03T12:59:01Z</time>
      </trkpt>
      <trkpt lat="49.13875" lon="-0.26005">
        <ele>17.6</ele>
        <time>2024-07-03T12:59:02Z</time>
      </trkpt>
      <trkpt lat="49.13878" lon="-0.26015">
        <ele>17.8</ele>
        <time>2024-07-03T12:59:03Z</time>
      </trkpt>
      <trkpt lat="49.13881" lon="-0.26026">
        <ele>18</ele>
        <time>2024-07-03T12:59:04Z</time>
      </trkpt>
      <trkpt lat="49.13884" lon="-0.26037">
        <ele>18.2</ele>
        <time>2024-07-03T12:59:05Z</time>
      </trkpt>
      <trkpt lat="49.13886" lon="-0.26048">
        <ele>18.2</ele>
        <time>2024-07-03T12:59:06Z</time>
      </trkpt>
      <trkpt lat="49.13888" lon="-0.26058">
        <ele>18.6</ele>
        <time>2024-07-03T12:59:07Z</time>
      </trkpt>
      <trkpt lat="49.13889" lon="-0.2607">
        <ele>19</ele>
        <time>2024-07-03T12:59:08Z</time>
      </trkpt>
      <trkpt lat="49.1389" lon="-0.26081">
        <ele>19.4</ele>
        <time>2024-07-03T12:59:09Z</time>
      </trkpt>
      <trkpt lat="49.13891" lon="-0.26093">
        <ele>19.8</ele>
        <time>2024-07-03T12:59:10Z</time>
      </trkpt>
      <trkpt lat="49.13891" lon="-0.26103">
        <ele>20</ele>
        <time>2024-07-03T12:59:11Z</time>
      </trkpt>
      <trkpt lat="49.13893" lon="-0.26113">
        <ele>20.4</ele>
        <time>2024-07-03T12:59:12Z</time>
      </trkpt>
      <trkpt lat="49.13893" lon="-0.26124">
        <ele>20.8</ele>
        <time>2024-07-03T12:59:13Z</time>
      </trkpt>
      <trkpt lat="49.13895" lon="-0.26135">
        <ele>21</ele>
        <time>2024-07-03T12:59:14Z</time>
      </trkpt>
      <trkpt lat="49.13896" lon="-0.26146">
        <ele>21.2</ele>
        <time>2024-07-03T12:59:15Z</time>
      </trkpt>
      <trkpt lat="49.13897" lon="-0.26156">
        <ele>21.2</ele>
        <time>2024-07-03T12:59:16Z</time>
      </trkpt>
      <trkpt lat="49.13898" lon="-0.26165">
        <ele>21.2</ele>
        <time>2024-07-03T12:59:17Z</time>
      </trkpt>
      <trkpt lat="49.13899" lon="-0.26176">
        <ele>21.2</ele>
        <time>2024-07-03T12:59:18Z</time>
      </trkpt>
      <trkpt lat="49.13899" lon="-0.26186">
        <ele>21.4</ele>
        <time>2024-07-03T12:59:19Z</time>
      </trkpt>
      <trkpt lat="49.13899" lon="-0.26197">
        <ele>21.4</ele>
        <time>2024-07-03T12:59:20Z</time>
      </trkpt>
      <trkpt lat="49.13899" lon="-0.26208">
        <ele>21.2</ele>
        <time>2024-07-03T12:59:21Z</time>
      </trkpt>
      <trkpt lat="49.13899" lon="-0.26219">
        <ele>21</ele>
        <time>2024-07-03T12:59:22Z</time>
      </trkpt>
      <trkpt lat="49.13899" lon="-0.26229">
        <ele>20.8</ele>
        <time>2024-07-03T12:59:23Z</time>
      </trkpt>
      <trkpt lat="49.13899" lon="-0.2624">
        <ele>20.6</ele>
        <time>2024-07-03T12:59:24Z</time>
      </trkpt>
      <trkpt lat="49.139" lon="-0.2625">
        <ele>20.4</ele>
        <time>2024-07-03T12:59:25Z</time>
      </trkpt>
      <trkpt lat="49.13901" lon="-0.2626">
        <ele>20.2</ele>
        <time>2024-07-03T12:59:26Z</time>
      </trkpt>
      <trkpt lat="49.13903" lon="-0.26271">
        <ele>20</ele>
        <time>2024-07-03T12:59:27Z</time>
      </trkpt>
      <trkpt lat="49.13904" lon="-0.26282">
        <ele>19.8</ele>
        <time>2024-07-03T12:59:28Z</time>
      </trkpt>
      <trkpt lat="49.13906" lon="-0.26293">
        <ele>19.8</ele>
        <time>2024-07-03T12:59:29Z</time>
      </trkpt>
      <trkpt lat="49.13907" lon="-0.26304">
        <ele>19.6</ele>
        <time>2024-07-03T12:59:30Z</time>
      </trkpt>
      <trkpt lat="49.13909" lon="-0.26316">
        <ele>19.4</ele>
        <time>2024-07-03T12:59:31Z</time>
      </trkpt>
      <trkpt lat="49.1391" lon="-0.26327">
        <ele>19</ele>
        <time>2024-07-03T12:59:32Z</time>
      </trkpt>
      <trkpt lat="49.13912" lon="-0.26338">
        <ele>18.8</ele>
        <time>2024-07-03T12:59:33Z</time>
      </trkpt>
      <trkpt lat="49.13913" lon="-0.2635">
        <ele>18.6</ele>
        <time>2024-07-03T12:59:34Z</time>
      </trkpt>
      <trkpt lat="49.13913" lon="-0.26361">
        <ele>18.4</ele>
        <time>2024-07-03T12:59:35Z</time>
      </trkpt>
      <trkpt lat="49.13914" lon="-0.26373">
        <ele>18.2</ele>
        <time>2024-07-03T12:59:36Z</time>
      </trkpt>
      <trkpt lat="49.13914" lon="-0.26384">
        <ele>18.2</ele>
        <time>2024-07-03T12:59:37Z</time>
      </trkpt>
      <trkpt lat="49.13915" lon="-0.26395">
        <ele>18</ele>
        <time>2024-07-03T12:59:38Z</time>
      </trkpt>
      <trkpt lat="49.13916" lon="-0.26407">
        <ele>17.8</ele>
        <time>2024-07-03T12:59:39Z</time>
      </trkpt>
      <trkpt lat="49.13916" lon="-0.26419">
        <ele>17.8</ele>
        <time>2024-07-03T12:59:40Z</time>
      </trkpt>
      <trkpt lat="49.13916" lon="-0.26431">
        <ele>17.6</ele>
        <time>2024-07-03T12:59:41Z</time>
      </trkpt>
      <trkpt lat="49.13917" lon="-0.26444">
        <ele>17.6</ele>
        <time>2024-07-03T12:59:42Z</time>
      </trkpt>
      <trkpt lat="49.13919" lon="-0.26455">
        <ele>17.4</ele>
        <time>2024-07-03T12:59:43Z</time>
      </trkpt>
      <trkpt lat="49.1392" lon="-0.26466">
        <ele>17.2</ele>
        <time>2024-07-03T12:59:44Z</time>
      </trkpt>
      <trkpt lat="49.13922" lon="-0.26477">
        <ele>17</ele>
        <time>2024-07-03T12:59:45Z</time>
      </trkpt>
      <trkpt lat="49.13923" lon="-0.26488">
        <ele>17</ele>
        <time>2024-07-03T12:59:46Z</time>
      </trkpt>
      <trkpt lat="49.13924" lon="-0.26499">
        <ele>17</ele>
        <time>2024-07-03T12:59:47Z</time>
      </trkpt>
      <trkpt lat="49.13925" lon="-0.26509">
        <ele>17</ele>
        <time>2024-07-03T12:59:48Z</time>
      </trkpt>
      <trkpt lat="49.13923" lon="-0.2652">
        <ele>16.8</ele>
        <time>2024-07-03T12:59:49Z</time>
      </trkpt>
      <trkpt lat="49.13918" lon="-0.2653">
        <ele>16.8</ele>
        <time>2024-07-03T12:59:50Z</time>
      </trkpt>
      <trkpt lat="49.13914" lon="-0.26538">
        <ele>17</ele>
        <time>2024-07-03T12:59:51Z</time>
      </trkpt>
      <trkpt lat="49.13909" lon="-0.26546">
        <ele>17</ele>
        <time>2024-07-03T12:59:52Z</time>
      </trkpt>
      <trkpt lat="49.13903" lon="-0.26553">
        <ele>17.2</ele>
        <time>2024-07-03T12:59:53Z</time>
      </trkpt>
      <trkpt lat="49.13898" lon="-0.2656">
        <ele>17.4</ele>
        <time>2024-07-03T12:59:54Z</time>
      </trkpt>
      <trkpt lat="49.13893" lon="-0.26568">
        <ele>17.6</ele>
        <time>2024-07-03T12:59:55Z</time>
      </trkpt>
      <trkpt lat="49.13889" lon="-0.26576">
        <ele>17.8</ele>
        <time>2024-07-03T12:59:56Z</time>
      </trkpt>
      <trkpt lat="49.13886" lon="-0.26585">
        <ele>17.8</ele>
        <time>2024-07-03T12:59:57Z</time>
      </trkpt>
      <trkpt lat="49.13883" lon="-0.26595">
        <ele>18</ele>
        <time>2024-07-03T12:59:58Z</time>
      </trkpt>
      <trkpt lat="49.13883" lon="-0.26605">
        <ele>18.2</ele>
        <time>2024-07-03T12:59:59Z</time>
      </trkpt>
      <trkpt lat="49.13883" lon="-0.26615">
        <ele>18.4</ele>
        <time>2024-07-03T13:00:00Z</time>
      </trkpt>
      <trkpt lat="49.13885" lon="-0.26624">
        <ele>18.6</ele>
        <time>2024-07-03T13:00:01Z</time>
      </trkpt>
      <trkpt lat="49.13886" lon="-0.26633">
        <ele>18.6</ele>
        <time>2024-07-03T13:00:02Z</time>
      </trkpt>
      <trkpt lat="49.13888" lon="-0.26643">
        <ele>18.6</ele>
        <time>2024-07-03T13:00:03Z</time>
      </trkpt>
      <trkpt lat="49.13889" lon="-0.26653">
        <ele>18.8</ele>
        <time>2024-07-03T13:00:04Z</time>
      </trkpt>
      <trkpt lat="49.13891" lon="-0.26663">
        <ele>18.8</ele>
        <time>2024-07-03T13:00:05Z</time>
      </trkpt>
      <trkpt lat="49.13892" lon="-0.26672">
        <ele>18.8</ele>
        <time>2024-07-03T13:00:06Z</time>
      </trkpt>
      <trkpt lat="49.13894" lon="-0.26682">
        <ele>18.8</ele>
        <time>2024-07-03T13:00:07Z</time>
      </trkpt>
      <trkpt lat="49.13895" lon="-0.26691">
        <ele>18.8</ele>
        <time>2024-07-03T13:00:08Z</time>
      </trkpt>
      <trkpt lat="49.13896" lon="-0.26701">
        <ele>18.8</ele>
        <time>2024-07-03T13:00:09Z</time>
      </trkpt>
      <trkpt lat="49.13895" lon="-0.26712">
        <ele>18.6</ele>
        <time>2024-07-03T13:00:10Z</time>
      </trkpt>
      <trkpt lat="49.13895" lon="-0.26722">
        <ele>18.6</ele>
        <time>2024-07-03T13:00:11Z</time>
      </trkpt>
      <trkpt lat="49.13895" lon="-0.26732">
        <ele>18.8</ele>
        <time>2024-07-03T13:00:12Z</time>
      </trkpt>
      <trkpt lat="49.13895" lon="-0.26741">
        <ele>19</ele>
        <time>2024-07-03T13:00:13Z</time>
      </trkpt>
      <trkpt lat="49.13893" lon="-0.26752">
        <ele>19.2</ele>
        <time>2024-07-03T13:00:14Z</time>
      </trkpt>
      <trkpt lat="49.13891" lon="-0.26763">
        <ele>19.4</ele>
        <time>2024-07-03T13:00:15Z</time>
      </trkpt>
      <trkpt lat="49.13889" lon="-0.26773">
        <ele>19.6</ele>
        <time>2024-07-03T13:00:16Z</time>
      </trkpt>
      <trkpt lat="49.13886" lon="-0.26783">
        <ele>19.6</ele>
        <time>2024-07-03T13:00:17Z</time>
      </trkpt>
      <trkpt lat="49.13883" lon="-0.26792">
        <ele>19.8</ele>
        <time>2024-07-03T13:00:18Z</time>
      </trkpt>
      <trkpt lat="49.1388" lon="-0.26801">
        <ele>19.8</ele>
        <time>2024-07-03T13:00:19Z</time>
      </trkpt>
      <trkpt lat="49.13877" lon="-0.2681">
        <ele>20</ele>
        <time>2024-07-03T13:00:20Z</time>
      </trkpt>
      <trkpt lat="49.13873" lon="-0.26819">
        <ele>20</ele>
        <time>2024-07-03T13:00:21Z</time>
      </trkpt>
      <trkpt lat="49.13869" lon="-0.26828">
        <ele>20</ele>
        <time>2024-07-03T13:00:22Z</time>
      </trkpt>
      <trkpt lat="49.13866" lon="-0.26837">
        <ele>20</ele>
        <time>2024-07-03T13:00:23Z</time>
      </trkpt>
      <trkpt lat="49.13862" lon="-0.26845">
        <ele>20</ele>
        <time>2024-07-03T13:00:24Z</time>
      </trkpt>
      <trkpt lat="49.13858" lon="-0.26853">
        <ele>20</ele>
        <time>2024-07-03T13:00:25Z</time>
      </trkpt>
      <trkpt lat="49.13855" lon="-0.26861">
        <ele>20.4</ele>
        <time>2024-07-03T13:00:26Z</time>
      </trkpt>
      <trkpt lat="49.13851" lon="-0.26869">
        <ele>20.6</ele>
        <time>2024-07-03T13:00:27Z</time>
      </trkpt>
      <trkpt lat="49.13847" lon="-0.26878">
        <ele>20.6</ele>
        <time>2024-07-03T13:00:28Z</time>
      </trkpt>
      <trkpt lat="49.13844" lon="-0.26886">
        <ele>21</ele>
        <time>2024-07-03T13:00:29Z</time>
      </trkpt>
      <trkpt lat="49.1384" lon="-0.26894">
        <ele>21.2</ele>
        <time>2024-07-03T13:00:30Z</time>
      </trkpt>
      <trkpt lat="49.13837" lon="-0.26903">
        <ele>21.4</ele>
        <time>2024-07-03T13:00:31Z</time>
      </trkpt>
      <trkpt lat="49.13833" lon="-0.26911">
        <ele>21.6</ele>
        <time>2024-07-03T13:00:32Z</time>
      </trkpt>
      <trkpt lat="49.1383" lon="-0.2692">
        <ele>22</ele>
        <time>2024-07-03T13:00:33Z</time>
      </trkpt>
      <trkpt lat="49.13826" lon="-0.26928">
        <ele>22</ele>
        <time>2024-07-03T13:00:34Z</time>
      </trkpt>
      <trkpt lat="49.13822" lon="-0.26936">
        <ele>22.2</ele>
        <time>2024-07-03T13:00:35Z</time>
      </trkpt>
      <trkpt lat="49.13818" lon="-0.26945">
        <ele>22.2</ele>
        <time>2024-07-03T13:00:36Z</time>
      </trkpt>
      <trkpt lat="49.13814" lon="-0.26953">
        <ele>22.2</ele>
        <time>2024-07-03T13:00:37Z</time>
      </trkpt>
      <trkpt lat="49.1381" lon="-0.26962">
        <ele>22.4</ele>
        <time>2024-07-03T13:00:38Z</time>
      </trkpt>
      <trkpt lat="49.13806" lon="-0.2697">
        <ele>22.4</ele>
        <time>2024-07-03T13:00:39Z</time>
      </trkpt>
      <trkpt lat="49.13802" lon="-0.26979">
        <ele>22.4</ele>
        <time>2024-07-03T13:00:40Z</time>
      </trkpt>
      <trkpt lat="49.13798" lon="-0.26988">
        <ele>22.4</ele>
        <time>2024-07-03T13:00:41Z</time>
      </trkpt>
      <trkpt lat="49.13794" lon="-0.26997">
        <ele>22.2</ele>
        <time>2024-07-03T13:00:42Z</time>
      </trkpt>
      <trkpt lat="49.1379" lon="-0.27005">
        <ele>22.2</ele>
        <time>2024-07-03T13:00:43Z</time>
      </trkpt>
      <trkpt lat="49.13786" lon="-0.27015">
        <ele>22.2</ele>
        <time>2024-07-03T13:00:44Z</time>
      </trkpt>
      <trkpt lat="49.13782" lon="-0.27024">
        <ele>22.4</ele>
        <time>2024-07-03T13:00:45Z</time>
      </trkpt>
      <trkpt lat="49.13777" lon="-0.27033">
        <ele>22.4</ele>
        <time>2024-07-03T13:00:46Z</time>
      </trkpt>
      <trkpt lat="49.13773" lon="-0.27042">
        <ele>22.2</ele>
        <time>2024-07-03T13:00:47Z</time>
      </trkpt>
      <trkpt lat="49.13769" lon="-0.2705">
        <ele>22.2</ele>
        <time>2024-07-03T13:00:48Z</time>
      </trkpt>
      <trkpt lat="49.13764" lon="-0.27059">
        <ele>22.4</ele>
        <time>2024-07-03T13:00:49Z</time>
      </trkpt>
      <trkpt lat="49.1376" lon="-0.27067">
        <ele>22.6</ele>
        <time>2024-07-03T13:00:50Z</time>
      </trkpt>
      <trkpt lat="49.13756" lon="-0.27076">
        <ele>22.8</ele>
        <time>2024-07-03T13:00:51Z</time>
      </trkpt>
      <trkpt lat="49.13751" lon="-0.27084">
        <ele>23</ele>
        <time>2024-07-03T13:00:52Z</time>
      </trkpt>
      <trkpt lat="49.13747" lon="-0.27093">
        <ele>23.4</ele>
        <time>2024-07-03T13:00:53Z</time>
      </trkpt>
      <trkpt lat="49.13743" lon="-0.27102">
        <ele>23.6</ele>
        <time>2024-07-03T13:00:54Z</time>
      </trkpt>
      <trkpt lat="49.13739" lon="-0.27111">
        <ele>23.8</ele>
        <time>2024-07-03T13:00:55Z</time>
      </trkpt>
      <trkpt lat="49.13734" lon="-0.2712">
        <ele>23.8</ele>
        <time>2024-07-03T13:00:56Z</time>
      </trkpt>
      <trkpt lat="49.1373" lon="-0.27129">
        <ele>24</ele>
        <time>2024-07-03T13:00:57Z</time>
      </trkpt>
      <trkpt lat="49.13725" lon="-0.27137">
        <ele>24</ele>
        <time>2024-07-03T13:00:58Z</time>
      </trkpt>
      <trkpt lat="49.13721" lon="-0.27146">
        <ele>23.8</ele>
        <time>2024-07-03T13:00:59Z</time>
      </trkpt>
      <trkpt lat="49.13717" lon="-0.27155">
        <ele>23.8</ele>
        <time>2024-07-03T13:01:00Z</time>
      </trkpt>
      <trkpt lat="49.13712" lon="-0.27164">
        <ele>24</ele>
        <time>2024-07-03T13:01:01Z</time>
      </trkpt>
      <trkpt lat="49.13708" lon="-0.27173">
        <ele>24</ele>
        <time>2024-07-03T13:01:02Z</time>
      </trkpt>
      <trkpt lat="49.13703" lon="-0.27182">
        <ele>24.4</ele>
        <time>2024-07-03T13:01:03Z</time>
      </trkpt>
      <trkpt lat="49.13699" lon="-0.27191">
        <ele>24.6</ele>
        <time>2024-07-03T13:01:04Z</time>
      </trkpt>
      <trkpt lat="49.13695" lon="-0.272">
        <ele>24.8</ele>
        <time>2024-07-03T13:01:05Z</time>
      </trkpt>
      <trkpt lat="49.1369" lon="-0.27208">
        <ele>24.8</ele>
        <time>2024-07-03T13:01:06Z</time>
      </trkpt>
      <trkpt lat="49.13686" lon="-0.27217">
        <ele>25</ele>
        <time>2024-07-03T13:01:07Z</time>
      </trkpt>
      <trkpt lat="49.13682" lon="-0.27226">
        <ele>25</ele>
        <time>2024-07-03T13:01:08Z</time>
      </trkpt>
      <trkpt lat="49.13678" lon="-0.27235">
        <ele>25</ele>
        <time>2024-07-03T13:01:09Z</time>
      </trkpt>
      <trkpt lat="49.13673" lon="-0.27244">
        <ele>25</ele>
        <time>2024-07-03T13:01:10Z</time>
      </trkpt>
      <trkpt lat="49.13669" lon="-0.27253">
        <ele>25</ele>
        <time>2024-07-03T13:01:11Z</time>
      </trkpt>
      <trkpt lat="49.13665" lon="-0.27261">
        <ele>25.2</ele>
        <time>2024-07-03T13:01:12Z</time>
      </trkpt>
      <trkpt lat="49.1366" lon="-0.2727">
        <ele>25.2</ele>
        <time>2024-07-03T13:01:13Z</time>
      </trkpt>
      <trkpt lat="49.13656" lon="-0.27278">
        <ele>25.2</ele>
        <time>2024-07-03T13:01:14Z</time>
      </trkpt>
      <trkpt lat="49.13651" lon="-0.27287">
        <ele>25.2</ele>
        <time>2024-07-03T13:01:15Z</time>
      </trkpt>
      <trkpt lat="49.13647" lon="-0.27296">
        <ele>25.2</ele>
        <time>2024-07-03T13:01:16Z</time>
      </trkpt>
      <trkpt lat="49.13643" lon="-0.27305">
        <ele>25.2</ele>
        <time>2024-07-03T13:01:17Z</time>
      </trkpt>
      <trkpt lat="49.13639" lon="-0.27314">
        <ele>25.2</ele>
        <time>2024-07-03T13:01:18Z</time>
      </trkpt>
      <trkpt lat="49.13634" lon="-0.27322">
        <ele>25.2</ele>
        <time>2024-07-03T13:01:19Z</time>
      </trkpt>
      <trkpt lat="49.1363" lon="-0.27331">
        <ele>25.4</ele>
        <time>2024-07-03T13:01:20Z</time>
      </trkpt>
      <trkpt lat="49.13626" lon="-0.27339">
        <ele>25.4</ele>
        <time>2024-07-03T13:01:21Z</time>
      </trkpt>
      <trkpt lat="49.13622" lon="-0.27348">
        <ele>25.4</ele>
        <time>2024-07-03T13:01:22Z</time>
      </trkpt>
      <trkpt lat="49.13618" lon="-0.27357">
        <ele>25.6</ele>
        <time>2024-07-03T13:01:23Z</time>
      </trkpt>
      <trkpt lat="49.13614" lon="-0.27366">
        <ele>25.6</ele>
        <time>2024-07-03T13:01:24Z</time>
      </trkpt>
      <trkpt lat="49.1361" lon="-0.27374">
        <ele>25.8</ele>
        <time>2024-07-03T13:01:25Z</time>
      </trkpt>
      <trkpt lat="49.13605" lon="-0.27383">
        <ele>26</ele>
        <time>2024-07-03T13:01:26Z</time>
      </trkpt>
      <trkpt lat="49.13601" lon="-0.27391">
        <ele>26.2</ele>
        <time>2024-07-03T13:01:27Z</time>
      </trkpt>
      <trkpt lat="49.13597" lon="-0.274">
        <ele>26.2</ele>
        <time>2024-07-03T13:01:28Z</time>
      </trkpt>
      <trkpt lat="49.13594" lon="-0.27409">
        <ele>26.2</ele>
        <time>2024-07-03T13:01:29Z</time>
      </trkpt>
      <trkpt lat="49.1359" lon="-0.27418">
        <ele>26.2</ele>
        <time>2024-07-03T13:01:30Z</time>
      </trkpt>
      <trkpt lat="49.13587" lon="-0.27427">
        <ele>26.2</ele>
        <time>2024-07-03T13:01:31Z</time>
      </trkpt>
      <trkpt lat="49.13583" lon="-0.27436">
        <ele>26</ele>
        <time>2024-07-03T13:01:32Z</time>
      </trkpt>
      <trkpt lat="49.13579" lon="-0.27444">
        <ele>26</ele>
        <time>2024-07-03T13:01:33Z</time>
      </trkpt>
      <trkpt lat="49.13575" lon="-0.27453">
        <ele>25.8</ele>
        <time>2024-07-03T13:01:34Z</time>
      </trkpt>
      <trkpt lat="49.13571" lon="-0.27462">
        <ele>26</ele>
        <time>2024-07-03T13:01:35Z</time>
      </trkpt>
      <trkpt lat="49.13567" lon="-0.27471">
        <ele>26.2</ele>
        <time>2024-07-03T13:01:36Z</time>
      </trkpt>
      <trkpt lat="49.13564" lon="-0.27482">
        <ele>26.2</ele>
        <time>2024-07-03T13:01:37Z</time>
      </trkpt>
      <trkpt lat="49.13562" lon="-0.27492">
        <ele>26.4</ele>
        <time>2024-07-03T13:01:38Z</time>
      </trkpt>
      <trkpt lat="49.1356" lon="-0.27503">
        <ele>26.4</ele>
        <time>2024-07-03T13:01:39Z</time>
      </trkpt>
      <trkpt lat="49.13559" lon="-0.27514">
        <ele>26.6</ele>
        <time>2024-07-03T13:01:40Z</time>
      </trkpt>
      <trkpt lat="49.13559" lon="-0.27525">
        <ele>26.4</ele>
        <time>2024-07-03T13:01:41Z</time>
      </trkpt>
      <trkpt lat="49.13559" lon="-0.27535">
        <ele>26.4</ele>
        <time>2024-07-03T13:01:42Z</time>
      </trkpt>
      <trkpt lat="49.13558" lon="-0.27546">
        <ele>26</ele>
        <time>2024-07-03T13:01:43Z</time>
      </trkpt>
      <trkpt lat="49.13559" lon="-0.27556">
        <ele>26</ele>
        <time>2024-07-03T13:01:44Z</time>
      </trkpt>
      <trkpt lat="49.13559" lon="-0.27567">
        <ele>25.8</ele>
        <time>2024-07-03T13:01:45Z</time>
      </trkpt>
      <trkpt lat="49.13559" lon="-0.27577">
        <ele>25.4</ele>
        <time>2024-07-03T13:01:46Z</time>
      </trkpt>
      <trkpt lat="49.13559" lon="-0.27588">
        <ele>25</ele>
        <time>2024-07-03T13:01:47Z</time>
      </trkpt>
      <trkpt lat="49.13559" lon="-0.27599">
        <ele>24.8</ele>
        <time>2024-07-03T13:01:48Z</time>
      </trkpt>
      <trkpt lat="49.13559" lon="-0.27609">
        <ele>24.8</ele>
        <time>2024-07-03T13:01:49Z</time>
      </trkpt>
      <trkpt lat="49.13559" lon="-0.2762">
        <ele>24.8</ele>
        <time>2024-07-03T13:01:50Z</time>
      </trkpt>
      <trkpt lat="49.13559" lon="-0.27631">
        <ele>24.8</ele>
        <time>2024-07-03T13:01:51Z</time>
      </trkpt>
      <trkpt lat="49.13559" lon="-0.27641">
        <ele>24.6</ele>
        <time>2024-07-03T13:01:52Z</time>
      </trkpt>
      <trkpt lat="49.13559" lon="-0.27652">
        <ele>24.4</ele>
        <time>2024-07-03T13:01:53Z</time>
      </trkpt>
      <trkpt lat="49.13558" lon="-0.27663">
        <ele>24.4</ele>
        <time>2024-07-03T13:01:54Z</time>
      </trkpt>
      <trkpt lat="49.13558" lon="-0.27674">
        <ele>24.4</ele>
        <time>2024-07-03T13:01:55Z</time>
      </trkpt>
      <trkpt lat="49.13557" lon="-0.27685">
        <ele>24.4</ele>
        <time>2024-07-03T13:01:56Z</time>
      </trkpt>
      <trkpt lat="49.13557" lon="-0.27695">
        <ele>24.4</ele>
        <time>2024-07-03T13:01:57Z</time>
      </trkpt>
      <trkpt lat="49.13556" lon="-0.27705">
        <ele>24.4</ele>
        <time>2024-07-03T13:01:58Z</time>
      </trkpt>
      <trkpt lat="49.13555" lon="-0.27716">
        <ele>24.8</ele>
        <time>2024-07-03T13:01:59Z</time>
      </trkpt>
      <trkpt lat="49.13554" lon="-0.27726">
        <ele>25.2</ele>
        <time>2024-07-03T13:02:00Z</time>
      </trkpt>
      <trkpt lat="49.13554" lon="-0.27737">
        <ele>25.4</ele>
        <time>2024-07-03T13:02:01Z</time>
      </trkpt>
      <trkpt lat="49.13555" lon="-0.27747">
        <ele>25.6</ele>
        <time>2024-07-03T13:02:02Z</time>
      </trkpt>
      <trkpt lat="49.13555" lon="-0.27757">
        <ele>25.6</ele>
        <time>2024-07-03T13:02:03Z</time>
      </trkpt>
      <trkpt lat="49.13555" lon="-0.27768">
        <ele>25.4</ele>
        <time>2024-07-03T13:02:04Z</time>
      </trkpt>
      <trkpt lat="49.13553" lon="-0.27781">
        <ele>25.4</ele>
        <time>2024-07-03T13:02:05Z</time>
      </trkpt>
      <trkpt lat="49.13552" lon="-0.27792">
        <ele>25.4</ele>
        <time>2024-07-03T13:02:06Z</time>
      </trkpt>
      <trkpt lat="49.1355" lon="-0.27804">
        <ele>25.2</ele>
        <time>2024-07-03T13:02:07Z</time>
      </trkpt>
      <trkpt lat="49.13547" lon="-0.27815">
        <ele>25.2</ele>
        <time>2024-07-03T13:02:08Z</time>
      </trkpt>
      <trkpt lat="49.13545" lon="-0.27826">
        <ele>25.2</ele>
        <time>2024-07-03T13:02:09Z</time>
      </trkpt>
      <trkpt lat="49.13543" lon="-0.27838">
        <ele>25</ele>
        <time>2024-07-03T13:02:10Z</time>
      </trkpt>
      <trkpt lat="49.13542" lon="-0.27849">
        <ele>25</ele>
        <time>2024-07-03T13:02:11Z</time>
      </trkpt>
      <trkpt lat="49.1354" lon="-0.27861">
        <ele>25.2</ele>
        <time>2024-07-03T13:02:12Z</time>
      </trkpt>
      <trkpt lat="49.13539" lon="-0.27872">
        <ele>25.4</ele>
        <time>2024-07-03T13:02:13Z</time>
      </trkpt>
      <trkpt lat="49.13538" lon="-0.27884">
        <ele>25.6</ele>
        <time>2024-07-03T13:02:14Z</time>
      </trkpt>
      <trkpt lat="49.13537" lon="-0.27895">
        <ele>25.6</ele>
        <time>2024-07-03T13:02:15Z</time>
      </trkpt>
      <trkpt lat="49.13536" lon="-0.27907">
        <ele>25.8</ele>
        <time>2024-07-03T13:02:16Z</time>
      </trkpt>
      <trkpt lat="49.13535" lon="-0.27919">
        <ele>25.8</ele>
        <time>2024-07-03T13:02:17Z</time>
      </trkpt>
      <trkpt lat="49.13534" lon="-0.2793">
        <ele>25.8</ele>
        <time>2024-07-03T13:02:18Z</time>
      </trkpt>
      <trkpt lat="49.13533" lon="-0.27942">
        <ele>25.8</ele>
        <time>2024-07-03T13:02:19Z</time>
      </trkpt>
      <trkpt lat="49.13534" lon="-0.27955">
        <ele>26</ele>
        <time>2024-07-03T13:02:20Z</time>
      </trkpt>
      <trkpt lat="49.13534" lon="-0.27967">
        <ele>26</ele>
        <time>2024-07-03T13:02:21Z</time>
      </trkpt>
      <trkpt lat="49.13533" lon="-0.27979">
        <ele>26</ele>
        <time>2024-07-03T13:02:22Z</time>
      </trkpt>
      <trkpt lat="49.13532" lon="-0.27991">
        <ele>25.6</ele>
        <time>2024-07-03T13:02:23Z</time>
      </trkpt>
      <trkpt lat="49.13531" lon="-0.28003">
        <ele>25.4</ele>
        <time>2024-07-03T13:02:24Z</time>
      </trkpt>
      <trkpt lat="49.1353" lon="-0.28014">
        <ele>25.2</ele>
        <time>2024-07-03T13:02:25Z</time>
      </trkpt>
      <trkpt lat="49.13529" lon="-0.28025">
        <ele>25</ele>
        <time>2024-07-03T13:02:26Z</time>
      </trkpt>
      <trkpt lat="49.13528" lon="-0.28036">
        <ele>24.8</ele>
        <time>2024-07-03T13:02:27Z</time>
      </trkpt>
      <trkpt lat="49.13528" lon="-0.28048">
        <ele>24.8</ele>
        <time>2024-07-03T13:02:28Z</time>
      </trkpt>
      <trkpt lat="49.13527" lon="-0.2806">
        <ele>24.8</ele>
        <time>2024-07-03T13:02:29Z</time>
      </trkpt>
      <trkpt lat="49.13527" lon="-0.28071">
        <ele>24.8</ele>
        <time>2024-07-03T13:02:30Z</time>
      </trkpt>
      <trkpt lat="49.13526" lon="-0.28083">
        <ele>24.8</ele>
        <time>2024-07-03T13:02:31Z</time>
      </trkpt>
      <trkpt lat="49.13525" lon="-0.28095">
        <ele>25</ele>
        <time>2024-07-03T13:02:32Z</time>
      </trkpt>
      <trkpt lat="49.13525" lon="-0.28107">
        <ele>25.2</ele>
        <time>2024-07-03T13:02:33Z</time>
      </trkpt>
      <trkpt lat="49.13524" lon="-0.28118">
        <ele>25.2</ele>
        <time>2024-07-03T13:02:34Z</time>
      </trkpt>
      <trkpt lat="49.13524" lon="-0.2813">
        <ele>25.4</ele>
        <time>2024-07-03T13:02:35Z</time>
      </trkpt>
      <trkpt lat="49.13523" lon="-0.28142">
        <ele>25.4</ele>
        <time>2024-07-03T13:02:36Z</time>
      </trkpt>
      <trkpt lat="49.13523" lon="-0.28153">
        <ele>25.6</ele>
        <time>2024-07-03T13:02:37Z</time>
      </trkpt>
      <trkpt lat="49.13522" lon="-0.28164">
        <ele>25.6</ele>
        <time>2024-07-03T13:02:38Z</time>
      </trkpt>
      <trkpt lat="49.13521" lon="-0.28176">
        <ele>25.8</ele>
        <time>2024-07-03T13:02:39Z</time>
      </trkpt>
      <trkpt lat="49.13521" lon="-0.28188">
        <ele>25.6</ele>
        <time>2024-07-03T13:02:40Z</time>
      </trkpt>
      <trkpt lat="49.1352" lon="-0.282">
        <ele>25.6</ele>
        <time>2024-07-03T13:02:41Z</time>
      </trkpt>
      <trkpt lat="49.13519" lon="-0.28211">
        <ele>25.6</ele>
        <time>2024-07-03T13:02:42Z</time>
      </trkpt>
      <trkpt lat="49.13519" lon="-0.28223">
        <ele>25.6</ele>
        <time>2024-07-03T13:02:43Z</time>
      </trkpt>
      <trkpt lat="49.13518" lon="-0.28234">
        <ele>25.6</ele>
        <time>2024-07-03T13:02:44Z</time>
      </trkpt>
      <trkpt lat="49.13517" lon="-0.28245">
        <ele>25.6</ele>
        <time>2024-07-03T13:02:45Z</time>
      </trkpt>
      <trkpt lat="49.13517" lon="-0.28255">
        <ele>25.6</ele>
        <time>2024-07-03T13:02:46Z</time>
      </trkpt>
      <trkpt lat="49.13516" lon="-0.28267">
        <ele>25.6</ele>
        <time>2024-07-03T13:02:47Z</time>
      </trkpt>
      <trkpt lat="49.13515" lon="-0.28278">
        <ele>25.6</ele>
        <time>2024-07-03T13:02:48Z</time>
      </trkpt>
      <trkpt lat="49.13514" lon="-0.28289">
        <ele>25.6</ele>
        <time>2024-07-03T13:02:49Z</time>
      </trkpt>
      <trkpt lat="49.13513" lon="-0.28299">
        <ele>25.6</ele>
        <time>2024-07-03T13:02:50Z</time>
      </trkpt>
      <trkpt lat="49.13513" lon="-0.2831">
        <ele>25.6</ele>
        <time>2024-07-03T13:02:51Z</time>
      </trkpt>
      <trkpt lat="49.13512" lon="-0.2832">
        <ele>25.4</ele>
        <time>2024-07-03T13:02:52Z</time>
      </trkpt>
      <trkpt lat="49.13511" lon="-0.28331">
        <ele>25.4</ele>
        <time>2024-07-03T13:02:53Z</time>
      </trkpt>
      <trkpt lat="49.13511" lon="-0.28342">
        <ele>25.4</ele>
        <time>2024-07-03T13:02:54Z</time>
      </trkpt>
      <trkpt lat="49.1351" lon="-0.28352">
        <ele>25.6</ele>
        <time>2024-07-03T13:02:55Z</time>
      </trkpt>
      <trkpt lat="49.1351" lon="-0.28362">
        <ele>25.6</ele>
        <time>2024-07-03T13:02:56Z</time>
      </trkpt>
      <trkpt lat="49.13509" lon="-0.28373">
        <ele>25.6</ele>
        <time>2024-07-03T13:02:57Z</time>
      </trkpt>
      <trkpt lat="49.13508" lon="-0.28383">
        <ele>25.6</ele>
        <time>2024-07-03T13:02:58Z</time>
      </trkpt>
      <trkpt lat="49.13507" lon="-0.28393">
        <ele>25.6</ele>
        <time>2024-07-03T13:02:59Z</time>
      </trkpt>
      <trkpt lat="49.13507" lon="-0.28403">
        <ele>25.6</ele>
        <time>2024-07-03T13:03:00Z</time>
      </trkpt>
      <trkpt lat="49.13506" lon="-0.28413">
        <ele>25.6</ele>
        <time>2024-07-03T13:03:01Z</time>
      </trkpt>
      <trkpt lat="49.13506" lon="-0.28424">
        <ele>25.6</ele>
        <time>2024-07-03T13:03:02Z</time>
      </trkpt>
      <trkpt lat="49.13505" lon="-0.28434">
        <ele>25.6</ele>
        <time>2024-07-03T13:03:03Z</time>
      </trkpt>
      <trkpt lat="49.13504" lon="-0.28445">
        <ele>26</ele>
        <time>2024-07-03T13:03:04Z</time>
      </trkpt>
      <trkpt lat="49.13504" lon="-0.28455">
        <ele>26.2</ele>
        <time>2024-07-03T13:03:05Z</time>
      </trkpt>
      <trkpt lat="49.13503" lon="-0.28466">
        <ele>26.4</ele>
        <time>2024-07-03T13:03:06Z</time>
      </trkpt>
      <trkpt lat="49.13502" lon="-0.28477">
        <ele>26.6</ele>
        <time>2024-07-03T13:03:07Z</time>
      </trkpt>
      <trkpt lat="49.13502" lon="-0.28488">
        <ele>27</ele>
        <time>2024-07-03T13:03:08Z</time>
      </trkpt>
      <trkpt lat="49.13501" lon="-0.28499">
        <ele>27.2</ele>
        <time>2024-07-03T13:03:09Z</time>
      </trkpt>
      <trkpt lat="49.135" lon="-0.2851">
        <ele>27.4</ele>
        <time>2024-07-03T13:03:10Z</time>
      </trkpt>
      <trkpt lat="49.13499" lon="-0.28521">
        <ele>27.2</ele>
        <time>2024-07-03T13:03:11Z</time>
      </trkpt>
      <trkpt lat="49.13498" lon="-0.28533">
        <ele>27.2</ele>
        <time>2024-07-03T13:03:12Z</time>
      </trkpt>
      <trkpt lat="49.13497" lon="-0.28544">
        <ele>27.2</ele>
        <time>2024-07-03T13:03:13Z</time>
      </trkpt>
      <trkpt lat="49.13496" lon="-0.28555">
        <ele>27</ele>
        <time>2024-07-03T13:03:14Z</time>
      </trkpt>
      <trkpt lat="49.13495" lon="-0.28566">
        <ele>26.6</ele>
        <time>2024-07-03T13:03:15Z</time>
      </trkpt>
      <trkpt lat="49.13495" lon="-0.28576">
        <ele>26</ele>
        <time>2024-07-03T13:03:16Z</time>
      </trkpt>
      <trkpt lat="49.13494" lon="-0.28587">
        <ele>25.4</ele>
        <time>2024-07-03T13:03:17Z</time>
      </trkpt>
      <trkpt lat="49.13493" lon="-0.28598">
        <ele>25</ele>
        <time>2024-07-03T13:03:18Z</time>
      </trkpt>
      <trkpt lat="49.13492" lon="-0.2861">
        <ele>24.6</ele>
        <time>2024-07-03T13:03:19Z</time>
      </trkpt>
      <trkpt lat="49.13491" lon="-0.28621">
        <ele>24.6</ele>
        <time>2024-07-03T13:03:20Z</time>
      </trkpt>
      <trkpt lat="49.13491" lon="-0.28632">
        <ele>24.8</ele>
        <time>2024-07-03T13:03:21Z</time>
      </trkpt>
      <trkpt lat="49.1349" lon="-0.28644">
        <ele>25.6</ele>
        <time>2024-07-03T13:03:22Z</time>
      </trkpt>
      <trkpt lat="49.13489" lon="-0.28656">
        <ele>26</ele>
        <time>2024-07-03T13:03:23Z</time>
      </trkpt>
      <trkpt lat="49.1349" lon="-0.28667">
        <ele>26.4</ele>
        <time>2024-07-03T13:03:24Z</time>
      </trkpt>
      <trkpt lat="49.1349" lon="-0.28678">
        <ele>26.6</ele>
        <time>2024-07-03T13:03:25Z</time>
      </trkpt>
      <trkpt lat="49.13491" lon="-0.2869">
        <ele>26.6</ele>
        <time>2024-07-03T13:03:26Z</time>
      </trkpt>
      <trkpt lat="49.13492" lon="-0.28701">
        <ele>26.6</ele>
        <time>2024-07-03T13:03:27Z</time>
      </trkpt>
      <trkpt lat="49.13493" lon="-0.28712">
        <ele>26.4</ele>
        <time>2024-07-03T13:03:28Z</time>
      </trkpt>
      <trkpt lat="49.13494" lon="-0.28723">
        <ele>26.4</ele>
        <time>2024-07-03T13:03:29Z</time>
      </trkpt>
      <trkpt lat="49.13495" lon="-0.28735">
        <ele>26.2</ele>
        <time>2024-07-03T13:03:30Z</time>
      </trkpt>
      <trkpt lat="49.13495" lon="-0.28746">
        <ele>26</ele>
        <time>2024-07-03T13:03:31Z</time>
      </trkpt>
      <trkpt lat="49.13496" lon="-0.28757">
        <ele>25.8</ele>
        <time>2024-07-03T13:03:32Z</time>
      </trkpt>
      <trkpt lat="49.13496" lon="-0.28767">
        <ele>25.6</ele>
        <time>2024-07-03T13:03:33Z</time>
      </trkpt>
      <trkpt lat="49.13497" lon="-0.28776">
        <ele>25.4</ele>
        <time>2024-07-03T13:03:34Z</time>
      </trkpt>
      <trkpt lat="49.13497" lon="-0.28786">
        <ele>25.4</ele>
        <time>2024-07-03T13:03:35Z</time>
      </trkpt>
      <trkpt lat="49.13497" lon="-0.28795">
        <ele>25.2</ele>
        <time>2024-07-03T13:03:36Z</time>
      </trkpt>
      <trkpt lat="49.13498" lon="-0.28805">
        <ele>25.2</ele>
        <time>2024-07-03T13:03:37Z</time>
      </trkpt>
      <trkpt lat="49.13497" lon="-0.28816">
        <ele>25.4</ele>
        <time>2024-07-03T13:03:38Z</time>
      </trkpt>
      <trkpt lat="49.13497" lon="-0.28826">
        <ele>25.6</ele>
        <time>2024-07-03T13:03:39Z</time>
      </trkpt>
      <trkpt lat="49.13497" lon="-0.28837">
        <ele>25.8</ele>
        <time>2024-07-03T13:03:40Z</time>
      </trkpt>
      <trkpt lat="49.13497" lon="-0.28846">
        <ele>26</ele>
        <time>2024-07-03T13:03:41Z</time>
      </trkpt>
      <trkpt lat="49.13496" lon="-0.28856">
        <ele>26</ele>
        <time>2024-07-03T13:03:42Z</time>
      </trkpt>
      <trkpt lat="49.13495" lon="-0.28866">
        <ele>26.2</ele>
        <time>2024-07-03T13:03:43Z</time>
      </trkpt>
      <trkpt lat="49.13495" lon="-0.28876">
        <ele>26.4</ele>
        <time>2024-07-03T13:03:44Z</time>
      </trkpt>
      <trkpt lat="49.13494" lon="-0.28886">
        <ele>26.4</ele>
        <time>2024-07-03T13:03:45Z</time>
      </trkpt>
      <trkpt lat="49.13493" lon="-0.28897">
        <ele>26</ele>
        <time>2024-07-03T13:03:46Z</time>
      </trkpt>
      <trkpt lat="49.13491" lon="-0.28907">
        <ele>25.8</ele>
        <time>2024-07-03T13:03:47Z</time>
      </trkpt>
      <trkpt lat="49.1349" lon="-0.28918">
        <ele>25.6</ele>
        <time>2024-07-03T13:03:48Z</time>
      </trkpt>
      <trkpt lat="49.13489" lon="-0.28928">
        <ele>25.6</ele>
        <time>2024-07-03T13:03:49Z</time>
      </trkpt>
      <trkpt lat="49.13488" lon="-0.28939">
        <ele>25.6</ele>
        <time>2024-07-03T13:03:50Z</time>
      </trkpt>
      <trkpt lat="49.13486" lon="-0.28949">
        <ele>25.6</ele>
        <time>2024-07-03T13:03:51Z</time>
      </trkpt>
      <trkpt lat="49.13485" lon="-0.2896">
        <ele>25.8</ele>
        <time>2024-07-03T13:03:52Z</time>
      </trkpt>
      <trkpt lat="49.13485" lon="-0.2897">
        <ele>26</ele>
        <time>2024-07-03T13:03:53Z</time>
      </trkpt>
      <trkpt lat="49.13483" lon="-0.28981">
        <ele>26.2</ele>
        <time>2024-07-03T13:03:54Z</time>
      </trkpt>
      <trkpt lat="49.13482" lon="-0.28992">
        <ele>26.2</ele>
        <time>2024-07-03T13:03:55Z</time>
      </trkpt>
      <trkpt lat="49.1348" lon="-0.29003">
        <ele>26.2</ele>
        <time>2024-07-03T13:03:56Z</time>
      </trkpt>
      <trkpt lat="49.13479" lon="-0.29013">
        <ele>26.2</ele>
        <time>2024-07-03T13:03:57Z</time>
      </trkpt>
      <trkpt lat="49.13478" lon="-0.29023">
        <ele>26.2</ele>
        <time>2024-07-03T13:03:58Z</time>
      </trkpt>
      <trkpt lat="49.13478" lon="-0.29033">
        <ele>26.2</ele>
        <time>2024-07-03T13:03:59Z</time>
      </trkpt>
      <trkpt lat="49.13478" lon="-0.29042">
        <ele>26</ele>
        <time>2024-07-03T13:04:00Z</time>
      </trkpt>
      <trkpt lat="49.13479" lon="-0.29052">
        <ele>26</ele>
        <time>2024-07-03T13:04:01Z</time>
      </trkpt>
      <trkpt lat="49.13481" lon="-0.29062">
        <ele>26</ele>
        <time>2024-07-03T13:04:02Z</time>
      </trkpt>
      <trkpt lat="49.13481" lon="-0.29071">
        <ele>26</ele>
        <time>2024-07-03T13:04:03Z</time>
      </trkpt>
      <trkpt lat="49.13479" lon="-0.29081">
        <ele>26</ele>
        <time>2024-07-03T13:04:04Z</time>
      </trkpt>
      <trkpt lat="49.13477" lon="-0.29091">
        <ele>26.2</ele>
        <time>2024-07-03T13:04:05Z</time>
      </trkpt>
      <trkpt lat="49.13476" lon="-0.29102">
        <ele>26.4</ele>
        <time>2024-07-03T13:04:06Z</time>
      </trkpt>
      <trkpt lat="49.13476" lon="-0.29113">
        <ele>26.4</ele>
        <time>2024-07-03T13:04:07Z</time>
      </trkpt>
      <trkpt lat="49.13476" lon="-0.29124">
        <ele>26.6</ele>
        <time>2024-07-03T13:04:08Z</time>
      </trkpt>
      <trkpt lat="49.13477" lon="-0.29135">
        <ele>26.6</ele>
        <time>2024-07-03T13:04:09Z</time>
      </trkpt>
      <trkpt lat="49.13478" lon="-0.29146">
        <ele>26.6</ele>
        <time>2024-07-03T13:04:10Z</time>
      </trkpt>
      <trkpt lat="49.13479" lon="-0.29158">
        <ele>26.6</ele>
        <time>2024-07-03T13:04:11Z</time>
      </trkpt>
      <trkpt lat="49.13481" lon="-0.29169">
        <ele>26.6</ele>
        <time>2024-07-03T13:04:12Z</time>
      </trkpt>
      <trkpt lat="49.13483" lon="-0.2918">
        <ele>26.6</ele>
        <time>2024-07-03T13:04:13Z</time>
      </trkpt>
      <trkpt lat="49.13486" lon="-0.29191">
        <ele>26.6</ele>
        <time>2024-07-03T13:04:14Z</time>
      </trkpt>
      <trkpt lat="49.13488" lon="-0.29202">
        <ele>26.4</ele>
        <time>2024-07-03T13:04:15Z</time>
      </trkpt>
      <trkpt lat="49.13489" lon="-0.29213">
        <ele>26.4</ele>
        <time>2024-07-03T13:04:16Z</time>
      </trkpt>
      <trkpt lat="49.13491" lon="-0.29224">
        <ele>26.4</ele>
        <time>2024-07-03T13:04:17Z</time>
      </trkpt>
      <trkpt lat="49.13493" lon="-0.29234">
        <ele>26.2</ele>
        <time>2024-07-03T13:04:18Z</time>
      </trkpt>
      <trkpt lat="49.13496" lon="-0.29244">
        <ele>26</ele>
        <time>2024-07-03T13:04:19Z</time>
      </trkpt>
      <trkpt lat="49.13498" lon="-0.29254">
        <ele>26</ele>
        <time>2024-07-03T13:04:20Z</time>
      </trkpt>
      <trkpt lat="49.135" lon="-0.29264">
        <ele>26</ele>
        <time>2024-07-03T13:04:21Z</time>
      </trkpt>
      <trkpt lat="49.13502" lon="-0.29274">
        <ele>26</ele>
        <time>2024-07-03T13:04:22Z</time>
      </trkpt>
      <trkpt lat="49.13504" lon="-0.29285">
        <ele>25.8</ele>
        <time>2024-07-03T13:04:23Z</time>
      </trkpt>
      <trkpt lat="49.13506" lon="-0.29295">
        <ele>25.8</ele>
        <time>2024-07-03T13:04:24Z</time>
      </trkpt>
      <trkpt lat="49.13508" lon="-0.29305">
        <ele>26</ele>
        <time>2024-07-03T13:04:25Z</time>
      </trkpt>
      <trkpt lat="49.13511" lon="-0.29315">
        <ele>26.4</ele>
        <time>2024-07-03T13:04:26Z</time>
      </trkpt>
      <trkpt lat="49.13513" lon="-0.29326">
        <ele>26.6</ele>
        <time>2024-07-03T13:04:27Z</time>
      </trkpt>
      <trkpt lat="49.13515" lon="-0.29337">
        <ele>27</ele>
        <time>2024-07-03T13:04:28Z</time>
      </trkpt>
      <trkpt lat="49.13518" lon="-0.29347">
        <ele>27.2</ele>
        <time>2024-07-03T13:04:29Z</time>
      </trkpt>
      <trkpt lat="49.1352" lon="-0.29358">
        <ele>27.2</ele>
        <time>2024-07-03T13:04:30Z</time>
      </trkpt>
      <trkpt lat="49.13522" lon="-0.29369">
        <ele>27.4</ele>
        <time>2024-07-03T13:04:31Z</time>
      </trkpt>
      <trkpt lat="49.13525" lon="-0.29379">
        <ele>27.2</ele>
        <time>2024-07-03T13:04:32Z</time>
      </trkpt>
      <trkpt lat="49.13528" lon="-0.29389">
        <ele>27.2</ele>
        <time>2024-07-03T13:04:33Z</time>
      </trkpt>
      <trkpt lat="49.13531" lon="-0.294">
        <ele>27.2</ele>
        <time>2024-07-03T13:04:34Z</time>
      </trkpt>
      <trkpt lat="49.13534" lon="-0.2941">
        <ele>27.2</ele>
        <time>2024-07-03T13:04:35Z</time>
      </trkpt>
      <trkpt lat="49.13536" lon="-0.2942">
        <ele>27</ele>
        <time>2024-07-03T13:04:36Z</time>
      </trkpt>
      <trkpt lat="49.13538" lon="-0.2943">
        <ele>27</ele>
        <time>2024-07-03T13:04:37Z</time>
      </trkpt>
      <trkpt lat="49.13541" lon="-0.2944">
        <ele>26.8</ele>
        <time>2024-07-03T13:04:38Z</time>
      </trkpt>
      <trkpt lat="49.13543" lon="-0.2945">
        <ele>26.6</ele>
        <time>2024-07-03T13:04:39Z</time>
      </trkpt>
      <trkpt lat="49.13545" lon="-0.29461">
        <ele>26.2</ele>
        <time>2024-07-03T13:04:40Z</time>
      </trkpt>
      <trkpt lat="49.13548" lon="-0.29471">
        <ele>25.8</ele>
        <time>2024-07-03T13:04:41Z</time>
      </trkpt>
      <trkpt lat="49.1355" lon="-0.29481">
        <ele>25.6</ele>
        <time>2024-07-03T13:04:42Z</time>
      </trkpt>
      <trkpt lat="49.13553" lon="-0.2949">
        <ele>25.6</ele>
        <time>2024-07-03T13:04:43Z</time>
      </trkpt>
      <trkpt lat="49.13556" lon="-0.29498">
        <ele>25.4</ele>
        <time>2024-07-03T13:04:44Z</time>
      </trkpt>
      <trkpt lat="49.13557" lon="-0.29505">
        <ele>25.4</ele>
        <time>2024-07-03T13:04:45Z</time>
      </trkpt>
      <trkpt lat="49.13559" lon="-0.29509">
        <ele>25.6</ele>
        <time>2024-07-03T13:04:46Z</time>
      </trkpt>
      <trkpt lat="49.1356" lon="-0.29512">
        <ele>26</ele>
        <time>2024-07-03T13:04:47Z</time>
      </trkpt>
      <trkpt lat="49.13561" lon="-0.29514">
        <ele>26.6</ele>
        <time>2024-07-03T13:04:48Z</time>
      </trkpt>
      <trkpt lat="49.13562" lon="-0.29516">
        <ele>26.8</ele>
        <time>2024-07-03T13:04:49Z</time>
      </trkpt>
      <trkpt lat="49.13563" lon="-0.29518">
        <ele>27</ele>
        <time>2024-07-03T13:04:50Z</time>
      </trkpt>
      <trkpt lat="49.13562" lon="-0.29519">
        <ele>27.2</ele>
        <time>2024-07-03T13:04:51Z</time>
      </trkpt>
      <trkpt lat="49.1356" lon="-0.29521">
        <ele>27.2</ele>
        <time>2024-07-03T13:04:52Z</time>
      </trkpt>
      <trkpt lat="49.13556" lon="-0.2952">
        <ele>27</ele>
        <time>2024-07-03T13:04:53Z</time>
      </trkpt>
      <trkpt lat="49.13552" lon="-0.2952">
        <ele>27</ele>
        <time>2024-07-03T13:04:54Z</time>
      </trkpt>
      <trkpt lat="49.13546" lon="-0.2952">
        <ele>26.8</ele>
        <time>2024-07-03T13:04:55Z</time>
      </trkpt>
      <trkpt lat="49.13541" lon="-0.29522">
        <ele>26.6</ele>
        <time>2024-07-03T13:04:56Z</time>
      </trkpt>
      <trkpt lat="49.13534" lon="-0.29524">
        <ele>26.4</ele>
        <time>2024-07-03T13:04:57Z</time>
      </trkpt>
      <trkpt lat="49.13528" lon="-0.29526">
        <ele>26.2</ele>
        <time>2024-07-03T13:04:58Z</time>
      </trkpt>
      <trkpt lat="49.13522" lon="-0.2953">
        <ele>25.8</ele>
        <time>2024-07-03T13:04:59Z</time>
      </trkpt>
      <trkpt lat="49.13516" lon="-0.29534">
        <ele>25.6</ele>
        <time>2024-07-03T13:05:00Z</time>
      </trkpt>
      <trkpt lat="49.1351" lon="-0.29537">
        <ele>25.4</ele>
        <time>2024-07-03T13:05:01Z</time>
      </trkpt>
      <trkpt lat="49.13505" lon="-0.2954">
        <ele>25.4</ele>
        <time>2024-07-03T13:05:02Z</time>
      </trkpt>
      <trkpt lat="49.13499" lon="-0.29544">
        <ele>25.2</ele>
        <time>2024-07-03T13:05:03Z</time>
      </trkpt>
      <trkpt lat="49.13493" lon="-0.29547">
        <ele>25.2</ele>
        <time>2024-07-03T13:05:04Z</time>
      </trkpt>
      <trkpt lat="49.13487" lon="-0.29552">
        <ele>25</ele>
        <time>2024-07-03T13:05:05Z</time>
      </trkpt>
      <trkpt lat="49.13481" lon="-0.29557">
        <ele>25</ele>
        <time>2024-07-03T13:05:06Z</time>
      </trkpt>
      <trkpt lat="49.13475" lon="-0.29562">
        <ele>25.2</ele>
        <time>2024-07-03T13:05:07Z</time>
      </trkpt>
      <trkpt lat="49.13469" lon="-0.29567">
        <ele>25.4</ele>
        <time>2024-07-03T13:05:08Z</time>
      </trkpt>
      <trkpt lat="49.13463" lon="-0.29572">
        <ele>25.6</ele>
        <time>2024-07-03T13:05:09Z</time>
      </trkpt>
      <trkpt lat="49.13457" lon="-0.29577">
        <ele>25.8</ele>
        <time>2024-07-03T13:05:10Z</time>
      </trkpt>
      <trkpt lat="49.13451" lon="-0.29582">
        <ele>26</ele>
        <time>2024-07-03T13:05:11Z</time>
      </trkpt>
      <trkpt lat="49.13444" lon="-0.29588">
        <ele>26</ele>
        <time>2024-07-03T13:05:12Z</time>
      </trkpt>
      <trkpt lat="49.13437" lon="-0.29594">
        <ele>26.2</ele>
        <time>2024-07-03T13:05:13Z</time>
      </trkpt>
      <trkpt lat="49.13431" lon="-0.296">
        <ele>26.2</ele>
        <time>2024-07-03T13:05:14Z</time>
      </trkpt>
      <trkpt lat="49.13424" lon="-0.29605">
        <ele>26.2</ele>
        <time>2024-07-03T13:05:15Z</time>
      </trkpt>
      <trkpt lat="49.13418" lon="-0.29611">
        <ele>26</ele>
        <time>2024-07-03T13:05:16Z</time>
      </trkpt>
      <trkpt lat="49.13412" lon="-0.29616">
        <ele>26</ele>
        <time>2024-07-03T13:05:17Z</time>
      </trkpt>
      <trkpt lat="49.13406" lon="-0.29621">
        <ele>25.8</ele>
        <time>2024-07-03T13:05:18Z</time>
      </trkpt>
      <trkpt lat="49.134" lon="-0.29626">
        <ele>25.6</ele>
        <time>2024-07-03T13:05:19Z</time>
      </trkpt>
      <trkpt lat="49.13394" lon="-0.29631">
        <ele>25.4</ele>
        <time>2024-07-03T13:05:20Z</time>
      </trkpt>
      <trkpt lat="49.13388" lon="-0.29636">
        <ele>25.4</ele>
        <time>2024-07-03T13:05:21Z</time>
      </trkpt>
      <trkpt lat="49.13382" lon="-0.29641">
        <ele>25.4</ele>
        <time>2024-07-03T13:05:22Z</time>
      </trkpt>
      <trkpt lat="49.13376" lon="-0.29643">
        <ele>25.6</ele>
        <time>2024-07-03T13:05:23Z</time>
      </trkpt>
      <trkpt lat="49.1337" lon="-0.29643">
        <ele>25.8</ele>
        <time>2024-07-03T13:05:24Z</time>
      </trkpt>
      <trkpt lat="49.13363" lon="-0.2964">
        <ele>26.2</ele>
        <time>2024-07-03T13:05:25Z</time>
      </trkpt>
      <trkpt lat="49.13358" lon="-0.29636">
        <ele>26.6</ele>
        <time>2024-07-03T13:05:26Z</time>
      </trkpt>
      <trkpt lat="49.13352" lon="-0.29633">
        <ele>27.2</ele>
        <time>2024-07-03T13:05:27Z</time>
      </trkpt>
      <trkpt lat="49.13345" lon="-0.29631">
        <ele>27.8</ele>
        <time>2024-07-03T13:05:28Z</time>
      </trkpt>
      <trkpt lat="49.13339" lon="-0.29628">
        <ele>28</ele>
        <time>2024-07-03T13:05:29Z</time>
      </trkpt>
      <trkpt lat="49.13332" lon="-0.29625">
        <ele>28.4</ele>
        <time>2024-07-03T13:05:30Z</time>
      </trkpt>
      <trkpt lat="49.13326" lon="-0.29623">
        <ele>28.4</ele>
        <time>2024-07-03T13:05:31Z</time>
      </trkpt>
      <trkpt lat="49.1332" lon="-0.2962">
        <ele>28.4</ele>
        <time>2024-07-03T13:05:32Z</time>
      </trkpt>
      <trkpt lat="49.13314" lon="-0.29618">
        <ele>28.4</ele>
        <time>2024-07-03T13:05:33Z</time>
      </trkpt>
      <trkpt lat="49.13307" lon="-0.29616">
        <ele>28.4</ele>
        <time>2024-07-03T13:05:34Z</time>
      </trkpt>
      <trkpt lat="49.133" lon="-0.29615">
        <ele>28.4</ele>
        <time>2024-07-03T13:05:35Z</time>
      </trkpt>
      <trkpt lat="49.13293" lon="-0.29613">
        <ele>28.4</ele>
        <time>2024-07-03T13:05:36Z</time>
      </trkpt>
      <trkpt lat="49.13287" lon="-0.29611">
        <ele>28.4</ele>
        <time>2024-07-03T13:05:37Z</time>
      </trkpt>
      <trkpt lat="49.13281" lon="-0.29609">
        <ele>28.6</ele>
        <time>2024-07-03T13:05:38Z</time>
      </trkpt>
      <trkpt lat="49.13275" lon="-0.29607">
        <ele>28.8</ele>
        <time>2024-07-03T13:05:39Z</time>
      </trkpt>
      <trkpt lat="49.13269" lon="-0.29606">
        <ele>29.2</ele>
        <time>2024-07-03T13:05:40Z</time>
      </trkpt>
      <trkpt lat="49.13263" lon="-0.29605">
        <ele>29.4</ele>
        <time>2024-07-03T13:05:41Z</time>
      </trkpt>
      <trkpt lat="49.13257" lon="-0.29605">
        <ele>29.6</ele>
        <time>2024-07-03T13:05:42Z</time>
      </trkpt>
      <trkpt lat="49.13251" lon="-0.29605">
        <ele>29.8</ele>
        <time>2024-07-03T13:05:43Z</time>
      </trkpt>
      <trkpt lat="49.13245" lon="-0.29605">
        <ele>30</ele>
        <time>2024-07-03T13:05:44Z</time>
      </trkpt>
      <trkpt lat="49.1324" lon="-0.29606">
        <ele>30.2</ele>
        <time>2024-07-03T13:05:45Z</time>
      </trkpt>
      <trkpt lat="49.13234" lon="-0.29608">
        <ele>30.2</ele>
        <time>2024-07-03T13:05:46Z</time>
      </trkpt>
      <trkpt lat="49.13228" lon="-0.29611">
        <ele>30.4</ele>
        <time>2024-07-03T13:05:47Z</time>
      </trkpt>
      <trkpt lat="49.13222" lon="-0.29613">
        <ele>30.4</ele>
        <time>2024-07-03T13:05:48Z</time>
      </trkpt>
      <trkpt lat="49.13215" lon="-0.29616">
        <ele>30.4</ele>
        <time>2024-07-03T13:05:49Z</time>
      </trkpt>
      <trkpt lat="49.13209" lon="-0.29619">
        <ele>30.4</ele>
        <time>2024-07-03T13:05:50Z</time>
      </trkpt>
      <trkpt lat="49.13202" lon="-0.29622">
        <ele>30.6</ele>
        <time>2024-07-03T13:05:51Z</time>
      </trkpt>
      <trkpt lat="49.13196" lon="-0.29624">
        <ele>30.6</ele>
        <time>2024-07-03T13:05:52Z</time>
      </trkpt>
      <trkpt lat="49.13189" lon="-0.29627">
        <ele>30.6</ele>
        <time>2024-07-03T13:05:53Z</time>
      </trkpt>
      <trkpt lat="49.13183" lon="-0.2963">
        <ele>30.6</ele>
        <time>2024-07-03T13:05:54Z</time>
      </trkpt>
      <trkpt lat="49.13176" lon="-0.29634">
        <ele>30.6</ele>
        <time>2024-07-03T13:05:55Z</time>
      </trkpt>
      <trkpt lat="49.1317" lon="-0.29638">
        <ele>30.6</ele>
        <time>2024-07-03T13:05:56Z</time>
      </trkpt>
      <trkpt lat="49.13164" lon="-0.29641">
        <ele>30.6</ele>
        <time>2024-07-03T13:05:57Z</time>
      </trkpt>
      <trkpt lat="49.13157" lon="-0.29644">
        <ele>30.6</ele>
        <time>2024-07-03T13:05:58Z</time>
      </trkpt>
      <trkpt lat="49.13151" lon="-0.29647">
        <ele>30.4</ele>
        <time>2024-07-03T13:05:59Z</time>
      </trkpt>
      <trkpt lat="49.13144" lon="-0.29651">
        <ele>30.6</ele>
        <time>2024-07-03T13:06:00Z</time>
      </trkpt>
      <trkpt lat="49.13138" lon="-0.29654">
        <ele>30.6</ele>
        <time>2024-07-03T13:06:01Z</time>
      </trkpt>
      <trkpt lat="49.13132" lon="-0.29657">
        <ele>30.6</ele>
        <time>2024-07-03T13:06:02Z</time>
      </trkpt>
      <trkpt lat="49.13125" lon="-0.2966">
        <ele>30.8</ele>
        <time>2024-07-03T13:06:03Z</time>
      </trkpt>
      <trkpt lat="49.13119" lon="-0.29663">
        <ele>31</ele>
        <time>2024-07-03T13:06:04Z</time>
      </trkpt>
      <trkpt lat="49.13113" lon="-0.29666">
        <ele>31.2</ele>
        <time>2024-07-03T13:06:05Z</time>
      </trkpt>
      <trkpt lat="49.13107" lon="-0.29669">
        <ele>31.4</ele>
        <time>2024-07-03T13:06:06Z</time>
      </trkpt>
      <trkpt lat="49.13101" lon="-0.29671">
        <ele>31.8</ele>
        <time>2024-07-03T13:06:07Z</time>
      </trkpt>
      <trkpt lat="49.13095" lon="-0.29674">
        <ele>32</ele>
        <time>2024-07-03T13:06:08Z</time>
      </trkpt>
      <trkpt lat="49.13089" lon="-0.29677">
        <ele>32.4</ele>
        <time>2024-07-03T13:06:09Z</time>
      </trkpt>
      <trkpt lat="49.13083" lon="-0.2968">
        <ele>32.6</ele>
        <time>2024-07-03T13:06:10Z</time>
      </trkpt>
      <trkpt lat="49.13076" lon="-0.29683">
        <ele>32.6</ele>
        <time>2024-07-03T13:06:11Z</time>
      </trkpt>
      <trkpt lat="49.13069" lon="-0.29687">
        <ele>32.8</ele>
        <time>2024-07-03T13:06:12Z</time>
      </trkpt>
      <trkpt lat="49.13063" lon="-0.2969">
        <ele>32.8</ele>
        <time>2024-07-03T13:06:13Z</time>
      </trkpt>
      <trkpt lat="49.13056" lon="-0.29694">
        <ele>32.6</ele>
        <time>2024-07-03T13:06:14Z</time>
      </trkpt>
      <trkpt lat="49.1305" lon="-0.29697">
        <ele>32.6</ele>
        <time>2024-07-03T13:06:15Z</time>
      </trkpt>
      <trkpt lat="49.13043" lon="-0.29699">
        <ele>32.6</ele>
        <time>2024-07-03T13:06:16Z</time>
      </trkpt>
      <trkpt lat="49.13037" lon="-0.29702">
        <ele>32.6</ele>
        <time>2024-07-03T13:06:17Z</time>
      </trkpt>
      <trkpt lat="49.1303" lon="-0.29704">
        <ele>32.6</ele>
        <time>2024-07-03T13:06:18Z</time>
      </trkpt>
      <trkpt lat="49.13023" lon="-0.29707">
        <ele>32.8</ele>
        <time>2024-07-03T13:06:19Z</time>
      </trkpt>
      <trkpt lat="49.13016" lon="-0.2971">
        <ele>33</ele>
        <time>2024-07-03T13:06:20Z</time>
      </trkpt>
      <trkpt lat="49.13009" lon="-0.29714">
        <ele>33.2</ele>
        <time>2024-07-03T13:06:21Z</time>
      </trkpt>
      <trkpt lat="49.13002" lon="-0.29717">
        <ele>33.4</ele>
        <time>2024-07-03T13:06:22Z</time>
      </trkpt>
      <trkpt lat="49.12995" lon="-0.2972">
        <ele>33.8</ele>
        <time>2024-07-03T13:06:23Z</time>
      </trkpt>
      <trkpt lat="49.12988" lon="-0.29723">
        <ele>34</ele>
        <time>2024-07-03T13:06:24Z</time>
      </trkpt>
      <trkpt lat="49.12982" lon="-0.29726">
        <ele>34.2</ele>
        <time>2024-07-03T13:06:25Z</time>
      </trkpt>
      <trkpt lat="49.12975" lon="-0.29729">
        <ele>34.4</ele>
        <time>2024-07-03T13:06:26Z</time>
      </trkpt>
      <trkpt lat="49.12968" lon="-0.29732">
        <ele>34.4</ele>
        <time>2024-07-03T13:06:27Z</time>
      </trkpt>
      <trkpt lat="49.1296" lon="-0.29735">
        <ele>34.6</ele>
        <time>2024-07-03T13:06:28Z</time>
      </trkpt>
      <trkpt lat="49.12953" lon="-0.29738">
        <ele>34.6</ele>
        <time>2024-07-03T13:06:29Z</time>
      </trkpt>
      <trkpt lat="49.12946" lon="-0.29741">
        <ele>34.8</ele>
        <time>2024-07-03T13:06:30Z</time>
      </trkpt>
      <trkpt lat="49.12939" lon="-0.29745">
        <ele>34.8</ele>
        <time>2024-07-03T13:06:31Z</time>
      </trkpt>
      <trkpt lat="49.12932" lon="-0.29748">
        <ele>34.8</ele>
        <time>2024-07-03T13:06:32Z</time>
      </trkpt>
      <trkpt lat="49.12925" lon="-0.29751">
        <ele>34.8</ele>
        <time>2024-07-03T13:06:33Z</time>
      </trkpt>
      <trkpt lat="49.12918" lon="-0.29754">
        <ele>34.6</ele>
        <time>2024-07-03T13:06:34Z</time>
      </trkpt>
      <trkpt lat="49.12911" lon="-0.29757">
        <ele>34.6</ele>
        <time>2024-07-03T13:06:35Z</time>
      </trkpt>
      <trkpt lat="49.12904" lon="-0.29761">
        <ele>34.6</ele>
        <time>2024-07-03T13:06:36Z</time>
      </trkpt>
      <trkpt lat="49.12897" lon="-0.29764">
        <ele>34.6</ele>
        <time>2024-07-03T13:06:37Z</time>
      </trkpt>
      <trkpt lat="49.1289" lon="-0.29767">
        <ele>34.6</ele>
        <time>2024-07-03T13:06:38Z</time>
      </trkpt>
      <trkpt lat="49.12883" lon="-0.2977">
        <ele>34.6</ele>
        <time>2024-07-03T13:06:39Z</time>
      </trkpt>
      <trkpt lat="49.12877" lon="-0.29773">
        <ele>34.6</ele>
        <time>2024-07-03T13:06:40Z</time>
      </trkpt>
      <trkpt lat="49.1287" lon="-0.29777">
        <ele>34.6</ele>
        <time>2024-07-03T13:06:41Z</time>
      </trkpt>
      <trkpt lat="49.12863" lon="-0.2978">
        <ele>34.6</ele>
        <time>2024-07-03T13:06:42Z</time>
      </trkpt>
      <trkpt lat="49.12855" lon="-0.29783">
        <ele>34.6</ele>
        <time>2024-07-03T13:06:43Z</time>
      </trkpt>
      <trkpt lat="49.12848" lon="-0.29786">
        <ele>34.4</ele>
        <time>2024-07-03T13:06:44Z</time>
      </trkpt>
      <trkpt lat="49.12841" lon="-0.29789">
        <ele>34.4</ele>
        <time>2024-07-03T13:06:45Z</time>
      </trkpt>
      <trkpt lat="49.12834" lon="-0.29793">
        <ele>34.4</ele>
        <time>2024-07-03T13:06:46Z</time>
      </trkpt>
      <trkpt lat="49.12827" lon="-0.29796">
        <ele>34.4</ele>
        <time>2024-07-03T13:06:47Z</time>
      </trkpt>
      <trkpt lat="49.1282" lon="-0.29799">
        <ele>34.2</ele>
        <time>2024-07-03T13:06:48Z</time>
      </trkpt>
      <trkpt lat="49.12813" lon="-0.29802">
        <ele>34</ele>
        <time>2024-07-03T13:06:49Z</time>
      </trkpt>
      <trkpt lat="49.12806" lon="-0.29805">
        <ele>34</ele>
        <time>2024-07-03T13:06:50Z</time>
      </trkpt>
      <trkpt lat="49.12799" lon="-0.29808">
        <ele>34</ele>
        <time>2024-07-03T13:06:51Z</time>
      </trkpt>
      <trkpt lat="49.12792" lon="-0.29812">
        <ele>34.2</ele>
        <time>2024-07-03T13:06:52Z</time>
      </trkpt>
      <trkpt lat="49.12785" lon="-0.29815">
        <ele>34.2</ele>
        <time>2024-07-03T13:06:53Z</time>
      </trkpt>
      <trkpt lat="49.12778" lon="-0.29818">
        <ele>34.2</ele>
        <time>2024-07-03T13:06:54Z</time>
      </trkpt>
      <trkpt lat="49.12771" lon="-0.29821">
        <ele>34.4</ele>
        <time>2024-07-03T13:06:55Z</time>
      </trkpt>
      <trkpt lat="49.12764" lon="-0.29824">
        <ele>34.4</ele>
        <time>2024-07-03T13:06:56Z</time>
      </trkpt>
      <trkpt lat="49.12757" lon="-0.29827">
        <ele>34.4</ele>
        <time>2024-07-03T13:06:57Z</time>
      </trkpt>
      <trkpt lat="49.1275" lon="-0.29831">
        <ele>34.6</ele>
        <time>2024-07-03T13:06:58Z</time>
      </trkpt>
      <trkpt lat="49.12743" lon="-0.29834">
        <ele>34.6</ele>
        <time>2024-07-03T13:06:59Z</time>
      </trkpt>
      <trkpt lat="49.12735" lon="-0.29837">
        <ele>34.6</ele>
        <time>2024-07-03T13:07:00Z</time>
      </trkpt>
      <trkpt lat="49.12728" lon="-0.29841">
        <ele>34.6</ele>
        <time>2024-07-03T13:07:01Z</time>
      </trkpt>
      <trkpt lat="49.12721" lon="-0.29844">
        <ele>34.4</ele>
        <time>2024-07-03T13:07:02Z</time>
      </trkpt>
      <trkpt lat="49.12714" lon="-0.29847">
        <ele>34.4</ele>
        <time>2024-07-03T13:07:03Z</time>
      </trkpt>
      <trkpt lat="49.12706" lon="-0.2985">
        <ele>34.4</ele>
        <time>2024-07-03T13:07:04Z</time>
      </trkpt>
      <trkpt lat="49.12699" lon="-0.29853">
        <ele>34.2</ele>
        <time>2024-07-03T13:07:05Z</time>
      </trkpt>
      <trkpt lat="49.12692" lon="-0.29856">
        <ele>34.2</ele>
        <time>2024-07-03T13:07:06Z</time>
      </trkpt>
      <trkpt lat="49.12685" lon="-0.2986">
        <ele>34.2</ele>
        <time>2024-07-03T13:07:07Z</time>
      </trkpt>
      <trkpt lat="49.12678" lon="-0.29863">
        <ele>34.2</ele>
        <time>2024-07-03T13:07:08Z</time>
      </trkpt>
      <trkpt lat="49.12671" lon="-0.29866">
        <ele>34.2</ele>
        <time>2024-07-03T13:07:09Z</time>
      </trkpt>
      <trkpt lat="49.12664" lon="-0.29869">
        <ele>34.4</ele>
        <time>2024-07-03T13:07:10Z</time>
      </trkpt>
      <trkpt lat="49.12656" lon="-0.29873">
        <ele>34.4</ele>
        <time>2024-07-03T13:07:11Z</time>
      </trkpt>
      <trkpt lat="49.12649" lon="-0.29876">
        <ele>34.4</ele>
        <time>2024-07-03T13:07:12Z</time>
      </trkpt>
      <trkpt lat="49.12642" lon="-0.29879">
        <ele>34.6</ele>
        <time>2024-07-03T13:07:13Z</time>
      </trkpt>
      <trkpt lat="49.12635" lon="-0.29882">
        <ele>34.8</ele>
        <time>2024-07-03T13:07:14Z</time>
      </trkpt>
      <trkpt lat="49.12628" lon="-0.29886">
        <ele>35</ele>
        <time>2024-07-03T13:07:15Z</time>
      </trkpt>
      <trkpt lat="49.12621" lon="-0.29889">
        <ele>35</ele>
        <time>2024-07-03T13:07:16Z</time>
      </trkpt>
      <trkpt lat="49.12614" lon="-0.29892">
        <ele>35</ele>
        <time>2024-07-03T13:07:17Z</time>
      </trkpt>
      <trkpt lat="49.12607" lon="-0.29895">
        <ele>35</ele>
        <time>2024-07-03T13:07:18Z</time>
      </trkpt>
      <trkpt lat="49.126" lon="-0.29899">
        <ele>35</ele>
        <time>2024-07-03T13:07:19Z</time>
      </trkpt>
      <trkpt lat="49.12594" lon="-0.29902">
        <ele>35</ele>
        <time>2024-07-03T13:07:20Z</time>
      </trkpt>
      <trkpt lat="49.12587" lon="-0.29905">
        <ele>35</ele>
        <time>2024-07-03T13:07:21Z</time>
      </trkpt>
      <trkpt lat="49.1258" lon="-0.29908">
        <ele>35</ele>
        <time>2024-07-03T13:07:22Z</time>
      </trkpt>
      <trkpt lat="49.12573" lon="-0.29911">
        <ele>34.8</ele>
        <time>2024-07-03T13:07:23Z</time>
      </trkpt>
      <trkpt lat="49.12566" lon="-0.29914">
        <ele>34.8</ele>
        <time>2024-07-03T13:07:24Z</time>
      </trkpt>
      <trkpt lat="49.1256" lon="-0.29917">
        <ele>34.8</ele>
        <time>2024-07-03T13:07:25Z</time>
      </trkpt>
      <trkpt lat="49.12553" lon="-0.2992">
        <ele>34.8</ele>
        <time>2024-07-03T13:07:26Z</time>
      </trkpt>
      <trkpt lat="49.12546" lon="-0.29923">
        <ele>34.8</ele>
        <time>2024-07-03T13:07:27Z</time>
      </trkpt>
      <trkpt lat="49.1254" lon="-0.29925">
        <ele>34.8</ele>
        <time>2024-07-03T13:07:28Z</time>
      </trkpt>
      <trkpt lat="49.12533" lon="-0.29928">
        <ele>34.8</ele>
        <time>2024-07-03T13:07:29Z</time>
      </trkpt>
      <trkpt lat="49.12526" lon="-0.29931">
        <ele>35</ele>
        <time>2024-07-03T13:07:30Z</time>
      </trkpt>
      <trkpt lat="49.1252" lon="-0.29933">
        <ele>35.2</ele>
        <time>2024-07-03T13:07:31Z</time>
      </trkpt>
      <trkpt lat="49.12513" lon="-0.29936">
        <ele>35.4</ele>
        <time>2024-07-03T13:07:32Z</time>
      </trkpt>
      <trkpt lat="49.12507" lon="-0.29938">
        <ele>35.6</ele>
        <time>2024-07-03T13:07:33Z</time>
      </trkpt>
      <trkpt lat="49.125" lon="-0.2994">
        <ele>35.8</ele>
        <time>2024-07-03T13:07:34Z</time>
      </trkpt>
      <trkpt lat="49.12494" lon="-0.29941">
        <ele>36</ele>
        <time>2024-07-03T13:07:35Z</time>
      </trkpt>
      <trkpt lat="49.12487" lon="-0.29943">
        <ele>36.2</ele>
        <time>2024-07-03T13:07:36Z</time>
      </trkpt>
      <trkpt lat="49.12481" lon="-0.29945">
        <ele>36.4</ele>
        <time>2024-07-03T13:07:37Z</time>
      </trkpt>
      <trkpt lat="49.12475" lon="-0.29947">
        <ele>36.6</ele>
        <time>2024-07-03T13:07:38Z</time>
      </trkpt>
      <trkpt lat="49.12469" lon="-0.2995">
        <ele>37</ele>
        <time>2024-07-03T13:07:39Z</time>
      </trkpt>
      <trkpt lat="49.12465" lon="-0.29955">
        <ele>37.2</ele>
        <time>2024-07-03T13:07:40Z</time>
      </trkpt>
      <trkpt lat="49.12461" lon="-0.29962">
        <ele>37.4</ele>
        <time>2024-07-03T13:07:41Z</time>
      </trkpt>
      <trkpt lat="49.12458" lon="-0.29969">
        <ele>37.4</ele>
        <time>2024-07-03T13:07:42Z</time>
      </trkpt>
      <trkpt lat="49.12455" lon="-0.29977">
        <ele>37.6</ele>
        <time>2024-07-03T13:07:43Z</time>
      </trkpt>
      <trkpt lat="49.12451" lon="-0.29983">
        <ele>37.8</ele>
        <time>2024-07-03T13:07:44Z</time>
      </trkpt>
      <trkpt lat="49.12447" lon="-0.29989">
        <ele>38.2</ele>
        <time>2024-07-03T13:07:45Z</time>
      </trkpt>
      <trkpt lat="49.12443" lon="-0.29995">
        <ele>38.6</ele>
        <time>2024-07-03T13:07:46Z</time>
      </trkpt>
      <trkpt lat="49.1244" lon="-0.30003">
        <ele>38.8</ele>
        <time>2024-07-03T13:07:47Z</time>
      </trkpt>
      <trkpt lat="49.12439" lon="-0.30012">
        <ele>39</ele>
        <time>2024-07-03T13:07:48Z</time>
      </trkpt>
      <trkpt lat="49.12438" lon="-0.30021">
        <ele>39.2</ele>
        <time>2024-07-03T13:07:49Z</time>
      </trkpt>
      <trkpt lat="49.12439" lon="-0.3003">
        <ele>39.2</ele>
        <time>2024-07-03T13:07:50Z</time>
      </trkpt>
      <trkpt lat="49.12439" lon="-0.30039">
        <ele>39.2</ele>
        <time>2024-07-03T13:07:51Z</time>
      </trkpt>
      <trkpt lat="49.12439" lon="-0.30048">
        <ele>39.2</ele>
        <time>2024-07-03T13:07:52Z</time>
      </trkpt>
      <trkpt lat="49.12439" lon="-0.30058">
        <ele>39.2</ele>
        <time>2024-07-03T13:07:53Z</time>
      </trkpt>
      <trkpt lat="49.12439" lon="-0.30067">
        <ele>39.2</ele>
        <time>2024-07-03T13:07:54Z</time>
      </trkpt>
      <trkpt lat="49.12439" lon="-0.30076">
        <ele>39.2</ele>
        <time>2024-07-03T13:07:55Z</time>
      </trkpt>
      <trkpt lat="49.12439" lon="-0.30086">
        <ele>39.2</ele>
        <time>2024-07-03T13:07:56Z</time>
      </trkpt>
      <trkpt lat="49.12439" lon="-0.30095">
        <ele>39.2</ele>
        <time>2024-07-03T13:07:57Z</time>
      </trkpt>
      <trkpt lat="49.12439" lon="-0.30103">
        <ele>39.2</ele>
        <time>2024-07-03T13:07:58Z</time>
      </trkpt>
      <trkpt lat="49.1244" lon="-0.30112">
        <ele>39.2</ele>
        <time>2024-07-03T13:07:59Z</time>
      </trkpt>
      <trkpt lat="49.12439" lon="-0.30121">
        <ele>39.4</ele>
        <time>2024-07-03T13:08:00Z</time>
      </trkpt>
      <trkpt lat="49.12439" lon="-0.3013">
        <ele>39.6</ele>
        <time>2024-07-03T13:08:01Z</time>
      </trkpt>
      <trkpt lat="49.12439" lon="-0.30139">
        <ele>39.8</ele>
        <time>2024-07-03T13:08:02Z</time>
      </trkpt>
      <trkpt lat="49.12438" lon="-0.30148">
        <ele>39.8</ele>
        <time>2024-07-03T13:08:03Z</time>
      </trkpt>
      <trkpt lat="49.12438" lon="-0.30157">
        <ele>39.8</ele>
        <time>2024-07-03T13:08:04Z</time>
      </trkpt>
      <trkpt lat="49.12437" lon="-0.30165">
        <ele>39.8</ele>
        <time>2024-07-03T13:08:05Z</time>
      </trkpt>
      <trkpt lat="49.12437" lon="-0.30174">
        <ele>39.8</ele>
        <time>2024-07-03T13:08:06Z</time>
      </trkpt>
      <trkpt lat="49.12436" lon="-0.30183">
        <ele>39.8</ele>
        <time>2024-07-03T13:08:07Z</time>
      </trkpt>
      <trkpt lat="49.12436" lon="-0.30191">
        <ele>39.8</ele>
        <time>2024-07-03T13:08:08Z</time>
      </trkpt>
      <trkpt lat="49.12435" lon="-0.302">
        <ele>40</ele>
        <time>2024-07-03T13:08:09Z</time>
      </trkpt>
      <trkpt lat="49.12435" lon="-0.30208">
        <ele>40.4</ele>
        <time>2024-07-03T13:08:10Z</time>
      </trkpt>
      <trkpt lat="49.12434" lon="-0.30217">
        <ele>40.8</ele>
        <time>2024-07-03T13:08:11Z</time>
      </trkpt>
      <trkpt lat="49.12434" lon="-0.30226">
        <ele>41</ele>
        <time>2024-07-03T13:08:12Z</time>
      </trkpt>
      <trkpt lat="49.12433" lon="-0.30234">
        <ele>41</ele>
        <time>2024-07-03T13:08:13Z</time>
      </trkpt>
      <trkpt lat="49.12433" lon="-0.30243">
        <ele>41.2</ele>
        <time>2024-07-03T13:08:14Z</time>
      </trkpt>
      <trkpt lat="49.12433" lon="-0.30252">
        <ele>41.2</ele>
        <time>2024-07-03T13:08:15Z</time>
      </trkpt>
      <trkpt lat="49.12432" lon="-0.3026">
        <ele>41.4</ele>
        <time>2024-07-03T13:08:16Z</time>
      </trkpt>
      <trkpt lat="49.12432" lon="-0.30269">
        <ele>41.6</ele>
        <time>2024-07-03T13:08:17Z</time>
      </trkpt>
      <trkpt lat="49.12431" lon="-0.30277">
        <ele>41.8</ele>
        <time>2024-07-03T13:08:18Z</time>
      </trkpt>
      <trkpt lat="49.12431" lon="-0.30286">
        <ele>42</ele>
        <time>2024-07-03T13:08:19Z</time>
      </trkpt>
      <trkpt lat="49.12431" lon="-0.30294">
        <ele>42.2</ele>
        <time>2024-07-03T13:08:20Z</time>
      </trkpt>
      <trkpt lat="49.12431" lon="-0.30302">
        <ele>42.6</ele>
        <time>2024-07-03T13:08:21Z</time>
      </trkpt>
      <trkpt lat="49.1243" lon="-0.3031">
        <ele>43</ele>
        <time>2024-07-03T13:08:22Z</time>
      </trkpt>
      <trkpt lat="49.1243" lon="-0.30319">
        <ele>43.4</ele>
        <time>2024-07-03T13:08:23Z</time>
      </trkpt>
      <trkpt lat="49.12429" lon="-0.30327">
        <ele>43.6</ele>
        <time>2024-07-03T13:08:24Z</time>
      </trkpt>
      <trkpt lat="49.12429" lon="-0.30335">
        <ele>43.8</ele>
        <time>2024-07-03T13:08:25Z</time>
      </trkpt>
      <trkpt lat="49.12429" lon="-0.30343">
        <ele>44</ele>
        <time>2024-07-03T13:08:26Z</time>
      </trkpt>
      <trkpt lat="49.12429" lon="-0.30351">
        <ele>44.4</ele>
        <time>2024-07-03T13:08:27Z</time>
      </trkpt>
      <trkpt lat="49.12429" lon="-0.3036">
        <ele>44.6</ele>
        <time>2024-07-03T13:08:28Z</time>
      </trkpt>
      <trkpt lat="49.12429" lon="-0.30368">
        <ele>44.8</ele>
        <time>2024-07-03T13:08:29Z</time>
      </trkpt>
      <trkpt lat="49.12429" lon="-0.30376">
        <ele>45</ele>
        <time>2024-07-03T13:08:30Z</time>
      </trkpt>
      <trkpt lat="49.12429" lon="-0.30384">
        <ele>45.4</ele>
        <time>2024-07-03T13:08:31Z</time>
      </trkpt>
      <trkpt lat="49.12429" lon="-0.30392">
        <ele>45.6</ele>
        <time>2024-07-03T13:08:32Z</time>
      </trkpt>
      <trkpt lat="49.12429" lon="-0.304">
        <ele>45.8</ele>
        <time>2024-07-03T13:08:33Z</time>
      </trkpt>
      <trkpt lat="49.1243" lon="-0.30408">
        <ele>46</ele>
        <time>2024-07-03T13:08:34Z</time>
      </trkpt>
      <trkpt lat="49.1243" lon="-0.30416">
        <ele>46.4</ele>
        <time>2024-07-03T13:08:35Z</time>
      </trkpt>
      <trkpt lat="49.12431" lon="-0.30424">
        <ele>47</ele>
        <time>2024-07-03T13:08:36Z</time>
      </trkpt>
      <trkpt lat="49.12431" lon="-0.30433">
        <ele>47.4</ele>
        <time>2024-07-03T13:08:37Z</time>
      </trkpt>
      <trkpt lat="49.12432" lon="-0.30441">
        <ele>47.8</ele>
        <time>2024-07-03T13:08:38Z</time>
      </trkpt>
      <trkpt lat="49.12432" lon="-0.3045">
        <ele>48</ele>
        <time>2024-07-03T13:08:39Z</time>
      </trkpt>
      <trkpt lat="49.12433" lon="-0.30458">
        <ele>48</ele>
        <time>2024-07-03T13:08:40Z</time>
      </trkpt>
      <trkpt lat="49.12434" lon="-0.30467">
        <ele>48.2</ele>
        <time>2024-07-03T13:08:41Z</time>
      </trkpt>
      <trkpt lat="49.12435" lon="-0.30475">
        <ele>48.4</ele>
        <time>2024-07-03T13:08:42Z</time>
      </trkpt>
      <trkpt lat="49.12436" lon="-0.30483">
        <ele>49</ele>
        <time>2024-07-03T13:08:43Z</time>
      </trkpt>
      <trkpt lat="49.12438" lon="-0.30492">
        <ele>49.6</ele>
        <time>2024-07-03T13:08:44Z</time>
      </trkpt>
      <trkpt lat="49.12439" lon="-0.305">
        <ele>50</ele>
        <time>2024-07-03T13:08:45Z</time>
      </trkpt>
      <trkpt lat="49.1244" lon="-0.30509">
        <ele>50.2</ele>
        <time>2024-07-03T13:08:46Z</time>
      </trkpt>
      <trkpt lat="49.12442" lon="-0.30518">
        <ele>50.4</ele>
        <time>2024-07-03T13:08:47Z</time>
      </trkpt>
      <trkpt lat="49.12444" lon="-0.30526">
        <ele>50.6</ele>
        <time>2024-07-03T13:08:48Z</time>
      </trkpt>
      <trkpt lat="49.12446" lon="-0.30535">
        <ele>50.6</ele>
        <time>2024-07-03T13:08:49Z</time>
      </trkpt>
      <trkpt lat="49.12448" lon="-0.30545">
        <ele>51</ele>
        <time>2024-07-03T13:08:50Z</time>
      </trkpt>
      <trkpt lat="49.1245" lon="-0.30554">
        <ele>51.2</ele>
        <time>2024-07-03T13:08:51Z</time>
      </trkpt>
      <trkpt lat="49.12452" lon="-0.30563">
        <ele>51.4</ele>
        <time>2024-07-03T13:08:52Z</time>
      </trkpt>
      <trkpt lat="49.12454" lon="-0.30573">
        <ele>51.6</ele>
        <time>2024-07-03T13:08:53Z</time>
      </trkpt>
      <trkpt lat="49.12456" lon="-0.30582">
        <ele>51.6</ele>
        <time>2024-07-03T13:08:54Z</time>
      </trkpt>
      <trkpt lat="49.12459" lon="-0.30591">
        <ele>51.4</ele>
        <time>2024-07-03T13:08:55Z</time>
      </trkpt>
      <trkpt lat="49.12461" lon="-0.30599">
        <ele>51.4</ele>
        <time>2024-07-03T13:08:56Z</time>
      </trkpt>
      <trkpt lat="49.12464" lon="-0.30608">
        <ele>51.2</ele>
        <time>2024-07-03T13:08:57Z</time>
      </trkpt>
      <trkpt lat="49.12467" lon="-0.30616">
        <ele>51.2</ele>
        <time>2024-07-03T13:08:58Z</time>
      </trkpt>
      <trkpt lat="49.12471" lon="-0.30625">
        <ele>51.2</ele>
        <time>2024-07-03T13:08:59Z</time>
      </trkpt>
      <trkpt lat="49.12474" lon="-0.30633">
        <ele>51</ele>
        <time>2024-07-03T13:09:00Z</time>
      </trkpt>
      <trkpt lat="49.12477" lon="-0.30642">
        <ele>50.8</ele>
        <time>2024-07-03T13:09:01Z</time>
      </trkpt>
      <trkpt lat="49.12481" lon="-0.30651">
        <ele>50.8</ele>
        <time>2024-07-03T13:09:02Z</time>
      </trkpt>
      <trkpt lat="49.12484" lon="-0.30659">
        <ele>50.6</ele>
        <time>2024-07-03T13:09:03Z</time>
      </trkpt>
      <trkpt lat="49.12487" lon="-0.30668">
        <ele>50.6</ele>
        <time>2024-07-03T13:09:04Z</time>
      </trkpt>
      <trkpt lat="49.1249" lon="-0.30677">
        <ele>50.4</ele>
        <time>2024-07-03T13:09:05Z</time>
      </trkpt>
      <trkpt lat="49.12494" lon="-0.30686">
        <ele>50.2</ele>
        <time>2024-07-03T13:09:06Z</time>
      </trkpt>
      <trkpt lat="49.12497" lon="-0.30694">
        <ele>50.2</ele>
        <time>2024-07-03T13:09:07Z</time>
      </trkpt>
      <trkpt lat="49.125" lon="-0.30701">
        <ele>50.2</ele>
        <time>2024-07-03T13:09:08Z</time>
      </trkpt>
      <trkpt lat="49.12504" lon="-0.30707">
        <ele>50</ele>
        <time>2024-07-03T13:09:09Z</time>
      </trkpt>
      <trkpt lat="49.12509" lon="-0.30712">
        <ele>49.8</ele>
        <time>2024-07-03T13:09:10Z</time>
      </trkpt>
      <trkpt lat="49.12514" lon="-0.30717">
        <ele>49.8</ele>
        <time>2024-07-03T13:09:11Z</time>
      </trkpt>
      <trkpt lat="49.12519" lon="-0.30723">
        <ele>49.6</ele>
        <time>2024-07-03T13:09:12Z</time>
      </trkpt>
      <trkpt lat="49.12523" lon="-0.3073">
        <ele>49.4</ele>
        <time>2024-07-03T13:09:13Z</time>
      </trkpt>
      <trkpt lat="49.12527" lon="-0.30739">
        <ele>49</ele>
        <time>2024-07-03T13:09:14Z</time>
      </trkpt>
      <trkpt lat="49.12529" lon="-0.30749">
        <ele>48.8</ele>
        <time>2024-07-03T13:09:15Z</time>
      </trkpt>
      <trkpt lat="49.12529" lon="-0.30759">
        <ele>48.6</ele>
        <time>2024-07-03T13:09:16Z</time>
      </trkpt>
      <trkpt lat="49.1253" lon="-0.30769">
        <ele>48.6</ele>
        <time>2024-07-03T13:09:17Z</time>
      </trkpt>
      <trkpt lat="49.12533" lon="-0.30779">
        <ele>48.6</ele>
        <time>2024-07-03T13:09:18Z</time>
      </trkpt>
      <trkpt lat="49.12536" lon="-0.30789">
        <ele>48.4</ele>
        <time>2024-07-03T13:09:19Z</time>
      </trkpt>
      <trkpt lat="49.12539" lon="-0.30799">
        <ele>48.4</ele>
        <time>2024-07-03T13:09:20Z</time>
      </trkpt>
      <trkpt lat="49.12541" lon="-0.30809">
        <ele>48.4</ele>
        <time>2024-07-03T13:09:21Z</time>
      </trkpt>
      <trkpt lat="49.12544" lon="-0.30818">
        <ele>48.2</ele>
        <time>2024-07-03T13:09:22Z</time>
      </trkpt>
      <trkpt lat="49.12548" lon="-0.30827">
        <ele>48</ele>
        <time>2024-07-03T13:09:23Z</time>
      </trkpt>
      <trkpt lat="49.12552" lon="-0.30836">
        <ele>48</ele>
        <time>2024-07-03T13:09:24Z</time>
      </trkpt>
      <trkpt lat="49.12556" lon="-0.30845">
        <ele>48</ele>
        <time>2024-07-03T13:09:25Z</time>
      </trkpt>
      <trkpt lat="49.1256" lon="-0.30854">
        <ele>47.8</ele>
        <time>2024-07-03T13:09:26Z</time>
      </trkpt>
      <trkpt lat="49.12565" lon="-0.30863">
        <ele>47.4</ele>
        <time>2024-07-03T13:09:27Z</time>
      </trkpt>
      <trkpt lat="49.12568" lon="-0.30872">
        <ele>47.4</ele>
        <time>2024-07-03T13:09:28Z</time>
      </trkpt>
      <trkpt lat="49.12572" lon="-0.3088">
        <ele>47.2</ele>
        <time>2024-07-03T13:09:29Z</time>
      </trkpt>
      <trkpt lat="49.12576" lon="-0.30889">
        <ele>47</ele>
        <time>2024-07-03T13:09:30Z</time>
      </trkpt>
      <trkpt lat="49.1258" lon="-0.30896">
        <ele>47</ele>
        <time>2024-07-03T13:09:31Z</time>
      </trkpt>
      <trkpt lat="49.12584" lon="-0.30902">
        <ele>47</ele>
        <time>2024-07-03T13:09:32Z</time>
      </trkpt>
      <trkpt lat="49.12587" lon="-0.30906">
        <ele>47</ele>
        <time>2024-07-03T13:09:33Z</time>
      </trkpt>
      <trkpt lat="49.1259" lon="-0.30907">
        <ele>47.2</ele>
        <time>2024-07-03T13:09:34Z</time>
      </trkpt>
      <trkpt lat="49.12592" lon="-0.30908">
        <ele>47.6</ele>
        <time>2024-07-03T13:09:35Z</time>
      </trkpt>
      <trkpt lat="49.12594" lon="-0.30908">
        <ele>48</ele>
        <time>2024-07-03T13:09:36Z</time>
      </trkpt>
      <trkpt lat="49.12597" lon="-0.30908">
        <ele>48.4</ele>
        <time>2024-07-03T13:09:37Z</time>
      </trkpt>
      <trkpt lat="49.12599" lon="-0.30909">
        <ele>48.8</ele>
        <time>2024-07-03T13:09:38Z</time>
      </trkpt>
      <trkpt lat="49.12602" lon="-0.30911">
        <ele>49</ele>
        <time>2024-07-03T13:09:39Z</time>
      </trkpt>
      <trkpt lat="49.12605" lon="-0.30914">
        <ele>49</ele>
        <time>2024-07-03T13:09:40Z</time>
      </trkpt>
      <trkpt lat="49.12608" lon="-0.30918">
        <ele>49</ele>
        <time>2024-07-03T13:09:41Z</time>
      </trkpt>
      <trkpt lat="49.1261" lon="-0.30924">
        <ele>48.8</ele>
        <time>2024-07-03T13:09:42Z</time>
      </trkpt>
      <trkpt lat="49.12613" lon="-0.30929">
        <ele>48.6</ele>
        <time>2024-07-03T13:09:43Z</time>
      </trkpt>
      <trkpt lat="49.12615" lon="-0.30936">
        <ele>48.4</ele>
        <time>2024-07-03T13:09:44Z</time>
      </trkpt>
      <trkpt lat="49.12617" lon="-0.30944">
        <ele>48</ele>
        <time>2024-07-03T13:09:45Z</time>
      </trkpt>
      <trkpt lat="49.12618" lon="-0.30953">
        <ele>47.6</ele>
        <time>2024-07-03T13:09:46Z</time>
      </trkpt>
      <trkpt lat="49.12618" lon="-0.30962">
        <ele>47.4</ele>
        <time>2024-07-03T13:09:47Z</time>
      </trkpt>
      <trkpt lat="49.12616" lon="-0.3097">
        <ele>47.2</ele>
        <time>2024-07-03T13:09:48Z</time>
      </trkpt>
      <trkpt lat="49.12614" lon="-0.30979">
        <ele>47</ele>
        <time>2024-07-03T13:09:49Z</time>
      </trkpt>
      <trkpt lat="49.12613" lon="-0.30988">
        <ele>46.8</ele>
        <time>2024-07-03T13:09:50Z</time>
      </trkpt>
      <trkpt lat="49.12613" lon="-0.30998">
        <ele>46.6</ele>
        <time>2024-07-03T13:09:51Z</time>
      </trkpt>
      <trkpt lat="49.12614" lon="-0.31008">
        <ele>46.2</ele>
        <time>2024-07-03T13:09:52Z</time>
      </trkpt>
      <trkpt lat="49.12615" lon="-0.31018">
        <ele>46</ele>
        <time>2024-07-03T13:09:53Z</time>
      </trkpt>
      <trkpt lat="49.12617" lon="-0.31028">
        <ele>45.8</ele>
        <time>2024-07-03T13:09:54Z</time>
      </trkpt>
      <trkpt lat="49.12619" lon="-0.31038">
        <ele>45.4</ele>
        <time>2024-07-03T13:09:55Z</time>
      </trkpt>
      <trkpt lat="49.12621" lon="-0.31048">
        <ele>45</ele>
        <time>2024-07-03T13:09:56Z</time>
      </trkpt>
      <trkpt lat="49.12623" lon="-0.31057">
        <ele>44.6</ele>
        <time>2024-07-03T13:09:57Z</time>
      </trkpt>
      <trkpt lat="49.12626" lon="-0.31067">
        <ele>44.4</ele>
        <time>2024-07-03T13:09:58Z</time>
      </trkpt>
      <trkpt lat="49.12628" lon="-0.31076">
        <ele>44.2</ele>
        <time>2024-07-03T13:09:59Z</time>
      </trkpt>
      <trkpt lat="49.1263" lon="-0.31086">
        <ele>44.2</ele>
        <time>2024-07-03T13:10:00Z</time>
      </trkpt>
      <trkpt lat="49.12632" lon="-0.31095">
        <ele>44.2</ele>
        <time>2024-07-03T13:10:01Z</time>
      </trkpt>
      <trkpt lat="49.12634" lon="-0.31104">
        <ele>44.2</ele>
        <time>2024-07-03T13:10:02Z</time>
      </trkpt>
      <trkpt lat="49.12637" lon="-0.31113">
        <ele>44.2</ele>
        <time>2024-07-03T13:10:03Z</time>
      </trkpt>
      <trkpt lat="49.12639" lon="-0.31122">
        <ele>44.4</ele>
        <time>2024-07-03T13:10:04Z</time>
      </trkpt>
      <trkpt lat="49.12641" lon="-0.31131">
        <ele>44.6</ele>
        <time>2024-07-03T13:10:05Z</time>
      </trkpt>
      <trkpt lat="49.12643" lon="-0.3114">
        <ele>44.8</ele>
        <time>2024-07-03T13:10:06Z</time>
      </trkpt>
      <trkpt lat="49.12645" lon="-0.31149">
        <ele>45</ele>
        <time>2024-07-03T13:10:07Z</time>
      </trkpt>
      <trkpt lat="49.12647" lon="-0.31158">
        <ele>45.2</ele>
        <time>2024-07-03T13:10:08Z</time>
      </trkpt>
      <trkpt lat="49.12649" lon="-0.31166">
        <ele>45.4</ele>
        <time>2024-07-03T13:10:09Z</time>
      </trkpt>
      <trkpt lat="49.12652" lon="-0.31175">
        <ele>45.6</ele>
        <time>2024-07-03T13:10:10Z</time>
      </trkpt>
      <trkpt lat="49.12654" lon="-0.31184">
        <ele>45.6</ele>
        <time>2024-07-03T13:10:11Z</time>
      </trkpt>
      <trkpt lat="49.12656" lon="-0.31194">
        <ele>45.8</ele>
        <time>2024-07-03T13:10:12Z</time>
      </trkpt>
      <trkpt lat="49.12658" lon="-0.31203">
        <ele>46.2</ele>
        <time>2024-07-03T13:10:13Z</time>
      </trkpt>
      <trkpt lat="49.1266" lon="-0.31212">
        <ele>47</ele>
        <time>2024-07-03T13:10:14Z</time>
      </trkpt>
      <trkpt lat="49.12661" lon="-0.31222">
        <ele>47.8</ele>
        <time>2024-07-03T13:10:15Z</time>
      </trkpt>
      <trkpt lat="49.12663" lon="-0.31232">
        <ele>48.4</ele>
        <time>2024-07-03T13:10:16Z</time>
      </trkpt>
      <trkpt lat="49.12664" lon="-0.31241">
        <ele>48.6</ele>
        <time>2024-07-03T13:10:17Z</time>
      </trkpt>
      <trkpt lat="49.12666" lon="-0.31251">
        <ele>48.8</ele>
        <time>2024-07-03T13:10:18Z</time>
      </trkpt>
      <trkpt lat="49.12667" lon="-0.31261">
        <ele>49</ele>
        <time>2024-07-03T13:10:19Z</time>
      </trkpt>
      <trkpt lat="49.12668" lon="-0.3127">
        <ele>49</ele>
        <time>2024-07-03T13:10:20Z</time>
      </trkpt>
      <trkpt lat="49.12669" lon="-0.3128">
        <ele>49</ele>
        <time>2024-07-03T13:10:21Z</time>
      </trkpt>
      <trkpt lat="49.1267" lon="-0.3129">
        <ele>49.2</ele>
        <time>2024-07-03T13:10:22Z</time>
      </trkpt>
      <trkpt lat="49.12671" lon="-0.313">
        <ele>49.2</ele>
        <time>2024-07-03T13:10:23Z</time>
      </trkpt>
      <trkpt lat="49.12671" lon="-0.3131">
        <ele>49.2</ele>
        <time>2024-07-03T13:10:24Z</time>
      </trkpt>
      <trkpt lat="49.12672" lon="-0.3132">
        <ele>49.2</ele>
        <time>2024-07-03T13:10:25Z</time>
      </trkpt>
      <trkpt lat="49.12672" lon="-0.3133">
        <ele>49.2</ele>
        <time>2024-07-03T13:10:26Z</time>
      </trkpt>
      <trkpt lat="49.12673" lon="-0.3134">
        <ele>49.2</ele>
        <time>2024-07-03T13:10:27Z</time>
      </trkpt>
      <trkpt lat="49.12673" lon="-0.3135">
        <ele>49.4</ele>
        <time>2024-07-03T13:10:28Z</time>
      </trkpt>
      <trkpt lat="49.12673" lon="-0.3136">
        <ele>49.4</ele>
        <time>2024-07-03T13:10:29Z</time>
      </trkpt>
      <trkpt lat="49.12673" lon="-0.31371">
        <ele>49.8</ele>
        <time>2024-07-03T13:10:30Z</time>
      </trkpt>
      <trkpt lat="49.12673" lon="-0.31381">
        <ele>50</ele>
        <time>2024-07-03T13:10:31Z</time>
      </trkpt>
      <trkpt lat="49.12673" lon="-0.31391">
        <ele>50.2</ele>
        <time>2024-07-03T13:10:32Z</time>
      </trkpt>
      <trkpt lat="49.12673" lon="-0.31401">
        <ele>50.2</ele>
        <time>2024-07-03T13:10:33Z</time>
      </trkpt>
      <trkpt lat="49.12673" lon="-0.3141">
        <ele>50.4</ele>
        <time>2024-07-03T13:10:34Z</time>
      </trkpt>
      <trkpt lat="49.12673" lon="-0.3142">
        <ele>50.6</ele>
        <time>2024-07-03T13:10:35Z</time>
      </trkpt>
      <trkpt lat="49.12672" lon="-0.31429">
        <ele>50.8</ele>
        <time>2024-07-03T13:10:36Z</time>
      </trkpt>
      <trkpt lat="49.12672" lon="-0.31439">
        <ele>51</ele>
        <time>2024-07-03T13:10:37Z</time>
      </trkpt>
      <trkpt lat="49.12672" lon="-0.31448">
        <ele>51.2</ele>
        <time>2024-07-03T13:10:38Z</time>
      </trkpt>
      <trkpt lat="49.12672" lon="-0.31458">
        <ele>51.2</ele>
        <time>2024-07-03T13:10:39Z</time>
      </trkpt>
      <trkpt lat="49.12671" lon="-0.31468">
        <ele>51.4</ele>
        <time>2024-07-03T13:10:40Z</time>
      </trkpt>
      <trkpt lat="49.12671" lon="-0.31477">
        <ele>51.4</ele>
        <time>2024-07-03T13:10:41Z</time>
      </trkpt>
      <trkpt lat="49.12671" lon="-0.31486">
        <ele>51.6</ele>
        <time>2024-07-03T13:10:42Z</time>
      </trkpt>
      <trkpt lat="49.1267" lon="-0.31496">
        <ele>51.6</ele>
        <time>2024-07-03T13:10:43Z</time>
      </trkpt>
      <trkpt lat="49.12669" lon="-0.31506">
        <ele>51.8</ele>
        <time>2024-07-03T13:10:44Z</time>
      </trkpt>
      <trkpt lat="49.12669" lon="-0.31515">
        <ele>51.8</ele>
        <time>2024-07-03T13:10:45Z</time>
      </trkpt>
      <trkpt lat="49.12669" lon="-0.31524">
        <ele>52</ele>
        <time>2024-07-03T13:10:46Z</time>
      </trkpt>
      <trkpt lat="49.12669" lon="-0.31534">
        <ele>52.2</ele>
        <time>2024-07-03T13:10:47Z</time>
      </trkpt>
      <trkpt lat="49.12669" lon="-0.31544">
        <ele>52.4</ele>
        <time>2024-07-03T13:10:48Z</time>
      </trkpt>
      <trkpt lat="49.12668" lon="-0.31554">
        <ele>52.6</ele>
        <time>2024-07-03T13:10:49Z</time>
      </trkpt>
      <trkpt lat="49.12668" lon="-0.31564">
        <ele>52.6</ele>
        <time>2024-07-03T13:10:50Z</time>
      </trkpt>
      <trkpt lat="49.12668" lon="-0.31574">
        <ele>52.8</ele>
        <time>2024-07-03T13:10:51Z</time>
      </trkpt>
      <trkpt lat="49.12668" lon="-0.31584">
        <ele>53</ele>
        <time>2024-07-03T13:10:52Z</time>
      </trkpt>
      <trkpt lat="49.12667" lon="-0.31594">
        <ele>53.2</ele>
        <time>2024-07-03T13:10:53Z</time>
      </trkpt>
      <trkpt lat="49.12667" lon="-0.31604">
        <ele>53.4</ele>
        <time>2024-07-03T13:10:54Z</time>
      </trkpt>
      <trkpt lat="49.12667" lon="-0.31614">
        <ele>53.4</ele>
        <time>2024-07-03T13:10:55Z</time>
      </trkpt>
      <trkpt lat="49.12667" lon="-0.31624">
        <ele>53.6</ele>
        <time>2024-07-03T13:10:56Z</time>
      </trkpt>
      <trkpt lat="49.12667" lon="-0.31634">
        <ele>53.6</ele>
        <time>2024-07-03T13:10:57Z</time>
      </trkpt>
      <trkpt lat="49.12666" lon="-0.31645">
        <ele>53.8</ele>
        <time>2024-07-03T13:10:58Z</time>
      </trkpt>
      <trkpt lat="49.12665" lon="-0.31655">
        <ele>53.8</ele>
        <time>2024-07-03T13:10:59Z</time>
      </trkpt>
      <trkpt lat="49.12665" lon="-0.31666">
        <ele>54</ele>
        <time>2024-07-03T13:11:00Z</time>
      </trkpt>
      <trkpt lat="49.12664" lon="-0.31677">
        <ele>54.2</ele>
        <time>2024-07-03T13:11:01Z</time>
      </trkpt>
      <trkpt lat="49.12664" lon="-0.31687">
        <ele>54.4</ele>
        <time>2024-07-03T13:11:02Z</time>
      </trkpt>
      <trkpt lat="49.12664" lon="-0.31697">
        <ele>54.6</ele>
        <time>2024-07-03T13:11:03Z</time>
      </trkpt>
      <trkpt lat="49.12664" lon="-0.31707">
        <ele>54.6</ele>
        <time>2024-07-03T13:11:04Z</time>
      </trkpt>
      <trkpt lat="49.12663" lon="-0.31717">
        <ele>54.6</ele>
        <time>2024-07-03T13:11:05Z</time>
      </trkpt>
      <trkpt lat="49.12662" lon="-0.31727">
        <ele>54.8</ele>
        <time>2024-07-03T13:11:06Z</time>
      </trkpt>
      <trkpt lat="49.12661" lon="-0.31738">
        <ele>55</ele>
        <time>2024-07-03T13:11:07Z</time>
      </trkpt>
      <trkpt lat="49.1266" lon="-0.31749">
        <ele>55.4</ele>
        <time>2024-07-03T13:11:08Z</time>
      </trkpt>
      <trkpt lat="49.12659" lon="-0.3176">
        <ele>55.4</ele>
        <time>2024-07-03T13:11:09Z</time>
      </trkpt>
      <trkpt lat="49.12657" lon="-0.31772">
        <ele>55.6</ele>
        <time>2024-07-03T13:11:10Z</time>
      </trkpt>
      <trkpt lat="49.12655" lon="-0.31783">
        <ele>55.6</ele>
        <time>2024-07-03T13:11:11Z</time>
      </trkpt>
      <trkpt lat="49.12652" lon="-0.31795">
        <ele>55.6</ele>
        <time>2024-07-03T13:11:12Z</time>
      </trkpt>
      <trkpt lat="49.1265" lon="-0.31806">
        <ele>55.4</ele>
        <time>2024-07-03T13:11:13Z</time>
      </trkpt>
      <trkpt lat="49.12647" lon="-0.31817">
        <ele>55.4</ele>
        <time>2024-07-03T13:11:14Z</time>
      </trkpt>
      <trkpt lat="49.12645" lon="-0.31827">
        <ele>55.4</ele>
        <time>2024-07-03T13:11:15Z</time>
      </trkpt>
      <trkpt lat="49.12642" lon="-0.31837">
        <ele>55.6</ele>
        <time>2024-07-03T13:11:16Z</time>
      </trkpt>
      <trkpt lat="49.1264" lon="-0.31847">
        <ele>55.8</ele>
        <time>2024-07-03T13:11:17Z</time>
      </trkpt>
      <trkpt lat="49.12637" lon="-0.31857">
        <ele>56</ele>
        <time>2024-07-03T13:11:18Z</time>
      </trkpt>
      <trkpt lat="49.12635" lon="-0.31867">
        <ele>56</ele>
        <time>2024-07-03T13:11:19Z</time>
      </trkpt>
      <trkpt lat="49.12633" lon="-0.31877">
        <ele>56.2</ele>
        <time>2024-07-03T13:11:20Z</time>
      </trkpt>
      <trkpt lat="49.1263" lon="-0.31887">
        <ele>56.2</ele>
        <time>2024-07-03T13:11:21Z</time>
      </trkpt>
      <trkpt lat="49.12628" lon="-0.31897">
        <ele>56.2</ele>
        <time>2024-07-03T13:11:22Z</time>
      </trkpt>
      <trkpt lat="49.12625" lon="-0.31908">
        <ele>56.2</ele>
        <time>2024-07-03T13:11:23Z</time>
      </trkpt>
      <trkpt lat="49.12623" lon="-0.31918">
        <ele>56.2</ele>
        <time>2024-07-03T13:11:24Z</time>
      </trkpt>
      <trkpt lat="49.12621" lon="-0.31928">
        <ele>56.2</ele>
        <time>2024-07-03T13:11:25Z</time>
      </trkpt>
      <trkpt lat="49.12618" lon="-0.31938">
        <ele>56.2</ele>
        <time>2024-07-03T13:11:26Z</time>
      </trkpt>
      <trkpt lat="49.12616" lon="-0.31948">
        <ele>56.4</ele>
        <time>2024-07-03T13:11:27Z</time>
      </trkpt>
      <trkpt lat="49.12614" lon="-0.31958">
        <ele>56.4</ele>
        <time>2024-07-03T13:11:28Z</time>
      </trkpt>
      <trkpt lat="49.12611" lon="-0.31969">
        <ele>56.6</ele>
        <time>2024-07-03T13:11:29Z</time>
      </trkpt>
      <trkpt lat="49.12609" lon="-0.31979">
        <ele>56.6</ele>
        <time>2024-07-03T13:11:30Z</time>
      </trkpt>
      <trkpt lat="49.12606" lon="-0.31989">
        <ele>56.6</ele>
        <time>2024-07-03T13:11:31Z</time>
      </trkpt>
      <trkpt lat="49.12604" lon="-0.31999">
        <ele>56.6</ele>
        <time>2024-07-03T13:11:32Z</time>
      </trkpt>
      <trkpt lat="49.12601" lon="-0.32009">
        <ele>56.6</ele>
        <time>2024-07-03T13:11:33Z</time>
      </trkpt>
      <trkpt lat="49.12599" lon="-0.32019">
        <ele>56.6</ele>
        <time>2024-07-03T13:11:34Z</time>
      </trkpt>
      <trkpt lat="49.12596" lon="-0.32029">
        <ele>56.8</ele>
        <time>2024-07-03T13:11:35Z</time>
      </trkpt>
      <trkpt lat="49.12593" lon="-0.32039">
        <ele>56.8</ele>
        <time>2024-07-03T13:11:36Z</time>
      </trkpt>
      <trkpt lat="49.1259" lon="-0.32049">
        <ele>56.8</ele>
        <time>2024-07-03T13:11:37Z</time>
      </trkpt>
      <trkpt lat="49.12587" lon="-0.32059">
        <ele>57</ele>
        <time>2024-07-03T13:11:38Z</time>
      </trkpt>
      <trkpt lat="49.12583" lon="-0.32069">
        <ele>57.2</ele>
        <time>2024-07-03T13:11:39Z</time>
      </trkpt>
      <trkpt lat="49.1258" lon="-0.32078">
        <ele>57.2</ele>
        <time>2024-07-03T13:11:40Z</time>
      </trkpt>
      <trkpt lat="49.12576" lon="-0.32088">
        <ele>57.4</ele>
        <time>2024-07-03T13:11:41Z</time>
      </trkpt>
      <trkpt lat="49.12572" lon="-0.32098">
        <ele>57.6</ele>
        <time>2024-07-03T13:11:42Z</time>
      </trkpt>
      <trkpt lat="49.12568" lon="-0.32107">
        <ele>57.6</ele>
        <time>2024-07-03T13:11:43Z</time>
      </trkpt>
      <trkpt lat="49.12564" lon="-0.32117">
        <ele>57.6</ele>
        <time>2024-07-03T13:11:44Z</time>
      </trkpt>
      <trkpt lat="49.1256" lon="-0.32126">
        <ele>57.8</ele>
        <time>2024-07-03T13:11:45Z</time>
      </trkpt>
      <trkpt lat="49.12556" lon="-0.32135">
        <ele>57.8</ele>
        <time>2024-07-03T13:11:46Z</time>
      </trkpt>
      <trkpt lat="49.12552" lon="-0.32145">
        <ele>57.8</ele>
        <time>2024-07-03T13:11:47Z</time>
      </trkpt>
      <trkpt lat="49.12548" lon="-0.32154">
        <ele>57.8</ele>
        <time>2024-07-03T13:11:48Z</time>
      </trkpt>
      <trkpt lat="49.12545" lon="-0.32164">
        <ele>57.8</ele>
        <time>2024-07-03T13:11:49Z</time>
      </trkpt>
      <trkpt lat="49.12541" lon="-0.32173">
        <ele>57.8</ele>
        <time>2024-07-03T13:11:50Z</time>
      </trkpt>
      <trkpt lat="49.12536" lon="-0.32183">
        <ele>57.8</ele>
        <time>2024-07-03T13:11:51Z</time>
      </trkpt>
      <trkpt lat="49.12532" lon="-0.32192">
        <ele>57.8</ele>
        <time>2024-07-03T13:11:52Z</time>
      </trkpt>
      <trkpt lat="49.12528" lon="-0.32201">
        <ele>57.8</ele>
        <time>2024-07-03T13:11:53Z</time>
      </trkpt>
      <trkpt lat="49.12524" lon="-0.32211">
        <ele>57.8</ele>
        <time>2024-07-03T13:11:54Z</time>
      </trkpt>
      <trkpt lat="49.1252" lon="-0.3222">
        <ele>57.8</ele>
        <time>2024-07-03T13:11:55Z</time>
      </trkpt>
      <trkpt lat="49.12515" lon="-0.3223">
        <ele>57.8</ele>
        <time>2024-07-03T13:11:56Z</time>
      </trkpt>
      <trkpt lat="49.12511" lon="-0.32239">
        <ele>57.8</ele>
        <time>2024-07-03T13:11:57Z</time>
      </trkpt>
      <trkpt lat="49.12507" lon="-0.32249">
        <ele>57.6</ele>
        <time>2024-07-03T13:11:58Z</time>
      </trkpt>
      <trkpt lat="49.12503" lon="-0.32258">
        <ele>57.2</ele>
        <time>2024-07-03T13:11:59Z</time>
      </trkpt>
      <trkpt lat="49.12499" lon="-0.32268">
        <ele>57.2</ele>
        <time>2024-07-03T13:12:00Z</time>
      </trkpt>
      <trkpt lat="49.12495" lon="-0.32277">
        <ele>57.2</ele>
        <time>2024-07-03T13:12:01Z</time>
      </trkpt>
      <trkpt lat="49.12491" lon="-0.32287">
        <ele>57.2</ele>
        <time>2024-07-03T13:12:02Z</time>
      </trkpt>
      <trkpt lat="49.12487" lon="-0.32296">
        <ele>57.2</ele>
        <time>2024-07-03T13:12:03Z</time>
      </trkpt>
      <trkpt lat="49.12483" lon="-0.32305">
        <ele>57.4</ele>
        <time>2024-07-03T13:12:04Z</time>
      </trkpt>
      <trkpt lat="49.12479" lon="-0.32315">
        <ele>57.6</ele>
        <time>2024-07-03T13:12:05Z</time>
      </trkpt>
      <trkpt lat="49.12475" lon="-0.32325">
        <ele>57.6</ele>
        <time>2024-07-03T13:12:06Z</time>
      </trkpt>
      <trkpt lat="49.1247" lon="-0.32334">
        <ele>57.6</ele>
        <time>2024-07-03T13:12:07Z</time>
      </trkpt>
      <trkpt lat="49.12466" lon="-0.32344">
        <ele>57.4</ele>
        <time>2024-07-03T13:12:08Z</time>
      </trkpt>
      <trkpt lat="49.12461" lon="-0.32353">
        <ele>57.2</ele>
        <time>2024-07-03T13:12:09Z</time>
      </trkpt>
      <trkpt lat="49.12457" lon="-0.32362">
        <ele>57.2</ele>
        <time>2024-07-03T13:12:10Z</time>
      </trkpt>
      <trkpt lat="49.12451" lon="-0.3237">
        <ele>57</ele>
        <time>2024-07-03T13:12:11Z</time>
      </trkpt>
      <trkpt lat="49.12445" lon="-0.32377">
        <ele>56.8</ele>
        <time>2024-07-03T13:12:12Z</time>
      </trkpt>
      <trkpt lat="49.12439" lon="-0.32384">
        <ele>56.8</ele>
        <time>2024-07-03T13:12:13Z</time>
      </trkpt>
      <trkpt lat="49.12432" lon="-0.3239">
        <ele>56.6</ele>
        <time>2024-07-03T13:12:14Z</time>
      </trkpt>
      <trkpt lat="49.12425" lon="-0.32395">
        <ele>56.6</ele>
        <time>2024-07-03T13:12:15Z</time>
      </trkpt>
      <trkpt lat="49.12418" lon="-0.32399">
        <ele>56.6</ele>
        <time>2024-07-03T13:12:16Z</time>
      </trkpt>
      <trkpt lat="49.12411" lon="-0.32403">
        <ele>56.6</ele>
        <time>2024-07-03T13:12:17Z</time>
      </trkpt>
      <trkpt lat="49.12404" lon="-0.32406">
        <ele>56.6</ele>
        <time>2024-07-03T13:12:18Z</time>
      </trkpt>
      <trkpt lat="49.12397" lon="-0.32408">
        <ele>56.6</ele>
        <time>2024-07-03T13:12:19Z</time>
      </trkpt>
      <trkpt lat="49.1239" lon="-0.3241">
        <ele>56.6</ele>
        <time>2024-07-03T13:12:20Z</time>
      </trkpt>
      <trkpt lat="49.12382" lon="-0.32412">
        <ele>56.4</ele>
        <time>2024-07-03T13:12:21Z</time>
      </trkpt>
      <trkpt lat="49.12375" lon="-0.32414">
        <ele>56.2</ele>
        <time>2024-07-03T13:12:22Z</time>
      </trkpt>
      <trkpt lat="49.12367" lon="-0.32416">
        <ele>56.2</ele>
        <time>2024-07-03T13:12:23Z</time>
      </trkpt>
      <trkpt lat="49.1236" lon="-0.32418">
        <ele>56</ele>
        <time>2024-07-03T13:12:24Z</time>
      </trkpt>
      <trkpt lat="49.12353" lon="-0.3242">
        <ele>56</ele>
        <time>2024-07-03T13:12:25Z</time>
      </trkpt>
      <trkpt lat="49.12345" lon="-0.32422">
        <ele>56</ele>
        <time>2024-07-03T13:12:26Z</time>
      </trkpt>
      <trkpt lat="49.12338" lon="-0.32424">
        <ele>56.2</ele>
        <time>2024-07-03T13:12:27Z</time>
      </trkpt>
      <trkpt lat="49.1233" lon="-0.32426">
        <ele>56.4</ele>
        <time>2024-07-03T13:12:28Z</time>
      </trkpt>
      <trkpt lat="49.12323" lon="-0.32428">
        <ele>56.6</ele>
        <time>2024-07-03T13:12:29Z</time>
      </trkpt>
      <trkpt lat="49.12316" lon="-0.3243">
        <ele>56.6</ele>
        <time>2024-07-03T13:12:30Z</time>
      </trkpt>
      <trkpt lat="49.12308" lon="-0.32432">
        <ele>56.6</ele>
        <time>2024-07-03T13:12:31Z</time>
      </trkpt>
      <trkpt lat="49.12302" lon="-0.32436">
        <ele>56.8</ele>
        <time>2024-07-03T13:12:32Z</time>
      </trkpt>
      <trkpt lat="49.12295" lon="-0.3244">
        <ele>56.8</ele>
        <time>2024-07-03T13:12:33Z</time>
      </trkpt>
      <trkpt lat="49.12289" lon="-0.32444">
        <ele>56.8</ele>
        <time>2024-07-03T13:12:34Z</time>
      </trkpt>
      <trkpt lat="49.12282" lon="-0.3245">
        <ele>56.8</ele>
        <time>2024-07-03T13:12:35Z</time>
      </trkpt>
      <trkpt lat="49.12276" lon="-0.32456">
        <ele>56.8</ele>
        <time>2024-07-03T13:12:36Z</time>
      </trkpt>
      <trkpt lat="49.12271" lon="-0.32462">
        <ele>56.8</ele>
        <time>2024-07-03T13:12:37Z</time>
      </trkpt>
      <trkpt lat="49.12266" lon="-0.32469">
        <ele>57</ele>
        <time>2024-07-03T13:12:38Z</time>
      </trkpt>
      <trkpt lat="49.12261" lon="-0.32477">
        <ele>57</ele>
        <time>2024-07-03T13:12:39Z</time>
      </trkpt>
      <trkpt lat="49.12256" lon="-0.32484">
        <ele>57.2</ele>
        <time>2024-07-03T13:12:40Z</time>
      </trkpt>
      <trkpt lat="49.12252" lon="-0.32493">
        <ele>57.4</ele>
        <time>2024-07-03T13:12:41Z</time>
      </trkpt>
      <trkpt lat="49.12248" lon="-0.32501">
        <ele>57.6</ele>
        <time>2024-07-03T13:12:42Z</time>
      </trkpt>
      <trkpt lat="49.12244" lon="-0.3251">
        <ele>58</ele>
        <time>2024-07-03T13:12:43Z</time>
      </trkpt>
      <trkpt lat="49.12241" lon="-0.3252">
        <ele>58.2</ele>
        <time>2024-07-03T13:12:44Z</time>
      </trkpt>
      <trkpt lat="49.12239" lon="-0.32529">
        <ele>58.4</ele>
        <time>2024-07-03T13:12:45Z</time>
      </trkpt>
      <trkpt lat="49.12236" lon="-0.32539">
        <ele>58.6</ele>
        <time>2024-07-03T13:12:46Z</time>
      </trkpt>
      <trkpt lat="49.12233" lon="-0.32549">
        <ele>58.8</ele>
        <time>2024-07-03T13:12:47Z</time>
      </trkpt>
      <trkpt lat="49.12231" lon="-0.3256">
        <ele>59.2</ele>
        <time>2024-07-03T13:12:48Z</time>
      </trkpt>
      <trkpt lat="49.12228" lon="-0.3257">
        <ele>59.4</ele>
        <time>2024-07-03T13:12:49Z</time>
      </trkpt>
      <trkpt lat="49.12226" lon="-0.32581">
        <ele>59.6</ele>
        <time>2024-07-03T13:12:50Z</time>
      </trkpt>
      <trkpt lat="49.12223" lon="-0.32593">
        <ele>59.6</ele>
        <time>2024-07-03T13:12:51Z</time>
      </trkpt>
      <trkpt lat="49.12221" lon="-0.32604">
        <ele>59.8</ele>
        <time>2024-07-03T13:12:52Z</time>
      </trkpt>
      <trkpt lat="49.12219" lon="-0.32616">
        <ele>59.6</ele>
        <time>2024-07-03T13:12:53Z</time>
      </trkpt>
      <trkpt lat="49.12217" lon="-0.32628">
        <ele>59.4</ele>
        <time>2024-07-03T13:12:54Z</time>
      </trkpt>
      <trkpt lat="49.12217" lon="-0.32641">
        <ele>59</ele>
        <time>2024-07-03T13:12:55Z</time>
      </trkpt>
      <trkpt lat="49.12217" lon="-0.32653">
        <ele>58.6</ele>
        <time>2024-07-03T13:12:56Z</time>
      </trkpt>
      <trkpt lat="49.12217" lon="-0.32666">
        <ele>58.6</ele>
        <time>2024-07-03T13:12:57Z</time>
      </trkpt>
      <trkpt lat="49.12218" lon="-0.32679">
        <ele>58.4</ele>
        <time>2024-07-03T13:12:58Z</time>
      </trkpt>
      <trkpt lat="49.1222" lon="-0.32693">
        <ele>58.2</ele>
        <time>2024-07-03T13:12:59Z</time>
      </trkpt>
      <trkpt lat="49.12221" lon="-0.32706">
        <ele>57.8</ele>
        <time>2024-07-03T13:13:00Z</time>
      </trkpt>
      <trkpt lat="49.12222" lon="-0.3272">
        <ele>57.4</ele>
        <time>2024-07-03T13:13:01Z</time>
      </trkpt>
      <trkpt lat="49.12223" lon="-0.32734">
        <ele>56.6</ele>
        <time>2024-07-03T13:13:02Z</time>
      </trkpt>
      <trkpt lat="49.12225" lon="-0.32748">
        <ele>55.8</ele>
        <time>2024-07-03T13:13:03Z</time>
      </trkpt>
      <trkpt lat="49.12226" lon="-0.32762">
        <ele>55.2</ele>
        <time>2024-07-03T13:13:04Z</time>
      </trkpt>
      <trkpt lat="49.12227" lon="-0.32775">
        <ele>54.8</ele>
        <time>2024-07-03T13:13:05Z</time>
      </trkpt>
      <trkpt lat="49.12227" lon="-0.32789">
        <ele>54.4</ele>
        <time>2024-07-03T13:13:06Z</time>
      </trkpt>
      <trkpt lat="49.12227" lon="-0.32803">
        <ele>54</ele>
        <time>2024-07-03T13:13:07Z</time>
      </trkpt>
      <trkpt lat="49.12227" lon="-0.32816">
        <ele>53.6</ele>
        <time>2024-07-03T13:13:08Z</time>
      </trkpt>
      <trkpt lat="49.12225" lon="-0.32829">
        <ele>53.2</ele>
        <time>2024-07-03T13:13:09Z</time>
      </trkpt>
      <trkpt lat="49.12223" lon="-0.32842">
        <ele>52.8</ele>
        <time>2024-07-03T13:13:10Z</time>
      </trkpt>
      <trkpt lat="49.1222" lon="-0.32855">
        <ele>52.6</ele>
        <time>2024-07-03T13:13:11Z</time>
      </trkpt>
      <trkpt lat="49.12217" lon="-0.32867">
        <ele>52.6</ele>
        <time>2024-07-03T13:13:12Z</time>
      </trkpt>
      <trkpt lat="49.12214" lon="-0.32879">
        <ele>52.6</ele>
        <time>2024-07-03T13:13:13Z</time>
      </trkpt>
      <trkpt lat="49.1221" lon="-0.3289">
        <ele>52.6</ele>
        <time>2024-07-03T13:13:14Z</time>
      </trkpt>
      <trkpt lat="49.12205" lon="-0.329">
        <ele>52.8</ele>
        <time>2024-07-03T13:13:15Z</time>
      </trkpt>
      <trkpt lat="49.12201" lon="-0.32909">
        <ele>52.8</ele>
        <time>2024-07-03T13:13:16Z</time>
      </trkpt>
      <trkpt lat="49.12196" lon="-0.32919">
        <ele>53</ele>
        <time>2024-07-03T13:13:17Z</time>
      </trkpt>
      <trkpt lat="49.12192" lon="-0.3293">
        <ele>53</ele>
        <time>2024-07-03T13:13:18Z</time>
      </trkpt>
      <trkpt lat="49.12188" lon="-0.3294">
        <ele>53</ele>
        <time>2024-07-03T13:13:19Z</time>
      </trkpt>
      <trkpt lat="49.12184" lon="-0.32951">
        <ele>52.8</ele>
        <time>2024-07-03T13:13:20Z</time>
      </trkpt>
      <trkpt lat="49.1218" lon="-0.32962">
        <ele>52.6</ele>
        <time>2024-07-03T13:13:21Z</time>
      </trkpt>
      <trkpt lat="49.12177" lon="-0.32972">
        <ele>52.6</ele>
        <time>2024-07-03T13:13:22Z</time>
      </trkpt>
      <trkpt lat="49.12173" lon="-0.32984">
        <ele>52.8</ele>
        <time>2024-07-03T13:13:23Z</time>
      </trkpt>
      <trkpt lat="49.1217" lon="-0.32995">
        <ele>52.8</ele>
        <time>2024-07-03T13:13:24Z</time>
      </trkpt>
      <trkpt lat="49.12166" lon="-0.33006">
        <ele>53</ele>
        <time>2024-07-03T13:13:25Z</time>
      </trkpt>
      <trkpt lat="49.12163" lon="-0.33017">
        <ele>53.2</ele>
        <time>2024-07-03T13:13:26Z</time>
      </trkpt>
      <trkpt lat="49.12159" lon="-0.33029">
        <ele>53.4</ele>
        <time>2024-07-03T13:13:27Z</time>
      </trkpt>
      <trkpt lat="49.12156" lon="-0.3304">
        <ele>53.6</ele>
        <time>2024-07-03T13:13:28Z</time>
      </trkpt>
      <trkpt lat="49.12153" lon="-0.33051">
        <ele>53.8</ele>
        <time>2024-07-03T13:13:29Z</time>
      </trkpt>
      <trkpt lat="49.12149" lon="-0.33062">
        <ele>54</ele>
        <time>2024-07-03T13:13:30Z</time>
      </trkpt>
      <trkpt lat="49.12146" lon="-0.33072">
        <ele>54.2</ele>
        <time>2024-07-03T13:13:31Z</time>
      </trkpt>
      <trkpt lat="49.12143" lon="-0.33083">
        <ele>54.2</ele>
        <time>2024-07-03T13:13:32Z</time>
      </trkpt>
      <trkpt lat="49.1214" lon="-0.33094">
        <ele>54.4</ele>
        <time>2024-07-03T13:13:33Z</time>
      </trkpt>
      <trkpt lat="49.12137" lon="-0.33104">
        <ele>54.4</ele>
        <time>2024-07-03T13:13:34Z</time>
      </trkpt>
      <trkpt lat="49.12134" lon="-0.33115">
        <ele>54.8</ele>
        <time>2024-07-03T13:13:35Z</time>
      </trkpt>
      <trkpt lat="49.12131" lon="-0.33126">
        <ele>55.2</ele>
        <time>2024-07-03T13:13:36Z</time>
      </trkpt>
      <trkpt lat="49.12127" lon="-0.33136">
        <ele>55.4</ele>
        <time>2024-07-03T13:13:37Z</time>
      </trkpt>
      <trkpt lat="49.12124" lon="-0.33147">
        <ele>55.6</ele>
        <time>2024-07-03T13:13:38Z</time>
      </trkpt>
      <trkpt lat="49.12121" lon="-0.33158">
        <ele>55.6</ele>
        <time>2024-07-03T13:13:39Z</time>
      </trkpt>
      <trkpt lat="49.12118" lon="-0.33169">
        <ele>55.6</ele>
        <time>2024-07-03T13:13:40Z</time>
      </trkpt>
      <trkpt lat="49.12115" lon="-0.3318">
        <ele>55.6</ele>
        <time>2024-07-03T13:13:41Z</time>
      </trkpt>
      <trkpt lat="49.12112" lon="-0.33192">
        <ele>55.6</ele>
        <time>2024-07-03T13:13:42Z</time>
      </trkpt>
      <trkpt lat="49.12109" lon="-0.33203">
        <ele>55.4</ele>
        <time>2024-07-03T13:13:43Z</time>
      </trkpt>
      <trkpt lat="49.12107" lon="-0.33214">
        <ele>55.4</ele>
        <time>2024-07-03T13:13:44Z</time>
      </trkpt>
      <trkpt lat="49.12104" lon="-0.33225">
        <ele>55.4</ele>
        <time>2024-07-03T13:13:45Z</time>
      </trkpt>
      <trkpt lat="49.12101" lon="-0.33236">
        <ele>55.4</ele>
        <time>2024-07-03T13:13:46Z</time>
      </trkpt>
      <trkpt lat="49.12099" lon="-0.33247">
        <ele>55.6</ele>
        <time>2024-07-03T13:13:47Z</time>
      </trkpt>
      <trkpt lat="49.12096" lon="-0.33257">
        <ele>55.6</ele>
        <time>2024-07-03T13:13:48Z</time>
      </trkpt>
      <trkpt lat="49.12094" lon="-0.33268">
        <ele>55.8</ele>
        <time>2024-07-03T13:13:49Z</time>
      </trkpt>
      <trkpt lat="49.12092" lon="-0.33278">
        <ele>55.8</ele>
        <time>2024-07-03T13:13:50Z</time>
      </trkpt>
      <trkpt lat="49.12091" lon="-0.33289">
        <ele>55.8</ele>
        <time>2024-07-03T13:13:51Z</time>
      </trkpt>
      <trkpt lat="49.1209" lon="-0.33299">
        <ele>55.8</ele>
        <time>2024-07-03T13:13:52Z</time>
      </trkpt>
      <trkpt lat="49.1209" lon="-0.3331">
        <ele>55.8</ele>
        <time>2024-07-03T13:13:53Z</time>
      </trkpt>
      <trkpt lat="49.1209" lon="-0.33321">
        <ele>55.8</ele>
        <time>2024-07-03T13:13:54Z</time>
      </trkpt>
      <trkpt lat="49.1209" lon="-0.33333">
        <ele>55.6</ele>
        <time>2024-07-03T13:13:55Z</time>
      </trkpt>
      <trkpt lat="49.12091" lon="-0.33344">
        <ele>55.4</ele>
        <time>2024-07-03T13:13:56Z</time>
      </trkpt>
      <trkpt lat="49.12092" lon="-0.33356">
        <ele>55</ele>
        <time>2024-07-03T13:13:57Z</time>
      </trkpt>
      <trkpt lat="49.12092" lon="-0.33367">
        <ele>54.8</ele>
        <time>2024-07-03T13:13:58Z</time>
      </trkpt>
      <trkpt lat="49.12093" lon="-0.33379">
        <ele>54.4</ele>
        <time>2024-07-03T13:13:59Z</time>
      </trkpt>
      <trkpt lat="49.12093" lon="-0.33391">
        <ele>54.4</ele>
        <time>2024-07-03T13:14:00Z</time>
      </trkpt>
      <trkpt lat="49.12093" lon="-0.33403">
        <ele>54.2</ele>
        <time>2024-07-03T13:14:01Z</time>
      </trkpt>
      <trkpt lat="49.12094" lon="-0.33415">
        <ele>54.2</ele>
        <time>2024-07-03T13:14:02Z</time>
      </trkpt>
      <trkpt lat="49.12094" lon="-0.33427">
        <ele>54.2</ele>
        <time>2024-07-03T13:14:03Z</time>
      </trkpt>
      <trkpt lat="49.12094" lon="-0.33439">
        <ele>54.2</ele>
        <time>2024-07-03T13:14:04Z</time>
      </trkpt>
      <trkpt lat="49.12094" lon="-0.33451">
        <ele>54.2</ele>
        <time>2024-07-03T13:14:05Z</time>
      </trkpt>
      <trkpt lat="49.12095" lon="-0.33464">
        <ele>54.2</ele>
        <time>2024-07-03T13:14:06Z</time>
      </trkpt>
      <trkpt lat="49.12095" lon="-0.33475">
        <ele>54.2</ele>
        <time>2024-07-03T13:14:07Z</time>
      </trkpt>
      <trkpt lat="49.12095" lon="-0.33487">
        <ele>54.2</ele>
        <time>2024-07-03T13:14:08Z</time>
      </trkpt>
      <trkpt lat="49.12095" lon="-0.33498">
        <ele>54.2</ele>
        <time>2024-07-03T13:14:09Z</time>
      </trkpt>
      <trkpt lat="49.12096" lon="-0.33509">
        <ele>54.4</ele>
        <time>2024-07-03T13:14:10Z</time>
      </trkpt>
      <trkpt lat="49.12096" lon="-0.3352">
        <ele>54.4</ele>
        <time>2024-07-03T13:14:11Z</time>
      </trkpt>
      <trkpt lat="49.12096" lon="-0.33531">
        <ele>54.4</ele>
        <time>2024-07-03T13:14:12Z</time>
      </trkpt>
      <trkpt lat="49.12096" lon="-0.33543">
        <ele>54.6</ele>
        <time>2024-07-03T13:14:13Z</time>
      </trkpt>
      <trkpt lat="49.12097" lon="-0.33553">
        <ele>54.8</ele>
        <time>2024-07-03T13:14:14Z</time>
      </trkpt>
      <trkpt lat="49.12097" lon="-0.33564">
        <ele>54.8</ele>
        <time>2024-07-03T13:14:15Z</time>
      </trkpt>
      <trkpt lat="49.12097" lon="-0.33575">
        <ele>55</ele>
        <time>2024-07-03T13:14:16Z</time>
      </trkpt>
      <trkpt lat="49.12097" lon="-0.33586">
        <ele>55</ele>
        <time>2024-07-03T13:14:17Z</time>
      </trkpt>
      <trkpt lat="49.12097" lon="-0.33597">
        <ele>55.2</ele>
        <time>2024-07-03T13:14:18Z</time>
      </trkpt>
      <trkpt lat="49.12098" lon="-0.33608">
        <ele>55.4</ele>
        <time>2024-07-03T13:14:19Z</time>
      </trkpt>
      <trkpt lat="49.12098" lon="-0.33619">
        <ele>55.6</ele>
        <time>2024-07-03T13:14:20Z</time>
      </trkpt>
      <trkpt lat="49.12098" lon="-0.3363">
        <ele>56</ele>
        <time>2024-07-03T13:14:21Z</time>
      </trkpt>
      <trkpt lat="49.12098" lon="-0.3364">
        <ele>56.2</ele>
        <time>2024-07-03T13:14:22Z</time>
      </trkpt>
      <trkpt lat="49.12098" lon="-0.33652">
        <ele>56.6</ele>
        <time>2024-07-03T13:14:23Z</time>
      </trkpt>
      <trkpt lat="49.12099" lon="-0.33663">
        <ele>56.6</ele>
        <time>2024-07-03T13:14:24Z</time>
      </trkpt>
      <trkpt lat="49.12099" lon="-0.33674">
        <ele>56.8</ele>
        <time>2024-07-03T13:14:25Z</time>
      </trkpt>
      <trkpt lat="49.12099" lon="-0.33685">
        <ele>56.8</ele>
        <time>2024-07-03T13:14:26Z</time>
      </trkpt>
      <trkpt lat="49.121" lon="-0.33697">
        <ele>56.8</ele>
        <time>2024-07-03T13:14:27Z</time>
      </trkpt>
      <trkpt lat="49.121" lon="-0.33708">
        <ele>56.8</ele>
        <time>2024-07-03T13:14:28Z</time>
      </trkpt>
      <trkpt lat="49.12101" lon="-0.33719">
        <ele>56.8</ele>
        <time>2024-07-03T13:14:29Z</time>
      </trkpt>
      <trkpt lat="49.12101" lon="-0.3373">
        <ele>56.8</ele>
        <time>2024-07-03T13:14:30Z</time>
      </trkpt>
      <trkpt lat="49.12101" lon="-0.33741">
        <ele>57</ele>
        <time>2024-07-03T13:14:31Z</time>
      </trkpt>
      <trkpt lat="49.12101" lon="-0.33753">
        <ele>57</ele>
        <time>2024-07-03T13:14:32Z</time>
      </trkpt>
      <trkpt lat="49.12102" lon="-0.33764">
        <ele>57</ele>
        <time>2024-07-03T13:14:33Z</time>
      </trkpt>
      <trkpt lat="49.12102" lon="-0.33776">
        <ele>57.2</ele>
        <time>2024-07-03T13:14:34Z</time>
      </trkpt>
      <trkpt lat="49.12103" lon="-0.33788">
        <ele>57.4</ele>
        <time>2024-07-03T13:14:35Z</time>
      </trkpt>
      <trkpt lat="49.12103" lon="-0.33799">
        <ele>57.6</ele>
        <time>2024-07-03T13:14:36Z</time>
      </trkpt>
      <trkpt lat="49.12103" lon="-0.33811">
        <ele>57.6</ele>
        <time>2024-07-03T13:14:37Z</time>
      </trkpt>
      <trkpt lat="49.12103" lon="-0.33823">
        <ele>57.6</ele>
        <time>2024-07-03T13:14:38Z</time>
      </trkpt>
      <trkpt lat="49.12104" lon="-0.33834">
        <ele>57.6</ele>
        <time>2024-07-03T13:14:39Z</time>
      </trkpt>
      <trkpt lat="49.12104" lon="-0.33845">
        <ele>57.6</ele>
        <time>2024-07-03T13:14:40Z</time>
      </trkpt>
      <trkpt lat="49.12104" lon="-0.33856">
        <ele>57.6</ele>
        <time>2024-07-03T13:14:41Z</time>
      </trkpt>
      <trkpt lat="49.12104" lon="-0.33867">
        <ele>57.6</ele>
        <time>2024-07-03T13:14:42Z</time>
      </trkpt>
      <trkpt lat="49.12104" lon="-0.33878">
        <ele>57.6</ele>
        <time>2024-07-03T13:14:43Z</time>
      </trkpt>
      <trkpt lat="49.12104" lon="-0.33889">
        <ele>58</ele>
        <time>2024-07-03T13:14:44Z</time>
      </trkpt>
      <trkpt lat="49.12104" lon="-0.339">
        <ele>58.2</ele>
        <time>2024-07-03T13:14:45Z</time>
      </trkpt>
      <trkpt lat="49.12105" lon="-0.33911">
        <ele>58.6</ele>
        <time>2024-07-03T13:14:46Z</time>
      </trkpt>
      <trkpt lat="49.12105" lon="-0.33921">
        <ele>58.6</ele>
        <time>2024-07-03T13:14:47Z</time>
      </trkpt>
      <trkpt lat="49.12105" lon="-0.33932">
        <ele>58.8</ele>
        <time>2024-07-03T13:14:48Z</time>
      </trkpt>
      <trkpt lat="49.12105" lon="-0.33943">
        <ele>58.8</ele>
        <time>2024-07-03T13:14:49Z</time>
      </trkpt>
      <trkpt lat="49.12105" lon="-0.33953">
        <ele>59</ele>
        <time>2024-07-03T13:14:50Z</time>
      </trkpt>
      <trkpt lat="49.12105" lon="-0.33964">
        <ele>59.2</ele>
        <time>2024-07-03T13:14:51Z</time>
      </trkpt>
      <trkpt lat="49.12106" lon="-0.33974">
        <ele>59.6</ele>
        <time>2024-07-03T13:14:52Z</time>
      </trkpt>
      <trkpt lat="49.12106" lon="-0.33985">
        <ele>59.8</ele>
        <time>2024-07-03T13:14:53Z</time>
      </trkpt>
      <trkpt lat="49.12106" lon="-0.33997">
        <ele>60.2</ele>
        <time>2024-07-03T13:14:54Z</time>
      </trkpt>
      <trkpt lat="49.12106" lon="-0.34008">
        <ele>60.4</ele>
        <time>2024-07-03T13:14:55Z</time>
      </trkpt>
      <trkpt lat="49.12106" lon="-0.34019">
        <ele>60.6</ele>
        <time>2024-07-03T13:14:56Z</time>
      </trkpt>
      <trkpt lat="49.12106" lon="-0.3403">
        <ele>60.8</ele>
        <time>2024-07-03T13:14:57Z</time>
      </trkpt>
      <trkpt lat="49.12106" lon="-0.34042">
        <ele>60.8</ele>
        <time>2024-07-03T13:14:58Z</time>
      </trkpt>
      <trkpt lat="49.12105" lon="-0.34053">
        <ele>61</ele>
        <time>2024-07-03T13:14:59Z</time>
      </trkpt>
      <trkpt lat="49.12105" lon="-0.34064">
        <ele>61.2</ele>
        <time>2024-07-03T13:15:00Z</time>
      </trkpt>
      <trkpt lat="49.12105" lon="-0.34075">
        <ele>61.4</ele>
        <time>2024-07-03T13:15:01Z</time>
      </trkpt>
      <trkpt lat="49.12105" lon="-0.34086">
        <ele>61.4</ele>
        <time>2024-07-03T13:15:02Z</time>
      </trkpt>
      <trkpt lat="49.12105" lon="-0.34098">
        <ele>61.6</ele>
        <time>2024-07-03T13:15:03Z</time>
      </trkpt>
      <trkpt lat="49.12104" lon="-0.34109">
        <ele>61.6</ele>
        <time>2024-07-03T13:15:04Z</time>
      </trkpt>
      <trkpt lat="49.12104" lon="-0.34121">
        <ele>61.8</ele>
        <time>2024-07-03T13:15:05Z</time>
      </trkpt>
      <trkpt lat="49.12104" lon="-0.34132">
        <ele>61.8</ele>
        <time>2024-07-03T13:15:06Z</time>
      </trkpt>
      <trkpt lat="49.12104" lon="-0.34144">
        <ele>62</ele>
        <time>2024-07-03T13:15:07Z</time>
      </trkpt>
      <trkpt lat="49.12103" lon="-0.34155">
        <ele>62.2</ele>
        <time>2024-07-03T13:15:08Z</time>
      </trkpt>
      <trkpt lat="49.12103" lon="-0.34166">
        <ele>62.2</ele>
        <time>2024-07-03T13:15:09Z</time>
      </trkpt>
      <trkpt lat="49.12103" lon="-0.34178">
        <ele>62.4</ele>
        <time>2024-07-03T13:15:10Z</time>
      </trkpt>
      <trkpt lat="49.12102" lon="-0.34189">
        <ele>62.4</ele>
        <time>2024-07-03T13:15:11Z</time>
      </trkpt>
      <trkpt lat="49.12102" lon="-0.342">
        <ele>62.6</ele>
        <time>2024-07-03T13:15:12Z</time>
      </trkpt>
      <trkpt lat="49.12102" lon="-0.3421">
        <ele>62.6</ele>
        <time>2024-07-03T13:15:13Z</time>
      </trkpt>
      <trkpt lat="49.12101" lon="-0.34221">
        <ele>62.8</ele>
        <time>2024-07-03T13:15:14Z</time>
      </trkpt>
      <trkpt lat="49.12101" lon="-0.34231">
        <ele>62.8</ele>
        <time>2024-07-03T13:15:15Z</time>
      </trkpt>
      <trkpt lat="49.12101" lon="-0.34242">
        <ele>62.8</ele>
        <time>2024-07-03T13:15:16Z</time>
      </trkpt>
      <trkpt lat="49.12101" lon="-0.34252">
        <ele>62.8</ele>
        <time>2024-07-03T13:15:17Z</time>
      </trkpt>
      <trkpt lat="49.121" lon="-0.34262">
        <ele>63</ele>
        <time>2024-07-03T13:15:18Z</time>
      </trkpt>
      <trkpt lat="49.121" lon="-0.34273">
        <ele>63</ele>
        <time>2024-07-03T13:15:19Z</time>
      </trkpt>
      <trkpt lat="49.121" lon="-0.34283">
        <ele>63.2</ele>
        <time>2024-07-03T13:15:20Z</time>
      </trkpt>
      <trkpt lat="49.121" lon="-0.34294">
        <ele>63.2</ele>
        <time>2024-07-03T13:15:21Z</time>
      </trkpt>
      <trkpt lat="49.12099" lon="-0.34304">
        <ele>63.4</ele>
        <time>2024-07-03T13:15:22Z</time>
      </trkpt>
      <trkpt lat="49.12099" lon="-0.34315">
        <ele>63.8</ele>
        <time>2024-07-03T13:15:23Z</time>
      </trkpt>
      <trkpt lat="49.12099" lon="-0.34325">
        <ele>64</ele>
        <time>2024-07-03T13:15:24Z</time>
      </trkpt>
      <trkpt lat="49.12099" lon="-0.34336">
        <ele>64</ele>
        <time>2024-07-03T13:15:25Z</time>
      </trkpt>
      <trkpt lat="49.12098" lon="-0.34347">
        <ele>64.2</ele>
        <time>2024-07-03T13:15:26Z</time>
      </trkpt>
      <trkpt lat="49.12098" lon="-0.34358">
        <ele>64.2</ele>
        <time>2024-07-03T13:15:27Z</time>
      </trkpt>
      <trkpt lat="49.12098" lon="-0.34369">
        <ele>64.2</ele>
        <time>2024-07-03T13:15:28Z</time>
      </trkpt>
      <trkpt lat="49.12098" lon="-0.3438">
        <ele>64.2</ele>
        <time>2024-07-03T13:15:29Z</time>
      </trkpt>
      <trkpt lat="49.12097" lon="-0.34391">
        <ele>64.4</ele>
        <time>2024-07-03T13:15:30Z</time>
      </trkpt>
      <trkpt lat="49.12097" lon="-0.34402">
        <ele>64.4</ele>
        <time>2024-07-03T13:15:31Z</time>
      </trkpt>
      <trkpt lat="49.12097" lon="-0.34413">
        <ele>64.2</ele>
        <time>2024-07-03T13:15:32Z</time>
      </trkpt>
      <trkpt lat="49.12096" lon="-0.34424">
        <ele>64.2</ele>
        <time>2024-07-03T13:15:33Z</time>
      </trkpt>
      <trkpt lat="49.12096" lon="-0.34435">
        <ele>64.4</ele>
        <time>2024-07-03T13:15:34Z</time>
      </trkpt>
      <trkpt lat="49.12096" lon="-0.34447">
        <ele>64.4</ele>
        <time>2024-07-03T13:15:35Z</time>
      </trkpt>
      <trkpt lat="49.12095" lon="-0.34458">
        <ele>64.2</ele>
        <time>2024-07-03T13:15:36Z</time>
      </trkpt>
      <trkpt lat="49.12095" lon="-0.3447">
        <ele>64.2</ele>
        <time>2024-07-03T13:15:37Z</time>
      </trkpt>
      <trkpt lat="49.12095" lon="-0.34481">
        <ele>64.2</ele>
        <time>2024-07-03T13:15:38Z</time>
      </trkpt>
      <trkpt lat="49.12095" lon="-0.34492">
        <ele>64.2</ele>
        <time>2024-07-03T13:15:39Z</time>
      </trkpt>
      <trkpt lat="49.12095" lon="-0.34504">
        <ele>64.2</ele>
        <time>2024-07-03T13:15:40Z</time>
      </trkpt>
      <trkpt lat="49.12094" lon="-0.34516">
        <ele>64</ele>
        <time>2024-07-03T13:15:41Z</time>
      </trkpt>
      <trkpt lat="49.12094" lon="-0.34528">
        <ele>63.8</ele>
        <time>2024-07-03T13:15:42Z</time>
      </trkpt>
      <trkpt lat="49.12094" lon="-0.34539">
        <ele>63.8</ele>
        <time>2024-07-03T13:15:43Z</time>
      </trkpt>
      <trkpt lat="49.12094" lon="-0.34551">
        <ele>63.6</ele>
        <time>2024-07-03T13:15:44Z</time>
      </trkpt>
      <trkpt lat="49.12094" lon="-0.34563">
        <ele>63.8</ele>
        <time>2024-07-03T13:15:45Z</time>
      </trkpt>
      <trkpt lat="49.12094" lon="-0.34575">
        <ele>63.8</ele>
        <time>2024-07-03T13:15:46Z</time>
      </trkpt>
      <trkpt lat="49.12094" lon="-0.34587">
        <ele>63.8</ele>
        <time>2024-07-03T13:15:47Z</time>
      </trkpt>
      <trkpt lat="49.12095" lon="-0.34599">
        <ele>64</ele>
        <time>2024-07-03T13:15:48Z</time>
      </trkpt>
      <trkpt lat="49.12095" lon="-0.34611">
        <ele>64.2</ele>
        <time>2024-07-03T13:15:49Z</time>
      </trkpt>
      <trkpt lat="49.12095" lon="-0.34622">
        <ele>64.2</ele>
        <time>2024-07-03T13:15:50Z</time>
      </trkpt>
      <trkpt lat="49.12095" lon="-0.34634">
        <ele>64.2</ele>
        <time>2024-07-03T13:15:51Z</time>
      </trkpt>
      <trkpt lat="49.12095" lon="-0.34645">
        <ele>64.2</ele>
        <time>2024-07-03T13:15:52Z</time>
      </trkpt>
      <trkpt lat="49.12095" lon="-0.34657">
        <ele>64.2</ele>
        <time>2024-07-03T13:15:53Z</time>
      </trkpt>
      <trkpt lat="49.12095" lon="-0.34669">
        <ele>64.2</ele>
        <time>2024-07-03T13:15:54Z</time>
      </trkpt>
      <trkpt lat="49.12095" lon="-0.34682">
        <ele>64.2</ele>
        <time>2024-07-03T13:15:55Z</time>
      </trkpt>
      <trkpt lat="49.12096" lon="-0.34693">
        <ele>64.2</ele>
        <time>2024-07-03T13:15:56Z</time>
      </trkpt>
      <trkpt lat="49.12095" lon="-0.34706">
        <ele>64.2</ele>
        <time>2024-07-03T13:15:57Z</time>
      </trkpt>
      <trkpt lat="49.12095" lon="-0.34719">
        <ele>64.2</ele>
        <time>2024-07-03T13:15:58Z</time>
      </trkpt>
      <trkpt lat="49.12095" lon="-0.34731">
        <ele>64.2</ele>
        <time>2024-07-03T13:15:59Z</time>
      </trkpt>
      <trkpt lat="49.12095" lon="-0.34743">
        <ele>64</ele>
        <time>2024-07-03T13:16:00Z</time>
      </trkpt>
      <trkpt lat="49.12096" lon="-0.34755">
        <ele>64</ele>
        <time>2024-07-03T13:16:01Z</time>
      </trkpt>
      <trkpt lat="49.12096" lon="-0.34767">
        <ele>64</ele>
        <time>2024-07-03T13:16:02Z</time>
      </trkpt>
      <trkpt lat="49.12096" lon="-0.34778">
        <ele>64</ele>
        <time>2024-07-03T13:16:03Z</time>
      </trkpt>
      <trkpt lat="49.12096" lon="-0.3479">
        <ele>64</ele>
        <time>2024-07-03T13:16:04Z</time>
      </trkpt>
      <trkpt lat="49.12096" lon="-0.34801">
        <ele>64</ele>
        <time>2024-07-03T13:16:05Z</time>
      </trkpt>
      <trkpt lat="49.12097" lon="-0.34813">
        <ele>64</ele>
        <time>2024-07-03T13:16:06Z</time>
      </trkpt>
      <trkpt lat="49.12097" lon="-0.34825">
        <ele>64</ele>
        <time>2024-07-03T13:16:07Z</time>
      </trkpt>
      <trkpt lat="49.12097" lon="-0.34836">
        <ele>64</ele>
        <time>2024-07-03T13:16:08Z</time>
      </trkpt>
      <trkpt lat="49.12097" lon="-0.34848">
        <ele>64</ele>
        <time>2024-07-03T13:16:09Z</time>
      </trkpt>
      <trkpt lat="49.12097" lon="-0.34859">
        <ele>64</ele>
        <time>2024-07-03T13:16:10Z</time>
      </trkpt>
      <trkpt lat="49.12097" lon="-0.34871">
        <ele>64</ele>
        <time>2024-07-03T13:16:11Z</time>
      </trkpt>
      <trkpt lat="49.12097" lon="-0.34883">
        <ele>64</ele>
        <time>2024-07-03T13:16:12Z</time>
      </trkpt>
      <trkpt lat="49.12097" lon="-0.34894">
        <ele>64</ele>
        <time>2024-07-03T13:16:13Z</time>
      </trkpt>
      <trkpt lat="49.12097" lon="-0.34906">
        <ele>64.2</ele>
        <time>2024-07-03T13:16:14Z</time>
      </trkpt>
      <trkpt lat="49.12097" lon="-0.34918">
        <ele>64.2</ele>
        <time>2024-07-03T13:16:15Z</time>
      </trkpt>
      <trkpt lat="49.12097" lon="-0.3493">
        <ele>64.2</ele>
        <time>2024-07-03T13:16:16Z</time>
      </trkpt>
      <trkpt lat="49.12097" lon="-0.34942">
        <ele>64.4</ele>
        <time>2024-07-03T13:16:17Z</time>
      </trkpt>
      <trkpt lat="49.12098" lon="-0.34954">
        <ele>64.4</ele>
        <time>2024-07-03T13:16:18Z</time>
      </trkpt>
      <trkpt lat="49.12098" lon="-0.34966">
        <ele>64.4</ele>
        <time>2024-07-03T13:16:19Z</time>
      </trkpt>
      <trkpt lat="49.12098" lon="-0.34978">
        <ele>64.4</ele>
        <time>2024-07-03T13:16:20Z</time>
      </trkpt>
      <trkpt lat="49.12098" lon="-0.3499">
        <ele>64.2</ele>
        <time>2024-07-03T13:16:21Z</time>
      </trkpt>
      <trkpt lat="49.12098" lon="-0.35001">
        <ele>64.2</ele>
        <time>2024-07-03T13:16:22Z</time>
      </trkpt>
      <trkpt lat="49.12099" lon="-0.35013">
        <ele>64</ele>
        <time>2024-07-03T13:16:23Z</time>
      </trkpt>
      <trkpt lat="49.12099" lon="-0.35026">
        <ele>63.8</ele>
        <time>2024-07-03T13:16:24Z</time>
      </trkpt>
      <trkpt lat="49.12099" lon="-0.35038">
        <ele>63.8</ele>
        <time>2024-07-03T13:16:25Z</time>
      </trkpt>
      <trkpt lat="49.12099" lon="-0.3505">
        <ele>63.6</ele>
        <time>2024-07-03T13:16:26Z</time>
      </trkpt>
      <trkpt lat="49.12099" lon="-0.35063">
        <ele>63.6</ele>
        <time>2024-07-03T13:16:27Z</time>
      </trkpt>
      <trkpt lat="49.12099" lon="-0.35075">
        <ele>63.6</ele>
        <time>2024-07-03T13:16:28Z</time>
      </trkpt>
      <trkpt lat="49.12099" lon="-0.35088">
        <ele>63.8</ele>
        <time>2024-07-03T13:16:29Z</time>
      </trkpt>
      <trkpt lat="49.12099" lon="-0.351">
        <ele>63.8</ele>
        <time>2024-07-03T13:16:30Z</time>
      </trkpt>
      <trkpt lat="49.12099" lon="-0.35113">
        <ele>64</ele>
        <time>2024-07-03T13:16:31Z</time>
      </trkpt>
      <trkpt lat="49.12099" lon="-0.35125">
        <ele>64</ele>
        <time>2024-07-03T13:16:32Z</time>
      </trkpt>
      <trkpt lat="49.12099" lon="-0.35137">
        <ele>64.2</ele>
        <time>2024-07-03T13:16:33Z</time>
      </trkpt>
      <trkpt lat="49.12099" lon="-0.3515">
        <ele>64.2</ele>
        <time>2024-07-03T13:16:34Z</time>
      </trkpt>
      <trkpt lat="49.12098" lon="-0.35162">
        <ele>64.2</ele>
        <time>2024-07-03T13:16:35Z</time>
      </trkpt>
      <trkpt lat="49.12098" lon="-0.35174">
        <ele>64.2</ele>
        <time>2024-07-03T13:16:36Z</time>
      </trkpt>
      <trkpt lat="49.12097" lon="-0.35186">
        <ele>64.2</ele>
        <time>2024-07-03T13:16:37Z</time>
      </trkpt>
      <trkpt lat="49.12096" lon="-0.35199">
        <ele>64.2</ele>
        <time>2024-07-03T13:16:38Z</time>
      </trkpt>
      <trkpt lat="49.12096" lon="-0.35211">
        <ele>64</ele>
        <time>2024-07-03T13:16:39Z</time>
      </trkpt>
      <trkpt lat="49.12095" lon="-0.35223">
        <ele>63.8</ele>
        <time>2024-07-03T13:16:40Z</time>
      </trkpt>
      <trkpt lat="49.12094" lon="-0.35234">
        <ele>63.4</ele>
        <time>2024-07-03T13:16:41Z</time>
      </trkpt>
      <trkpt lat="49.12093" lon="-0.35246">
        <ele>63.2</ele>
        <time>2024-07-03T13:16:42Z</time>
      </trkpt>
      <trkpt lat="49.12092" lon="-0.35257">
        <ele>63.2</ele>
        <time>2024-07-03T13:16:43Z</time>
      </trkpt>
      <trkpt lat="49.12091" lon="-0.35269">
        <ele>63</ele>
        <time>2024-07-03T13:16:44Z</time>
      </trkpt>
      <trkpt lat="49.12089" lon="-0.35281">
        <ele>62.8</ele>
        <time>2024-07-03T13:16:45Z</time>
      </trkpt>
      <trkpt lat="49.12088" lon="-0.35292">
        <ele>62.8</ele>
        <time>2024-07-03T13:16:46Z</time>
      </trkpt>
      <trkpt lat="49.12087" lon="-0.35304">
        <ele>62.8</ele>
        <time>2024-07-03T13:16:47Z</time>
      </trkpt>
      <trkpt lat="49.12086" lon="-0.35316">
        <ele>63</ele>
        <time>2024-07-03T13:16:48Z</time>
      </trkpt>
      <trkpt lat="49.12085" lon="-0.35327">
        <ele>63</ele>
        <time>2024-07-03T13:16:49Z</time>
      </trkpt>
      <trkpt lat="49.12083" lon="-0.35338">
        <ele>63.2</ele>
        <time>2024-07-03T13:16:50Z</time>
      </trkpt>
      <trkpt lat="49.12082" lon="-0.35349">
        <ele>63.2</ele>
        <time>2024-07-03T13:16:51Z</time>
      </trkpt>
      <trkpt lat="49.12081" lon="-0.35359">
        <ele>63.4</ele>
        <time>2024-07-03T13:16:52Z</time>
      </trkpt>
      <trkpt lat="49.12079" lon="-0.3537">
        <ele>63.2</ele>
        <time>2024-07-03T13:16:53Z</time>
      </trkpt>
      <trkpt lat="49.12078" lon="-0.3538">
        <ele>63.2</ele>
        <time>2024-07-03T13:16:54Z</time>
      </trkpt>
      <trkpt lat="49.12076" lon="-0.3539">
        <ele>63.2</ele>
        <time>2024-07-03T13:16:55Z</time>
      </trkpt>
      <trkpt lat="49.12076" lon="-0.354">
        <ele>63</ele>
        <time>2024-07-03T13:16:56Z</time>
      </trkpt>
      <trkpt lat="49.12076" lon="-0.35409">
        <ele>63</ele>
        <time>2024-07-03T13:16:57Z</time>
      </trkpt>
      <trkpt lat="49.12076" lon="-0.35418">
        <ele>63</ele>
        <time>2024-07-03T13:16:58Z</time>
      </trkpt>
      <trkpt lat="49.12077" lon="-0.35426">
        <ele>63</ele>
        <time>2024-07-03T13:16:59Z</time>
      </trkpt>
      <trkpt lat="49.12078" lon="-0.35434">
        <ele>63</ele>
        <time>2024-07-03T13:17:00Z</time>
      </trkpt>
      <trkpt lat="49.12078" lon="-0.35442">
        <ele>63</ele>
        <time>2024-07-03T13:17:01Z</time>
      </trkpt>
      <trkpt lat="49.12077" lon="-0.35448">
        <ele>63.2</ele>
        <time>2024-07-03T13:17:02Z</time>
      </trkpt>
      <trkpt lat="49.12074" lon="-0.35452">
        <ele>63.2</ele>
        <time>2024-07-03T13:17:03Z</time>
      </trkpt>
      <trkpt lat="49.1207" lon="-0.35454">
        <ele>63.2</ele>
        <time>2024-07-03T13:17:04Z</time>
      </trkpt>
      <trkpt lat="49.12065" lon="-0.35453">
        <ele>63.4</ele>
        <time>2024-07-03T13:17:05Z</time>
      </trkpt>
      <trkpt lat="49.12061" lon="-0.35451">
        <ele>63.6</ele>
        <time>2024-07-03T13:17:06Z</time>
      </trkpt>
      <trkpt lat="49.12057" lon="-0.35448">
        <ele>64</ele>
        <time>2024-07-03T13:17:07Z</time>
      </trkpt>
      <trkpt lat="49.12053" lon="-0.35444">
        <ele>64</ele>
        <time>2024-07-03T13:17:08Z</time>
      </trkpt>
      <trkpt lat="49.1205" lon="-0.35442">
        <ele>64.2</ele>
        <time>2024-07-03T13:17:09Z</time>
      </trkpt>
      <trkpt lat="49.12046" lon="-0.35439">
        <ele>64.2</ele>
        <time>2024-07-03T13:17:10Z</time>
      </trkpt>
      <trkpt lat="49.12041" lon="-0.35438">
        <ele>64.2</ele>
        <time>2024-07-03T13:17:11Z</time>
      </trkpt>
      <trkpt lat="49.12036" lon="-0.35437">
        <ele>64</ele>
        <time>2024-07-03T13:17:12Z</time>
      </trkpt>
      <trkpt lat="49.12032" lon="-0.35436">
        <ele>64</ele>
        <time>2024-07-03T13:17:13Z</time>
      </trkpt>
      <trkpt lat="49.12027" lon="-0.35436">
        <ele>64</ele>
        <time>2024-07-03T13:17:14Z</time>
      </trkpt>
      <trkpt lat="49.12023" lon="-0.35435">
        <ele>64</ele>
        <time>2024-07-03T13:17:15Z</time>
      </trkpt>
      <trkpt lat="49.1202" lon="-0.35435">
        <ele>64</ele>
        <time>2024-07-03T13:17:16Z</time>
      </trkpt>
      <trkpt lat="49.12017" lon="-0.35435">
        <ele>64</ele>
        <time>2024-07-03T13:17:17Z</time>
      </trkpt>
      <trkpt lat="49.12014" lon="-0.35434">
        <ele>64</ele>
        <time>2024-07-03T13:17:18Z</time>
      </trkpt>
      <trkpt lat="49.12013" lon="-0.35434">
        <ele>64.2</ele>
        <time>2024-07-03T13:17:19Z</time>
      </trkpt>
      <trkpt lat="49.12012" lon="-0.35434">
        <ele>64.2</ele>
        <time>2024-07-03T13:17:20Z</time>
      </trkpt>
      <trkpt lat="49.12012" lon="-0.35434">
        <ele>64.6</ele>
        <time>2024-07-03T13:17:21Z</time>
      </trkpt>
      <trkpt lat="49.12009" lon="-0.35432">
        <ele>64.8</ele>
        <time>2024-07-03T13:17:33Z</time>
      </trkpt>
      <trkpt lat="49.12007" lon="-0.35431">
        <ele>64.8</ele>
        <time>2024-07-03T13:17:34Z</time>
      </trkpt>
      <trkpt lat="49.12005" lon="-0.35431">
        <ele>64.8</ele>
        <time>2024-07-03T13:17:35Z</time>
      </trkpt>
      <trkpt lat="49.12002" lon="-0.3543">
        <ele>64.8</ele>
        <time>2024-07-03T13:17:36Z</time>
      </trkpt>
      <trkpt lat="49.12" lon="-0.3543">
        <ele>64.8</ele>
        <time>2024-07-03T13:17:37Z</time>
      </trkpt>
      <trkpt lat="49.11997" lon="-0.3543">
        <ele>64.8</ele>
        <time>2024-07-03T13:17:38Z</time>
      </trkpt>
      <trkpt lat="49.11993" lon="-0.35431">
        <ele>64.8</ele>
        <time>2024-07-03T13:17:39Z</time>
      </trkpt>
      <trkpt lat="49.11985" lon="-0.35431">
        <ele>64.6</ele>
        <time>2024-07-03T13:17:40Z</time>
      </trkpt>
      <trkpt lat="49.11983" lon="-0.35431">
        <ele>64.6</ele>
        <time>2024-07-03T13:17:41Z</time>
      </trkpt>
      <trkpt lat="49.11981" lon="-0.35431">
        <ele>64.6</ele>
        <time>2024-07-03T13:17:42Z</time>
      </trkpt>
      <trkpt lat="49.11976" lon="-0.3543">
        <ele>64.4</ele>
        <time>2024-07-03T13:17:43Z</time>
      </trkpt>
      <trkpt lat="49.1197" lon="-0.35429">
        <ele>64.2</ele>
        <time>2024-07-03T13:17:44Z</time>
      </trkpt>
      <trkpt lat="49.11965" lon="-0.35428">
        <ele>64</ele>
        <time>2024-07-03T13:17:45Z</time>
      </trkpt>
      <trkpt lat="49.11959" lon="-0.35427">
        <ele>63.8</ele>
        <time>2024-07-03T13:17:46Z</time>
      </trkpt>
      <trkpt lat="49.11953" lon="-0.35426">
        <ele>63.6</ele>
        <time>2024-07-03T13:17:47Z</time>
      </trkpt>
      <trkpt lat="49.11947" lon="-0.35425">
        <ele>63.6</ele>
        <time>2024-07-03T13:17:48Z</time>
      </trkpt>
      <trkpt lat="49.11941" lon="-0.35424">
        <ele>63.6</ele>
        <time>2024-07-03T13:17:49Z</time>
      </trkpt>
      <trkpt lat="49.11934" lon="-0.35423">
        <ele>63.6</ele>
        <time>2024-07-03T13:17:50Z</time>
      </trkpt>
      <trkpt lat="49.11928" lon="-0.35421">
        <ele>63.6</ele>
        <time>2024-07-03T13:17:51Z</time>
      </trkpt>
      <trkpt lat="49.11921" lon="-0.3542">
        <ele>63.6</ele>
        <time>2024-07-03T13:17:52Z</time>
      </trkpt>
      <trkpt lat="49.11914" lon="-0.35419">
        <ele>63.8</ele>
        <time>2024-07-03T13:17:53Z</time>
      </trkpt>
      <trkpt lat="49.11908" lon="-0.35418">
        <ele>63.8</ele>
        <time>2024-07-03T13:17:54Z</time>
      </trkpt>
      <trkpt lat="49.11901" lon="-0.35417">
        <ele>63.8</ele>
        <time>2024-07-03T13:17:55Z</time>
      </trkpt>
      <trkpt lat="49.11894" lon="-0.35415">
        <ele>63.8</ele>
        <time>2024-07-03T13:17:56Z</time>
      </trkpt>
      <trkpt lat="49.11888" lon="-0.35414">
        <ele>63.8</ele>
        <time>2024-07-03T13:17:57Z</time>
      </trkpt>
      <trkpt lat="49.11881" lon="-0.35413">
        <ele>63.8</ele>
        <time>2024-07-03T13:17:58Z</time>
      </trkpt>
      <trkpt lat="49.11874" lon="-0.35412">
        <ele>64</ele>
        <time>2024-07-03T13:17:59Z</time>
      </trkpt>
      <trkpt lat="49.11867" lon="-0.35411">
        <ele>64</ele>
        <time>2024-07-03T13:18:00Z</time>
      </trkpt>
      <trkpt lat="49.1186" lon="-0.3541">
        <ele>64</ele>
        <time>2024-07-03T13:18:01Z</time>
      </trkpt>
      <trkpt lat="49.11853" lon="-0.35408">
        <ele>64</ele>
        <time>2024-07-03T13:18:02Z</time>
      </trkpt>
      <trkpt lat="49.11846" lon="-0.35407">
        <ele>64</ele>
        <time>2024-07-03T13:18:03Z</time>
      </trkpt>
      <trkpt lat="49.11839" lon="-0.35406">
        <ele>64.2</ele>
        <time>2024-07-03T13:18:04Z</time>
      </trkpt>
      <trkpt lat="49.11832" lon="-0.35404">
        <ele>64</ele>
        <time>2024-07-03T13:18:05Z</time>
      </trkpt>
      <trkpt lat="49.11824" lon="-0.35403">
        <ele>63.8</ele>
        <time>2024-07-03T13:18:06Z</time>
      </trkpt>
      <trkpt lat="49.11817" lon="-0.35402">
        <ele>63.6</ele>
        <time>2024-07-03T13:18:07Z</time>
      </trkpt>
      <trkpt lat="49.1181" lon="-0.35401">
        <ele>63.4</ele>
        <time>2024-07-03T13:18:08Z</time>
      </trkpt>
      <trkpt lat="49.11803" lon="-0.35399">
        <ele>63.2</ele>
        <time>2024-07-03T13:18:09Z</time>
      </trkpt>
      <trkpt lat="49.11796" lon="-0.35398">
        <ele>63.2</ele>
        <time>2024-07-03T13:18:10Z</time>
      </trkpt>
      <trkpt lat="49.11788" lon="-0.35397">
        <ele>63.2</ele>
        <time>2024-07-03T13:18:11Z</time>
      </trkpt>
      <trkpt lat="49.11781" lon="-0.35396">
        <ele>63.4</ele>
        <time>2024-07-03T13:18:12Z</time>
      </trkpt>
      <trkpt lat="49.11773" lon="-0.35394">
        <ele>63.4</ele>
        <time>2024-07-03T13:18:13Z</time>
      </trkpt>
      <trkpt lat="49.11766" lon="-0.35393">
        <ele>63.4</ele>
        <time>2024-07-03T13:18:14Z</time>
      </trkpt>
      <trkpt lat="49.11759" lon="-0.35391">
        <ele>63.4</ele>
        <time>2024-07-03T13:18:15Z</time>
      </trkpt>
      <trkpt lat="49.11751" lon="-0.3539">
        <ele>63.6</ele>
        <time>2024-07-03T13:18:16Z</time>
      </trkpt>
      <trkpt lat="49.11744" lon="-0.35389">
        <ele>63.6</ele>
        <time>2024-07-03T13:18:17Z</time>
      </trkpt>
      <trkpt lat="49.11736" lon="-0.35387">
        <ele>63.8</ele>
        <time>2024-07-03T13:18:18Z</time>
      </trkpt>
      <trkpt lat="49.11729" lon="-0.35386">
        <ele>64</ele>
        <time>2024-07-03T13:18:19Z</time>
      </trkpt>
      <trkpt lat="49.11721" lon="-0.35385">
        <ele>64.2</ele>
        <time>2024-07-03T13:18:20Z</time>
      </trkpt>
      <trkpt lat="49.11713" lon="-0.35384">
        <ele>64.4</ele>
        <time>2024-07-03T13:18:21Z</time>
      </trkpt>
      <trkpt lat="49.11706" lon="-0.35382">
        <ele>64.4</ele>
        <time>2024-07-03T13:18:22Z</time>
      </trkpt>
      <trkpt lat="49.11698" lon="-0.35381">
        <ele>64.4</ele>
        <time>2024-07-03T13:18:23Z</time>
      </trkpt>
      <trkpt lat="49.11691" lon="-0.35379">
        <ele>64.4</ele>
        <time>2024-07-03T13:18:24Z</time>
      </trkpt>
      <trkpt lat="49.11683" lon="-0.35377">
        <ele>64.4</ele>
        <time>2024-07-03T13:18:25Z</time>
      </trkpt>
      <trkpt lat="49.11675" lon="-0.35376">
        <ele>64.4</ele>
        <time>2024-07-03T13:18:26Z</time>
      </trkpt>
      <trkpt lat="49.11667" lon="-0.35374">
        <ele>64.2</ele>
        <time>2024-07-03T13:18:27Z</time>
      </trkpt>
      <trkpt lat="49.1166" lon="-0.35372">
        <ele>64</ele>
        <time>2024-07-03T13:18:28Z</time>
      </trkpt>
      <trkpt lat="49.11652" lon="-0.3537">
        <ele>64</ele>
        <time>2024-07-03T13:18:29Z</time>
      </trkpt>
      <trkpt lat="49.11644" lon="-0.35368">
        <ele>64</ele>
        <time>2024-07-03T13:18:30Z</time>
      </trkpt>
      <trkpt lat="49.11637" lon="-0.35366">
        <ele>64</ele>
        <time>2024-07-03T13:18:31Z</time>
      </trkpt>
      <trkpt lat="49.11629" lon="-0.35364">
        <ele>64</ele>
        <time>2024-07-03T13:18:32Z</time>
      </trkpt>
      <trkpt lat="49.11621" lon="-0.35361">
        <ele>63.8</ele>
        <time>2024-07-03T13:18:33Z</time>
      </trkpt>
      <trkpt lat="49.11614" lon="-0.35359">
        <ele>63.6</ele>
        <time>2024-07-03T13:18:34Z</time>
      </trkpt>
      <trkpt lat="49.11606" lon="-0.35357">
        <ele>63.4</ele>
        <time>2024-07-03T13:18:35Z</time>
      </trkpt>
      <trkpt lat="49.11599" lon="-0.35354">
        <ele>63.4</ele>
        <time>2024-07-03T13:18:36Z</time>
      </trkpt>
      <trkpt lat="49.11591" lon="-0.35352">
        <ele>63.2</ele>
        <time>2024-07-03T13:18:37Z</time>
      </trkpt>
      <trkpt lat="49.11583" lon="-0.3535">
        <ele>63.2</ele>
        <time>2024-07-03T13:18:38Z</time>
      </trkpt>
      <trkpt lat="49.11576" lon="-0.35347">
        <ele>63.4</ele>
        <time>2024-07-03T13:18:39Z</time>
      </trkpt>
      <trkpt lat="49.11568" lon="-0.35345">
        <ele>63.4</ele>
        <time>2024-07-03T13:18:40Z</time>
      </trkpt>
      <trkpt lat="49.1156" lon="-0.35343">
        <ele>63.4</ele>
        <time>2024-07-03T13:18:41Z</time>
      </trkpt>
      <trkpt lat="49.11553" lon="-0.35341">
        <ele>63.6</ele>
        <time>2024-07-03T13:18:42Z</time>
      </trkpt>
      <trkpt lat="49.11545" lon="-0.35339">
        <ele>63.4</ele>
        <time>2024-07-03T13:18:43Z</time>
      </trkpt>
      <trkpt lat="49.11537" lon="-0.35337">
        <ele>63.4</ele>
        <time>2024-07-03T13:18:44Z</time>
      </trkpt>
      <trkpt lat="49.11529" lon="-0.35335">
        <ele>63.4</ele>
        <time>2024-07-03T13:18:45Z</time>
      </trkpt>
      <trkpt lat="49.11521" lon="-0.35333">
        <ele>63.2</ele>
        <time>2024-07-03T13:18:46Z</time>
      </trkpt>
      <trkpt lat="49.11513" lon="-0.35331">
        <ele>63.2</ele>
        <time>2024-07-03T13:18:47Z</time>
      </trkpt>
      <trkpt lat="49.11505" lon="-0.35329">
        <ele>63.2</ele>
        <time>2024-07-03T13:18:48Z</time>
      </trkpt>
      <trkpt lat="49.11497" lon="-0.35328">
        <ele>63.4</ele>
        <time>2024-07-03T13:18:49Z</time>
      </trkpt>
      <trkpt lat="49.11489" lon="-0.35326">
        <ele>63.4</ele>
        <time>2024-07-03T13:18:50Z</time>
      </trkpt>
      <trkpt lat="49.11481" lon="-0.35324">
        <ele>63.4</ele>
        <time>2024-07-03T13:18:51Z</time>
      </trkpt>
      <trkpt lat="49.11473" lon="-0.35323">
        <ele>63.8</ele>
        <time>2024-07-03T13:18:52Z</time>
      </trkpt>
      <trkpt lat="49.11465" lon="-0.35321">
        <ele>63.8</ele>
        <time>2024-07-03T13:18:53Z</time>
      </trkpt>
      <trkpt lat="49.11457" lon="-0.3532">
        <ele>64</ele>
        <time>2024-07-03T13:18:54Z</time>
      </trkpt>
      <trkpt lat="49.11449" lon="-0.35318">
        <ele>64</ele>
        <time>2024-07-03T13:18:55Z</time>
      </trkpt>
      <trkpt lat="49.11442" lon="-0.35317">
        <ele>64</ele>
        <time>2024-07-03T13:18:56Z</time>
      </trkpt>
      <trkpt lat="49.11434" lon="-0.35315">
        <ele>64</ele>
        <time>2024-07-03T13:18:57Z</time>
      </trkpt>
      <trkpt lat="49.11427" lon="-0.35314">
        <ele>64</ele>
        <time>2024-07-03T13:18:58Z</time>
      </trkpt>
      <trkpt lat="49.1142" lon="-0.35314">
        <ele>64</ele>
        <time>2024-07-03T13:18:59Z</time>
      </trkpt>
      <trkpt lat="49.11414" lon="-0.35317">
        <ele>64</ele>
        <time>2024-07-03T13:19:00Z</time>
      </trkpt>
      <trkpt lat="49.11409" lon="-0.35323">
        <ele>64</ele>
        <time>2024-07-03T13:19:01Z</time>
      </trkpt>
      <trkpt lat="49.11406" lon="-0.35331">
        <ele>64</ele>
        <time>2024-07-03T13:19:02Z</time>
      </trkpt>
      <trkpt lat="49.11404" lon="-0.35341">
        <ele>64</ele>
        <time>2024-07-03T13:19:03Z</time>
      </trkpt>
      <trkpt lat="49.11403" lon="-0.35351">
        <ele>63.8</ele>
        <time>2024-07-03T13:19:04Z</time>
      </trkpt>
      <trkpt lat="49.11402" lon="-0.35361">
        <ele>63.6</ele>
        <time>2024-07-03T13:19:05Z</time>
      </trkpt>
      <trkpt lat="49.11401" lon="-0.35373">
        <ele>63</ele>
        <time>2024-07-03T13:19:06Z</time>
      </trkpt>
      <trkpt lat="49.11399" lon="-0.35384">
        <ele>62.2</ele>
        <time>2024-07-03T13:19:07Z</time>
      </trkpt>
      <trkpt lat="49.114" lon="-0.35397">
        <ele>61.6</ele>
        <time>2024-07-03T13:19:08Z</time>
      </trkpt>
      <trkpt lat="49.11399" lon="-0.35408">
        <ele>61.4</ele>
        <time>2024-07-03T13:19:09Z</time>
      </trkpt>
      <trkpt lat="49.11402" lon="-0.3542">
        <ele>61.4</ele>
        <time>2024-07-03T13:19:10Z</time>
      </trkpt>
      <trkpt lat="49.11405" lon="-0.35432">
        <ele>61.4</ele>
        <time>2024-07-03T13:19:11Z</time>
      </trkpt>
      <trkpt lat="49.11407" lon="-0.35442">
        <ele>61.6</ele>
        <time>2024-07-03T13:19:12Z</time>
      </trkpt>
      <trkpt lat="49.11408" lon="-0.35451">
        <ele>62</ele>
        <time>2024-07-03T13:19:13Z</time>
      </trkpt>
      <trkpt lat="49.11406" lon="-0.3546">
        <ele>62.2</ele>
        <time>2024-07-03T13:19:14Z</time>
      </trkpt>
      <trkpt lat="49.114" lon="-0.35465">
        <ele>62.4</ele>
        <time>2024-07-03T13:19:15Z</time>
      </trkpt>
      <trkpt lat="49.11394" lon="-0.35465">
        <ele>62.6</ele>
        <time>2024-07-03T13:19:16Z</time>
      </trkpt>
      <trkpt lat="49.11389" lon="-0.35462">
        <ele>62.8</ele>
        <time>2024-07-03T13:19:17Z</time>
      </trkpt>
      <trkpt lat="49.11384" lon="-0.35456">
        <ele>63.2</ele>
        <time>2024-07-03T13:19:18Z</time>
      </trkpt>
      <trkpt lat="49.11379" lon="-0.3545">
        <ele>63.6</ele>
        <time>2024-07-03T13:19:19Z</time>
      </trkpt>
      <trkpt lat="49.11373" lon="-0.35446">
        <ele>64</ele>
        <time>2024-07-03T13:19:20Z</time>
      </trkpt>
      <trkpt lat="49.11367" lon="-0.35442">
        <ele>64.2</ele>
        <time>2024-07-03T13:19:21Z</time>
      </trkpt>
      <trkpt lat="49.1136" lon="-0.3544">
        <ele>64.2</ele>
        <time>2024-07-03T13:19:22Z</time>
      </trkpt>
      <trkpt lat="49.11353" lon="-0.35437">
        <ele>64.2</ele>
        <time>2024-07-03T13:19:23Z</time>
      </trkpt>
      <trkpt lat="49.11346" lon="-0.35435">
        <ele>64</ele>
        <time>2024-07-03T13:19:24Z</time>
      </trkpt>
      <trkpt lat="49.1134" lon="-0.35432">
        <ele>63.6</ele>
        <time>2024-07-03T13:19:25Z</time>
      </trkpt>
      <trkpt lat="49.11333" lon="-0.3543">
        <ele>63.6</ele>
        <time>2024-07-03T13:19:26Z</time>
      </trkpt>
      <trkpt lat="49.11326" lon="-0.35429">
        <ele>63.4</ele>
        <time>2024-07-03T13:19:27Z</time>
      </trkpt>
      <trkpt lat="49.1132" lon="-0.35427">
        <ele>63.4</ele>
        <time>2024-07-03T13:19:28Z</time>
      </trkpt>
      <trkpt lat="49.11313" lon="-0.35424">
        <ele>63.6</ele>
        <time>2024-07-03T13:19:29Z</time>
      </trkpt>
      <trkpt lat="49.11307" lon="-0.35422">
        <ele>64</ele>
        <time>2024-07-03T13:19:30Z</time>
      </trkpt>
      <trkpt lat="49.113" lon="-0.3542">
        <ele>64.4</ele>
        <time>2024-07-03T13:19:31Z</time>
      </trkpt>
      <trkpt lat="49.11294" lon="-0.35419">
        <ele>64.8</ele>
        <time>2024-07-03T13:19:32Z</time>
      </trkpt>
      <trkpt lat="49.11288" lon="-0.35417">
        <ele>65.2</ele>
        <time>2024-07-03T13:19:33Z</time>
      </trkpt>
      <trkpt lat="49.11281" lon="-0.35415">
        <ele>65.4</ele>
        <time>2024-07-03T13:19:34Z</time>
      </trkpt>
      <trkpt lat="49.11274" lon="-0.35413">
        <ele>65.8</ele>
        <time>2024-07-03T13:19:35Z</time>
      </trkpt>
      <trkpt lat="49.11268" lon="-0.35411">
        <ele>66</ele>
        <time>2024-07-03T13:19:36Z</time>
      </trkpt>
      <trkpt lat="49.11261" lon="-0.35409">
        <ele>66.2</ele>
        <time>2024-07-03T13:19:37Z</time>
      </trkpt>
      <trkpt lat="49.11254" lon="-0.35407">
        <ele>66.4</ele>
        <time>2024-07-03T13:19:38Z</time>
      </trkpt>
      <trkpt lat="49.11247" lon="-0.35404">
        <ele>66.6</ele>
        <time>2024-07-03T13:19:39Z</time>
      </trkpt>
      <trkpt lat="49.1124" lon="-0.35402">
        <ele>66.6</ele>
        <time>2024-07-03T13:19:40Z</time>
      </trkpt>
      <trkpt lat="49.11233" lon="-0.354">
        <ele>66.8</ele>
        <time>2024-07-03T13:19:41Z</time>
      </trkpt>
      <trkpt lat="49.11226" lon="-0.35398">
        <ele>67</ele>
        <time>2024-07-03T13:19:42Z</time>
      </trkpt>
      <trkpt lat="49.11219" lon="-0.35396">
        <ele>67</ele>
        <time>2024-07-03T13:19:43Z</time>
      </trkpt>
      <trkpt lat="49.11212" lon="-0.35394">
        <ele>67.2</ele>
        <time>2024-07-03T13:19:44Z</time>
      </trkpt>
      <trkpt lat="49.11205" lon="-0.35392">
        <ele>67.2</ele>
        <time>2024-07-03T13:19:45Z</time>
      </trkpt>
      <trkpt lat="49.11197" lon="-0.35389">
        <ele>67.4</ele>
        <time>2024-07-03T13:19:46Z</time>
      </trkpt>
      <trkpt lat="49.1119" lon="-0.35387">
        <ele>67.6</ele>
        <time>2024-07-03T13:19:47Z</time>
      </trkpt>
      <trkpt lat="49.11183" lon="-0.35385">
        <ele>67.8</ele>
        <time>2024-07-03T13:19:48Z</time>
      </trkpt>
      <trkpt lat="49.11176" lon="-0.35383">
        <ele>67.8</ele>
        <time>2024-07-03T13:19:49Z</time>
      </trkpt>
      <trkpt lat="49.11168" lon="-0.3538">
        <ele>68</ele>
        <time>2024-07-03T13:19:50Z</time>
      </trkpt>
      <trkpt lat="49.11161" lon="-0.35378">
        <ele>68</ele>
        <time>2024-07-03T13:19:51Z</time>
      </trkpt>
      <trkpt lat="49.11154" lon="-0.35375">
        <ele>68</ele>
        <time>2024-07-03T13:19:52Z</time>
      </trkpt>
      <trkpt lat="49.11147" lon="-0.35373">
        <ele>68.2</ele>
        <time>2024-07-03T13:19:53Z</time>
      </trkpt>
      <trkpt lat="49.1114" lon="-0.3537">
        <ele>68.2</ele>
        <time>2024-07-03T13:19:54Z</time>
      </trkpt>
      <trkpt lat="49.11132" lon="-0.35368">
        <ele>68.2</ele>
        <time>2024-07-03T13:19:55Z</time>
      </trkpt>
      <trkpt lat="49.11125" lon="-0.35366">
        <ele>68.4</ele>
        <time>2024-07-03T13:19:56Z</time>
      </trkpt>
      <trkpt lat="49.11118" lon="-0.35363">
        <ele>68.4</ele>
        <time>2024-07-03T13:19:57Z</time>
      </trkpt>
      <trkpt lat="49.1111" lon="-0.35361">
        <ele>68.4</ele>
        <time>2024-07-03T13:19:58Z</time>
      </trkpt>
      <trkpt lat="49.11103" lon="-0.35359">
        <ele>68.4</ele>
        <time>2024-07-03T13:19:59Z</time>
      </trkpt>
      <trkpt lat="49.11096" lon="-0.35357">
        <ele>68.4</ele>
        <time>2024-07-03T13:20:00Z</time>
      </trkpt>
      <trkpt lat="49.11089" lon="-0.35355">
        <ele>68.4</ele>
        <time>2024-07-03T13:20:01Z</time>
      </trkpt>
      <trkpt lat="49.11081" lon="-0.35353">
        <ele>68.6</ele>
        <time>2024-07-03T13:20:02Z</time>
      </trkpt>
      <trkpt lat="49.11074" lon="-0.3535">
        <ele>68.6</ele>
        <time>2024-07-03T13:20:03Z</time>
      </trkpt>
      <trkpt lat="49.11066" lon="-0.35348">
        <ele>68.8</ele>
        <time>2024-07-03T13:20:04Z</time>
      </trkpt>
      <trkpt lat="49.11059" lon="-0.35346">
        <ele>68.8</ele>
        <time>2024-07-03T13:20:05Z</time>
      </trkpt>
      <trkpt lat="49.11051" lon="-0.35344">
        <ele>68.8</ele>
        <time>2024-07-03T13:20:06Z</time>
      </trkpt>
      <trkpt lat="49.11044" lon="-0.35342">
        <ele>68.8</ele>
        <time>2024-07-03T13:20:07Z</time>
      </trkpt>
      <trkpt lat="49.11036" lon="-0.35339">
        <ele>68.8</ele>
        <time>2024-07-03T13:20:08Z</time>
      </trkpt>
      <trkpt lat="49.11028" lon="-0.35338">
        <ele>68.8</ele>
        <time>2024-07-03T13:20:09Z</time>
      </trkpt>
      <trkpt lat="49.1102" lon="-0.35336">
        <ele>69</ele>
        <time>2024-07-03T13:20:10Z</time>
      </trkpt>
      <trkpt lat="49.11013" lon="-0.35334">
        <ele>69</ele>
        <time>2024-07-03T13:20:11Z</time>
      </trkpt>
      <trkpt lat="49.11005" lon="-0.35332">
        <ele>69</ele>
        <time>2024-07-03T13:20:12Z</time>
      </trkpt>
      <trkpt lat="49.10998" lon="-0.35331">
        <ele>69</ele>
        <time>2024-07-03T13:20:13Z</time>
      </trkpt>
      <trkpt lat="49.1099" lon="-0.3533">
        <ele>69</ele>
        <time>2024-07-03T13:20:14Z</time>
      </trkpt>
      <trkpt lat="49.10982" lon="-0.35328">
        <ele>69.2</ele>
        <time>2024-07-03T13:20:15Z</time>
      </trkpt>
      <trkpt lat="49.10975" lon="-0.35328">
        <ele>69.2</ele>
        <time>2024-07-03T13:20:16Z</time>
      </trkpt>
      <trkpt lat="49.10967" lon="-0.35327">
        <ele>69.4</ele>
        <time>2024-07-03T13:20:17Z</time>
      </trkpt>
      <trkpt lat="49.1096" lon="-0.35326">
        <ele>69.6</ele>
        <time>2024-07-03T13:20:18Z</time>
      </trkpt>
      <trkpt lat="49.10952" lon="-0.35326">
        <ele>69.8</ele>
        <time>2024-07-03T13:20:19Z</time>
      </trkpt>
      <trkpt lat="49.10945" lon="-0.35327">
        <ele>70</ele>
        <time>2024-07-03T13:20:20Z</time>
      </trkpt>
      <trkpt lat="49.10938" lon="-0.35327">
        <ele>70.4</ele>
        <time>2024-07-03T13:20:21Z</time>
      </trkpt>
      <trkpt lat="49.1093" lon="-0.35328">
        <ele>70.6</ele>
        <time>2024-07-03T13:20:22Z</time>
      </trkpt>
      <trkpt lat="49.10922" lon="-0.35329">
        <ele>70.6</ele>
        <time>2024-07-03T13:20:23Z</time>
      </trkpt>
      <trkpt lat="49.10914" lon="-0.3533">
        <ele>70.8</ele>
        <time>2024-07-03T13:20:24Z</time>
      </trkpt>
      <trkpt lat="49.10906" lon="-0.35332">
        <ele>70.8</ele>
        <time>2024-07-03T13:20:25Z</time>
      </trkpt>
      <trkpt lat="49.10899" lon="-0.35333">
        <ele>71</ele>
        <time>2024-07-03T13:20:26Z</time>
      </trkpt>
      <trkpt lat="49.10891" lon="-0.35334">
        <ele>71</ele>
        <time>2024-07-03T13:20:27Z</time>
      </trkpt>
      <trkpt lat="49.10883" lon="-0.35335">
        <ele>70.8</ele>
        <time>2024-07-03T13:20:28Z</time>
      </trkpt>
      <trkpt lat="49.10875" lon="-0.35336">
        <ele>70.8</ele>
        <time>2024-07-03T13:20:29Z</time>
      </trkpt>
      <trkpt lat="49.10868" lon="-0.35337">
        <ele>70.8</ele>
        <time>2024-07-03T13:20:30Z</time>
      </trkpt>
      <trkpt lat="49.1086" lon="-0.35339">
        <ele>70.6</ele>
        <time>2024-07-03T13:20:31Z</time>
      </trkpt>
      <trkpt lat="49.10852" lon="-0.3534">
        <ele>70.6</ele>
        <time>2024-07-03T13:20:32Z</time>
      </trkpt>
      <trkpt lat="49.10844" lon="-0.35342">
        <ele>70.6</ele>
        <time>2024-07-03T13:20:33Z</time>
      </trkpt>
      <trkpt lat="49.10836" lon="-0.35344">
        <ele>70.8</ele>
        <time>2024-07-03T13:20:34Z</time>
      </trkpt>
      <trkpt lat="49.10828" lon="-0.35345">
        <ele>71</ele>
        <time>2024-07-03T13:20:35Z</time>
      </trkpt>
      <trkpt lat="49.1082" lon="-0.35347">
        <ele>71</ele>
        <time>2024-07-03T13:20:36Z</time>
      </trkpt>
      <trkpt lat="49.10812" lon="-0.35348">
        <ele>71.2</ele>
        <time>2024-07-03T13:20:37Z</time>
      </trkpt>
      <trkpt lat="49.10805" lon="-0.3535">
        <ele>71.4</ele>
        <time>2024-07-03T13:20:38Z</time>
      </trkpt>
      <trkpt lat="49.10797" lon="-0.35352">
        <ele>71.4</ele>
        <time>2024-07-03T13:20:39Z</time>
      </trkpt>
      <trkpt lat="49.10788" lon="-0.35353">
        <ele>71.6</ele>
        <time>2024-07-03T13:20:40Z</time>
      </trkpt>
      <trkpt lat="49.10781" lon="-0.35355">
        <ele>71.6</ele>
        <time>2024-07-03T13:20:41Z</time>
      </trkpt>
      <trkpt lat="49.10773" lon="-0.35356">
        <ele>71.6</ele>
        <time>2024-07-03T13:20:42Z</time>
      </trkpt>
      <trkpt lat="49.10765" lon="-0.35358">
        <ele>72</ele>
        <time>2024-07-03T13:20:43Z</time>
      </trkpt>
      <trkpt lat="49.10757" lon="-0.35359">
        <ele>72</ele>
        <time>2024-07-03T13:20:44Z</time>
      </trkpt>
      <trkpt lat="49.10749" lon="-0.35361">
        <ele>72.2</ele>
        <time>2024-07-03T13:20:45Z</time>
      </trkpt>
      <trkpt lat="49.10742" lon="-0.35362">
        <ele>72.2</ele>
        <time>2024-07-03T13:20:46Z</time>
      </trkpt>
      <trkpt lat="49.10734" lon="-0.35364">
        <ele>72.2</ele>
        <time>2024-07-03T13:20:47Z</time>
      </trkpt>
      <trkpt lat="49.10726" lon="-0.35365">
        <ele>72.2</ele>
        <time>2024-07-03T13:20:48Z</time>
      </trkpt>
      <trkpt lat="49.10718" lon="-0.35367">
        <ele>72.2</ele>
        <time>2024-07-03T13:20:49Z</time>
      </trkpt>
      <trkpt lat="49.10711" lon="-0.35369">
        <ele>72</ele>
        <time>2024-07-03T13:20:50Z</time>
      </trkpt>
      <trkpt lat="49.10703" lon="-0.35371">
        <ele>72</ele>
        <time>2024-07-03T13:20:51Z</time>
      </trkpt>
      <trkpt lat="49.10696" lon="-0.35373">
        <ele>72</ele>
        <time>2024-07-03T13:20:52Z</time>
      </trkpt>
      <trkpt lat="49.10688" lon="-0.35374">
        <ele>72.4</ele>
        <time>2024-07-03T13:20:53Z</time>
      </trkpt>
      <trkpt lat="49.10681" lon="-0.35376">
        <ele>72.6</ele>
        <time>2024-07-03T13:20:54Z</time>
      </trkpt>
      <trkpt lat="49.10674" lon="-0.35376">
        <ele>72.8</ele>
        <time>2024-07-03T13:20:55Z</time>
      </trkpt>
      <trkpt lat="49.10666" lon="-0.35376">
        <ele>73</ele>
        <time>2024-07-03T13:20:56Z</time>
      </trkpt>
      <trkpt lat="49.10659" lon="-0.35376">
        <ele>73</ele>
        <time>2024-07-03T13:20:57Z</time>
      </trkpt>
      <trkpt lat="49.10652" lon="-0.35375">
        <ele>73.2</ele>
        <time>2024-07-03T13:20:58Z</time>
      </trkpt>
      <trkpt lat="49.10644" lon="-0.35374">
        <ele>73.2</ele>
        <time>2024-07-03T13:20:59Z</time>
      </trkpt>
      <trkpt lat="49.10637" lon="-0.35373">
        <ele>73.4</ele>
        <time>2024-07-03T13:21:00Z</time>
      </trkpt>
      <trkpt lat="49.1063" lon="-0.35373">
        <ele>73.4</ele>
        <time>2024-07-03T13:21:01Z</time>
      </trkpt>
      <trkpt lat="49.10623" lon="-0.35372">
        <ele>73.4</ele>
        <time>2024-07-03T13:21:02Z</time>
      </trkpt>
      <trkpt lat="49.10615" lon="-0.35371">
        <ele>73.4</ele>
        <time>2024-07-03T13:21:03Z</time>
      </trkpt>
      <trkpt lat="49.10608" lon="-0.3537">
        <ele>73.6</ele>
        <time>2024-07-03T13:21:04Z</time>
      </trkpt>
      <trkpt lat="49.106" lon="-0.35369">
        <ele>73.6</ele>
        <time>2024-07-03T13:21:05Z</time>
      </trkpt>
      <trkpt lat="49.10593" lon="-0.35368">
        <ele>73.6</ele>
        <time>2024-07-03T13:21:06Z</time>
      </trkpt>
      <trkpt lat="49.10585" lon="-0.35367">
        <ele>73.8</ele>
        <time>2024-07-03T13:21:07Z</time>
      </trkpt>
      <trkpt lat="49.10577" lon="-0.35367">
        <ele>74.2</ele>
        <time>2024-07-03T13:21:08Z</time>
      </trkpt>
      <trkpt lat="49.1057" lon="-0.35366">
        <ele>74.6</ele>
        <time>2024-07-03T13:21:09Z</time>
      </trkpt>
      <trkpt lat="49.10562" lon="-0.35366">
        <ele>74.8</ele>
        <time>2024-07-03T13:21:10Z</time>
      </trkpt>
      <trkpt lat="49.10554" lon="-0.35367">
        <ele>75.2</ele>
        <time>2024-07-03T13:21:11Z</time>
      </trkpt>
      <trkpt lat="49.10546" lon="-0.35367">
        <ele>75.4</ele>
        <time>2024-07-03T13:21:12Z</time>
      </trkpt>
      <trkpt lat="49.10539" lon="-0.35367">
        <ele>75.6</ele>
        <time>2024-07-03T13:21:13Z</time>
      </trkpt>
      <trkpt lat="49.10531" lon="-0.35368">
        <ele>75.6</ele>
        <time>2024-07-03T13:21:14Z</time>
      </trkpt>
      <trkpt lat="49.10524" lon="-0.35369">
        <ele>75.8</ele>
        <time>2024-07-03T13:21:15Z</time>
      </trkpt>
      <trkpt lat="49.10516" lon="-0.35369">
        <ele>75.8</ele>
        <time>2024-07-03T13:21:16Z</time>
      </trkpt>
      <trkpt lat="49.10508" lon="-0.35369">
        <ele>76</ele>
        <time>2024-07-03T13:21:17Z</time>
      </trkpt>
      <trkpt lat="49.10501" lon="-0.3537">
        <ele>76.2</ele>
        <time>2024-07-03T13:21:18Z</time>
      </trkpt>
      <trkpt lat="49.10493" lon="-0.35371">
        <ele>76.6</ele>
        <time>2024-07-03T13:21:19Z</time>
      </trkpt>
      <trkpt lat="49.10485" lon="-0.35372">
        <ele>76.6</ele>
        <time>2024-07-03T13:21:20Z</time>
      </trkpt>
      <trkpt lat="49.10477" lon="-0.35372">
        <ele>76.8</ele>
        <time>2024-07-03T13:21:21Z</time>
      </trkpt>
      <trkpt lat="49.1047" lon="-0.35373">
        <ele>76.8</ele>
        <time>2024-07-03T13:21:22Z</time>
      </trkpt>
      <trkpt lat="49.10462" lon="-0.35374">
        <ele>77</ele>
        <time>2024-07-03T13:21:23Z</time>
      </trkpt>
      <trkpt lat="49.10455" lon="-0.35375">
        <ele>77.2</ele>
        <time>2024-07-03T13:21:24Z</time>
      </trkpt>
      <trkpt lat="49.10447" lon="-0.35375">
        <ele>77.4</ele>
        <time>2024-07-03T13:21:25Z</time>
      </trkpt>
      <trkpt lat="49.10439" lon="-0.35376">
        <ele>77.4</ele>
        <time>2024-07-03T13:21:26Z</time>
      </trkpt>
      <trkpt lat="49.10432" lon="-0.35377">
        <ele>77.4</ele>
        <time>2024-07-03T13:21:27Z</time>
      </trkpt>
      <trkpt lat="49.10424" lon="-0.35377">
        <ele>77.6</ele>
        <time>2024-07-03T13:21:28Z</time>
      </trkpt>
      <trkpt lat="49.10417" lon="-0.35378">
        <ele>77.6</ele>
        <time>2024-07-03T13:21:29Z</time>
      </trkpt>
      <trkpt lat="49.1041" lon="-0.35379">
        <ele>77.6</ele>
        <time>2024-07-03T13:21:30Z</time>
      </trkpt>
      <trkpt lat="49.10402" lon="-0.3538">
        <ele>77.8</ele>
        <time>2024-07-03T13:21:31Z</time>
      </trkpt>
      <trkpt lat="49.10395" lon="-0.35381">
        <ele>78</ele>
        <time>2024-07-03T13:21:32Z</time>
      </trkpt>
      <trkpt lat="49.10387" lon="-0.35382">
        <ele>78.2</ele>
        <time>2024-07-03T13:21:33Z</time>
      </trkpt>
      <trkpt lat="49.1038" lon="-0.35382">
        <ele>78.4</ele>
        <time>2024-07-03T13:21:34Z</time>
      </trkpt>
      <trkpt lat="49.10373" lon="-0.35383">
        <ele>78.6</ele>
        <time>2024-07-03T13:21:35Z</time>
      </trkpt>
      <trkpt lat="49.10365" lon="-0.35383">
        <ele>79</ele>
        <time>2024-07-03T13:21:36Z</time>
      </trkpt>
      <trkpt lat="49.10358" lon="-0.35383">
        <ele>79</ele>
        <time>2024-07-03T13:21:37Z</time>
      </trkpt>
      <trkpt lat="49.1035" lon="-0.35384">
        <ele>79</ele>
        <time>2024-07-03T13:21:38Z</time>
      </trkpt>
      <trkpt lat="49.10343" lon="-0.35384">
        <ele>79</ele>
        <time>2024-07-03T13:21:39Z</time>
      </trkpt>
      <trkpt lat="49.10335" lon="-0.35384">
        <ele>79</ele>
        <time>2024-07-03T13:21:40Z</time>
      </trkpt>
      <trkpt lat="49.10327" lon="-0.35384">
        <ele>79.2</ele>
        <time>2024-07-03T13:21:41Z</time>
      </trkpt>
      <trkpt lat="49.10319" lon="-0.35384">
        <ele>79.2</ele>
        <time>2024-07-03T13:21:42Z</time>
      </trkpt>
      <trkpt lat="49.10311" lon="-0.35384">
        <ele>79.2</ele>
        <time>2024-07-03T13:21:43Z</time>
      </trkpt>
      <trkpt lat="49.10303" lon="-0.35384">
        <ele>79.4</ele>
        <time>2024-07-03T13:21:44Z</time>
      </trkpt>
      <trkpt lat="49.10296" lon="-0.35384">
        <ele>79.6</ele>
        <time>2024-07-03T13:21:45Z</time>
      </trkpt>
      <trkpt lat="49.10288" lon="-0.35384">
        <ele>79.8</ele>
        <time>2024-07-03T13:21:46Z</time>
      </trkpt>
      <trkpt lat="49.1028" lon="-0.35384">
        <ele>80</ele>
        <time>2024-07-03T13:21:47Z</time>
      </trkpt>
      <trkpt lat="49.10272" lon="-0.35384">
        <ele>80.2</ele>
        <time>2024-07-03T13:21:48Z</time>
      </trkpt>
      <trkpt lat="49.10264" lon="-0.35384">
        <ele>80.2</ele>
        <time>2024-07-03T13:21:49Z</time>
      </trkpt>
      <trkpt lat="49.10257" lon="-0.35384">
        <ele>80.2</ele>
        <time>2024-07-03T13:21:50Z</time>
      </trkpt>
      <trkpt lat="49.10249" lon="-0.35384">
        <ele>80.4</ele>
        <time>2024-07-03T13:21:51Z</time>
      </trkpt>
      <trkpt lat="49.10241" lon="-0.35384">
        <ele>80.4</ele>
        <time>2024-07-03T13:21:52Z</time>
      </trkpt>
      <trkpt lat="49.10233" lon="-0.35384">
        <ele>80.4</ele>
        <time>2024-07-03T13:21:53Z</time>
      </trkpt>
      <trkpt lat="49.10224" lon="-0.35385">
        <ele>80.4</ele>
        <time>2024-07-03T13:21:54Z</time>
      </trkpt>
      <trkpt lat="49.10216" lon="-0.35385">
        <ele>80.4</ele>
        <time>2024-07-03T13:21:55Z</time>
      </trkpt>
      <trkpt lat="49.10209" lon="-0.35385">
        <ele>80.4</ele>
        <time>2024-07-03T13:21:56Z</time>
      </trkpt>
      <trkpt lat="49.10201" lon="-0.35385">
        <ele>80.4</ele>
        <time>2024-07-03T13:21:57Z</time>
      </trkpt>
      <trkpt lat="49.10193" lon="-0.35385">
        <ele>80.6</ele>
        <time>2024-07-03T13:21:58Z</time>
      </trkpt>
      <trkpt lat="49.10185" lon="-0.35385">
        <ele>80.6</ele>
        <time>2024-07-03T13:21:59Z</time>
      </trkpt>
      <trkpt lat="49.10177" lon="-0.35385">
        <ele>80.8</ele>
        <time>2024-07-03T13:22:00Z</time>
      </trkpt>
      <trkpt lat="49.10169" lon="-0.35384">
        <ele>80.8</ele>
        <time>2024-07-03T13:22:01Z</time>
      </trkpt>
      <trkpt lat="49.10161" lon="-0.35384">
        <ele>80.8</ele>
        <time>2024-07-03T13:22:02Z</time>
      </trkpt>
      <trkpt lat="49.10153" lon="-0.35383">
        <ele>81</ele>
        <time>2024-07-03T13:22:03Z</time>
      </trkpt>
      <trkpt lat="49.10145" lon="-0.35382">
        <ele>81</ele>
        <time>2024-07-03T13:22:04Z</time>
      </trkpt>
      <trkpt lat="49.10136" lon="-0.35381">
        <ele>81</ele>
        <time>2024-07-03T13:22:05Z</time>
      </trkpt>
      <trkpt lat="49.10128" lon="-0.3538">
        <ele>81</ele>
        <time>2024-07-03T13:22:06Z</time>
      </trkpt>
      <trkpt lat="49.1012" lon="-0.35379">
        <ele>81</ele>
        <time>2024-07-03T13:22:07Z</time>
      </trkpt>
      <trkpt lat="49.10112" lon="-0.35378">
        <ele>81</ele>
        <time>2024-07-03T13:22:08Z</time>
      </trkpt>
      <trkpt lat="49.10105" lon="-0.35377">
        <ele>81</ele>
        <time>2024-07-03T13:22:09Z</time>
      </trkpt>
      <trkpt lat="49.10097" lon="-0.35376">
        <ele>81.2</ele>
        <time>2024-07-03T13:22:10Z</time>
      </trkpt>
      <trkpt lat="49.10089" lon="-0.35375">
        <ele>81.2</ele>
        <time>2024-07-03T13:22:11Z</time>
      </trkpt>
      <trkpt lat="49.1008" lon="-0.35375">
        <ele>81</ele>
        <time>2024-07-03T13:22:12Z</time>
      </trkpt>
      <trkpt lat="49.10072" lon="-0.35374">
        <ele>81</ele>
        <time>2024-07-03T13:22:13Z</time>
      </trkpt>
      <trkpt lat="49.10064" lon="-0.35374">
        <ele>81</ele>
        <time>2024-07-03T13:22:14Z</time>
      </trkpt>
      <trkpt lat="49.10056" lon="-0.35374">
        <ele>81</ele>
        <time>2024-07-03T13:22:15Z</time>
      </trkpt>
      <trkpt lat="49.10048" lon="-0.35374">
        <ele>80.8</ele>
        <time>2024-07-03T13:22:16Z</time>
      </trkpt>
      <trkpt lat="49.10039" lon="-0.35375">
        <ele>80.8</ele>
        <time>2024-07-03T13:22:17Z</time>
      </trkpt>
      <trkpt lat="49.10031" lon="-0.35376">
        <ele>80.8</ele>
        <time>2024-07-03T13:22:18Z</time>
      </trkpt>
      <trkpt lat="49.10022" lon="-0.35377">
        <ele>80.8</ele>
        <time>2024-07-03T13:22:19Z</time>
      </trkpt>
      <trkpt lat="49.10014" lon="-0.35377">
        <ele>80.8</ele>
        <time>2024-07-03T13:22:20Z</time>
      </trkpt>
      <trkpt lat="49.10005" lon="-0.35378">
        <ele>80.8</ele>
        <time>2024-07-03T13:22:21Z</time>
      </trkpt>
      <trkpt lat="49.09996" lon="-0.35378">
        <ele>80.6</ele>
        <time>2024-07-03T13:22:22Z</time>
      </trkpt>
      <trkpt lat="49.09988" lon="-0.35378">
        <ele>80.2</ele>
        <time>2024-07-03T13:22:23Z</time>
      </trkpt>
      <trkpt lat="49.09979" lon="-0.35379">
        <ele>79.8</ele>
        <time>2024-07-03T13:22:24Z</time>
      </trkpt>
      <trkpt lat="49.0997" lon="-0.35379">
        <ele>79.8</ele>
        <time>2024-07-03T13:22:25Z</time>
      </trkpt>
      <trkpt lat="49.09962" lon="-0.35379">
        <ele>79.4</ele>
        <time>2024-07-03T13:22:26Z</time>
      </trkpt>
      <trkpt lat="49.09954" lon="-0.35379">
        <ele>79.2</ele>
        <time>2024-07-03T13:22:27Z</time>
      </trkpt>
      <trkpt lat="49.09945" lon="-0.3538">
        <ele>78.8</ele>
        <time>2024-07-03T13:22:28Z</time>
      </trkpt>
      <trkpt lat="49.09936" lon="-0.3538">
        <ele>78.8</ele>
        <time>2024-07-03T13:22:29Z</time>
      </trkpt>
      <trkpt lat="49.09928" lon="-0.3538">
        <ele>78.6</ele>
        <time>2024-07-03T13:22:30Z</time>
      </trkpt>
      <trkpt lat="49.09921" lon="-0.3538">
        <ele>78.4</ele>
        <time>2024-07-03T13:22:31Z</time>
      </trkpt>
      <trkpt lat="49.09914" lon="-0.35381">
        <ele>78.2</ele>
        <time>2024-07-03T13:22:32Z</time>
      </trkpt>
      <trkpt lat="49.09907" lon="-0.35383">
        <ele>78</ele>
        <time>2024-07-03T13:22:33Z</time>
      </trkpt>
      <trkpt lat="49.09901" lon="-0.35386">
        <ele>77.8</ele>
        <time>2024-07-03T13:22:34Z</time>
      </trkpt>
      <trkpt lat="49.09896" lon="-0.3539">
        <ele>77.6</ele>
        <time>2024-07-03T13:22:35Z</time>
      </trkpt>
      <trkpt lat="49.09891" lon="-0.35392">
        <ele>77.4</ele>
        <time>2024-07-03T13:22:36Z</time>
      </trkpt>
      <trkpt lat="49.09884" lon="-0.35393">
        <ele>77.6</ele>
        <time>2024-07-03T13:22:37Z</time>
      </trkpt>
      <trkpt lat="49.09878" lon="-0.35389">
        <ele>77.6</ele>
        <time>2024-07-03T13:22:38Z</time>
      </trkpt>
      <trkpt lat="49.09872" lon="-0.35384">
        <ele>77.6</ele>
        <time>2024-07-03T13:22:39Z</time>
      </trkpt>
      <trkpt lat="49.09865" lon="-0.35378">
        <ele>77.6</ele>
        <time>2024-07-03T13:22:40Z</time>
      </trkpt>
      <trkpt lat="49.09857" lon="-0.35373">
        <ele>77.4</ele>
        <time>2024-07-03T13:22:41Z</time>
      </trkpt>
      <trkpt lat="49.09849" lon="-0.35368">
        <ele>77</ele>
        <time>2024-07-03T13:22:42Z</time>
      </trkpt>
      <trkpt lat="49.0984" lon="-0.35364">
        <ele>76.2</ele>
        <time>2024-07-03T13:22:43Z</time>
      </trkpt>
      <trkpt lat="49.09831" lon="-0.35358">
        <ele>75.2</ele>
        <time>2024-07-03T13:22:44Z</time>
      </trkpt>
      <trkpt lat="49.09822" lon="-0.35352">
        <ele>74</ele>
        <time>2024-07-03T13:22:45Z</time>
      </trkpt>
      <trkpt lat="49.09813" lon="-0.35346">
        <ele>72.6</ele>
        <time>2024-07-03T13:22:46Z</time>
      </trkpt>
      <trkpt lat="49.09804" lon="-0.35339">
        <ele>71.6</ele>
        <time>2024-07-03T13:22:47Z</time>
      </trkpt>
      <trkpt lat="49.09794" lon="-0.35331">
        <ele>70.4</ele>
        <time>2024-07-03T13:22:48Z</time>
      </trkpt>
      <trkpt lat="49.09785" lon="-0.35324">
        <ele>69.4</ele>
        <time>2024-07-03T13:22:49Z</time>
      </trkpt>
      <trkpt lat="49.09776" lon="-0.35316">
        <ele>68.6</ele>
        <time>2024-07-03T13:22:50Z</time>
      </trkpt>
      <trkpt lat="49.09768" lon="-0.35305">
        <ele>68.2</ele>
        <time>2024-07-03T13:22:51Z</time>
      </trkpt>
      <trkpt lat="49.09758" lon="-0.35296">
        <ele>67.8</ele>
        <time>2024-07-03T13:22:52Z</time>
      </trkpt>
      <trkpt lat="49.09749" lon="-0.35287">
        <ele>67.4</ele>
        <time>2024-07-03T13:22:53Z</time>
      </trkpt>
      <trkpt lat="49.09739" lon="-0.35276">
        <ele>67</ele>
        <time>2024-07-03T13:22:54Z</time>
      </trkpt>
      <trkpt lat="49.0973" lon="-0.35266">
        <ele>66.2</ele>
        <time>2024-07-03T13:22:55Z</time>
      </trkpt>
      <trkpt lat="49.0972" lon="-0.35256">
        <ele>65.4</ele>
        <time>2024-07-03T13:22:56Z</time>
      </trkpt>
      <trkpt lat="49.09711" lon="-0.35245">
        <ele>64.4</ele>
        <time>2024-07-03T13:22:57Z</time>
      </trkpt>
      <trkpt lat="49.09701" lon="-0.35235">
        <ele>63.8</ele>
        <time>2024-07-03T13:22:58Z</time>
      </trkpt>
      <trkpt lat="49.09691" lon="-0.35225">
        <ele>63.2</ele>
        <time>2024-07-03T13:22:59Z</time>
      </trkpt>
      <trkpt lat="49.09681" lon="-0.35215">
        <ele>62.4</ele>
        <time>2024-07-03T13:23:00Z</time>
      </trkpt>
      <trkpt lat="49.09671" lon="-0.35204">
        <ele>61.8</ele>
        <time>2024-07-03T13:23:01Z</time>
      </trkpt>
      <trkpt lat="49.0966" lon="-0.35195">
        <ele>60.8</ele>
        <time>2024-07-03T13:23:02Z</time>
      </trkpt>
      <trkpt lat="49.09648" lon="-0.35187">
        <ele>60</ele>
        <time>2024-07-03T13:23:03Z</time>
      </trkpt>
      <trkpt lat="49.09636" lon="-0.3518">
        <ele>59.2</ele>
        <time>2024-07-03T13:23:04Z</time>
      </trkpt>
      <trkpt lat="49.09624" lon="-0.35174">
        <ele>57.8</ele>
        <time>2024-07-03T13:23:05Z</time>
      </trkpt>
      <trkpt lat="49.09612" lon="-0.3517">
        <ele>56.6</ele>
        <time>2024-07-03T13:23:06Z</time>
      </trkpt>
      <trkpt lat="49.09601" lon="-0.35166">
        <ele>55.4</ele>
        <time>2024-07-03T13:23:07Z</time>
      </trkpt>
      <trkpt lat="49.09591" lon="-0.35164">
        <ele>54.8</ele>
        <time>2024-07-03T13:23:08Z</time>
      </trkpt>
      <trkpt lat="49.09581" lon="-0.35163">
        <ele>54.4</ele>
        <time>2024-07-03T13:23:09Z</time>
      </trkpt>
      <trkpt lat="49.0957" lon="-0.35162">
        <ele>54.2</ele>
        <time>2024-07-03T13:23:10Z</time>
      </trkpt>
      <trkpt lat="49.0956" lon="-0.35163">
        <ele>54</ele>
        <time>2024-07-03T13:23:11Z</time>
      </trkpt>
      <trkpt lat="49.09551" lon="-0.35161">
        <ele>53.8</ele>
        <time>2024-07-03T13:23:12Z</time>
      </trkpt>
      <trkpt lat="49.09543" lon="-0.35158">
        <ele>53.8</ele>
        <time>2024-07-03T13:23:13Z</time>
      </trkpt>
      <trkpt lat="49.09535" lon="-0.35155">
        <ele>53.6</ele>
        <time>2024-07-03T13:23:14Z</time>
      </trkpt>
      <trkpt lat="49.09527" lon="-0.35153">
        <ele>53.4</ele>
        <time>2024-07-03T13:23:15Z</time>
      </trkpt>
      <trkpt lat="49.09518" lon="-0.35151">
        <ele>53</ele>
        <time>2024-07-03T13:23:16Z</time>
      </trkpt>
      <trkpt lat="49.0951" lon="-0.35149">
        <ele>52.4</ele>
        <time>2024-07-03T13:23:17Z</time>
      </trkpt>
      <trkpt lat="49.09501" lon="-0.35147">
        <ele>52</ele>
        <time>2024-07-03T13:23:18Z</time>
      </trkpt>
      <trkpt lat="49.09492" lon="-0.35146">
        <ele>51.8</ele>
        <time>2024-07-03T13:23:19Z</time>
      </trkpt>
      <trkpt lat="49.09483" lon="-0.35144">
        <ele>51.6</ele>
        <time>2024-07-03T13:23:20Z</time>
      </trkpt>
      <trkpt lat="49.09474" lon="-0.35142">
        <ele>51.2</ele>
        <time>2024-07-03T13:23:21Z</time>
      </trkpt>
      <trkpt lat="49.09465" lon="-0.35138">
        <ele>50.8</ele>
        <time>2024-07-03T13:23:22Z</time>
      </trkpt>
      <trkpt lat="49.09457" lon="-0.35133">
        <ele>50.8</ele>
        <time>2024-07-03T13:23:23Z</time>
      </trkpt>
      <trkpt lat="49.09448" lon="-0.35129">
        <ele>50.6</ele>
        <time>2024-07-03T13:23:24Z</time>
      </trkpt>
      <trkpt lat="49.09439" lon="-0.35125">
        <ele>50.2</ele>
        <time>2024-07-03T13:23:25Z</time>
      </trkpt>
      <trkpt lat="49.09432" lon="-0.35122">
        <ele>50.2</ele>
        <time>2024-07-03T13:23:26Z</time>
      </trkpt>
      <trkpt lat="49.09426" lon="-0.35119">
        <ele>50.2</ele>
        <time>2024-07-03T13:23:27Z</time>
      </trkpt>
      <trkpt lat="49.09421" lon="-0.35118">
        <ele>50.2</ele>
        <time>2024-07-03T13:23:28Z</time>
      </trkpt>
      <trkpt lat="49.09418" lon="-0.35119">
        <ele>50.4</ele>
        <time>2024-07-03T13:23:29Z</time>
      </trkpt>
      <trkpt lat="49.09417" lon="-0.35118">
        <ele>50.8</ele>
        <time>2024-07-03T13:23:30Z</time>
      </trkpt>
      <trkpt lat="49.09418" lon="-0.35117">
        <ele>51.2</ele>
        <time>2024-07-03T13:23:31Z</time>
      </trkpt>
      <trkpt lat="49.09417" lon="-0.35118">
        <ele>51.6</ele>
        <time>2024-07-03T13:23:32Z</time>
      </trkpt>
      <trkpt lat="49.09416" lon="-0.35116">
        <ele>52.4</ele>
        <time>2024-07-03T13:24:13Z</time>
      </trkpt>
      <trkpt lat="49.09414" lon="-0.35116">
        <ele>52.2</ele>
        <time>2024-07-03T13:24:14Z</time>
      </trkpt>
      <trkpt lat="49.09411" lon="-0.35116">
        <ele>52.2</ele>
        <time>2024-07-03T13:24:15Z</time>
      </trkpt>
      <trkpt lat="49.09408" lon="-0.35117">
        <ele>52</ele>
        <time>2024-07-03T13:24:16Z</time>
      </trkpt>
      <trkpt lat="49.09404" lon="-0.35118">
        <ele>51.8</ele>
        <time>2024-07-03T13:24:17Z</time>
      </trkpt>
      <trkpt lat="49.09401" lon="-0.35121">
        <ele>51.6</ele>
        <time>2024-07-03T13:24:18Z</time>
      </trkpt>
      <trkpt lat="49.09399" lon="-0.35124">
        <ele>51.4</ele>
        <time>2024-07-03T13:24:19Z</time>
      </trkpt>
      <trkpt lat="49.09396" lon="-0.35128">
        <ele>51.2</ele>
        <time>2024-07-03T13:24:20Z</time>
      </trkpt>
      <trkpt lat="49.09395" lon="-0.35133">
        <ele>51</ele>
        <time>2024-07-03T13:24:21Z</time>
      </trkpt>
      <trkpt lat="49.09393" lon="-0.35139">
        <ele>50.8</ele>
        <time>2024-07-03T13:24:22Z</time>
      </trkpt>
      <trkpt lat="49.09391" lon="-0.35144">
        <ele>50.6</ele>
        <time>2024-07-03T13:24:23Z</time>
      </trkpt>
      <trkpt lat="49.09389" lon="-0.35151">
        <ele>50.4</ele>
        <time>2024-07-03T13:24:24Z</time>
      </trkpt>
      <trkpt lat="49.09388" lon="-0.35158">
        <ele>50.2</ele>
        <time>2024-07-03T13:24:25Z</time>
      </trkpt>
      <trkpt lat="49.09386" lon="-0.35165">
        <ele>50.2</ele>
        <time>2024-07-03T13:24:26Z</time>
      </trkpt>
      <trkpt lat="49.09385" lon="-0.35172">
        <ele>50.2</ele>
        <time>2024-07-03T13:24:27Z</time>
      </trkpt>
      <trkpt lat="49.09383" lon="-0.3518">
        <ele>50</ele>
        <time>2024-07-03T13:24:28Z</time>
      </trkpt>
      <trkpt lat="49.09381" lon="-0.35188">
        <ele>50</ele>
        <time>2024-07-03T13:24:29Z</time>
      </trkpt>
      <trkpt lat="49.09378" lon="-0.35197">
        <ele>50</ele>
        <time>2024-07-03T13:24:30Z</time>
      </trkpt>
      <trkpt lat="49.09376" lon="-0.35206">
        <ele>49.8</ele>
        <time>2024-07-03T13:24:31Z</time>
      </trkpt>
      <trkpt lat="49.09374" lon="-0.35215">
        <ele>49.4</ele>
        <time>2024-07-03T13:24:32Z</time>
      </trkpt>
      <trkpt lat="49.09371" lon="-0.35224">
        <ele>49.2</ele>
        <time>2024-07-03T13:24:33Z</time>
      </trkpt>
      <trkpt lat="49.09368" lon="-0.35233">
        <ele>48.8</ele>
        <time>2024-07-03T13:24:34Z</time>
      </trkpt>
      <trkpt lat="49.09366" lon="-0.35243">
        <ele>48.6</ele>
        <time>2024-07-03T13:24:35Z</time>
      </trkpt>
      <trkpt lat="49.09363" lon="-0.35252">
        <ele>48.6</ele>
        <time>2024-07-03T13:24:36Z</time>
      </trkpt>
      <trkpt lat="49.09359" lon="-0.35261">
        <ele>48.4</ele>
        <time>2024-07-03T13:24:37Z</time>
      </trkpt>
      <trkpt lat="49.09356" lon="-0.3527">
        <ele>48.4</ele>
        <time>2024-07-03T13:24:38Z</time>
      </trkpt>
      <trkpt lat="49.09352" lon="-0.35279">
        <ele>48.4</ele>
        <time>2024-07-03T13:24:39Z</time>
      </trkpt>
      <trkpt lat="49.09348" lon="-0.35288">
        <ele>48.4</ele>
        <time>2024-07-03T13:24:40Z</time>
      </trkpt>
      <trkpt lat="49.09343" lon="-0.35297">
        <ele>48.4</ele>
        <time>2024-07-03T13:24:41Z</time>
      </trkpt>
      <trkpt lat="49.09339" lon="-0.35305">
        <ele>48.4</ele>
        <time>2024-07-03T13:24:42Z</time>
      </trkpt>
      <trkpt lat="49.09334" lon="-0.35314">
        <ele>48.2</ele>
        <time>2024-07-03T13:24:43Z</time>
      </trkpt>
      <trkpt lat="49.09329" lon="-0.35323">
        <ele>48</ele>
        <time>2024-07-03T13:24:44Z</time>
      </trkpt>
      <trkpt lat="49.09324" lon="-0.35333">
        <ele>48.2</ele>
        <time>2024-07-03T13:24:45Z</time>
      </trkpt>
      <trkpt lat="49.09319" lon="-0.35342">
        <ele>48.2</ele>
        <time>2024-07-03T13:24:46Z</time>
      </trkpt>
      <trkpt lat="49.09315" lon="-0.35352">
        <ele>48</ele>
        <time>2024-07-03T13:24:47Z</time>
      </trkpt>
      <trkpt lat="49.0931" lon="-0.35362">
        <ele>47.8</ele>
        <time>2024-07-03T13:24:48Z</time>
      </trkpt>
      <trkpt lat="49.09306" lon="-0.35372">
        <ele>47.6</ele>
        <time>2024-07-03T13:24:49Z</time>
      </trkpt>
      <trkpt lat="49.09301" lon="-0.35382">
        <ele>47.2</ele>
        <time>2024-07-03T13:24:50Z</time>
      </trkpt>
      <trkpt lat="49.09297" lon="-0.35392">
        <ele>46.6</ele>
        <time>2024-07-03T13:24:51Z</time>
      </trkpt>
      <trkpt lat="49.09293" lon="-0.35403">
        <ele>46</ele>
        <time>2024-07-03T13:24:52Z</time>
      </trkpt>
      <trkpt lat="49.09289" lon="-0.35414">
        <ele>45.6</ele>
        <time>2024-07-03T13:24:53Z</time>
      </trkpt>
      <trkpt lat="49.09283" lon="-0.35425">
        <ele>45.2</ele>
        <time>2024-07-03T13:24:54Z</time>
      </trkpt>
      <trkpt lat="49.09278" lon="-0.35436">
        <ele>44.8</ele>
        <time>2024-07-03T13:24:55Z</time>
      </trkpt>
      <trkpt lat="49.09274" lon="-0.35447">
        <ele>44.6</ele>
        <time>2024-07-03T13:24:56Z</time>
      </trkpt>
      <trkpt lat="49.09268" lon="-0.35458">
        <ele>44.6</ele>
        <time>2024-07-03T13:24:57Z</time>
      </trkpt>
      <trkpt lat="49.09263" lon="-0.35468">
        <ele>44.4</ele>
        <time>2024-07-03T13:24:58Z</time>
      </trkpt>
      <trkpt lat="49.09258" lon="-0.35479">
        <ele>44.2</ele>
        <time>2024-07-03T13:24:59Z</time>
      </trkpt>
      <trkpt lat="49.09254" lon="-0.35488">
        <ele>44.2</ele>
        <time>2024-07-03T13:25:00Z</time>
      </trkpt>
      <trkpt lat="49.0925" lon="-0.35498">
        <ele>44.2</ele>
        <time>2024-07-03T13:25:01Z</time>
      </trkpt>
      <trkpt lat="49.09245" lon="-0.35507">
        <ele>44.4</ele>
        <time>2024-07-03T13:25:02Z</time>
      </trkpt>
      <trkpt lat="49.0924" lon="-0.35517">
        <ele>44.4</ele>
        <time>2024-07-03T13:25:03Z</time>
      </trkpt>
      <trkpt lat="49.09237" lon="-0.35525">
        <ele>44.4</ele>
        <time>2024-07-03T13:25:04Z</time>
      </trkpt>
      <trkpt lat="49.09233" lon="-0.35531">
        <ele>44.4</ele>
        <time>2024-07-03T13:25:05Z</time>
      </trkpt>
      <trkpt lat="49.09228" lon="-0.35538">
        <ele>44.2</ele>
        <time>2024-07-03T13:25:06Z</time>
      </trkpt>
      <trkpt lat="49.09222" lon="-0.35545">
        <ele>44.2</ele>
        <time>2024-07-03T13:25:07Z</time>
      </trkpt>
      <trkpt lat="49.09216" lon="-0.35553">
        <ele>44</ele>
        <time>2024-07-03T13:25:08Z</time>
      </trkpt>
      <trkpt lat="49.0921" lon="-0.35561">
        <ele>43.8</ele>
        <time>2024-07-03T13:25:09Z</time>
      </trkpt>
      <trkpt lat="49.09204" lon="-0.35569">
        <ele>43.6</ele>
        <time>2024-07-03T13:25:10Z</time>
      </trkpt>
      <trkpt lat="49.09198" lon="-0.35576">
        <ele>43.4</ele>
        <time>2024-07-03T13:25:11Z</time>
      </trkpt>
      <trkpt lat="49.09192" lon="-0.35584">
        <ele>43.4</ele>
        <time>2024-07-03T13:25:12Z</time>
      </trkpt>
      <trkpt lat="49.09187" lon="-0.35593">
        <ele>43.6</ele>
        <time>2024-07-03T13:25:13Z</time>
      </trkpt>
      <trkpt lat="49.09181" lon="-0.35602">
        <ele>43.8</ele>
        <time>2024-07-03T13:25:14Z</time>
      </trkpt>
      <trkpt lat="49.09175" lon="-0.3561">
        <ele>44</ele>
        <time>2024-07-03T13:25:15Z</time>
      </trkpt>
      <trkpt lat="49.09169" lon="-0.35619">
        <ele>44.2</ele>
        <time>2024-07-03T13:25:16Z</time>
      </trkpt>
      <trkpt lat="49.09164" lon="-0.35628">
        <ele>44.4</ele>
        <time>2024-07-03T13:25:17Z</time>
      </trkpt>
      <trkpt lat="49.09159" lon="-0.35636">
        <ele>44.6</ele>
        <time>2024-07-03T13:25:18Z</time>
      </trkpt>
      <trkpt lat="49.09154" lon="-0.35645">
        <ele>44.8</ele>
        <time>2024-07-03T13:25:19Z</time>
      </trkpt>
      <trkpt lat="49.09149" lon="-0.35654">
        <ele>44.8</ele>
        <time>2024-07-03T13:25:20Z</time>
      </trkpt>
      <trkpt lat="49.09145" lon="-0.35664">
        <ele>44.8</ele>
        <time>2024-07-03T13:25:21Z</time>
      </trkpt>
      <trkpt lat="49.09142" lon="-0.35674">
        <ele>44.8</ele>
        <time>2024-07-03T13:25:22Z</time>
      </trkpt>
      <trkpt lat="49.09139" lon="-0.35685">
        <ele>44.6</ele>
        <time>2024-07-03T13:25:23Z</time>
      </trkpt>
      <trkpt lat="49.09136" lon="-0.35695">
        <ele>44.6</ele>
        <time>2024-07-03T13:25:24Z</time>
      </trkpt>
      <trkpt lat="49.09134" lon="-0.35705">
        <ele>44.6</ele>
        <time>2024-07-03T13:25:25Z</time>
      </trkpt>
      <trkpt lat="49.09132" lon="-0.35716">
        <ele>44.4</ele>
        <time>2024-07-03T13:25:26Z</time>
      </trkpt>
      <trkpt lat="49.09131" lon="-0.35727">
        <ele>44.4</ele>
        <time>2024-07-03T13:25:27Z</time>
      </trkpt>
      <trkpt lat="49.0913" lon="-0.35738">
        <ele>44.2</ele>
        <time>2024-07-03T13:25:28Z</time>
      </trkpt>
      <trkpt lat="49.09129" lon="-0.35749">
        <ele>44.4</ele>
        <time>2024-07-03T13:25:29Z</time>
      </trkpt>
      <trkpt lat="49.09128" lon="-0.35761">
        <ele>44.4</ele>
        <time>2024-07-03T13:25:30Z</time>
      </trkpt>
      <trkpt lat="49.09127" lon="-0.35772">
        <ele>44.8</ele>
        <time>2024-07-03T13:25:31Z</time>
      </trkpt>
      <trkpt lat="49.09126" lon="-0.35784">
        <ele>45</ele>
        <time>2024-07-03T13:25:32Z</time>
      </trkpt>
      <trkpt lat="49.09126" lon="-0.35796">
        <ele>45</ele>
        <time>2024-07-03T13:25:33Z</time>
      </trkpt>
      <trkpt lat="49.09125" lon="-0.35808">
        <ele>45</ele>
        <time>2024-07-03T13:25:34Z</time>
      </trkpt>
      <trkpt lat="49.09125" lon="-0.35821">
        <ele>45</ele>
        <time>2024-07-03T13:25:35Z</time>
      </trkpt>
      <trkpt lat="49.09126" lon="-0.35833">
        <ele>44.8</ele>
        <time>2024-07-03T13:25:36Z</time>
      </trkpt>
      <trkpt lat="49.09126" lon="-0.35846">
        <ele>44.6</ele>
        <time>2024-07-03T13:25:37Z</time>
      </trkpt>
      <trkpt lat="49.09126" lon="-0.35859">
        <ele>44.4</ele>
        <time>2024-07-03T13:25:38Z</time>
      </trkpt>
      <trkpt lat="49.09127" lon="-0.35871">
        <ele>44.4</ele>
        <time>2024-07-03T13:25:39Z</time>
      </trkpt>
      <trkpt lat="49.09128" lon="-0.35884">
        <ele>44.2</ele>
        <time>2024-07-03T13:25:40Z</time>
      </trkpt>
      <trkpt lat="49.09128" lon="-0.35896">
        <ele>44</ele>
        <time>2024-07-03T13:25:41Z</time>
      </trkpt>
      <trkpt lat="49.09129" lon="-0.35909">
        <ele>44</ele>
        <time>2024-07-03T13:25:42Z</time>
      </trkpt>
      <trkpt lat="49.0913" lon="-0.35922">
        <ele>43.8</ele>
        <time>2024-07-03T13:25:43Z</time>
      </trkpt>
      <trkpt lat="49.09131" lon="-0.35934">
        <ele>43.6</ele>
        <time>2024-07-03T13:25:44Z</time>
      </trkpt>
      <trkpt lat="49.09131" lon="-0.35947">
        <ele>43.4</ele>
        <time>2024-07-03T13:25:45Z</time>
      </trkpt>
      <trkpt lat="49.09131" lon="-0.3596">
        <ele>43.2</ele>
        <time>2024-07-03T13:25:46Z</time>
      </trkpt>
      <trkpt lat="49.0913" lon="-0.35972">
        <ele>43</ele>
        <time>2024-07-03T13:25:47Z</time>
      </trkpt>
      <trkpt lat="49.09129" lon="-0.35985">
        <ele>42.8</ele>
        <time>2024-07-03T13:25:48Z</time>
      </trkpt>
      <trkpt lat="49.09126" lon="-0.35998">
        <ele>42.4</ele>
        <time>2024-07-03T13:25:49Z</time>
      </trkpt>
      <trkpt lat="49.09124" lon="-0.3601">
        <ele>42.2</ele>
        <time>2024-07-03T13:25:50Z</time>
      </trkpt>
      <trkpt lat="49.0912" lon="-0.36023">
        <ele>42</ele>
        <time>2024-07-03T13:25:51Z</time>
      </trkpt>
      <trkpt lat="49.09117" lon="-0.36035">
        <ele>41.6</ele>
        <time>2024-07-03T13:25:52Z</time>
      </trkpt>
      <trkpt lat="49.09112" lon="-0.36046">
        <ele>41.4</ele>
        <time>2024-07-03T13:25:53Z</time>
      </trkpt>
      <trkpt lat="49.09106" lon="-0.36057">
        <ele>41</ele>
        <time>2024-07-03T13:25:54Z</time>
      </trkpt>
      <trkpt lat="49.091" lon="-0.36066">
        <ele>40.6</ele>
        <time>2024-07-03T13:25:55Z</time>
      </trkpt>
      <trkpt lat="49.09094" lon="-0.36076">
        <ele>40.2</ele>
        <time>2024-07-03T13:25:56Z</time>
      </trkpt>
      <trkpt lat="49.09087" lon="-0.36084">
        <ele>39.8</ele>
        <time>2024-07-03T13:25:57Z</time>
      </trkpt>
      <trkpt lat="49.0908" lon="-0.36093">
        <ele>39.6</ele>
        <time>2024-07-03T13:25:58Z</time>
      </trkpt>
      <trkpt lat="49.09073" lon="-0.361">
        <ele>39.4</ele>
        <time>2024-07-03T13:25:59Z</time>
      </trkpt>
      <trkpt lat="49.09065" lon="-0.36108">
        <ele>39</ele>
        <time>2024-07-03T13:26:00Z</time>
      </trkpt>
      <trkpt lat="49.09058" lon="-0.36116">
        <ele>38.8</ele>
        <time>2024-07-03T13:26:01Z</time>
      </trkpt>
      <trkpt lat="49.09051" lon="-0.36124">
        <ele>38.6</ele>
        <time>2024-07-03T13:26:02Z</time>
      </trkpt>
      <trkpt lat="49.09044" lon="-0.36133">
        <ele>38.2</ele>
        <time>2024-07-03T13:26:03Z</time>
      </trkpt>
      <trkpt lat="49.09037" lon="-0.36142">
        <ele>37.8</ele>
        <time>2024-07-03T13:26:04Z</time>
      </trkpt>
      <trkpt lat="49.0903" lon="-0.36151">
        <ele>37.6</ele>
        <time>2024-07-03T13:26:05Z</time>
      </trkpt>
      <trkpt lat="49.09023" lon="-0.36161">
        <ele>37.6</ele>
        <time>2024-07-03T13:26:06Z</time>
      </trkpt>
      <trkpt lat="49.09016" lon="-0.3617">
        <ele>37.6</ele>
        <time>2024-07-03T13:26:07Z</time>
      </trkpt>
      <trkpt lat="49.09009" lon="-0.3618">
        <ele>37.8</ele>
        <time>2024-07-03T13:26:08Z</time>
      </trkpt>
      <trkpt lat="49.09003" lon="-0.36189">
        <ele>37.8</ele>
        <time>2024-07-03T13:26:09Z</time>
      </trkpt>
      <trkpt lat="49.08997" lon="-0.36199">
        <ele>37.8</ele>
        <time>2024-07-03T13:26:10Z</time>
      </trkpt>
      <trkpt lat="49.08991" lon="-0.36209">
        <ele>38</ele>
        <time>2024-07-03T13:26:11Z</time>
      </trkpt>
      <trkpt lat="49.08985" lon="-0.36219">
        <ele>38</ele>
        <time>2024-07-03T13:26:12Z</time>
      </trkpt>
      <trkpt lat="49.08979" lon="-0.36229">
        <ele>38</ele>
        <time>2024-07-03T13:26:13Z</time>
      </trkpt>
      <trkpt lat="49.08974" lon="-0.36238">
        <ele>38</ele>
        <time>2024-07-03T13:26:14Z</time>
      </trkpt>
      <trkpt lat="49.08969" lon="-0.36248">
        <ele>38</ele>
        <time>2024-07-03T13:26:15Z</time>
      </trkpt>
      <trkpt lat="49.08963" lon="-0.36257">
        <ele>38</ele>
        <time>2024-07-03T13:26:16Z</time>
      </trkpt>
      <trkpt lat="49.08958" lon="-0.36267">
        <ele>37.8</ele>
        <time>2024-07-03T13:26:17Z</time>
      </trkpt>
      <trkpt lat="49.08952" lon="-0.36276">
        <ele>37.8</ele>
        <time>2024-07-03T13:26:18Z</time>
      </trkpt>
      <trkpt lat="49.08947" lon="-0.36285">
        <ele>37.6</ele>
        <time>2024-07-03T13:26:19Z</time>
      </trkpt>
      <trkpt lat="49.08941" lon="-0.36294">
        <ele>37.6</ele>
        <time>2024-07-03T13:26:20Z</time>
      </trkpt>
      <trkpt lat="49.08936" lon="-0.36303">
        <ele>37.6</ele>
        <time>2024-07-03T13:26:21Z</time>
      </trkpt>
      <trkpt lat="49.0893" lon="-0.36313">
        <ele>37.8</ele>
        <time>2024-07-03T13:26:22Z</time>
      </trkpt>
      <trkpt lat="49.08924" lon="-0.36322">
        <ele>37.8</ele>
        <time>2024-07-03T13:26:23Z</time>
      </trkpt>
      <trkpt lat="49.08918" lon="-0.36331">
        <ele>38</ele>
        <time>2024-07-03T13:26:24Z</time>
      </trkpt>
      <trkpt lat="49.08913" lon="-0.3634">
        <ele>38.4</ele>
        <time>2024-07-03T13:26:25Z</time>
      </trkpt>
      <trkpt lat="49.08907" lon="-0.36349">
        <ele>39</ele>
        <time>2024-07-03T13:26:26Z</time>
      </trkpt>
      <trkpt lat="49.08901" lon="-0.36358">
        <ele>39.8</ele>
        <time>2024-07-03T13:26:27Z</time>
      </trkpt>
      <trkpt lat="49.08896" lon="-0.36367">
        <ele>40.2</ele>
        <time>2024-07-03T13:26:28Z</time>
      </trkpt>
      <trkpt lat="49.0889" lon="-0.36376">
        <ele>40.6</ele>
        <time>2024-07-03T13:26:29Z</time>
      </trkpt>
      <trkpt lat="49.08885" lon="-0.36386">
        <ele>41</ele>
        <time>2024-07-03T13:26:30Z</time>
      </trkpt>
      <trkpt lat="49.0888" lon="-0.36395">
        <ele>41.4</ele>
        <time>2024-07-03T13:26:31Z</time>
      </trkpt>
      <trkpt lat="49.08874" lon="-0.36404">
        <ele>41.8</ele>
        <time>2024-07-03T13:26:32Z</time>
      </trkpt>
      <trkpt lat="49.08869" lon="-0.36414">
        <ele>42.2</ele>
        <time>2024-07-03T13:26:33Z</time>
      </trkpt>
      <trkpt lat="49.08864" lon="-0.36424">
        <ele>42.4</ele>
        <time>2024-07-03T13:26:34Z</time>
      </trkpt>
      <trkpt lat="49.08858" lon="-0.36434">
        <ele>42.6</ele>
        <time>2024-07-03T13:26:35Z</time>
      </trkpt>
      <trkpt lat="49.08853" lon="-0.36445">
        <ele>42.4</ele>
        <time>2024-07-03T13:26:36Z</time>
      </trkpt>
      <trkpt lat="49.08848" lon="-0.36455">
        <ele>42.4</ele>
        <time>2024-07-03T13:26:37Z</time>
      </trkpt>
      <trkpt lat="49.08844" lon="-0.36465">
        <ele>42.2</ele>
        <time>2024-07-03T13:26:38Z</time>
      </trkpt>
      <trkpt lat="49.08838" lon="-0.36475">
        <ele>41.6</ele>
        <time>2024-07-03T13:26:39Z</time>
      </trkpt>
      <trkpt lat="49.08834" lon="-0.36485">
        <ele>40.8</ele>
        <time>2024-07-03T13:26:40Z</time>
      </trkpt>
      <trkpt lat="49.08829" lon="-0.36495">
        <ele>40.4</ele>
        <time>2024-07-03T13:26:41Z</time>
      </trkpt>
      <trkpt lat="49.08824" lon="-0.36505">
        <ele>40</ele>
        <time>2024-07-03T13:26:42Z</time>
      </trkpt>
      <trkpt lat="49.08819" lon="-0.36515">
        <ele>40</ele>
        <time>2024-07-03T13:26:43Z</time>
      </trkpt>
      <trkpt lat="49.08814" lon="-0.36525">
        <ele>40</ele>
        <time>2024-07-03T13:26:44Z</time>
      </trkpt>
      <trkpt lat="49.0881" lon="-0.36536">
        <ele>40</ele>
        <time>2024-07-03T13:26:45Z</time>
      </trkpt>
      <trkpt lat="49.08806" lon="-0.36547">
        <ele>39.8</ele>
        <time>2024-07-03T13:26:46Z</time>
      </trkpt>
      <trkpt lat="49.08801" lon="-0.36557">
        <ele>39.8</ele>
        <time>2024-07-03T13:26:47Z</time>
      </trkpt>
      <trkpt lat="49.08797" lon="-0.36567">
        <ele>39.6</ele>
        <time>2024-07-03T13:26:48Z</time>
      </trkpt>
      <trkpt lat="49.08793" lon="-0.36577">
        <ele>39.4</ele>
        <time>2024-07-03T13:26:49Z</time>
      </trkpt>
      <trkpt lat="49.0879" lon="-0.36588">
        <ele>39</ele>
        <time>2024-07-03T13:26:50Z</time>
      </trkpt>
      <trkpt lat="49.08786" lon="-0.36599">
        <ele>38.6</ele>
        <time>2024-07-03T13:26:51Z</time>
      </trkpt>
      <trkpt lat="49.08782" lon="-0.3661">
        <ele>38.4</ele>
        <time>2024-07-03T13:26:52Z</time>
      </trkpt>
      <trkpt lat="49.08778" lon="-0.36621">
        <ele>38.2</ele>
        <time>2024-07-03T13:26:53Z</time>
      </trkpt>
      <trkpt lat="49.08774" lon="-0.36633">
        <ele>38</ele>
        <time>2024-07-03T13:26:54Z</time>
      </trkpt>
      <trkpt lat="49.0877" lon="-0.36645">
        <ele>37.8</ele>
        <time>2024-07-03T13:26:55Z</time>
      </trkpt>
      <trkpt lat="49.08766" lon="-0.36657">
        <ele>37.6</ele>
        <time>2024-07-03T13:26:56Z</time>
      </trkpt>
      <trkpt lat="49.08762" lon="-0.36669">
        <ele>37.2</ele>
        <time>2024-07-03T13:26:57Z</time>
      </trkpt>
      <trkpt lat="49.08758" lon="-0.36682">
        <ele>37</ele>
        <time>2024-07-03T13:26:58Z</time>
      </trkpt>
      <trkpt lat="49.08754" lon="-0.36694">
        <ele>36.8</ele>
        <time>2024-07-03T13:26:59Z</time>
      </trkpt>
      <trkpt lat="49.08749" lon="-0.36707">
        <ele>36.8</ele>
        <time>2024-07-03T13:27:00Z</time>
      </trkpt>
      <trkpt lat="49.08745" lon="-0.36721">
        <ele>36.6</ele>
        <time>2024-07-03T13:27:01Z</time>
      </trkpt>
      <trkpt lat="49.0874" lon="-0.36734">
        <ele>36.4</ele>
        <time>2024-07-03T13:27:02Z</time>
      </trkpt>
      <trkpt lat="49.08736" lon="-0.36748">
        <ele>36</ele>
        <time>2024-07-03T13:27:03Z</time>
      </trkpt>
      <trkpt lat="49.08731" lon="-0.36761">
        <ele>35.4</ele>
        <time>2024-07-03T13:27:04Z</time>
      </trkpt>
      <trkpt lat="49.08726" lon="-0.36775">
        <ele>34.4</ele>
        <time>2024-07-03T13:27:05Z</time>
      </trkpt>
      <trkpt lat="49.08722" lon="-0.36788">
        <ele>33.2</ele>
        <time>2024-07-03T13:27:06Z</time>
      </trkpt>
      <trkpt lat="49.08717" lon="-0.36801">
        <ele>32.2</ele>
        <time>2024-07-03T13:27:07Z</time>
      </trkpt>
      <trkpt lat="49.08712" lon="-0.36815">
        <ele>31.6</ele>
        <time>2024-07-03T13:27:08Z</time>
      </trkpt>
      <trkpt lat="49.08706" lon="-0.36828">
        <ele>30.8</ele>
        <time>2024-07-03T13:27:09Z</time>
      </trkpt>
      <trkpt lat="49.08701" lon="-0.3684">
        <ele>30</ele>
        <time>2024-07-03T13:27:10Z</time>
      </trkpt>
      <trkpt lat="49.08694" lon="-0.36853">
        <ele>29.6</ele>
        <time>2024-07-03T13:27:11Z</time>
      </trkpt>
      <trkpt lat="49.08688" lon="-0.36865">
        <ele>29.2</ele>
        <time>2024-07-03T13:27:12Z</time>
      </trkpt>
      <trkpt lat="49.08682" lon="-0.36877">
        <ele>28.8</ele>
        <time>2024-07-03T13:27:13Z</time>
      </trkpt>
      <trkpt lat="49.08675" lon="-0.36888">
        <ele>28.2</ele>
        <time>2024-07-03T13:27:14Z</time>
      </trkpt>
      <trkpt lat="49.08668" lon="-0.36899">
        <ele>27.6</ele>
        <time>2024-07-03T13:27:15Z</time>
      </trkpt>
      <trkpt lat="49.08661" lon="-0.3691">
        <ele>27.2</ele>
        <time>2024-07-03T13:27:16Z</time>
      </trkpt>
      <trkpt lat="49.08654" lon="-0.36921">
        <ele>26.4</ele>
        <time>2024-07-03T13:27:17Z</time>
      </trkpt>
      <trkpt lat="49.08648" lon="-0.36932">
        <ele>24.8</ele>
        <time>2024-07-03T13:27:18Z</time>
      </trkpt>
      <trkpt lat="49.08641" lon="-0.36942">
        <ele>23.4</ele>
        <time>2024-07-03T13:27:19Z</time>
      </trkpt>
      <trkpt lat="49.08634" lon="-0.36951">
        <ele>22.8</ele>
        <time>2024-07-03T13:27:20Z</time>
      </trkpt>
      <trkpt lat="49.08628" lon="-0.36962">
        <ele>22.4</ele>
        <time>2024-07-03T13:27:21Z</time>
      </trkpt>
      <trkpt lat="49.0862" lon="-0.36972">
        <ele>22.2</ele>
        <time>2024-07-03T13:27:22Z</time>
      </trkpt>
      <trkpt lat="49.08614" lon="-0.36982">
        <ele>22.4</ele>
        <time>2024-07-03T13:27:23Z</time>
      </trkpt>
      <trkpt lat="49.08607" lon="-0.36993">
        <ele>22.4</ele>
        <time>2024-07-03T13:27:24Z</time>
      </trkpt>
      <trkpt lat="49.08601" lon="-0.37004">
        <ele>22.8</ele>
        <time>2024-07-03T13:27:25Z</time>
      </trkpt>
      <trkpt lat="49.08594" lon="-0.37015">
        <ele>23.2</ele>
        <time>2024-07-03T13:27:26Z</time>
      </trkpt>
      <trkpt lat="49.08588" lon="-0.37026">
        <ele>23.2</ele>
        <time>2024-07-03T13:27:27Z</time>
      </trkpt>
      <trkpt lat="49.08582" lon="-0.37038">
        <ele>23.2</ele>
        <time>2024-07-03T13:27:28Z</time>
      </trkpt>
      <trkpt lat="49.08576" lon="-0.3705">
        <ele>23</ele>
        <time>2024-07-03T13:27:29Z</time>
      </trkpt>
      <trkpt lat="49.0857" lon="-0.37062">
        <ele>23</ele>
        <time>2024-07-03T13:27:30Z</time>
      </trkpt>
      <trkpt lat="49.08566" lon="-0.37074">
        <ele>23</ele>
        <time>2024-07-03T13:27:31Z</time>
      </trkpt>
      <trkpt lat="49.08561" lon="-0.37086">
        <ele>23</ele>
        <time>2024-07-03T13:27:32Z</time>
      </trkpt>
      <trkpt lat="49.08557" lon="-0.37098">
        <ele>23</ele>
        <time>2024-07-03T13:27:33Z</time>
      </trkpt>
      <trkpt lat="49.08553" lon="-0.3711">
        <ele>22.8</ele>
        <time>2024-07-03T13:27:34Z</time>
      </trkpt>
      <trkpt lat="49.08549" lon="-0.37122">
        <ele>22.6</ele>
        <time>2024-07-03T13:27:35Z</time>
      </trkpt>
      <trkpt lat="49.08546" lon="-0.37134">
        <ele>22.6</ele>
        <time>2024-07-03T13:27:36Z</time>
      </trkpt>
      <trkpt lat="49.08543" lon="-0.37146">
        <ele>22.4</ele>
        <time>2024-07-03T13:27:37Z</time>
      </trkpt>
      <trkpt lat="49.0854" lon="-0.37157">
        <ele>22.4</ele>
        <time>2024-07-03T13:27:38Z</time>
      </trkpt>
      <trkpt lat="49.08538" lon="-0.37168">
        <ele>22.4</ele>
        <time>2024-07-03T13:27:39Z</time>
      </trkpt>
      <trkpt lat="49.08535" lon="-0.37179">
        <ele>22.4</ele>
        <time>2024-07-03T13:27:40Z</time>
      </trkpt>
      <trkpt lat="49.08533" lon="-0.3719">
        <ele>22.4</ele>
        <time>2024-07-03T13:27:41Z</time>
      </trkpt>
      <trkpt lat="49.0853" lon="-0.37201">
        <ele>22.4</ele>
        <time>2024-07-03T13:27:42Z</time>
      </trkpt>
      <trkpt lat="49.08528" lon="-0.37211">
        <ele>22.2</ele>
        <time>2024-07-03T13:27:43Z</time>
      </trkpt>
      <trkpt lat="49.08526" lon="-0.37222">
        <ele>22.2</ele>
        <time>2024-07-03T13:27:44Z</time>
      </trkpt>
      <trkpt lat="49.08523" lon="-0.37234">
        <ele>22.2</ele>
        <time>2024-07-03T13:27:45Z</time>
      </trkpt>
      <trkpt lat="49.08521" lon="-0.37245">
        <ele>22.2</ele>
        <time>2024-07-03T13:27:46Z</time>
      </trkpt>
      <trkpt lat="49.08519" lon="-0.37256">
        <ele>22.4</ele>
        <time>2024-07-03T13:27:47Z</time>
      </trkpt>
      <trkpt lat="49.08518" lon="-0.37267">
        <ele>22.4</ele>
        <time>2024-07-03T13:27:48Z</time>
      </trkpt>
      <trkpt lat="49.08516" lon="-0.37279">
        <ele>22.6</ele>
        <time>2024-07-03T13:27:49Z</time>
      </trkpt>
      <trkpt lat="49.08514" lon="-0.37291">
        <ele>22.6</ele>
        <time>2024-07-03T13:27:50Z</time>
      </trkpt>
      <trkpt lat="49.08512" lon="-0.37303">
        <ele>22.6</ele>
        <time>2024-07-03T13:27:51Z</time>
      </trkpt>
      <trkpt lat="49.0851" lon="-0.37315">
        <ele>22.6</ele>
        <time>2024-07-03T13:27:52Z</time>
      </trkpt>
      <trkpt lat="49.08508" lon="-0.37328">
        <ele>22.6</ele>
        <time>2024-07-03T13:27:53Z</time>
      </trkpt>
      <trkpt lat="49.08507" lon="-0.3734">
        <ele>22.6</ele>
        <time>2024-07-03T13:27:54Z</time>
      </trkpt>
      <trkpt lat="49.08506" lon="-0.37353">
        <ele>22.4</ele>
        <time>2024-07-03T13:27:55Z</time>
      </trkpt>
      <trkpt lat="49.08505" lon="-0.37365">
        <ele>22.2</ele>
        <time>2024-07-03T13:27:56Z</time>
      </trkpt>
      <trkpt lat="49.08505" lon="-0.37378">
        <ele>21.8</ele>
        <time>2024-07-03T13:27:57Z</time>
      </trkpt>
      <trkpt lat="49.08505" lon="-0.37391">
        <ele>21.6</ele>
        <time>2024-07-03T13:27:58Z</time>
      </trkpt>
      <trkpt lat="49.08506" lon="-0.37405">
        <ele>21.4</ele>
        <time>2024-07-03T13:27:59Z</time>
      </trkpt>
      <trkpt lat="49.08506" lon="-0.37418">
        <ele>20.8</ele>
        <time>2024-07-03T13:28:00Z</time>
      </trkpt>
      <trkpt lat="49.08507" lon="-0.37432">
        <ele>20.4</ele>
        <time>2024-07-03T13:28:01Z</time>
      </trkpt>
      <trkpt lat="49.08508" lon="-0.37446">
        <ele>20</ele>
        <time>2024-07-03T13:28:02Z</time>
      </trkpt>
      <trkpt lat="49.0851" lon="-0.3746">
        <ele>19.4</ele>
        <time>2024-07-03T13:28:03Z</time>
      </trkpt>
      <trkpt lat="49.08512" lon="-0.37474">
        <ele>18.8</ele>
        <time>2024-07-03T13:28:04Z</time>
      </trkpt>
      <trkpt lat="49.08515" lon="-0.37489">
        <ele>18</ele>
        <time>2024-07-03T13:28:05Z</time>
      </trkpt>
      <trkpt lat="49.08518" lon="-0.37503">
        <ele>17.2</ele>
        <time>2024-07-03T13:28:06Z</time>
      </trkpt>
      <trkpt lat="49.08521" lon="-0.37518">
        <ele>16.6</ele>
        <time>2024-07-03T13:28:07Z</time>
      </trkpt>
      <trkpt lat="49.08524" lon="-0.37533">
        <ele>16</ele>
        <time>2024-07-03T13:28:08Z</time>
      </trkpt>
      <trkpt lat="49.08527" lon="-0.37547">
        <ele>15.4</ele>
        <time>2024-07-03T13:28:09Z</time>
      </trkpt>
      <trkpt lat="49.0853" lon="-0.37562">
        <ele>14.6</ele>
        <time>2024-07-03T13:28:10Z</time>
      </trkpt>
      <trkpt lat="49.08534" lon="-0.37577">
        <ele>13.6</ele>
        <time>2024-07-03T13:28:11Z</time>
      </trkpt>
      <trkpt lat="49.08538" lon="-0.37592">
        <ele>12.8</ele>
        <time>2024-07-03T13:28:12Z</time>
      </trkpt>
      <trkpt lat="49.08541" lon="-0.37607">
        <ele>12.2</ele>
        <time>2024-07-03T13:28:13Z</time>
      </trkpt>
      <trkpt lat="49.08544" lon="-0.37623">
        <ele>12</ele>
        <time>2024-07-03T13:28:14Z</time>
      </trkpt>
      <trkpt lat="49.08548" lon="-0.37637">
        <ele>11.6</ele>
        <time>2024-07-03T13:28:15Z</time>
      </trkpt>
      <trkpt lat="49.08551" lon="-0.37652">
        <ele>11.2</ele>
        <time>2024-07-03T13:28:16Z</time>
      </trkpt>
      <trkpt lat="49.08555" lon="-0.37667">
        <ele>10.4</ele>
        <time>2024-07-03T13:28:17Z</time>
      </trkpt>
      <trkpt lat="49.08558" lon="-0.37682">
        <ele>9.8</ele>
        <time>2024-07-03T13:28:18Z</time>
      </trkpt>
      <trkpt lat="49.08562" lon="-0.37696">
        <ele>9.4</ele>
        <time>2024-07-03T13:28:19Z</time>
      </trkpt>
      <trkpt lat="49.08564" lon="-0.37709">
        <ele>9.2</ele>
        <time>2024-07-03T13:28:20Z</time>
      </trkpt>
      <trkpt lat="49.08567" lon="-0.37723">
        <ele>9.4</ele>
        <time>2024-07-03T13:28:21Z</time>
      </trkpt>
      <trkpt lat="49.0857" lon="-0.37735">
        <ele>9.6</ele>
        <time>2024-07-03T13:28:22Z</time>
      </trkpt>
      <trkpt lat="49.08573" lon="-0.37748">
        <ele>10.2</ele>
        <time>2024-07-03T13:28:23Z</time>
      </trkpt>
      <trkpt lat="49.08575" lon="-0.3776">
        <ele>10.8</ele>
        <time>2024-07-03T13:28:24Z</time>
      </trkpt>
      <trkpt lat="49.08577" lon="-0.37772">
        <ele>11</ele>
        <time>2024-07-03T13:28:25Z</time>
      </trkpt>
      <trkpt lat="49.08579" lon="-0.37784">
        <ele>11.4</ele>
        <time>2024-07-03T13:28:26Z</time>
      </trkpt>
      <trkpt lat="49.0858" lon="-0.37796">
        <ele>11.8</ele>
        <time>2024-07-03T13:28:27Z</time>
      </trkpt>
      <trkpt lat="49.0858" lon="-0.37808">
        <ele>12.4</ele>
        <time>2024-07-03T13:28:28Z</time>
      </trkpt>
      <trkpt lat="49.0858" lon="-0.37821">
        <ele>12.8</ele>
        <time>2024-07-03T13:28:29Z</time>
      </trkpt>
      <trkpt lat="49.0858" lon="-0.37833">
        <ele>13</ele>
        <time>2024-07-03T13:28:30Z</time>
      </trkpt>
      <trkpt lat="49.0858" lon="-0.37845">
        <ele>13.2</ele>
        <time>2024-07-03T13:28:31Z</time>
      </trkpt>
      <trkpt lat="49.0858" lon="-0.37856">
        <ele>13.2</ele>
        <time>2024-07-03T13:28:32Z</time>
      </trkpt>
      <trkpt lat="49.08581" lon="-0.37867">
        <ele>13.2</ele>
        <time>2024-07-03T13:28:33Z</time>
      </trkpt>
      <trkpt lat="49.08583" lon="-0.37878">
        <ele>13.2</ele>
        <time>2024-07-03T13:28:34Z</time>
      </trkpt>
      <trkpt lat="49.08585" lon="-0.37887">
        <ele>13.2</ele>
        <time>2024-07-03T13:28:35Z</time>
      </trkpt>
      <trkpt lat="49.08588" lon="-0.37894">
        <ele>13.6</ele>
        <time>2024-07-03T13:28:36Z</time>
      </trkpt>
      <trkpt lat="49.08592" lon="-0.379">
        <ele>14.2</ele>
        <time>2024-07-03T13:28:37Z</time>
      </trkpt>
      <trkpt lat="49.08596" lon="-0.37902">
        <ele>14.8</ele>
        <time>2024-07-03T13:28:38Z</time>
      </trkpt>
      <trkpt lat="49.086" lon="-0.37905">
        <ele>15.4</ele>
        <time>2024-07-03T13:28:39Z</time>
      </trkpt>
      <trkpt lat="49.08603" lon="-0.37907">
        <ele>15.8</ele>
        <time>2024-07-03T13:28:40Z</time>
      </trkpt>
      <trkpt lat="49.08604" lon="-0.37911">
        <ele>16.2</ele>
        <time>2024-07-03T13:28:41Z</time>
      </trkpt>
      <trkpt lat="49.08605" lon="-0.37916">
        <ele>16.4</ele>
        <time>2024-07-03T13:28:42Z</time>
      </trkpt>
      <trkpt lat="49.08605" lon="-0.37922">
        <ele>16.6</ele>
        <time>2024-07-03T13:28:43Z</time>
      </trkpt>
      <trkpt lat="49.08603" lon="-0.37927">
        <ele>16.6</ele>
        <time>2024-07-03T13:28:44Z</time>
      </trkpt>
      <trkpt lat="49.086" lon="-0.37933">
        <ele>16.2</ele>
        <time>2024-07-03T13:28:45Z</time>
      </trkpt>
      <trkpt lat="49.08595" lon="-0.37939">
        <ele>16</ele>
        <time>2024-07-03T13:28:46Z</time>
      </trkpt>
      <trkpt lat="49.0859" lon="-0.37945">
        <ele>15.6</ele>
        <time>2024-07-03T13:28:47Z</time>
      </trkpt>
      <trkpt lat="49.08584" lon="-0.37951">
        <ele>15</ele>
        <time>2024-07-03T13:28:48Z</time>
      </trkpt>
      <trkpt lat="49.08578" lon="-0.37957">
        <ele>14.8</ele>
        <time>2024-07-03T13:28:49Z</time>
      </trkpt>
      <trkpt lat="49.08572" lon="-0.37963">
        <ele>14.6</ele>
        <time>2024-07-03T13:28:50Z</time>
      </trkpt>
      <trkpt lat="49.08566" lon="-0.37968">
        <ele>14.2</ele>
        <time>2024-07-03T13:28:51Z</time>
      </trkpt>
      <trkpt lat="49.08559" lon="-0.37974">
        <ele>13.8</ele>
        <time>2024-07-03T13:28:52Z</time>
      </trkpt>
      <trkpt lat="49.08553" lon="-0.37979">
        <ele>13.6</ele>
        <time>2024-07-03T13:28:53Z</time>
      </trkpt>
      <trkpt lat="49.08547" lon="-0.37985">
        <ele>13.4</ele>
        <time>2024-07-03T13:28:54Z</time>
      </trkpt>
      <trkpt lat="49.08541" lon="-0.37991">
        <ele>13.2</ele>
        <time>2024-07-03T13:28:55Z</time>
      </trkpt>
      <trkpt lat="49.08534" lon="-0.37996">
        <ele>13.2</ele>
        <time>2024-07-03T13:28:56Z</time>
      </trkpt>
      <trkpt lat="49.08528" lon="-0.38001">
        <ele>13</ele>
        <time>2024-07-03T13:28:57Z</time>
      </trkpt>
      <trkpt lat="49.08521" lon="-0.38006">
        <ele>13</ele>
        <time>2024-07-03T13:28:58Z</time>
      </trkpt>
      <trkpt lat="49.08515" lon="-0.38011">
        <ele>13.2</ele>
        <time>2024-07-03T13:28:59Z</time>
      </trkpt>
      <trkpt lat="49.08508" lon="-0.38015">
        <ele>13.2</ele>
        <time>2024-07-03T13:29:00Z</time>
      </trkpt>
      <trkpt lat="49.08502" lon="-0.38019">
        <ele>13.4</ele>
        <time>2024-07-03T13:29:01Z</time>
      </trkpt>
      <trkpt lat="49.08495" lon="-0.38022">
        <ele>13.6</ele>
        <time>2024-07-03T13:29:02Z</time>
      </trkpt>
      <trkpt lat="49.0849" lon="-0.38025">
        <ele>13.8</ele>
        <time>2024-07-03T13:29:03Z</time>
      </trkpt>
      <trkpt lat="49.08484" lon="-0.38029">
        <ele>14.2</ele>
        <time>2024-07-03T13:29:04Z</time>
      </trkpt>
      <trkpt lat="49.08478" lon="-0.38032">
        <ele>14.6</ele>
        <time>2024-07-03T13:29:05Z</time>
      </trkpt>
      <trkpt lat="49.08472" lon="-0.38034">
        <ele>15.4</ele>
        <time>2024-07-03T13:29:06Z</time>
      </trkpt>
      <trkpt lat="49.08467" lon="-0.38037">
        <ele>15.8</ele>
        <time>2024-07-03T13:29:07Z</time>
      </trkpt>
      <trkpt lat="49.08461" lon="-0.3804">
        <ele>16.2</ele>
        <time>2024-07-03T13:29:08Z</time>
      </trkpt>
      <trkpt lat="49.08456" lon="-0.38043">
        <ele>16.4</ele>
        <time>2024-07-03T13:29:09Z</time>
      </trkpt>
      <trkpt lat="49.08451" lon="-0.38046">
        <ele>16.8</ele>
        <time>2024-07-03T13:29:10Z</time>
      </trkpt>
      <trkpt lat="49.08446" lon="-0.38049">
        <ele>17</ele>
        <time>2024-07-03T13:29:11Z</time>
      </trkpt>
      <trkpt lat="49.08441" lon="-0.38052">
        <ele>17.2</ele>
        <time>2024-07-03T13:29:12Z</time>
      </trkpt>
      <trkpt lat="49.08436" lon="-0.38055">
        <ele>17.6</ele>
        <time>2024-07-03T13:29:13Z</time>
      </trkpt>
      <trkpt lat="49.08431" lon="-0.38058">
        <ele>17.8</ele>
        <time>2024-07-03T13:29:14Z</time>
      </trkpt>
      <trkpt lat="49.08426" lon="-0.38061">
        <ele>18</ele>
        <time>2024-07-03T13:29:15Z</time>
      </trkpt>
      <trkpt lat="49.08421" lon="-0.38064">
        <ele>18.4</ele>
        <time>2024-07-03T13:29:16Z</time>
      </trkpt>
      <trkpt lat="49.08416" lon="-0.38066">
        <ele>18.8</ele>
        <time>2024-07-03T13:29:17Z</time>
      </trkpt>
      <trkpt lat="49.08412" lon="-0.38069">
        <ele>19.4</ele>
        <time>2024-07-03T13:29:18Z</time>
      </trkpt>
      <trkpt lat="49.08407" lon="-0.38071">
        <ele>20.2</ele>
        <time>2024-07-03T13:29:19Z</time>
      </trkpt>
      <trkpt lat="49.08402" lon="-0.38073">
        <ele>20.6</ele>
        <time>2024-07-03T13:29:20Z</time>
      </trkpt>
      <trkpt lat="49.08397" lon="-0.38076">
        <ele>21</ele>
        <time>2024-07-03T13:29:21Z</time>
      </trkpt>
      <trkpt lat="49.08392" lon="-0.38079">
        <ele>21.2</ele>
        <time>2024-07-03T13:29:22Z</time>
      </trkpt>
      <trkpt lat="49.08387" lon="-0.38082">
        <ele>21.4</ele>
        <time>2024-07-03T13:29:23Z</time>
      </trkpt>
      <trkpt lat="49.08382" lon="-0.38086">
        <ele>21.6</ele>
        <time>2024-07-03T13:29:24Z</time>
      </trkpt>
      <trkpt lat="49.08377" lon="-0.38089">
        <ele>21.8</ele>
        <time>2024-07-03T13:29:25Z</time>
      </trkpt>
      <trkpt lat="49.08372" lon="-0.38092">
        <ele>22</ele>
        <time>2024-07-03T13:29:26Z</time>
      </trkpt>
      <trkpt lat="49.08367" lon="-0.38094">
        <ele>22.6</ele>
        <time>2024-07-03T13:29:27Z</time>
      </trkpt>
      <trkpt lat="49.08361" lon="-0.38097">
        <ele>23.2</ele>
        <time>2024-07-03T13:29:28Z</time>
      </trkpt>
      <trkpt lat="49.08356" lon="-0.381">
        <ele>23.6</ele>
        <time>2024-07-03T13:29:29Z</time>
      </trkpt>
      <trkpt lat="49.08351" lon="-0.38103">
        <ele>24</ele>
        <time>2024-07-03T13:29:30Z</time>
      </trkpt>
      <trkpt lat="49.08346" lon="-0.38106">
        <ele>24.2</ele>
        <time>2024-07-03T13:29:31Z</time>
      </trkpt>
      <trkpt lat="49.08341" lon="-0.38108">
        <ele>24.4</ele>
        <time>2024-07-03T13:29:32Z</time>
      </trkpt>
      <trkpt lat="49.08336" lon="-0.38111">
        <ele>24.6</ele>
        <time>2024-07-03T13:29:33Z</time>
      </trkpt>
      <trkpt lat="49.08331" lon="-0.38114">
        <ele>24.8</ele>
        <time>2024-07-03T13:29:34Z</time>
      </trkpt>
      <trkpt lat="49.08326" lon="-0.38116">
        <ele>25</ele>
        <time>2024-07-03T13:29:35Z</time>
      </trkpt>
      <trkpt lat="49.0832" lon="-0.38119">
        <ele>25.2</ele>
        <time>2024-07-03T13:29:36Z</time>
      </trkpt>
      <trkpt lat="49.08315" lon="-0.38122">
        <ele>25.4</ele>
        <time>2024-07-03T13:29:37Z</time>
      </trkpt>
      <trkpt lat="49.0831" lon="-0.38124">
        <ele>25.6</ele>
        <time>2024-07-03T13:29:38Z</time>
      </trkpt>
      <trkpt lat="49.08305" lon="-0.38127">
        <ele>26</ele>
        <time>2024-07-03T13:29:39Z</time>
      </trkpt>
      <trkpt lat="49.083" lon="-0.38129">
        <ele>26.4</ele>
        <time>2024-07-03T13:29:40Z</time>
      </trkpt>
      <trkpt lat="49.08295" lon="-0.38132">
        <ele>27</ele>
        <time>2024-07-03T13:29:41Z</time>
      </trkpt>
      <trkpt lat="49.0829" lon="-0.38135">
        <ele>27.4</ele>
        <time>2024-07-03T13:29:42Z</time>
      </trkpt>
      <trkpt lat="49.08286" lon="-0.38138">
        <ele>27.8</ele>
        <time>2024-07-03T13:29:43Z</time>
      </trkpt>
      <trkpt lat="49.08281" lon="-0.38141">
        <ele>28.2</ele>
        <time>2024-07-03T13:29:44Z</time>
      </trkpt>
      <trkpt lat="49.08276" lon="-0.38144">
        <ele>28.4</ele>
        <time>2024-07-03T13:29:45Z</time>
      </trkpt>
      <trkpt lat="49.08271" lon="-0.38147">
        <ele>28.8</ele>
        <time>2024-07-03T13:29:46Z</time>
      </trkpt>
      <trkpt lat="49.08266" lon="-0.3815">
        <ele>29</ele>
        <time>2024-07-03T13:29:47Z</time>
      </trkpt>
      <trkpt lat="49.08261" lon="-0.38152">
        <ele>29.2</ele>
        <time>2024-07-03T13:29:48Z</time>
      </trkpt>
      <trkpt lat="49.08256" lon="-0.38155">
        <ele>29.2</ele>
        <time>2024-07-03T13:29:49Z</time>
      </trkpt>
      <trkpt lat="49.08251" lon="-0.38158">
        <ele>29.4</ele>
        <time>2024-07-03T13:29:50Z</time>
      </trkpt>
      <trkpt lat="49.08246" lon="-0.3816">
        <ele>29.4</ele>
        <time>2024-07-03T13:29:51Z</time>
      </trkpt>
      <trkpt lat="49.08241" lon="-0.38163">
        <ele>29.6</ele>
        <time>2024-07-03T13:29:52Z</time>
      </trkpt>
      <trkpt lat="49.08236" lon="-0.38166">
        <ele>29.8</ele>
        <time>2024-07-03T13:29:53Z</time>
      </trkpt>
      <trkpt lat="49.08232" lon="-0.38169">
        <ele>30</ele>
        <time>2024-07-03T13:29:54Z</time>
      </trkpt>
      <trkpt lat="49.08227" lon="-0.38171">
        <ele>30.4</ele>
        <time>2024-07-03T13:29:55Z</time>
      </trkpt>
      <trkpt lat="49.08223" lon="-0.38174">
        <ele>30.8</ele>
        <time>2024-07-03T13:29:56Z</time>
      </trkpt>
      <trkpt lat="49.08218" lon="-0.38176">
        <ele>31.2</ele>
        <time>2024-07-03T13:29:57Z</time>
      </trkpt>
      <trkpt lat="49.08213" lon="-0.38179">
        <ele>31.6</ele>
        <time>2024-07-03T13:29:58Z</time>
      </trkpt>
      <trkpt lat="49.08209" lon="-0.38182">
        <ele>31.8</ele>
        <time>2024-07-03T13:29:59Z</time>
      </trkpt>
      <trkpt lat="49.08203" lon="-0.38184">
        <ele>32</ele>
        <time>2024-07-03T13:30:00Z</time>
      </trkpt>
      <trkpt lat="49.08198" lon="-0.38187">
        <ele>32.2</ele>
        <time>2024-07-03T13:30:01Z</time>
      </trkpt>
      <trkpt lat="49.08193" lon="-0.3819">
        <ele>32.2</ele>
        <time>2024-07-03T13:30:02Z</time>
      </trkpt>
      <trkpt lat="49.08188" lon="-0.38193">
        <ele>32.4</ele>
        <time>2024-07-03T13:30:03Z</time>
      </trkpt>
      <trkpt lat="49.08183" lon="-0.38195">
        <ele>32.8</ele>
        <time>2024-07-03T13:30:04Z</time>
      </trkpt>
      <trkpt lat="49.08178" lon="-0.38198">
        <ele>33</ele>
        <time>2024-07-03T13:30:05Z</time>
      </trkpt>
      <trkpt lat="49.08172" lon="-0.38201">
        <ele>33.4</ele>
        <time>2024-07-03T13:30:06Z</time>
      </trkpt>
      <trkpt lat="49.08167" lon="-0.38204">
        <ele>33.8</ele>
        <time>2024-07-03T13:30:07Z</time>
      </trkpt>
      <trkpt lat="49.08162" lon="-0.38207">
        <ele>34.2</ele>
        <time>2024-07-03T13:30:08Z</time>
      </trkpt>
      <trkpt lat="49.08158" lon="-0.3821">
        <ele>34.4</ele>
        <time>2024-07-03T13:30:09Z</time>
      </trkpt>
      <trkpt lat="49.08153" lon="-0.38213">
        <ele>34.6</ele>
        <time>2024-07-03T13:30:10Z</time>
      </trkpt>
      <trkpt lat="49.08148" lon="-0.38215">
        <ele>34.6</ele>
        <time>2024-07-03T13:30:11Z</time>
      </trkpt>
      <trkpt lat="49.08143" lon="-0.38218">
        <ele>34.8</ele>
        <time>2024-07-03T13:30:12Z</time>
      </trkpt>
      <trkpt lat="49.08138" lon="-0.3822">
        <ele>34.8</ele>
        <time>2024-07-03T13:30:13Z</time>
      </trkpt>
      <trkpt lat="49.08134" lon="-0.38222">
        <ele>34.8</ele>
        <time>2024-07-03T13:30:14Z</time>
      </trkpt>
      <trkpt lat="49.08128" lon="-0.38224">
        <ele>35</ele>
        <time>2024-07-03T13:30:15Z</time>
      </trkpt>
      <trkpt lat="49.08123" lon="-0.38227">
        <ele>35.4</ele>
        <time>2024-07-03T13:30:16Z</time>
      </trkpt>
      <trkpt lat="49.08118" lon="-0.3823">
        <ele>36</ele>
        <time>2024-07-03T13:30:17Z</time>
      </trkpt>
      <trkpt lat="49.08113" lon="-0.38233">
        <ele>36.6</ele>
        <time>2024-07-03T13:30:18Z</time>
      </trkpt>
      <trkpt lat="49.08108" lon="-0.38236">
        <ele>36.8</ele>
        <time>2024-07-03T13:30:19Z</time>
      </trkpt>
      <trkpt lat="49.08103" lon="-0.38239">
        <ele>37</ele>
        <time>2024-07-03T13:30:20Z</time>
      </trkpt>
      <trkpt lat="49.08097" lon="-0.38242">
        <ele>37.4</ele>
        <time>2024-07-03T13:30:21Z</time>
      </trkpt>
      <trkpt lat="49.08092" lon="-0.38246">
        <ele>37.6</ele>
        <time>2024-07-03T13:30:22Z</time>
      </trkpt>
      <trkpt lat="49.08087" lon="-0.38249">
        <ele>37.8</ele>
        <time>2024-07-03T13:30:23Z</time>
      </trkpt>
      <trkpt lat="49.08082" lon="-0.38252">
        <ele>37.8</ele>
        <time>2024-07-03T13:30:24Z</time>
      </trkpt>
      <trkpt lat="49.08076" lon="-0.38254">
        <ele>38</ele>
        <time>2024-07-03T13:30:25Z</time>
      </trkpt>
      <trkpt lat="49.08071" lon="-0.38257">
        <ele>38</ele>
        <time>2024-07-03T13:30:26Z</time>
      </trkpt>
      <trkpt lat="49.08066" lon="-0.3826">
        <ele>38.2</ele>
        <time>2024-07-03T13:30:27Z</time>
      </trkpt>
      <trkpt lat="49.08061" lon="-0.38263">
        <ele>38.4</ele>
        <time>2024-07-03T13:30:28Z</time>
      </trkpt>
      <trkpt lat="49.08056" lon="-0.38266">
        <ele>38.6</ele>
        <time>2024-07-03T13:30:29Z</time>
      </trkpt>
      <trkpt lat="49.0805" lon="-0.3827">
        <ele>39</ele>
        <time>2024-07-03T13:30:30Z</time>
      </trkpt>
      <trkpt lat="49.08045" lon="-0.38273">
        <ele>39.2</ele>
        <time>2024-07-03T13:30:31Z</time>
      </trkpt>
      <trkpt lat="49.0804" lon="-0.38276">
        <ele>39.4</ele>
        <time>2024-07-03T13:30:32Z</time>
      </trkpt>
      <trkpt lat="49.08035" lon="-0.38279">
        <ele>39.6</ele>
        <time>2024-07-03T13:30:33Z</time>
      </trkpt>
      <trkpt lat="49.0803" lon="-0.38283">
        <ele>40</ele>
        <time>2024-07-03T13:30:34Z</time>
      </trkpt>
      <trkpt lat="49.08025" lon="-0.38286">
        <ele>40.2</ele>
        <time>2024-07-03T13:30:35Z</time>
      </trkpt>
      <trkpt lat="49.0802" lon="-0.38289">
        <ele>40.4</ele>
        <time>2024-07-03T13:30:36Z</time>
      </trkpt>
      <trkpt lat="49.08015" lon="-0.38293">
        <ele>40.6</ele>
        <time>2024-07-03T13:30:37Z</time>
      </trkpt>
      <trkpt lat="49.0801" lon="-0.38297">
        <ele>40.8</ele>
        <time>2024-07-03T13:30:38Z</time>
      </trkpt>
      <trkpt lat="49.08005" lon="-0.38301">
        <ele>41</ele>
        <time>2024-07-03T13:30:39Z</time>
      </trkpt>
      <trkpt lat="49.08001" lon="-0.38305">
        <ele>41.4</ele>
        <time>2024-07-03T13:30:40Z</time>
      </trkpt>
      <trkpt lat="49.07996" lon="-0.38308">
        <ele>41.4</ele>
        <time>2024-07-03T13:30:41Z</time>
      </trkpt>
      <trkpt lat="49.07992" lon="-0.38311">
        <ele>41.6</ele>
        <time>2024-07-03T13:30:42Z</time>
      </trkpt>
      <trkpt lat="49.07987" lon="-0.38314">
        <ele>41.8</ele>
        <time>2024-07-03T13:30:43Z</time>
      </trkpt>
      <trkpt lat="49.07983" lon="-0.38316">
        <ele>42.2</ele>
        <time>2024-07-03T13:30:44Z</time>
      </trkpt>
      <trkpt lat="49.07978" lon="-0.38319">
        <ele>42.6</ele>
        <time>2024-07-03T13:30:45Z</time>
      </trkpt>
      <trkpt lat="49.07974" lon="-0.38321">
        <ele>43</ele>
        <time>2024-07-03T13:30:46Z</time>
      </trkpt>
      <trkpt lat="49.07969" lon="-0.38324">
        <ele>43.2</ele>
        <time>2024-07-03T13:30:47Z</time>
      </trkpt>
      <trkpt lat="49.07965" lon="-0.38327">
        <ele>43.6</ele>
        <time>2024-07-03T13:30:48Z</time>
      </trkpt>
      <trkpt lat="49.0796" lon="-0.3833">
        <ele>43.8</ele>
        <time>2024-07-03T13:30:49Z</time>
      </trkpt>
      <trkpt lat="49.07956" lon="-0.38333">
        <ele>44.2</ele>
        <time>2024-07-03T13:30:50Z</time>
      </trkpt>
      <trkpt lat="49.07952" lon="-0.38336">
        <ele>44.6</ele>
        <time>2024-07-03T13:30:51Z</time>
      </trkpt>
      <trkpt lat="49.07947" lon="-0.38339">
        <ele>44.8</ele>
        <time>2024-07-03T13:30:52Z</time>
      </trkpt>
      <trkpt lat="49.07943" lon="-0.38341">
        <ele>45</ele>
        <time>2024-07-03T13:30:53Z</time>
      </trkpt>
      <trkpt lat="49.07938" lon="-0.38344">
        <ele>45.2</ele>
        <time>2024-07-03T13:30:54Z</time>
      </trkpt>
      <trkpt lat="49.07933" lon="-0.38346">
        <ele>45.4</ele>
        <time>2024-07-03T13:30:55Z</time>
      </trkpt>
      <trkpt lat="49.07928" lon="-0.3835">
        <ele>45.4</ele>
        <time>2024-07-03T13:30:56Z</time>
      </trkpt>
      <trkpt lat="49.07923" lon="-0.38354">
        <ele>45.6</ele>
        <time>2024-07-03T13:30:57Z</time>
      </trkpt>
      <trkpt lat="49.07919" lon="-0.38357">
        <ele>45.8</ele>
        <time>2024-07-03T13:30:58Z</time>
      </trkpt>
      <trkpt lat="49.07914" lon="-0.38361">
        <ele>46.2</ele>
        <time>2024-07-03T13:30:59Z</time>
      </trkpt>
      <trkpt lat="49.07909" lon="-0.38364">
        <ele>46.6</ele>
        <time>2024-07-03T13:31:00Z</time>
      </trkpt>
      <trkpt lat="49.07904" lon="-0.38368">
        <ele>47</ele>
        <time>2024-07-03T13:31:01Z</time>
      </trkpt>
      <trkpt lat="49.079" lon="-0.38371">
        <ele>47.2</ele>
        <time>2024-07-03T13:31:02Z</time>
      </trkpt>
      <trkpt lat="49.07895" lon="-0.38375">
        <ele>47.2</ele>
        <time>2024-07-03T13:31:03Z</time>
      </trkpt>
      <trkpt lat="49.0789" lon="-0.38379">
        <ele>47.4</ele>
        <time>2024-07-03T13:31:04Z</time>
      </trkpt>
      <trkpt lat="49.07885" lon="-0.38382">
        <ele>47.4</ele>
        <time>2024-07-03T13:31:05Z</time>
      </trkpt>
      <trkpt lat="49.0788" lon="-0.38386">
        <ele>47.4</ele>
        <time>2024-07-03T13:31:06Z</time>
      </trkpt>
      <trkpt lat="49.07876" lon="-0.3839">
        <ele>47.4</ele>
        <time>2024-07-03T13:31:07Z</time>
      </trkpt>
      <trkpt lat="49.07871" lon="-0.38393">
        <ele>47.4</ele>
        <time>2024-07-03T13:31:08Z</time>
      </trkpt>
      <trkpt lat="49.07866" lon="-0.38397">
        <ele>47.6</ele>
        <time>2024-07-03T13:31:09Z</time>
      </trkpt>
      <trkpt lat="49.07861" lon="-0.38401">
        <ele>47.6</ele>
        <time>2024-07-03T13:31:10Z</time>
      </trkpt>
      <trkpt lat="49.07857" lon="-0.38405">
        <ele>48</ele>
        <time>2024-07-03T13:31:11Z</time>
      </trkpt>
      <trkpt lat="49.07852" lon="-0.38409">
        <ele>48.2</ele>
        <time>2024-07-03T13:31:12Z</time>
      </trkpt>
      <trkpt lat="49.07848" lon="-0.38413">
        <ele>48.6</ele>
        <time>2024-07-03T13:31:13Z</time>
      </trkpt>
      <trkpt lat="49.07843" lon="-0.38417">
        <ele>48.8</ele>
        <time>2024-07-03T13:31:14Z</time>
      </trkpt>
      <trkpt lat="49.07839" lon="-0.38421">
        <ele>48.8</ele>
        <time>2024-07-03T13:31:15Z</time>
      </trkpt>
      <trkpt lat="49.07834" lon="-0.38425">
        <ele>49</ele>
        <time>2024-07-03T13:31:16Z</time>
      </trkpt>
      <trkpt lat="49.07829" lon="-0.3843">
        <ele>49.2</ele>
        <time>2024-07-03T13:31:17Z</time>
      </trkpt>
      <trkpt lat="49.07824" lon="-0.38434">
        <ele>49.4</ele>
        <time>2024-07-03T13:31:18Z</time>
      </trkpt>
      <trkpt lat="49.0782" lon="-0.38437">
        <ele>50</ele>
        <time>2024-07-03T13:31:19Z</time>
      </trkpt>
      <trkpt lat="49.07815" lon="-0.38441">
        <ele>50.6</ele>
        <time>2024-07-03T13:31:20Z</time>
      </trkpt>
      <trkpt lat="49.0781" lon="-0.38445">
        <ele>51</ele>
        <time>2024-07-03T13:31:21Z</time>
      </trkpt>
      <trkpt lat="49.07806" lon="-0.38449">
        <ele>51.2</ele>
        <time>2024-07-03T13:31:22Z</time>
      </trkpt>
      <trkpt lat="49.07801" lon="-0.38453">
        <ele>51.4</ele>
        <time>2024-07-03T13:31:23Z</time>
      </trkpt>
      <trkpt lat="49.07796" lon="-0.38456">
        <ele>51.6</ele>
        <time>2024-07-03T13:31:24Z</time>
      </trkpt>
      <trkpt lat="49.07792" lon="-0.3846">
        <ele>51.8</ele>
        <time>2024-07-03T13:31:25Z</time>
      </trkpt>
      <trkpt lat="49.07787" lon="-0.38464">
        <ele>52</ele>
        <time>2024-07-03T13:31:26Z</time>
      </trkpt>
      <trkpt lat="49.07782" lon="-0.38468">
        <ele>52.2</ele>
        <time>2024-07-03T13:31:27Z</time>
      </trkpt>
      <trkpt lat="49.07777" lon="-0.38471">
        <ele>52.4</ele>
        <time>2024-07-03T13:31:28Z</time>
      </trkpt>
      <trkpt lat="49.07773" lon="-0.38475">
        <ele>52.6</ele>
        <time>2024-07-03T13:31:29Z</time>
      </trkpt>
      <trkpt lat="49.07768" lon="-0.38479">
        <ele>52.8</ele>
        <time>2024-07-03T13:31:30Z</time>
      </trkpt>
      <trkpt lat="49.07764" lon="-0.38483">
        <ele>52.8</ele>
        <time>2024-07-03T13:31:31Z</time>
      </trkpt>
      <trkpt lat="49.07759" lon="-0.38486">
        <ele>53</ele>
        <time>2024-07-03T13:31:32Z</time>
      </trkpt>
      <trkpt lat="49.07755" lon="-0.3849">
        <ele>53.2</ele>
        <time>2024-07-03T13:31:33Z</time>
      </trkpt>
      <trkpt lat="49.0775" lon="-0.38493">
        <ele>53.4</ele>
        <time>2024-07-03T13:31:34Z</time>
      </trkpt>
      <trkpt lat="49.07746" lon="-0.38496">
        <ele>53.4</ele>
        <time>2024-07-03T13:31:35Z</time>
      </trkpt>
      <trkpt lat="49.07742" lon="-0.385">
        <ele>53.6</ele>
        <time>2024-07-03T13:31:36Z</time>
      </trkpt>
      <trkpt lat="49.07737" lon="-0.38503">
        <ele>53.6</ele>
        <time>2024-07-03T13:31:37Z</time>
      </trkpt>
      <trkpt lat="49.07733" lon="-0.38507">
        <ele>53.8</ele>
        <time>2024-07-03T13:31:38Z</time>
      </trkpt>
      <trkpt lat="49.07728" lon="-0.38511">
        <ele>54</ele>
        <time>2024-07-03T13:31:39Z</time>
      </trkpt>
      <trkpt lat="49.07724" lon="-0.38515">
        <ele>54.2</ele>
        <time>2024-07-03T13:31:40Z</time>
      </trkpt>
      <trkpt lat="49.07719" lon="-0.38518">
        <ele>54.6</ele>
        <time>2024-07-03T13:31:41Z</time>
      </trkpt>
      <trkpt lat="49.07715" lon="-0.38522">
        <ele>54.8</ele>
        <time>2024-07-03T13:31:42Z</time>
      </trkpt>
      <trkpt lat="49.0771" lon="-0.38526">
        <ele>55</ele>
        <time>2024-07-03T13:31:43Z</time>
      </trkpt>
      <trkpt lat="49.07705" lon="-0.3853">
        <ele>55.4</ele>
        <time>2024-07-03T13:31:44Z</time>
      </trkpt>
      <trkpt lat="49.07701" lon="-0.38534">
        <ele>55.8</ele>
        <time>2024-07-03T13:31:45Z</time>
      </trkpt>
      <trkpt lat="49.07696" lon="-0.38538">
        <ele>56</ele>
        <time>2024-07-03T13:31:46Z</time>
      </trkpt>
      <trkpt lat="49.07691" lon="-0.38542">
        <ele>56.4</ele>
        <time>2024-07-03T13:31:47Z</time>
      </trkpt>
      <trkpt lat="49.07687" lon="-0.38546">
        <ele>56.6</ele>
        <time>2024-07-03T13:31:48Z</time>
      </trkpt>
      <trkpt lat="49.07682" lon="-0.3855">
        <ele>56.8</ele>
        <time>2024-07-03T13:31:49Z</time>
      </trkpt>
      <trkpt lat="49.07677" lon="-0.38554">
        <ele>57.2</ele>
        <time>2024-07-03T13:31:50Z</time>
      </trkpt>
      <trkpt lat="49.07672" lon="-0.38558">
        <ele>57.4</ele>
        <time>2024-07-03T13:31:51Z</time>
      </trkpt>
      <trkpt lat="49.07667" lon="-0.38563">
        <ele>57.8</ele>
        <time>2024-07-03T13:31:52Z</time>
      </trkpt>
      <trkpt lat="49.07662" lon="-0.38566">
        <ele>58</ele>
        <time>2024-07-03T13:31:53Z</time>
      </trkpt>
      <trkpt lat="49.07657" lon="-0.3857">
        <ele>58.2</ele>
        <time>2024-07-03T13:31:54Z</time>
      </trkpt>
      <trkpt lat="49.07652" lon="-0.38575">
        <ele>58.4</ele>
        <time>2024-07-03T13:31:55Z</time>
      </trkpt>
      <trkpt lat="49.07647" lon="-0.38579">
        <ele>58.6</ele>
        <time>2024-07-03T13:31:56Z</time>
      </trkpt>
      <trkpt lat="49.07642" lon="-0.38583">
        <ele>58.6</ele>
        <time>2024-07-03T13:31:57Z</time>
      </trkpt>
      <trkpt lat="49.07637" lon="-0.38588">
        <ele>58.8</ele>
        <time>2024-07-03T13:31:58Z</time>
      </trkpt>
      <trkpt lat="49.07632" lon="-0.38592">
        <ele>58.8</ele>
        <time>2024-07-03T13:31:59Z</time>
      </trkpt>
      <trkpt lat="49.07627" lon="-0.38596">
        <ele>59</ele>
        <time>2024-07-03T13:32:00Z</time>
      </trkpt>
      <trkpt lat="49.07622" lon="-0.38601">
        <ele>59.2</ele>
        <time>2024-07-03T13:32:01Z</time>
      </trkpt>
      <trkpt lat="49.07617" lon="-0.38605">
        <ele>59.4</ele>
        <time>2024-07-03T13:32:02Z</time>
      </trkpt>
      <trkpt lat="49.07612" lon="-0.38609">
        <ele>59.6</ele>
        <time>2024-07-03T13:32:03Z</time>
      </trkpt>
      <trkpt lat="49.07606" lon="-0.38613">
        <ele>59.8</ele>
        <time>2024-07-03T13:32:04Z</time>
      </trkpt>
      <trkpt lat="49.07602" lon="-0.38617">
        <ele>60</ele>
        <time>2024-07-03T13:32:05Z</time>
      </trkpt>
      <trkpt lat="49.07597" lon="-0.38621">
        <ele>60.4</ele>
        <time>2024-07-03T13:32:06Z</time>
      </trkpt>
      <trkpt lat="49.07592" lon="-0.38625">
        <ele>60.6</ele>
        <time>2024-07-03T13:32:07Z</time>
      </trkpt>
      <trkpt lat="49.07587" lon="-0.38628">
        <ele>61</ele>
        <time>2024-07-03T13:32:08Z</time>
      </trkpt>
      <trkpt lat="49.07583" lon="-0.38631">
        <ele>61.4</ele>
        <time>2024-07-03T13:32:09Z</time>
      </trkpt>
      <trkpt lat="49.07578" lon="-0.38634">
        <ele>61.8</ele>
        <time>2024-07-03T13:32:10Z</time>
      </trkpt>
      <trkpt lat="49.07574" lon="-0.38637">
        <ele>62</ele>
        <time>2024-07-03T13:32:11Z</time>
      </trkpt>
      <trkpt lat="49.07569" lon="-0.3864">
        <ele>62.2</ele>
        <time>2024-07-03T13:32:12Z</time>
      </trkpt>
      <trkpt lat="49.07565" lon="-0.38644">
        <ele>62.4</ele>
        <time>2024-07-03T13:32:13Z</time>
      </trkpt>
      <trkpt lat="49.07561" lon="-0.38647">
        <ele>62.6</ele>
        <time>2024-07-03T13:32:14Z</time>
      </trkpt>
      <trkpt lat="49.07557" lon="-0.3865">
        <ele>62.8</ele>
        <time>2024-07-03T13:32:15Z</time>
      </trkpt>
      <trkpt lat="49.07554" lon="-0.38653">
        <ele>63.2</ele>
        <time>2024-07-03T13:32:16Z</time>
      </trkpt>
      <trkpt lat="49.0755" lon="-0.38655">
        <ele>63.4</ele>
        <time>2024-07-03T13:32:17Z</time>
      </trkpt>
      <trkpt lat="49.07547" lon="-0.38657">
        <ele>63.6</ele>
        <time>2024-07-03T13:32:18Z</time>
      </trkpt>
      <trkpt lat="49.07544" lon="-0.3866">
        <ele>63.8</ele>
        <time>2024-07-03T13:32:19Z</time>
      </trkpt>
      <trkpt lat="49.0754" lon="-0.38663">
        <ele>64</ele>
        <time>2024-07-03T13:32:20Z</time>
      </trkpt>
      <trkpt lat="49.07536" lon="-0.38666">
        <ele>64.2</ele>
        <time>2024-07-03T13:32:21Z</time>
      </trkpt>
      <trkpt lat="49.07532" lon="-0.3867">
        <ele>64.2</ele>
        <time>2024-07-03T13:32:22Z</time>
      </trkpt>
      <trkpt lat="49.07528" lon="-0.38673">
        <ele>64.4</ele>
        <time>2024-07-03T13:32:23Z</time>
      </trkpt>
      <trkpt lat="49.07524" lon="-0.38676">
        <ele>64.4</ele>
        <time>2024-07-03T13:32:24Z</time>
      </trkpt>
      <trkpt lat="49.0752" lon="-0.3868">
        <ele>64.6</ele>
        <time>2024-07-03T13:32:25Z</time>
      </trkpt>
      <trkpt lat="49.07516" lon="-0.38683">
        <ele>64.6</ele>
        <time>2024-07-03T13:32:26Z</time>
      </trkpt>
      <trkpt lat="49.07512" lon="-0.38687">
        <ele>64.8</ele>
        <time>2024-07-03T13:32:27Z</time>
      </trkpt>
      <trkpt lat="49.07507" lon="-0.3869">
        <ele>65</ele>
        <time>2024-07-03T13:32:28Z</time>
      </trkpt>
      <trkpt lat="49.07503" lon="-0.38693">
        <ele>65.2</ele>
        <time>2024-07-03T13:32:29Z</time>
      </trkpt>
      <trkpt lat="49.07499" lon="-0.38697">
        <ele>65.4</ele>
        <time>2024-07-03T13:32:30Z</time>
      </trkpt>
      <trkpt lat="49.07494" lon="-0.387">
        <ele>65.4</ele>
        <time>2024-07-03T13:32:31Z</time>
      </trkpt>
      <trkpt lat="49.0749" lon="-0.38704">
        <ele>65.6</ele>
        <time>2024-07-03T13:32:32Z</time>
      </trkpt>
      <trkpt lat="49.07486" lon="-0.38707">
        <ele>65.8</ele>
        <time>2024-07-03T13:32:33Z</time>
      </trkpt>
      <trkpt lat="49.07481" lon="-0.38711">
        <ele>65.8</ele>
        <time>2024-07-03T13:32:34Z</time>
      </trkpt>
      <trkpt lat="49.07476" lon="-0.38714">
        <ele>66</ele>
        <time>2024-07-03T13:32:35Z</time>
      </trkpt>
      <trkpt lat="49.07472" lon="-0.38718">
        <ele>66</ele>
        <time>2024-07-03T13:32:36Z</time>
      </trkpt>
      <trkpt lat="49.07467" lon="-0.38722">
        <ele>66.2</ele>
        <time>2024-07-03T13:32:37Z</time>
      </trkpt>
      <trkpt lat="49.07463" lon="-0.38726">
        <ele>66.2</ele>
        <time>2024-07-03T13:32:38Z</time>
      </trkpt>
      <trkpt lat="49.07458" lon="-0.38729">
        <ele>66.4</ele>
        <time>2024-07-03T13:32:39Z</time>
      </trkpt>
      <trkpt lat="49.07453" lon="-0.38733">
        <ele>66.6</ele>
        <time>2024-07-03T13:32:40Z</time>
      </trkpt>
      <trkpt lat="49.07448" lon="-0.38736">
        <ele>67</ele>
        <time>2024-07-03T13:32:41Z</time>
      </trkpt>
      <trkpt lat="49.07443" lon="-0.3874">
        <ele>67.2</ele>
        <time>2024-07-03T13:32:42Z</time>
      </trkpt>
      <trkpt lat="49.07438" lon="-0.38744">
        <ele>67.4</ele>
        <time>2024-07-03T13:32:43Z</time>
      </trkpt>
      <trkpt lat="49.07433" lon="-0.38747">
        <ele>67.4</ele>
        <time>2024-07-03T13:32:44Z</time>
      </trkpt>
      <trkpt lat="49.07428" lon="-0.38751">
        <ele>67.6</ele>
        <time>2024-07-03T13:32:45Z</time>
      </trkpt>
      <trkpt lat="49.07423" lon="-0.38754">
        <ele>67.6</ele>
        <time>2024-07-03T13:32:46Z</time>
      </trkpt>
      <trkpt lat="49.07418" lon="-0.38758">
        <ele>67.8</ele>
        <time>2024-07-03T13:32:47Z</time>
      </trkpt>
      <trkpt lat="49.07413" lon="-0.38762">
        <ele>67.8</ele>
        <time>2024-07-03T13:32:48Z</time>
      </trkpt>
      <trkpt lat="49.07408" lon="-0.38766">
        <ele>67.8</ele>
        <time>2024-07-03T13:32:49Z</time>
      </trkpt>
      <trkpt lat="49.07403" lon="-0.38769">
        <ele>67.8</ele>
        <time>2024-07-03T13:32:50Z</time>
      </trkpt>
      <trkpt lat="49.07398" lon="-0.38772">
        <ele>67.8</ele>
        <time>2024-07-03T13:32:51Z</time>
      </trkpt>
      <trkpt lat="49.07393" lon="-0.38775">
        <ele>67.8</ele>
        <time>2024-07-03T13:32:52Z</time>
      </trkpt>
      <trkpt lat="49.07388" lon="-0.38778">
        <ele>67.8</ele>
        <time>2024-07-03T13:32:53Z</time>
      </trkpt>
      <trkpt lat="49.07384" lon="-0.38782">
        <ele>67.8</ele>
        <time>2024-07-03T13:32:54Z</time>
      </trkpt>
      <trkpt lat="49.07379" lon="-0.38785">
        <ele>68</ele>
        <time>2024-07-03T13:32:55Z</time>
      </trkpt>
      <trkpt lat="49.07374" lon="-0.38789">
        <ele>68.2</ele>
        <time>2024-07-03T13:32:56Z</time>
      </trkpt>
      <trkpt lat="49.07369" lon="-0.38792">
        <ele>68.4</ele>
        <time>2024-07-03T13:32:57Z</time>
      </trkpt>
      <trkpt lat="49.07363" lon="-0.38795">
        <ele>68.8</ele>
        <time>2024-07-03T13:32:58Z</time>
      </trkpt>
      <trkpt lat="49.07358" lon="-0.38799">
        <ele>69.2</ele>
        <time>2024-07-03T13:32:59Z</time>
      </trkpt>
      <trkpt lat="49.07352" lon="-0.38802">
        <ele>69.4</ele>
        <time>2024-07-03T13:33:00Z</time>
      </trkpt>
      <trkpt lat="49.07347" lon="-0.38805">
        <ele>69.8</ele>
        <time>2024-07-03T13:33:01Z</time>
      </trkpt>
      <trkpt lat="49.07342" lon="-0.38809">
        <ele>70</ele>
        <time>2024-07-03T13:33:02Z</time>
      </trkpt>
      <trkpt lat="49.07336" lon="-0.38812">
        <ele>70.2</ele>
        <time>2024-07-03T13:33:03Z</time>
      </trkpt>
      <trkpt lat="49.0733" lon="-0.38816">
        <ele>70.2</ele>
        <time>2024-07-03T13:33:04Z</time>
      </trkpt>
      <trkpt lat="49.07324" lon="-0.3882">
        <ele>70.4</ele>
        <time>2024-07-03T13:33:05Z</time>
      </trkpt>
      <trkpt lat="49.07319" lon="-0.38824">
        <ele>70.6</ele>
        <time>2024-07-03T13:33:06Z</time>
      </trkpt>
      <trkpt lat="49.07313" lon="-0.38827">
        <ele>70.8</ele>
        <time>2024-07-03T13:33:07Z</time>
      </trkpt>
      <trkpt lat="49.07306" lon="-0.38831">
        <ele>71</ele>
        <time>2024-07-03T13:33:08Z</time>
      </trkpt>
      <trkpt lat="49.073" lon="-0.38834">
        <ele>71.2</ele>
        <time>2024-07-03T13:33:09Z</time>
      </trkpt>
      <trkpt lat="49.07294" lon="-0.38838">
        <ele>71.4</ele>
        <time>2024-07-03T13:33:10Z</time>
      </trkpt>
      <trkpt lat="49.07288" lon="-0.38842">
        <ele>71.6</ele>
        <time>2024-07-03T13:33:11Z</time>
      </trkpt>
      <trkpt lat="49.07282" lon="-0.38846">
        <ele>71.8</ele>
        <time>2024-07-03T13:33:12Z</time>
      </trkpt>
      <trkpt lat="49.07276" lon="-0.3885">
        <ele>71.8</ele>
        <time>2024-07-03T13:33:13Z</time>
      </trkpt>
      <trkpt lat="49.0727" lon="-0.38854">
        <ele>71.8</ele>
        <time>2024-07-03T13:33:14Z</time>
      </trkpt>
      <trkpt lat="49.07264" lon="-0.38858">
        <ele>72</ele>
        <time>2024-07-03T13:33:15Z</time>
      </trkpt>
      <trkpt lat="49.07258" lon="-0.38861">
        <ele>72</ele>
        <time>2024-07-03T13:33:16Z</time>
      </trkpt>
      <trkpt lat="49.07252" lon="-0.38865">
        <ele>72.2</ele>
        <time>2024-07-03T13:33:17Z</time>
      </trkpt>
      <trkpt lat="49.07246" lon="-0.38868">
        <ele>72.4</ele>
        <time>2024-07-03T13:33:18Z</time>
      </trkpt>
      <trkpt lat="49.0724" lon="-0.38872">
        <ele>72.6</ele>
        <time>2024-07-03T13:33:19Z</time>
      </trkpt>
      <trkpt lat="49.07235" lon="-0.38875">
        <ele>72.8</ele>
        <time>2024-07-03T13:33:20Z</time>
      </trkpt>
      <trkpt lat="49.07229" lon="-0.38879">
        <ele>72.8</ele>
        <time>2024-07-03T13:33:21Z</time>
      </trkpt>
      <trkpt lat="49.07223" lon="-0.38883">
        <ele>73</ele>
        <time>2024-07-03T13:33:22Z</time>
      </trkpt>
      <trkpt lat="49.07217" lon="-0.38886">
        <ele>73</ele>
        <time>2024-07-03T13:33:23Z</time>
      </trkpt>
      <trkpt lat="49.07211" lon="-0.3889">
        <ele>73.2</ele>
        <time>2024-07-03T13:33:24Z</time>
      </trkpt>
      <trkpt lat="49.07206" lon="-0.38893">
        <ele>73.4</ele>
        <time>2024-07-03T13:33:25Z</time>
      </trkpt>
      <trkpt lat="49.07201" lon="-0.38896">
        <ele>73.8</ele>
        <time>2024-07-03T13:33:26Z</time>
      </trkpt>
      <trkpt lat="49.07196" lon="-0.38899">
        <ele>74</ele>
        <time>2024-07-03T13:33:27Z</time>
      </trkpt>
      <trkpt lat="49.07191" lon="-0.38901">
        <ele>74.2</ele>
        <time>2024-07-03T13:33:28Z</time>
      </trkpt>
      <trkpt lat="49.07186" lon="-0.38903">
        <ele>74.4</ele>
        <time>2024-07-03T13:33:29Z</time>
      </trkpt>
      <trkpt lat="49.07182" lon="-0.38906">
        <ele>74.6</ele>
        <time>2024-07-03T13:33:30Z</time>
      </trkpt>
      <trkpt lat="49.07178" lon="-0.38908">
        <ele>74.8</ele>
        <time>2024-07-03T13:33:31Z</time>
      </trkpt>
      <trkpt lat="49.07174" lon="-0.38911">
        <ele>74.8</ele>
        <time>2024-07-03T13:33:32Z</time>
      </trkpt>
      <trkpt lat="49.0717" lon="-0.38914">
        <ele>75</ele>
        <time>2024-07-03T13:33:33Z</time>
      </trkpt>
      <trkpt lat="49.07165" lon="-0.38918">
        <ele>75.2</ele>
        <time>2024-07-03T13:33:34Z</time>
      </trkpt>
      <trkpt lat="49.0716" lon="-0.38921">
        <ele>75.2</ele>
        <time>2024-07-03T13:33:35Z</time>
      </trkpt>
      <trkpt lat="49.07155" lon="-0.38925">
        <ele>75.4</ele>
        <time>2024-07-03T13:33:36Z</time>
      </trkpt>
      <trkpt lat="49.0715" lon="-0.38928">
        <ele>75.2</ele>
        <time>2024-07-03T13:33:37Z</time>
      </trkpt>
      <trkpt lat="49.07145" lon="-0.38932">
        <ele>75.2</ele>
        <time>2024-07-03T13:33:38Z</time>
      </trkpt>
      <trkpt lat="49.0714" lon="-0.38935">
        <ele>75.2</ele>
        <time>2024-07-03T13:33:39Z</time>
      </trkpt>
      <trkpt lat="49.07135" lon="-0.38939">
        <ele>75.4</ele>
        <time>2024-07-03T13:33:40Z</time>
      </trkpt>
      <trkpt lat="49.0713" lon="-0.38942">
        <ele>75.6</ele>
        <time>2024-07-03T13:33:41Z</time>
      </trkpt>
      <trkpt lat="49.07125" lon="-0.38946">
        <ele>75.6</ele>
        <time>2024-07-03T13:33:42Z</time>
      </trkpt>
      <trkpt lat="49.0712" lon="-0.3895">
        <ele>75.6</ele>
        <time>2024-07-03T13:33:43Z</time>
      </trkpt>
      <trkpt lat="49.07114" lon="-0.38954">
        <ele>75.6</ele>
        <time>2024-07-03T13:33:44Z</time>
      </trkpt>
      <trkpt lat="49.07109" lon="-0.38957">
        <ele>75.6</ele>
        <time>2024-07-03T13:33:45Z</time>
      </trkpt>
      <trkpt lat="49.07104" lon="-0.38961">
        <ele>75.8</ele>
        <time>2024-07-03T13:33:46Z</time>
      </trkpt>
      <trkpt lat="49.07099" lon="-0.38966">
        <ele>76</ele>
        <time>2024-07-03T13:33:47Z</time>
      </trkpt>
      <trkpt lat="49.07094" lon="-0.38972">
        <ele>76.2</ele>
        <time>2024-07-03T13:33:48Z</time>
      </trkpt>
      <trkpt lat="49.0709" lon="-0.38978">
        <ele>76.4</ele>
        <time>2024-07-03T13:33:49Z</time>
      </trkpt>
      <trkpt lat="49.07086" lon="-0.38985">
        <ele>76.6</ele>
        <time>2024-07-03T13:33:50Z</time>
      </trkpt>
      <trkpt lat="49.07082" lon="-0.38993">
        <ele>76.6</ele>
        <time>2024-07-03T13:33:51Z</time>
      </trkpt>
      <trkpt lat="49.07078" lon="-0.39001">
        <ele>76.6</ele>
        <time>2024-07-03T13:33:52Z</time>
      </trkpt>
      <trkpt lat="49.07075" lon="-0.39009">
        <ele>76.6</ele>
        <time>2024-07-03T13:33:53Z</time>
      </trkpt>
      <trkpt lat="49.07073" lon="-0.39017">
        <ele>76.6</ele>
        <time>2024-07-03T13:33:54Z</time>
      </trkpt>
      <trkpt lat="49.07071" lon="-0.39026">
        <ele>76.6</ele>
        <time>2024-07-03T13:33:55Z</time>
      </trkpt>
      <trkpt lat="49.07069" lon="-0.39035">
        <ele>76.6</ele>
        <time>2024-07-03T13:33:56Z</time>
      </trkpt>
      <trkpt lat="49.07067" lon="-0.39044">
        <ele>76.4</ele>
        <time>2024-07-03T13:33:57Z</time>
      </trkpt>
      <trkpt lat="49.07066" lon="-0.39053">
        <ele>76.4</ele>
        <time>2024-07-03T13:33:58Z</time>
      </trkpt>
      <trkpt lat="49.07065" lon="-0.39063">
        <ele>76.4</ele>
        <time>2024-07-03T13:33:59Z</time>
      </trkpt>
      <trkpt lat="49.07064" lon="-0.39072">
        <ele>76.4</ele>
        <time>2024-07-03T13:34:00Z</time>
      </trkpt>
      <trkpt lat="49.07062" lon="-0.39081">
        <ele>76.4</ele>
        <time>2024-07-03T13:34:01Z</time>
      </trkpt>
      <trkpt lat="49.0706" lon="-0.39089">
        <ele>76.4</ele>
        <time>2024-07-03T13:34:02Z</time>
      </trkpt>
      <trkpt lat="49.07057" lon="-0.39097">
        <ele>76.6</ele>
        <time>2024-07-03T13:34:03Z</time>
      </trkpt>
      <trkpt lat="49.07054" lon="-0.39104">
        <ele>76.6</ele>
        <time>2024-07-03T13:34:04Z</time>
      </trkpt>
      <trkpt lat="49.07049" lon="-0.3911">
        <ele>76.8</ele>
        <time>2024-07-03T13:34:05Z</time>
      </trkpt>
      <trkpt lat="49.07044" lon="-0.39115">
        <ele>77</ele>
        <time>2024-07-03T13:34:06Z</time>
      </trkpt>
      <trkpt lat="49.07039" lon="-0.3912">
        <ele>77.4</ele>
        <time>2024-07-03T13:34:07Z</time>
      </trkpt>
      <trkpt lat="49.07034" lon="-0.39124">
        <ele>77.6</ele>
        <time>2024-07-03T13:34:08Z</time>
      </trkpt>
      <trkpt lat="49.07028" lon="-0.39126">
        <ele>77.6</ele>
        <time>2024-07-03T13:34:09Z</time>
      </trkpt>
      <trkpt lat="49.07023" lon="-0.39128">
        <ele>77.8</ele>
        <time>2024-07-03T13:34:10Z</time>
      </trkpt>
      <trkpt lat="49.07017" lon="-0.39129">
        <ele>78</ele>
        <time>2024-07-03T13:34:11Z</time>
      </trkpt>
      <trkpt lat="49.07011" lon="-0.39129">
        <ele>78.2</ele>
        <time>2024-07-03T13:34:12Z</time>
      </trkpt>
      <trkpt lat="49.07004" lon="-0.39128">
        <ele>78.2</ele>
        <time>2024-07-03T13:34:13Z</time>
      </trkpt>
      <trkpt lat="49.06998" lon="-0.39127">
        <ele>78.4</ele>
        <time>2024-07-03T13:34:14Z</time>
      </trkpt>
      <trkpt lat="49.06993" lon="-0.39125">
        <ele>78.4</ele>
        <time>2024-07-03T13:34:15Z</time>
      </trkpt>
      <trkpt lat="49.06988" lon="-0.39123">
        <ele>78.6</ele>
        <time>2024-07-03T13:34:16Z</time>
      </trkpt>
      <trkpt lat="49.06983" lon="-0.39121">
        <ele>78.6</ele>
        <time>2024-07-03T13:34:17Z</time>
      </trkpt>
      <trkpt lat="49.06978" lon="-0.39119">
        <ele>78.8</ele>
        <time>2024-07-03T13:34:18Z</time>
      </trkpt>
      <trkpt lat="49.06973" lon="-0.39119">
        <ele>79</ele>
        <time>2024-07-03T13:34:19Z</time>
      </trkpt>
      <trkpt lat="49.06968" lon="-0.39119">
        <ele>79.2</ele>
        <time>2024-07-03T13:34:20Z</time>
      </trkpt>
      <trkpt lat="49.06963" lon="-0.39121">
        <ele>79.2</ele>
        <time>2024-07-03T13:34:21Z</time>
      </trkpt>
      <trkpt lat="49.06957" lon="-0.39122">
        <ele>79.2</ele>
        <time>2024-07-03T13:34:22Z</time>
      </trkpt>
      <trkpt lat="49.06952" lon="-0.39123">
        <ele>79.2</ele>
        <time>2024-07-03T13:34:23Z</time>
      </trkpt>
      <trkpt lat="49.06947" lon="-0.39124">
        <ele>79.4</ele>
        <time>2024-07-03T13:34:24Z</time>
      </trkpt>
      <trkpt lat="49.06942" lon="-0.39124">
        <ele>79.4</ele>
        <time>2024-07-03T13:34:25Z</time>
      </trkpt>
      <trkpt lat="49.06936" lon="-0.39123">
        <ele>79.4</ele>
        <time>2024-07-03T13:34:26Z</time>
      </trkpt>
      <trkpt lat="49.06931" lon="-0.39121">
        <ele>79.6</ele>
        <time>2024-07-03T13:34:27Z</time>
      </trkpt>
      <trkpt lat="49.06926" lon="-0.39118">
        <ele>79.6</ele>
        <time>2024-07-03T13:34:28Z</time>
      </trkpt>
      <trkpt lat="49.06921" lon="-0.39115">
        <ele>79.8</ele>
        <time>2024-07-03T13:34:29Z</time>
      </trkpt>
      <trkpt lat="49.06917" lon="-0.39111">
        <ele>80</ele>
        <time>2024-07-03T13:34:30Z</time>
      </trkpt>
      <trkpt lat="49.06914" lon="-0.39106">
        <ele>80.2</ele>
        <time>2024-07-03T13:34:31Z</time>
      </trkpt>
      <trkpt lat="49.06911" lon="-0.391">
        <ele>80.4</ele>
        <time>2024-07-03T13:34:32Z</time>
      </trkpt>
      <trkpt lat="49.0691" lon="-0.39094">
        <ele>80.8</ele>
        <time>2024-07-03T13:34:33Z</time>
      </trkpt>
      <trkpt lat="49.06908" lon="-0.39087">
        <ele>81</ele>
        <time>2024-07-03T13:34:34Z</time>
      </trkpt>
      <trkpt lat="49.06908" lon="-0.3908">
        <ele>81</ele>
        <time>2024-07-03T13:34:35Z</time>
      </trkpt>
      <trkpt lat="49.06908" lon="-0.39072">
        <ele>81.2</ele>
        <time>2024-07-03T13:34:36Z</time>
      </trkpt>
      <trkpt lat="49.06908" lon="-0.39065">
        <ele>81</ele>
        <time>2024-07-03T13:34:37Z</time>
      </trkpt>
      <trkpt lat="49.06908" lon="-0.39058">
        <ele>80.8</ele>
        <time>2024-07-03T13:34:38Z</time>
      </trkpt>
      <trkpt lat="49.06908" lon="-0.3905">
        <ele>80.6</ele>
        <time>2024-07-03T13:34:39Z</time>
      </trkpt>
      <trkpt lat="49.06906" lon="-0.39043">
        <ele>80.4</ele>
        <time>2024-07-03T13:34:40Z</time>
      </trkpt>
      <trkpt lat="49.06904" lon="-0.39037">
        <ele>80.4</ele>
        <time>2024-07-03T13:34:41Z</time>
      </trkpt>
      <trkpt lat="49.069" lon="-0.39031">
        <ele>80.2</ele>
        <time>2024-07-03T13:34:42Z</time>
      </trkpt>
      <trkpt lat="49.06895" lon="-0.39026">
        <ele>80.2</ele>
        <time>2024-07-03T13:34:43Z</time>
      </trkpt>
      <trkpt lat="49.0689" lon="-0.39023">
        <ele>80</ele>
        <time>2024-07-03T13:34:44Z</time>
      </trkpt>
      <trkpt lat="49.06885" lon="-0.39021">
        <ele>79.8</ele>
        <time>2024-07-03T13:34:45Z</time>
      </trkpt>
      <trkpt lat="49.06879" lon="-0.3902">
        <ele>79.6</ele>
        <time>2024-07-03T13:34:46Z</time>
      </trkpt>
      <trkpt lat="49.06874" lon="-0.3902">
        <ele>79.4</ele>
        <time>2024-07-03T13:34:47Z</time>
      </trkpt>
      <trkpt lat="49.06868" lon="-0.39021">
        <ele>79</ele>
        <time>2024-07-03T13:34:48Z</time>
      </trkpt>
      <trkpt lat="49.06863" lon="-0.39023">
        <ele>78.8</ele>
        <time>2024-07-03T13:34:49Z</time>
      </trkpt>
      <trkpt lat="49.06858" lon="-0.39026">
        <ele>78.6</ele>
        <time>2024-07-03T13:34:50Z</time>
      </trkpt>
      <trkpt lat="49.06853" lon="-0.3903">
        <ele>78.4</ele>
        <time>2024-07-03T13:34:51Z</time>
      </trkpt>
      <trkpt lat="49.06848" lon="-0.39035">
        <ele>78</ele>
        <time>2024-07-03T13:34:52Z</time>
      </trkpt>
      <trkpt lat="49.06843" lon="-0.3904">
        <ele>77.8</ele>
        <time>2024-07-03T13:34:53Z</time>
      </trkpt>
      <trkpt lat="49.06839" lon="-0.39046">
        <ele>77.8</ele>
        <time>2024-07-03T13:34:54Z</time>
      </trkpt>
      <trkpt lat="49.06835" lon="-0.39053">
        <ele>77.8</ele>
        <time>2024-07-03T13:34:55Z</time>
      </trkpt>
      <trkpt lat="49.06832" lon="-0.39061">
        <ele>77.8</ele>
        <time>2024-07-03T13:34:56Z</time>
      </trkpt>
      <trkpt lat="49.0683" lon="-0.39069">
        <ele>78</ele>
        <time>2024-07-03T13:34:57Z</time>
      </trkpt>
      <trkpt lat="49.06827" lon="-0.39078">
        <ele>78</ele>
        <time>2024-07-03T13:34:58Z</time>
      </trkpt>
      <trkpt lat="49.06825" lon="-0.39087">
        <ele>78.2</ele>
        <time>2024-07-03T13:34:59Z</time>
      </trkpt>
      <trkpt lat="49.06823" lon="-0.39095">
        <ele>78.2</ele>
        <time>2024-07-03T13:35:00Z</time>
      </trkpt>
      <trkpt lat="49.06821" lon="-0.39104">
        <ele>78.2</ele>
        <time>2024-07-03T13:35:01Z</time>
      </trkpt>
      <trkpt lat="49.06819" lon="-0.39114">
        <ele>78.4</ele>
        <time>2024-07-03T13:35:02Z</time>
      </trkpt>
      <trkpt lat="49.06817" lon="-0.39123">
        <ele>78.6</ele>
        <time>2024-07-03T13:35:03Z</time>
      </trkpt>
      <trkpt lat="49.06815" lon="-0.39133">
        <ele>78.8</ele>
        <time>2024-07-03T13:35:04Z</time>
      </trkpt>
      <trkpt lat="49.06812" lon="-0.39142">
        <ele>79.2</ele>
        <time>2024-07-03T13:35:05Z</time>
      </trkpt>
      <trkpt lat="49.06809" lon="-0.39151">
        <ele>79.4</ele>
        <time>2024-07-03T13:35:06Z</time>
      </trkpt>
      <trkpt lat="49.06806" lon="-0.3916">
        <ele>79.6</ele>
        <time>2024-07-03T13:35:07Z</time>
      </trkpt>
      <trkpt lat="49.06802" lon="-0.39167">
        <ele>79.8</ele>
        <time>2024-07-03T13:35:08Z</time>
      </trkpt>
      <trkpt lat="49.06797" lon="-0.39174">
        <ele>80</ele>
        <time>2024-07-03T13:35:09Z</time>
      </trkpt>
      <trkpt lat="49.06793" lon="-0.3918">
        <ele>80.4</ele>
        <time>2024-07-03T13:35:10Z</time>
      </trkpt>
      <trkpt lat="49.06788" lon="-0.39186">
        <ele>80.8</ele>
        <time>2024-07-03T13:35:11Z</time>
      </trkpt>
      <trkpt lat="49.06783" lon="-0.39191">
        <ele>80.8</ele>
        <time>2024-07-03T13:35:12Z</time>
      </trkpt>
      <trkpt lat="49.06777" lon="-0.39196">
        <ele>81</ele>
        <time>2024-07-03T13:35:13Z</time>
      </trkpt>
      <trkpt lat="49.06771" lon="-0.39201">
        <ele>80.8</ele>
        <time>2024-07-03T13:35:14Z</time>
      </trkpt>
      <trkpt lat="49.06766" lon="-0.39204">
        <ele>80.8</ele>
        <time>2024-07-03T13:35:15Z</time>
      </trkpt>
      <trkpt lat="49.0676" lon="-0.39208">
        <ele>80.6</ele>
        <time>2024-07-03T13:35:16Z</time>
      </trkpt>
      <trkpt lat="49.06754" lon="-0.39212">
        <ele>80.4</ele>
        <time>2024-07-03T13:35:17Z</time>
      </trkpt>
      <trkpt lat="49.06748" lon="-0.39216">
        <ele>80.4</ele>
        <time>2024-07-03T13:35:18Z</time>
      </trkpt>
      <trkpt lat="49.06742" lon="-0.39219">
        <ele>80.2</ele>
        <time>2024-07-03T13:35:19Z</time>
      </trkpt>
      <trkpt lat="49.06736" lon="-0.39223">
        <ele>80.2</ele>
        <time>2024-07-03T13:35:20Z</time>
      </trkpt>
      <trkpt lat="49.0673" lon="-0.39226">
        <ele>80.2</ele>
        <time>2024-07-03T13:35:21Z</time>
      </trkpt>
      <trkpt lat="49.06725" lon="-0.39229">
        <ele>80.4</ele>
        <time>2024-07-03T13:35:22Z</time>
      </trkpt>
      <trkpt lat="49.06719" lon="-0.39233">
        <ele>80.6</ele>
        <time>2024-07-03T13:35:23Z</time>
      </trkpt>
      <trkpt lat="49.06713" lon="-0.39237">
        <ele>80.6</ele>
        <time>2024-07-03T13:35:24Z</time>
      </trkpt>
      <trkpt lat="49.06707" lon="-0.39241">
        <ele>80.8</ele>
        <time>2024-07-03T13:35:25Z</time>
      </trkpt>
      <trkpt lat="49.06701" lon="-0.39245">
        <ele>80.8</ele>
        <time>2024-07-03T13:35:26Z</time>
      </trkpt>
      <trkpt lat="49.06694" lon="-0.39248">
        <ele>81</ele>
        <time>2024-07-03T13:35:27Z</time>
      </trkpt>
      <trkpt lat="49.06688" lon="-0.39252">
        <ele>81</ele>
        <time>2024-07-03T13:35:28Z</time>
      </trkpt>
      <trkpt lat="49.06682" lon="-0.39256">
        <ele>81</ele>
        <time>2024-07-03T13:35:29Z</time>
      </trkpt>
      <trkpt lat="49.06675" lon="-0.3926">
        <ele>81</ele>
        <time>2024-07-03T13:35:30Z</time>
      </trkpt>
      <trkpt lat="49.06668" lon="-0.39264">
        <ele>81.2</ele>
        <time>2024-07-03T13:35:31Z</time>
      </trkpt>
      <trkpt lat="49.06661" lon="-0.39269">
        <ele>81.4</ele>
        <time>2024-07-03T13:35:32Z</time>
      </trkpt>
      <trkpt lat="49.06654" lon="-0.39273">
        <ele>81.4</ele>
        <time>2024-07-03T13:35:33Z</time>
      </trkpt>
      <trkpt lat="49.06647" lon="-0.39277">
        <ele>81.4</ele>
        <time>2024-07-03T13:35:34Z</time>
      </trkpt>
      <trkpt lat="49.0664" lon="-0.39282">
        <ele>81.6</ele>
        <time>2024-07-03T13:35:35Z</time>
      </trkpt>
      <trkpt lat="49.06633" lon="-0.39286">
        <ele>81.6</ele>
        <time>2024-07-03T13:35:36Z</time>
      </trkpt>
      <trkpt lat="49.06626" lon="-0.3929">
        <ele>81.8</ele>
        <time>2024-07-03T13:35:37Z</time>
      </trkpt>
      <trkpt lat="49.06618" lon="-0.39295">
        <ele>82</ele>
        <time>2024-07-03T13:35:38Z</time>
      </trkpt>
      <trkpt lat="49.06611" lon="-0.39299">
        <ele>82.2</ele>
        <time>2024-07-03T13:35:39Z</time>
      </trkpt>
      <trkpt lat="49.06604" lon="-0.39304">
        <ele>82.4</ele>
        <time>2024-07-03T13:35:40Z</time>
      </trkpt>
      <trkpt lat="49.06597" lon="-0.39308">
        <ele>82.6</ele>
        <time>2024-07-03T13:35:41Z</time>
      </trkpt>
      <trkpt lat="49.0659" lon="-0.39312">
        <ele>82.8</ele>
        <time>2024-07-03T13:35:42Z</time>
      </trkpt>
      <trkpt lat="49.06584" lon="-0.39317">
        <ele>82.8</ele>
        <time>2024-07-03T13:35:43Z</time>
      </trkpt>
      <trkpt lat="49.06577" lon="-0.39321">
        <ele>82.8</ele>
        <time>2024-07-03T13:35:44Z</time>
      </trkpt>
      <trkpt lat="49.06571" lon="-0.39325">
        <ele>82.8</ele>
        <time>2024-07-03T13:35:45Z</time>
      </trkpt>
      <trkpt lat="49.06564" lon="-0.39329">
        <ele>82.8</ele>
        <time>2024-07-03T13:35:46Z</time>
      </trkpt>
      <trkpt lat="49.06558" lon="-0.39332">
        <ele>82.6</ele>
        <time>2024-07-03T13:35:47Z</time>
      </trkpt>
      <trkpt lat="49.06551" lon="-0.39336">
        <ele>82.6</ele>
        <time>2024-07-03T13:35:48Z</time>
      </trkpt>
      <trkpt lat="49.06545" lon="-0.3934">
        <ele>82.4</ele>
        <time>2024-07-03T13:35:49Z</time>
      </trkpt>
      <trkpt lat="49.06538" lon="-0.39344">
        <ele>82.2</ele>
        <time>2024-07-03T13:35:50Z</time>
      </trkpt>
      <trkpt lat="49.06531" lon="-0.39349">
        <ele>82</ele>
        <time>2024-07-03T13:35:51Z</time>
      </trkpt>
      <trkpt lat="49.06524" lon="-0.39353">
        <ele>81.4</ele>
        <time>2024-07-03T13:35:52Z</time>
      </trkpt>
      <trkpt lat="49.06517" lon="-0.39358">
        <ele>81.2</ele>
        <time>2024-07-03T13:35:53Z</time>
      </trkpt>
      <trkpt lat="49.0651" lon="-0.39362">
        <ele>81.2</ele>
        <time>2024-07-03T13:35:54Z</time>
      </trkpt>
      <trkpt lat="49.06503" lon="-0.39366">
        <ele>81</ele>
        <time>2024-07-03T13:35:55Z</time>
      </trkpt>
      <trkpt lat="49.06496" lon="-0.3937">
        <ele>81.2</ele>
        <time>2024-07-03T13:35:56Z</time>
      </trkpt>
      <trkpt lat="49.06489" lon="-0.39373">
        <ele>81.4</ele>
        <time>2024-07-03T13:35:57Z</time>
      </trkpt>
      <trkpt lat="49.06481" lon="-0.39376">
        <ele>81.6</ele>
        <time>2024-07-03T13:35:58Z</time>
      </trkpt>
      <trkpt lat="49.06473" lon="-0.39378">
        <ele>81.6</ele>
        <time>2024-07-03T13:35:59Z</time>
      </trkpt>
      <trkpt lat="49.06465" lon="-0.3938">
        <ele>81.6</ele>
        <time>2024-07-03T13:36:00Z</time>
      </trkpt>
      <trkpt lat="49.06456" lon="-0.39381">
        <ele>81.6</ele>
        <time>2024-07-03T13:36:01Z</time>
      </trkpt>
      <trkpt lat="49.06448" lon="-0.39382">
        <ele>81.4</ele>
        <time>2024-07-03T13:36:02Z</time>
      </trkpt>
      <trkpt lat="49.06439" lon="-0.39383">
        <ele>81.4</ele>
        <time>2024-07-03T13:36:03Z</time>
      </trkpt>
      <trkpt lat="49.06431" lon="-0.39383">
        <ele>81.4</ele>
        <time>2024-07-03T13:36:04Z</time>
      </trkpt>
      <trkpt lat="49.06422" lon="-0.39383">
        <ele>81.4</ele>
        <time>2024-07-03T13:36:05Z</time>
      </trkpt>
      <trkpt lat="49.06413" lon="-0.39382">
        <ele>81.2</ele>
        <time>2024-07-03T13:36:06Z</time>
      </trkpt>
      <trkpt lat="49.06404" lon="-0.39382">
        <ele>81</ele>
        <time>2024-07-03T13:36:07Z</time>
      </trkpt>
      <trkpt lat="49.06396" lon="-0.39382">
        <ele>81</ele>
        <time>2024-07-03T13:36:08Z</time>
      </trkpt>
      <trkpt lat="49.06387" lon="-0.39383">
        <ele>81</ele>
        <time>2024-07-03T13:36:09Z</time>
      </trkpt>
      <trkpt lat="49.06379" lon="-0.39385">
        <ele>81</ele>
        <time>2024-07-03T13:36:10Z</time>
      </trkpt>
      <trkpt lat="49.0637" lon="-0.39388">
        <ele>80.8</ele>
        <time>2024-07-03T13:36:11Z</time>
      </trkpt>
      <trkpt lat="49.06363" lon="-0.39391">
        <ele>80.8</ele>
        <time>2024-07-03T13:36:12Z</time>
      </trkpt>
      <trkpt lat="49.06355" lon="-0.39396">
        <ele>81</ele>
        <time>2024-07-03T13:36:13Z</time>
      </trkpt>
      <trkpt lat="49.06347" lon="-0.39401">
        <ele>81</ele>
        <time>2024-07-03T13:36:14Z</time>
      </trkpt>
      <trkpt lat="49.0634" lon="-0.39406">
        <ele>81</ele>
        <time>2024-07-03T13:36:15Z</time>
      </trkpt>
      <trkpt lat="49.06333" lon="-0.39412">
        <ele>81</ele>
        <time>2024-07-03T13:36:16Z</time>
      </trkpt>
      <trkpt lat="49.06325" lon="-0.39418">
        <ele>81</ele>
        <time>2024-07-03T13:36:17Z</time>
      </trkpt>
      <trkpt lat="49.06318" lon="-0.39425">
        <ele>81.2</ele>
        <time>2024-07-03T13:36:18Z</time>
      </trkpt>
      <trkpt lat="49.06311" lon="-0.39432">
        <ele>81</ele>
        <time>2024-07-03T13:36:19Z</time>
      </trkpt>
      <trkpt lat="49.06304" lon="-0.39438">
        <ele>81</ele>
        <time>2024-07-03T13:36:20Z</time>
      </trkpt>
      <trkpt lat="49.06297" lon="-0.39445">
        <ele>81</ele>
        <time>2024-07-03T13:36:21Z</time>
      </trkpt>
      <trkpt lat="49.0629" lon="-0.39451">
        <ele>81</ele>
        <time>2024-07-03T13:36:22Z</time>
      </trkpt>
      <trkpt lat="49.06283" lon="-0.39458">
        <ele>80.8</ele>
        <time>2024-07-03T13:36:23Z</time>
      </trkpt>
      <trkpt lat="49.06275" lon="-0.39464">
        <ele>80.6</ele>
        <time>2024-07-03T13:36:24Z</time>
      </trkpt>
      <trkpt lat="49.06268" lon="-0.3947">
        <ele>80.2</ele>
        <time>2024-07-03T13:36:25Z</time>
      </trkpt>
      <trkpt lat="49.0626" lon="-0.39475">
        <ele>79.8</ele>
        <time>2024-07-03T13:36:26Z</time>
      </trkpt>
      <trkpt lat="49.06253" lon="-0.3948">
        <ele>79.6</ele>
        <time>2024-07-03T13:36:27Z</time>
      </trkpt>
      <trkpt lat="49.06245" lon="-0.39484">
        <ele>79.4</ele>
        <time>2024-07-03T13:36:28Z</time>
      </trkpt>
      <trkpt lat="49.06237" lon="-0.39488">
        <ele>79.4</ele>
        <time>2024-07-03T13:36:29Z</time>
      </trkpt>
      <trkpt lat="49.06229" lon="-0.39491">
        <ele>79.8</ele>
        <time>2024-07-03T13:36:30Z</time>
      </trkpt>
      <trkpt lat="49.0622" lon="-0.39495">
        <ele>80</ele>
        <time>2024-07-03T13:36:31Z</time>
      </trkpt>
      <trkpt lat="49.06211" lon="-0.39497">
        <ele>80.4</ele>
        <time>2024-07-03T13:36:32Z</time>
      </trkpt>
      <trkpt lat="49.06202" lon="-0.39499">
        <ele>80.6</ele>
        <time>2024-07-03T13:36:33Z</time>
      </trkpt>
      <trkpt lat="49.06193" lon="-0.39499">
        <ele>80.6</ele>
        <time>2024-07-03T13:36:34Z</time>
      </trkpt>
      <trkpt lat="49.06183" lon="-0.39497">
        <ele>80.6</ele>
        <time>2024-07-03T13:36:35Z</time>
      </trkpt>
      <trkpt lat="49.06174" lon="-0.39495">
        <ele>80.4</ele>
        <time>2024-07-03T13:36:36Z</time>
      </trkpt>
      <trkpt lat="49.06165" lon="-0.39491">
        <ele>80</ele>
        <time>2024-07-03T13:36:37Z</time>
      </trkpt>
      <trkpt lat="49.06156" lon="-0.39485">
        <ele>79.4</ele>
        <time>2024-07-03T13:36:38Z</time>
      </trkpt>
      <trkpt lat="49.06147" lon="-0.3948">
        <ele>79</ele>
        <time>2024-07-03T13:36:39Z</time>
      </trkpt>
      <trkpt lat="49.06138" lon="-0.39475">
        <ele>79</ele>
        <time>2024-07-03T13:36:40Z</time>
      </trkpt>
      <trkpt lat="49.06129" lon="-0.39471">
        <ele>78.8</ele>
        <time>2024-07-03T13:36:41Z</time>
      </trkpt>
      <trkpt lat="49.0612" lon="-0.39468">
        <ele>79</ele>
        <time>2024-07-03T13:36:42Z</time>
      </trkpt>
      <trkpt lat="49.06111" lon="-0.39465">
        <ele>79</ele>
        <time>2024-07-03T13:36:43Z</time>
      </trkpt>
      <trkpt lat="49.06102" lon="-0.39462">
        <ele>79.2</ele>
        <time>2024-07-03T13:36:44Z</time>
      </trkpt>
      <trkpt lat="49.06093" lon="-0.39459">
        <ele>79.2</ele>
        <time>2024-07-03T13:36:45Z</time>
      </trkpt>
      <trkpt lat="49.06084" lon="-0.39457">
        <ele>79.2</ele>
        <time>2024-07-03T13:36:46Z</time>
      </trkpt>
      <trkpt lat="49.06075" lon="-0.39454">
        <ele>79.4</ele>
        <time>2024-07-03T13:36:47Z</time>
      </trkpt>
      <trkpt lat="49.06067" lon="-0.39452">
        <ele>79.4</ele>
        <time>2024-07-03T13:36:48Z</time>
      </trkpt>
      <trkpt lat="49.06058" lon="-0.39449">
        <ele>79.6</ele>
        <time>2024-07-03T13:36:49Z</time>
      </trkpt>
      <trkpt lat="49.06049" lon="-0.39448">
        <ele>79.6</ele>
        <time>2024-07-03T13:36:50Z</time>
      </trkpt>
      <trkpt lat="49.0604" lon="-0.39449">
        <ele>79.8</ele>
        <time>2024-07-03T13:36:51Z</time>
      </trkpt>
      <trkpt lat="49.06031" lon="-0.3945">
        <ele>79.8</ele>
        <time>2024-07-03T13:36:52Z</time>
      </trkpt>
      <trkpt lat="49.06022" lon="-0.39453">
        <ele>80</ele>
        <time>2024-07-03T13:36:53Z</time>
      </trkpt>
      <trkpt lat="49.06014" lon="-0.39457">
        <ele>80.2</ele>
        <time>2024-07-03T13:36:54Z</time>
      </trkpt>
      <trkpt lat="49.06006" lon="-0.39462">
        <ele>80.2</ele>
        <time>2024-07-03T13:36:55Z</time>
      </trkpt>
      <trkpt lat="49.05998" lon="-0.39467">
        <ele>80.2</ele>
        <time>2024-07-03T13:36:56Z</time>
      </trkpt>
      <trkpt lat="49.0599" lon="-0.39472">
        <ele>80.2</ele>
        <time>2024-07-03T13:36:57Z</time>
      </trkpt>
      <trkpt lat="49.05983" lon="-0.39477">
        <ele>80.2</ele>
        <time>2024-07-03T13:36:58Z</time>
      </trkpt>
      <trkpt lat="49.05975" lon="-0.3948">
        <ele>80.2</ele>
        <time>2024-07-03T13:36:59Z</time>
      </trkpt>
      <trkpt lat="49.05967" lon="-0.39483">
        <ele>80.2</ele>
        <time>2024-07-03T13:37:00Z</time>
      </trkpt>
      <trkpt lat="49.05959" lon="-0.39484">
        <ele>80.2</ele>
        <time>2024-07-03T13:37:01Z</time>
      </trkpt>
      <trkpt lat="49.0595" lon="-0.39484">
        <ele>80.2</ele>
        <time>2024-07-03T13:37:02Z</time>
      </trkpt>
      <trkpt lat="49.05942" lon="-0.39481">
        <ele>80.2</ele>
        <time>2024-07-03T13:37:03Z</time>
      </trkpt>
      <trkpt lat="49.05934" lon="-0.39477">
        <ele>80</ele>
        <time>2024-07-03T13:37:04Z</time>
      </trkpt>
      <trkpt lat="49.05926" lon="-0.3947">
        <ele>79.8</ele>
        <time>2024-07-03T13:37:05Z</time>
      </trkpt>
      <trkpt lat="49.05918" lon="-0.39461">
        <ele>79.2</ele>
        <time>2024-07-03T13:37:06Z</time>
      </trkpt>
      <trkpt lat="49.05911" lon="-0.3945">
        <ele>78.8</ele>
        <time>2024-07-03T13:37:07Z</time>
      </trkpt>
      <trkpt lat="49.05905" lon="-0.3944">
        <ele>78.4</ele>
        <time>2024-07-03T13:37:08Z</time>
      </trkpt>
      <trkpt lat="49.05899" lon="-0.39429">
        <ele>78</ele>
        <time>2024-07-03T13:37:09Z</time>
      </trkpt>
      <trkpt lat="49.05892" lon="-0.39418">
        <ele>77.8</ele>
        <time>2024-07-03T13:37:10Z</time>
      </trkpt>
      <trkpt lat="49.05886" lon="-0.39408">
        <ele>77.8</ele>
        <time>2024-07-03T13:37:11Z</time>
      </trkpt>
      <trkpt lat="49.0588" lon="-0.39397">
        <ele>77.6</ele>
        <time>2024-07-03T13:37:12Z</time>
      </trkpt>
      <trkpt lat="49.05874" lon="-0.39387">
        <ele>77.2</ele>
        <time>2024-07-03T13:37:13Z</time>
      </trkpt>
      <trkpt lat="49.05867" lon="-0.39378">
        <ele>76.8</ele>
        <time>2024-07-03T13:37:14Z</time>
      </trkpt>
      <trkpt lat="49.05859" lon="-0.39369">
        <ele>76.8</ele>
        <time>2024-07-03T13:37:15Z</time>
      </trkpt>
      <trkpt lat="49.05852" lon="-0.39361">
        <ele>76.6</ele>
        <time>2024-07-03T13:37:16Z</time>
      </trkpt>
      <trkpt lat="49.05844" lon="-0.39352">
        <ele>76.6</ele>
        <time>2024-07-03T13:37:17Z</time>
      </trkpt>
      <trkpt lat="49.05836" lon="-0.39344">
        <ele>76.6</ele>
        <time>2024-07-03T13:37:18Z</time>
      </trkpt>
      <trkpt lat="49.0583" lon="-0.39334">
        <ele>76.6</ele>
        <time>2024-07-03T13:37:19Z</time>
      </trkpt>
      <trkpt lat="49.05824" lon="-0.39326">
        <ele>76.6</ele>
        <time>2024-07-03T13:37:20Z</time>
      </trkpt>
      <trkpt lat="49.05817" lon="-0.39317">
        <ele>76.4</ele>
        <time>2024-07-03T13:37:21Z</time>
      </trkpt>
      <trkpt lat="49.0581" lon="-0.39309">
        <ele>76.2</ele>
        <time>2024-07-03T13:37:22Z</time>
      </trkpt>
      <trkpt lat="49.05802" lon="-0.39303">
        <ele>76.2</ele>
        <time>2024-07-03T13:37:23Z</time>
      </trkpt>
      <trkpt lat="49.05794" lon="-0.39297">
        <ele>76</ele>
        <time>2024-07-03T13:37:24Z</time>
      </trkpt>
      <trkpt lat="49.05786" lon="-0.39292">
        <ele>76</ele>
        <time>2024-07-03T13:37:25Z</time>
      </trkpt>
      <trkpt lat="49.05778" lon="-0.39288">
        <ele>75.8</ele>
        <time>2024-07-03T13:37:26Z</time>
      </trkpt>
      <trkpt lat="49.0577" lon="-0.39285">
        <ele>76</ele>
        <time>2024-07-03T13:37:27Z</time>
      </trkpt>
      <trkpt lat="49.05762" lon="-0.39282">
        <ele>76</ele>
        <time>2024-07-03T13:37:28Z</time>
      </trkpt>
      <trkpt lat="49.05754" lon="-0.3928">
        <ele>76.2</ele>
        <time>2024-07-03T13:37:29Z</time>
      </trkpt>
      <trkpt lat="49.05746" lon="-0.39277">
        <ele>76.4</ele>
        <time>2024-07-03T13:37:30Z</time>
      </trkpt>
      <trkpt lat="49.05738" lon="-0.39275">
        <ele>77</ele>
        <time>2024-07-03T13:37:31Z</time>
      </trkpt>
      <trkpt lat="49.0573" lon="-0.39274">
        <ele>77.6</ele>
        <time>2024-07-03T13:37:32Z</time>
      </trkpt>
      <trkpt lat="49.05722" lon="-0.39275">
        <ele>78</ele>
        <time>2024-07-03T13:37:33Z</time>
      </trkpt>
      <trkpt lat="49.05715" lon="-0.39277">
        <ele>78.2</ele>
        <time>2024-07-03T13:37:34Z</time>
      </trkpt>
      <trkpt lat="49.05708" lon="-0.39278">
        <ele>78.6</ele>
        <time>2024-07-03T13:37:35Z</time>
      </trkpt>
      <trkpt lat="49.05701" lon="-0.39279">
        <ele>78.8</ele>
        <time>2024-07-03T13:37:36Z</time>
      </trkpt>
      <trkpt lat="49.05694" lon="-0.3928">
        <ele>79.4</ele>
        <time>2024-07-03T13:37:37Z</time>
      </trkpt>
      <trkpt lat="49.05687" lon="-0.39281">
        <ele>79.6</ele>
        <time>2024-07-03T13:37:38Z</time>
      </trkpt>
      <trkpt lat="49.0568" lon="-0.39281">
        <ele>79.8</ele>
        <time>2024-07-03T13:37:39Z</time>
      </trkpt>
      <trkpt lat="49.05674" lon="-0.39282">
        <ele>80</ele>
        <time>2024-07-03T13:37:40Z</time>
      </trkpt>
      <trkpt lat="49.05667" lon="-0.39282">
        <ele>80.2</ele>
        <time>2024-07-03T13:37:41Z</time>
      </trkpt>
      <trkpt lat="49.0566" lon="-0.39283">
        <ele>80.4</ele>
        <time>2024-07-03T13:37:42Z</time>
      </trkpt>
      <trkpt lat="49.05653" lon="-0.39284">
        <ele>80.6</ele>
        <time>2024-07-03T13:37:43Z</time>
      </trkpt>
      <trkpt lat="49.05646" lon="-0.39284">
        <ele>81</ele>
        <time>2024-07-03T13:37:44Z</time>
      </trkpt>
      <trkpt lat="49.05639" lon="-0.39285">
        <ele>81.4</ele>
        <time>2024-07-03T13:37:45Z</time>
      </trkpt>
      <trkpt lat="49.05632" lon="-0.39285">
        <ele>81.6</ele>
        <time>2024-07-03T13:37:46Z</time>
      </trkpt>
      <trkpt lat="49.05625" lon="-0.39284">
        <ele>81.8</ele>
        <time>2024-07-03T13:37:47Z</time>
      </trkpt>
      <trkpt lat="49.05619" lon="-0.39284">
        <ele>81.8</ele>
        <time>2024-07-03T13:37:48Z</time>
      </trkpt>
      <trkpt lat="49.05612" lon="-0.39283">
        <ele>81.8</ele>
        <time>2024-07-03T13:37:49Z</time>
      </trkpt>
      <trkpt lat="49.05605" lon="-0.39283">
        <ele>81.8</ele>
        <time>2024-07-03T13:37:50Z</time>
      </trkpt>
      <trkpt lat="49.05598" lon="-0.39282">
        <ele>81.8</ele>
        <time>2024-07-03T13:37:51Z</time>
      </trkpt>
      <trkpt lat="49.05592" lon="-0.39282">
        <ele>81.8</ele>
        <time>2024-07-03T13:37:52Z</time>
      </trkpt>
      <trkpt lat="49.05585" lon="-0.39281">
        <ele>81.8</ele>
        <time>2024-07-03T13:37:53Z</time>
      </trkpt>
      <trkpt lat="49.05578" lon="-0.3928">
        <ele>81.8</ele>
        <time>2024-07-03T13:37:54Z</time>
      </trkpt>
      <trkpt lat="49.05572" lon="-0.39277">
        <ele>82</ele>
        <time>2024-07-03T13:37:55Z</time>
      </trkpt>
      <trkpt lat="49.05565" lon="-0.39275">
        <ele>82.4</ele>
        <time>2024-07-03T13:37:56Z</time>
      </trkpt>
      <trkpt lat="49.05558" lon="-0.39273">
        <ele>82.8</ele>
        <time>2024-07-03T13:37:57Z</time>
      </trkpt>
      <trkpt lat="49.0555" lon="-0.39271">
        <ele>83.4</ele>
        <time>2024-07-03T13:37:58Z</time>
      </trkpt>
      <trkpt lat="49.05543" lon="-0.39269">
        <ele>83.6</ele>
        <time>2024-07-03T13:37:59Z</time>
      </trkpt>
      <trkpt lat="49.05536" lon="-0.39268">
        <ele>83.8</ele>
        <time>2024-07-03T13:38:00Z</time>
      </trkpt>
      <trkpt lat="49.05529" lon="-0.39266">
        <ele>83.8</ele>
        <time>2024-07-03T13:38:01Z</time>
      </trkpt>
      <trkpt lat="49.05522" lon="-0.39263">
        <ele>83.8</ele>
        <time>2024-07-03T13:38:02Z</time>
      </trkpt>
      <trkpt lat="49.05515" lon="-0.39261">
        <ele>84</ele>
        <time>2024-07-03T13:38:03Z</time>
      </trkpt>
      <trkpt lat="49.05509" lon="-0.39258">
        <ele>84</ele>
        <time>2024-07-03T13:38:04Z</time>
      </trkpt>
      <trkpt lat="49.05502" lon="-0.39256">
        <ele>84.2</ele>
        <time>2024-07-03T13:38:05Z</time>
      </trkpt>
      <trkpt lat="49.05496" lon="-0.39253">
        <ele>84.4</ele>
        <time>2024-07-03T13:38:06Z</time>
      </trkpt>
      <trkpt lat="49.0549" lon="-0.3925">
        <ele>84.8</ele>
        <time>2024-07-03T13:38:07Z</time>
      </trkpt>
      <trkpt lat="49.05483" lon="-0.39247">
        <ele>85.2</ele>
        <time>2024-07-03T13:38:08Z</time>
      </trkpt>
      <trkpt lat="49.05477" lon="-0.39244">
        <ele>85.6</ele>
        <time>2024-07-03T13:38:09Z</time>
      </trkpt>
      <trkpt lat="49.05471" lon="-0.39241">
        <ele>85.8</ele>
        <time>2024-07-03T13:38:10Z</time>
      </trkpt>
      <trkpt lat="49.05465" lon="-0.39238">
        <ele>86.2</ele>
        <time>2024-07-03T13:38:11Z</time>
      </trkpt>
      <trkpt lat="49.05459" lon="-0.39234">
        <ele>86.4</ele>
        <time>2024-07-03T13:38:12Z</time>
      </trkpt>
      <trkpt lat="49.05452" lon="-0.39231">
        <ele>86.6</ele>
        <time>2024-07-03T13:38:13Z</time>
      </trkpt>
      <trkpt lat="49.05446" lon="-0.39228">
        <ele>86.8</ele>
        <time>2024-07-03T13:38:14Z</time>
      </trkpt>
      <trkpt lat="49.0544" lon="-0.39225">
        <ele>87</ele>
        <time>2024-07-03T13:38:15Z</time>
      </trkpt>
      <trkpt lat="49.05433" lon="-0.39222">
        <ele>87.2</ele>
        <time>2024-07-03T13:38:16Z</time>
      </trkpt>
      <trkpt lat="49.05427" lon="-0.39219">
        <ele>87.4</ele>
        <time>2024-07-03T13:38:17Z</time>
      </trkpt>
      <trkpt lat="49.05421" lon="-0.39216">
        <ele>87.6</ele>
        <time>2024-07-03T13:38:18Z</time>
      </trkpt>
      <trkpt lat="49.05415" lon="-0.39213">
        <ele>87.8</ele>
        <time>2024-07-03T13:38:19Z</time>
      </trkpt>
      <trkpt lat="49.05408" lon="-0.3921">
        <ele>88</ele>
        <time>2024-07-03T13:38:20Z</time>
      </trkpt>
      <trkpt lat="49.05402" lon="-0.39207">
        <ele>88.2</ele>
        <time>2024-07-03T13:38:21Z</time>
      </trkpt>
      <trkpt lat="49.05396" lon="-0.39204">
        <ele>88.4</ele>
        <time>2024-07-03T13:38:22Z</time>
      </trkpt>
      <trkpt lat="49.05389" lon="-0.39202">
        <ele>88.6</ele>
        <time>2024-07-03T13:38:23Z</time>
      </trkpt>
      <trkpt lat="49.05383" lon="-0.39199">
        <ele>88.8</ele>
        <time>2024-07-03T13:38:24Z</time>
      </trkpt>
      <trkpt lat="49.05376" lon="-0.39196">
        <ele>88.8</ele>
        <time>2024-07-03T13:38:25Z</time>
      </trkpt>
      <trkpt lat="49.0537" lon="-0.39194">
        <ele>89</ele>
        <time>2024-07-03T13:38:26Z</time>
      </trkpt>
      <trkpt lat="49.05364" lon="-0.39192">
        <ele>89</ele>
        <time>2024-07-03T13:38:27Z</time>
      </trkpt>
      <trkpt lat="49.05357" lon="-0.3919">
        <ele>89</ele>
        <time>2024-07-03T13:38:28Z</time>
      </trkpt>
      <trkpt lat="49.0535" lon="-0.3919">
        <ele>89.2</ele>
        <time>2024-07-03T13:38:29Z</time>
      </trkpt>
      <trkpt lat="49.05343" lon="-0.3919">
        <ele>89.2</ele>
        <time>2024-07-03T13:38:30Z</time>
      </trkpt>
      <trkpt lat="49.05337" lon="-0.39191">
        <ele>89.2</ele>
        <time>2024-07-03T13:38:31Z</time>
      </trkpt>
      <trkpt lat="49.0533" lon="-0.39192">
        <ele>89.2</ele>
        <time>2024-07-03T13:38:32Z</time>
      </trkpt>
      <trkpt lat="49.05323" lon="-0.39193">
        <ele>89.2</ele>
        <time>2024-07-03T13:38:33Z</time>
      </trkpt>
      <trkpt lat="49.05317" lon="-0.39195">
        <ele>89</ele>
        <time>2024-07-03T13:38:34Z</time>
      </trkpt>
      <trkpt lat="49.0531" lon="-0.39197">
        <ele>88.4</ele>
        <time>2024-07-03T13:38:35Z</time>
      </trkpt>
      <trkpt lat="49.05304" lon="-0.39198">
        <ele>88</ele>
        <time>2024-07-03T13:38:36Z</time>
      </trkpt>
      <trkpt lat="49.05298" lon="-0.392">
        <ele>87.8</ele>
        <time>2024-07-03T13:38:37Z</time>
      </trkpt>
      <trkpt lat="49.05292" lon="-0.39201">
        <ele>87.8</ele>
        <time>2024-07-03T13:38:38Z</time>
      </trkpt>
      <trkpt lat="49.05287" lon="-0.39203">
        <ele>87.8</ele>
        <time>2024-07-03T13:38:39Z</time>
      </trkpt>
      <trkpt lat="49.05281" lon="-0.39204">
        <ele>88.2</ele>
        <time>2024-07-03T13:38:40Z</time>
      </trkpt>
      <trkpt lat="49.05275" lon="-0.39205">
        <ele>88.6</ele>
        <time>2024-07-03T13:38:41Z</time>
      </trkpt>
      <trkpt lat="49.05268" lon="-0.39206">
        <ele>89.2</ele>
        <time>2024-07-03T13:38:42Z</time>
      </trkpt>
      <trkpt lat="49.05262" lon="-0.39208">
        <ele>89.4</ele>
        <time>2024-07-03T13:38:43Z</time>
      </trkpt>
      <trkpt lat="49.05255" lon="-0.39209">
        <ele>89.6</ele>
        <time>2024-07-03T13:38:44Z</time>
      </trkpt>
      <trkpt lat="49.05248" lon="-0.3921">
        <ele>90</ele>
        <time>2024-07-03T13:38:45Z</time>
      </trkpt>
      <trkpt lat="49.05241" lon="-0.39212">
        <ele>90.2</ele>
        <time>2024-07-03T13:38:46Z</time>
      </trkpt>
      <trkpt lat="49.05234" lon="-0.39214">
        <ele>90.4</ele>
        <time>2024-07-03T13:38:47Z</time>
      </trkpt>
      <trkpt lat="49.05228" lon="-0.39216">
        <ele>90.2</ele>
        <time>2024-07-03T13:38:48Z</time>
      </trkpt>
      <trkpt lat="49.05221" lon="-0.39219">
        <ele>90.2</ele>
        <time>2024-07-03T13:38:49Z</time>
      </trkpt>
      <trkpt lat="49.05215" lon="-0.39224">
        <ele>90.2</ele>
        <time>2024-07-03T13:38:50Z</time>
      </trkpt>
      <trkpt lat="49.05208" lon="-0.39229">
        <ele>90.4</ele>
        <time>2024-07-03T13:38:51Z</time>
      </trkpt>
      <trkpt lat="49.05202" lon="-0.39234">
        <ele>90.4</ele>
        <time>2024-07-03T13:38:52Z</time>
      </trkpt>
      <trkpt lat="49.05196" lon="-0.39239">
        <ele>90.6</ele>
        <time>2024-07-03T13:38:53Z</time>
      </trkpt>
      <trkpt lat="49.05189" lon="-0.39245">
        <ele>90.8</ele>
        <time>2024-07-03T13:38:54Z</time>
      </trkpt>
      <trkpt lat="49.05183" lon="-0.39251">
        <ele>90.8</ele>
        <time>2024-07-03T13:38:55Z</time>
      </trkpt>
      <trkpt lat="49.05177" lon="-0.39257">
        <ele>91</ele>
        <time>2024-07-03T13:38:56Z</time>
      </trkpt>
      <trkpt lat="49.05171" lon="-0.39263">
        <ele>91.4</ele>
        <time>2024-07-03T13:38:57Z</time>
      </trkpt>
      <trkpt lat="49.05165" lon="-0.39268">
        <ele>91.6</ele>
        <time>2024-07-03T13:38:58Z</time>
      </trkpt>
      <trkpt lat="49.05159" lon="-0.39274">
        <ele>91.8</ele>
        <time>2024-07-03T13:38:59Z</time>
      </trkpt>
      <trkpt lat="49.05153" lon="-0.39279">
        <ele>92</ele>
        <time>2024-07-03T13:39:00Z</time>
      </trkpt>
      <trkpt lat="49.05147" lon="-0.39284">
        <ele>92</ele>
        <time>2024-07-03T13:39:01Z</time>
      </trkpt>
      <trkpt lat="49.05141" lon="-0.39289">
        <ele>92.2</ele>
        <time>2024-07-03T13:39:02Z</time>
      </trkpt>
      <trkpt lat="49.05135" lon="-0.39294">
        <ele>92.4</ele>
        <time>2024-07-03T13:39:03Z</time>
      </trkpt>
      <trkpt lat="49.05129" lon="-0.39298">
        <ele>92.4</ele>
        <time>2024-07-03T13:39:04Z</time>
      </trkpt>
      <trkpt lat="49.05122" lon="-0.39302">
        <ele>92.6</ele>
        <time>2024-07-03T13:39:05Z</time>
      </trkpt>
      <trkpt lat="49.05116" lon="-0.39306">
        <ele>92.8</ele>
        <time>2024-07-03T13:39:06Z</time>
      </trkpt>
      <trkpt lat="49.05109" lon="-0.39309">
        <ele>93.2</ele>
        <time>2024-07-03T13:39:07Z</time>
      </trkpt>
      <trkpt lat="49.05103" lon="-0.39312">
        <ele>93.6</ele>
        <time>2024-07-03T13:39:08Z</time>
      </trkpt>
      <trkpt lat="49.05097" lon="-0.39315">
        <ele>94</ele>
        <time>2024-07-03T13:39:09Z</time>
      </trkpt>
      <trkpt lat="49.0509" lon="-0.39318">
        <ele>94.2</ele>
        <time>2024-07-03T13:39:10Z</time>
      </trkpt>
      <trkpt lat="49.05084" lon="-0.3932">
        <ele>94.4</ele>
        <time>2024-07-03T13:39:11Z</time>
      </trkpt>
      <trkpt lat="49.05078" lon="-0.39323">
        <ele>94.4</ele>
        <time>2024-07-03T13:39:12Z</time>
      </trkpt>
      <trkpt lat="49.05071" lon="-0.39325">
        <ele>94.6</ele>
        <time>2024-07-03T13:39:13Z</time>
      </trkpt>
      <trkpt lat="49.05065" lon="-0.39328">
        <ele>94.6</ele>
        <time>2024-07-03T13:39:14Z</time>
      </trkpt>
      <trkpt lat="49.05058" lon="-0.3933">
        <ele>94.6</ele>
        <time>2024-07-03T13:39:15Z</time>
      </trkpt>
      <trkpt lat="49.05051" lon="-0.39334">
        <ele>94.6</ele>
        <time>2024-07-03T13:39:16Z</time>
      </trkpt>
      <trkpt lat="49.05044" lon="-0.39337">
        <ele>94.6</ele>
        <time>2024-07-03T13:39:17Z</time>
      </trkpt>
      <trkpt lat="49.05038" lon="-0.39341">
        <ele>94.8</ele>
        <time>2024-07-03T13:39:18Z</time>
      </trkpt>
      <trkpt lat="49.05031" lon="-0.39343">
        <ele>94.8</ele>
        <time>2024-07-03T13:39:19Z</time>
      </trkpt>
      <trkpt lat="49.05024" lon="-0.39345">
        <ele>95</ele>
        <time>2024-07-03T13:39:20Z</time>
      </trkpt>
      <trkpt lat="49.05018" lon="-0.39347">
        <ele>95.4</ele>
        <time>2024-07-03T13:39:21Z</time>
      </trkpt>
      <trkpt lat="49.05012" lon="-0.39349">
        <ele>95.8</ele>
        <time>2024-07-03T13:39:22Z</time>
      </trkpt>
      <trkpt lat="49.05006" lon="-0.3935">
        <ele>96.2</ele>
        <time>2024-07-03T13:39:23Z</time>
      </trkpt>
      <trkpt lat="49.04999" lon="-0.39352">
        <ele>96.2</ele>
        <time>2024-07-03T13:39:24Z</time>
      </trkpt>
      <trkpt lat="49.04993" lon="-0.39352">
        <ele>96.6</ele>
        <time>2024-07-03T13:39:25Z</time>
      </trkpt>
      <trkpt lat="49.04986" lon="-0.39353">
        <ele>96.8</ele>
        <time>2024-07-03T13:39:26Z</time>
      </trkpt>
      <trkpt lat="49.04979" lon="-0.39354">
        <ele>97</ele>
        <time>2024-07-03T13:39:27Z</time>
      </trkpt>
      <trkpt lat="49.04972" lon="-0.39354">
        <ele>97.2</ele>
        <time>2024-07-03T13:39:28Z</time>
      </trkpt>
      <trkpt lat="49.04965" lon="-0.39353">
        <ele>97.8</ele>
        <time>2024-07-03T13:39:29Z</time>
      </trkpt>
      <trkpt lat="49.04958" lon="-0.39352">
        <ele>98.2</ele>
        <time>2024-07-03T13:39:30Z</time>
      </trkpt>
      <trkpt lat="49.04951" lon="-0.39352">
        <ele>98.6</ele>
        <time>2024-07-03T13:39:31Z</time>
      </trkpt>
      <trkpt lat="49.04944" lon="-0.39351">
        <ele>98.6</ele>
        <time>2024-07-03T13:39:32Z</time>
      </trkpt>
      <trkpt lat="49.04937" lon="-0.3935">
        <ele>98.8</ele>
        <time>2024-07-03T13:39:33Z</time>
      </trkpt>
      <trkpt lat="49.0493" lon="-0.3935">
        <ele>98.8</ele>
        <time>2024-07-03T13:39:34Z</time>
      </trkpt>
      <trkpt lat="49.04924" lon="-0.39349">
        <ele>98.8</ele>
        <time>2024-07-03T13:39:35Z</time>
      </trkpt>
      <trkpt lat="49.04918" lon="-0.39349">
        <ele>98.8</ele>
        <time>2024-07-03T13:39:36Z</time>
      </trkpt>
      <trkpt lat="49.04912" lon="-0.39348">
        <ele>98.8</ele>
        <time>2024-07-03T13:39:37Z</time>
      </trkpt>
      <trkpt lat="49.04905" lon="-0.39348">
        <ele>99</ele>
        <time>2024-07-03T13:39:38Z</time>
      </trkpt>
      <trkpt lat="49.04899" lon="-0.39348">
        <ele>99.2</ele>
        <time>2024-07-03T13:39:39Z</time>
      </trkpt>
      <trkpt lat="49.04892" lon="-0.39345">
        <ele>99.6</ele>
        <time>2024-07-03T13:39:40Z</time>
      </trkpt>
      <trkpt lat="49.04886" lon="-0.39344">
        <ele>99.8</ele>
        <time>2024-07-03T13:39:41Z</time>
      </trkpt>
      <trkpt lat="49.04879" lon="-0.39344">
        <ele>100</ele>
        <time>2024-07-03T13:39:42Z</time>
      </trkpt>
      <trkpt lat="49.04873" lon="-0.39344">
        <ele>100</ele>
        <time>2024-07-03T13:39:43Z</time>
      </trkpt>
      <trkpt lat="49.04867" lon="-0.39343">
        <ele>100.2</ele>
        <time>2024-07-03T13:39:44Z</time>
      </trkpt>
      <trkpt lat="49.04861" lon="-0.39343">
        <ele>100.2</ele>
        <time>2024-07-03T13:39:45Z</time>
      </trkpt>
      <trkpt lat="49.04855" lon="-0.39344">
        <ele>100.2</ele>
        <time>2024-07-03T13:39:46Z</time>
      </trkpt>
      <trkpt lat="49.04849" lon="-0.39345">
        <ele>100.2</ele>
        <time>2024-07-03T13:39:47Z</time>
      </trkpt>
      <trkpt lat="49.04846" lon="-0.39344">
        <ele>100.4</ele>
        <time>2024-07-03T13:39:48Z</time>
      </trkpt>
      <trkpt lat="49.04841" lon="-0.39342">
        <ele>100.4</ele>
        <time>2024-07-03T13:39:49Z</time>
      </trkpt>
      <trkpt lat="49.04837" lon="-0.39342">
        <ele>100.4</ele>
        <time>2024-07-03T13:39:50Z</time>
      </trkpt>
      <trkpt lat="49.04833" lon="-0.39342">
        <ele>100.4</ele>
        <time>2024-07-03T13:39:51Z</time>
      </trkpt>
      <trkpt lat="49.04828" lon="-0.39342">
        <ele>100.4</ele>
        <time>2024-07-03T13:39:52Z</time>
      </trkpt>
      <trkpt lat="49.04823" lon="-0.39341">
        <ele>100.6</ele>
        <time>2024-07-03T13:39:53Z</time>
      </trkpt>
      <trkpt lat="49.04817" lon="-0.39341">
        <ele>100.8</ele>
        <time>2024-07-03T13:39:54Z</time>
      </trkpt>
      <trkpt lat="49.04812" lon="-0.39341">
        <ele>100.8</ele>
        <time>2024-07-03T13:39:55Z</time>
      </trkpt>
      <trkpt lat="49.04808" lon="-0.39339">
        <ele>101</ele>
        <time>2024-07-03T13:39:56Z</time>
      </trkpt>
      <trkpt lat="49.04803" lon="-0.39337">
        <ele>101.4</ele>
        <time>2024-07-03T13:39:57Z</time>
      </trkpt>
      <trkpt lat="49.04796" lon="-0.39336">
        <ele>101.8</ele>
        <time>2024-07-03T13:39:58Z</time>
      </trkpt>
      <trkpt lat="49.04791" lon="-0.39334">
        <ele>102.2</ele>
        <time>2024-07-03T13:39:59Z</time>
      </trkpt>
      <trkpt lat="49.04785" lon="-0.39333">
        <ele>102.2</ele>
        <time>2024-07-03T13:40:00Z</time>
      </trkpt>
      <trkpt lat="49.0478" lon="-0.39331">
        <ele>102.4</ele>
        <time>2024-07-03T13:40:01Z</time>
      </trkpt>
      <trkpt lat="49.04774" lon="-0.39329">
        <ele>102.6</ele>
        <time>2024-07-03T13:40:02Z</time>
      </trkpt>
      <trkpt lat="49.04769" lon="-0.39326">
        <ele>102.6</ele>
        <time>2024-07-03T13:40:03Z</time>
      </trkpt>
      <trkpt lat="49.04763" lon="-0.39325">
        <ele>102.8</ele>
        <time>2024-07-03T13:40:04Z</time>
      </trkpt>
      <trkpt lat="49.04757" lon="-0.39322">
        <ele>103</ele>
        <time>2024-07-03T13:40:05Z</time>
      </trkpt>
      <trkpt lat="49.04752" lon="-0.39321">
        <ele>103</ele>
        <time>2024-07-03T13:40:06Z</time>
      </trkpt>
      <trkpt lat="49.04746" lon="-0.39318">
        <ele>103.2</ele>
        <time>2024-07-03T13:40:07Z</time>
      </trkpt>
      <trkpt lat="49.0474" lon="-0.39316">
        <ele>103.6</ele>
        <time>2024-07-03T13:40:08Z</time>
      </trkpt>
      <trkpt lat="49.04735" lon="-0.39312">
        <ele>104</ele>
        <time>2024-07-03T13:40:09Z</time>
      </trkpt>
      <trkpt lat="49.0473" lon="-0.3931">
        <ele>104.4</ele>
        <time>2024-07-03T13:40:10Z</time>
      </trkpt>
      <trkpt lat="49.04724" lon="-0.39308">
        <ele>104.8</ele>
        <time>2024-07-03T13:40:11Z</time>
      </trkpt>
      <trkpt lat="49.04719" lon="-0.39305">
        <ele>105</ele>
        <time>2024-07-03T13:40:12Z</time>
      </trkpt>
      <trkpt lat="49.04713" lon="-0.39303">
        <ele>105</ele>
        <time>2024-07-03T13:40:13Z</time>
      </trkpt>
      <trkpt lat="49.04707" lon="-0.393">
        <ele>105.2</ele>
        <time>2024-07-03T13:40:14Z</time>
      </trkpt>
      <trkpt lat="49.04702" lon="-0.39298">
        <ele>105.2</ele>
        <time>2024-07-03T13:40:15Z</time>
      </trkpt>
      <trkpt lat="49.04696" lon="-0.39295">
        <ele>105.4</ele>
        <time>2024-07-03T13:40:16Z</time>
      </trkpt>
      <trkpt lat="49.0469" lon="-0.39292">
        <ele>105.4</ele>
        <time>2024-07-03T13:40:17Z</time>
      </trkpt>
      <trkpt lat="49.04685" lon="-0.39289">
        <ele>105.6</ele>
        <time>2024-07-03T13:40:18Z</time>
      </trkpt>
      <trkpt lat="49.0468" lon="-0.39285">
        <ele>105.6</ele>
        <time>2024-07-03T13:40:19Z</time>
      </trkpt>
      <trkpt lat="49.04674" lon="-0.39281">
        <ele>105.8</ele>
        <time>2024-07-03T13:40:20Z</time>
      </trkpt>
      <trkpt lat="49.04668" lon="-0.39278">
        <ele>106</ele>
        <time>2024-07-03T13:40:21Z</time>
      </trkpt>
      <trkpt lat="49.04662" lon="-0.39276">
        <ele>106.2</ele>
        <time>2024-07-03T13:40:22Z</time>
      </trkpt>
      <trkpt lat="49.04656" lon="-0.39272">
        <ele>106.2</ele>
        <time>2024-07-03T13:40:23Z</time>
      </trkpt>
      <trkpt lat="49.0465" lon="-0.39269">
        <ele>106.2</ele>
        <time>2024-07-03T13:40:24Z</time>
      </trkpt>
      <trkpt lat="49.04645" lon="-0.39265">
        <ele>106.2</ele>
        <time>2024-07-03T13:40:25Z</time>
      </trkpt>
      <trkpt lat="49.04639" lon="-0.39262">
        <ele>106.4</ele>
        <time>2024-07-03T13:40:26Z</time>
      </trkpt>
      <trkpt lat="49.04632" lon="-0.3926">
        <ele>106.6</ele>
        <time>2024-07-03T13:40:27Z</time>
      </trkpt>
      <trkpt lat="49.04626" lon="-0.39257">
        <ele>106.6</ele>
        <time>2024-07-03T13:40:28Z</time>
      </trkpt>
      <trkpt lat="49.0462" lon="-0.39254">
        <ele>106.8</ele>
        <time>2024-07-03T13:40:29Z</time>
      </trkpt>
      <trkpt lat="49.04615" lon="-0.39251">
        <ele>107</ele>
        <time>2024-07-03T13:40:30Z</time>
      </trkpt>
      <trkpt lat="49.04609" lon="-0.39248">
        <ele>107.2</ele>
        <time>2024-07-03T13:40:31Z</time>
      </trkpt>
      <trkpt lat="49.04604" lon="-0.39245">
        <ele>107.2</ele>
        <time>2024-07-03T13:40:32Z</time>
      </trkpt>
      <trkpt lat="49.04598" lon="-0.39243">
        <ele>107.4</ele>
        <time>2024-07-03T13:40:33Z</time>
      </trkpt>
      <trkpt lat="49.04592" lon="-0.39241">
        <ele>107.6</ele>
        <time>2024-07-03T13:40:34Z</time>
      </trkpt>
      <trkpt lat="49.04586" lon="-0.3924">
        <ele>107.6</ele>
        <time>2024-07-03T13:40:35Z</time>
      </trkpt>
      <trkpt lat="49.04579" lon="-0.39237">
        <ele>107.6</ele>
        <time>2024-07-03T13:40:36Z</time>
      </trkpt>
      <trkpt lat="49.04573" lon="-0.39236">
        <ele>107.6</ele>
        <time>2024-07-03T13:40:37Z</time>
      </trkpt>
      <trkpt lat="49.04567" lon="-0.39233">
        <ele>107.6</ele>
        <time>2024-07-03T13:40:38Z</time>
      </trkpt>
      <trkpt lat="49.0456" lon="-0.39231">
        <ele>108</ele>
        <time>2024-07-03T13:40:39Z</time>
      </trkpt>
      <trkpt lat="49.04554" lon="-0.39229">
        <ele>108</ele>
        <time>2024-07-03T13:40:40Z</time>
      </trkpt>
      <trkpt lat="49.04548" lon="-0.39226">
        <ele>108.4</ele>
        <time>2024-07-03T13:40:41Z</time>
      </trkpt>
      <trkpt lat="49.04542" lon="-0.39224">
        <ele>108.8</ele>
        <time>2024-07-03T13:40:42Z</time>
      </trkpt>
      <trkpt lat="49.04536" lon="-0.39222">
        <ele>109.2</ele>
        <time>2024-07-03T13:40:43Z</time>
      </trkpt>
      <trkpt lat="49.0453" lon="-0.39219">
        <ele>109.4</ele>
        <time>2024-07-03T13:40:44Z</time>
      </trkpt>
      <trkpt lat="49.04524" lon="-0.39217">
        <ele>109.6</ele>
        <time>2024-07-03T13:40:45Z</time>
      </trkpt>
      <trkpt lat="49.04518" lon="-0.39215">
        <ele>109.8</ele>
        <time>2024-07-03T13:40:46Z</time>
      </trkpt>
      <trkpt lat="49.04511" lon="-0.39213">
        <ele>109.8</ele>
        <time>2024-07-03T13:40:47Z</time>
      </trkpt>
      <trkpt lat="49.04505" lon="-0.39211">
        <ele>110</ele>
        <time>2024-07-03T13:40:48Z</time>
      </trkpt>
      <trkpt lat="49.04499" lon="-0.39209">
        <ele>110</ele>
        <time>2024-07-03T13:40:49Z</time>
      </trkpt>
      <trkpt lat="49.04492" lon="-0.39206">
        <ele>110.2</ele>
        <time>2024-07-03T13:40:50Z</time>
      </trkpt>
      <trkpt lat="49.04486" lon="-0.39204">
        <ele>110.2</ele>
        <time>2024-07-03T13:40:51Z</time>
      </trkpt>
      <trkpt lat="49.04481" lon="-0.39201">
        <ele>110.4</ele>
        <time>2024-07-03T13:40:52Z</time>
      </trkpt>
      <trkpt lat="49.04475" lon="-0.39199">
        <ele>110.4</ele>
        <time>2024-07-03T13:40:53Z</time>
      </trkpt>
      <trkpt lat="49.04469" lon="-0.39197">
        <ele>110.6</ele>
        <time>2024-07-03T13:40:54Z</time>
      </trkpt>
      <trkpt lat="49.04463" lon="-0.39195">
        <ele>110.8</ele>
        <time>2024-07-03T13:40:55Z</time>
      </trkpt>
      <trkpt lat="49.04457" lon="-0.39193">
        <ele>110.8</ele>
        <time>2024-07-03T13:40:56Z</time>
      </trkpt>
      <trkpt lat="49.04451" lon="-0.39193">
        <ele>111</ele>
        <time>2024-07-03T13:40:57Z</time>
      </trkpt>
      <trkpt lat="49.04445" lon="-0.39192">
        <ele>111</ele>
        <time>2024-07-03T13:40:58Z</time>
      </trkpt>
      <trkpt lat="49.04439" lon="-0.39191">
        <ele>111.2</ele>
        <time>2024-07-03T13:40:59Z</time>
      </trkpt>
      <trkpt lat="49.04433" lon="-0.3919">
        <ele>111.2</ele>
        <time>2024-07-03T13:41:00Z</time>
      </trkpt>
      <trkpt lat="49.04427" lon="-0.3919">
        <ele>111.4</ele>
        <time>2024-07-03T13:41:01Z</time>
      </trkpt>
      <trkpt lat="49.04421" lon="-0.3919">
        <ele>111.6</ele>
        <time>2024-07-03T13:41:02Z</time>
      </trkpt>
      <trkpt lat="49.04415" lon="-0.3919">
        <ele>111.8</ele>
        <time>2024-07-03T13:41:03Z</time>
      </trkpt>
      <trkpt lat="49.04409" lon="-0.39191">
        <ele>112</ele>
        <time>2024-07-03T13:41:04Z</time>
      </trkpt>
      <trkpt lat="49.04403" lon="-0.39191">
        <ele>112</ele>
        <time>2024-07-03T13:41:05Z</time>
      </trkpt>
      <trkpt lat="49.04397" lon="-0.39191">
        <ele>112.2</ele>
        <time>2024-07-03T13:41:06Z</time>
      </trkpt>
      <trkpt lat="49.04392" lon="-0.39192">
        <ele>112.2</ele>
        <time>2024-07-03T13:41:07Z</time>
      </trkpt>
      <trkpt lat="49.04387" lon="-0.39192">
        <ele>112.4</ele>
        <time>2024-07-03T13:41:08Z</time>
      </trkpt>
      <trkpt lat="49.04382" lon="-0.39194">
        <ele>112.8</ele>
        <time>2024-07-03T13:41:09Z</time>
      </trkpt>
      <trkpt lat="49.04378" lon="-0.39195">
        <ele>113</ele>
        <time>2024-07-03T13:41:10Z</time>
      </trkpt>
      <trkpt lat="49.04373" lon="-0.39197">
        <ele>113.4</ele>
        <time>2024-07-03T13:41:11Z</time>
      </trkpt>
      <trkpt lat="49.04367" lon="-0.39198">
        <ele>113.8</ele>
        <time>2024-07-03T13:41:12Z</time>
      </trkpt>
      <trkpt lat="49.04362" lon="-0.39199">
        <ele>114.4</ele>
        <time>2024-07-03T13:41:13Z</time>
      </trkpt>
      <trkpt lat="49.04356" lon="-0.39201">
        <ele>114.8</ele>
        <time>2024-07-03T13:41:14Z</time>
      </trkpt>
      <trkpt lat="49.0435" lon="-0.39203">
        <ele>115</ele>
        <time>2024-07-03T13:41:15Z</time>
      </trkpt>
      <trkpt lat="49.04345" lon="-0.39205">
        <ele>115.2</ele>
        <time>2024-07-03T13:41:16Z</time>
      </trkpt>
      <trkpt lat="49.04339" lon="-0.39207">
        <ele>115.4</ele>
        <time>2024-07-03T13:41:17Z</time>
      </trkpt>
      <trkpt lat="49.04334" lon="-0.39209">
        <ele>115.4</ele>
        <time>2024-07-03T13:41:18Z</time>
      </trkpt>
      <trkpt lat="49.04328" lon="-0.39212">
        <ele>115.4</ele>
        <time>2024-07-03T13:41:19Z</time>
      </trkpt>
      <trkpt lat="49.04322" lon="-0.39215">
        <ele>115.4</ele>
        <time>2024-07-03T13:41:20Z</time>
      </trkpt>
      <trkpt lat="49.04317" lon="-0.39218">
        <ele>115.8</ele>
        <time>2024-07-03T13:41:21Z</time>
      </trkpt>
      <trkpt lat="49.04311" lon="-0.39222">
        <ele>115.6</ele>
        <time>2024-07-03T13:41:22Z</time>
      </trkpt>
      <trkpt lat="49.04306" lon="-0.39226">
        <ele>115.6</ele>
        <time>2024-07-03T13:41:23Z</time>
      </trkpt>
      <trkpt lat="49.043" lon="-0.3923">
        <ele>115.6</ele>
        <time>2024-07-03T13:41:24Z</time>
      </trkpt>
      <trkpt lat="49.04295" lon="-0.39234">
        <ele>115.8</ele>
        <time>2024-07-03T13:41:25Z</time>
      </trkpt>
      <trkpt lat="49.0429" lon="-0.39238">
        <ele>115.8</ele>
        <time>2024-07-03T13:41:26Z</time>
      </trkpt>
      <trkpt lat="49.04285" lon="-0.39242">
        <ele>116</ele>
        <time>2024-07-03T13:41:27Z</time>
      </trkpt>
      <trkpt lat="49.04279" lon="-0.39246">
        <ele>116</ele>
        <time>2024-07-03T13:41:28Z</time>
      </trkpt>
      <trkpt lat="49.04274" lon="-0.39251">
        <ele>116</ele>
        <time>2024-07-03T13:41:29Z</time>
      </trkpt>
      <trkpt lat="49.04268" lon="-0.39256">
        <ele>116.4</ele>
        <time>2024-07-03T13:41:30Z</time>
      </trkpt>
      <trkpt lat="49.04261" lon="-0.39261">
        <ele>116.6</ele>
        <time>2024-07-03T13:41:31Z</time>
      </trkpt>
      <trkpt lat="49.04256" lon="-0.39264">
        <ele>117.2</ele>
        <time>2024-07-03T13:41:32Z</time>
      </trkpt>
      <trkpt lat="49.04251" lon="-0.39268">
        <ele>117.6</ele>
        <time>2024-07-03T13:41:33Z</time>
      </trkpt>
      <trkpt lat="49.04246" lon="-0.39272">
        <ele>117.8</ele>
        <time>2024-07-03T13:41:34Z</time>
      </trkpt>
      <trkpt lat="49.0424" lon="-0.39275">
        <ele>118</ele>
        <time>2024-07-03T13:41:35Z</time>
      </trkpt>
      <trkpt lat="49.04235" lon="-0.39279">
        <ele>118</ele>
        <time>2024-07-03T13:41:36Z</time>
      </trkpt>
      <trkpt lat="49.04229" lon="-0.39283">
        <ele>118</ele>
        <time>2024-07-03T13:41:37Z</time>
      </trkpt>
      <trkpt lat="49.04223" lon="-0.39286">
        <ele>118</ele>
        <time>2024-07-03T13:41:38Z</time>
      </trkpt>
      <trkpt lat="49.04217" lon="-0.39289">
        <ele>118</ele>
        <time>2024-07-03T13:41:39Z</time>
      </trkpt>
      <trkpt lat="49.04211" lon="-0.39292">
        <ele>118</ele>
        <time>2024-07-03T13:41:40Z</time>
      </trkpt>
      <trkpt lat="49.04205" lon="-0.39294">
        <ele>118.2</ele>
        <time>2024-07-03T13:41:41Z</time>
      </trkpt>
      <trkpt lat="49.042" lon="-0.39297">
        <ele>118.4</ele>
        <time>2024-07-03T13:41:42Z</time>
      </trkpt>
      <trkpt lat="49.04193" lon="-0.393">
        <ele>118.6</ele>
        <time>2024-07-03T13:41:43Z</time>
      </trkpt>
      <trkpt lat="49.04187" lon="-0.39303">
        <ele>118.6</ele>
        <time>2024-07-03T13:41:44Z</time>
      </trkpt>
      <trkpt lat="49.04181" lon="-0.39306">
        <ele>118.8</ele>
        <time>2024-07-03T13:41:45Z</time>
      </trkpt>
      <trkpt lat="49.04175" lon="-0.39309">
        <ele>118.8</ele>
        <time>2024-07-03T13:41:46Z</time>
      </trkpt>
      <trkpt lat="49.04169" lon="-0.39312">
        <ele>118.8</ele>
        <time>2024-07-03T13:41:47Z</time>
      </trkpt>
      <trkpt lat="49.04163" lon="-0.39315">
        <ele>118.8</ele>
        <time>2024-07-03T13:41:48Z</time>
      </trkpt>
      <trkpt lat="49.04157" lon="-0.39318">
        <ele>118.6</ele>
        <time>2024-07-03T13:41:49Z</time>
      </trkpt>
      <trkpt lat="49.04151" lon="-0.39321">
        <ele>118.4</ele>
        <time>2024-07-03T13:41:50Z</time>
      </trkpt>
      <trkpt lat="49.04145" lon="-0.39324">
        <ele>118.2</ele>
        <time>2024-07-03T13:41:51Z</time>
      </trkpt>
      <trkpt lat="49.0414" lon="-0.39327">
        <ele>118.2</ele>
        <time>2024-07-03T13:41:52Z</time>
      </trkpt>
      <trkpt lat="49.04134" lon="-0.3933">
        <ele>118.4</ele>
        <time>2024-07-03T13:41:53Z</time>
      </trkpt>
      <trkpt lat="49.04128" lon="-0.39333">
        <ele>118.4</ele>
        <time>2024-07-03T13:41:54Z</time>
      </trkpt>
      <trkpt lat="49.04122" lon="-0.39336">
        <ele>118.6</ele>
        <time>2024-07-03T13:41:55Z</time>
      </trkpt>
      <trkpt lat="49.04116" lon="-0.39339">
        <ele>119</ele>
        <time>2024-07-03T13:41:56Z</time>
      </trkpt>
      <trkpt lat="49.04111" lon="-0.39343">
        <ele>119.6</ele>
        <time>2024-07-03T13:41:57Z</time>
      </trkpt>
      <trkpt lat="49.04105" lon="-0.39346">
        <ele>120.4</ele>
        <time>2024-07-03T13:41:58Z</time>
      </trkpt>
      <trkpt lat="49.041" lon="-0.39349">
        <ele>120.8</ele>
        <time>2024-07-03T13:41:59Z</time>
      </trkpt>
      <trkpt lat="49.04095" lon="-0.39352">
        <ele>121.2</ele>
        <time>2024-07-03T13:42:00Z</time>
      </trkpt>
      <trkpt lat="49.04089" lon="-0.39356">
        <ele>121.4</ele>
        <time>2024-07-03T13:42:01Z</time>
      </trkpt>
      <trkpt lat="49.04084" lon="-0.3936">
        <ele>121.6</ele>
        <time>2024-07-03T13:42:02Z</time>
      </trkpt>
      <trkpt lat="49.04078" lon="-0.39364">
        <ele>121.8</ele>
        <time>2024-07-03T13:42:03Z</time>
      </trkpt>
      <trkpt lat="49.04072" lon="-0.39369">
        <ele>122</ele>
        <time>2024-07-03T13:42:04Z</time>
      </trkpt>
      <trkpt lat="49.04066" lon="-0.39372">
        <ele>122.2</ele>
        <time>2024-07-03T13:42:05Z</time>
      </trkpt>
      <trkpt lat="49.0406" lon="-0.39376">
        <ele>122.4</ele>
        <time>2024-07-03T13:42:06Z</time>
      </trkpt>
      <trkpt lat="49.04054" lon="-0.39379">
        <ele>122.6</ele>
        <time>2024-07-03T13:42:07Z</time>
      </trkpt>
      <trkpt lat="49.04048" lon="-0.39382">
        <ele>122.6</ele>
        <time>2024-07-03T13:42:08Z</time>
      </trkpt>
      <trkpt lat="49.04041" lon="-0.39384">
        <ele>122.8</ele>
        <time>2024-07-03T13:42:09Z</time>
      </trkpt>
      <trkpt lat="49.04035" lon="-0.39387">
        <ele>122.8</ele>
        <time>2024-07-03T13:42:10Z</time>
      </trkpt>
      <trkpt lat="49.04029" lon="-0.39388">
        <ele>123</ele>
        <time>2024-07-03T13:42:11Z</time>
      </trkpt>
      <trkpt lat="49.04022" lon="-0.39388">
        <ele>123.2</ele>
        <time>2024-07-03T13:42:12Z</time>
      </trkpt>
      <trkpt lat="49.04015" lon="-0.39388">
        <ele>123.2</ele>
        <time>2024-07-03T13:42:13Z</time>
      </trkpt>
      <trkpt lat="49.04008" lon="-0.39387">
        <ele>123.2</ele>
        <time>2024-07-03T13:42:14Z</time>
      </trkpt>
      <trkpt lat="49.04001" lon="-0.39386">
        <ele>123.2</ele>
        <time>2024-07-03T13:42:15Z</time>
      </trkpt>
      <trkpt lat="49.03994" lon="-0.39384">
        <ele>123.2</ele>
        <time>2024-07-03T13:42:16Z</time>
      </trkpt>
      <trkpt lat="49.03987" lon="-0.39382">
        <ele>123.2</ele>
        <time>2024-07-03T13:42:17Z</time>
      </trkpt>
      <trkpt lat="49.0398" lon="-0.39379">
        <ele>123.2</ele>
        <time>2024-07-03T13:42:18Z</time>
      </trkpt>
      <trkpt lat="49.03973" lon="-0.39377">
        <ele>123</ele>
        <time>2024-07-03T13:42:19Z</time>
      </trkpt>
      <trkpt lat="49.03966" lon="-0.39376">
        <ele>122.8</ele>
        <time>2024-07-03T13:42:20Z</time>
      </trkpt>
      <trkpt lat="49.03959" lon="-0.39374">
        <ele>122.4</ele>
        <time>2024-07-03T13:42:21Z</time>
      </trkpt>
      <trkpt lat="49.03953" lon="-0.39373">
        <ele>122</ele>
        <time>2024-07-03T13:42:22Z</time>
      </trkpt>
      <trkpt lat="49.03946" lon="-0.39372">
        <ele>121.8</ele>
        <time>2024-07-03T13:42:23Z</time>
      </trkpt>
      <trkpt lat="49.03939" lon="-0.39371">
        <ele>121.8</ele>
        <time>2024-07-03T13:42:24Z</time>
      </trkpt>
      <trkpt lat="49.03932" lon="-0.39369">
        <ele>121.8</ele>
        <time>2024-07-03T13:42:25Z</time>
      </trkpt>
      <trkpt lat="49.03925" lon="-0.39368">
        <ele>122.2</ele>
        <time>2024-07-03T13:42:26Z</time>
      </trkpt>
      <trkpt lat="49.03918" lon="-0.39367">
        <ele>122.4</ele>
        <time>2024-07-03T13:42:27Z</time>
      </trkpt>
      <trkpt lat="49.03911" lon="-0.39365">
        <ele>122.4</ele>
        <time>2024-07-03T13:42:28Z</time>
      </trkpt>
      <trkpt lat="49.03904" lon="-0.39364">
        <ele>122.6</ele>
        <time>2024-07-03T13:42:29Z</time>
      </trkpt>
      <trkpt lat="49.03897" lon="-0.39362">
        <ele>122.6</ele>
        <time>2024-07-03T13:42:30Z</time>
      </trkpt>
      <trkpt lat="49.03889" lon="-0.39361">
        <ele>122.6</ele>
        <time>2024-07-03T13:42:31Z</time>
      </trkpt>
      <trkpt lat="49.03882" lon="-0.3936">
        <ele>122.4</ele>
        <time>2024-07-03T13:42:32Z</time>
      </trkpt>
      <trkpt lat="49.03875" lon="-0.39359">
        <ele>122.4</ele>
        <time>2024-07-03T13:42:33Z</time>
      </trkpt>
      <trkpt lat="49.03868" lon="-0.39358">
        <ele>122.4</ele>
        <time>2024-07-03T13:42:34Z</time>
      </trkpt>
      <trkpt lat="49.03861" lon="-0.39357">
        <ele>122.4</ele>
        <time>2024-07-03T13:42:35Z</time>
      </trkpt>
      <trkpt lat="49.03854" lon="-0.39356">
        <ele>122.6</ele>
        <time>2024-07-03T13:42:36Z</time>
      </trkpt>
      <trkpt lat="49.03846" lon="-0.39355">
        <ele>122.8</ele>
        <time>2024-07-03T13:42:37Z</time>
      </trkpt>
      <trkpt lat="49.03839" lon="-0.39354">
        <ele>123</ele>
        <time>2024-07-03T13:42:38Z</time>
      </trkpt>
      <trkpt lat="49.03832" lon="-0.39353">
        <ele>123</ele>
        <time>2024-07-03T13:42:39Z</time>
      </trkpt>
      <trkpt lat="49.03824" lon="-0.39352">
        <ele>123</ele>
        <time>2024-07-03T13:42:40Z</time>
      </trkpt>
      <trkpt lat="49.03817" lon="-0.3935">
        <ele>123</ele>
        <time>2024-07-03T13:42:41Z</time>
      </trkpt>
      <trkpt lat="49.0381" lon="-0.39349">
        <ele>123</ele>
        <time>2024-07-03T13:42:42Z</time>
      </trkpt>
      <trkpt lat="49.03802" lon="-0.39348">
        <ele>122.8</ele>
        <time>2024-07-03T13:42:43Z</time>
      </trkpt>
      <trkpt lat="49.03794" lon="-0.39347">
        <ele>122.8</ele>
        <time>2024-07-03T13:42:44Z</time>
      </trkpt>
      <trkpt lat="49.03786" lon="-0.39346">
        <ele>122.6</ele>
        <time>2024-07-03T13:42:45Z</time>
      </trkpt>
      <trkpt lat="49.03778" lon="-0.39344">
        <ele>122.4</ele>
        <time>2024-07-03T13:42:46Z</time>
      </trkpt>
      <trkpt lat="49.0377" lon="-0.39344">
        <ele>122.2</ele>
        <time>2024-07-03T13:42:47Z</time>
      </trkpt>
      <trkpt lat="49.03762" lon="-0.39343">
        <ele>122</ele>
        <time>2024-07-03T13:42:48Z</time>
      </trkpt>
      <trkpt lat="49.03753" lon="-0.39343">
        <ele>121.8</ele>
        <time>2024-07-03T13:42:49Z</time>
      </trkpt>
      <trkpt lat="49.03744" lon="-0.39343">
        <ele>121.6</ele>
        <time>2024-07-03T13:42:50Z</time>
      </trkpt>
      <trkpt lat="49.03736" lon="-0.39343">
        <ele>121.2</ele>
        <time>2024-07-03T13:42:51Z</time>
      </trkpt>
      <trkpt lat="49.03728" lon="-0.39343">
        <ele>120.6</ele>
        <time>2024-07-03T13:42:52Z</time>
      </trkpt>
      <trkpt lat="49.0372" lon="-0.39343">
        <ele>120.2</ele>
        <time>2024-07-03T13:42:53Z</time>
      </trkpt>
      <trkpt lat="49.03712" lon="-0.39342">
        <ele>119.8</ele>
        <time>2024-07-03T13:42:54Z</time>
      </trkpt>
      <trkpt lat="49.03705" lon="-0.39343">
        <ele>119.4</ele>
        <time>2024-07-03T13:42:55Z</time>
      </trkpt>
      <trkpt lat="49.03697" lon="-0.39343">
        <ele>119</ele>
        <time>2024-07-03T13:42:56Z</time>
      </trkpt>
      <trkpt lat="49.03689" lon="-0.39343">
        <ele>119</ele>
        <time>2024-07-03T13:42:57Z</time>
      </trkpt>
      <trkpt lat="49.03681" lon="-0.39343">
        <ele>119</ele>
        <time>2024-07-03T13:42:58Z</time>
      </trkpt>
      <trkpt lat="49.03673" lon="-0.39343">
        <ele>119.4</ele>
        <time>2024-07-03T13:42:59Z</time>
      </trkpt>
      <trkpt lat="49.03664" lon="-0.39342">
        <ele>119.4</ele>
        <time>2024-07-03T13:43:00Z</time>
      </trkpt>
      <trkpt lat="49.03655" lon="-0.39342">
        <ele>119.6</ele>
        <time>2024-07-03T13:43:01Z</time>
      </trkpt>
      <trkpt lat="49.03646" lon="-0.39341">
        <ele>119.8</ele>
        <time>2024-07-03T13:43:02Z</time>
      </trkpt>
      <trkpt lat="49.03638" lon="-0.39339">
        <ele>120</ele>
        <time>2024-07-03T13:43:03Z</time>
      </trkpt>
      <trkpt lat="49.03629" lon="-0.39338">
        <ele>120.2</ele>
        <time>2024-07-03T13:43:04Z</time>
      </trkpt>
      <trkpt lat="49.03621" lon="-0.39336">
        <ele>120.2</ele>
        <time>2024-07-03T13:43:05Z</time>
      </trkpt>
      <trkpt lat="49.03613" lon="-0.39335">
        <ele>120.4</ele>
        <time>2024-07-03T13:43:06Z</time>
      </trkpt>
      <trkpt lat="49.03604" lon="-0.39335">
        <ele>120.4</ele>
        <time>2024-07-03T13:43:07Z</time>
      </trkpt>
      <trkpt lat="49.03596" lon="-0.39334">
        <ele>120.4</ele>
        <time>2024-07-03T13:43:08Z</time>
      </trkpt>
      <trkpt lat="49.03587" lon="-0.39334">
        <ele>120.6</ele>
        <time>2024-07-03T13:43:09Z</time>
      </trkpt>
      <trkpt lat="49.03579" lon="-0.39334">
        <ele>120.8</ele>
        <time>2024-07-03T13:43:10Z</time>
      </trkpt>
      <trkpt lat="49.03572" lon="-0.39334">
        <ele>121</ele>
        <time>2024-07-03T13:43:11Z</time>
      </trkpt>
      <trkpt lat="49.03564" lon="-0.39335">
        <ele>121.2</ele>
        <time>2024-07-03T13:43:12Z</time>
      </trkpt>
      <trkpt lat="49.03557" lon="-0.39337">
        <ele>121.4</ele>
        <time>2024-07-03T13:43:13Z</time>
      </trkpt>
      <trkpt lat="49.0355" lon="-0.3934">
        <ele>121.8</ele>
        <time>2024-07-03T13:43:14Z</time>
      </trkpt>
      <trkpt lat="49.03543" lon="-0.39342">
        <ele>122.2</ele>
        <time>2024-07-03T13:43:15Z</time>
      </trkpt>
      <trkpt lat="49.03536" lon="-0.39344">
        <ele>122.6</ele>
        <time>2024-07-03T13:43:16Z</time>
      </trkpt>
      <trkpt lat="49.03529" lon="-0.39346">
        <ele>123</ele>
        <time>2024-07-03T13:43:17Z</time>
      </trkpt>
      <trkpt lat="49.03522" lon="-0.39349">
        <ele>123.6</ele>
        <time>2024-07-03T13:43:18Z</time>
      </trkpt>
      <trkpt lat="49.03515" lon="-0.39352">
        <ele>124</ele>
        <time>2024-07-03T13:43:19Z</time>
      </trkpt>
      <trkpt lat="49.03508" lon="-0.39355">
        <ele>124.6</ele>
        <time>2024-07-03T13:43:20Z</time>
      </trkpt>
      <trkpt lat="49.03501" lon="-0.39357">
        <ele>124.8</ele>
        <time>2024-07-03T13:43:21Z</time>
      </trkpt>
      <trkpt lat="49.03495" lon="-0.3936">
        <ele>125</ele>
        <time>2024-07-03T13:43:22Z</time>
      </trkpt>
      <trkpt lat="49.03488" lon="-0.39363">
        <ele>125.4</ele>
        <time>2024-07-03T13:43:23Z</time>
      </trkpt>
      <trkpt lat="49.03481" lon="-0.39365">
        <ele>125.8</ele>
        <time>2024-07-03T13:43:24Z</time>
      </trkpt>
      <trkpt lat="49.03474" lon="-0.39368">
        <ele>126</ele>
        <time>2024-07-03T13:43:25Z</time>
      </trkpt>
      <trkpt lat="49.03467" lon="-0.3937">
        <ele>126.2</ele>
        <time>2024-07-03T13:43:26Z</time>
      </trkpt>
      <trkpt lat="49.0346" lon="-0.39372">
        <ele>126.4</ele>
        <time>2024-07-03T13:43:27Z</time>
      </trkpt>
      <trkpt lat="49.03453" lon="-0.39374">
        <ele>126.4</ele>
        <time>2024-07-03T13:43:28Z</time>
      </trkpt>
      <trkpt lat="49.03446" lon="-0.39376">
        <ele>126.4</ele>
        <time>2024-07-03T13:43:29Z</time>
      </trkpt>
      <trkpt lat="49.03439" lon="-0.39378">
        <ele>126.4</ele>
        <time>2024-07-03T13:43:30Z</time>
      </trkpt>
      <trkpt lat="49.03432" lon="-0.3938">
        <ele>126.4</ele>
        <time>2024-07-03T13:43:31Z</time>
      </trkpt>
      <trkpt lat="49.03424" lon="-0.39381">
        <ele>126.2</ele>
        <time>2024-07-03T13:43:32Z</time>
      </trkpt>
      <trkpt lat="49.03417" lon="-0.39382">
        <ele>125.8</ele>
        <time>2024-07-03T13:43:33Z</time>
      </trkpt>
      <trkpt lat="49.0341" lon="-0.39383">
        <ele>125.8</ele>
        <time>2024-07-03T13:43:34Z</time>
      </trkpt>
      <trkpt lat="49.03402" lon="-0.39383">
        <ele>125.8</ele>
        <time>2024-07-03T13:43:35Z</time>
      </trkpt>
      <trkpt lat="49.03396" lon="-0.39382">
        <ele>125.8</ele>
        <time>2024-07-03T13:43:36Z</time>
      </trkpt>
      <trkpt lat="49.03389" lon="-0.39381">
        <ele>126</ele>
        <time>2024-07-03T13:43:37Z</time>
      </trkpt>
      <trkpt lat="49.03383" lon="-0.39381">
        <ele>126.2</ele>
        <time>2024-07-03T13:43:38Z</time>
      </trkpt>
      <trkpt lat="49.03376" lon="-0.39381">
        <ele>126.4</ele>
        <time>2024-07-03T13:43:39Z</time>
      </trkpt>
      <trkpt lat="49.0337" lon="-0.39381">
        <ele>126.6</ele>
        <time>2024-07-03T13:43:40Z</time>
      </trkpt>
      <trkpt lat="49.03364" lon="-0.3938">
        <ele>127</ele>
        <time>2024-07-03T13:43:41Z</time>
      </trkpt>
      <trkpt lat="49.03358" lon="-0.3938">
        <ele>127.2</ele>
        <time>2024-07-03T13:43:42Z</time>
      </trkpt>
      <trkpt lat="49.03353" lon="-0.3938">
        <ele>127.4</ele>
        <time>2024-07-03T13:43:43Z</time>
      </trkpt>
      <trkpt lat="49.03347" lon="-0.39381">
        <ele>127.6</ele>
        <time>2024-07-03T13:43:44Z</time>
      </trkpt>
      <trkpt lat="49.03341" lon="-0.39381">
        <ele>128</ele>
        <time>2024-07-03T13:43:45Z</time>
      </trkpt>
      <trkpt lat="49.03335" lon="-0.39381">
        <ele>128.2</ele>
        <time>2024-07-03T13:43:46Z</time>
      </trkpt>
      <trkpt lat="49.03328" lon="-0.39381">
        <ele>128.4</ele>
        <time>2024-07-03T13:43:47Z</time>
      </trkpt>
      <trkpt lat="49.03322" lon="-0.39382">
        <ele>128.6</ele>
        <time>2024-07-03T13:43:48Z</time>
      </trkpt>
      <trkpt lat="49.03315" lon="-0.39381">
        <ele>128.6</ele>
        <time>2024-07-03T13:43:49Z</time>
      </trkpt>
      <trkpt lat="49.03309" lon="-0.39381">
        <ele>128.8</ele>
        <time>2024-07-03T13:43:50Z</time>
      </trkpt>
      <trkpt lat="49.03302" lon="-0.39381">
        <ele>128.8</ele>
        <time>2024-07-03T13:43:51Z</time>
      </trkpt>
      <trkpt lat="49.03295" lon="-0.39381">
        <ele>128.6</ele>
        <time>2024-07-03T13:43:52Z</time>
      </trkpt>
      <trkpt lat="49.03288" lon="-0.39381">
        <ele>128.4</ele>
        <time>2024-07-03T13:43:53Z</time>
      </trkpt>
      <trkpt lat="49.03282" lon="-0.3938">
        <ele>128.2</ele>
        <time>2024-07-03T13:43:54Z</time>
      </trkpt>
      <trkpt lat="49.03275" lon="-0.39381">
        <ele>128.2</ele>
        <time>2024-07-03T13:43:55Z</time>
      </trkpt>
      <trkpt lat="49.03268" lon="-0.39381">
        <ele>128.2</ele>
        <time>2024-07-03T13:43:56Z</time>
      </trkpt>
      <trkpt lat="49.03261" lon="-0.39382">
        <ele>128.2</ele>
        <time>2024-07-03T13:43:57Z</time>
      </trkpt>
      <trkpt lat="49.03254" lon="-0.39382">
        <ele>128.2</ele>
        <time>2024-07-03T13:43:58Z</time>
      </trkpt>
      <trkpt lat="49.03247" lon="-0.39382">
        <ele>128.4</ele>
        <time>2024-07-03T13:43:59Z</time>
      </trkpt>
      <trkpt lat="49.0324" lon="-0.39382">
        <ele>128.6</ele>
        <time>2024-07-03T13:44:00Z</time>
      </trkpt>
      <trkpt lat="49.03233" lon="-0.39382">
        <ele>128.6</ele>
        <time>2024-07-03T13:44:01Z</time>
      </trkpt>
      <trkpt lat="49.03226" lon="-0.39381">
        <ele>128.6</ele>
        <time>2024-07-03T13:44:02Z</time>
      </trkpt>
      <trkpt lat="49.03219" lon="-0.39381">
        <ele>128.6</ele>
        <time>2024-07-03T13:44:03Z</time>
      </trkpt>
      <trkpt lat="49.03212" lon="-0.39381">
        <ele>128.6</ele>
        <time>2024-07-03T13:44:04Z</time>
      </trkpt>
      <trkpt lat="49.03205" lon="-0.39381">
        <ele>128.4</ele>
        <time>2024-07-03T13:44:05Z</time>
      </trkpt>
      <trkpt lat="49.03198" lon="-0.39381">
        <ele>128.2</ele>
        <time>2024-07-03T13:44:06Z</time>
      </trkpt>
      <trkpt lat="49.03192" lon="-0.39381">
        <ele>128.2</ele>
        <time>2024-07-03T13:44:07Z</time>
      </trkpt>
      <trkpt lat="49.03186" lon="-0.3938">
        <ele>128.2</ele>
        <time>2024-07-03T13:44:08Z</time>
      </trkpt>
      <trkpt lat="49.03179" lon="-0.3938">
        <ele>128</ele>
        <time>2024-07-03T13:44:09Z</time>
      </trkpt>
      <trkpt lat="49.03173" lon="-0.3938">
        <ele>128</ele>
        <time>2024-07-03T13:44:10Z</time>
      </trkpt>
      <trkpt lat="49.03167" lon="-0.3938">
        <ele>128</ele>
        <time>2024-07-03T13:44:11Z</time>
      </trkpt>
      <trkpt lat="49.03162" lon="-0.39381">
        <ele>128</ele>
        <time>2024-07-03T13:44:12Z</time>
      </trkpt>
      <trkpt lat="49.03157" lon="-0.39381">
        <ele>128</ele>
        <time>2024-07-03T13:44:13Z</time>
      </trkpt>
      <trkpt lat="49.03152" lon="-0.39381">
        <ele>128</ele>
        <time>2024-07-03T13:44:14Z</time>
      </trkpt>
      <trkpt lat="49.03148" lon="-0.3938">
        <ele>128</ele>
        <time>2024-07-03T13:44:15Z</time>
      </trkpt>
      <trkpt lat="49.03145" lon="-0.3938">
        <ele>128.2</ele>
        <time>2024-07-03T13:44:16Z</time>
      </trkpt>
      <trkpt lat="49.03142" lon="-0.39379">
        <ele>128.4</ele>
        <time>2024-07-03T13:44:17Z</time>
      </trkpt>
      <trkpt lat="49.0314" lon="-0.3938">
        <ele>128.6</ele>
        <time>2024-07-03T13:44:18Z</time>
      </trkpt>
      <trkpt lat="49.03138" lon="-0.3938">
        <ele>128.8</ele>
        <time>2024-07-03T13:44:19Z</time>
      </trkpt>
      <trkpt lat="49.03137" lon="-0.3938">
        <ele>129</ele>
        <time>2024-07-03T13:44:20Z</time>
      </trkpt>
      <trkpt lat="49.03137" lon="-0.3938">
        <ele>129.2</ele>
        <time>2024-07-03T13:44:21Z</time>
      </trkpt>
      <trkpt lat="49.03138" lon="-0.3938">
        <ele>129.4</ele>
        <time>2024-07-03T13:44:22Z</time>
      </trkpt>
      <trkpt lat="49.03138" lon="-0.39379">
        <ele>129.2</ele>
        <time>2024-07-03T13:46:11Z</time>
      </trkpt>
      <trkpt lat="49.03137" lon="-0.39377">
        <ele>129.2</ele>
        <time>2024-07-03T13:46:12Z</time>
      </trkpt>
      <trkpt lat="49.03137" lon="-0.39374">
        <ele>129.2</ele>
        <time>2024-07-03T13:46:13Z</time>
      </trkpt>
      <trkpt lat="49.03136" lon="-0.3937">
        <ele>129.2</ele>
        <time>2024-07-03T13:46:14Z</time>
      </trkpt>
      <trkpt lat="49.03136" lon="-0.39366">
        <ele>129.2</ele>
        <time>2024-07-03T13:46:15Z</time>
      </trkpt>
      <trkpt lat="49.03135" lon="-0.39361">
        <ele>129.2</ele>
        <time>2024-07-03T13:46:16Z</time>
      </trkpt>
      <trkpt lat="49.03134" lon="-0.39355">
        <ele>129.2</ele>
        <time>2024-07-03T13:46:17Z</time>
      </trkpt>
      <trkpt lat="49.03133" lon="-0.3935">
        <ele>129.2</ele>
        <time>2024-07-03T13:46:18Z</time>
      </trkpt>
      <trkpt lat="49.03132" lon="-0.39345">
        <ele>129.2</ele>
        <time>2024-07-03T13:46:19Z</time>
      </trkpt>
      <trkpt lat="49.03131" lon="-0.39339">
        <ele>129.2</ele>
        <time>2024-07-03T13:46:20Z</time>
      </trkpt>
      <trkpt lat="49.03131" lon="-0.39333">
        <ele>129.2</ele>
        <time>2024-07-03T13:46:21Z</time>
      </trkpt>
      <trkpt lat="49.0313" lon="-0.39327">
        <ele>129.4</ele>
        <time>2024-07-03T13:46:22Z</time>
      </trkpt>
      <trkpt lat="49.03129" lon="-0.3932">
        <ele>129.6</ele>
        <time>2024-07-03T13:46:23Z</time>
      </trkpt>
      <trkpt lat="49.03128" lon="-0.39313">
        <ele>129.8</ele>
        <time>2024-07-03T13:46:24Z</time>
      </trkpt>
      <trkpt lat="49.03127" lon="-0.39307">
        <ele>129.8</ele>
        <time>2024-07-03T13:46:25Z</time>
      </trkpt>
      <trkpt lat="49.03126" lon="-0.393">
        <ele>130</ele>
        <time>2024-07-03T13:46:26Z</time>
      </trkpt>
      <trkpt lat="49.03124" lon="-0.39292">
        <ele>130.2</ele>
        <time>2024-07-03T13:46:27Z</time>
      </trkpt>
      <trkpt lat="49.03123" lon="-0.39284">
        <ele>130.4</ele>
        <time>2024-07-03T13:46:28Z</time>
      </trkpt>
      <trkpt lat="49.03122" lon="-0.39276">
        <ele>130.4</ele>
        <time>2024-07-03T13:46:29Z</time>
      </trkpt>
      <trkpt lat="49.03122" lon="-0.39268">
        <ele>130.6</ele>
        <time>2024-07-03T13:46:30Z</time>
      </trkpt>
      <trkpt lat="49.0312" lon="-0.39261">
        <ele>130.6</ele>
        <time>2024-07-03T13:46:31Z</time>
      </trkpt>
      <trkpt lat="49.0312" lon="-0.39252">
        <ele>130.8</ele>
        <time>2024-07-03T13:46:32Z</time>
      </trkpt>
      <trkpt lat="49.03119" lon="-0.39244">
        <ele>130.8</ele>
        <time>2024-07-03T13:46:33Z</time>
      </trkpt>
      <trkpt lat="49.03118" lon="-0.39236">
        <ele>131</ele>
        <time>2024-07-03T13:46:34Z</time>
      </trkpt>
      <trkpt lat="49.03117" lon="-0.39227">
        <ele>131</ele>
        <time>2024-07-03T13:46:35Z</time>
      </trkpt>
      <trkpt lat="49.03116" lon="-0.39218">
        <ele>131.2</ele>
        <time>2024-07-03T13:46:36Z</time>
      </trkpt>
      <trkpt lat="49.03115" lon="-0.39209">
        <ele>131.2</ele>
        <time>2024-07-03T13:46:37Z</time>
      </trkpt>
      <trkpt lat="49.03114" lon="-0.392">
        <ele>131.2</ele>
        <time>2024-07-03T13:46:38Z</time>
      </trkpt>
      <trkpt lat="49.03113" lon="-0.3919">
        <ele>131.2</ele>
        <time>2024-07-03T13:46:39Z</time>
      </trkpt>
      <trkpt lat="49.03112" lon="-0.3918">
        <ele>131.2</ele>
        <time>2024-07-03T13:46:40Z</time>
      </trkpt>
      <trkpt lat="49.03111" lon="-0.3917">
        <ele>131.2</ele>
        <time>2024-07-03T13:46:41Z</time>
      </trkpt>
      <trkpt lat="49.0311" lon="-0.39159">
        <ele>131.2</ele>
        <time>2024-07-03T13:46:42Z</time>
      </trkpt>
      <trkpt lat="49.03109" lon="-0.3915">
        <ele>131</ele>
        <time>2024-07-03T13:46:43Z</time>
      </trkpt>
      <trkpt lat="49.03108" lon="-0.3914">
        <ele>131</ele>
        <time>2024-07-03T13:46:44Z</time>
      </trkpt>
      <trkpt lat="49.03107" lon="-0.3913">
        <ele>130.8</ele>
        <time>2024-07-03T13:46:45Z</time>
      </trkpt>
      <trkpt lat="49.03105" lon="-0.3912">
        <ele>130.8</ele>
        <time>2024-07-03T13:46:46Z</time>
      </trkpt>
      <trkpt lat="49.03104" lon="-0.39109">
        <ele>130.8</ele>
        <time>2024-07-03T13:46:47Z</time>
      </trkpt>
      <trkpt lat="49.03103" lon="-0.39099">
        <ele>130.8</ele>
        <time>2024-07-03T13:46:48Z</time>
      </trkpt>
      <trkpt lat="49.03103" lon="-0.39089">
        <ele>130.6</ele>
        <time>2024-07-03T13:46:49Z</time>
      </trkpt>
      <trkpt lat="49.03102" lon="-0.39079">
        <ele>130.6</ele>
        <time>2024-07-03T13:46:50Z</time>
      </trkpt>
      <trkpt lat="49.03101" lon="-0.39068">
        <ele>130.6</ele>
        <time>2024-07-03T13:46:51Z</time>
      </trkpt>
      <trkpt lat="49.031" lon="-0.39057">
        <ele>130.4</ele>
        <time>2024-07-03T13:46:52Z</time>
      </trkpt>
      <trkpt lat="49.03098" lon="-0.39046">
        <ele>130.4</ele>
        <time>2024-07-03T13:46:53Z</time>
      </trkpt>
      <trkpt lat="49.03097" lon="-0.39035">
        <ele>130.2</ele>
        <time>2024-07-03T13:46:54Z</time>
      </trkpt>
      <trkpt lat="49.03095" lon="-0.39024">
        <ele>130</ele>
        <time>2024-07-03T13:46:55Z</time>
      </trkpt>
      <trkpt lat="49.03094" lon="-0.39012">
        <ele>129.6</ele>
        <time>2024-07-03T13:46:56Z</time>
      </trkpt>
      <trkpt lat="49.03093" lon="-0.39">
        <ele>129.2</ele>
        <time>2024-07-03T13:46:57Z</time>
      </trkpt>
      <trkpt lat="49.03092" lon="-0.38988">
        <ele>129</ele>
        <time>2024-07-03T13:46:58Z</time>
      </trkpt>
      <trkpt lat="49.03091" lon="-0.38976">
        <ele>128.6</ele>
        <time>2024-07-03T13:46:59Z</time>
      </trkpt>
      <trkpt lat="49.0309" lon="-0.38963">
        <ele>128.4</ele>
        <time>2024-07-03T13:47:00Z</time>
      </trkpt>
      <trkpt lat="49.03088" lon="-0.3895">
        <ele>128</ele>
        <time>2024-07-03T13:47:01Z</time>
      </trkpt>
      <trkpt lat="49.03087" lon="-0.38937">
        <ele>127.6</ele>
        <time>2024-07-03T13:47:02Z</time>
      </trkpt>
      <trkpt lat="49.03086" lon="-0.38923">
        <ele>127</ele>
        <time>2024-07-03T13:47:03Z</time>
      </trkpt>
      <trkpt lat="49.03084" lon="-0.38909">
        <ele>126.6</ele>
        <time>2024-07-03T13:47:04Z</time>
      </trkpt>
      <trkpt lat="49.03083" lon="-0.38894">
        <ele>126.2</ele>
        <time>2024-07-03T13:47:05Z</time>
      </trkpt>
      <trkpt lat="49.03082" lon="-0.3888">
        <ele>125.8</ele>
        <time>2024-07-03T13:47:06Z</time>
      </trkpt>
      <trkpt lat="49.0308" lon="-0.38865">
        <ele>125.2</ele>
        <time>2024-07-03T13:47:07Z</time>
      </trkpt>
      <trkpt lat="49.03078" lon="-0.3885">
        <ele>124.4</ele>
        <time>2024-07-03T13:47:08Z</time>
      </trkpt>
      <trkpt lat="49.03077" lon="-0.38835">
        <ele>123.6</ele>
        <time>2024-07-03T13:47:09Z</time>
      </trkpt>
      <trkpt lat="49.03076" lon="-0.38819">
        <ele>123</ele>
        <time>2024-07-03T13:47:10Z</time>
      </trkpt>
      <trkpt lat="49.03074" lon="-0.38804">
        <ele>122.2</ele>
        <time>2024-07-03T13:47:11Z</time>
      </trkpt>
      <trkpt lat="49.03073" lon="-0.38788">
        <ele>121.4</ele>
        <time>2024-07-03T13:47:12Z</time>
      </trkpt>
      <trkpt lat="49.03071" lon="-0.38771">
        <ele>120.2</ele>
        <time>2024-07-03T13:47:13Z</time>
      </trkpt>
      <trkpt lat="49.0307" lon="-0.38755">
        <ele>119</ele>
        <time>2024-07-03T13:47:14Z</time>
      </trkpt>
      <trkpt lat="49.03068" lon="-0.38738">
        <ele>118.2</ele>
        <time>2024-07-03T13:47:15Z</time>
      </trkpt>
      <trkpt lat="49.03066" lon="-0.38721">
        <ele>117.2</ele>
        <time>2024-07-03T13:47:16Z</time>
      </trkpt>
      <trkpt lat="49.03065" lon="-0.38704">
        <ele>116.4</ele>
        <time>2024-07-03T13:47:17Z</time>
      </trkpt>
      <trkpt lat="49.03063" lon="-0.38688">
        <ele>115.6</ele>
        <time>2024-07-03T13:47:18Z</time>
      </trkpt>
      <trkpt lat="49.03062" lon="-0.38674">
        <ele>115.4</ele>
        <time>2024-07-03T13:47:19Z</time>
      </trkpt>
      <trkpt lat="49.03061" lon="-0.38661">
        <ele>115.2</ele>
        <time>2024-07-03T13:47:20Z</time>
      </trkpt>
      <trkpt lat="49.03059" lon="-0.38648">
        <ele>115.2</ele>
        <time>2024-07-03T13:47:21Z</time>
      </trkpt>
      <trkpt lat="49.03058" lon="-0.38635">
        <ele>115.6</ele>
        <time>2024-07-03T13:47:22Z</time>
      </trkpt>
      <trkpt lat="49.03056" lon="-0.38623">
        <ele>116.4</ele>
        <time>2024-07-03T13:47:23Z</time>
      </trkpt>
      <trkpt lat="49.03055" lon="-0.38612">
        <ele>117</ele>
        <time>2024-07-03T13:47:24Z</time>
      </trkpt>
      <trkpt lat="49.03055" lon="-0.38602">
        <ele>117.6</ele>
        <time>2024-07-03T13:47:25Z</time>
      </trkpt>
      <trkpt lat="49.03054" lon="-0.38592">
        <ele>118.2</ele>
        <time>2024-07-03T13:47:26Z</time>
      </trkpt>
      <trkpt lat="49.03053" lon="-0.38581">
        <ele>119</ele>
        <time>2024-07-03T13:47:27Z</time>
      </trkpt>
      <trkpt lat="49.03052" lon="-0.38571">
        <ele>119.8</ele>
        <time>2024-07-03T13:47:28Z</time>
      </trkpt>
      <trkpt lat="49.03051" lon="-0.38561">
        <ele>120.6</ele>
        <time>2024-07-03T13:47:29Z</time>
      </trkpt>
      <trkpt lat="49.03049" lon="-0.38551">
        <ele>121.4</ele>
        <time>2024-07-03T13:47:30Z</time>
      </trkpt>
      <trkpt lat="49.03048" lon="-0.38541">
        <ele>122.2</ele>
        <time>2024-07-03T13:47:31Z</time>
      </trkpt>
      <trkpt lat="49.03047" lon="-0.38532">
        <ele>123</ele>
        <time>2024-07-03T13:47:32Z</time>
      </trkpt>
      <trkpt lat="49.03046" lon="-0.38523">
        <ele>123.8</ele>
        <time>2024-07-03T13:47:33Z</time>
      </trkpt>
      <trkpt lat="49.03045" lon="-0.38514">
        <ele>124.6</ele>
        <time>2024-07-03T13:47:34Z</time>
      </trkpt>
      <trkpt lat="49.03043" lon="-0.38505">
        <ele>125.4</ele>
        <time>2024-07-03T13:47:35Z</time>
      </trkpt>
      <trkpt lat="49.03042" lon="-0.38497">
        <ele>125.8</ele>
        <time>2024-07-03T13:47:36Z</time>
      </trkpt>
      <trkpt lat="49.03042" lon="-0.38489">
        <ele>126.4</ele>
        <time>2024-07-03T13:47:37Z</time>
      </trkpt>
      <trkpt lat="49.03041" lon="-0.38481">
        <ele>126.6</ele>
        <time>2024-07-03T13:47:38Z</time>
      </trkpt>
      <trkpt lat="49.0304" lon="-0.38472">
        <ele>127</ele>
        <time>2024-07-03T13:47:39Z</time>
      </trkpt>
      <trkpt lat="49.03039" lon="-0.38464">
        <ele>127.4</ele>
        <time>2024-07-03T13:47:40Z</time>
      </trkpt>
      <trkpt lat="49.03037" lon="-0.38455">
        <ele>127.6</ele>
        <time>2024-07-03T13:47:41Z</time>
      </trkpt>
      <trkpt lat="49.03037" lon="-0.38446">
        <ele>127.8</ele>
        <time>2024-07-03T13:47:42Z</time>
      </trkpt>
      <trkpt lat="49.03036" lon="-0.38437">
        <ele>128.2</ele>
        <time>2024-07-03T13:47:43Z</time>
      </trkpt>
      <trkpt lat="49.03034" lon="-0.38428">
        <ele>128.4</ele>
        <time>2024-07-03T13:47:44Z</time>
      </trkpt>
      <trkpt lat="49.03033" lon="-0.38419">
        <ele>128.8</ele>
        <time>2024-07-03T13:47:45Z</time>
      </trkpt>
      <trkpt lat="49.03032" lon="-0.38411">
        <ele>129</ele>
        <time>2024-07-03T13:47:46Z</time>
      </trkpt>
      <trkpt lat="49.03032" lon="-0.38402">
        <ele>129</ele>
        <time>2024-07-03T13:47:47Z</time>
      </trkpt>
      <trkpt lat="49.03031" lon="-0.38392">
        <ele>129.2</ele>
        <time>2024-07-03T13:47:48Z</time>
      </trkpt>
      <trkpt lat="49.0303" lon="-0.38383">
        <ele>129.4</ele>
        <time>2024-07-03T13:47:49Z</time>
      </trkpt>
      <trkpt lat="49.03029" lon="-0.38373">
        <ele>129.4</ele>
        <time>2024-07-03T13:47:50Z</time>
      </trkpt>
      <trkpt lat="49.03027" lon="-0.38364">
        <ele>129.6</ele>
        <time>2024-07-03T13:47:51Z</time>
      </trkpt>
      <trkpt lat="49.03026" lon="-0.38355">
        <ele>129.8</ele>
        <time>2024-07-03T13:47:52Z</time>
      </trkpt>
      <trkpt lat="49.03026" lon="-0.38345">
        <ele>130</ele>
        <time>2024-07-03T13:47:53Z</time>
      </trkpt>
      <trkpt lat="49.03025" lon="-0.38336">
        <ele>130</ele>
        <time>2024-07-03T13:47:54Z</time>
      </trkpt>
      <trkpt lat="49.03024" lon="-0.38326">
        <ele>130.2</ele>
        <time>2024-07-03T13:47:55Z</time>
      </trkpt>
      <trkpt lat="49.03023" lon="-0.38315">
        <ele>130.4</ele>
        <time>2024-07-03T13:47:56Z</time>
      </trkpt>
      <trkpt lat="49.03022" lon="-0.38305">
        <ele>130.4</ele>
        <time>2024-07-03T13:47:57Z</time>
      </trkpt>
      <trkpt lat="49.03021" lon="-0.38295">
        <ele>130.4</ele>
        <time>2024-07-03T13:47:58Z</time>
      </trkpt>
      <trkpt lat="49.0302" lon="-0.38285">
        <ele>130.4</ele>
        <time>2024-07-03T13:47:59Z</time>
      </trkpt>
      <trkpt lat="49.03019" lon="-0.38274">
        <ele>130.6</ele>
        <time>2024-07-03T13:48:00Z</time>
      </trkpt>
      <trkpt lat="49.03018" lon="-0.38265">
        <ele>130.6</ele>
        <time>2024-07-03T13:48:01Z</time>
      </trkpt>
      <trkpt lat="49.03017" lon="-0.38255">
        <ele>130.6</ele>
        <time>2024-07-03T13:48:02Z</time>
      </trkpt>
      <trkpt lat="49.03017" lon="-0.38245">
        <ele>130.4</ele>
        <time>2024-07-03T13:48:03Z</time>
      </trkpt>
      <trkpt lat="49.03015" lon="-0.38234">
        <ele>130.6</ele>
        <time>2024-07-03T13:48:04Z</time>
      </trkpt>
      <trkpt lat="49.03014" lon="-0.38223">
        <ele>130.6</ele>
        <time>2024-07-03T13:48:05Z</time>
      </trkpt>
      <trkpt lat="49.03013" lon="-0.38211">
        <ele>130.6</ele>
        <time>2024-07-03T13:48:06Z</time>
      </trkpt>
      <trkpt lat="49.03012" lon="-0.382">
        <ele>130.6</ele>
        <time>2024-07-03T13:48:07Z</time>
      </trkpt>
      <trkpt lat="49.03011" lon="-0.38188">
        <ele>130.6</ele>
        <time>2024-07-03T13:48:08Z</time>
      </trkpt>
      <trkpt lat="49.03009" lon="-0.38177">
        <ele>130.6</ele>
        <time>2024-07-03T13:48:09Z</time>
      </trkpt>
      <trkpt lat="49.03008" lon="-0.38166">
        <ele>130.6</ele>
        <time>2024-07-03T13:48:10Z</time>
      </trkpt>
      <trkpt lat="49.03007" lon="-0.38155">
        <ele>130.4</ele>
        <time>2024-07-03T13:48:11Z</time>
      </trkpt>
      <trkpt lat="49.03006" lon="-0.38143">
        <ele>130.2</ele>
        <time>2024-07-03T13:48:12Z</time>
      </trkpt>
      <trkpt lat="49.03006" lon="-0.38132">
        <ele>129.8</ele>
        <time>2024-07-03T13:48:13Z</time>
      </trkpt>
      <trkpt lat="49.03005" lon="-0.38121">
        <ele>129.6</ele>
        <time>2024-07-03T13:48:14Z</time>
      </trkpt>
      <trkpt lat="49.03004" lon="-0.3811">
        <ele>129.2</ele>
        <time>2024-07-03T13:48:15Z</time>
      </trkpt>
      <trkpt lat="49.03003" lon="-0.38099">
        <ele>129</ele>
        <time>2024-07-03T13:48:16Z</time>
      </trkpt>
      <trkpt lat="49.03002" lon="-0.38088">
        <ele>128.6</ele>
        <time>2024-07-03T13:48:17Z</time>
      </trkpt>
      <trkpt lat="49.03001" lon="-0.38078">
        <ele>128.6</ele>
        <time>2024-07-03T13:48:18Z</time>
      </trkpt>
      <trkpt lat="49.03" lon="-0.38067">
        <ele>128.4</ele>
        <time>2024-07-03T13:48:19Z</time>
      </trkpt>
      <trkpt lat="49.02999" lon="-0.38056">
        <ele>128.4</ele>
        <time>2024-07-03T13:48:20Z</time>
      </trkpt>
      <trkpt lat="49.02998" lon="-0.38046">
        <ele>128.4</ele>
        <time>2024-07-03T13:48:21Z</time>
      </trkpt>
      <trkpt lat="49.02997" lon="-0.38036">
        <ele>128.4</ele>
        <time>2024-07-03T13:48:22Z</time>
      </trkpt>
      <trkpt lat="49.02996" lon="-0.38026">
        <ele>128.6</ele>
        <time>2024-07-03T13:48:23Z</time>
      </trkpt>
      <trkpt lat="49.02994" lon="-0.38015">
        <ele>128.6</ele>
        <time>2024-07-03T13:48:24Z</time>
      </trkpt>
      <trkpt lat="49.02993" lon="-0.38005">
        <ele>128.8</ele>
        <time>2024-07-03T13:48:25Z</time>
      </trkpt>
      <trkpt lat="49.02992" lon="-0.37995">
        <ele>128.8</ele>
        <time>2024-07-03T13:48:26Z</time>
      </trkpt>
      <trkpt lat="49.02991" lon="-0.37985">
        <ele>129</ele>
        <time>2024-07-03T13:48:27Z</time>
      </trkpt>
      <trkpt lat="49.0299" lon="-0.37976">
        <ele>129.2</ele>
        <time>2024-07-03T13:48:28Z</time>
      </trkpt>
      <trkpt lat="49.02989" lon="-0.37967">
        <ele>129.2</ele>
        <time>2024-07-03T13:48:29Z</time>
      </trkpt>
      <trkpt lat="49.02988" lon="-0.37957">
        <ele>129.4</ele>
        <time>2024-07-03T13:48:30Z</time>
      </trkpt>
      <trkpt lat="49.02987" lon="-0.37947">
        <ele>129.6</ele>
        <time>2024-07-03T13:48:31Z</time>
      </trkpt>
      <trkpt lat="49.02986" lon="-0.37937">
        <ele>129.6</ele>
        <time>2024-07-03T13:48:32Z</time>
      </trkpt>
      <trkpt lat="49.02985" lon="-0.37927">
        <ele>129.6</ele>
        <time>2024-07-03T13:48:33Z</time>
      </trkpt>
      <trkpt lat="49.02984" lon="-0.37917">
        <ele>129.8</ele>
        <time>2024-07-03T13:48:34Z</time>
      </trkpt>
      <trkpt lat="49.02983" lon="-0.37906">
        <ele>129.8</ele>
        <time>2024-07-03T13:48:35Z</time>
      </trkpt>
      <trkpt lat="49.02982" lon="-0.37896">
        <ele>129.8</ele>
        <time>2024-07-03T13:48:36Z</time>
      </trkpt>
      <trkpt lat="49.02981" lon="-0.37888">
        <ele>129.8</ele>
        <time>2024-07-03T13:48:37Z</time>
      </trkpt>
      <trkpt lat="49.0298" lon="-0.37878">
        <ele>130</ele>
        <time>2024-07-03T13:48:38Z</time>
      </trkpt>
      <trkpt lat="49.0298" lon="-0.37869">
        <ele>130</ele>
        <time>2024-07-03T13:48:39Z</time>
      </trkpt>
      <trkpt lat="49.02979" lon="-0.37861">
        <ele>130.2</ele>
        <time>2024-07-03T13:48:40Z</time>
      </trkpt>
      <trkpt lat="49.02979" lon="-0.37853">
        <ele>130.2</ele>
        <time>2024-07-03T13:48:41Z</time>
      </trkpt>
      <trkpt lat="49.02978" lon="-0.37846">
        <ele>130.4</ele>
        <time>2024-07-03T13:48:42Z</time>
      </trkpt>
      <trkpt lat="49.02977" lon="-0.37839">
        <ele>130.6</ele>
        <time>2024-07-03T13:48:43Z</time>
      </trkpt>
      <trkpt lat="49.02976" lon="-0.37831">
        <ele>130.8</ele>
        <time>2024-07-03T13:48:44Z</time>
      </trkpt>
      <trkpt lat="49.02975" lon="-0.37822">
        <ele>131</ele>
        <time>2024-07-03T13:48:45Z</time>
      </trkpt>
      <trkpt lat="49.02974" lon="-0.37815">
        <ele>131.2</ele>
        <time>2024-07-03T13:48:46Z</time>
      </trkpt>
      <trkpt lat="49.02972" lon="-0.37806">
        <ele>131.2</ele>
        <time>2024-07-03T13:48:47Z</time>
      </trkpt>
      <trkpt lat="49.0297" lon="-0.37796">
        <ele>131.4</ele>
        <time>2024-07-03T13:48:48Z</time>
      </trkpt>
      <trkpt lat="49.02969" lon="-0.37787">
        <ele>131.4</ele>
        <time>2024-07-03T13:48:49Z</time>
      </trkpt>
      <trkpt lat="49.02968" lon="-0.37778">
        <ele>131.6</ele>
        <time>2024-07-03T13:48:50Z</time>
      </trkpt>
      <trkpt lat="49.02967" lon="-0.37769">
        <ele>131.8</ele>
        <time>2024-07-03T13:48:51Z</time>
      </trkpt>
      <trkpt lat="49.02967" lon="-0.37756">
        <ele>131.8</ele>
        <time>2024-07-03T13:48:52Z</time>
      </trkpt>
      <trkpt lat="49.02966" lon="-0.37745">
        <ele>131.8</ele>
        <time>2024-07-03T13:48:53Z</time>
      </trkpt>
      <trkpt lat="49.02966" lon="-0.37737">
        <ele>131.8</ele>
        <time>2024-07-03T13:48:54Z</time>
      </trkpt>
      <trkpt lat="49.02966" lon="-0.37725">
        <ele>132</ele>
        <time>2024-07-03T13:48:55Z</time>
      </trkpt>
      <trkpt lat="49.02965" lon="-0.37716">
        <ele>132.2</ele>
        <time>2024-07-03T13:48:56Z</time>
      </trkpt>
      <trkpt lat="49.02964" lon="-0.37705">
        <ele>132.4</ele>
        <time>2024-07-03T13:48:57Z</time>
      </trkpt>
      <trkpt lat="49.02962" lon="-0.37696">
        <ele>132.4</ele>
        <time>2024-07-03T13:48:58Z</time>
      </trkpt>
      <trkpt lat="49.02961" lon="-0.37686">
        <ele>132.6</ele>
        <time>2024-07-03T13:48:59Z</time>
      </trkpt>
      <trkpt lat="49.0296" lon="-0.37675">
        <ele>132.8</ele>
        <time>2024-07-03T13:49:00Z</time>
      </trkpt>
      <trkpt lat="49.02959" lon="-0.37667">
        <ele>133</ele>
        <time>2024-07-03T13:49:01Z</time>
      </trkpt>
      <trkpt lat="49.02958" lon="-0.37655">
        <ele>133.2</ele>
        <time>2024-07-03T13:49:02Z</time>
      </trkpt>
      <trkpt lat="49.02957" lon="-0.37644">
        <ele>133.2</ele>
        <time>2024-07-03T13:49:03Z</time>
      </trkpt>
      <trkpt lat="49.02955" lon="-0.37633">
        <ele>133.4</ele>
        <time>2024-07-03T13:49:04Z</time>
      </trkpt>
      <trkpt lat="49.02953" lon="-0.37623">
        <ele>133.4</ele>
        <time>2024-07-03T13:49:05Z</time>
      </trkpt>
      <trkpt lat="49.02952" lon="-0.37615">
        <ele>133.4</ele>
        <time>2024-07-03T13:49:06Z</time>
      </trkpt>
      <trkpt lat="49.02951" lon="-0.37604">
        <ele>133.6</ele>
        <time>2024-07-03T13:49:07Z</time>
      </trkpt>
      <trkpt lat="49.02949" lon="-0.37595">
        <ele>133.6</ele>
        <time>2024-07-03T13:49:08Z</time>
      </trkpt>
      <trkpt lat="49.02948" lon="-0.37584">
        <ele>133.6</ele>
        <time>2024-07-03T13:49:09Z</time>
      </trkpt>
      <trkpt lat="49.02947" lon="-0.37572">
        <ele>133.6</ele>
        <time>2024-07-03T13:49:10Z</time>
      </trkpt>
      <trkpt lat="49.02945" lon="-0.37559">
        <ele>133.6</ele>
        <time>2024-07-03T13:49:11Z</time>
      </trkpt>
      <trkpt lat="49.02944" lon="-0.37546">
        <ele>133.6</ele>
        <time>2024-07-03T13:49:12Z</time>
      </trkpt>
      <trkpt lat="49.02943" lon="-0.37535">
        <ele>133.8</ele>
        <time>2024-07-03T13:49:13Z</time>
      </trkpt>
      <trkpt lat="49.02942" lon="-0.37525">
        <ele>133.8</ele>
        <time>2024-07-03T13:49:14Z</time>
      </trkpt>
      <trkpt lat="49.0294" lon="-0.37512">
        <ele>134</ele>
        <time>2024-07-03T13:49:15Z</time>
      </trkpt>
      <trkpt lat="49.02939" lon="-0.37501">
        <ele>134.2</ele>
        <time>2024-07-03T13:49:16Z</time>
      </trkpt>
      <trkpt lat="49.02938" lon="-0.37491">
        <ele>134.2</ele>
        <time>2024-07-03T13:49:17Z</time>
      </trkpt>
      <trkpt lat="49.02937" lon="-0.37481">
        <ele>134.2</ele>
        <time>2024-07-03T13:49:18Z</time>
      </trkpt>
      <trkpt lat="49.02936" lon="-0.37472">
        <ele>134.4</ele>
        <time>2024-07-03T13:49:19Z</time>
      </trkpt>
      <trkpt lat="49.02935" lon="-0.37461">
        <ele>134.4</ele>
        <time>2024-07-03T13:49:20Z</time>
      </trkpt>
      <trkpt lat="49.02934" lon="-0.37452">
        <ele>134.4</ele>
        <time>2024-07-03T13:49:21Z</time>
      </trkpt>
      <trkpt lat="49.02933" lon="-0.37442">
        <ele>134.4</ele>
        <time>2024-07-03T13:49:22Z</time>
      </trkpt>
      <trkpt lat="49.02932" lon="-0.37426">
        <ele>134.4</ele>
        <time>2024-07-03T13:49:23Z</time>
      </trkpt>
      <trkpt lat="49.02931" lon="-0.37413">
        <ele>134.6</ele>
        <time>2024-07-03T13:49:24Z</time>
      </trkpt>
      <trkpt lat="49.0293" lon="-0.37399">
        <ele>134.6</ele>
        <time>2024-07-03T13:49:25Z</time>
      </trkpt>
      <trkpt lat="49.0293" lon="-0.37387">
        <ele>134.8</ele>
        <time>2024-07-03T13:49:26Z</time>
      </trkpt>
      <trkpt lat="49.02928" lon="-0.37374">
        <ele>134.8</ele>
        <time>2024-07-03T13:49:27Z</time>
      </trkpt>
      <trkpt lat="49.02927" lon="-0.37363">
        <ele>134.6</ele>
        <time>2024-07-03T13:49:28Z</time>
      </trkpt>
      <trkpt lat="49.02926" lon="-0.37353">
        <ele>134.6</ele>
        <time>2024-07-03T13:49:29Z</time>
      </trkpt>
      <trkpt lat="49.02925" lon="-0.37343">
        <ele>134.6</ele>
        <time>2024-07-03T13:49:30Z</time>
      </trkpt>
      <trkpt lat="49.02924" lon="-0.37331">
        <ele>134.6</ele>
        <time>2024-07-03T13:49:31Z</time>
      </trkpt>
      <trkpt lat="49.02922" lon="-0.37319">
        <ele>134.6</ele>
        <time>2024-07-03T13:49:32Z</time>
      </trkpt>
      <trkpt lat="49.0292" lon="-0.37307">
        <ele>134.6</ele>
        <time>2024-07-03T13:49:33Z</time>
      </trkpt>
      <trkpt lat="49.02919" lon="-0.37295">
        <ele>134.4</ele>
        <time>2024-07-03T13:49:34Z</time>
      </trkpt>
      <trkpt lat="49.02916" lon="-0.37284">
        <ele>134.4</ele>
        <time>2024-07-03T13:49:35Z</time>
      </trkpt>
      <trkpt lat="49.02914" lon="-0.37274">
        <ele>134.4</ele>
        <time>2024-07-03T13:49:36Z</time>
      </trkpt>
      <trkpt lat="49.02912" lon="-0.37262">
        <ele>134.4</ele>
        <time>2024-07-03T13:49:37Z</time>
      </trkpt>
      <trkpt lat="49.0291" lon="-0.3725">
        <ele>134.2</ele>
        <time>2024-07-03T13:49:38Z</time>
      </trkpt>
      <trkpt lat="49.02908" lon="-0.37237">
        <ele>134.2</ele>
        <time>2024-07-03T13:49:39Z</time>
      </trkpt>
      <trkpt lat="49.02907" lon="-0.37224">
        <ele>134.2</ele>
        <time>2024-07-03T13:49:40Z</time>
      </trkpt>
      <trkpt lat="49.02906" lon="-0.37208">
        <ele>134</ele>
        <time>2024-07-03T13:49:41Z</time>
      </trkpt>
      <trkpt lat="49.02905" lon="-0.37192">
        <ele>134</ele>
        <time>2024-07-03T13:49:42Z</time>
      </trkpt>
      <trkpt lat="49.02904" lon="-0.37176">
        <ele>133.8</ele>
        <time>2024-07-03T13:49:43Z</time>
      </trkpt>
      <trkpt lat="49.02903" lon="-0.37162">
        <ele>133.6</ele>
        <time>2024-07-03T13:49:44Z</time>
      </trkpt>
      <trkpt lat="49.02902" lon="-0.3715">
        <ele>133.6</ele>
        <time>2024-07-03T13:49:45Z</time>
      </trkpt>
      <trkpt lat="49.02901" lon="-0.37137">
        <ele>133.6</ele>
        <time>2024-07-03T13:49:46Z</time>
      </trkpt>
      <trkpt lat="49.02899" lon="-0.37123">
        <ele>133.4</ele>
        <time>2024-07-03T13:49:47Z</time>
      </trkpt>
      <trkpt lat="49.02898" lon="-0.3711">
        <ele>133.4</ele>
        <time>2024-07-03T13:49:48Z</time>
      </trkpt>
      <trkpt lat="49.02896" lon="-0.37095">
        <ele>133.4</ele>
        <time>2024-07-03T13:49:49Z</time>
      </trkpt>
      <trkpt lat="49.02895" lon="-0.37082">
        <ele>133.6</ele>
        <time>2024-07-03T13:49:50Z</time>
      </trkpt>
      <trkpt lat="49.02895" lon="-0.37069">
        <ele>133.6</ele>
        <time>2024-07-03T13:49:51Z</time>
      </trkpt>
      <trkpt lat="49.02894" lon="-0.37056">
        <ele>133.6</ele>
        <time>2024-07-03T13:49:52Z</time>
      </trkpt>
      <trkpt lat="49.02893" lon="-0.37042">
        <ele>133.6</ele>
        <time>2024-07-03T13:49:53Z</time>
      </trkpt>
      <trkpt lat="49.02892" lon="-0.37029">
        <ele>133.6</ele>
        <time>2024-07-03T13:49:54Z</time>
      </trkpt>
      <trkpt lat="49.02891" lon="-0.37017">
        <ele>133.6</ele>
        <time>2024-07-03T13:49:55Z</time>
      </trkpt>
      <trkpt lat="49.0289" lon="-0.37004">
        <ele>133.6</ele>
        <time>2024-07-03T13:49:56Z</time>
      </trkpt>
      <trkpt lat="49.02889" lon="-0.36991">
        <ele>133.6</ele>
        <time>2024-07-03T13:49:57Z</time>
      </trkpt>
      <trkpt lat="49.02887" lon="-0.36979">
        <ele>133.4</ele>
        <time>2024-07-03T13:49:58Z</time>
      </trkpt>
      <trkpt lat="49.02886" lon="-0.36966">
        <ele>133.6</ele>
        <time>2024-07-03T13:49:59Z</time>
      </trkpt>
      <trkpt lat="49.02885" lon="-0.36953">
        <ele>133.6</ele>
        <time>2024-07-03T13:50:00Z</time>
      </trkpt>
      <trkpt lat="49.02883" lon="-0.36941">
        <ele>133.6</ele>
        <time>2024-07-03T13:50:01Z</time>
      </trkpt>
      <trkpt lat="49.02881" lon="-0.36927">
        <ele>133.8</ele>
        <time>2024-07-03T13:50:02Z</time>
      </trkpt>
      <trkpt lat="49.0288" lon="-0.36914">
        <ele>133.8</ele>
        <time>2024-07-03T13:50:03Z</time>
      </trkpt>
      <trkpt lat="49.02878" lon="-0.36901">
        <ele>133.8</ele>
        <time>2024-07-03T13:50:04Z</time>
      </trkpt>
      <trkpt lat="49.02877" lon="-0.36887">
        <ele>134</ele>
        <time>2024-07-03T13:50:05Z</time>
      </trkpt>
      <trkpt lat="49.02876" lon="-0.36874">
        <ele>134</ele>
        <time>2024-07-03T13:50:06Z</time>
      </trkpt>
      <trkpt lat="49.02875" lon="-0.36861">
        <ele>134</ele>
        <time>2024-07-03T13:50:07Z</time>
      </trkpt>
      <trkpt lat="49.02874" lon="-0.36848">
        <ele>133.8</ele>
        <time>2024-07-03T13:50:08Z</time>
      </trkpt>
      <trkpt lat="49.02872" lon="-0.36836">
        <ele>133.8</ele>
        <time>2024-07-03T13:50:09Z</time>
      </trkpt>
      <trkpt lat="49.0287" lon="-0.36823">
        <ele>133.8</ele>
        <time>2024-07-03T13:50:10Z</time>
      </trkpt>
      <trkpt lat="49.02869" lon="-0.3681">
        <ele>133.8</ele>
        <time>2024-07-03T13:50:11Z</time>
      </trkpt>
      <trkpt lat="49.02867" lon="-0.36797">
        <ele>133.8</ele>
        <time>2024-07-03T13:50:12Z</time>
      </trkpt>
      <trkpt lat="49.02865" lon="-0.36783">
        <ele>133.8</ele>
        <time>2024-07-03T13:50:13Z</time>
      </trkpt>
      <trkpt lat="49.02865" lon="-0.36771">
        <ele>133.6</ele>
        <time>2024-07-03T13:50:14Z</time>
      </trkpt>
      <trkpt lat="49.02866" lon="-0.36758">
        <ele>133.6</ele>
        <time>2024-07-03T13:50:15Z</time>
      </trkpt>
      <trkpt lat="49.02868" lon="-0.36746">
        <ele>133.6</ele>
        <time>2024-07-03T13:50:16Z</time>
      </trkpt>
      <trkpt lat="49.02871" lon="-0.36736">
        <ele>133.6</ele>
        <time>2024-07-03T13:50:17Z</time>
      </trkpt>
      <trkpt lat="49.02874" lon="-0.36726">
        <ele>133.6</ele>
        <time>2024-07-03T13:50:18Z</time>
      </trkpt>
      <trkpt lat="49.0288" lon="-0.36721">
        <ele>133.6</ele>
        <time>2024-07-03T13:50:19Z</time>
      </trkpt>
      <trkpt lat="49.02887" lon="-0.36712">
        <ele>133.8</ele>
        <time>2024-07-03T13:50:20Z</time>
      </trkpt>
      <trkpt lat="49.02896" lon="-0.36699">
        <ele>133.8</ele>
        <time>2024-07-03T13:50:21Z</time>
      </trkpt>
      <trkpt lat="49.02902" lon="-0.36689">
        <ele>133.8</ele>
        <time>2024-07-03T13:50:22Z</time>
      </trkpt>
      <trkpt lat="49.02908" lon="-0.36678">
        <ele>133.8</ele>
        <time>2024-07-03T13:50:23Z</time>
      </trkpt>
      <trkpt lat="49.02914" lon="-0.36668">
        <ele>133.6</ele>
        <time>2024-07-03T13:50:24Z</time>
      </trkpt>
      <trkpt lat="49.02919" lon="-0.36658">
        <ele>133.4</ele>
        <time>2024-07-03T13:50:25Z</time>
      </trkpt>
      <trkpt lat="49.02924" lon="-0.36647">
        <ele>133</ele>
        <time>2024-07-03T13:50:26Z</time>
      </trkpt>
      <trkpt lat="49.02929" lon="-0.36637">
        <ele>132.8</ele>
        <time>2024-07-03T13:50:27Z</time>
      </trkpt>
      <trkpt lat="49.02933" lon="-0.36628">
        <ele>132.4</ele>
        <time>2024-07-03T13:50:28Z</time>
      </trkpt>
      <trkpt lat="49.02937" lon="-0.36614">
        <ele>132.2</ele>
        <time>2024-07-03T13:50:29Z</time>
      </trkpt>
      <trkpt lat="49.02941" lon="-0.36604">
        <ele>131.8</ele>
        <time>2024-07-03T13:50:30Z</time>
      </trkpt>
      <trkpt lat="49.02946" lon="-0.36593">
        <ele>131.4</ele>
        <time>2024-07-03T13:50:31Z</time>
      </trkpt>
      <trkpt lat="49.0295" lon="-0.36581">
        <ele>131.2</ele>
        <time>2024-07-03T13:50:32Z</time>
      </trkpt>
      <trkpt lat="49.02954" lon="-0.36568">
        <ele>131</ele>
        <time>2024-07-03T13:50:33Z</time>
      </trkpt>
      <trkpt lat="49.02958" lon="-0.36556">
        <ele>130.8</ele>
        <time>2024-07-03T13:50:34Z</time>
      </trkpt>
      <trkpt lat="49.02962" lon="-0.36544">
        <ele>130.8</ele>
        <time>2024-07-03T13:50:35Z</time>
      </trkpt>
      <trkpt lat="49.02967" lon="-0.36532">
        <ele>130.6</ele>
        <time>2024-07-03T13:50:36Z</time>
      </trkpt>
      <trkpt lat="49.02972" lon="-0.36521">
        <ele>130.4</ele>
        <time>2024-07-03T13:50:37Z</time>
      </trkpt>
      <trkpt lat="49.02976" lon="-0.3651">
        <ele>130.4</ele>
        <time>2024-07-03T13:50:38Z</time>
      </trkpt>
      <trkpt lat="49.02981" lon="-0.36498">
        <ele>130.4</ele>
        <time>2024-07-03T13:50:39Z</time>
      </trkpt>
      <trkpt lat="49.02985" lon="-0.36487">
        <ele>130.2</ele>
        <time>2024-07-03T13:50:40Z</time>
      </trkpt>
      <trkpt lat="49.02989" lon="-0.36476">
        <ele>130</ele>
        <time>2024-07-03T13:50:41Z</time>
      </trkpt>
      <trkpt lat="49.02993" lon="-0.36466">
        <ele>129.8</ele>
        <time>2024-07-03T13:50:42Z</time>
      </trkpt>
      <trkpt lat="49.02997" lon="-0.36456">
        <ele>129.8</ele>
        <time>2024-07-03T13:50:43Z</time>
      </trkpt>
      <trkpt lat="49.03001" lon="-0.36446">
        <ele>129.6</ele>
        <time>2024-07-03T13:50:44Z</time>
      </trkpt>
      <trkpt lat="49.03006" lon="-0.36437">
        <ele>129.4</ele>
        <time>2024-07-03T13:50:45Z</time>
      </trkpt>
      <trkpt lat="49.03012" lon="-0.36425">
        <ele>129.2</ele>
        <time>2024-07-03T13:50:46Z</time>
      </trkpt>
      <trkpt lat="49.0302" lon="-0.36412">
        <ele>129</ele>
        <time>2024-07-03T13:50:47Z</time>
      </trkpt>
      <trkpt lat="49.03026" lon="-0.36401">
        <ele>128.6</ele>
        <time>2024-07-03T13:50:48Z</time>
      </trkpt>
      <trkpt lat="49.03032" lon="-0.36391">
        <ele>128.2</ele>
        <time>2024-07-03T13:50:49Z</time>
      </trkpt>
      <trkpt lat="49.03039" lon="-0.36381">
        <ele>128</ele>
        <time>2024-07-03T13:50:50Z</time>
      </trkpt>
      <trkpt lat="49.03045" lon="-0.36371">
        <ele>127.8</ele>
        <time>2024-07-03T13:50:51Z</time>
      </trkpt>
      <trkpt lat="49.03052" lon="-0.36359">
        <ele>127.6</ele>
        <time>2024-07-03T13:50:52Z</time>
      </trkpt>
      <trkpt lat="49.03058" lon="-0.36349">
        <ele>127.4</ele>
        <time>2024-07-03T13:50:53Z</time>
      </trkpt>
      <trkpt lat="49.03064" lon="-0.36338">
        <ele>127.2</ele>
        <time>2024-07-03T13:50:54Z</time>
      </trkpt>
      <trkpt lat="49.0307" lon="-0.36328">
        <ele>126.8</ele>
        <time>2024-07-03T13:50:55Z</time>
      </trkpt>
      <trkpt lat="49.03074" lon="-0.36317">
        <ele>126.2</ele>
        <time>2024-07-03T13:50:56Z</time>
      </trkpt>
      <trkpt lat="49.0308" lon="-0.36306">
        <ele>125.8</ele>
        <time>2024-07-03T13:50:57Z</time>
      </trkpt>
      <trkpt lat="49.03085" lon="-0.36296">
        <ele>125.4</ele>
        <time>2024-07-03T13:50:58Z</time>
      </trkpt>
      <trkpt lat="49.0309" lon="-0.36286">
        <ele>125.2</ele>
        <time>2024-07-03T13:50:59Z</time>
      </trkpt>
      <trkpt lat="49.03094" lon="-0.36277">
        <ele>125.2</ele>
        <time>2024-07-03T13:51:00Z</time>
      </trkpt>
      <trkpt lat="49.03098" lon="-0.36267">
        <ele>125.2</ele>
        <time>2024-07-03T13:51:01Z</time>
      </trkpt>
      <trkpt lat="49.031" lon="-0.36258">
        <ele>125.2</ele>
        <time>2024-07-03T13:51:02Z</time>
      </trkpt>
      <trkpt lat="49.03103" lon="-0.36249">
        <ele>125</ele>
        <time>2024-07-03T13:51:03Z</time>
      </trkpt>
      <trkpt lat="49.03112" lon="-0.36236">
        <ele>125</ele>
        <time>2024-07-03T13:51:04Z</time>
      </trkpt>
      <trkpt lat="49.03116" lon="-0.36225">
        <ele>125</ele>
        <time>2024-07-03T13:51:05Z</time>
      </trkpt>
      <trkpt lat="49.03119" lon="-0.36214">
        <ele>124.8</ele>
        <time>2024-07-03T13:51:06Z</time>
      </trkpt>
      <trkpt lat="49.03123" lon="-0.36202">
        <ele>124.2</ele>
        <time>2024-07-03T13:51:07Z</time>
      </trkpt>
      <trkpt lat="49.03126" lon="-0.36193">
        <ele>123.6</ele>
        <time>2024-07-03T13:51:08Z</time>
      </trkpt>
      <trkpt lat="49.03128" lon="-0.36184">
        <ele>123</ele>
        <time>2024-07-03T13:51:09Z</time>
      </trkpt>
      <trkpt lat="49.03135" lon="-0.36167">
        <ele>122.8</ele>
        <time>2024-07-03T13:51:10Z</time>
      </trkpt>
      <trkpt lat="49.03137" lon="-0.36156">
        <ele>122.6</ele>
        <time>2024-07-03T13:51:11Z</time>
      </trkpt>
      <trkpt lat="49.03139" lon="-0.36145">
        <ele>122.8</ele>
        <time>2024-07-03T13:51:12Z</time>
      </trkpt>
      <trkpt lat="49.03143" lon="-0.36132">
        <ele>122.8</ele>
        <time>2024-07-03T13:51:13Z</time>
      </trkpt>
      <trkpt lat="49.03148" lon="-0.3612">
        <ele>123</ele>
        <time>2024-07-03T13:51:14Z</time>
      </trkpt>
      <trkpt lat="49.03153" lon="-0.36108">
        <ele>123</ele>
        <time>2024-07-03T13:51:15Z</time>
      </trkpt>
      <trkpt lat="49.03159" lon="-0.36095">
        <ele>123</ele>
        <time>2024-07-03T13:51:16Z</time>
      </trkpt>
      <trkpt lat="49.03167" lon="-0.36079">
        <ele>122.8</ele>
        <time>2024-07-03T13:51:17Z</time>
      </trkpt>
      <trkpt lat="49.03174" lon="-0.36061">
        <ele>122.6</ele>
        <time>2024-07-03T13:51:18Z</time>
      </trkpt>
      <trkpt lat="49.03179" lon="-0.36046">
        <ele>122</ele>
        <time>2024-07-03T13:51:19Z</time>
      </trkpt>
      <trkpt lat="49.03186" lon="-0.36027">
        <ele>121.6</ele>
        <time>2024-07-03T13:51:20Z</time>
      </trkpt>
      <trkpt lat="49.03192" lon="-0.36008">
        <ele>121</ele>
        <time>2024-07-03T13:51:21Z</time>
      </trkpt>
      <trkpt lat="49.03197" lon="-0.35988">
        <ele>120.6</ele>
        <time>2024-07-03T13:51:22Z</time>
      </trkpt>
      <trkpt lat="49.03201" lon="-0.35969">
        <ele>120.2</ele>
        <time>2024-07-03T13:51:23Z</time>
      </trkpt>
      <trkpt lat="49.03206" lon="-0.35952">
        <ele>119.8</ele>
        <time>2024-07-03T13:51:24Z</time>
      </trkpt>
      <trkpt lat="49.03211" lon="-0.35936">
        <ele>119.6</ele>
        <time>2024-07-03T13:51:25Z</time>
      </trkpt>
      <trkpt lat="49.03219" lon="-0.35916">
        <ele>119</ele>
        <time>2024-07-03T13:51:26Z</time>
      </trkpt>
      <trkpt lat="49.03226" lon="-0.35897">
        <ele>118.2</ele>
        <time>2024-07-03T13:51:27Z</time>
      </trkpt>
      <trkpt lat="49.03233" lon="-0.35879">
        <ele>117</ele>
        <time>2024-07-03T13:51:28Z</time>
      </trkpt>
      <trkpt lat="49.03238" lon="-0.35863">
        <ele>115.8</ele>
        <time>2024-07-03T13:51:29Z</time>
      </trkpt>
      <trkpt lat="49.03244" lon="-0.35846">
        <ele>114.8</ele>
        <time>2024-07-03T13:51:30Z</time>
      </trkpt>
      <trkpt lat="49.03255" lon="-0.35823">
        <ele>113.6</ele>
        <time>2024-07-03T13:51:31Z</time>
      </trkpt>
      <trkpt lat="49.03262" lon="-0.35803">
        <ele>112.6</ele>
        <time>2024-07-03T13:51:32Z</time>
      </trkpt>
      <trkpt lat="49.03271" lon="-0.35782">
        <ele>111.4</ele>
        <time>2024-07-03T13:51:33Z</time>
      </trkpt>
      <trkpt lat="49.03278" lon="-0.35761">
        <ele>110.6</ele>
        <time>2024-07-03T13:51:34Z</time>
      </trkpt>
      <trkpt lat="49.03285" lon="-0.35743">
        <ele>110.2</ele>
        <time>2024-07-03T13:51:35Z</time>
      </trkpt>
      <trkpt lat="49.03294" lon="-0.35723">
        <ele>109.8</ele>
        <time>2024-07-03T13:51:36Z</time>
      </trkpt>
      <trkpt lat="49.03307" lon="-0.35695">
        <ele>109.6</ele>
        <time>2024-07-03T13:51:37Z</time>
      </trkpt>
      <trkpt lat="49.03316" lon="-0.35675">
        <ele>109.8</ele>
        <time>2024-07-03T13:51:38Z</time>
      </trkpt>
      <trkpt lat="49.03323" lon="-0.35657">
        <ele>110</ele>
        <time>2024-07-03T13:51:39Z</time>
      </trkpt>
      <trkpt lat="49.03331" lon="-0.35639">
        <ele>110.2</ele>
        <time>2024-07-03T13:51:40Z</time>
      </trkpt>
      <trkpt lat="49.03336" lon="-0.35624">
        <ele>110.6</ele>
        <time>2024-07-03T13:51:41Z</time>
      </trkpt>
      <trkpt lat="49.03342" lon="-0.35611">
        <ele>110.8</ele>
        <time>2024-07-03T13:51:42Z</time>
      </trkpt>
      <trkpt lat="49.03347" lon="-0.35595">
        <ele>111</ele>
        <time>2024-07-03T13:51:43Z</time>
      </trkpt>
      <trkpt lat="49.03352" lon="-0.35581">
        <ele>111.4</ele>
        <time>2024-07-03T13:51:44Z</time>
      </trkpt>
      <trkpt lat="49.03358" lon="-0.35566">
        <ele>111.6</ele>
        <time>2024-07-03T13:51:45Z</time>
      </trkpt>
      <trkpt lat="49.03363" lon="-0.35552">
        <ele>112</ele>
        <time>2024-07-03T13:51:46Z</time>
      </trkpt>
      <trkpt lat="49.03369" lon="-0.35538">
        <ele>112.6</ele>
        <time>2024-07-03T13:51:47Z</time>
      </trkpt>
      <trkpt lat="49.03374" lon="-0.35524">
        <ele>112.8</ele>
        <time>2024-07-03T13:51:48Z</time>
      </trkpt>
      <trkpt lat="49.03379" lon="-0.35512">
        <ele>113</ele>
        <time>2024-07-03T13:51:49Z</time>
      </trkpt>
      <trkpt lat="49.03383" lon="-0.35499">
        <ele>113.2</ele>
        <time>2024-07-03T13:51:50Z</time>
      </trkpt>
      <trkpt lat="49.03388" lon="-0.35487">
        <ele>113.2</ele>
        <time>2024-07-03T13:51:51Z</time>
      </trkpt>
      <trkpt lat="49.03393" lon="-0.35476">
        <ele>113.2</ele>
        <time>2024-07-03T13:51:52Z</time>
      </trkpt>
      <trkpt lat="49.03397" lon="-0.35463">
        <ele>113.4</ele>
        <time>2024-07-03T13:51:53Z</time>
      </trkpt>
      <trkpt lat="49.03402" lon="-0.3545">
        <ele>113.6</ele>
        <time>2024-07-03T13:51:54Z</time>
      </trkpt>
      <trkpt lat="49.03407" lon="-0.35438">
        <ele>113.8</ele>
        <time>2024-07-03T13:51:55Z</time>
      </trkpt>
      <trkpt lat="49.03411" lon="-0.35425">
        <ele>114.2</ele>
        <time>2024-07-03T13:51:56Z</time>
      </trkpt>
      <trkpt lat="49.03416" lon="-0.35413">
        <ele>114.6</ele>
        <time>2024-07-03T13:51:57Z</time>
      </trkpt>
      <trkpt lat="49.03421" lon="-0.354">
        <ele>114.6</ele>
        <time>2024-07-03T13:51:58Z</time>
      </trkpt>
      <trkpt lat="49.03426" lon="-0.35387">
        <ele>114.8</ele>
        <time>2024-07-03T13:51:59Z</time>
      </trkpt>
      <trkpt lat="49.0343" lon="-0.35374">
        <ele>114.8</ele>
        <time>2024-07-03T13:52:00Z</time>
      </trkpt>
      <trkpt lat="49.03434" lon="-0.35362">
        <ele>114.8</ele>
        <time>2024-07-03T13:52:01Z</time>
      </trkpt>
      <trkpt lat="49.03437" lon="-0.35351">
        <ele>114.8</ele>
        <time>2024-07-03T13:52:02Z</time>
      </trkpt>
      <trkpt lat="49.03441" lon="-0.35339">
        <ele>114.8</ele>
        <time>2024-07-03T13:52:03Z</time>
      </trkpt>
      <trkpt lat="49.03444" lon="-0.35327">
        <ele>114.8</ele>
        <time>2024-07-03T13:52:04Z</time>
      </trkpt>
      <trkpt lat="49.03448" lon="-0.35316">
        <ele>114.8</ele>
        <time>2024-07-03T13:52:05Z</time>
      </trkpt>
      <trkpt lat="49.03452" lon="-0.35305">
        <ele>114.8</ele>
        <time>2024-07-03T13:52:06Z</time>
      </trkpt>
      <trkpt lat="49.03457" lon="-0.35292">
        <ele>115</ele>
        <time>2024-07-03T13:52:07Z</time>
      </trkpt>
      <trkpt lat="49.03461" lon="-0.3528">
        <ele>114.8</ele>
        <time>2024-07-03T13:52:08Z</time>
      </trkpt>
      <trkpt lat="49.03466" lon="-0.35268">
        <ele>114.4</ele>
        <time>2024-07-03T13:52:09Z</time>
      </trkpt>
      <trkpt lat="49.03471" lon="-0.35254">
        <ele>114.2</ele>
        <time>2024-07-03T13:52:10Z</time>
      </trkpt>
      <trkpt lat="49.03475" lon="-0.35241">
        <ele>114</ele>
        <time>2024-07-03T13:52:11Z</time>
      </trkpt>
      <trkpt lat="49.03478" lon="-0.3523">
        <ele>113.8</ele>
        <time>2024-07-03T13:52:12Z</time>
      </trkpt>
      <trkpt lat="49.03484" lon="-0.35216">
        <ele>113.6</ele>
        <time>2024-07-03T13:52:13Z</time>
      </trkpt>
      <trkpt lat="49.03487" lon="-0.35206">
        <ele>113.2</ele>
        <time>2024-07-03T13:52:14Z</time>
      </trkpt>
      <trkpt lat="49.03494" lon="-0.35192">
        <ele>112.8</ele>
        <time>2024-07-03T13:52:15Z</time>
      </trkpt>
      <trkpt lat="49.035" lon="-0.35179">
        <ele>112.6</ele>
        <time>2024-07-03T13:52:16Z</time>
      </trkpt>
      <trkpt lat="49.03504" lon="-0.35166">
        <ele>112.6</ele>
        <time>2024-07-03T13:52:17Z</time>
      </trkpt>
      <trkpt lat="49.03508" lon="-0.35154">
        <ele>112.4</ele>
        <time>2024-07-03T13:52:18Z</time>
      </trkpt>
      <trkpt lat="49.03513" lon="-0.35139">
        <ele>112.4</ele>
        <time>2024-07-03T13:52:19Z</time>
      </trkpt>
      <trkpt lat="49.03518" lon="-0.35126">
        <ele>112.2</ele>
        <time>2024-07-03T13:52:20Z</time>
      </trkpt>
      <trkpt lat="49.03524" lon="-0.35112">
        <ele>111.6</ele>
        <time>2024-07-03T13:52:21Z</time>
      </trkpt>
      <trkpt lat="49.03529" lon="-0.35099">
        <ele>111</ele>
        <time>2024-07-03T13:52:22Z</time>
      </trkpt>
      <trkpt lat="49.03537" lon="-0.35084">
        <ele>110.6</ele>
        <time>2024-07-03T13:52:23Z</time>
      </trkpt>
      <trkpt lat="49.03543" lon="-0.35071">
        <ele>110.4</ele>
        <time>2024-07-03T13:52:24Z</time>
      </trkpt>
      <trkpt lat="49.03548" lon="-0.35058">
        <ele>110.2</ele>
        <time>2024-07-03T13:52:25Z</time>
      </trkpt>
      <trkpt lat="49.03552" lon="-0.35045">
        <ele>110.4</ele>
        <time>2024-07-03T13:52:26Z</time>
      </trkpt>
      <trkpt lat="49.03557" lon="-0.35035">
        <ele>110.4</ele>
        <time>2024-07-03T13:52:27Z</time>
      </trkpt>
      <trkpt lat="49.03562" lon="-0.3502">
        <ele>110.4</ele>
        <time>2024-07-03T13:52:28Z</time>
      </trkpt>
      <trkpt lat="49.03566" lon="-0.35008">
        <ele>110.4</ele>
        <time>2024-07-03T13:52:29Z</time>
      </trkpt>
      <trkpt lat="49.03571" lon="-0.34997">
        <ele>110.4</ele>
        <time>2024-07-03T13:52:30Z</time>
      </trkpt>
      <trkpt lat="49.03575" lon="-0.34983">
        <ele>110.4</ele>
        <time>2024-07-03T13:52:31Z</time>
      </trkpt>
      <trkpt lat="49.03581" lon="-0.34971">
        <ele>110</ele>
        <time>2024-07-03T13:52:32Z</time>
      </trkpt>
      <trkpt lat="49.03585" lon="-0.34959">
        <ele>109.8</ele>
        <time>2024-07-03T13:52:33Z</time>
      </trkpt>
      <trkpt lat="49.03589" lon="-0.34946">
        <ele>109.4</ele>
        <time>2024-07-03T13:52:34Z</time>
      </trkpt>
      <trkpt lat="49.03594" lon="-0.34931">
        <ele>109.2</ele>
        <time>2024-07-03T13:52:35Z</time>
      </trkpt>
      <trkpt lat="49.03599" lon="-0.34919">
        <ele>109</ele>
        <time>2024-07-03T13:52:36Z</time>
      </trkpt>
      <trkpt lat="49.03604" lon="-0.34907">
        <ele>109</ele>
        <time>2024-07-03T13:52:37Z</time>
      </trkpt>
      <trkpt lat="49.03608" lon="-0.34894">
        <ele>108.8</ele>
        <time>2024-07-03T13:52:38Z</time>
      </trkpt>
      <trkpt lat="49.03616" lon="-0.3488">
        <ele>108.6</ele>
        <time>2024-07-03T13:52:39Z</time>
      </trkpt>
      <trkpt lat="49.03622" lon="-0.34863">
        <ele>108.2</ele>
        <time>2024-07-03T13:52:40Z</time>
      </trkpt>
      <trkpt lat="49.03628" lon="-0.34846">
        <ele>107.6</ele>
        <time>2024-07-03T13:52:41Z</time>
      </trkpt>
      <trkpt lat="49.03634" lon="-0.34832">
        <ele>107</ele>
        <time>2024-07-03T13:52:42Z</time>
      </trkpt>
      <trkpt lat="49.0364" lon="-0.34817">
        <ele>106.6</ele>
        <time>2024-07-03T13:52:43Z</time>
      </trkpt>
      <trkpt lat="49.03644" lon="-0.34805">
        <ele>106.2</ele>
        <time>2024-07-03T13:52:44Z</time>
      </trkpt>
      <trkpt lat="49.03649" lon="-0.3479">
        <ele>106</ele>
        <time>2024-07-03T13:52:45Z</time>
      </trkpt>
      <trkpt lat="49.03653" lon="-0.34776">
        <ele>105.8</ele>
        <time>2024-07-03T13:52:46Z</time>
      </trkpt>
      <trkpt lat="49.03658" lon="-0.34759">
        <ele>105.6</ele>
        <time>2024-07-03T13:52:47Z</time>
      </trkpt>
      <trkpt lat="49.03666" lon="-0.34741">
        <ele>105.2</ele>
        <time>2024-07-03T13:52:48Z</time>
      </trkpt>
      <trkpt lat="49.03672" lon="-0.34727">
        <ele>104.8</ele>
        <time>2024-07-03T13:52:49Z</time>
      </trkpt>
      <trkpt lat="49.03678" lon="-0.34712">
        <ele>104.2</ele>
        <time>2024-07-03T13:52:50Z</time>
      </trkpt>
      <trkpt lat="49.03683" lon="-0.34695">
        <ele>103.6</ele>
        <time>2024-07-03T13:52:51Z</time>
      </trkpt>
      <trkpt lat="49.03689" lon="-0.34677">
        <ele>103</ele>
        <time>2024-07-03T13:52:52Z</time>
      </trkpt>
      <trkpt lat="49.03696" lon="-0.34661">
        <ele>102.4</ele>
        <time>2024-07-03T13:52:53Z</time>
      </trkpt>
      <trkpt lat="49.03702" lon="-0.34646">
        <ele>101.8</ele>
        <time>2024-07-03T13:52:54Z</time>
      </trkpt>
      <trkpt lat="49.03707" lon="-0.34632">
        <ele>101</ele>
        <time>2024-07-03T13:52:55Z</time>
      </trkpt>
      <trkpt lat="49.03711" lon="-0.34617">
        <ele>100.4</ele>
        <time>2024-07-03T13:52:56Z</time>
      </trkpt>
      <trkpt lat="49.03716" lon="-0.346">
        <ele>99.6</ele>
        <time>2024-07-03T13:52:57Z</time>
      </trkpt>
      <trkpt lat="49.03721" lon="-0.34582">
        <ele>98.8</ele>
        <time>2024-07-03T13:52:58Z</time>
      </trkpt>
      <trkpt lat="49.03728" lon="-0.34566">
        <ele>97.6</ele>
        <time>2024-07-03T13:52:59Z</time>
      </trkpt>
      <trkpt lat="49.03734" lon="-0.34549">
        <ele>96.8</ele>
        <time>2024-07-03T13:53:00Z</time>
      </trkpt>
      <trkpt lat="49.03741" lon="-0.3453">
        <ele>96.2</ele>
        <time>2024-07-03T13:53:01Z</time>
      </trkpt>
      <trkpt lat="49.03749" lon="-0.34512">
        <ele>95.4</ele>
        <time>2024-07-03T13:53:02Z</time>
      </trkpt>
      <trkpt lat="49.03761" lon="-0.34487">
        <ele>94.2</ele>
        <time>2024-07-03T13:53:03Z</time>
      </trkpt>
      <trkpt lat="49.03768" lon="-0.34468">
        <ele>93.2</ele>
        <time>2024-07-03T13:53:04Z</time>
      </trkpt>
      <trkpt lat="49.03775" lon="-0.34446">
        <ele>92.2</ele>
        <time>2024-07-03T13:53:05Z</time>
      </trkpt>
      <trkpt lat="49.0378" lon="-0.34426">
        <ele>91.6</ele>
        <time>2024-07-03T13:53:06Z</time>
      </trkpt>
      <trkpt lat="49.03786" lon="-0.34408">
        <ele>91.4</ele>
        <time>2024-07-03T13:53:07Z</time>
      </trkpt>
      <trkpt lat="49.03792" lon="-0.34392">
        <ele>91.2</ele>
        <time>2024-07-03T13:53:08Z</time>
      </trkpt>
      <trkpt lat="49.03801" lon="-0.34374">
        <ele>91.6</ele>
        <time>2024-07-03T13:53:09Z</time>
      </trkpt>
      <trkpt lat="49.03808" lon="-0.34357">
        <ele>92.4</ele>
        <time>2024-07-03T13:53:10Z</time>
      </trkpt>
      <trkpt lat="49.03813" lon="-0.34342">
        <ele>93.4</ele>
        <time>2024-07-03T13:53:11Z</time>
      </trkpt>
      <trkpt lat="49.03818" lon="-0.34329">
        <ele>94.2</ele>
        <time>2024-07-03T13:53:12Z</time>
      </trkpt>
      <trkpt lat="49.03822" lon="-0.34317">
        <ele>95</ele>
        <time>2024-07-03T13:53:13Z</time>
      </trkpt>
      <trkpt lat="49.03827" lon="-0.34302">
        <ele>95.8</ele>
        <time>2024-07-03T13:53:14Z</time>
      </trkpt>
      <trkpt lat="49.03831" lon="-0.34288">
        <ele>96.8</ele>
        <time>2024-07-03T13:53:15Z</time>
      </trkpt>
      <trkpt lat="49.03836" lon="-0.34275">
        <ele>97.8</ele>
        <time>2024-07-03T13:53:16Z</time>
      </trkpt>
      <trkpt lat="49.03841" lon="-0.34263">
        <ele>98.8</ele>
        <time>2024-07-03T13:53:17Z</time>
      </trkpt>
      <trkpt lat="49.03847" lon="-0.34248">
        <ele>99.8</ele>
        <time>2024-07-03T13:53:18Z</time>
      </trkpt>
      <trkpt lat="49.03854" lon="-0.34234">
        <ele>100.4</ele>
        <time>2024-07-03T13:53:19Z</time>
      </trkpt>
      <trkpt lat="49.03858" lon="-0.34224">
        <ele>101.2</ele>
        <time>2024-07-03T13:53:20Z</time>
      </trkpt>
      <trkpt lat="49.03862" lon="-0.34212">
        <ele>101.6</ele>
        <time>2024-07-03T13:53:21Z</time>
      </trkpt>
      <trkpt lat="49.03867" lon="-0.34201">
        <ele>101.8</ele>
        <time>2024-07-03T13:53:22Z</time>
      </trkpt>
      <trkpt lat="49.03873" lon="-0.34189">
        <ele>102</ele>
        <time>2024-07-03T13:53:23Z</time>
      </trkpt>
      <trkpt lat="49.03878" lon="-0.34176">
        <ele>102</ele>
        <time>2024-07-03T13:53:24Z</time>
      </trkpt>
      <trkpt lat="49.03884" lon="-0.34162">
        <ele>102.2</ele>
        <time>2024-07-03T13:53:25Z</time>
      </trkpt>
      <trkpt lat="49.03889" lon="-0.34149">
        <ele>102.2</ele>
        <time>2024-07-03T13:53:26Z</time>
      </trkpt>
      <trkpt lat="49.03892" lon="-0.34137">
        <ele>102.2</ele>
        <time>2024-07-03T13:53:27Z</time>
      </trkpt>
      <trkpt lat="49.03896" lon="-0.34126">
        <ele>102</ele>
        <time>2024-07-03T13:53:28Z</time>
      </trkpt>
      <trkpt lat="49.039" lon="-0.34111">
        <ele>102</ele>
        <time>2024-07-03T13:53:29Z</time>
      </trkpt>
      <trkpt lat="49.03905" lon="-0.34099">
        <ele>101.6</ele>
        <time>2024-07-03T13:53:30Z</time>
      </trkpt>
      <trkpt lat="49.03909" lon="-0.34087">
        <ele>101.2</ele>
        <time>2024-07-03T13:53:31Z</time>
      </trkpt>
      <trkpt lat="49.03915" lon="-0.34074">
        <ele>100.8</ele>
        <time>2024-07-03T13:53:32Z</time>
      </trkpt>
      <trkpt lat="49.03921" lon="-0.34061">
        <ele>100.6</ele>
        <time>2024-07-03T13:53:33Z</time>
      </trkpt>
      <trkpt lat="49.03927" lon="-0.3405">
        <ele>100.6</ele>
        <time>2024-07-03T13:53:34Z</time>
      </trkpt>
      <trkpt lat="49.03931" lon="-0.34039">
        <ele>100.6</ele>
        <time>2024-07-03T13:53:35Z</time>
      </trkpt>
      <trkpt lat="49.03934" lon="-0.34026">
        <ele>100.4</ele>
        <time>2024-07-03T13:53:36Z</time>
      </trkpt>
      <trkpt lat="49.03938" lon="-0.34013">
        <ele>100.4</ele>
        <time>2024-07-03T13:53:37Z</time>
      </trkpt>
      <trkpt lat="49.03942" lon="-0.34">
        <ele>100.2</ele>
        <time>2024-07-03T13:53:38Z</time>
      </trkpt>
      <trkpt lat="49.03948" lon="-0.33985">
        <ele>100.2</ele>
        <time>2024-07-03T13:53:39Z</time>
      </trkpt>
      <trkpt lat="49.03953" lon="-0.3397">
        <ele>100.2</ele>
        <time>2024-07-03T13:53:40Z</time>
      </trkpt>
      <trkpt lat="49.03959" lon="-0.33956">
        <ele>100.2</ele>
        <time>2024-07-03T13:53:41Z</time>
      </trkpt>
      <trkpt lat="49.03964" lon="-0.33944">
        <ele>100</ele>
        <time>2024-07-03T13:53:42Z</time>
      </trkpt>
      <trkpt lat="49.03969" lon="-0.33932">
        <ele>100</ele>
        <time>2024-07-03T13:53:43Z</time>
      </trkpt>
      <trkpt lat="49.03974" lon="-0.33919">
        <ele>99.8</ele>
        <time>2024-07-03T13:53:44Z</time>
      </trkpt>
      <trkpt lat="49.0398" lon="-0.33906">
        <ele>99.4</ele>
        <time>2024-07-03T13:53:45Z</time>
      </trkpt>
      <trkpt lat="49.03985" lon="-0.3389">
        <ele>99</ele>
        <time>2024-07-03T13:53:46Z</time>
      </trkpt>
      <trkpt lat="49.03992" lon="-0.33875">
        <ele>98.8</ele>
        <time>2024-07-03T13:53:47Z</time>
      </trkpt>
      <trkpt lat="49.03997" lon="-0.33862">
        <ele>98.2</ele>
        <time>2024-07-03T13:53:48Z</time>
      </trkpt>
      <trkpt lat="49.04001" lon="-0.3384">
        <ele>97.8</ele>
        <time>2024-07-03T13:53:49Z</time>
      </trkpt>
      <trkpt lat="49.04011" lon="-0.33817">
        <ele>97.2</ele>
        <time>2024-07-03T13:53:50Z</time>
      </trkpt>
      <trkpt lat="49.04023" lon="-0.3379">
        <ele>96.6</ele>
        <time>2024-07-03T13:53:51Z</time>
      </trkpt>
      <trkpt lat="49.0403" lon="-0.3377">
        <ele>96.4</ele>
        <time>2024-07-03T13:53:52Z</time>
      </trkpt>
      <trkpt lat="49.04038" lon="-0.33753">
        <ele>96.2</ele>
        <time>2024-07-03T13:53:53Z</time>
      </trkpt>
      <trkpt lat="49.04044" lon="-0.33739">
        <ele>96</ele>
        <time>2024-07-03T13:53:54Z</time>
      </trkpt>
      <trkpt lat="49.04049" lon="-0.33722">
        <ele>96</ele>
        <time>2024-07-03T13:53:55Z</time>
      </trkpt>
      <trkpt lat="49.04053" lon="-0.33705">
        <ele>95.8</ele>
        <time>2024-07-03T13:53:56Z</time>
      </trkpt>
      <trkpt lat="49.04058" lon="-0.33692">
        <ele>95.6</ele>
        <time>2024-07-03T13:53:57Z</time>
      </trkpt>
      <trkpt lat="49.04065" lon="-0.33678">
        <ele>95.6</ele>
        <time>2024-07-03T13:53:58Z</time>
      </trkpt>
      <trkpt lat="49.04072" lon="-0.33668">
        <ele>95.4</ele>
        <time>2024-07-03T13:53:59Z</time>
      </trkpt>
      <trkpt lat="49.0408" lon="-0.3366">
        <ele>95.4</ele>
        <time>2024-07-03T13:54:00Z</time>
      </trkpt>
      <trkpt lat="49.04088" lon="-0.33653">
        <ele>95.4</ele>
        <time>2024-07-03T13:54:01Z</time>
      </trkpt>
      <trkpt lat="49.04095" lon="-0.33647">
        <ele>95.2</ele>
        <time>2024-07-03T13:54:02Z</time>
      </trkpt>
      <trkpt lat="49.04103" lon="-0.33642">
        <ele>95.2</ele>
        <time>2024-07-03T13:54:03Z</time>
      </trkpt>
      <trkpt lat="49.0411" lon="-0.33637">
        <ele>95.2</ele>
        <time>2024-07-03T13:54:04Z</time>
      </trkpt>
      <trkpt lat="49.04117" lon="-0.33632">
        <ele>95</ele>
        <time>2024-07-03T13:54:05Z</time>
      </trkpt>
      <trkpt lat="49.04124" lon="-0.33626">
        <ele>94.8</ele>
        <time>2024-07-03T13:54:06Z</time>
      </trkpt>
      <trkpt lat="49.0413" lon="-0.33619">
        <ele>94.6</ele>
        <time>2024-07-03T13:54:07Z</time>
      </trkpt>
      <trkpt lat="49.04136" lon="-0.33613">
        <ele>94.6</ele>
        <time>2024-07-03T13:54:08Z</time>
      </trkpt>
      <trkpt lat="49.04142" lon="-0.33607">
        <ele>94.4</ele>
        <time>2024-07-03T13:54:09Z</time>
      </trkpt>
      <trkpt lat="49.04148" lon="-0.336">
        <ele>94.4</ele>
        <time>2024-07-03T13:54:10Z</time>
      </trkpt>
      <trkpt lat="49.04154" lon="-0.33595">
        <ele>94.2</ele>
        <time>2024-07-03T13:54:11Z</time>
      </trkpt>
      <trkpt lat="49.04159" lon="-0.3359">
        <ele>94.2</ele>
        <time>2024-07-03T13:54:12Z</time>
      </trkpt>
      <trkpt lat="49.04169" lon="-0.33581">
        <ele>94.2</ele>
        <time>2024-07-03T13:54:13Z</time>
      </trkpt>
      <trkpt lat="49.04175" lon="-0.33572">
        <ele>94</ele>
        <time>2024-07-03T13:54:14Z</time>
      </trkpt>
      <trkpt lat="49.04184" lon="-0.33564">
        <ele>93.8</ele>
        <time>2024-07-03T13:54:15Z</time>
      </trkpt>
      <trkpt lat="49.04196" lon="-0.33544">
        <ele>93.8</ele>
        <time>2024-07-03T13:54:16Z</time>
      </trkpt>
      <trkpt lat="49.04201" lon="-0.33529">
        <ele>93.4</ele>
        <time>2024-07-03T13:54:17Z</time>
      </trkpt>
      <trkpt lat="49.04209" lon="-0.33512">
        <ele>93</ele>
        <time>2024-07-03T13:54:18Z</time>
      </trkpt>
      <trkpt lat="49.04212" lon="-0.33496">
        <ele>92.4</ele>
        <time>2024-07-03T13:54:19Z</time>
      </trkpt>
      <trkpt lat="49.04214" lon="-0.33482">
        <ele>92</ele>
        <time>2024-07-03T13:54:20Z</time>
      </trkpt>
      <trkpt lat="49.04215" lon="-0.33468">
        <ele>91.6</ele>
        <time>2024-07-03T13:54:21Z</time>
      </trkpt>
      <trkpt lat="49.04215" lon="-0.33451">
        <ele>91.4</ele>
        <time>2024-07-03T13:54:22Z</time>
      </trkpt>
      <trkpt lat="49.04217" lon="-0.33434">
        <ele>91.2</ele>
        <time>2024-07-03T13:54:23Z</time>
      </trkpt>
      <trkpt lat="49.04216" lon="-0.33411">
        <ele>91</ele>
        <time>2024-07-03T13:54:24Z</time>
      </trkpt>
      <trkpt lat="49.04218" lon="-0.33394">
        <ele>91</ele>
        <time>2024-07-03T13:54:25Z</time>
      </trkpt>
      <trkpt lat="49.0422" lon="-0.33379">
        <ele>90.8</ele>
        <time>2024-07-03T13:54:26Z</time>
      </trkpt>
      <trkpt lat="49.04222" lon="-0.33362">
        <ele>90.8</ele>
        <time>2024-07-03T13:54:27Z</time>
      </trkpt>
      <trkpt lat="49.04224" lon="-0.33346">
        <ele>90.6</ele>
        <time>2024-07-03T13:54:28Z</time>
      </trkpt>
      <trkpt lat="49.04228" lon="-0.33331">
        <ele>90.4</ele>
        <time>2024-07-03T13:54:29Z</time>
      </trkpt>
      <trkpt lat="49.04229" lon="-0.33315">
        <ele>90</ele>
        <time>2024-07-03T13:54:30Z</time>
      </trkpt>
      <trkpt lat="49.0423" lon="-0.333">
        <ele>89.4</ele>
        <time>2024-07-03T13:54:31Z</time>
      </trkpt>
      <trkpt lat="49.04231" lon="-0.33285">
        <ele>88.6</ele>
        <time>2024-07-03T13:54:32Z</time>
      </trkpt>
      <trkpt lat="49.0423" lon="-0.33269">
        <ele>88.2</ele>
        <time>2024-07-03T13:54:33Z</time>
      </trkpt>
      <trkpt lat="49.04229" lon="-0.33254">
        <ele>88</ele>
        <time>2024-07-03T13:54:34Z</time>
      </trkpt>
      <trkpt lat="49.04228" lon="-0.3324">
        <ele>87.8</ele>
        <time>2024-07-03T13:54:35Z</time>
      </trkpt>
      <trkpt lat="49.04226" lon="-0.33225">
        <ele>87.4</ele>
        <time>2024-07-03T13:54:36Z</time>
      </trkpt>
      <trkpt lat="49.04224" lon="-0.33211">
        <ele>87.2</ele>
        <time>2024-07-03T13:54:37Z</time>
      </trkpt>
      <trkpt lat="49.04222" lon="-0.33198">
        <ele>87</ele>
        <time>2024-07-03T13:54:38Z</time>
      </trkpt>
      <trkpt lat="49.04221" lon="-0.33186">
        <ele>86.6</ele>
        <time>2024-07-03T13:54:39Z</time>
      </trkpt>
      <trkpt lat="49.04222" lon="-0.33173">
        <ele>86.4</ele>
        <time>2024-07-03T13:54:40Z</time>
      </trkpt>
      <trkpt lat="49.04225" lon="-0.3316">
        <ele>85.8</ele>
        <time>2024-07-03T13:54:41Z</time>
      </trkpt>
      <trkpt lat="49.04229" lon="-0.33147">
        <ele>85.4</ele>
        <time>2024-07-03T13:54:42Z</time>
      </trkpt>
      <trkpt lat="49.04234" lon="-0.33135">
        <ele>84.6</ele>
        <time>2024-07-03T13:54:43Z</time>
      </trkpt>
      <trkpt lat="49.0424" lon="-0.33123">
        <ele>83.6</ele>
        <time>2024-07-03T13:54:44Z</time>
      </trkpt>
      <trkpt lat="49.04246" lon="-0.3311">
        <ele>82.4</ele>
        <time>2024-07-03T13:54:45Z</time>
      </trkpt>
      <trkpt lat="49.04253" lon="-0.33097">
        <ele>80.8</ele>
        <time>2024-07-03T13:54:46Z</time>
      </trkpt>
      <trkpt lat="49.04259" lon="-0.33082">
        <ele>79.4</ele>
        <time>2024-07-03T13:54:47Z</time>
      </trkpt>
      <trkpt lat="49.04266" lon="-0.33067">
        <ele>78</ele>
        <time>2024-07-03T13:54:48Z</time>
      </trkpt>
      <trkpt lat="49.04273" lon="-0.33052">
        <ele>76.8</ele>
        <time>2024-07-03T13:54:49Z</time>
      </trkpt>
      <trkpt lat="49.04281" lon="-0.33038">
        <ele>75.8</ele>
        <time>2024-07-03T13:54:50Z</time>
      </trkpt>
      <trkpt lat="49.04289" lon="-0.33023">
        <ele>74.6</ele>
        <time>2024-07-03T13:54:51Z</time>
      </trkpt>
      <trkpt lat="49.04297" lon="-0.3301">
        <ele>73.4</ele>
        <time>2024-07-03T13:54:52Z</time>
      </trkpt>
      <trkpt lat="49.04306" lon="-0.32998">
        <ele>72.4</ele>
        <time>2024-07-03T13:54:53Z</time>
      </trkpt>
      <trkpt lat="49.04315" lon="-0.32988">
        <ele>71.4</ele>
        <time>2024-07-03T13:54:54Z</time>
      </trkpt>
      <trkpt lat="49.04324" lon="-0.32978">
        <ele>70.4</ele>
        <time>2024-07-03T13:54:55Z</time>
      </trkpt>
      <trkpt lat="49.04331" lon="-0.32969">
        <ele>69</ele>
        <time>2024-07-03T13:54:56Z</time>
      </trkpt>
      <trkpt lat="49.04338" lon="-0.32958">
        <ele>67.8</ele>
        <time>2024-07-03T13:54:57Z</time>
      </trkpt>
      <trkpt lat="49.04344" lon="-0.32946">
        <ele>66.8</ele>
        <time>2024-07-03T13:54:58Z</time>
      </trkpt>
      <trkpt lat="49.04349" lon="-0.32932">
        <ele>65.8</ele>
        <time>2024-07-03T13:54:59Z</time>
      </trkpt>
      <trkpt lat="49.04352" lon="-0.32917">
        <ele>64.6</ele>
        <time>2024-07-03T13:55:00Z</time>
      </trkpt>
      <trkpt lat="49.04356" lon="-0.32902">
        <ele>63.6</ele>
        <time>2024-07-03T13:55:01Z</time>
      </trkpt>
      <trkpt lat="49.0436" lon="-0.32886">
        <ele>62.6</ele>
        <time>2024-07-03T13:55:02Z</time>
      </trkpt>
      <trkpt lat="49.04363" lon="-0.32872">
        <ele>61.4</ele>
        <time>2024-07-03T13:55:03Z</time>
      </trkpt>
      <trkpt lat="49.04366" lon="-0.32859">
        <ele>60.4</ele>
        <time>2024-07-03T13:55:04Z</time>
      </trkpt>
      <trkpt lat="49.04369" lon="-0.32848">
        <ele>60</ele>
        <time>2024-07-03T13:55:05Z</time>
      </trkpt>
      <trkpt lat="49.04373" lon="-0.32837">
        <ele>59.4</ele>
        <time>2024-07-03T13:55:06Z</time>
      </trkpt>
      <trkpt lat="49.04379" lon="-0.32828">
        <ele>59</ele>
        <time>2024-07-03T13:55:07Z</time>
      </trkpt>
      <trkpt lat="49.04387" lon="-0.32818">
        <ele>58.4</ele>
        <time>2024-07-03T13:55:08Z</time>
      </trkpt>
      <trkpt lat="49.04396" lon="-0.32812">
        <ele>57.4</ele>
        <time>2024-07-03T13:55:09Z</time>
      </trkpt>
      <trkpt lat="49.04404" lon="-0.32806">
        <ele>56.4</ele>
        <time>2024-07-03T13:55:10Z</time>
      </trkpt>
      <trkpt lat="49.04412" lon="-0.32801">
        <ele>55.6</ele>
        <time>2024-07-03T13:55:11Z</time>
      </trkpt>
      <trkpt lat="49.0442" lon="-0.32799">
        <ele>54.6</ele>
        <time>2024-07-03T13:55:12Z</time>
      </trkpt>
      <trkpt lat="49.04426" lon="-0.32795">
        <ele>54</ele>
        <time>2024-07-03T13:55:13Z</time>
      </trkpt>
      <trkpt lat="49.04432" lon="-0.3279">
        <ele>53.4</ele>
        <time>2024-07-03T13:55:14Z</time>
      </trkpt>
      <trkpt lat="49.04436" lon="-0.32785">
        <ele>53.2</ele>
        <time>2024-07-03T13:55:15Z</time>
      </trkpt>
      <trkpt lat="49.0444" lon="-0.32781">
        <ele>53.2</ele>
        <time>2024-07-03T13:55:16Z</time>
      </trkpt>
      <trkpt lat="49.04444" lon="-0.32778">
        <ele>53.2</ele>
        <time>2024-07-03T13:55:17Z</time>
      </trkpt>
      <trkpt lat="49.04449" lon="-0.32776">
        <ele>53.2</ele>
        <time>2024-07-03T13:55:18Z</time>
      </trkpt>
      <trkpt lat="49.04454" lon="-0.32775">
        <ele>53.4</ele>
        <time>2024-07-03T13:55:19Z</time>
      </trkpt>
      <trkpt lat="49.0446" lon="-0.32774">
        <ele>53.6</ele>
        <time>2024-07-03T13:55:20Z</time>
      </trkpt>
      <trkpt lat="49.04466" lon="-0.32774">
        <ele>53.6</ele>
        <time>2024-07-03T13:55:21Z</time>
      </trkpt>
      <trkpt lat="49.04472" lon="-0.32773">
        <ele>53.6</ele>
        <time>2024-07-03T13:55:22Z</time>
      </trkpt>
      <trkpt lat="49.04478" lon="-0.32772">
        <ele>53.6</ele>
        <time>2024-07-03T13:55:23Z</time>
      </trkpt>
      <trkpt lat="49.04484" lon="-0.32772">
        <ele>53.6</ele>
        <time>2024-07-03T13:55:24Z</time>
      </trkpt>
      <trkpt lat="49.0449" lon="-0.3277">
        <ele>53.6</ele>
        <time>2024-07-03T13:55:25Z</time>
      </trkpt>
      <trkpt lat="49.04496" lon="-0.32768">
        <ele>53.6</ele>
        <time>2024-07-03T13:55:26Z</time>
      </trkpt>
      <trkpt lat="49.04502" lon="-0.32763">
        <ele>53.6</ele>
        <time>2024-07-03T13:55:27Z</time>
      </trkpt>
      <trkpt lat="49.04508" lon="-0.32758">
        <ele>53.4</ele>
        <time>2024-07-03T13:55:28Z</time>
      </trkpt>
      <trkpt lat="49.04514" lon="-0.32752">
        <ele>53.2</ele>
        <time>2024-07-03T13:55:29Z</time>
      </trkpt>
      <trkpt lat="49.0452" lon="-0.32747">
        <ele>53</ele>
        <time>2024-07-03T13:55:30Z</time>
      </trkpt>
      <trkpt lat="49.04527" lon="-0.32741">
        <ele>52.8</ele>
        <time>2024-07-03T13:55:31Z</time>
      </trkpt>
      <trkpt lat="49.04534" lon="-0.32737">
        <ele>52.4</ele>
        <time>2024-07-03T13:55:32Z</time>
      </trkpt>
      <trkpt lat="49.04541" lon="-0.32732">
        <ele>52.4</ele>
        <time>2024-07-03T13:55:33Z</time>
      </trkpt>
      <trkpt lat="49.04548" lon="-0.32728">
        <ele>52.2</ele>
        <time>2024-07-03T13:55:34Z</time>
      </trkpt>
      <trkpt lat="49.04554" lon="-0.32726">
        <ele>52</ele>
        <time>2024-07-03T13:55:35Z</time>
      </trkpt>
      <trkpt lat="49.04561" lon="-0.32722">
        <ele>52</ele>
        <time>2024-07-03T13:55:36Z</time>
      </trkpt>
      <trkpt lat="49.04567" lon="-0.32719">
        <ele>51.8</ele>
        <time>2024-07-03T13:55:37Z</time>
      </trkpt>
      <trkpt lat="49.04573" lon="-0.32716">
        <ele>51.8</ele>
        <time>2024-07-03T13:55:38Z</time>
      </trkpt>
      <trkpt lat="49.04579" lon="-0.32712">
        <ele>52</ele>
        <time>2024-07-03T13:55:39Z</time>
      </trkpt>
      <trkpt lat="49.04584" lon="-0.32708">
        <ele>52</ele>
        <time>2024-07-03T13:55:40Z</time>
      </trkpt>
      <trkpt lat="49.0459" lon="-0.32703">
        <ele>52</ele>
        <time>2024-07-03T13:55:41Z</time>
      </trkpt>
      <trkpt lat="49.04596" lon="-0.32696">
        <ele>52</ele>
        <time>2024-07-03T13:55:42Z</time>
      </trkpt>
      <trkpt lat="49.04602" lon="-0.32685">
        <ele>52.2</ele>
        <time>2024-07-03T13:55:43Z</time>
      </trkpt>
      <trkpt lat="49.04606" lon="-0.32674">
        <ele>52.2</ele>
        <time>2024-07-03T13:55:44Z</time>
      </trkpt>
      <trkpt lat="49.04609" lon="-0.32663">
        <ele>52.2</ele>
        <time>2024-07-03T13:55:45Z</time>
      </trkpt>
      <trkpt lat="49.04612" lon="-0.32652">
        <ele>52.4</ele>
        <time>2024-07-03T13:55:46Z</time>
      </trkpt>
      <trkpt lat="49.04616" lon="-0.32643">
        <ele>52.4</ele>
        <time>2024-07-03T13:55:47Z</time>
      </trkpt>
      <trkpt lat="49.0462" lon="-0.32634">
        <ele>52.6</ele>
        <time>2024-07-03T13:55:48Z</time>
      </trkpt>
      <trkpt lat="49.04624" lon="-0.32628">
        <ele>52.8</ele>
        <time>2024-07-03T13:55:49Z</time>
      </trkpt>
      <trkpt lat="49.0463" lon="-0.32622">
        <ele>53</ele>
        <time>2024-07-03T13:55:50Z</time>
      </trkpt>
      <trkpt lat="49.04635" lon="-0.32616">
        <ele>53.2</ele>
        <time>2024-07-03T13:55:51Z</time>
      </trkpt>
      <trkpt lat="49.04641" lon="-0.3261">
        <ele>53.4</ele>
        <time>2024-07-03T13:55:52Z</time>
      </trkpt>
      <trkpt lat="49.04647" lon="-0.32604">
        <ele>53.6</ele>
        <time>2024-07-03T13:55:53Z</time>
      </trkpt>
      <trkpt lat="49.04653" lon="-0.32599">
        <ele>53.6</ele>
        <time>2024-07-03T13:55:54Z</time>
      </trkpt>
      <trkpt lat="49.04659" lon="-0.32593">
        <ele>54</ele>
        <time>2024-07-03T13:55:55Z</time>
      </trkpt>
      <trkpt lat="49.04664" lon="-0.32588">
        <ele>54.4</ele>
        <time>2024-07-03T13:55:56Z</time>
      </trkpt>
      <trkpt lat="49.0467" lon="-0.32584">
        <ele>55</ele>
        <time>2024-07-03T13:55:57Z</time>
      </trkpt>
      <trkpt lat="49.04675" lon="-0.3258">
        <ele>55.4</ele>
        <time>2024-07-03T13:55:58Z</time>
      </trkpt>
      <trkpt lat="49.04681" lon="-0.32575">
        <ele>55.8</ele>
        <time>2024-07-03T13:55:59Z</time>
      </trkpt>
      <trkpt lat="49.04687" lon="-0.32571">
        <ele>56.2</ele>
        <time>2024-07-03T13:56:00Z</time>
      </trkpt>
      <trkpt lat="49.04693" lon="-0.32566">
        <ele>56.2</ele>
        <time>2024-07-03T13:56:01Z</time>
      </trkpt>
      <trkpt lat="49.04698" lon="-0.32562">
        <ele>56.4</ele>
        <time>2024-07-03T13:56:02Z</time>
      </trkpt>
      <trkpt lat="49.04704" lon="-0.32558">
        <ele>56.4</ele>
        <time>2024-07-03T13:56:03Z</time>
      </trkpt>
      <trkpt lat="49.0471" lon="-0.32553">
        <ele>56.4</ele>
        <time>2024-07-03T13:56:04Z</time>
      </trkpt>
      <trkpt lat="49.04715" lon="-0.32548">
        <ele>56.6</ele>
        <time>2024-07-03T13:56:05Z</time>
      </trkpt>
      <trkpt lat="49.04721" lon="-0.32543">
        <ele>56.6</ele>
        <time>2024-07-03T13:56:06Z</time>
      </trkpt>
      <trkpt lat="49.04727" lon="-0.32538">
        <ele>56.6</ele>
        <time>2024-07-03T13:56:07Z</time>
      </trkpt>
      <trkpt lat="49.04733" lon="-0.32534">
        <ele>56.8</ele>
        <time>2024-07-03T13:56:08Z</time>
      </trkpt>
      <trkpt lat="49.04739" lon="-0.32529">
        <ele>56.8</ele>
        <time>2024-07-03T13:56:09Z</time>
      </trkpt>
      <trkpt lat="49.04745" lon="-0.32523">
        <ele>57</ele>
        <time>2024-07-03T13:56:10Z</time>
      </trkpt>
      <trkpt lat="49.0475" lon="-0.32516">
        <ele>57</ele>
        <time>2024-07-03T13:56:11Z</time>
      </trkpt>
      <trkpt lat="49.04755" lon="-0.3251">
        <ele>57.2</ele>
        <time>2024-07-03T13:56:12Z</time>
      </trkpt>
      <trkpt lat="49.04759" lon="-0.32503">
        <ele>57.2</ele>
        <time>2024-07-03T13:56:13Z</time>
      </trkpt>
      <trkpt lat="49.04764" lon="-0.32494">
        <ele>57.2</ele>
        <time>2024-07-03T13:56:14Z</time>
      </trkpt>
      <trkpt lat="49.04768" lon="-0.32485">
        <ele>57.4</ele>
        <time>2024-07-03T13:56:15Z</time>
      </trkpt>
      <trkpt lat="49.04772" lon="-0.32476">
        <ele>57.6</ele>
        <time>2024-07-03T13:56:16Z</time>
      </trkpt>
      <trkpt lat="49.04775" lon="-0.32468">
        <ele>57.6</ele>
        <time>2024-07-03T13:56:17Z</time>
      </trkpt>
      <trkpt lat="49.04778" lon="-0.3246">
        <ele>57.8</ele>
        <time>2024-07-03T13:56:18Z</time>
      </trkpt>
      <trkpt lat="49.04781" lon="-0.32451">
        <ele>57.8</ele>
        <time>2024-07-03T13:56:19Z</time>
      </trkpt>
      <trkpt lat="49.04784" lon="-0.32441">
        <ele>58</ele>
        <time>2024-07-03T13:56:20Z</time>
      </trkpt>
      <trkpt lat="49.04787" lon="-0.32432">
        <ele>58</ele>
        <time>2024-07-03T13:56:21Z</time>
      </trkpt>
      <trkpt lat="49.04789" lon="-0.32423">
        <ele>58</ele>
        <time>2024-07-03T13:56:22Z</time>
      </trkpt>
      <trkpt lat="49.04792" lon="-0.32413">
        <ele>58</ele>
        <time>2024-07-03T13:56:23Z</time>
      </trkpt>
      <trkpt lat="49.04794" lon="-0.32403">
        <ele>58</ele>
        <time>2024-07-03T13:56:24Z</time>
      </trkpt>
      <trkpt lat="49.04797" lon="-0.32394">
        <ele>58</ele>
        <time>2024-07-03T13:56:25Z</time>
      </trkpt>
      <trkpt lat="49.048" lon="-0.32385">
        <ele>58</ele>
        <time>2024-07-03T13:56:26Z</time>
      </trkpt>
      <trkpt lat="49.04803" lon="-0.32376">
        <ele>58</ele>
        <time>2024-07-03T13:56:27Z</time>
      </trkpt>
      <trkpt lat="49.04807" lon="-0.32368">
        <ele>58</ele>
        <time>2024-07-03T13:56:28Z</time>
      </trkpt>
      <trkpt lat="49.04811" lon="-0.3236">
        <ele>58.2</ele>
        <time>2024-07-03T13:56:29Z</time>
      </trkpt>
      <trkpt lat="49.04815" lon="-0.32352">
        <ele>58.4</ele>
        <time>2024-07-03T13:56:30Z</time>
      </trkpt>
      <trkpt lat="49.04819" lon="-0.32345">
        <ele>58.6</ele>
        <time>2024-07-03T13:56:31Z</time>
      </trkpt>
      <trkpt lat="49.04823" lon="-0.32338">
        <ele>58.8</ele>
        <time>2024-07-03T13:56:32Z</time>
      </trkpt>
      <trkpt lat="49.04827" lon="-0.32332">
        <ele>59</ele>
        <time>2024-07-03T13:56:33Z</time>
      </trkpt>
      <trkpt lat="49.04831" lon="-0.32326">
        <ele>59.4</ele>
        <time>2024-07-03T13:56:34Z</time>
      </trkpt>
      <trkpt lat="49.04835" lon="-0.32319">
        <ele>59.6</ele>
        <time>2024-07-03T13:56:35Z</time>
      </trkpt>
      <trkpt lat="49.04839" lon="-0.32313">
        <ele>60</ele>
        <time>2024-07-03T13:56:36Z</time>
      </trkpt>
      <trkpt lat="49.04844" lon="-0.32306">
        <ele>60</ele>
        <time>2024-07-03T13:56:37Z</time>
      </trkpt>
      <trkpt lat="49.04848" lon="-0.323">
        <ele>60.2</ele>
        <time>2024-07-03T13:56:38Z</time>
      </trkpt>
      <trkpt lat="49.04853" lon="-0.32294">
        <ele>60.4</ele>
        <time>2024-07-03T13:56:39Z</time>
      </trkpt>
      <trkpt lat="49.04858" lon="-0.32288">
        <ele>60.4</ele>
        <time>2024-07-03T13:56:40Z</time>
      </trkpt>
      <trkpt lat="49.04863" lon="-0.32282">
        <ele>60.4</ele>
        <time>2024-07-03T13:56:41Z</time>
      </trkpt>
      <trkpt lat="49.04868" lon="-0.32274">
        <ele>60.4</ele>
        <time>2024-07-03T13:56:42Z</time>
      </trkpt>
      <trkpt lat="49.04873" lon="-0.32266">
        <ele>60.6</ele>
        <time>2024-07-03T13:56:43Z</time>
      </trkpt>
      <trkpt lat="49.04878" lon="-0.32259">
        <ele>60.6</ele>
        <time>2024-07-03T13:56:44Z</time>
      </trkpt>
      <trkpt lat="49.04883" lon="-0.32251">
        <ele>60.8</ele>
        <time>2024-07-03T13:56:45Z</time>
      </trkpt>
      <trkpt lat="49.04889" lon="-0.32244">
        <ele>61</ele>
        <time>2024-07-03T13:56:46Z</time>
      </trkpt>
      <trkpt lat="49.04894" lon="-0.32237">
        <ele>61</ele>
        <time>2024-07-03T13:56:47Z</time>
      </trkpt>
      <trkpt lat="49.049" lon="-0.32231">
        <ele>61.2</ele>
        <time>2024-07-03T13:56:48Z</time>
      </trkpt>
      <trkpt lat="49.04905" lon="-0.32224">
        <ele>61.4</ele>
        <time>2024-07-03T13:56:49Z</time>
      </trkpt>
      <trkpt lat="49.04911" lon="-0.3222">
        <ele>61.6</ele>
        <time>2024-07-03T13:56:50Z</time>
      </trkpt>
      <trkpt lat="49.04916" lon="-0.32213">
        <ele>61.6</ele>
        <time>2024-07-03T13:56:51Z</time>
      </trkpt>
      <trkpt lat="49.04921" lon="-0.32206">
        <ele>61.6</ele>
        <time>2024-07-03T13:56:52Z</time>
      </trkpt>
      <trkpt lat="49.04927" lon="-0.322">
        <ele>61.6</ele>
        <time>2024-07-03T13:56:53Z</time>
      </trkpt>
      <trkpt lat="49.04932" lon="-0.32194">
        <ele>61.8</ele>
        <time>2024-07-03T13:56:54Z</time>
      </trkpt>
      <trkpt lat="49.04937" lon="-0.32186">
        <ele>62</ele>
        <time>2024-07-03T13:56:55Z</time>
      </trkpt>
      <trkpt lat="49.04942" lon="-0.32178">
        <ele>62</ele>
        <time>2024-07-03T13:56:56Z</time>
      </trkpt>
      <trkpt lat="49.04946" lon="-0.3217">
        <ele>62.2</ele>
        <time>2024-07-03T13:56:57Z</time>
      </trkpt>
      <trkpt lat="49.04949" lon="-0.32162">
        <ele>62.4</ele>
        <time>2024-07-03T13:56:58Z</time>
      </trkpt>
      <trkpt lat="49.04953" lon="-0.32154">
        <ele>62.4</ele>
        <time>2024-07-03T13:56:59Z</time>
      </trkpt>
      <trkpt lat="49.04956" lon="-0.32146">
        <ele>62.6</ele>
        <time>2024-07-03T13:57:00Z</time>
      </trkpt>
      <trkpt lat="49.04958" lon="-0.32136">
        <ele>62.6</ele>
        <time>2024-07-03T13:57:01Z</time>
      </trkpt>
      <trkpt lat="49.04961" lon="-0.32127">
        <ele>62.8</ele>
        <time>2024-07-03T13:57:02Z</time>
      </trkpt>
      <trkpt lat="49.04963" lon="-0.32117">
        <ele>63</ele>
        <time>2024-07-03T13:57:03Z</time>
      </trkpt>
      <trkpt lat="49.04966" lon="-0.32108">
        <ele>63.2</ele>
        <time>2024-07-03T13:57:04Z</time>
      </trkpt>
      <trkpt lat="49.04968" lon="-0.32099">
        <ele>63.4</ele>
        <time>2024-07-03T13:57:05Z</time>
      </trkpt>
      <trkpt lat="49.0497" lon="-0.3209">
        <ele>63.6</ele>
        <time>2024-07-03T13:57:06Z</time>
      </trkpt>
      <trkpt lat="49.04972" lon="-0.32081">
        <ele>63.8</ele>
        <time>2024-07-03T13:57:07Z</time>
      </trkpt>
      <trkpt lat="49.04973" lon="-0.3207">
        <ele>64</ele>
        <time>2024-07-03T13:57:08Z</time>
      </trkpt>
      <trkpt lat="49.04975" lon="-0.32061">
        <ele>64</ele>
        <time>2024-07-03T13:57:09Z</time>
      </trkpt>
      <trkpt lat="49.04978" lon="-0.32052">
        <ele>64.2</ele>
        <time>2024-07-03T13:57:10Z</time>
      </trkpt>
      <trkpt lat="49.0498" lon="-0.32043">
        <ele>64.4</ele>
        <time>2024-07-03T13:57:11Z</time>
      </trkpt>
      <trkpt lat="49.04983" lon="-0.32034">
        <ele>64.8</ele>
        <time>2024-07-03T13:57:12Z</time>
      </trkpt>
      <trkpt lat="49.04986" lon="-0.32025">
        <ele>64.8</ele>
        <time>2024-07-03T13:57:13Z</time>
      </trkpt>
      <trkpt lat="49.04989" lon="-0.32016">
        <ele>65.2</ele>
        <time>2024-07-03T13:57:14Z</time>
      </trkpt>
      <trkpt lat="49.04992" lon="-0.32007">
        <ele>65.2</ele>
        <time>2024-07-03T13:57:15Z</time>
      </trkpt>
      <trkpt lat="49.04996" lon="-0.31999">
        <ele>65.6</ele>
        <time>2024-07-03T13:57:16Z</time>
      </trkpt>
      <trkpt lat="49.05001" lon="-0.31991">
        <ele>65.8</ele>
        <time>2024-07-03T13:57:17Z</time>
      </trkpt>
      <trkpt lat="49.05005" lon="-0.31982">
        <ele>65.8</ele>
        <time>2024-07-03T13:57:18Z</time>
      </trkpt>
      <trkpt lat="49.0501" lon="-0.31973">
        <ele>66</ele>
        <time>2024-07-03T13:57:19Z</time>
      </trkpt>
      <trkpt lat="49.05014" lon="-0.31965">
        <ele>66</ele>
        <time>2024-07-03T13:57:20Z</time>
      </trkpt>
      <trkpt lat="49.05019" lon="-0.31956">
        <ele>66.2</ele>
        <time>2024-07-03T13:57:21Z</time>
      </trkpt>
      <trkpt lat="49.05023" lon="-0.31948">
        <ele>66.4</ele>
        <time>2024-07-03T13:57:22Z</time>
      </trkpt>
      <trkpt lat="49.05028" lon="-0.3194">
        <ele>66.4</ele>
        <time>2024-07-03T13:57:23Z</time>
      </trkpt>
      <trkpt lat="49.05033" lon="-0.31932">
        <ele>66.6</ele>
        <time>2024-07-03T13:57:24Z</time>
      </trkpt>
      <trkpt lat="49.05037" lon="-0.31924">
        <ele>66.6</ele>
        <time>2024-07-03T13:57:25Z</time>
      </trkpt>
      <trkpt lat="49.05042" lon="-0.31916">
        <ele>66.8</ele>
        <time>2024-07-03T13:57:26Z</time>
      </trkpt>
      <trkpt lat="49.05046" lon="-0.31909">
        <ele>66.8</ele>
        <time>2024-07-03T13:57:27Z</time>
      </trkpt>
      <trkpt lat="49.0505" lon="-0.31902">
        <ele>66.8</ele>
        <time>2024-07-03T13:57:28Z</time>
      </trkpt>
      <trkpt lat="49.05054" lon="-0.31895">
        <ele>67</ele>
        <time>2024-07-03T13:57:29Z</time>
      </trkpt>
      <trkpt lat="49.05059" lon="-0.31889">
        <ele>67.2</ele>
        <time>2024-07-03T13:57:30Z</time>
      </trkpt>
      <trkpt lat="49.05063" lon="-0.31882">
        <ele>67.4</ele>
        <time>2024-07-03T13:57:31Z</time>
      </trkpt>
      <trkpt lat="49.05067" lon="-0.31875">
        <ele>67.6</ele>
        <time>2024-07-03T13:57:32Z</time>
      </trkpt>
      <trkpt lat="49.05071" lon="-0.31867">
        <ele>68</ele>
        <time>2024-07-03T13:57:33Z</time>
      </trkpt>
      <trkpt lat="49.05075" lon="-0.3186">
        <ele>68.4</ele>
        <time>2024-07-03T13:57:34Z</time>
      </trkpt>
      <trkpt lat="49.05079" lon="-0.31855">
        <ele>69</ele>
        <time>2024-07-03T13:57:35Z</time>
      </trkpt>
      <trkpt lat="49.05084" lon="-0.31849">
        <ele>69.4</ele>
        <time>2024-07-03T13:57:36Z</time>
      </trkpt>
      <trkpt lat="49.05088" lon="-0.31844">
        <ele>69.8</ele>
        <time>2024-07-03T13:57:37Z</time>
      </trkpt>
      <trkpt lat="49.05093" lon="-0.31839">
        <ele>70</ele>
        <time>2024-07-03T13:57:38Z</time>
      </trkpt>
      <trkpt lat="49.05097" lon="-0.31836">
        <ele>70.4</ele>
        <time>2024-07-03T13:57:39Z</time>
      </trkpt>
      <trkpt lat="49.05102" lon="-0.31833">
        <ele>70.6</ele>
        <time>2024-07-03T13:57:40Z</time>
      </trkpt>
      <trkpt lat="49.05107" lon="-0.3183">
        <ele>71</ele>
        <time>2024-07-03T13:57:41Z</time>
      </trkpt>
      <trkpt lat="49.05111" lon="-0.31827">
        <ele>71.2</ele>
        <time>2024-07-03T13:57:42Z</time>
      </trkpt>
      <trkpt lat="49.05116" lon="-0.31825">
        <ele>71.6</ele>
        <time>2024-07-03T13:57:43Z</time>
      </trkpt>
      <trkpt lat="49.0512" lon="-0.31824">
        <ele>72</ele>
        <time>2024-07-03T13:57:44Z</time>
      </trkpt>
      <trkpt lat="49.05125" lon="-0.31822">
        <ele>72.4</ele>
        <time>2024-07-03T13:57:45Z</time>
      </trkpt>
      <trkpt lat="49.0513" lon="-0.31821">
        <ele>72.8</ele>
        <time>2024-07-03T13:57:46Z</time>
      </trkpt>
      <trkpt lat="49.05135" lon="-0.31821">
        <ele>73.2</ele>
        <time>2024-07-03T13:57:47Z</time>
      </trkpt>
      <trkpt lat="49.05139" lon="-0.3182">
        <ele>73.8</ele>
        <time>2024-07-03T13:57:48Z</time>
      </trkpt>
      <trkpt lat="49.05143" lon="-0.31819">
        <ele>74.2</ele>
        <time>2024-07-03T13:57:49Z</time>
      </trkpt>
      <trkpt lat="49.05148" lon="-0.31818">
        <ele>74.4</ele>
        <time>2024-07-03T13:57:50Z</time>
      </trkpt>
      <trkpt lat="49.05152" lon="-0.31818">
        <ele>74.6</ele>
        <time>2024-07-03T13:57:51Z</time>
      </trkpt>
      <trkpt lat="49.05156" lon="-0.31819">
        <ele>74.8</ele>
        <time>2024-07-03T13:57:52Z</time>
      </trkpt>
      <trkpt lat="49.05159" lon="-0.31819">
        <ele>75</ele>
        <time>2024-07-03T13:57:53Z</time>
      </trkpt>
      <trkpt lat="49.05162" lon="-0.3182">
        <ele>75.2</ele>
        <time>2024-07-03T13:57:54Z</time>
      </trkpt>
      <trkpt lat="49.05166" lon="-0.31819">
        <ele>75.6</ele>
        <time>2024-07-03T13:57:55Z</time>
      </trkpt>
      <trkpt lat="49.0517" lon="-0.31818">
        <ele>76</ele>
        <time>2024-07-03T13:57:56Z</time>
      </trkpt>
      <trkpt lat="49.05175" lon="-0.31818">
        <ele>76.6</ele>
        <time>2024-07-03T13:57:57Z</time>
      </trkpt>
      <trkpt lat="49.05179" lon="-0.31816">
        <ele>77.2</ele>
        <time>2024-07-03T13:57:58Z</time>
      </trkpt>
      <trkpt lat="49.05184" lon="-0.31816">
        <ele>77.8</ele>
        <time>2024-07-03T13:57:59Z</time>
      </trkpt>
      <trkpt lat="49.05188" lon="-0.31815">
        <ele>78</ele>
        <time>2024-07-03T13:58:00Z</time>
      </trkpt>
      <trkpt lat="49.05193" lon="-0.31814">
        <ele>78.4</ele>
        <time>2024-07-03T13:58:01Z</time>
      </trkpt>
      <trkpt lat="49.05198" lon="-0.31814">
        <ele>78.6</ele>
        <time>2024-07-03T13:58:02Z</time>
      </trkpt>
      <trkpt lat="49.05203" lon="-0.31812">
        <ele>79</ele>
        <time>2024-07-03T13:58:03Z</time>
      </trkpt>
      <trkpt lat="49.05207" lon="-0.31811">
        <ele>79.6</ele>
        <time>2024-07-03T13:58:04Z</time>
      </trkpt>
      <trkpt lat="49.05212" lon="-0.31809">
        <ele>80</ele>
        <time>2024-07-03T13:58:05Z</time>
      </trkpt>
      <trkpt lat="49.05217" lon="-0.31808">
        <ele>80.2</ele>
        <time>2024-07-03T13:58:06Z</time>
      </trkpt>
      <trkpt lat="49.05222" lon="-0.31808">
        <ele>80.6</ele>
        <time>2024-07-03T13:58:07Z</time>
      </trkpt>
      <trkpt lat="49.05227" lon="-0.31807">
        <ele>81</ele>
        <time>2024-07-03T13:58:08Z</time>
      </trkpt>
      <trkpt lat="49.05232" lon="-0.31805">
        <ele>81.4</ele>
        <time>2024-07-03T13:58:09Z</time>
      </trkpt>
      <trkpt lat="49.05235" lon="-0.31805">
        <ele>81.6</ele>
        <time>2024-07-03T13:58:10Z</time>
      </trkpt>
      <trkpt lat="49.0524" lon="-0.31803">
        <ele>81.8</ele>
        <time>2024-07-03T13:58:11Z</time>
      </trkpt>
      <trkpt lat="49.05244" lon="-0.31802">
        <ele>82.2</ele>
        <time>2024-07-03T13:58:12Z</time>
      </trkpt>
      <trkpt lat="49.05249" lon="-0.318">
        <ele>82.6</ele>
        <time>2024-07-03T13:58:13Z</time>
      </trkpt>
      <trkpt lat="49.05254" lon="-0.31799">
        <ele>82.8</ele>
        <time>2024-07-03T13:58:14Z</time>
      </trkpt>
      <trkpt lat="49.05258" lon="-0.31798">
        <ele>83.2</ele>
        <time>2024-07-03T13:58:15Z</time>
      </trkpt>
      <trkpt lat="49.05263" lon="-0.31797">
        <ele>83.4</ele>
        <time>2024-07-03T13:58:16Z</time>
      </trkpt>
      <trkpt lat="49.05269" lon="-0.31796">
        <ele>83.6</ele>
        <time>2024-07-03T13:58:17Z</time>
      </trkpt>
      <trkpt lat="49.05274" lon="-0.31793">
        <ele>83.8</ele>
        <time>2024-07-03T13:58:18Z</time>
      </trkpt>
      <trkpt lat="49.05278" lon="-0.31791">
        <ele>84.2</ele>
        <time>2024-07-03T13:58:19Z</time>
      </trkpt>
      <trkpt lat="49.05283" lon="-0.31788">
        <ele>84.4</ele>
        <time>2024-07-03T13:58:20Z</time>
      </trkpt>
      <trkpt lat="49.05288" lon="-0.31786">
        <ele>84.6</ele>
        <time>2024-07-03T13:58:21Z</time>
      </trkpt>
      <trkpt lat="49.05293" lon="-0.31784">
        <ele>84.8</ele>
        <time>2024-07-03T13:58:22Z</time>
      </trkpt>
      <trkpt lat="49.05298" lon="-0.31781">
        <ele>85</ele>
        <time>2024-07-03T13:58:23Z</time>
      </trkpt>
      <trkpt lat="49.05304" lon="-0.31778">
        <ele>85</ele>
        <time>2024-07-03T13:58:24Z</time>
      </trkpt>
      <trkpt lat="49.05309" lon="-0.31775">
        <ele>85.2</ele>
        <time>2024-07-03T13:58:25Z</time>
      </trkpt>
      <trkpt lat="49.05313" lon="-0.31772">
        <ele>85.4</ele>
        <time>2024-07-03T13:58:26Z</time>
      </trkpt>
      <trkpt lat="49.05319" lon="-0.31769">
        <ele>85.6</ele>
        <time>2024-07-03T13:58:27Z</time>
      </trkpt>
      <trkpt lat="49.05324" lon="-0.31766">
        <ele>85.8</ele>
        <time>2024-07-03T13:58:28Z</time>
      </trkpt>
      <trkpt lat="49.05329" lon="-0.31763">
        <ele>86.2</ele>
        <time>2024-07-03T13:58:29Z</time>
      </trkpt>
      <trkpt lat="49.05334" lon="-0.31759">
        <ele>86.8</ele>
        <time>2024-07-03T13:58:30Z</time>
      </trkpt>
      <trkpt lat="49.05338" lon="-0.31755">
        <ele>87.2</ele>
        <time>2024-07-03T13:58:31Z</time>
      </trkpt>
      <trkpt lat="49.05343" lon="-0.31751">
        <ele>87.6</ele>
        <time>2024-07-03T13:58:32Z</time>
      </trkpt>
      <trkpt lat="49.05348" lon="-0.31746">
        <ele>87.8</ele>
        <time>2024-07-03T13:58:33Z</time>
      </trkpt>
      <trkpt lat="49.05353" lon="-0.31741">
        <ele>88</ele>
        <time>2024-07-03T13:58:34Z</time>
      </trkpt>
      <trkpt lat="49.05358" lon="-0.31737">
        <ele>88</ele>
        <time>2024-07-03T13:58:35Z</time>
      </trkpt>
      <trkpt lat="49.05363" lon="-0.31733">
        <ele>88.2</ele>
        <time>2024-07-03T13:58:36Z</time>
      </trkpt>
      <trkpt lat="49.05369" lon="-0.31728">
        <ele>88.4</ele>
        <time>2024-07-03T13:58:37Z</time>
      </trkpt>
      <trkpt lat="49.05374" lon="-0.31723">
        <ele>88.8</ele>
        <time>2024-07-03T13:58:38Z</time>
      </trkpt>
      <trkpt lat="49.0538" lon="-0.31718">
        <ele>89</ele>
        <time>2024-07-03T13:58:39Z</time>
      </trkpt>
      <trkpt lat="49.05386" lon="-0.31714">
        <ele>89</ele>
        <time>2024-07-03T13:58:40Z</time>
      </trkpt>
      <trkpt lat="49.05392" lon="-0.31709">
        <ele>89.2</ele>
        <time>2024-07-03T13:58:41Z</time>
      </trkpt>
      <trkpt lat="49.05398" lon="-0.31704">
        <ele>89.2</ele>
        <time>2024-07-03T13:58:42Z</time>
      </trkpt>
      <trkpt lat="49.05403" lon="-0.317">
        <ele>89.2</ele>
        <time>2024-07-03T13:58:43Z</time>
      </trkpt>
      <trkpt lat="49.05409" lon="-0.31694">
        <ele>89.2</ele>
        <time>2024-07-03T13:58:44Z</time>
      </trkpt>
      <trkpt lat="49.05415" lon="-0.3169">
        <ele>89.2</ele>
        <time>2024-07-03T13:58:45Z</time>
      </trkpt>
      <trkpt lat="49.0542" lon="-0.31685">
        <ele>89.2</ele>
        <time>2024-07-03T13:58:46Z</time>
      </trkpt>
      <trkpt lat="49.05426" lon="-0.31679">
        <ele>89.2</ele>
        <time>2024-07-03T13:58:47Z</time>
      </trkpt>
      <trkpt lat="49.05431" lon="-0.31674">
        <ele>89.4</ele>
        <time>2024-07-03T13:58:48Z</time>
      </trkpt>
      <trkpt lat="49.05437" lon="-0.31668">
        <ele>89.6</ele>
        <time>2024-07-03T13:58:49Z</time>
      </trkpt>
      <trkpt lat="49.05442" lon="-0.31662">
        <ele>89.6</ele>
        <time>2024-07-03T13:58:50Z</time>
      </trkpt>
      <trkpt lat="49.05447" lon="-0.31655">
        <ele>89.8</ele>
        <time>2024-07-03T13:58:51Z</time>
      </trkpt>
      <trkpt lat="49.05453" lon="-0.31649">
        <ele>89.8</ele>
        <time>2024-07-03T13:58:52Z</time>
      </trkpt>
      <trkpt lat="49.05458" lon="-0.31643">
        <ele>90</ele>
        <time>2024-07-03T13:58:53Z</time>
      </trkpt>
      <trkpt lat="49.05464" lon="-0.31636">
        <ele>90.2</ele>
        <time>2024-07-03T13:58:54Z</time>
      </trkpt>
      <trkpt lat="49.05469" lon="-0.3163">
        <ele>90.4</ele>
        <time>2024-07-03T13:58:55Z</time>
      </trkpt>
      <trkpt lat="49.05475" lon="-0.31624">
        <ele>90.4</ele>
        <time>2024-07-03T13:58:56Z</time>
      </trkpt>
      <trkpt lat="49.0548" lon="-0.31617">
        <ele>90.4</ele>
        <time>2024-07-03T13:58:57Z</time>
      </trkpt>
      <trkpt lat="49.05486" lon="-0.3161">
        <ele>90.4</ele>
        <time>2024-07-03T13:58:58Z</time>
      </trkpt>
      <trkpt lat="49.05491" lon="-0.31604">
        <ele>90.4</ele>
        <time>2024-07-03T13:58:59Z</time>
      </trkpt>
      <trkpt lat="49.05496" lon="-0.31597">
        <ele>90.4</ele>
        <time>2024-07-03T13:59:00Z</time>
      </trkpt>
      <trkpt lat="49.05502" lon="-0.3159">
        <ele>90.2</ele>
        <time>2024-07-03T13:59:01Z</time>
      </trkpt>
      <trkpt lat="49.05507" lon="-0.31584">
        <ele>90.4</ele>
        <time>2024-07-03T13:59:02Z</time>
      </trkpt>
      <trkpt lat="49.05513" lon="-0.31577">
        <ele>90.6</ele>
        <time>2024-07-03T13:59:03Z</time>
      </trkpt>
      <trkpt lat="49.05518" lon="-0.3157">
        <ele>90.8</ele>
        <time>2024-07-03T13:59:04Z</time>
      </trkpt>
      <trkpt lat="49.05524" lon="-0.31564">
        <ele>91.2</ele>
        <time>2024-07-03T13:59:05Z</time>
      </trkpt>
      <trkpt lat="49.05529" lon="-0.31557">
        <ele>91.6</ele>
        <time>2024-07-03T13:59:06Z</time>
      </trkpt>
      <trkpt lat="49.05534" lon="-0.31551">
        <ele>92.2</ele>
        <time>2024-07-03T13:59:07Z</time>
      </trkpt>
      <trkpt lat="49.05539" lon="-0.31545">
        <ele>92.4</ele>
        <time>2024-07-03T13:59:08Z</time>
      </trkpt>
      <trkpt lat="49.05544" lon="-0.31539">
        <ele>92.6</ele>
        <time>2024-07-03T13:59:09Z</time>
      </trkpt>
      <trkpt lat="49.0555" lon="-0.31533">
        <ele>92.8</ele>
        <time>2024-07-03T13:59:10Z</time>
      </trkpt>
      <trkpt lat="49.05555" lon="-0.31526">
        <ele>92.8</ele>
        <time>2024-07-03T13:59:11Z</time>
      </trkpt>
      <trkpt lat="49.0556" lon="-0.3152">
        <ele>92.8</ele>
        <time>2024-07-03T13:59:12Z</time>
      </trkpt>
      <trkpt lat="49.05566" lon="-0.31514">
        <ele>92.8</ele>
        <time>2024-07-03T13:59:13Z</time>
      </trkpt>
      <trkpt lat="49.05571" lon="-0.31507">
        <ele>92.8</ele>
        <time>2024-07-03T13:59:14Z</time>
      </trkpt>
      <trkpt lat="49.05577" lon="-0.31501">
        <ele>92.8</ele>
        <time>2024-07-03T13:59:15Z</time>
      </trkpt>
      <trkpt lat="49.05582" lon="-0.31494">
        <ele>93</ele>
        <time>2024-07-03T13:59:16Z</time>
      </trkpt>
      <trkpt lat="49.05588" lon="-0.31488">
        <ele>93.2</ele>
        <time>2024-07-03T13:59:17Z</time>
      </trkpt>
      <trkpt lat="49.05593" lon="-0.31482">
        <ele>93.6</ele>
        <time>2024-07-03T13:59:18Z</time>
      </trkpt>
      <trkpt lat="49.05599" lon="-0.31475">
        <ele>93.8</ele>
        <time>2024-07-03T13:59:19Z</time>
      </trkpt>
      <trkpt lat="49.05605" lon="-0.31468">
        <ele>93.8</ele>
        <time>2024-07-03T13:59:20Z</time>
      </trkpt>
      <trkpt lat="49.05611" lon="-0.31461">
        <ele>93.8</ele>
        <time>2024-07-03T13:59:21Z</time>
      </trkpt>
      <trkpt lat="49.05616" lon="-0.31455">
        <ele>93.8</ele>
        <time>2024-07-03T13:59:22Z</time>
      </trkpt>
      <trkpt lat="49.05622" lon="-0.31448">
        <ele>93.8</ele>
        <time>2024-07-03T13:59:23Z</time>
      </trkpt>
      <trkpt lat="49.05628" lon="-0.31441">
        <ele>94</ele>
        <time>2024-07-03T13:59:24Z</time>
      </trkpt>
      <trkpt lat="49.05634" lon="-0.31434">
        <ele>94</ele>
        <time>2024-07-03T13:59:25Z</time>
      </trkpt>
      <trkpt lat="49.0564" lon="-0.31427">
        <ele>94</ele>
        <time>2024-07-03T13:59:26Z</time>
      </trkpt>
      <trkpt lat="49.05646" lon="-0.3142">
        <ele>94.2</ele>
        <time>2024-07-03T13:59:27Z</time>
      </trkpt>
      <trkpt lat="49.05653" lon="-0.31413">
        <ele>94.6</ele>
        <time>2024-07-03T13:59:28Z</time>
      </trkpt>
      <trkpt lat="49.05659" lon="-0.31406">
        <ele>95</ele>
        <time>2024-07-03T13:59:29Z</time>
      </trkpt>
      <trkpt lat="49.05665" lon="-0.31399">
        <ele>95.4</ele>
        <time>2024-07-03T13:59:30Z</time>
      </trkpt>
      <trkpt lat="49.05672" lon="-0.31393">
        <ele>95.6</ele>
        <time>2024-07-03T13:59:31Z</time>
      </trkpt>
      <trkpt lat="49.05678" lon="-0.31386">
        <ele>95.8</ele>
        <time>2024-07-03T13:59:32Z</time>
      </trkpt>
      <trkpt lat="49.05685" lon="-0.3138">
        <ele>95.8</ele>
        <time>2024-07-03T13:59:33Z</time>
      </trkpt>
      <trkpt lat="49.05691" lon="-0.31374">
        <ele>96</ele>
        <time>2024-07-03T13:59:34Z</time>
      </trkpt>
      <trkpt lat="49.05697" lon="-0.31368">
        <ele>96</ele>
        <time>2024-07-03T13:59:35Z</time>
      </trkpt>
      <trkpt lat="49.05704" lon="-0.31362">
        <ele>96.2</ele>
        <time>2024-07-03T13:59:36Z</time>
      </trkpt>
      <trkpt lat="49.0571" lon="-0.31357">
        <ele>96.2</ele>
        <time>2024-07-03T13:59:37Z</time>
      </trkpt>
      <trkpt lat="49.05716" lon="-0.31351">
        <ele>96</ele>
        <time>2024-07-03T13:59:38Z</time>
      </trkpt>
      <trkpt lat="49.05722" lon="-0.31345">
        <ele>96</ele>
        <time>2024-07-03T13:59:39Z</time>
      </trkpt>
      <trkpt lat="49.05729" lon="-0.31338">
        <ele>96.2</ele>
        <time>2024-07-03T13:59:40Z</time>
      </trkpt>
      <trkpt lat="49.05736" lon="-0.31332">
        <ele>96</ele>
        <time>2024-07-03T13:59:41Z</time>
      </trkpt>
      <trkpt lat="49.05742" lon="-0.31326">
        <ele>96</ele>
        <time>2024-07-03T13:59:42Z</time>
      </trkpt>
      <trkpt lat="49.05748" lon="-0.3132">
        <ele>96</ele>
        <time>2024-07-03T13:59:43Z</time>
      </trkpt>
      <trkpt lat="49.05755" lon="-0.31313">
        <ele>96</ele>
        <time>2024-07-03T13:59:44Z</time>
      </trkpt>
      <trkpt lat="49.05761" lon="-0.31306">
        <ele>95.8</ele>
        <time>2024-07-03T13:59:45Z</time>
      </trkpt>
      <trkpt lat="49.05768" lon="-0.31299">
        <ele>95.8</ele>
        <time>2024-07-03T13:59:46Z</time>
      </trkpt>
      <trkpt lat="49.05774" lon="-0.31293">
        <ele>95.8</ele>
        <time>2024-07-03T13:59:47Z</time>
      </trkpt>
      <trkpt lat="49.05781" lon="-0.31286">
        <ele>95.8</ele>
        <time>2024-07-03T13:59:48Z</time>
      </trkpt>
      <trkpt lat="49.05788" lon="-0.31278">
        <ele>95.8</ele>
        <time>2024-07-03T13:59:49Z</time>
      </trkpt>
      <trkpt lat="49.05794" lon="-0.31271">
        <ele>96</ele>
        <time>2024-07-03T13:59:50Z</time>
      </trkpt>
      <trkpt lat="49.05801" lon="-0.31265">
        <ele>96</ele>
        <time>2024-07-03T13:59:51Z</time>
      </trkpt>
      <trkpt lat="49.05807" lon="-0.31259">
        <ele>96.4</ele>
        <time>2024-07-03T13:59:52Z</time>
      </trkpt>
      <trkpt lat="49.05814" lon="-0.31253">
        <ele>96.6</ele>
        <time>2024-07-03T13:59:53Z</time>
      </trkpt>
      <trkpt lat="49.0582" lon="-0.31247">
        <ele>96.6</ele>
        <time>2024-07-03T13:59:54Z</time>
      </trkpt>
      <trkpt lat="49.05826" lon="-0.31241">
        <ele>96.8</ele>
        <time>2024-07-03T13:59:55Z</time>
      </trkpt>
      <trkpt lat="49.05832" lon="-0.31236">
        <ele>97.2</ele>
        <time>2024-07-03T13:59:56Z</time>
      </trkpt>
      <trkpt lat="49.05839" lon="-0.3123">
        <ele>97.4</ele>
        <time>2024-07-03T13:59:57Z</time>
      </trkpt>
      <trkpt lat="49.05845" lon="-0.31225">
        <ele>97.6</ele>
        <time>2024-07-03T13:59:58Z</time>
      </trkpt>
      <trkpt lat="49.05851" lon="-0.31219">
        <ele>98</ele>
        <time>2024-07-03T13:59:59Z</time>
      </trkpt>
      <trkpt lat="49.05857" lon="-0.31214">
        <ele>98</ele>
        <time>2024-07-03T14:00:00Z</time>
      </trkpt>
      <trkpt lat="49.05863" lon="-0.31209">
        <ele>98.2</ele>
        <time>2024-07-03T14:00:01Z</time>
      </trkpt>
      <trkpt lat="49.05869" lon="-0.31204">
        <ele>98.4</ele>
        <time>2024-07-03T14:00:02Z</time>
      </trkpt>
      <trkpt lat="49.05875" lon="-0.31199">
        <ele>98.6</ele>
        <time>2024-07-03T14:00:03Z</time>
      </trkpt>
      <trkpt lat="49.05881" lon="-0.31193">
        <ele>99</ele>
        <time>2024-07-03T14:00:04Z</time>
      </trkpt>
      <trkpt lat="49.05886" lon="-0.31188">
        <ele>99.2</ele>
        <time>2024-07-03T14:00:05Z</time>
      </trkpt>
      <trkpt lat="49.05891" lon="-0.31182">
        <ele>99.4</ele>
        <time>2024-07-03T14:00:06Z</time>
      </trkpt>
      <trkpt lat="49.05897" lon="-0.31177">
        <ele>99.6</ele>
        <time>2024-07-03T14:00:07Z</time>
      </trkpt>
      <trkpt lat="49.05902" lon="-0.31171">
        <ele>99.6</ele>
        <time>2024-07-03T14:00:08Z</time>
      </trkpt>
      <trkpt lat="49.05907" lon="-0.31165">
        <ele>99.8</ele>
        <time>2024-07-03T14:00:09Z</time>
      </trkpt>
      <trkpt lat="49.05912" lon="-0.3116">
        <ele>99.8</ele>
        <time>2024-07-03T14:00:10Z</time>
      </trkpt>
      <trkpt lat="49.05918" lon="-0.31154">
        <ele>99.8</ele>
        <time>2024-07-03T14:00:11Z</time>
      </trkpt>
      <trkpt lat="49.05923" lon="-0.31148">
        <ele>99.8</ele>
        <time>2024-07-03T14:00:12Z</time>
      </trkpt>
      <trkpt lat="49.05928" lon="-0.31142">
        <ele>100</ele>
        <time>2024-07-03T14:00:13Z</time>
      </trkpt>
      <trkpt lat="49.05934" lon="-0.31137">
        <ele>100</ele>
        <time>2024-07-03T14:00:14Z</time>
      </trkpt>
      <trkpt lat="49.0594" lon="-0.31131">
        <ele>100</ele>
        <time>2024-07-03T14:00:15Z</time>
      </trkpt>
      <trkpt lat="49.05945" lon="-0.31125">
        <ele>100</ele>
        <time>2024-07-03T14:00:16Z</time>
      </trkpt>
      <trkpt lat="49.05951" lon="-0.31119">
        <ele>100</ele>
        <time>2024-07-03T14:00:17Z</time>
      </trkpt>
      <trkpt lat="49.05957" lon="-0.31113">
        <ele>100.2</ele>
        <time>2024-07-03T14:00:18Z</time>
      </trkpt>
      <trkpt lat="49.05962" lon="-0.31107">
        <ele>100.4</ele>
        <time>2024-07-03T14:00:19Z</time>
      </trkpt>
      <trkpt lat="49.05968" lon="-0.31101">
        <ele>100.6</ele>
        <time>2024-07-03T14:00:20Z</time>
      </trkpt>
      <trkpt lat="49.05974" lon="-0.31094">
        <ele>100.8</ele>
        <time>2024-07-03T14:00:21Z</time>
      </trkpt>
      <trkpt lat="49.0598" lon="-0.31088">
        <ele>100.8</ele>
        <time>2024-07-03T14:00:22Z</time>
      </trkpt>
      <trkpt lat="49.05985" lon="-0.31081">
        <ele>100.6</ele>
        <time>2024-07-03T14:00:23Z</time>
      </trkpt>
      <trkpt lat="49.05991" lon="-0.31074">
        <ele>100.4</ele>
        <time>2024-07-03T14:00:24Z</time>
      </trkpt>
      <trkpt lat="49.05997" lon="-0.31067">
        <ele>100.4</ele>
        <time>2024-07-03T14:00:25Z</time>
      </trkpt>
      <trkpt lat="49.06003" lon="-0.3106">
        <ele>100.4</ele>
        <time>2024-07-03T14:00:26Z</time>
      </trkpt>
      <trkpt lat="49.06009" lon="-0.31053">
        <ele>100.4</ele>
        <time>2024-07-03T14:00:27Z</time>
      </trkpt>
      <trkpt lat="49.06015" lon="-0.31047">
        <ele>100.4</ele>
        <time>2024-07-03T14:00:28Z</time>
      </trkpt>
      <trkpt lat="49.06021" lon="-0.3104">
        <ele>100.4</ele>
        <time>2024-07-03T14:00:29Z</time>
      </trkpt>
      <trkpt lat="49.06027" lon="-0.31032">
        <ele>100.6</ele>
        <time>2024-07-03T14:00:30Z</time>
      </trkpt>
      <trkpt lat="49.06032" lon="-0.31025">
        <ele>100.8</ele>
        <time>2024-07-03T14:00:31Z</time>
      </trkpt>
      <trkpt lat="49.06038" lon="-0.31018">
        <ele>101</ele>
        <time>2024-07-03T14:00:32Z</time>
      </trkpt>
      <trkpt lat="49.06044" lon="-0.31011">
        <ele>101.2</ele>
        <time>2024-07-03T14:00:33Z</time>
      </trkpt>
      <trkpt lat="49.06049" lon="-0.31004">
        <ele>101.6</ele>
        <time>2024-07-03T14:00:34Z</time>
      </trkpt>
      <trkpt lat="49.06055" lon="-0.30997">
        <ele>101.8</ele>
        <time>2024-07-03T14:00:35Z</time>
      </trkpt>
      <trkpt lat="49.0606" lon="-0.3099">
        <ele>102</ele>
        <time>2024-07-03T14:00:36Z</time>
      </trkpt>
      <trkpt lat="49.06065" lon="-0.30984">
        <ele>102.2</ele>
        <time>2024-07-03T14:00:37Z</time>
      </trkpt>
      <trkpt lat="49.06071" lon="-0.30977">
        <ele>102.4</ele>
        <time>2024-07-03T14:00:38Z</time>
      </trkpt>
      <trkpt lat="49.06076" lon="-0.3097">
        <ele>102.6</ele>
        <time>2024-07-03T14:00:39Z</time>
      </trkpt>
      <trkpt lat="49.06081" lon="-0.30962">
        <ele>103.2</ele>
        <time>2024-07-03T14:00:40Z</time>
      </trkpt>
      <trkpt lat="49.06086" lon="-0.30955">
        <ele>103.6</ele>
        <time>2024-07-03T14:00:41Z</time>
      </trkpt>
      <trkpt lat="49.06091" lon="-0.30947">
        <ele>104</ele>
        <time>2024-07-03T14:00:42Z</time>
      </trkpt>
      <trkpt lat="49.06096" lon="-0.30939">
        <ele>104.2</ele>
        <time>2024-07-03T14:00:43Z</time>
      </trkpt>
      <trkpt lat="49.061" lon="-0.30931">
        <ele>104.2</ele>
        <time>2024-07-03T14:00:44Z</time>
      </trkpt>
      <trkpt lat="49.06105" lon="-0.30922">
        <ele>104.2</ele>
        <time>2024-07-03T14:00:45Z</time>
      </trkpt>
      <trkpt lat="49.06109" lon="-0.30914">
        <ele>104.4</ele>
        <time>2024-07-03T14:00:46Z</time>
      </trkpt>
      <trkpt lat="49.06113" lon="-0.30904">
        <ele>104.4</ele>
        <time>2024-07-03T14:00:47Z</time>
      </trkpt>
      <trkpt lat="49.06118" lon="-0.30895">
        <ele>104.6</ele>
        <time>2024-07-03T14:00:48Z</time>
      </trkpt>
      <trkpt lat="49.06122" lon="-0.30885">
        <ele>104.6</ele>
        <time>2024-07-03T14:00:49Z</time>
      </trkpt>
      <trkpt lat="49.06127" lon="-0.30875">
        <ele>104.6</ele>
        <time>2024-07-03T14:00:50Z</time>
      </trkpt>
      <trkpt lat="49.06131" lon="-0.30865">
        <ele>104.6</ele>
        <time>2024-07-03T14:00:51Z</time>
      </trkpt>
      <trkpt lat="49.06136" lon="-0.30855">
        <ele>104.8</ele>
        <time>2024-07-03T14:00:52Z</time>
      </trkpt>
      <trkpt lat="49.06141" lon="-0.30845">
        <ele>104.8</ele>
        <time>2024-07-03T14:00:53Z</time>
      </trkpt>
      <trkpt lat="49.06145" lon="-0.30835">
        <ele>104.8</ele>
        <time>2024-07-03T14:00:54Z</time>
      </trkpt>
      <trkpt lat="49.0615" lon="-0.30825">
        <ele>104.6</ele>
        <time>2024-07-03T14:00:55Z</time>
      </trkpt>
      <trkpt lat="49.06155" lon="-0.30815">
        <ele>104.6</ele>
        <time>2024-07-03T14:00:56Z</time>
      </trkpt>
      <trkpt lat="49.0616" lon="-0.30805">
        <ele>104.2</ele>
        <time>2024-07-03T14:00:57Z</time>
      </trkpt>
      <trkpt lat="49.06165" lon="-0.30796">
        <ele>104.2</ele>
        <time>2024-07-03T14:00:58Z</time>
      </trkpt>
      <trkpt lat="49.0617" lon="-0.30786">
        <ele>104.2</ele>
        <time>2024-07-03T14:00:59Z</time>
      </trkpt>
      <trkpt lat="49.06176" lon="-0.30777">
        <ele>104</ele>
        <time>2024-07-03T14:01:00Z</time>
      </trkpt>
      <trkpt lat="49.06182" lon="-0.30768">
        <ele>104.2</ele>
        <time>2024-07-03T14:01:01Z</time>
      </trkpt>
      <trkpt lat="49.06187" lon="-0.30759">
        <ele>104.4</ele>
        <time>2024-07-03T14:01:02Z</time>
      </trkpt>
      <trkpt lat="49.06194" lon="-0.3075">
        <ele>104.4</ele>
        <time>2024-07-03T14:01:03Z</time>
      </trkpt>
      <trkpt lat="49.062" lon="-0.30741">
        <ele>104.6</ele>
        <time>2024-07-03T14:01:04Z</time>
      </trkpt>
      <trkpt lat="49.06207" lon="-0.30733">
        <ele>104.6</ele>
        <time>2024-07-03T14:01:05Z</time>
      </trkpt>
      <trkpt lat="49.06213" lon="-0.30724">
        <ele>104.6</ele>
        <time>2024-07-03T14:01:06Z</time>
      </trkpt>
      <trkpt lat="49.0622" lon="-0.30716">
        <ele>104.6</ele>
        <time>2024-07-03T14:01:07Z</time>
      </trkpt>
      <trkpt lat="49.06227" lon="-0.30707">
        <ele>104.6</ele>
        <time>2024-07-03T14:01:08Z</time>
      </trkpt>
      <trkpt lat="49.06234" lon="-0.307">
        <ele>104.6</ele>
        <time>2024-07-03T14:01:09Z</time>
      </trkpt>
      <trkpt lat="49.06241" lon="-0.30692">
        <ele>104.6</ele>
        <time>2024-07-03T14:01:10Z</time>
      </trkpt>
      <trkpt lat="49.06248" lon="-0.30685">
        <ele>104.6</ele>
        <time>2024-07-03T14:01:11Z</time>
      </trkpt>
      <trkpt lat="49.06256" lon="-0.30678">
        <ele>104.4</ele>
        <time>2024-07-03T14:01:12Z</time>
      </trkpt>
      <trkpt lat="49.06263" lon="-0.30671">
        <ele>104.2</ele>
        <time>2024-07-03T14:01:13Z</time>
      </trkpt>
      <trkpt lat="49.06271" lon="-0.30663">
        <ele>103.8</ele>
        <time>2024-07-03T14:01:14Z</time>
      </trkpt>
      <trkpt lat="49.06278" lon="-0.30656">
        <ele>103.4</ele>
        <time>2024-07-03T14:01:15Z</time>
      </trkpt>
      <trkpt lat="49.06285" lon="-0.30648">
        <ele>103.2</ele>
        <time>2024-07-03T14:01:16Z</time>
      </trkpt>
      <trkpt lat="49.06293" lon="-0.30641">
        <ele>103</ele>
        <time>2024-07-03T14:01:17Z</time>
      </trkpt>
      <trkpt lat="49.063" lon="-0.30633">
        <ele>103</ele>
        <time>2024-07-03T14:01:18Z</time>
      </trkpt>
      <trkpt lat="49.06308" lon="-0.30626">
        <ele>102.8</ele>
        <time>2024-07-03T14:01:19Z</time>
      </trkpt>
      <trkpt lat="49.06315" lon="-0.30619">
        <ele>103</ele>
        <time>2024-07-03T14:01:20Z</time>
      </trkpt>
      <trkpt lat="49.06323" lon="-0.30612">
        <ele>103.2</ele>
        <time>2024-07-03T14:01:21Z</time>
      </trkpt>
      <trkpt lat="49.06331" lon="-0.30604">
        <ele>103.6</ele>
        <time>2024-07-03T14:01:22Z</time>
      </trkpt>
      <trkpt lat="49.06338" lon="-0.30597">
        <ele>103.8</ele>
        <time>2024-07-03T14:01:23Z</time>
      </trkpt>
      <trkpt lat="49.06346" lon="-0.30589">
        <ele>104.2</ele>
        <time>2024-07-03T14:01:24Z</time>
      </trkpt>
      <trkpt lat="49.06354" lon="-0.30582">
        <ele>104.4</ele>
        <time>2024-07-03T14:01:25Z</time>
      </trkpt>
      <trkpt lat="49.06361" lon="-0.30575">
        <ele>104.6</ele>
        <time>2024-07-03T14:01:26Z</time>
      </trkpt>
      <trkpt lat="49.06369" lon="-0.30567">
        <ele>104.6</ele>
        <time>2024-07-03T14:01:27Z</time>
      </trkpt>
      <trkpt lat="49.06377" lon="-0.3056">
        <ele>104.6</ele>
        <time>2024-07-03T14:01:28Z</time>
      </trkpt>
      <trkpt lat="49.06384" lon="-0.30552">
        <ele>104.6</ele>
        <time>2024-07-03T14:01:29Z</time>
      </trkpt>
      <trkpt lat="49.06392" lon="-0.30545">
        <ele>104.6</ele>
        <time>2024-07-03T14:01:30Z</time>
      </trkpt>
      <trkpt lat="49.064" lon="-0.30537">
        <ele>104.6</ele>
        <time>2024-07-03T14:01:31Z</time>
      </trkpt>
      <trkpt lat="49.06407" lon="-0.3053">
        <ele>104.6</ele>
        <time>2024-07-03T14:01:32Z</time>
      </trkpt>
      <trkpt lat="49.06414" lon="-0.30522">
        <ele>104.6</ele>
        <time>2024-07-03T14:01:33Z</time>
      </trkpt>
      <trkpt lat="49.06422" lon="-0.30514">
        <ele>104.6</ele>
        <time>2024-07-03T14:01:34Z</time>
      </trkpt>
      <trkpt lat="49.06429" lon="-0.30507">
        <ele>104.6</ele>
        <time>2024-07-03T14:01:35Z</time>
      </trkpt>
      <trkpt lat="49.06436" lon="-0.305">
        <ele>104.6</ele>
        <time>2024-07-03T14:01:36Z</time>
      </trkpt>
      <trkpt lat="49.06444" lon="-0.30492">
        <ele>104.6</ele>
        <time>2024-07-03T14:01:37Z</time>
      </trkpt>
      <trkpt lat="49.06451" lon="-0.30485">
        <ele>104.8</ele>
        <time>2024-07-03T14:01:38Z</time>
      </trkpt>
      <trkpt lat="49.06459" lon="-0.30477">
        <ele>104.8</ele>
        <time>2024-07-03T14:01:39Z</time>
      </trkpt>
      <trkpt lat="49.06467" lon="-0.30469">
        <ele>105</ele>
        <time>2024-07-03T14:01:40Z</time>
      </trkpt>
      <trkpt lat="49.06474" lon="-0.30461">
        <ele>105.2</ele>
        <time>2024-07-03T14:01:41Z</time>
      </trkpt>
      <trkpt lat="49.06482" lon="-0.30453">
        <ele>105.4</ele>
        <time>2024-07-03T14:01:42Z</time>
      </trkpt>
      <trkpt lat="49.0649" lon="-0.30444">
        <ele>105.6</ele>
        <time>2024-07-03T14:01:43Z</time>
      </trkpt>
      <trkpt lat="49.06497" lon="-0.30436">
        <ele>105.8</ele>
        <time>2024-07-03T14:01:44Z</time>
      </trkpt>
      <trkpt lat="49.06505" lon="-0.30428">
        <ele>106</ele>
        <time>2024-07-03T14:01:45Z</time>
      </trkpt>
      <trkpt lat="49.06512" lon="-0.3042">
        <ele>106.2</ele>
        <time>2024-07-03T14:01:46Z</time>
      </trkpt>
      <trkpt lat="49.06519" lon="-0.30412">
        <ele>106.2</ele>
        <time>2024-07-03T14:01:47Z</time>
      </trkpt>
      <trkpt lat="49.06526" lon="-0.30403">
        <ele>106.4</ele>
        <time>2024-07-03T14:01:48Z</time>
      </trkpt>
      <trkpt lat="49.06534" lon="-0.30395">
        <ele>106.6</ele>
        <time>2024-07-03T14:01:49Z</time>
      </trkpt>
      <trkpt lat="49.06541" lon="-0.30386">
        <ele>106.6</ele>
        <time>2024-07-03T14:01:50Z</time>
      </trkpt>
      <trkpt lat="49.06549" lon="-0.30377">
        <ele>106.6</ele>
        <time>2024-07-03T14:01:51Z</time>
      </trkpt>
      <trkpt lat="49.06556" lon="-0.30368">
        <ele>106.8</ele>
        <time>2024-07-03T14:01:52Z</time>
      </trkpt>
      <trkpt lat="49.06564" lon="-0.30359">
        <ele>106.8</ele>
        <time>2024-07-03T14:01:53Z</time>
      </trkpt>
      <trkpt lat="49.06572" lon="-0.30351">
        <ele>106.8</ele>
        <time>2024-07-03T14:01:54Z</time>
      </trkpt>
      <trkpt lat="49.0658" lon="-0.30342">
        <ele>106.8</ele>
        <time>2024-07-03T14:01:55Z</time>
      </trkpt>
      <trkpt lat="49.06587" lon="-0.30333">
        <ele>106.8</ele>
        <time>2024-07-03T14:01:56Z</time>
      </trkpt>
      <trkpt lat="49.06595" lon="-0.30325">
        <ele>106.8</ele>
        <time>2024-07-03T14:01:57Z</time>
      </trkpt>
      <trkpt lat="49.06602" lon="-0.30316">
        <ele>106.8</ele>
        <time>2024-07-03T14:01:58Z</time>
      </trkpt>
      <trkpt lat="49.0661" lon="-0.30308">
        <ele>107</ele>
        <time>2024-07-03T14:01:59Z</time>
      </trkpt>
      <trkpt lat="49.06616" lon="-0.303">
        <ele>107.2</ele>
        <time>2024-07-03T14:02:00Z</time>
      </trkpt>
      <trkpt lat="49.06623" lon="-0.30292">
        <ele>107.2</ele>
        <time>2024-07-03T14:02:01Z</time>
      </trkpt>
      <trkpt lat="49.0663" lon="-0.30284">
        <ele>107.4</ele>
        <time>2024-07-03T14:02:02Z</time>
      </trkpt>
      <trkpt lat="49.06637" lon="-0.30276">
        <ele>107.6</ele>
        <time>2024-07-03T14:02:03Z</time>
      </trkpt>
      <trkpt lat="49.06644" lon="-0.30268">
        <ele>108</ele>
        <time>2024-07-03T14:02:04Z</time>
      </trkpt>
      <trkpt lat="49.06651" lon="-0.30261">
        <ele>108.4</ele>
        <time>2024-07-03T14:02:05Z</time>
      </trkpt>
      <trkpt lat="49.06658" lon="-0.30253">
        <ele>108.6</ele>
        <time>2024-07-03T14:02:06Z</time>
      </trkpt>
      <trkpt lat="49.06665" lon="-0.30246">
        <ele>108.8</ele>
        <time>2024-07-03T14:02:07Z</time>
      </trkpt>
      <trkpt lat="49.06672" lon="-0.30239">
        <ele>109.2</ele>
        <time>2024-07-03T14:02:08Z</time>
      </trkpt>
      <trkpt lat="49.06679" lon="-0.30233">
        <ele>109.6</ele>
        <time>2024-07-03T14:02:09Z</time>
      </trkpt>
      <trkpt lat="49.06686" lon="-0.30227">
        <ele>109.6</ele>
        <time>2024-07-03T14:02:10Z</time>
      </trkpt>
      <trkpt lat="49.06694" lon="-0.30222">
        <ele>109.8</ele>
        <time>2024-07-03T14:02:11Z</time>
      </trkpt>
      <trkpt lat="49.06702" lon="-0.30217">
        <ele>109.8</ele>
        <time>2024-07-03T14:02:12Z</time>
      </trkpt>
      <trkpt lat="49.0671" lon="-0.30213">
        <ele>110</ele>
        <time>2024-07-03T14:02:13Z</time>
      </trkpt>
      <trkpt lat="49.06719" lon="-0.30209">
        <ele>110</ele>
        <time>2024-07-03T14:02:14Z</time>
      </trkpt>
      <trkpt lat="49.06728" lon="-0.30205">
        <ele>110</ele>
        <time>2024-07-03T14:02:15Z</time>
      </trkpt>
      <trkpt lat="49.06737" lon="-0.30202">
        <ele>110</ele>
        <time>2024-07-03T14:02:16Z</time>
      </trkpt>
      <trkpt lat="49.06746" lon="-0.30199">
        <ele>110</ele>
        <time>2024-07-03T14:02:17Z</time>
      </trkpt>
      <trkpt lat="49.06755" lon="-0.30196">
        <ele>109.8</ele>
        <time>2024-07-03T14:02:18Z</time>
      </trkpt>
      <trkpt lat="49.06764" lon="-0.30193">
        <ele>109.8</ele>
        <time>2024-07-03T14:02:19Z</time>
      </trkpt>
      <trkpt lat="49.06773" lon="-0.3019">
        <ele>109.6</ele>
        <time>2024-07-03T14:02:20Z</time>
      </trkpt>
      <trkpt lat="49.06781" lon="-0.30187">
        <ele>109.4</ele>
        <time>2024-07-03T14:02:21Z</time>
      </trkpt>
      <trkpt lat="49.0679" lon="-0.30184">
        <ele>109.2</ele>
        <time>2024-07-03T14:02:22Z</time>
      </trkpt>
      <trkpt lat="49.06798" lon="-0.30181">
        <ele>109.2</ele>
        <time>2024-07-03T14:02:23Z</time>
      </trkpt>
      <trkpt lat="49.06807" lon="-0.30178">
        <ele>109</ele>
        <time>2024-07-03T14:02:24Z</time>
      </trkpt>
      <trkpt lat="49.06816" lon="-0.30175">
        <ele>109</ele>
        <time>2024-07-03T14:02:25Z</time>
      </trkpt>
      <trkpt lat="49.06825" lon="-0.30172">
        <ele>109</ele>
        <time>2024-07-03T14:02:26Z</time>
      </trkpt>
      <trkpt lat="49.06833" lon="-0.30169">
        <ele>109.2</ele>
        <time>2024-07-03T14:02:27Z</time>
      </trkpt>
      <trkpt lat="49.06842" lon="-0.30167">
        <ele>109.2</ele>
        <time>2024-07-03T14:02:28Z</time>
      </trkpt>
      <trkpt lat="49.06851" lon="-0.30164">
        <ele>109.4</ele>
        <time>2024-07-03T14:02:29Z</time>
      </trkpt>
      <trkpt lat="49.0686" lon="-0.30161">
        <ele>109.4</ele>
        <time>2024-07-03T14:02:30Z</time>
      </trkpt>
      <trkpt lat="49.06869" lon="-0.30157">
        <ele>109.2</ele>
        <time>2024-07-03T14:02:31Z</time>
      </trkpt>
      <trkpt lat="49.06878" lon="-0.30154">
        <ele>109</ele>
        <time>2024-07-03T14:02:32Z</time>
      </trkpt>
      <trkpt lat="49.06887" lon="-0.30151">
        <ele>108.8</ele>
        <time>2024-07-03T14:02:33Z</time>
      </trkpt>
      <trkpt lat="49.06896" lon="-0.30148">
        <ele>108.8</ele>
        <time>2024-07-03T14:02:34Z</time>
      </trkpt>
      <trkpt lat="49.06905" lon="-0.30145">
        <ele>108.8</ele>
        <time>2024-07-03T14:02:35Z</time>
      </trkpt>
      <trkpt lat="49.06914" lon="-0.30142">
        <ele>108.6</ele>
        <time>2024-07-03T14:02:36Z</time>
      </trkpt>
      <trkpt lat="49.06923" lon="-0.30139">
        <ele>108.6</ele>
        <time>2024-07-03T14:02:37Z</time>
      </trkpt>
      <trkpt lat="49.06932" lon="-0.30136">
        <ele>108.4</ele>
        <time>2024-07-03T14:02:38Z</time>
      </trkpt>
      <trkpt lat="49.06941" lon="-0.30133">
        <ele>108.6</ele>
        <time>2024-07-03T14:02:39Z</time>
      </trkpt>
      <trkpt lat="49.0695" lon="-0.3013">
        <ele>108.8</ele>
        <time>2024-07-03T14:02:40Z</time>
      </trkpt>
      <trkpt lat="49.06959" lon="-0.30126">
        <ele>108.8</ele>
        <time>2024-07-03T14:02:41Z</time>
      </trkpt>
      <trkpt lat="49.06968" lon="-0.30123">
        <ele>108.8</ele>
        <time>2024-07-03T14:02:42Z</time>
      </trkpt>
      <trkpt lat="49.06977" lon="-0.3012">
        <ele>108.6</ele>
        <time>2024-07-03T14:02:43Z</time>
      </trkpt>
      <trkpt lat="49.06987" lon="-0.30116">
        <ele>108.6</ele>
        <time>2024-07-03T14:02:44Z</time>
      </trkpt>
      <trkpt lat="49.06996" lon="-0.30113">
        <ele>108.6</ele>
        <time>2024-07-03T14:02:45Z</time>
      </trkpt>
      <trkpt lat="49.07005" lon="-0.30109">
        <ele>108.4</ele>
        <time>2024-07-03T14:02:46Z</time>
      </trkpt>
      <trkpt lat="49.07014" lon="-0.30106">
        <ele>108.4</ele>
        <time>2024-07-03T14:02:47Z</time>
      </trkpt>
      <trkpt lat="49.07023" lon="-0.30103">
        <ele>108.4</ele>
        <time>2024-07-03T14:02:48Z</time>
      </trkpt>
      <trkpt lat="49.07032" lon="-0.301">
        <ele>108.4</ele>
        <time>2024-07-03T14:02:49Z</time>
      </trkpt>
      <trkpt lat="49.07041" lon="-0.30097">
        <ele>108.4</ele>
        <time>2024-07-03T14:02:50Z</time>
      </trkpt>
      <trkpt lat="49.07049" lon="-0.30094">
        <ele>108.4</ele>
        <time>2024-07-03T14:02:51Z</time>
      </trkpt>
      <trkpt lat="49.07058" lon="-0.30091">
        <ele>108.4</ele>
        <time>2024-07-03T14:02:52Z</time>
      </trkpt>
      <trkpt lat="49.07066" lon="-0.30088">
        <ele>108.6</ele>
        <time>2024-07-03T14:02:53Z</time>
      </trkpt>
      <trkpt lat="49.07074" lon="-0.30084">
        <ele>108.6</ele>
        <time>2024-07-03T14:02:54Z</time>
      </trkpt>
      <trkpt lat="49.07082" lon="-0.3008">
        <ele>108.8</ele>
        <time>2024-07-03T14:02:55Z</time>
      </trkpt>
      <trkpt lat="49.0709" lon="-0.30076">
        <ele>109</ele>
        <time>2024-07-03T14:02:56Z</time>
      </trkpt>
      <trkpt lat="49.07097" lon="-0.3007">
        <ele>109.2</ele>
        <time>2024-07-03T14:02:57Z</time>
      </trkpt>
      <trkpt lat="49.07104" lon="-0.30065">
        <ele>109.2</ele>
        <time>2024-07-03T14:02:58Z</time>
      </trkpt>
      <trkpt lat="49.0711" lon="-0.30058">
        <ele>109.4</ele>
        <time>2024-07-03T14:02:59Z</time>
      </trkpt>
      <trkpt lat="49.07116" lon="-0.30051">
        <ele>109.6</ele>
        <time>2024-07-03T14:03:00Z</time>
      </trkpt>
      <trkpt lat="49.07122" lon="-0.30043">
        <ele>109.6</ele>
        <time>2024-07-03T14:03:01Z</time>
      </trkpt>
      <trkpt lat="49.07127" lon="-0.30035">
        <ele>110.2</ele>
        <time>2024-07-03T14:03:02Z</time>
      </trkpt>
      <trkpt lat="49.07133" lon="-0.30026">
        <ele>110.6</ele>
        <time>2024-07-03T14:03:03Z</time>
      </trkpt>
      <trkpt lat="49.07138" lon="-0.30016">
        <ele>110.8</ele>
        <time>2024-07-03T14:03:04Z</time>
      </trkpt>
      <trkpt lat="49.07143" lon="-0.30006">
        <ele>110.8</ele>
        <time>2024-07-03T14:03:05Z</time>
      </trkpt>
      <trkpt lat="49.07147" lon="-0.29995">
        <ele>110.8</ele>
        <time>2024-07-03T14:03:06Z</time>
      </trkpt>
      <trkpt lat="49.07151" lon="-0.29984">
        <ele>111</ele>
        <time>2024-07-03T14:03:07Z</time>
      </trkpt>
      <trkpt lat="49.07154" lon="-0.29972">
        <ele>111</ele>
        <time>2024-07-03T14:03:08Z</time>
      </trkpt>
      <trkpt lat="49.07157" lon="-0.2996">
        <ele>111</ele>
        <time>2024-07-03T14:03:09Z</time>
      </trkpt>
      <trkpt lat="49.0716" lon="-0.29948">
        <ele>110.8</ele>
        <time>2024-07-03T14:03:10Z</time>
      </trkpt>
      <trkpt lat="49.07163" lon="-0.29935">
        <ele>110.8</ele>
        <time>2024-07-03T14:03:11Z</time>
      </trkpt>
      <trkpt lat="49.07164" lon="-0.29923">
        <ele>111</ele>
        <time>2024-07-03T14:03:12Z</time>
      </trkpt>
      <trkpt lat="49.07166" lon="-0.2991">
        <ele>111</ele>
        <time>2024-07-03T14:03:13Z</time>
      </trkpt>
      <trkpt lat="49.07168" lon="-0.29897">
        <ele>111</ele>
        <time>2024-07-03T14:03:14Z</time>
      </trkpt>
      <trkpt lat="49.07169" lon="-0.29884">
        <ele>111</ele>
        <time>2024-07-03T14:03:15Z</time>
      </trkpt>
      <trkpt lat="49.07171" lon="-0.2987">
        <ele>111</ele>
        <time>2024-07-03T14:03:16Z</time>
      </trkpt>
      <trkpt lat="49.07173" lon="-0.29857">
        <ele>111.4</ele>
        <time>2024-07-03T14:03:17Z</time>
      </trkpt>
      <trkpt lat="49.07175" lon="-0.29844">
        <ele>112</ele>
        <time>2024-07-03T14:03:18Z</time>
      </trkpt>
      <trkpt lat="49.07177" lon="-0.2983">
        <ele>112.4</ele>
        <time>2024-07-03T14:03:19Z</time>
      </trkpt>
      <trkpt lat="49.07179" lon="-0.29818">
        <ele>112.8</ele>
        <time>2024-07-03T14:03:20Z</time>
      </trkpt>
      <trkpt lat="49.0718" lon="-0.29806">
        <ele>113.2</ele>
        <time>2024-07-03T14:03:21Z</time>
      </trkpt>
      <trkpt lat="49.07182" lon="-0.29794">
        <ele>113.8</ele>
        <time>2024-07-03T14:03:22Z</time>
      </trkpt>
      <trkpt lat="49.07184" lon="-0.29783">
        <ele>114.2</ele>
        <time>2024-07-03T14:03:23Z</time>
      </trkpt>
      <trkpt lat="49.07185" lon="-0.29771">
        <ele>114.6</ele>
        <time>2024-07-03T14:03:24Z</time>
      </trkpt>
      <trkpt lat="49.07187" lon="-0.29761">
        <ele>115.2</ele>
        <time>2024-07-03T14:03:25Z</time>
      </trkpt>
      <trkpt lat="49.07189" lon="-0.2975">
        <ele>115.8</ele>
        <time>2024-07-03T14:03:26Z</time>
      </trkpt>
      <trkpt lat="49.07191" lon="-0.2974">
        <ele>116.2</ele>
        <time>2024-07-03T14:03:27Z</time>
      </trkpt>
      <trkpt lat="49.07193" lon="-0.2973">
        <ele>116.8</ele>
        <time>2024-07-03T14:03:28Z</time>
      </trkpt>
      <trkpt lat="49.07195" lon="-0.2972">
        <ele>117.2</ele>
        <time>2024-07-03T14:03:29Z</time>
      </trkpt>
      <trkpt lat="49.07197" lon="-0.29711">
        <ele>117.8</ele>
        <time>2024-07-03T14:03:30Z</time>
      </trkpt>
      <trkpt lat="49.07199" lon="-0.29701">
        <ele>118.2</ele>
        <time>2024-07-03T14:03:31Z</time>
      </trkpt>
      <trkpt lat="49.07202" lon="-0.29691">
        <ele>118.6</ele>
        <time>2024-07-03T14:03:32Z</time>
      </trkpt>
      <trkpt lat="49.07205" lon="-0.29682">
        <ele>119</ele>
        <time>2024-07-03T14:03:33Z</time>
      </trkpt>
      <trkpt lat="49.07207" lon="-0.29672">
        <ele>119.4</ele>
        <time>2024-07-03T14:03:34Z</time>
      </trkpt>
      <trkpt lat="49.0721" lon="-0.29662">
        <ele>119.6</ele>
        <time>2024-07-03T14:03:35Z</time>
      </trkpt>
      <trkpt lat="49.07212" lon="-0.29652">
        <ele>119.8</ele>
        <time>2024-07-03T14:03:36Z</time>
      </trkpt>
      <trkpt lat="49.07215" lon="-0.29642">
        <ele>120</ele>
        <time>2024-07-03T14:03:37Z</time>
      </trkpt>
      <trkpt lat="49.07218" lon="-0.29631">
        <ele>120</ele>
        <time>2024-07-03T14:03:38Z</time>
      </trkpt>
      <trkpt lat="49.07221" lon="-0.2962">
        <ele>120</ele>
        <time>2024-07-03T14:03:39Z</time>
      </trkpt>
      <trkpt lat="49.07224" lon="-0.29609">
        <ele>120</ele>
        <time>2024-07-03T14:03:40Z</time>
      </trkpt>
      <trkpt lat="49.07227" lon="-0.29598">
        <ele>120</ele>
        <time>2024-07-03T14:03:41Z</time>
      </trkpt>
      <trkpt lat="49.07232" lon="-0.29587">
        <ele>120</ele>
        <time>2024-07-03T14:03:42Z</time>
      </trkpt>
      <trkpt lat="49.07237" lon="-0.29576">
        <ele>119.8</ele>
        <time>2024-07-03T14:03:43Z</time>
      </trkpt>
      <trkpt lat="49.07243" lon="-0.29565">
        <ele>119.6</ele>
        <time>2024-07-03T14:03:44Z</time>
      </trkpt>
      <trkpt lat="49.07249" lon="-0.29555">
        <ele>119.2</ele>
        <time>2024-07-03T14:03:45Z</time>
      </trkpt>
      <trkpt lat="49.07256" lon="-0.29546">
        <ele>118.6</ele>
        <time>2024-07-03T14:03:46Z</time>
      </trkpt>
      <trkpt lat="49.07265" lon="-0.29537">
        <ele>118.2</ele>
        <time>2024-07-03T14:03:47Z</time>
      </trkpt>
      <trkpt lat="49.07273" lon="-0.2953">
        <ele>117.6</ele>
        <time>2024-07-03T14:03:48Z</time>
      </trkpt>
      <trkpt lat="49.07283" lon="-0.29524">
        <ele>117</ele>
        <time>2024-07-03T14:03:49Z</time>
      </trkpt>
      <trkpt lat="49.07292" lon="-0.29519">
        <ele>116</ele>
        <time>2024-07-03T14:03:50Z</time>
      </trkpt>
      <trkpt lat="49.07302" lon="-0.29516">
        <ele>114.8</ele>
        <time>2024-07-03T14:03:51Z</time>
      </trkpt>
      <trkpt lat="49.07313" lon="-0.29513">
        <ele>113.6</ele>
        <time>2024-07-03T14:03:52Z</time>
      </trkpt>
      <trkpt lat="49.07324" lon="-0.29513">
        <ele>112.8</ele>
        <time>2024-07-03T14:03:53Z</time>
      </trkpt>
      <trkpt lat="49.07334" lon="-0.29514">
        <ele>112.4</ele>
        <time>2024-07-03T14:03:54Z</time>
      </trkpt>
      <trkpt lat="49.07344" lon="-0.29516">
        <ele>111.8</ele>
        <time>2024-07-03T14:03:55Z</time>
      </trkpt>
      <trkpt lat="49.07354" lon="-0.2952">
        <ele>111.4</ele>
        <time>2024-07-03T14:03:56Z</time>
      </trkpt>
      <trkpt lat="49.07364" lon="-0.29526">
        <ele>111</ele>
        <time>2024-07-03T14:03:57Z</time>
      </trkpt>
      <trkpt lat="49.07373" lon="-0.29533">
        <ele>110.8</ele>
        <time>2024-07-03T14:03:58Z</time>
      </trkpt>
      <trkpt lat="49.07382" lon="-0.2954">
        <ele>110.6</ele>
        <time>2024-07-03T14:03:59Z</time>
      </trkpt>
      <trkpt lat="49.07389" lon="-0.29548">
        <ele>110.6</ele>
        <time>2024-07-03T14:04:00Z</time>
      </trkpt>
      <trkpt lat="49.07397" lon="-0.29557">
        <ele>110.6</ele>
        <time>2024-07-03T14:04:01Z</time>
      </trkpt>
      <trkpt lat="49.07404" lon="-0.29566">
        <ele>110.6</ele>
        <time>2024-07-03T14:04:02Z</time>
      </trkpt>
      <trkpt lat="49.0741" lon="-0.29577">
        <ele>110.6</ele>
        <time>2024-07-03T14:04:03Z</time>
      </trkpt>
      <trkpt lat="49.07414" lon="-0.29589">
        <ele>110.6</ele>
        <time>2024-07-03T14:04:04Z</time>
      </trkpt>
      <trkpt lat="49.07418" lon="-0.29601">
        <ele>110.6</ele>
        <time>2024-07-03T14:04:05Z</time>
      </trkpt>
      <trkpt lat="49.07423" lon="-0.29611">
        <ele>110.6</ele>
        <time>2024-07-03T14:04:06Z</time>
      </trkpt>
      <trkpt lat="49.0743" lon="-0.29618">
        <ele>110.6</ele>
        <time>2024-07-03T14:04:07Z</time>
      </trkpt>
      <trkpt lat="49.07438" lon="-0.29622">
        <ele>110.4</ele>
        <time>2024-07-03T14:04:08Z</time>
      </trkpt>
      <trkpt lat="49.07446" lon="-0.29624">
        <ele>110</ele>
        <time>2024-07-03T14:04:09Z</time>
      </trkpt>
      <trkpt lat="49.07454" lon="-0.29624">
        <ele>109.8</ele>
        <time>2024-07-03T14:04:10Z</time>
      </trkpt>
      <trkpt lat="49.07463" lon="-0.29624">
        <ele>109.6</ele>
        <time>2024-07-03T14:04:11Z</time>
      </trkpt>
      <trkpt lat="49.07472" lon="-0.29624">
        <ele>109.6</ele>
        <time>2024-07-03T14:04:12Z</time>
      </trkpt>
      <trkpt lat="49.0748" lon="-0.29626">
        <ele>109.4</ele>
        <time>2024-07-03T14:04:13Z</time>
      </trkpt>
      <trkpt lat="49.07489" lon="-0.29629">
        <ele>109.4</ele>
        <time>2024-07-03T14:04:14Z</time>
      </trkpt>
      <trkpt lat="49.07498" lon="-0.29632">
        <ele>109.4</ele>
        <time>2024-07-03T14:04:15Z</time>
      </trkpt>
      <trkpt lat="49.07507" lon="-0.29634">
        <ele>109.4</ele>
        <time>2024-07-03T14:04:16Z</time>
      </trkpt>
      <trkpt lat="49.07516" lon="-0.29636">
        <ele>109.4</ele>
        <time>2024-07-03T14:04:17Z</time>
      </trkpt>
      <trkpt lat="49.07525" lon="-0.29637">
        <ele>109.4</ele>
        <time>2024-07-03T14:04:18Z</time>
      </trkpt>
      <trkpt lat="49.07535" lon="-0.29636">
        <ele>109.4</ele>
        <time>2024-07-03T14:04:19Z</time>
      </trkpt>
      <trkpt lat="49.07543" lon="-0.29633">
        <ele>109.4</ele>
        <time>2024-07-03T14:04:20Z</time>
      </trkpt>
      <trkpt lat="49.07552" lon="-0.29626">
        <ele>109.6</ele>
        <time>2024-07-03T14:04:21Z</time>
      </trkpt>
      <trkpt lat="49.0756" lon="-0.29618">
        <ele>109.8</ele>
        <time>2024-07-03T14:04:22Z</time>
      </trkpt>
      <trkpt lat="49.07569" lon="-0.2961">
        <ele>110</ele>
        <time>2024-07-03T14:04:23Z</time>
      </trkpt>
      <trkpt lat="49.07577" lon="-0.29602">
        <ele>110.2</ele>
        <time>2024-07-03T14:04:24Z</time>
      </trkpt>
      <trkpt lat="49.07586" lon="-0.29593">
        <ele>110.6</ele>
        <time>2024-07-03T14:04:25Z</time>
      </trkpt>
      <trkpt lat="49.07595" lon="-0.29584">
        <ele>110.8</ele>
        <time>2024-07-03T14:04:26Z</time>
      </trkpt>
      <trkpt lat="49.07603" lon="-0.29575">
        <ele>110.8</ele>
        <time>2024-07-03T14:04:27Z</time>
      </trkpt>
      <trkpt lat="49.07612" lon="-0.29566">
        <ele>111.2</ele>
        <time>2024-07-03T14:04:28Z</time>
      </trkpt>
      <trkpt lat="49.0762" lon="-0.29558">
        <ele>111.4</ele>
        <time>2024-07-03T14:04:29Z</time>
      </trkpt>
      <trkpt lat="49.07628" lon="-0.2955">
        <ele>111.6</ele>
        <time>2024-07-03T14:04:30Z</time>
      </trkpt>
      <trkpt lat="49.07636" lon="-0.29542">
        <ele>111.6</ele>
        <time>2024-07-03T14:04:31Z</time>
      </trkpt>
      <trkpt lat="49.07644" lon="-0.29534">
        <ele>111.8</ele>
        <time>2024-07-03T14:04:32Z</time>
      </trkpt>
      <trkpt lat="49.07655" lon="-0.29521">
        <ele>111.8</ele>
        <time>2024-07-03T14:04:33Z</time>
      </trkpt>
      <trkpt lat="49.07665" lon="-0.29511">
        <ele>111.8</ele>
        <time>2024-07-03T14:04:34Z</time>
      </trkpt>
      <trkpt lat="49.07674" lon="-0.29501">
        <ele>111.8</ele>
        <time>2024-07-03T14:04:35Z</time>
      </trkpt>
      <trkpt lat="49.07683" lon="-0.29492">
        <ele>111.8</ele>
        <time>2024-07-03T14:04:36Z</time>
      </trkpt>
      <trkpt lat="49.07693" lon="-0.29481">
        <ele>112</ele>
        <time>2024-07-03T14:04:37Z</time>
      </trkpt>
      <trkpt lat="49.07702" lon="-0.29471">
        <ele>112</ele>
        <time>2024-07-03T14:04:38Z</time>
      </trkpt>
      <trkpt lat="49.07711" lon="-0.29461">
        <ele>112</ele>
        <time>2024-07-03T14:04:39Z</time>
      </trkpt>
      <trkpt lat="49.0772" lon="-0.2945">
        <ele>112</ele>
        <time>2024-07-03T14:04:40Z</time>
      </trkpt>
      <trkpt lat="49.07729" lon="-0.29439">
        <ele>112.2</ele>
        <time>2024-07-03T14:04:41Z</time>
      </trkpt>
      <trkpt lat="49.07738" lon="-0.29428">
        <ele>112.2</ele>
        <time>2024-07-03T14:04:42Z</time>
      </trkpt>
      <trkpt lat="49.07747" lon="-0.29417">
        <ele>112.2</ele>
        <time>2024-07-03T14:04:43Z</time>
      </trkpt>
      <trkpt lat="49.07755" lon="-0.29405">
        <ele>112.2</ele>
        <time>2024-07-03T14:04:44Z</time>
      </trkpt>
      <trkpt lat="49.07762" lon="-0.29393">
        <ele>112.4</ele>
        <time>2024-07-03T14:04:45Z</time>
      </trkpt>
      <trkpt lat="49.07769" lon="-0.29381">
        <ele>112.4</ele>
        <time>2024-07-03T14:04:46Z</time>
      </trkpt>
      <trkpt lat="49.07776" lon="-0.29369">
        <ele>112.4</ele>
        <time>2024-07-03T14:04:47Z</time>
      </trkpt>
      <trkpt lat="49.07782" lon="-0.29357">
        <ele>112.6</ele>
        <time>2024-07-03T14:04:48Z</time>
      </trkpt>
      <trkpt lat="49.07789" lon="-0.29345">
        <ele>112.6</ele>
        <time>2024-07-03T14:04:49Z</time>
      </trkpt>
      <trkpt lat="49.07796" lon="-0.29333">
        <ele>113</ele>
        <time>2024-07-03T14:04:50Z</time>
      </trkpt>
      <trkpt lat="49.07802" lon="-0.2932">
        <ele>113.2</ele>
        <time>2024-07-03T14:04:51Z</time>
      </trkpt>
      <trkpt lat="49.07809" lon="-0.29308">
        <ele>113.2</ele>
        <time>2024-07-03T14:04:52Z</time>
      </trkpt>
      <trkpt lat="49.07816" lon="-0.29296">
        <ele>113.2</ele>
        <time>2024-07-03T14:04:53Z</time>
      </trkpt>
      <trkpt lat="49.07823" lon="-0.29283">
        <ele>113</ele>
        <time>2024-07-03T14:04:54Z</time>
      </trkpt>
      <trkpt lat="49.07829" lon="-0.29271">
        <ele>112.6</ele>
        <time>2024-07-03T14:04:55Z</time>
      </trkpt>
      <trkpt lat="49.07836" lon="-0.29258">
        <ele>112.2</ele>
        <time>2024-07-03T14:04:56Z</time>
      </trkpt>
      <trkpt lat="49.07844" lon="-0.29244">
        <ele>112</ele>
        <time>2024-07-03T14:04:57Z</time>
      </trkpt>
      <trkpt lat="49.07851" lon="-0.29232">
        <ele>112</ele>
        <time>2024-07-03T14:04:58Z</time>
      </trkpt>
      <trkpt lat="49.07858" lon="-0.29219">
        <ele>111.8</ele>
        <time>2024-07-03T14:04:59Z</time>
      </trkpt>
      <trkpt lat="49.07865" lon="-0.29206">
        <ele>111.4</ele>
        <time>2024-07-03T14:05:00Z</time>
      </trkpt>
      <trkpt lat="49.07873" lon="-0.29193">
        <ele>111</ele>
        <time>2024-07-03T14:05:01Z</time>
      </trkpt>
      <trkpt lat="49.0788" lon="-0.29179">
        <ele>110.8</ele>
        <time>2024-07-03T14:05:02Z</time>
      </trkpt>
      <trkpt lat="49.07887" lon="-0.29166">
        <ele>110.6</ele>
        <time>2024-07-03T14:05:03Z</time>
      </trkpt>
      <trkpt lat="49.07895" lon="-0.29152">
        <ele>110.6</ele>
        <time>2024-07-03T14:05:04Z</time>
      </trkpt>
      <trkpt lat="49.07902" lon="-0.29139">
        <ele>110.6</ele>
        <time>2024-07-03T14:05:05Z</time>
      </trkpt>
      <trkpt lat="49.0791" lon="-0.29126">
        <ele>110.6</ele>
        <time>2024-07-03T14:05:06Z</time>
      </trkpt>
      <trkpt lat="49.07918" lon="-0.29112">
        <ele>110.4</ele>
        <time>2024-07-03T14:05:07Z</time>
      </trkpt>
      <trkpt lat="49.07926" lon="-0.29099">
        <ele>110.2</ele>
        <time>2024-07-03T14:05:08Z</time>
      </trkpt>
      <trkpt lat="49.07934" lon="-0.29086">
        <ele>109.8</ele>
        <time>2024-07-03T14:05:09Z</time>
      </trkpt>
      <trkpt lat="49.07942" lon="-0.29074">
        <ele>109.4</ele>
        <time>2024-07-03T14:05:10Z</time>
      </trkpt>
      <trkpt lat="49.0795" lon="-0.29061">
        <ele>109.2</ele>
        <time>2024-07-03T14:05:11Z</time>
      </trkpt>
      <trkpt lat="49.07958" lon="-0.29049">
        <ele>109.2</ele>
        <time>2024-07-03T14:05:12Z</time>
      </trkpt>
      <trkpt lat="49.07965" lon="-0.29036">
        <ele>109</ele>
        <time>2024-07-03T14:05:13Z</time>
      </trkpt>
      <trkpt lat="49.07973" lon="-0.29024">
        <ele>109</ele>
        <time>2024-07-03T14:05:14Z</time>
      </trkpt>
      <trkpt lat="49.07981" lon="-0.29012">
        <ele>108.8</ele>
        <time>2024-07-03T14:05:15Z</time>
      </trkpt>
      <trkpt lat="49.07988" lon="-0.29">
        <ele>108.6</ele>
        <time>2024-07-03T14:05:16Z</time>
      </trkpt>
      <trkpt lat="49.07996" lon="-0.28988">
        <ele>108.4</ele>
        <time>2024-07-03T14:05:17Z</time>
      </trkpt>
      <trkpt lat="49.08003" lon="-0.28976">
        <ele>108.2</ele>
        <time>2024-07-03T14:05:18Z</time>
      </trkpt>
      <trkpt lat="49.0801" lon="-0.28965">
        <ele>108</ele>
        <time>2024-07-03T14:05:19Z</time>
      </trkpt>
      <trkpt lat="49.08016" lon="-0.28952">
        <ele>107.8</ele>
        <time>2024-07-03T14:05:20Z</time>
      </trkpt>
      <trkpt lat="49.08023" lon="-0.2894">
        <ele>107.6</ele>
        <time>2024-07-03T14:05:21Z</time>
      </trkpt>
      <trkpt lat="49.08029" lon="-0.28927">
        <ele>107.4</ele>
        <time>2024-07-03T14:05:22Z</time>
      </trkpt>
      <trkpt lat="49.08034" lon="-0.28913">
        <ele>107.4</ele>
        <time>2024-07-03T14:05:23Z</time>
      </trkpt>
      <trkpt lat="49.08039" lon="-0.289">
        <ele>107.2</ele>
        <time>2024-07-03T14:05:24Z</time>
      </trkpt>
      <trkpt lat="49.08043" lon="-0.28886">
        <ele>107</ele>
        <time>2024-07-03T14:05:25Z</time>
      </trkpt>
      <trkpt lat="49.08047" lon="-0.28872">
        <ele>107</ele>
        <time>2024-07-03T14:05:26Z</time>
      </trkpt>
      <trkpt lat="49.08051" lon="-0.28858">
        <ele>107</ele>
        <time>2024-07-03T14:05:27Z</time>
      </trkpt>
      <trkpt lat="49.08056" lon="-0.28843">
        <ele>107.2</ele>
        <time>2024-07-03T14:05:28Z</time>
      </trkpt>
      <trkpt lat="49.0806" lon="-0.28828">
        <ele>107</ele>
        <time>2024-07-03T14:05:29Z</time>
      </trkpt>
      <trkpt lat="49.08064" lon="-0.28813">
        <ele>106.8</ele>
        <time>2024-07-03T14:05:30Z</time>
      </trkpt>
      <trkpt lat="49.08069" lon="-0.28798">
        <ele>106.6</ele>
        <time>2024-07-03T14:05:31Z</time>
      </trkpt>
      <trkpt lat="49.08073" lon="-0.28783">
        <ele>106.6</ele>
        <time>2024-07-03T14:05:32Z</time>
      </trkpt>
      <trkpt lat="49.08078" lon="-0.28768">
        <ele>106.4</ele>
        <time>2024-07-03T14:05:33Z</time>
      </trkpt>
      <trkpt lat="49.08082" lon="-0.28752">
        <ele>106</ele>
        <time>2024-07-03T14:05:34Z</time>
      </trkpt>
      <trkpt lat="49.08087" lon="-0.28737">
        <ele>105.8</ele>
        <time>2024-07-03T14:05:35Z</time>
      </trkpt>
      <trkpt lat="49.08092" lon="-0.28721">
        <ele>105.4</ele>
        <time>2024-07-03T14:05:36Z</time>
      </trkpt>
      <trkpt lat="49.08096" lon="-0.28704">
        <ele>105.2</ele>
        <time>2024-07-03T14:05:37Z</time>
      </trkpt>
      <trkpt lat="49.08101" lon="-0.28688">
        <ele>104.8</ele>
        <time>2024-07-03T14:05:38Z</time>
      </trkpt>
      <trkpt lat="49.08107" lon="-0.28673">
        <ele>104.4</ele>
        <time>2024-07-03T14:05:39Z</time>
      </trkpt>
      <trkpt lat="49.08111" lon="-0.28657">
        <ele>104.2</ele>
        <time>2024-07-03T14:05:40Z</time>
      </trkpt>
      <trkpt lat="49.08116" lon="-0.2864">
        <ele>103.8</ele>
        <time>2024-07-03T14:05:41Z</time>
      </trkpt>
      <trkpt lat="49.08121" lon="-0.28624">
        <ele>103.4</ele>
        <time>2024-07-03T14:05:42Z</time>
      </trkpt>
      <trkpt lat="49.08125" lon="-0.28608">
        <ele>103</ele>
        <time>2024-07-03T14:05:43Z</time>
      </trkpt>
      <trkpt lat="49.0813" lon="-0.28592">
        <ele>102.8</ele>
        <time>2024-07-03T14:05:44Z</time>
      </trkpt>
      <trkpt lat="49.08135" lon="-0.28577">
        <ele>102.4</ele>
        <time>2024-07-03T14:05:45Z</time>
      </trkpt>
      <trkpt lat="49.08139" lon="-0.28561">
        <ele>102.2</ele>
        <time>2024-07-03T14:05:46Z</time>
      </trkpt>
      <trkpt lat="49.08144" lon="-0.28545">
        <ele>102</ele>
        <time>2024-07-03T14:05:47Z</time>
      </trkpt>
      <trkpt lat="49.08149" lon="-0.2853">
        <ele>102</ele>
        <time>2024-07-03T14:05:48Z</time>
      </trkpt>
      <trkpt lat="49.08153" lon="-0.28514">
        <ele>101.8</ele>
        <time>2024-07-03T14:05:49Z</time>
      </trkpt>
      <trkpt lat="49.08158" lon="-0.28499">
        <ele>101.8</ele>
        <time>2024-07-03T14:05:50Z</time>
      </trkpt>
      <trkpt lat="49.08163" lon="-0.28484">
        <ele>101.8</ele>
        <time>2024-07-03T14:05:51Z</time>
      </trkpt>
      <trkpt lat="49.08168" lon="-0.28469">
        <ele>101.6</ele>
        <time>2024-07-03T14:05:52Z</time>
      </trkpt>
      <trkpt lat="49.08172" lon="-0.28454">
        <ele>101.4</ele>
        <time>2024-07-03T14:05:53Z</time>
      </trkpt>
      <trkpt lat="49.08176" lon="-0.28439">
        <ele>101.4</ele>
        <time>2024-07-03T14:05:54Z</time>
      </trkpt>
      <trkpt lat="49.0818" lon="-0.28424">
        <ele>101.4</ele>
        <time>2024-07-03T14:05:55Z</time>
      </trkpt>
      <trkpt lat="49.08184" lon="-0.28409">
        <ele>101.4</ele>
        <time>2024-07-03T14:05:56Z</time>
      </trkpt>
      <trkpt lat="49.08188" lon="-0.28394">
        <ele>101.4</ele>
        <time>2024-07-03T14:05:57Z</time>
      </trkpt>
      <trkpt lat="49.08193" lon="-0.2838">
        <ele>101.4</ele>
        <time>2024-07-03T14:05:58Z</time>
      </trkpt>
      <trkpt lat="49.08197" lon="-0.28366">
        <ele>101.4</ele>
        <time>2024-07-03T14:05:59Z</time>
      </trkpt>
      <trkpt lat="49.08201" lon="-0.28352">
        <ele>101.4</ele>
        <time>2024-07-03T14:06:00Z</time>
      </trkpt>
      <trkpt lat="49.08204" lon="-0.28337">
        <ele>101.6</ele>
        <time>2024-07-03T14:06:01Z</time>
      </trkpt>
      <trkpt lat="49.08207" lon="-0.28323">
        <ele>101.8</ele>
        <time>2024-07-03T14:06:02Z</time>
      </trkpt>
      <trkpt lat="49.08208" lon="-0.28308">
        <ele>102</ele>
        <time>2024-07-03T14:06:03Z</time>
      </trkpt>
      <trkpt lat="49.08209" lon="-0.28294">
        <ele>102</ele>
        <time>2024-07-03T14:06:04Z</time>
      </trkpt>
      <trkpt lat="49.08208" lon="-0.28281">
        <ele>102.2</ele>
        <time>2024-07-03T14:06:05Z</time>
      </trkpt>
      <trkpt lat="49.08208" lon="-0.28267">
        <ele>102.2</ele>
        <time>2024-07-03T14:06:06Z</time>
      </trkpt>
      <trkpt lat="49.08207" lon="-0.28255">
        <ele>102.4</ele>
        <time>2024-07-03T14:06:07Z</time>
      </trkpt>
      <trkpt lat="49.08206" lon="-0.28244">
        <ele>102.4</ele>
        <time>2024-07-03T14:06:08Z</time>
      </trkpt>
      <trkpt lat="49.08205" lon="-0.28233">
        <ele>102.4</ele>
        <time>2024-07-03T14:06:09Z</time>
      </trkpt>
      <trkpt lat="49.08205" lon="-0.28224">
        <ele>102.8</ele>
        <time>2024-07-03T14:06:10Z</time>
      </trkpt>
      <trkpt lat="49.08205" lon="-0.28216">
        <ele>103</ele>
        <time>2024-07-03T14:06:11Z</time>
      </trkpt>
      <trkpt lat="49.08205" lon="-0.28208">
        <ele>103.4</ele>
        <time>2024-07-03T14:06:12Z</time>
      </trkpt>
      <trkpt lat="49.08205" lon="-0.28201">
        <ele>103.8</ele>
        <time>2024-07-03T14:06:13Z</time>
      </trkpt>
      <trkpt lat="49.08204" lon="-0.28194">
        <ele>104</ele>
        <time>2024-07-03T14:06:14Z</time>
      </trkpt>
      <trkpt lat="49.08205" lon="-0.28187">
        <ele>104.2</ele>
        <time>2024-07-03T14:06:15Z</time>
      </trkpt>
      <trkpt lat="49.08204" lon="-0.28181">
        <ele>104.4</ele>
        <time>2024-07-03T14:06:16Z</time>
      </trkpt>
      <trkpt lat="49.08203" lon="-0.28174">
        <ele>104.4</ele>
        <time>2024-07-03T14:06:17Z</time>
      </trkpt>
      <trkpt lat="49.08202" lon="-0.28168">
        <ele>104.8</ele>
        <time>2024-07-03T14:06:18Z</time>
      </trkpt>
      <trkpt lat="49.08198" lon="-0.28163">
        <ele>105</ele>
        <time>2024-07-03T14:06:19Z</time>
      </trkpt>
      <trkpt lat="49.08195" lon="-0.28157">
        <ele>105</ele>
        <time>2024-07-03T14:06:20Z</time>
      </trkpt>
      <trkpt lat="49.08192" lon="-0.28151">
        <ele>105.2</ele>
        <time>2024-07-03T14:06:21Z</time>
      </trkpt>
      <trkpt lat="49.08189" lon="-0.28145">
        <ele>105.2</ele>
        <time>2024-07-03T14:06:22Z</time>
      </trkpt>
      <trkpt lat="49.08186" lon="-0.28138">
        <ele>105.2</ele>
        <time>2024-07-03T14:06:23Z</time>
      </trkpt>
      <trkpt lat="49.08183" lon="-0.28131">
        <ele>105.4</ele>
        <time>2024-07-03T14:06:24Z</time>
      </trkpt>
      <trkpt lat="49.0818" lon="-0.28122">
        <ele>105.4</ele>
        <time>2024-07-03T14:06:25Z</time>
      </trkpt>
      <trkpt lat="49.08178" lon="-0.28113">
        <ele>105.4</ele>
        <time>2024-07-03T14:06:26Z</time>
      </trkpt>
      <trkpt lat="49.08175" lon="-0.28103">
        <ele>105.6</ele>
        <time>2024-07-03T14:06:27Z</time>
      </trkpt>
      <trkpt lat="49.08173" lon="-0.28093">
        <ele>105.6</ele>
        <time>2024-07-03T14:06:28Z</time>
      </trkpt>
      <trkpt lat="49.0817" lon="-0.28084">
        <ele>105.8</ele>
        <time>2024-07-03T14:06:29Z</time>
      </trkpt>
      <trkpt lat="49.08168" lon="-0.28074">
        <ele>106</ele>
        <time>2024-07-03T14:06:30Z</time>
      </trkpt>
      <trkpt lat="49.08165" lon="-0.28066">
        <ele>106</ele>
        <time>2024-07-03T14:06:31Z</time>
      </trkpt>
      <trkpt lat="49.08163" lon="-0.28058">
        <ele>106.2</ele>
        <time>2024-07-03T14:06:32Z</time>
      </trkpt>
      <trkpt lat="49.0816" lon="-0.2805">
        <ele>106.4</ele>
        <time>2024-07-03T14:06:33Z</time>
      </trkpt>
      <trkpt lat="49.08158" lon="-0.28042">
        <ele>106.4</ele>
        <time>2024-07-03T14:06:34Z</time>
      </trkpt>
      <trkpt lat="49.08155" lon="-0.28035">
        <ele>106.6</ele>
        <time>2024-07-03T14:06:35Z</time>
      </trkpt>
      <trkpt lat="49.08152" lon="-0.28029">
        <ele>106.6</ele>
        <time>2024-07-03T14:06:36Z</time>
      </trkpt>
      <trkpt lat="49.08149" lon="-0.28022">
        <ele>106.6</ele>
        <time>2024-07-03T14:06:37Z</time>
      </trkpt>
      <trkpt lat="49.08146" lon="-0.28015">
        <ele>106.8</ele>
        <time>2024-07-03T14:06:38Z</time>
      </trkpt>
      <trkpt lat="49.08143" lon="-0.28008">
        <ele>106.8</ele>
        <time>2024-07-03T14:06:39Z</time>
      </trkpt>
      <trkpt lat="49.0814" lon="-0.28">
        <ele>106.8</ele>
        <time>2024-07-03T14:06:40Z</time>
      </trkpt>
      <trkpt lat="49.08137" lon="-0.27993">
        <ele>106.8</ele>
        <time>2024-07-03T14:06:41Z</time>
      </trkpt>
      <trkpt lat="49.08133" lon="-0.27984">
        <ele>106.8</ele>
        <time>2024-07-03T14:06:42Z</time>
      </trkpt>
      <trkpt lat="49.0813" lon="-0.27975">
        <ele>106.8</ele>
        <time>2024-07-03T14:06:43Z</time>
      </trkpt>
      <trkpt lat="49.08126" lon="-0.27965">
        <ele>106.8</ele>
        <time>2024-07-03T14:06:44Z</time>
      </trkpt>
      <trkpt lat="49.08122" lon="-0.27955">
        <ele>106.8</ele>
        <time>2024-07-03T14:06:45Z</time>
      </trkpt>
      <trkpt lat="49.08118" lon="-0.27945">
        <ele>106.8</ele>
        <time>2024-07-03T14:06:46Z</time>
      </trkpt>
      <trkpt lat="49.08114" lon="-0.27935">
        <ele>106.8</ele>
        <time>2024-07-03T14:06:47Z</time>
      </trkpt>
      <trkpt lat="49.08111" lon="-0.27924">
        <ele>106.8</ele>
        <time>2024-07-03T14:06:48Z</time>
      </trkpt>
      <trkpt lat="49.08108" lon="-0.27913">
        <ele>106.8</ele>
        <time>2024-07-03T14:06:49Z</time>
      </trkpt>
      <trkpt lat="49.08106" lon="-0.27901">
        <ele>106.6</ele>
        <time>2024-07-03T14:06:50Z</time>
      </trkpt>
      <trkpt lat="49.08103" lon="-0.2789">
        <ele>106.6</ele>
        <time>2024-07-03T14:06:51Z</time>
      </trkpt>
      <trkpt lat="49.081" lon="-0.27879">
        <ele>106.6</ele>
        <time>2024-07-03T14:06:52Z</time>
      </trkpt>
      <trkpt lat="49.08097" lon="-0.27867">
        <ele>106.6</ele>
        <time>2024-07-03T14:06:53Z</time>
      </trkpt>
      <trkpt lat="49.08095" lon="-0.27856">
        <ele>106.4</ele>
        <time>2024-07-03T14:06:54Z</time>
      </trkpt>
      <trkpt lat="49.08093" lon="-0.27844">
        <ele>106.2</ele>
        <time>2024-07-03T14:06:55Z</time>
      </trkpt>
      <trkpt lat="49.0809" lon="-0.27832">
        <ele>106</ele>
        <time>2024-07-03T14:06:56Z</time>
      </trkpt>
      <trkpt lat="49.08088" lon="-0.2782">
        <ele>105.6</ele>
        <time>2024-07-03T14:06:57Z</time>
      </trkpt>
      <trkpt lat="49.08086" lon="-0.27808">
        <ele>105.4</ele>
        <time>2024-07-03T14:06:58Z</time>
      </trkpt>
      <trkpt lat="49.08084" lon="-0.27797">
        <ele>105.2</ele>
        <time>2024-07-03T14:06:59Z</time>
      </trkpt>
      <trkpt lat="49.08082" lon="-0.27785">
        <ele>104.8</ele>
        <time>2024-07-03T14:07:00Z</time>
      </trkpt>
      <trkpt lat="49.0808" lon="-0.27773">
        <ele>104.6</ele>
        <time>2024-07-03T14:07:01Z</time>
      </trkpt>
      <trkpt lat="49.08078" lon="-0.27761">
        <ele>104.4</ele>
        <time>2024-07-03T14:07:02Z</time>
      </trkpt>
      <trkpt lat="49.08076" lon="-0.27751">
        <ele>104</ele>
        <time>2024-07-03T14:07:03Z</time>
      </trkpt>
      <trkpt lat="49.08073" lon="-0.2774">
        <ele>103.8</ele>
        <time>2024-07-03T14:07:04Z</time>
      </trkpt>
      <trkpt lat="49.08072" lon="-0.27729">
        <ele>103.8</ele>
        <time>2024-07-03T14:07:05Z</time>
      </trkpt>
      <trkpt lat="49.0807" lon="-0.27718">
        <ele>103.6</ele>
        <time>2024-07-03T14:07:06Z</time>
      </trkpt>
      <trkpt lat="49.08068" lon="-0.27706">
        <ele>103.6</ele>
        <time>2024-07-03T14:07:07Z</time>
      </trkpt>
      <trkpt lat="49.08067" lon="-0.27694">
        <ele>103.4</ele>
        <time>2024-07-03T14:07:08Z</time>
      </trkpt>
      <trkpt lat="49.08065" lon="-0.27682">
        <ele>103.4</ele>
        <time>2024-07-03T14:07:09Z</time>
      </trkpt>
      <trkpt lat="49.08064" lon="-0.27669">
        <ele>103.2</ele>
        <time>2024-07-03T14:07:10Z</time>
      </trkpt>
      <trkpt lat="49.08062" lon="-0.27657">
        <ele>102.8</ele>
        <time>2024-07-03T14:07:11Z</time>
      </trkpt>
      <trkpt lat="49.0806" lon="-0.27644">
        <ele>102.4</ele>
        <time>2024-07-03T14:07:12Z</time>
      </trkpt>
      <trkpt lat="49.08059" lon="-0.2763">
        <ele>101.8</ele>
        <time>2024-07-03T14:07:13Z</time>
      </trkpt>
      <trkpt lat="49.08057" lon="-0.27617">
        <ele>101.4</ele>
        <time>2024-07-03T14:07:14Z</time>
      </trkpt>
      <trkpt lat="49.08056" lon="-0.27604">
        <ele>101.2</ele>
        <time>2024-07-03T14:07:15Z</time>
      </trkpt>
      <trkpt lat="49.08054" lon="-0.27593">
        <ele>101</ele>
        <time>2024-07-03T14:07:16Z</time>
      </trkpt>
      <trkpt lat="49.08052" lon="-0.27581">
        <ele>101</ele>
        <time>2024-07-03T14:07:17Z</time>
      </trkpt>
      <trkpt lat="49.0805" lon="-0.2757">
        <ele>101</ele>
        <time>2024-07-03T14:07:18Z</time>
      </trkpt>
      <trkpt lat="49.08046" lon="-0.27559">
        <ele>100.8</ele>
        <time>2024-07-03T14:07:19Z</time>
      </trkpt>
      <trkpt lat="49.08041" lon="-0.27549">
        <ele>100.8</ele>
        <time>2024-07-03T14:07:20Z</time>
      </trkpt>
      <trkpt lat="49.08037" lon="-0.27537">
        <ele>100.8</ele>
        <time>2024-07-03T14:07:21Z</time>
      </trkpt>
      <trkpt lat="49.08033" lon="-0.27524">
        <ele>100.8</ele>
        <time>2024-07-03T14:07:22Z</time>
      </trkpt>
      <trkpt lat="49.08031" lon="-0.27511">
        <ele>100.8</ele>
        <time>2024-07-03T14:07:23Z</time>
      </trkpt>
      <trkpt lat="49.08028" lon="-0.27497">
        <ele>100.4</ele>
        <time>2024-07-03T14:07:24Z</time>
      </trkpt>
      <trkpt lat="49.08026" lon="-0.27482">
        <ele>99.8</ele>
        <time>2024-07-03T14:07:25Z</time>
      </trkpt>
      <trkpt lat="49.08024" lon="-0.27467">
        <ele>99.2</ele>
        <time>2024-07-03T14:07:26Z</time>
      </trkpt>
      <trkpt lat="49.08021" lon="-0.27453">
        <ele>99</ele>
        <time>2024-07-03T14:07:27Z</time>
      </trkpt>
      <trkpt lat="49.08019" lon="-0.27438">
        <ele>98.8</ele>
        <time>2024-07-03T14:07:28Z</time>
      </trkpt>
      <trkpt lat="49.08017" lon="-0.27423">
        <ele>98.6</ele>
        <time>2024-07-03T14:07:29Z</time>
      </trkpt>
      <trkpt lat="49.08015" lon="-0.27407">
        <ele>98.4</ele>
        <time>2024-07-03T14:07:30Z</time>
      </trkpt>
      <trkpt lat="49.08013" lon="-0.27392">
        <ele>98.2</ele>
        <time>2024-07-03T14:07:31Z</time>
      </trkpt>
      <trkpt lat="49.08011" lon="-0.27376">
        <ele>98</ele>
        <time>2024-07-03T14:07:32Z</time>
      </trkpt>
      <trkpt lat="49.08009" lon="-0.27361">
        <ele>97.8</ele>
        <time>2024-07-03T14:07:33Z</time>
      </trkpt>
      <trkpt lat="49.08008" lon="-0.27345">
        <ele>97.6</ele>
        <time>2024-07-03T14:07:34Z</time>
      </trkpt>
      <trkpt lat="49.08007" lon="-0.27328">
        <ele>97.4</ele>
        <time>2024-07-03T14:07:35Z</time>
      </trkpt>
      <trkpt lat="49.08008" lon="-0.27312">
        <ele>97.2</ele>
        <time>2024-07-03T14:07:36Z</time>
      </trkpt>
      <trkpt lat="49.0801" lon="-0.27295">
        <ele>97</ele>
        <time>2024-07-03T14:07:37Z</time>
      </trkpt>
      <trkpt lat="49.08014" lon="-0.27278">
        <ele>96.6</ele>
        <time>2024-07-03T14:07:38Z</time>
      </trkpt>
      <trkpt lat="49.08019" lon="-0.27262">
        <ele>96.2</ele>
        <time>2024-07-03T14:07:39Z</time>
      </trkpt>
      <trkpt lat="49.08025" lon="-0.27246">
        <ele>95.8</ele>
        <time>2024-07-03T14:07:40Z</time>
      </trkpt>
      <trkpt lat="49.08031" lon="-0.2723">
        <ele>95.4</ele>
        <time>2024-07-03T14:07:41Z</time>
      </trkpt>
      <trkpt lat="49.08039" lon="-0.27215">
        <ele>95.2</ele>
        <time>2024-07-03T14:07:42Z</time>
      </trkpt>
      <trkpt lat="49.08046" lon="-0.27201">
        <ele>95</ele>
        <time>2024-07-03T14:07:43Z</time>
      </trkpt>
      <trkpt lat="49.08054" lon="-0.27187">
        <ele>94.8</ele>
        <time>2024-07-03T14:07:44Z</time>
      </trkpt>
      <trkpt lat="49.08062" lon="-0.27172">
        <ele>94.4</ele>
        <time>2024-07-03T14:07:45Z</time>
      </trkpt>
      <trkpt lat="49.08071" lon="-0.27159">
        <ele>94</ele>
        <time>2024-07-03T14:07:46Z</time>
      </trkpt>
      <trkpt lat="49.08079" lon="-0.27146">
        <ele>93.4</ele>
        <time>2024-07-03T14:07:47Z</time>
      </trkpt>
      <trkpt lat="49.08087" lon="-0.27133">
        <ele>92.8</ele>
        <time>2024-07-03T14:07:48Z</time>
      </trkpt>
      <trkpt lat="49.08095" lon="-0.2712">
        <ele>92</ele>
        <time>2024-07-03T14:07:49Z</time>
      </trkpt>
      <trkpt lat="49.08102" lon="-0.27108">
        <ele>91.2</ele>
        <time>2024-07-03T14:07:50Z</time>
      </trkpt>
      <trkpt lat="49.08109" lon="-0.27095">
        <ele>90.6</ele>
        <time>2024-07-03T14:07:51Z</time>
      </trkpt>
      <trkpt lat="49.08116" lon="-0.27083">
        <ele>90.2</ele>
        <time>2024-07-03T14:07:52Z</time>
      </trkpt>
      <trkpt lat="49.08123" lon="-0.27071">
        <ele>90</ele>
        <time>2024-07-03T14:07:53Z</time>
      </trkpt>
      <trkpt lat="49.08129" lon="-0.27058">
        <ele>89.8</ele>
        <time>2024-07-03T14:07:54Z</time>
      </trkpt>
      <trkpt lat="49.08134" lon="-0.27045">
        <ele>89.6</ele>
        <time>2024-07-03T14:07:55Z</time>
      </trkpt>
      <trkpt lat="49.08139" lon="-0.27032">
        <ele>89.8</ele>
        <time>2024-07-03T14:07:56Z</time>
      </trkpt>
      <trkpt lat="49.08144" lon="-0.27017">
        <ele>90</ele>
        <time>2024-07-03T14:07:57Z</time>
      </trkpt>
      <trkpt lat="49.08149" lon="-0.27002">
        <ele>90.2</ele>
        <time>2024-07-03T14:07:58Z</time>
      </trkpt>
      <trkpt lat="49.08154" lon="-0.26986">
        <ele>90.4</ele>
        <time>2024-07-03T14:07:59Z</time>
      </trkpt>
      <trkpt lat="49.08158" lon="-0.2697">
        <ele>90.6</ele>
        <time>2024-07-03T14:08:00Z</time>
      </trkpt>
      <trkpt lat="49.08162" lon="-0.26953">
        <ele>90.6</ele>
        <time>2024-07-03T14:08:01Z</time>
      </trkpt>
      <trkpt lat="49.08166" lon="-0.26935">
        <ele>90.6</ele>
        <time>2024-07-03T14:08:02Z</time>
      </trkpt>
      <trkpt lat="49.08171" lon="-0.26917">
        <ele>90.2</ele>
        <time>2024-07-03T14:08:03Z</time>
      </trkpt>
      <trkpt lat="49.08176" lon="-0.26899">
        <ele>89.8</ele>
        <time>2024-07-03T14:08:04Z</time>
      </trkpt>
      <trkpt lat="49.0818" lon="-0.26881">
        <ele>89.2</ele>
        <time>2024-07-03T14:08:05Z</time>
      </trkpt>
      <trkpt lat="49.08185" lon="-0.26863">
        <ele>88.6</ele>
        <time>2024-07-03T14:08:06Z</time>
      </trkpt>
      <trkpt lat="49.0819" lon="-0.26845">
        <ele>88</ele>
        <time>2024-07-03T14:08:07Z</time>
      </trkpt>
      <trkpt lat="49.08194" lon="-0.26826">
        <ele>87.4</ele>
        <time>2024-07-03T14:08:08Z</time>
      </trkpt>
      <trkpt lat="49.08198" lon="-0.26807">
        <ele>86.8</ele>
        <time>2024-07-03T14:08:09Z</time>
      </trkpt>
      <trkpt lat="49.08203" lon="-0.26787">
        <ele>86.4</ele>
        <time>2024-07-03T14:08:10Z</time>
      </trkpt>
      <trkpt lat="49.08207" lon="-0.26768">
        <ele>85.8</ele>
        <time>2024-07-03T14:08:11Z</time>
      </trkpt>
      <trkpt lat="49.08211" lon="-0.26749">
        <ele>85</ele>
        <time>2024-07-03T14:08:12Z</time>
      </trkpt>
      <trkpt lat="49.08215" lon="-0.26729">
        <ele>84.2</ele>
        <time>2024-07-03T14:08:13Z</time>
      </trkpt>
      <trkpt lat="49.08219" lon="-0.26709">
        <ele>83.6</ele>
        <time>2024-07-03T14:08:14Z</time>
      </trkpt>
      <trkpt lat="49.08223" lon="-0.26689">
        <ele>82.8</ele>
        <time>2024-07-03T14:08:15Z</time>
      </trkpt>
      <trkpt lat="49.08227" lon="-0.26668">
        <ele>82.2</ele>
        <time>2024-07-03T14:08:16Z</time>
      </trkpt>
      <trkpt lat="49.08231" lon="-0.26647">
        <ele>81.2</ele>
        <time>2024-07-03T14:08:17Z</time>
      </trkpt>
      <trkpt lat="49.08236" lon="-0.26626">
        <ele>80</ele>
        <time>2024-07-03T14:08:18Z</time>
      </trkpt>
      <trkpt lat="49.0824" lon="-0.26605">
        <ele>79.4</ele>
        <time>2024-07-03T14:08:19Z</time>
      </trkpt>
      <trkpt lat="49.08244" lon="-0.26583">
        <ele>78.8</ele>
        <time>2024-07-03T14:08:20Z</time>
      </trkpt>
      <trkpt lat="49.08249" lon="-0.26562">
        <ele>78</ele>
        <time>2024-07-03T14:08:21Z</time>
      </trkpt>
      <trkpt lat="49.08253" lon="-0.2654">
        <ele>77.2</ele>
        <time>2024-07-03T14:08:22Z</time>
      </trkpt>
      <trkpt lat="49.08258" lon="-0.26518">
        <ele>76.6</ele>
        <time>2024-07-03T14:08:23Z</time>
      </trkpt>
      <trkpt lat="49.08263" lon="-0.26497">
        <ele>76</ele>
        <time>2024-07-03T14:08:24Z</time>
      </trkpt>
      <trkpt lat="49.08268" lon="-0.26475">
        <ele>75.6</ele>
        <time>2024-07-03T14:08:25Z</time>
      </trkpt>
      <trkpt lat="49.08274" lon="-0.26453">
        <ele>74.8</ele>
        <time>2024-07-03T14:08:26Z</time>
      </trkpt>
      <trkpt lat="49.08279" lon="-0.26431">
        <ele>74</ele>
        <time>2024-07-03T14:08:27Z</time>
      </trkpt>
      <trkpt lat="49.08285" lon="-0.26409">
        <ele>73.2</ele>
        <time>2024-07-03T14:08:28Z</time>
      </trkpt>
      <trkpt lat="49.08291" lon="-0.26387">
        <ele>72.6</ele>
        <time>2024-07-03T14:08:29Z</time>
      </trkpt>
      <trkpt lat="49.08297" lon="-0.26365">
        <ele>72.2</ele>
        <time>2024-07-03T14:08:30Z</time>
      </trkpt>
      <trkpt lat="49.08303" lon="-0.26343">
        <ele>71.8</ele>
        <time>2024-07-03T14:08:31Z</time>
      </trkpt>
      <trkpt lat="49.08309" lon="-0.26322">
        <ele>71.6</ele>
        <time>2024-07-03T14:08:32Z</time>
      </trkpt>
      <trkpt lat="49.08315" lon="-0.263">
        <ele>71</ele>
        <time>2024-07-03T14:08:33Z</time>
      </trkpt>
      <trkpt lat="49.08321" lon="-0.26278">
        <ele>70.4</ele>
        <time>2024-07-03T14:08:34Z</time>
      </trkpt>
      <trkpt lat="49.08328" lon="-0.26256">
        <ele>70</ele>
        <time>2024-07-03T14:08:35Z</time>
      </trkpt>
      <trkpt lat="49.08334" lon="-0.26234">
        <ele>69.8</ele>
        <time>2024-07-03T14:08:36Z</time>
      </trkpt>
      <trkpt lat="49.08341" lon="-0.26212">
        <ele>69.4</ele>
        <time>2024-07-03T14:08:37Z</time>
      </trkpt>
      <trkpt lat="49.08348" lon="-0.2619">
        <ele>69</ele>
        <time>2024-07-03T14:08:38Z</time>
      </trkpt>
      <trkpt lat="49.08354" lon="-0.26168">
        <ele>69</ele>
        <time>2024-07-03T14:08:39Z</time>
      </trkpt>
      <trkpt lat="49.08361" lon="-0.26146">
        <ele>68.8</ele>
        <time>2024-07-03T14:08:40Z</time>
      </trkpt>
      <trkpt lat="49.08367" lon="-0.26123">
        <ele>68.4</ele>
        <time>2024-07-03T14:08:41Z</time>
      </trkpt>
      <trkpt lat="49.08374" lon="-0.26101">
        <ele>67.8</ele>
        <time>2024-07-03T14:08:42Z</time>
      </trkpt>
      <trkpt lat="49.0838" lon="-0.26078">
        <ele>67.4</ele>
        <time>2024-07-03T14:08:43Z</time>
      </trkpt>
      <trkpt lat="49.08387" lon="-0.26055">
        <ele>67.2</ele>
        <time>2024-07-03T14:08:44Z</time>
      </trkpt>
      <trkpt lat="49.08393" lon="-0.26032">
        <ele>67</ele>
        <time>2024-07-03T14:08:45Z</time>
      </trkpt>
      <trkpt lat="49.084" lon="-0.2601">
        <ele>66.6</ele>
        <time>2024-07-03T14:08:46Z</time>
      </trkpt>
      <trkpt lat="49.08407" lon="-0.25987">
        <ele>65.8</ele>
        <time>2024-07-03T14:08:47Z</time>
      </trkpt>
      <trkpt lat="49.08413" lon="-0.25965">
        <ele>65.2</ele>
        <time>2024-07-03T14:08:48Z</time>
      </trkpt>
      <trkpt lat="49.0842" lon="-0.25944">
        <ele>64.6</ele>
        <time>2024-07-03T14:08:49Z</time>
      </trkpt>
      <trkpt lat="49.08426" lon="-0.25922">
        <ele>64.2</ele>
        <time>2024-07-03T14:08:50Z</time>
      </trkpt>
      <trkpt lat="49.08433" lon="-0.25899">
        <ele>63.6</ele>
        <time>2024-07-03T14:08:51Z</time>
      </trkpt>
      <trkpt lat="49.08439" lon="-0.25877">
        <ele>63.2</ele>
        <time>2024-07-03T14:08:52Z</time>
      </trkpt>
      <trkpt lat="49.08445" lon="-0.25855">
        <ele>63</ele>
        <time>2024-07-03T14:08:53Z</time>
      </trkpt>
      <trkpt lat="49.08452" lon="-0.25833">
        <ele>63</ele>
        <time>2024-07-03T14:08:54Z</time>
      </trkpt>
      <trkpt lat="49.08459" lon="-0.25811">
        <ele>62.8</ele>
        <time>2024-07-03T14:08:55Z</time>
      </trkpt>
      <trkpt lat="49.08466" lon="-0.25788">
        <ele>62.6</ele>
        <time>2024-07-03T14:08:56Z</time>
      </trkpt>
      <trkpt lat="49.08473" lon="-0.25767">
        <ele>61.8</ele>
        <time>2024-07-03T14:08:57Z</time>
      </trkpt>
      <trkpt lat="49.08479" lon="-0.25745">
        <ele>60.4</ele>
        <time>2024-07-03T14:08:58Z</time>
      </trkpt>
      <trkpt lat="49.08486" lon="-0.25723">
        <ele>58.8</ele>
        <time>2024-07-03T14:08:59Z</time>
      </trkpt>
      <trkpt lat="49.08492" lon="-0.25701">
        <ele>57.8</ele>
        <time>2024-07-03T14:09:00Z</time>
      </trkpt>
      <trkpt lat="49.08498" lon="-0.25679">
        <ele>57.2</ele>
        <time>2024-07-03T14:09:01Z</time>
      </trkpt>
      <trkpt lat="49.08503" lon="-0.25657">
        <ele>56.8</ele>
        <time>2024-07-03T14:09:02Z</time>
      </trkpt>
      <trkpt lat="49.08509" lon="-0.25635">
        <ele>56.8</ele>
        <time>2024-07-03T14:09:03Z</time>
      </trkpt>
      <trkpt lat="49.08516" lon="-0.25614">
        <ele>56.8</ele>
        <time>2024-07-03T14:09:04Z</time>
      </trkpt>
      <trkpt lat="49.08522" lon="-0.25593">
        <ele>56.8</ele>
        <time>2024-07-03T14:09:05Z</time>
      </trkpt>
      <trkpt lat="49.08528" lon="-0.25572">
        <ele>57</ele>
        <time>2024-07-03T14:09:06Z</time>
      </trkpt>
      <trkpt lat="49.08533" lon="-0.25551">
        <ele>57.4</ele>
        <time>2024-07-03T14:09:07Z</time>
      </trkpt>
      <trkpt lat="49.08539" lon="-0.25531">
        <ele>57.8</ele>
        <time>2024-07-03T14:09:08Z</time>
      </trkpt>
      <trkpt lat="49.08545" lon="-0.25511">
        <ele>58.2</ele>
        <time>2024-07-03T14:09:09Z</time>
      </trkpt>
      <trkpt lat="49.08551" lon="-0.2549">
        <ele>58.4</ele>
        <time>2024-07-03T14:09:10Z</time>
      </trkpt>
      <trkpt lat="49.08557" lon="-0.2547">
        <ele>58.6</ele>
        <time>2024-07-03T14:09:11Z</time>
      </trkpt>
      <trkpt lat="49.08562" lon="-0.2545">
        <ele>58.6</ele>
        <time>2024-07-03T14:09:12Z</time>
      </trkpt>
      <trkpt lat="49.08568" lon="-0.2543">
        <ele>58.8</ele>
        <time>2024-07-03T14:09:13Z</time>
      </trkpt>
      <trkpt lat="49.08574" lon="-0.2541">
        <ele>58.6</ele>
        <time>2024-07-03T14:09:14Z</time>
      </trkpt>
      <trkpt lat="49.0858" lon="-0.2539">
        <ele>58.6</ele>
        <time>2024-07-03T14:09:15Z</time>
      </trkpt>
      <trkpt lat="49.08586" lon="-0.2537">
        <ele>58.4</ele>
        <time>2024-07-03T14:09:16Z</time>
      </trkpt>
      <trkpt lat="49.08592" lon="-0.25351">
        <ele>58.2</ele>
        <time>2024-07-03T14:09:17Z</time>
      </trkpt>
      <trkpt lat="49.08597" lon="-0.25331">
        <ele>57.8</ele>
        <time>2024-07-03T14:09:18Z</time>
      </trkpt>
      <trkpt lat="49.08603" lon="-0.25312">
        <ele>57.8</ele>
        <time>2024-07-03T14:09:19Z</time>
      </trkpt>
      <trkpt lat="49.08609" lon="-0.25292">
        <ele>57.6</ele>
        <time>2024-07-03T14:09:20Z</time>
      </trkpt>
      <trkpt lat="49.08614" lon="-0.25273">
        <ele>57.6</ele>
        <time>2024-07-03T14:09:21Z</time>
      </trkpt>
      <trkpt lat="49.0862" lon="-0.25254">
        <ele>57.4</ele>
        <time>2024-07-03T14:09:22Z</time>
      </trkpt>
      <trkpt lat="49.08625" lon="-0.25235">
        <ele>57.4</ele>
        <time>2024-07-03T14:09:23Z</time>
      </trkpt>
      <trkpt lat="49.08631" lon="-0.25216">
        <ele>57.2</ele>
        <time>2024-07-03T14:09:24Z</time>
      </trkpt>
      <trkpt lat="49.08637" lon="-0.25197">
        <ele>56.8</ele>
        <time>2024-07-03T14:09:25Z</time>
      </trkpt>
      <trkpt lat="49.08642" lon="-0.25178">
        <ele>56.2</ele>
        <time>2024-07-03T14:09:26Z</time>
      </trkpt>
      <trkpt lat="49.08648" lon="-0.25159">
        <ele>55.2</ele>
        <time>2024-07-03T14:09:27Z</time>
      </trkpt>
      <trkpt lat="49.08654" lon="-0.2514">
        <ele>54.4</ele>
        <time>2024-07-03T14:09:28Z</time>
      </trkpt>
      <trkpt lat="49.08659" lon="-0.25121">
        <ele>54</ele>
        <time>2024-07-03T14:09:29Z</time>
      </trkpt>
      <trkpt lat="49.08664" lon="-0.25101">
        <ele>53.8</ele>
        <time>2024-07-03T14:09:30Z</time>
      </trkpt>
      <trkpt lat="49.0867" lon="-0.25082">
        <ele>53.6</ele>
        <time>2024-07-03T14:09:31Z</time>
      </trkpt>
      <trkpt lat="49.08675" lon="-0.25064">
        <ele>53.6</ele>
        <time>2024-07-03T14:09:32Z</time>
      </trkpt>
      <trkpt lat="49.08681" lon="-0.25045">
        <ele>53.6</ele>
        <time>2024-07-03T14:09:33Z</time>
      </trkpt>
      <trkpt lat="49.08686" lon="-0.25027">
        <ele>53.6</ele>
        <time>2024-07-03T14:09:34Z</time>
      </trkpt>
      <trkpt lat="49.08691" lon="-0.25008">
        <ele>53.6</ele>
        <time>2024-07-03T14:09:35Z</time>
      </trkpt>
      <trkpt lat="49.08697" lon="-0.2499">
        <ele>53.4</ele>
        <time>2024-07-03T14:09:36Z</time>
      </trkpt>
      <trkpt lat="49.08703" lon="-0.24972">
        <ele>53.4</ele>
        <time>2024-07-03T14:09:37Z</time>
      </trkpt>
      <trkpt lat="49.08709" lon="-0.24955">
        <ele>53.2</ele>
        <time>2024-07-03T14:09:38Z</time>
      </trkpt>
      <trkpt lat="49.08715" lon="-0.24937">
        <ele>53</ele>
        <time>2024-07-03T14:09:39Z</time>
      </trkpt>
      <trkpt lat="49.08721" lon="-0.24919">
        <ele>53</ele>
        <time>2024-07-03T14:09:40Z</time>
      </trkpt>
      <trkpt lat="49.08728" lon="-0.24902">
        <ele>52.6</ele>
        <time>2024-07-03T14:09:41Z</time>
      </trkpt>
      <trkpt lat="49.08735" lon="-0.24884">
        <ele>52.4</ele>
        <time>2024-07-03T14:09:42Z</time>
      </trkpt>
      <trkpt lat="49.08741" lon="-0.24866">
        <ele>52.2</ele>
        <time>2024-07-03T14:09:43Z</time>
      </trkpt>
      <trkpt lat="49.08748" lon="-0.24849">
        <ele>51.8</ele>
        <time>2024-07-03T14:09:44Z</time>
      </trkpt>
      <trkpt lat="49.08755" lon="-0.24832">
        <ele>51.4</ele>
        <time>2024-07-03T14:09:45Z</time>
      </trkpt>
      <trkpt lat="49.08761" lon="-0.24815">
        <ele>50.8</ele>
        <time>2024-07-03T14:09:46Z</time>
      </trkpt>
      <trkpt lat="49.08768" lon="-0.24797">
        <ele>50.2</ele>
        <time>2024-07-03T14:09:47Z</time>
      </trkpt>
      <trkpt lat="49.08775" lon="-0.2478">
        <ele>49.6</ele>
        <time>2024-07-03T14:09:48Z</time>
      </trkpt>
      <trkpt lat="49.08781" lon="-0.24763">
        <ele>49.2</ele>
        <time>2024-07-03T14:09:49Z</time>
      </trkpt>
      <trkpt lat="49.08788" lon="-0.24746">
        <ele>49</ele>
        <time>2024-07-03T14:09:50Z</time>
      </trkpt>
      <trkpt lat="49.08794" lon="-0.24729">
        <ele>48.4</ele>
        <time>2024-07-03T14:09:51Z</time>
      </trkpt>
      <trkpt lat="49.08801" lon="-0.24712">
        <ele>47.4</ele>
        <time>2024-07-03T14:09:52Z</time>
      </trkpt>
      <trkpt lat="49.08807" lon="-0.24695">
        <ele>46.8</ele>
        <time>2024-07-03T14:09:53Z</time>
      </trkpt>
      <trkpt lat="49.08814" lon="-0.24678">
        <ele>46.4</ele>
        <time>2024-07-03T14:09:54Z</time>
      </trkpt>
      <trkpt lat="49.08821" lon="-0.24661">
        <ele>46.2</ele>
        <time>2024-07-03T14:09:55Z</time>
      </trkpt>
      <trkpt lat="49.08827" lon="-0.24644">
        <ele>46.8</ele>
        <time>2024-07-03T14:09:56Z</time>
      </trkpt>
      <trkpt lat="49.08833" lon="-0.24627">
        <ele>47</ele>
        <time>2024-07-03T14:09:57Z</time>
      </trkpt>
      <trkpt lat="49.0884" lon="-0.24609">
        <ele>47.4</ele>
        <time>2024-07-03T14:09:58Z</time>
      </trkpt>
      <trkpt lat="49.08845" lon="-0.24591">
        <ele>47.6</ele>
        <time>2024-07-03T14:09:59Z</time>
      </trkpt>
      <trkpt lat="49.08851" lon="-0.24573">
        <ele>47.8</ele>
        <time>2024-07-03T14:10:00Z</time>
      </trkpt>
      <trkpt lat="49.08856" lon="-0.24554">
        <ele>48</ele>
        <time>2024-07-03T14:10:01Z</time>
      </trkpt>
      <trkpt lat="49.0886" lon="-0.24536">
        <ele>48.2</ele>
        <time>2024-07-03T14:10:02Z</time>
      </trkpt>
      <trkpt lat="49.08865" lon="-0.24517">
        <ele>48.4</ele>
        <time>2024-07-03T14:10:03Z</time>
      </trkpt>
      <trkpt lat="49.08869" lon="-0.24499">
        <ele>48.4</ele>
        <time>2024-07-03T14:10:04Z</time>
      </trkpt>
      <trkpt lat="49.08872" lon="-0.2448">
        <ele>48.4</ele>
        <time>2024-07-03T14:10:05Z</time>
      </trkpt>
      <trkpt lat="49.08876" lon="-0.24461">
        <ele>48.4</ele>
        <time>2024-07-03T14:10:06Z</time>
      </trkpt>
      <trkpt lat="49.08879" lon="-0.24442">
        <ele>48.2</ele>
        <time>2024-07-03T14:10:07Z</time>
      </trkpt>
      <trkpt lat="49.08881" lon="-0.24422">
        <ele>48.2</ele>
        <time>2024-07-03T14:10:08Z</time>
      </trkpt>
      <trkpt lat="49.08883" lon="-0.24402">
        <ele>48</ele>
        <time>2024-07-03T14:10:09Z</time>
      </trkpt>
      <trkpt lat="49.08885" lon="-0.24382">
        <ele>47.8</ele>
        <time>2024-07-03T14:10:10Z</time>
      </trkpt>
      <trkpt lat="49.08888" lon="-0.24362">
        <ele>47.6</ele>
        <time>2024-07-03T14:10:11Z</time>
      </trkpt>
      <trkpt lat="49.0889" lon="-0.24342">
        <ele>47.2</ele>
        <time>2024-07-03T14:10:12Z</time>
      </trkpt>
      <trkpt lat="49.08892" lon="-0.24323">
        <ele>46.8</ele>
        <time>2024-07-03T14:10:13Z</time>
      </trkpt>
      <trkpt lat="49.08894" lon="-0.24303">
        <ele>46.6</ele>
        <time>2024-07-03T14:10:14Z</time>
      </trkpt>
      <trkpt lat="49.08897" lon="-0.24284">
        <ele>46.4</ele>
        <time>2024-07-03T14:10:15Z</time>
      </trkpt>
      <trkpt lat="49.08899" lon="-0.24265">
        <ele>46</ele>
        <time>2024-07-03T14:10:16Z</time>
      </trkpt>
      <trkpt lat="49.08902" lon="-0.24246">
        <ele>45.6</ele>
        <time>2024-07-03T14:10:17Z</time>
      </trkpt>
      <trkpt lat="49.08906" lon="-0.24227">
        <ele>45.2</ele>
        <time>2024-07-03T14:10:18Z</time>
      </trkpt>
      <trkpt lat="49.0891" lon="-0.24208">
        <ele>44.8</ele>
        <time>2024-07-03T14:10:19Z</time>
      </trkpt>
      <trkpt lat="49.08915" lon="-0.2419">
        <ele>44.6</ele>
        <time>2024-07-03T14:10:20Z</time>
      </trkpt>
      <trkpt lat="49.0892" lon="-0.24171">
        <ele>44.2</ele>
        <time>2024-07-03T14:10:21Z</time>
      </trkpt>
      <trkpt lat="49.08925" lon="-0.24153">
        <ele>43.8</ele>
        <time>2024-07-03T14:10:22Z</time>
      </trkpt>
      <trkpt lat="49.0893" lon="-0.24134">
        <ele>43.4</ele>
        <time>2024-07-03T14:10:23Z</time>
      </trkpt>
      <trkpt lat="49.08935" lon="-0.24116">
        <ele>43.2</ele>
        <time>2024-07-03T14:10:24Z</time>
      </trkpt>
      <trkpt lat="49.0894" lon="-0.24098">
        <ele>43</ele>
        <time>2024-07-03T14:10:25Z</time>
      </trkpt>
      <trkpt lat="49.08945" lon="-0.2408">
        <ele>42.6</ele>
        <time>2024-07-03T14:10:26Z</time>
      </trkpt>
      <trkpt lat="49.0895" lon="-0.24063">
        <ele>42.6</ele>
        <time>2024-07-03T14:10:27Z</time>
      </trkpt>
      <trkpt lat="49.08954" lon="-0.24045">
        <ele>42.6</ele>
        <time>2024-07-03T14:10:28Z</time>
      </trkpt>
      <trkpt lat="49.08959" lon="-0.24028">
        <ele>42.6</ele>
        <time>2024-07-03T14:10:29Z</time>
      </trkpt>
      <trkpt lat="49.08963" lon="-0.24011">
        <ele>42.4</ele>
        <time>2024-07-03T14:10:30Z</time>
      </trkpt>
      <trkpt lat="49.08967" lon="-0.23994">
        <ele>42.4</ele>
        <time>2024-07-03T14:10:31Z</time>
      </trkpt>
      <trkpt lat="49.08971" lon="-0.23977">
        <ele>42.2</ele>
        <time>2024-07-03T14:10:32Z</time>
      </trkpt>
      <trkpt lat="49.08975" lon="-0.2396">
        <ele>42.2</ele>
        <time>2024-07-03T14:10:33Z</time>
      </trkpt>
      <trkpt lat="49.08977" lon="-0.23944">
        <ele>42.2</ele>
        <time>2024-07-03T14:10:34Z</time>
      </trkpt>
      <trkpt lat="49.08979" lon="-0.23928">
        <ele>42.2</ele>
        <time>2024-07-03T14:10:35Z</time>
      </trkpt>
      <trkpt lat="49.0898" lon="-0.23912">
        <ele>42.2</ele>
        <time>2024-07-03T14:10:36Z</time>
      </trkpt>
      <trkpt lat="49.0898" lon="-0.23896">
        <ele>42.4</ele>
        <time>2024-07-03T14:10:37Z</time>
      </trkpt>
      <trkpt lat="49.08978" lon="-0.23881">
        <ele>42.2</ele>
        <time>2024-07-03T14:10:38Z</time>
      </trkpt>
      <trkpt lat="49.08975" lon="-0.23866">
        <ele>42.2</ele>
        <time>2024-07-03T14:10:39Z</time>
      </trkpt>
      <trkpt lat="49.08971" lon="-0.23851">
        <ele>42.2</ele>
        <time>2024-07-03T14:10:40Z</time>
      </trkpt>
      <trkpt lat="49.08968" lon="-0.23837">
        <ele>42</ele>
        <time>2024-07-03T14:10:41Z</time>
      </trkpt>
      <trkpt lat="49.08964" lon="-0.23822">
        <ele>41.8</ele>
        <time>2024-07-03T14:10:42Z</time>
      </trkpt>
      <trkpt lat="49.0896" lon="-0.23808">
        <ele>41.6</ele>
        <time>2024-07-03T14:10:43Z</time>
      </trkpt>
      <trkpt lat="49.08958" lon="-0.23793">
        <ele>41.4</ele>
        <time>2024-07-03T14:10:44Z</time>
      </trkpt>
      <trkpt lat="49.08955" lon="-0.23779">
        <ele>41.2</ele>
        <time>2024-07-03T14:10:45Z</time>
      </trkpt>
      <trkpt lat="49.08954" lon="-0.23764">
        <ele>41</ele>
        <time>2024-07-03T14:10:46Z</time>
      </trkpt>
      <trkpt lat="49.08953" lon="-0.23749">
        <ele>41</ele>
        <time>2024-07-03T14:10:47Z</time>
      </trkpt>
      <trkpt lat="49.08952" lon="-0.23734">
        <ele>41</ele>
        <time>2024-07-03T14:10:48Z</time>
      </trkpt>
      <trkpt lat="49.08952" lon="-0.23721">
        <ele>41.2</ele>
        <time>2024-07-03T14:10:49Z</time>
      </trkpt>
      <trkpt lat="49.08952" lon="-0.23708">
        <ele>41.4</ele>
        <time>2024-07-03T14:10:50Z</time>
      </trkpt>
      <trkpt lat="49.08953" lon="-0.23697">
        <ele>41.6</ele>
        <time>2024-07-03T14:10:51Z</time>
      </trkpt>
      <trkpt lat="49.08956" lon="-0.23687">
        <ele>41.6</ele>
        <time>2024-07-03T14:10:52Z</time>
      </trkpt>
      <trkpt lat="49.08962" lon="-0.2368">
        <ele>41.6</ele>
        <time>2024-07-03T14:10:53Z</time>
      </trkpt>
      <trkpt lat="49.08968" lon="-0.23674">
        <ele>41.8</ele>
        <time>2024-07-03T14:10:54Z</time>
      </trkpt>
      <trkpt lat="49.08976" lon="-0.23671">
        <ele>41.8</ele>
        <time>2024-07-03T14:10:55Z</time>
      </trkpt>
      <trkpt lat="49.08984" lon="-0.23669">
        <ele>41.8</ele>
        <time>2024-07-03T14:10:56Z</time>
      </trkpt>
      <trkpt lat="49.08993" lon="-0.23666">
        <ele>41.8</ele>
        <time>2024-07-03T14:10:57Z</time>
      </trkpt>
      <trkpt lat="49.09002" lon="-0.23662">
        <ele>41.8</ele>
        <time>2024-07-03T14:10:58Z</time>
      </trkpt>
      <trkpt lat="49.09011" lon="-0.23659">
        <ele>41.8</ele>
        <time>2024-07-03T14:10:59Z</time>
      </trkpt>
      <trkpt lat="49.0902" lon="-0.23655">
        <ele>41.8</ele>
        <time>2024-07-03T14:11:00Z</time>
      </trkpt>
      <trkpt lat="49.09029" lon="-0.23652">
        <ele>41.6</ele>
        <time>2024-07-03T14:11:01Z</time>
      </trkpt>
      <trkpt lat="49.09037" lon="-0.23649">
        <ele>41.6</ele>
        <time>2024-07-03T14:11:02Z</time>
      </trkpt>
      <trkpt lat="49.09046" lon="-0.23647">
        <ele>41.4</ele>
        <time>2024-07-03T14:11:03Z</time>
      </trkpt>
      <trkpt lat="49.09056" lon="-0.23645">
        <ele>41.2</ele>
        <time>2024-07-03T14:11:04Z</time>
      </trkpt>
      <trkpt lat="49.09065" lon="-0.23644">
        <ele>41</ele>
        <time>2024-07-03T14:11:05Z</time>
      </trkpt>
      <trkpt lat="49.09075" lon="-0.23643">
        <ele>41</ele>
        <time>2024-07-03T14:11:06Z</time>
      </trkpt>
      <trkpt lat="49.09084" lon="-0.23641">
        <ele>40.8</ele>
        <time>2024-07-03T14:11:07Z</time>
      </trkpt>
      <trkpt lat="49.09093" lon="-0.23638">
        <ele>40.8</ele>
        <time>2024-07-03T14:11:08Z</time>
      </trkpt>
      <trkpt lat="49.09102" lon="-0.23632">
        <ele>41</ele>
        <time>2024-07-03T14:11:09Z</time>
      </trkpt>
      <trkpt lat="49.09109" lon="-0.23623">
        <ele>41.4</ele>
        <time>2024-07-03T14:11:10Z</time>
      </trkpt>
      <trkpt lat="49.09114" lon="-0.23611">
        <ele>41.8</ele>
        <time>2024-07-03T14:11:11Z</time>
      </trkpt>
      <trkpt lat="49.09118" lon="-0.23598">
        <ele>42</ele>
        <time>2024-07-03T14:11:12Z</time>
      </trkpt>
      <trkpt lat="49.09121" lon="-0.23585">
        <ele>42.2</ele>
        <time>2024-07-03T14:11:13Z</time>
      </trkpt>
      <trkpt lat="49.09123" lon="-0.2357">
        <ele>42.4</ele>
        <time>2024-07-03T14:11:14Z</time>
      </trkpt>
      <trkpt lat="49.09125" lon="-0.23555">
        <ele>42.4</ele>
        <time>2024-07-03T14:11:15Z</time>
      </trkpt>
      <trkpt lat="49.09126" lon="-0.2354">
        <ele>42.4</ele>
        <time>2024-07-03T14:11:16Z</time>
      </trkpt>
      <trkpt lat="49.09127" lon="-0.23525">
        <ele>42.2</ele>
        <time>2024-07-03T14:11:17Z</time>
      </trkpt>
      <trkpt lat="49.09128" lon="-0.23509">
        <ele>42.2</ele>
        <time>2024-07-03T14:11:18Z</time>
      </trkpt>
      <trkpt lat="49.09128" lon="-0.23493">
        <ele>42.2</ele>
        <time>2024-07-03T14:11:19Z</time>
      </trkpt>
      <trkpt lat="49.09129" lon="-0.23477">
        <ele>42.2</ele>
        <time>2024-07-03T14:11:20Z</time>
      </trkpt>
      <trkpt lat="49.0913" lon="-0.23462">
        <ele>42.2</ele>
        <time>2024-07-03T14:11:21Z</time>
      </trkpt>
      <trkpt lat="49.09131" lon="-0.23447">
        <ele>42.2</ele>
        <time>2024-07-03T14:11:22Z</time>
      </trkpt>
      <trkpt lat="49.09132" lon="-0.23432">
        <ele>42.2</ele>
        <time>2024-07-03T14:11:23Z</time>
      </trkpt>
      <trkpt lat="49.09133" lon="-0.23417">
        <ele>42.2</ele>
        <time>2024-07-03T14:11:24Z</time>
      </trkpt>
      <trkpt lat="49.09133" lon="-0.23402">
        <ele>42.2</ele>
        <time>2024-07-03T14:11:25Z</time>
      </trkpt>
      <trkpt lat="49.09134" lon="-0.23387">
        <ele>42.2</ele>
        <time>2024-07-03T14:11:26Z</time>
      </trkpt>
      <trkpt lat="49.09134" lon="-0.23373">
        <ele>42.2</ele>
        <time>2024-07-03T14:11:27Z</time>
      </trkpt>
      <trkpt lat="49.09135" lon="-0.23358">
        <ele>42.2</ele>
        <time>2024-07-03T14:11:28Z</time>
      </trkpt>
      <trkpt lat="49.09135" lon="-0.23343">
        <ele>42.2</ele>
        <time>2024-07-03T14:11:29Z</time>
      </trkpt>
      <trkpt lat="49.09136" lon="-0.23329">
        <ele>42.2</ele>
        <time>2024-07-03T14:11:30Z</time>
      </trkpt>
      <trkpt lat="49.09136" lon="-0.23315">
        <ele>42.2</ele>
        <time>2024-07-03T14:11:31Z</time>
      </trkpt>
      <trkpt lat="49.09137" lon="-0.23301">
        <ele>42.2</ele>
        <time>2024-07-03T14:11:32Z</time>
      </trkpt>
      <trkpt lat="49.09137" lon="-0.23288">
        <ele>42.2</ele>
        <time>2024-07-03T14:11:33Z</time>
      </trkpt>
      <trkpt lat="49.09138" lon="-0.23274">
        <ele>42</ele>
        <time>2024-07-03T14:11:34Z</time>
      </trkpt>
      <trkpt lat="49.09138" lon="-0.2326">
        <ele>42</ele>
        <time>2024-07-03T14:11:35Z</time>
      </trkpt>
      <trkpt lat="49.09139" lon="-0.23247">
        <ele>41.8</ele>
        <time>2024-07-03T14:11:36Z</time>
      </trkpt>
      <trkpt lat="49.0914" lon="-0.23234">
        <ele>41.8</ele>
        <time>2024-07-03T14:11:37Z</time>
      </trkpt>
      <trkpt lat="49.0914" lon="-0.23221">
        <ele>41.6</ele>
        <time>2024-07-03T14:11:38Z</time>
      </trkpt>
      <trkpt lat="49.0914" lon="-0.23209">
        <ele>41.6</ele>
        <time>2024-07-03T14:11:39Z</time>
      </trkpt>
      <trkpt lat="49.0914" lon="-0.23197">
        <ele>41.6</ele>
        <time>2024-07-03T14:11:40Z</time>
      </trkpt>
      <trkpt lat="49.0914" lon="-0.23185">
        <ele>41.6</ele>
        <time>2024-07-03T14:11:41Z</time>
      </trkpt>
      <trkpt lat="49.09141" lon="-0.23173">
        <ele>41.6</ele>
        <time>2024-07-03T14:11:42Z</time>
      </trkpt>
      <trkpt lat="49.09141" lon="-0.23161">
        <ele>41.8</ele>
        <time>2024-07-03T14:11:43Z</time>
      </trkpt>
      <trkpt lat="49.09142" lon="-0.2315">
        <ele>41.8</ele>
        <time>2024-07-03T14:11:44Z</time>
      </trkpt>
      <trkpt lat="49.09142" lon="-0.23138">
        <ele>42</ele>
        <time>2024-07-03T14:11:45Z</time>
      </trkpt>
      <trkpt lat="49.09142" lon="-0.23126">
        <ele>42</ele>
        <time>2024-07-03T14:11:46Z</time>
      </trkpt>
      <trkpt lat="49.09142" lon="-0.23115">
        <ele>42.2</ele>
        <time>2024-07-03T14:11:47Z</time>
      </trkpt>
      <trkpt lat="49.09142" lon="-0.23103">
        <ele>42.2</ele>
        <time>2024-07-03T14:11:48Z</time>
      </trkpt>
      <trkpt lat="49.09143" lon="-0.23092">
        <ele>42.2</ele>
        <time>2024-07-03T14:11:49Z</time>
      </trkpt>
      <trkpt lat="49.09143" lon="-0.2308">
        <ele>42.2</ele>
        <time>2024-07-03T14:11:50Z</time>
      </trkpt>
      <trkpt lat="49.09143" lon="-0.23069">
        <ele>42.2</ele>
        <time>2024-07-03T14:11:51Z</time>
      </trkpt>
      <trkpt lat="49.09143" lon="-0.23057">
        <ele>42.4</ele>
        <time>2024-07-03T14:11:52Z</time>
      </trkpt>
      <trkpt lat="49.09144" lon="-0.23046">
        <ele>42.2</ele>
        <time>2024-07-03T14:11:53Z</time>
      </trkpt>
      <trkpt lat="49.09144" lon="-0.23034">
        <ele>42.2</ele>
        <time>2024-07-03T14:11:54Z</time>
      </trkpt>
      <trkpt lat="49.09144" lon="-0.23023">
        <ele>42.4</ele>
        <time>2024-07-03T14:11:55Z</time>
      </trkpt>
      <trkpt lat="49.09145" lon="-0.23011">
        <ele>42.4</ele>
        <time>2024-07-03T14:11:56Z</time>
      </trkpt>
      <trkpt lat="49.09145" lon="-0.23">
        <ele>42.4</ele>
        <time>2024-07-03T14:11:57Z</time>
      </trkpt>
      <trkpt lat="49.09146" lon="-0.22988">
        <ele>42.4</ele>
        <time>2024-07-03T14:11:58Z</time>
      </trkpt>
      <trkpt lat="49.09146" lon="-0.22976">
        <ele>42.4</ele>
        <time>2024-07-03T14:11:59Z</time>
      </trkpt>
      <trkpt lat="49.09146" lon="-0.22965">
        <ele>42.4</ele>
        <time>2024-07-03T14:12:00Z</time>
      </trkpt>
      <trkpt lat="49.09146" lon="-0.22953">
        <ele>42.6</ele>
        <time>2024-07-03T14:12:01Z</time>
      </trkpt>
      <trkpt lat="49.09146" lon="-0.22941">
        <ele>42.6</ele>
        <time>2024-07-03T14:12:02Z</time>
      </trkpt>
      <trkpt lat="49.09147" lon="-0.22929">
        <ele>42.6</ele>
        <time>2024-07-03T14:12:03Z</time>
      </trkpt>
      <trkpt lat="49.09147" lon="-0.22918">
        <ele>42.6</ele>
        <time>2024-07-03T14:12:04Z</time>
      </trkpt>
      <trkpt lat="49.09147" lon="-0.22906">
        <ele>42.6</ele>
        <time>2024-07-03T14:12:05Z</time>
      </trkpt>
      <trkpt lat="49.09148" lon="-0.22894">
        <ele>42.6</ele>
        <time>2024-07-03T14:12:06Z</time>
      </trkpt>
      <trkpt lat="49.09148" lon="-0.22883">
        <ele>42.6</ele>
        <time>2024-07-03T14:12:07Z</time>
      </trkpt>
      <trkpt lat="49.09148" lon="-0.22871">
        <ele>42.4</ele>
        <time>2024-07-03T14:12:08Z</time>
      </trkpt>
      <trkpt lat="49.09149" lon="-0.22859">
        <ele>42.4</ele>
        <time>2024-07-03T14:12:09Z</time>
      </trkpt>
      <trkpt lat="49.09149" lon="-0.22848">
        <ele>42.4</ele>
        <time>2024-07-03T14:12:10Z</time>
      </trkpt>
      <trkpt lat="49.09149" lon="-0.22837">
        <ele>42.4</ele>
        <time>2024-07-03T14:12:11Z</time>
      </trkpt>
      <trkpt lat="49.0915" lon="-0.22825">
        <ele>42.2</ele>
        <time>2024-07-03T14:12:12Z</time>
      </trkpt>
      <trkpt lat="49.0915" lon="-0.22814">
        <ele>42.4</ele>
        <time>2024-07-03T14:12:13Z</time>
      </trkpt>
      <trkpt lat="49.0915" lon="-0.22803">
        <ele>42.4</ele>
        <time>2024-07-03T14:12:14Z</time>
      </trkpt>
      <trkpt lat="49.0915" lon="-0.22791">
        <ele>42.6</ele>
        <time>2024-07-03T14:12:15Z</time>
      </trkpt>
      <trkpt lat="49.0915" lon="-0.22779">
        <ele>42.6</ele>
        <time>2024-07-03T14:12:16Z</time>
      </trkpt>
      <trkpt lat="49.09151" lon="-0.22768">
        <ele>42.8</ele>
        <time>2024-07-03T14:12:17Z</time>
      </trkpt>
      <trkpt lat="49.09151" lon="-0.22756">
        <ele>42.8</ele>
        <time>2024-07-03T14:12:18Z</time>
      </trkpt>
      <trkpt lat="49.09151" lon="-0.22743">
        <ele>43</ele>
        <time>2024-07-03T14:12:19Z</time>
      </trkpt>
      <trkpt lat="49.09152" lon="-0.22731">
        <ele>43</ele>
        <time>2024-07-03T14:12:20Z</time>
      </trkpt>
      <trkpt lat="49.09152" lon="-0.22719">
        <ele>43</ele>
        <time>2024-07-03T14:12:21Z</time>
      </trkpt>
      <trkpt lat="49.09152" lon="-0.22706">
        <ele>42.8</ele>
        <time>2024-07-03T14:12:22Z</time>
      </trkpt>
      <trkpt lat="49.09153" lon="-0.22693">
        <ele>42.8</ele>
        <time>2024-07-03T14:12:23Z</time>
      </trkpt>
      <trkpt lat="49.09154" lon="-0.22679">
        <ele>43</ele>
        <time>2024-07-03T14:12:24Z</time>
      </trkpt>
      <trkpt lat="49.09154" lon="-0.22666">
        <ele>43</ele>
        <time>2024-07-03T14:12:25Z</time>
      </trkpt>
      <trkpt lat="49.09155" lon="-0.22652">
        <ele>43</ele>
        <time>2024-07-03T14:12:26Z</time>
      </trkpt>
      <trkpt lat="49.09155" lon="-0.22637">
        <ele>43</ele>
        <time>2024-07-03T14:12:27Z</time>
      </trkpt>
      <trkpt lat="49.09156" lon="-0.22622">
        <ele>43</ele>
        <time>2024-07-03T14:12:28Z</time>
      </trkpt>
      <trkpt lat="49.09156" lon="-0.22607">
        <ele>43.2</ele>
        <time>2024-07-03T14:12:29Z</time>
      </trkpt>
      <trkpt lat="49.09157" lon="-0.22592">
        <ele>43.2</ele>
        <time>2024-07-03T14:12:30Z</time>
      </trkpt>
      <trkpt lat="49.09157" lon="-0.22576">
        <ele>43</ele>
        <time>2024-07-03T14:12:31Z</time>
      </trkpt>
      <trkpt lat="49.09158" lon="-0.2256">
        <ele>43</ele>
        <time>2024-07-03T14:12:32Z</time>
      </trkpt>
      <trkpt lat="49.09158" lon="-0.22544">
        <ele>43</ele>
        <time>2024-07-03T14:12:33Z</time>
      </trkpt>
      <trkpt lat="49.09158" lon="-0.22528">
        <ele>42.8</ele>
        <time>2024-07-03T14:12:34Z</time>
      </trkpt>
      <trkpt lat="49.09159" lon="-0.22512">
        <ele>42.8</ele>
        <time>2024-07-03T14:12:35Z</time>
      </trkpt>
      <trkpt lat="49.09159" lon="-0.22496">
        <ele>42.6</ele>
        <time>2024-07-03T14:12:36Z</time>
      </trkpt>
      <trkpt lat="49.0916" lon="-0.2248">
        <ele>42.6</ele>
        <time>2024-07-03T14:12:37Z</time>
      </trkpt>
      <trkpt lat="49.0916" lon="-0.22464">
        <ele>42.6</ele>
        <time>2024-07-03T14:12:38Z</time>
      </trkpt>
      <trkpt lat="49.09161" lon="-0.22449">
        <ele>42.6</ele>
        <time>2024-07-03T14:12:39Z</time>
      </trkpt>
      <trkpt lat="49.09161" lon="-0.22433">
        <ele>42.6</ele>
        <time>2024-07-03T14:12:40Z</time>
      </trkpt>
      <trkpt lat="49.09162" lon="-0.22418">
        <ele>42.6</ele>
        <time>2024-07-03T14:12:41Z</time>
      </trkpt>
      <trkpt lat="49.09163" lon="-0.22403">
        <ele>42.6</ele>
        <time>2024-07-03T14:12:42Z</time>
      </trkpt>
      <trkpt lat="49.09163" lon="-0.22388">
        <ele>42.6</ele>
        <time>2024-07-03T14:12:43Z</time>
      </trkpt>
      <trkpt lat="49.09164" lon="-0.22373">
        <ele>42.2</ele>
        <time>2024-07-03T14:12:44Z</time>
      </trkpt>
      <trkpt lat="49.09164" lon="-0.22359">
        <ele>41.8</ele>
        <time>2024-07-03T14:12:45Z</time>
      </trkpt>
      <trkpt lat="49.09165" lon="-0.22343">
        <ele>41.8</ele>
        <time>2024-07-03T14:12:46Z</time>
      </trkpt>
      <trkpt lat="49.09166" lon="-0.22328">
        <ele>41.6</ele>
        <time>2024-07-03T14:12:47Z</time>
      </trkpt>
      <trkpt lat="49.09168" lon="-0.22312">
        <ele>41.6</ele>
        <time>2024-07-03T14:12:48Z</time>
      </trkpt>
      <trkpt lat="49.09169" lon="-0.22296">
        <ele>41.6</ele>
        <time>2024-07-03T14:12:49Z</time>
      </trkpt>
      <trkpt lat="49.09171" lon="-0.2228">
        <ele>41.8</ele>
        <time>2024-07-03T14:12:50Z</time>
      </trkpt>
      <trkpt lat="49.09173" lon="-0.22264">
        <ele>41.8</ele>
        <time>2024-07-03T14:12:51Z</time>
      </trkpt>
      <trkpt lat="49.09176" lon="-0.22247">
        <ele>42</ele>
        <time>2024-07-03T14:12:52Z</time>
      </trkpt>
      <trkpt lat="49.09178" lon="-0.22231">
        <ele>41.8</ele>
        <time>2024-07-03T14:12:53Z</time>
      </trkpt>
      <trkpt lat="49.09181" lon="-0.22215">
        <ele>42</ele>
        <time>2024-07-03T14:12:54Z</time>
      </trkpt>
      <trkpt lat="49.09184" lon="-0.22198">
        <ele>42</ele>
        <time>2024-07-03T14:12:55Z</time>
      </trkpt>
      <trkpt lat="49.09187" lon="-0.22182">
        <ele>42</ele>
        <time>2024-07-03T14:12:56Z</time>
      </trkpt>
      <trkpt lat="49.0919" lon="-0.22165">
        <ele>42</ele>
        <time>2024-07-03T14:12:57Z</time>
      </trkpt>
      <trkpt lat="49.09194" lon="-0.22149">
        <ele>41.8</ele>
        <time>2024-07-03T14:12:58Z</time>
      </trkpt>
      <trkpt lat="49.09197" lon="-0.22132">
        <ele>41.8</ele>
        <time>2024-07-03T14:12:59Z</time>
      </trkpt>
      <trkpt lat="49.09201" lon="-0.22116">
        <ele>41.6</ele>
        <time>2024-07-03T14:13:00Z</time>
      </trkpt>
      <trkpt lat="49.09204" lon="-0.22099">
        <ele>41.6</ele>
        <time>2024-07-03T14:13:01Z</time>
      </trkpt>
      <trkpt lat="49.09208" lon="-0.22083">
        <ele>41.4</ele>
        <time>2024-07-03T14:13:02Z</time>
      </trkpt>
      <trkpt lat="49.09212" lon="-0.22067">
        <ele>41.2</ele>
        <time>2024-07-03T14:13:03Z</time>
      </trkpt>
      <trkpt lat="49.09215" lon="-0.22052">
        <ele>41.2</ele>
        <time>2024-07-03T14:13:04Z</time>
      </trkpt>
      <trkpt lat="49.09219" lon="-0.22036">
        <ele>41.2</ele>
        <time>2024-07-03T14:13:05Z</time>
      </trkpt>
      <trkpt lat="49.09223" lon="-0.22021">
        <ele>41</ele>
        <time>2024-07-03T14:13:06Z</time>
      </trkpt>
      <trkpt lat="49.09226" lon="-0.22006">
        <ele>41</ele>
        <time>2024-07-03T14:13:07Z</time>
      </trkpt>
      <trkpt lat="49.09229" lon="-0.2199">
        <ele>41</ele>
        <time>2024-07-03T14:13:08Z</time>
      </trkpt>
      <trkpt lat="49.09232" lon="-0.21975">
        <ele>41</ele>
        <time>2024-07-03T14:13:09Z</time>
      </trkpt>
      <trkpt lat="49.09235" lon="-0.2196">
        <ele>41</ele>
        <time>2024-07-03T14:13:10Z</time>
      </trkpt>
      <trkpt lat="49.09238" lon="-0.21946">
        <ele>41</ele>
        <time>2024-07-03T14:13:11Z</time>
      </trkpt>
      <trkpt lat="49.09241" lon="-0.21931">
        <ele>41</ele>
        <time>2024-07-03T14:13:12Z</time>
      </trkpt>
      <trkpt lat="49.09244" lon="-0.21916">
        <ele>41.2</ele>
        <time>2024-07-03T14:13:13Z</time>
      </trkpt>
      <trkpt lat="49.09247" lon="-0.21901">
        <ele>41.2</ele>
        <time>2024-07-03T14:13:14Z</time>
      </trkpt>
      <trkpt lat="49.0925" lon="-0.21886">
        <ele>41.4</ele>
        <time>2024-07-03T14:13:15Z</time>
      </trkpt>
      <trkpt lat="49.09253" lon="-0.21871">
        <ele>41.4</ele>
        <time>2024-07-03T14:13:16Z</time>
      </trkpt>
      <trkpt lat="49.09256" lon="-0.21856">
        <ele>41.6</ele>
        <time>2024-07-03T14:13:17Z</time>
      </trkpt>
      <trkpt lat="49.09258" lon="-0.21841">
        <ele>41.8</ele>
        <time>2024-07-03T14:13:18Z</time>
      </trkpt>
      <trkpt lat="49.09261" lon="-0.21825">
        <ele>41.8</ele>
        <time>2024-07-03T14:13:19Z</time>
      </trkpt>
      <trkpt lat="49.09263" lon="-0.21809">
        <ele>42</ele>
        <time>2024-07-03T14:13:20Z</time>
      </trkpt>
      <trkpt lat="49.09265" lon="-0.21792">
        <ele>41.8</ele>
        <time>2024-07-03T14:13:21Z</time>
      </trkpt>
      <trkpt lat="49.09267" lon="-0.21776">
        <ele>41.8</ele>
        <time>2024-07-03T14:13:22Z</time>
      </trkpt>
      <trkpt lat="49.09269" lon="-0.21759">
        <ele>41.8</ele>
        <time>2024-07-03T14:13:23Z</time>
      </trkpt>
      <trkpt lat="49.09272" lon="-0.21742">
        <ele>41.8</ele>
        <time>2024-07-03T14:13:24Z</time>
      </trkpt>
      <trkpt lat="49.09274" lon="-0.21725">
        <ele>41.8</ele>
        <time>2024-07-03T14:13:25Z</time>
      </trkpt>
      <trkpt lat="49.09276" lon="-0.21708">
        <ele>41.8</ele>
        <time>2024-07-03T14:13:26Z</time>
      </trkpt>
      <trkpt lat="49.09278" lon="-0.21691">
        <ele>41.6</ele>
        <time>2024-07-03T14:13:27Z</time>
      </trkpt>
      <trkpt lat="49.09279" lon="-0.21674">
        <ele>41.6</ele>
        <time>2024-07-03T14:13:28Z</time>
      </trkpt>
      <trkpt lat="49.09281" lon="-0.21657">
        <ele>41.4</ele>
        <time>2024-07-03T14:13:29Z</time>
      </trkpt>
      <trkpt lat="49.09283" lon="-0.2164">
        <ele>41.2</ele>
        <time>2024-07-03T14:13:30Z</time>
      </trkpt>
      <trkpt lat="49.09285" lon="-0.21623">
        <ele>41.2</ele>
        <time>2024-07-03T14:13:31Z</time>
      </trkpt>
      <trkpt lat="49.09287" lon="-0.21606">
        <ele>41</ele>
        <time>2024-07-03T14:13:32Z</time>
      </trkpt>
      <trkpt lat="49.09289" lon="-0.21589">
        <ele>41</ele>
        <time>2024-07-03T14:13:33Z</time>
      </trkpt>
      <trkpt lat="49.09291" lon="-0.21571">
        <ele>40.8</ele>
        <time>2024-07-03T14:13:34Z</time>
      </trkpt>
      <trkpt lat="49.09293" lon="-0.21554">
        <ele>40.6</ele>
        <time>2024-07-03T14:13:35Z</time>
      </trkpt>
      <trkpt lat="49.09295" lon="-0.21537">
        <ele>40.6</ele>
        <time>2024-07-03T14:13:36Z</time>
      </trkpt>
      <trkpt lat="49.09297" lon="-0.21519">
        <ele>40.6</ele>
        <time>2024-07-03T14:13:37Z</time>
      </trkpt>
      <trkpt lat="49.09298" lon="-0.21502">
        <ele>40.4</ele>
        <time>2024-07-03T14:13:38Z</time>
      </trkpt>
      <trkpt lat="49.093" lon="-0.21485">
        <ele>40.2</ele>
        <time>2024-07-03T14:13:39Z</time>
      </trkpt>
      <trkpt lat="49.09302" lon="-0.21468">
        <ele>40</ele>
        <time>2024-07-03T14:13:40Z</time>
      </trkpt>
      <trkpt lat="49.09304" lon="-0.21451">
        <ele>40</ele>
        <time>2024-07-03T14:13:41Z</time>
      </trkpt>
      <trkpt lat="49.09306" lon="-0.21434">
        <ele>39.8</ele>
        <time>2024-07-03T14:13:42Z</time>
      </trkpt>
      <trkpt lat="49.09308" lon="-0.21418">
        <ele>39.6</ele>
        <time>2024-07-03T14:13:43Z</time>
      </trkpt>
      <trkpt lat="49.0931" lon="-0.21401">
        <ele>39.2</ele>
        <time>2024-07-03T14:13:44Z</time>
      </trkpt>
      <trkpt lat="49.09312" lon="-0.21385">
        <ele>38.8</ele>
        <time>2024-07-03T14:13:45Z</time>
      </trkpt>
      <trkpt lat="49.09313" lon="-0.21368">
        <ele>38.8</ele>
        <time>2024-07-03T14:13:46Z</time>
      </trkpt>
      <trkpt lat="49.09315" lon="-0.21351">
        <ele>38.6</ele>
        <time>2024-07-03T14:13:47Z</time>
      </trkpt>
      <trkpt lat="49.09317" lon="-0.21333">
        <ele>38.6</ele>
        <time>2024-07-03T14:13:48Z</time>
      </trkpt>
      <trkpt lat="49.09319" lon="-0.21316">
        <ele>38.6</ele>
        <time>2024-07-03T14:13:49Z</time>
      </trkpt>
      <trkpt lat="49.0932" lon="-0.21299">
        <ele>38.6</ele>
        <time>2024-07-03T14:13:50Z</time>
      </trkpt>
      <trkpt lat="49.09322" lon="-0.21281">
        <ele>38.6</ele>
        <time>2024-07-03T14:13:51Z</time>
      </trkpt>
      <trkpt lat="49.09324" lon="-0.21264">
        <ele>38.4</ele>
        <time>2024-07-03T14:13:52Z</time>
      </trkpt>
      <trkpt lat="49.09326" lon="-0.21247">
        <ele>38.4</ele>
        <time>2024-07-03T14:13:53Z</time>
      </trkpt>
      <trkpt lat="49.09328" lon="-0.2123">
        <ele>38.4</ele>
        <time>2024-07-03T14:13:54Z</time>
      </trkpt>
      <trkpt lat="49.0933" lon="-0.21213">
        <ele>38.4</ele>
        <time>2024-07-03T14:13:55Z</time>
      </trkpt>
      <trkpt lat="49.09333" lon="-0.21196">
        <ele>38.2</ele>
        <time>2024-07-03T14:13:56Z</time>
      </trkpt>
      <trkpt lat="49.09336" lon="-0.21179">
        <ele>38</ele>
        <time>2024-07-03T14:13:57Z</time>
      </trkpt>
      <trkpt lat="49.0934" lon="-0.21163">
        <ele>37.8</ele>
        <time>2024-07-03T14:13:58Z</time>
      </trkpt>
      <trkpt lat="49.09344" lon="-0.21146">
        <ele>37.6</ele>
        <time>2024-07-03T14:13:59Z</time>
      </trkpt>
      <trkpt lat="49.0935" lon="-0.21131">
        <ele>37.6</ele>
        <time>2024-07-03T14:14:00Z</time>
      </trkpt>
      <trkpt lat="49.09357" lon="-0.21116">
        <ele>37</ele>
        <time>2024-07-03T14:14:01Z</time>
      </trkpt>
      <trkpt lat="49.09364" lon="-0.21103">
        <ele>36.2</ele>
        <time>2024-07-03T14:14:02Z</time>
      </trkpt>
      <trkpt lat="49.09372" lon="-0.21091">
        <ele>35.2</ele>
        <time>2024-07-03T14:14:03Z</time>
      </trkpt>
      <trkpt lat="49.0938" lon="-0.2108">
        <ele>34.8</ele>
        <time>2024-07-03T14:14:04Z</time>
      </trkpt>
      <trkpt lat="49.09389" lon="-0.21069">
        <ele>34.4</ele>
        <time>2024-07-03T14:14:05Z</time>
      </trkpt>
      <trkpt lat="49.09397" lon="-0.21058">
        <ele>34.2</ele>
        <time>2024-07-03T14:14:06Z</time>
      </trkpt>
      <trkpt lat="49.09406" lon="-0.21047">
        <ele>34.2</ele>
        <time>2024-07-03T14:14:07Z</time>
      </trkpt>
      <trkpt lat="49.09414" lon="-0.21037">
        <ele>34.2</ele>
        <time>2024-07-03T14:14:08Z</time>
      </trkpt>
      <trkpt lat="49.09423" lon="-0.21026">
        <ele>34.2</ele>
        <time>2024-07-03T14:14:09Z</time>
      </trkpt>
      <trkpt lat="49.09431" lon="-0.21015">
        <ele>34.4</ele>
        <time>2024-07-03T14:14:10Z</time>
      </trkpt>
      <trkpt lat="49.09439" lon="-0.21004">
        <ele>34.8</ele>
        <time>2024-07-03T14:14:11Z</time>
      </trkpt>
      <trkpt lat="49.09448" lon="-0.20993">
        <ele>35</ele>
        <time>2024-07-03T14:14:12Z</time>
      </trkpt>
      <trkpt lat="49.09457" lon="-0.20982">
        <ele>35.2</ele>
        <time>2024-07-03T14:14:13Z</time>
      </trkpt>
      <trkpt lat="49.09465" lon="-0.20971">
        <ele>35.4</ele>
        <time>2024-07-03T14:14:14Z</time>
      </trkpt>
      <trkpt lat="49.09474" lon="-0.2096">
        <ele>35.4</ele>
        <time>2024-07-03T14:14:15Z</time>
      </trkpt>
      <trkpt lat="49.09482" lon="-0.20949">
        <ele>35.2</ele>
        <time>2024-07-03T14:14:16Z</time>
      </trkpt>
      <trkpt lat="49.09491" lon="-0.20938">
        <ele>34.6</ele>
        <time>2024-07-03T14:14:17Z</time>
      </trkpt>
      <trkpt lat="49.095" lon="-0.20927">
        <ele>34</ele>
        <time>2024-07-03T14:14:18Z</time>
      </trkpt>
      <trkpt lat="49.09509" lon="-0.20916">
        <ele>33.6</ele>
        <time>2024-07-03T14:14:19Z</time>
      </trkpt>
      <trkpt lat="49.09518" lon="-0.20906">
        <ele>33.4</ele>
        <time>2024-07-03T14:14:20Z</time>
      </trkpt>
      <trkpt lat="49.09526" lon="-0.20895">
        <ele>33.4</ele>
        <time>2024-07-03T14:14:21Z</time>
      </trkpt>
      <trkpt lat="49.09535" lon="-0.20884">
        <ele>33.4</ele>
        <time>2024-07-03T14:14:22Z</time>
      </trkpt>
      <trkpt lat="49.09544" lon="-0.20873">
        <ele>33.4</ele>
        <time>2024-07-03T14:14:23Z</time>
      </trkpt>
      <trkpt lat="49.09553" lon="-0.20861">
        <ele>33.6</ele>
        <time>2024-07-03T14:14:24Z</time>
      </trkpt>
      <trkpt lat="49.09562" lon="-0.2085">
        <ele>33.8</ele>
        <time>2024-07-03T14:14:25Z</time>
      </trkpt>
      <trkpt lat="49.09571" lon="-0.20839">
        <ele>33.8</ele>
        <time>2024-07-03T14:14:26Z</time>
      </trkpt>
      <trkpt lat="49.09579" lon="-0.20827">
        <ele>34</ele>
        <time>2024-07-03T14:14:27Z</time>
      </trkpt>
      <trkpt lat="49.09588" lon="-0.20815">
        <ele>34.2</ele>
        <time>2024-07-03T14:14:28Z</time>
      </trkpt>
      <trkpt lat="49.09597" lon="-0.20804">
        <ele>34.2</ele>
        <time>2024-07-03T14:14:29Z</time>
      </trkpt>
      <trkpt lat="49.09606" lon="-0.20792">
        <ele>34.4</ele>
        <time>2024-07-03T14:14:30Z</time>
      </trkpt>
      <trkpt lat="49.09615" lon="-0.20781">
        <ele>34.4</ele>
        <time>2024-07-03T14:14:31Z</time>
      </trkpt>
      <trkpt lat="49.09624" lon="-0.20769">
        <ele>34.2</ele>
        <time>2024-07-03T14:14:32Z</time>
      </trkpt>
      <trkpt lat="49.09633" lon="-0.20758">
        <ele>34.2</ele>
        <time>2024-07-03T14:14:33Z</time>
      </trkpt>
      <trkpt lat="49.09642" lon="-0.20748">
        <ele>34</ele>
        <time>2024-07-03T14:14:34Z</time>
      </trkpt>
      <trkpt lat="49.0965" lon="-0.20737">
        <ele>33.8</ele>
        <time>2024-07-03T14:14:35Z</time>
      </trkpt>
      <trkpt lat="49.09659" lon="-0.20726">
        <ele>33.6</ele>
        <time>2024-07-03T14:14:36Z</time>
      </trkpt>
      <trkpt lat="49.09667" lon="-0.20715">
        <ele>33.4</ele>
        <time>2024-07-03T14:14:37Z</time>
      </trkpt>
      <trkpt lat="49.09676" lon="-0.20704">
        <ele>33.2</ele>
        <time>2024-07-03T14:14:38Z</time>
      </trkpt>
      <trkpt lat="49.09685" lon="-0.20693">
        <ele>32.8</ele>
        <time>2024-07-03T14:14:39Z</time>
      </trkpt>
      <trkpt lat="49.09693" lon="-0.20682">
        <ele>32.4</ele>
        <time>2024-07-03T14:14:40Z</time>
      </trkpt>
      <trkpt lat="49.09702" lon="-0.2067">
        <ele>32</ele>
        <time>2024-07-03T14:14:41Z</time>
      </trkpt>
      <trkpt lat="49.0971" lon="-0.20659">
        <ele>31.8</ele>
        <time>2024-07-03T14:14:42Z</time>
      </trkpt>
      <trkpt lat="49.09719" lon="-0.20648">
        <ele>31.8</ele>
        <time>2024-07-03T14:14:43Z</time>
      </trkpt>
      <trkpt lat="49.09728" lon="-0.20637">
        <ele>31.6</ele>
        <time>2024-07-03T14:14:44Z</time>
      </trkpt>
      <trkpt lat="49.09737" lon="-0.20625">
        <ele>31.6</ele>
        <time>2024-07-03T14:14:45Z</time>
      </trkpt>
      <trkpt lat="49.09745" lon="-0.20614">
        <ele>31.6</ele>
        <time>2024-07-03T14:14:46Z</time>
      </trkpt>
      <trkpt lat="49.09754" lon="-0.20603">
        <ele>31.6</ele>
        <time>2024-07-03T14:14:47Z</time>
      </trkpt>
      <trkpt lat="49.09763" lon="-0.20592">
        <ele>31.6</ele>
        <time>2024-07-03T14:14:48Z</time>
      </trkpt>
      <trkpt lat="49.09771" lon="-0.20581">
        <ele>31.6</ele>
        <time>2024-07-03T14:14:49Z</time>
      </trkpt>
      <trkpt lat="49.0978" lon="-0.2057">
        <ele>31.8</ele>
        <time>2024-07-03T14:14:50Z</time>
      </trkpt>
      <trkpt lat="49.09789" lon="-0.20559">
        <ele>32</ele>
        <time>2024-07-03T14:14:51Z</time>
      </trkpt>
      <trkpt lat="49.09798" lon="-0.20548">
        <ele>32.2</ele>
        <time>2024-07-03T14:14:52Z</time>
      </trkpt>
      <trkpt lat="49.09807" lon="-0.20538">
        <ele>32.4</ele>
        <time>2024-07-03T14:14:53Z</time>
      </trkpt>
      <trkpt lat="49.09817" lon="-0.20528">
        <ele>32.6</ele>
        <time>2024-07-03T14:14:54Z</time>
      </trkpt>
      <trkpt lat="49.09826" lon="-0.2052">
        <ele>32.8</ele>
        <time>2024-07-03T14:14:55Z</time>
      </trkpt>
      <trkpt lat="49.09836" lon="-0.20512">
        <ele>33</ele>
        <time>2024-07-03T14:14:56Z</time>
      </trkpt>
      <trkpt lat="49.09846" lon="-0.20504">
        <ele>33.2</ele>
        <time>2024-07-03T14:14:57Z</time>
      </trkpt>
      <trkpt lat="49.09856" lon="-0.20498">
        <ele>33.4</ele>
        <time>2024-07-03T14:14:58Z</time>
      </trkpt>
      <trkpt lat="49.09865" lon="-0.20491">
        <ele>33.6</ele>
        <time>2024-07-03T14:14:59Z</time>
      </trkpt>
      <trkpt lat="49.09875" lon="-0.20485">
        <ele>33.6</ele>
        <time>2024-07-03T14:15:00Z</time>
      </trkpt>
      <trkpt lat="49.09885" lon="-0.20479">
        <ele>33.6</ele>
        <time>2024-07-03T14:15:01Z</time>
      </trkpt>
      <trkpt lat="49.09894" lon="-0.20473">
        <ele>33.4</ele>
        <time>2024-07-03T14:15:02Z</time>
      </trkpt>
      <trkpt lat="49.09904" lon="-0.20467">
        <ele>33.4</ele>
        <time>2024-07-03T14:15:03Z</time>
      </trkpt>
      <trkpt lat="49.09914" lon="-0.20461">
        <ele>33.2</ele>
        <time>2024-07-03T14:15:04Z</time>
      </trkpt>
      <trkpt lat="49.09923" lon="-0.20455">
        <ele>33.2</ele>
        <time>2024-07-03T14:15:05Z</time>
      </trkpt>
      <trkpt lat="49.09933" lon="-0.20449">
        <ele>33.4</ele>
        <time>2024-07-03T14:15:06Z</time>
      </trkpt>
      <trkpt lat="49.09943" lon="-0.20443">
        <ele>33.6</ele>
        <time>2024-07-03T14:15:07Z</time>
      </trkpt>
      <trkpt lat="49.09954" lon="-0.20437">
        <ele>33.6</ele>
        <time>2024-07-03T14:15:08Z</time>
      </trkpt>
      <trkpt lat="49.09964" lon="-0.20431">
        <ele>33.6</ele>
        <time>2024-07-03T14:15:09Z</time>
      </trkpt>
      <trkpt lat="49.09974" lon="-0.20424">
        <ele>33.6</ele>
        <time>2024-07-03T14:15:10Z</time>
      </trkpt>
      <trkpt lat="49.09985" lon="-0.20417">
        <ele>33.6</ele>
        <time>2024-07-03T14:15:11Z</time>
      </trkpt>
      <trkpt lat="49.09995" lon="-0.20411">
        <ele>33.6</ele>
        <time>2024-07-03T14:15:12Z</time>
      </trkpt>
      <trkpt lat="49.10006" lon="-0.20404">
        <ele>33.6</ele>
        <time>2024-07-03T14:15:13Z</time>
      </trkpt>
      <trkpt lat="49.10016" lon="-0.20398">
        <ele>33.6</ele>
        <time>2024-07-03T14:15:14Z</time>
      </trkpt>
      <trkpt lat="49.10026" lon="-0.20391">
        <ele>33.6</ele>
        <time>2024-07-03T14:15:15Z</time>
      </trkpt>
      <trkpt lat="49.10036" lon="-0.20385">
        <ele>33.6</ele>
        <time>2024-07-03T14:15:16Z</time>
      </trkpt>
      <trkpt lat="49.10046" lon="-0.20378">
        <ele>33.6</ele>
        <time>2024-07-03T14:15:17Z</time>
      </trkpt>
      <trkpt lat="49.10056" lon="-0.20372">
        <ele>33.6</ele>
        <time>2024-07-03T14:15:18Z</time>
      </trkpt>
      <trkpt lat="49.10066" lon="-0.20365">
        <ele>33.6</ele>
        <time>2024-07-03T14:15:19Z</time>
      </trkpt>
      <trkpt lat="49.10076" lon="-0.20359">
        <ele>33.4</ele>
        <time>2024-07-03T14:15:20Z</time>
      </trkpt>
      <trkpt lat="49.10086" lon="-0.20352">
        <ele>33</ele>
        <time>2024-07-03T14:15:21Z</time>
      </trkpt>
      <trkpt lat="49.10097" lon="-0.20346">
        <ele>33</ele>
        <time>2024-07-03T14:15:22Z</time>
      </trkpt>
      <trkpt lat="49.10107" lon="-0.2034">
        <ele>32.8</ele>
        <time>2024-07-03T14:15:23Z</time>
      </trkpt>
      <trkpt lat="49.10117" lon="-0.20333">
        <ele>32.8</ele>
        <time>2024-07-03T14:15:24Z</time>
      </trkpt>
      <trkpt lat="49.10127" lon="-0.20327">
        <ele>32.8</ele>
        <time>2024-07-03T14:15:25Z</time>
      </trkpt>
      <trkpt lat="49.10137" lon="-0.2032">
        <ele>32.8</ele>
        <time>2024-07-03T14:15:26Z</time>
      </trkpt>
      <trkpt lat="49.10148" lon="-0.20314">
        <ele>32.8</ele>
        <time>2024-07-03T14:15:27Z</time>
      </trkpt>
      <trkpt lat="49.10158" lon="-0.20307">
        <ele>32.8</ele>
        <time>2024-07-03T14:15:28Z</time>
      </trkpt>
      <trkpt lat="49.10168" lon="-0.20301">
        <ele>32.8</ele>
        <time>2024-07-03T14:15:29Z</time>
      </trkpt>
      <trkpt lat="49.10179" lon="-0.20294">
        <ele>32.8</ele>
        <time>2024-07-03T14:15:30Z</time>
      </trkpt>
      <trkpt lat="49.10189" lon="-0.20286">
        <ele>32.6</ele>
        <time>2024-07-03T14:15:31Z</time>
      </trkpt>
      <trkpt lat="49.10199" lon="-0.20279">
        <ele>32</ele>
        <time>2024-07-03T14:15:32Z</time>
      </trkpt>
      <trkpt lat="49.10209" lon="-0.2027">
        <ele>31.4</ele>
        <time>2024-07-03T14:15:33Z</time>
      </trkpt>
      <trkpt lat="49.10218" lon="-0.20259">
        <ele>30.8</ele>
        <time>2024-07-03T14:15:34Z</time>
      </trkpt>
      <trkpt lat="49.10227" lon="-0.20248">
        <ele>30.4</ele>
        <time>2024-07-03T14:15:35Z</time>
      </trkpt>
      <trkpt lat="49.10236" lon="-0.20235">
        <ele>30.2</ele>
        <time>2024-07-03T14:15:36Z</time>
      </trkpt>
      <trkpt lat="49.10244" lon="-0.20222">
        <ele>30.2</ele>
        <time>2024-07-03T14:15:37Z</time>
      </trkpt>
      <trkpt lat="49.10253" lon="-0.20208">
        <ele>30.2</ele>
        <time>2024-07-03T14:15:38Z</time>
      </trkpt>
      <trkpt lat="49.1026" lon="-0.20195">
        <ele>30.2</ele>
        <time>2024-07-03T14:15:39Z</time>
      </trkpt>
      <trkpt lat="49.10268" lon="-0.20181">
        <ele>30.2</ele>
        <time>2024-07-03T14:15:40Z</time>
      </trkpt>
      <trkpt lat="49.10275" lon="-0.20167">
        <ele>30</ele>
        <time>2024-07-03T14:15:41Z</time>
      </trkpt>
      <trkpt lat="49.10282" lon="-0.20154">
        <ele>29.6</ele>
        <time>2024-07-03T14:15:42Z</time>
      </trkpt>
      <trkpt lat="49.1029" lon="-0.2014">
        <ele>29.2</ele>
        <time>2024-07-03T14:15:43Z</time>
      </trkpt>
      <trkpt lat="49.10297" lon="-0.20127">
        <ele>29</ele>
        <time>2024-07-03T14:15:44Z</time>
      </trkpt>
      <trkpt lat="49.10304" lon="-0.20113">
        <ele>28.8</ele>
        <time>2024-07-03T14:15:45Z</time>
      </trkpt>
      <trkpt lat="49.10312" lon="-0.201">
        <ele>28.6</ele>
        <time>2024-07-03T14:15:46Z</time>
      </trkpt>
      <trkpt lat="49.10319" lon="-0.20086">
        <ele>28.6</ele>
        <time>2024-07-03T14:15:47Z</time>
      </trkpt>
      <trkpt lat="49.10326" lon="-0.20073">
        <ele>28.6</ele>
        <time>2024-07-03T14:15:48Z</time>
      </trkpt>
      <trkpt lat="49.10333" lon="-0.2006">
        <ele>28.6</ele>
        <time>2024-07-03T14:15:49Z</time>
      </trkpt>
      <trkpt lat="49.10341" lon="-0.20047">
        <ele>28.6</ele>
        <time>2024-07-03T14:15:50Z</time>
      </trkpt>
      <trkpt lat="49.10348" lon="-0.20034">
        <ele>28.4</ele>
        <time>2024-07-03T14:15:51Z</time>
      </trkpt>
      <trkpt lat="49.10356" lon="-0.20022">
        <ele>28.2</ele>
        <time>2024-07-03T14:15:52Z</time>
      </trkpt>
      <trkpt lat="49.10364" lon="-0.20012">
        <ele>28</ele>
        <time>2024-07-03T14:15:53Z</time>
      </trkpt>
      <trkpt lat="49.10372" lon="-0.20002">
        <ele>27.8</ele>
        <time>2024-07-03T14:15:54Z</time>
      </trkpt>
      <trkpt lat="49.1038" lon="-0.19991">
        <ele>27.6</ele>
        <time>2024-07-03T14:15:55Z</time>
      </trkpt>
      <trkpt lat="49.10389" lon="-0.19981">
        <ele>27.2</ele>
        <time>2024-07-03T14:15:56Z</time>
      </trkpt>
      <trkpt lat="49.10397" lon="-0.19971">
        <ele>26.6</ele>
        <time>2024-07-03T14:15:57Z</time>
      </trkpt>
      <trkpt lat="49.10405" lon="-0.19962">
        <ele>25.8</ele>
        <time>2024-07-03T14:15:58Z</time>
      </trkpt>
      <trkpt lat="49.10414" lon="-0.19953">
        <ele>25.2</ele>
        <time>2024-07-03T14:15:59Z</time>
      </trkpt>
      <trkpt lat="49.10422" lon="-0.19944">
        <ele>24.8</ele>
        <time>2024-07-03T14:16:00Z</time>
      </trkpt>
      <trkpt lat="49.10431" lon="-0.19936">
        <ele>24.6</ele>
        <time>2024-07-03T14:16:01Z</time>
      </trkpt>
      <trkpt lat="49.10439" lon="-0.19928">
        <ele>24.6</ele>
        <time>2024-07-03T14:16:02Z</time>
      </trkpt>
      <trkpt lat="49.10447" lon="-0.19921">
        <ele>24.6</ele>
        <time>2024-07-03T14:16:03Z</time>
      </trkpt>
      <trkpt lat="49.10455" lon="-0.19915">
        <ele>24.6</ele>
        <time>2024-07-03T14:16:04Z</time>
      </trkpt>
      <trkpt lat="49.10461" lon="-0.19911">
        <ele>24.6</ele>
        <time>2024-07-03T14:16:05Z</time>
      </trkpt>
      <trkpt lat="49.10467" lon="-0.19906">
        <ele>24.8</ele>
        <time>2024-07-03T14:16:06Z</time>
      </trkpt>
      <trkpt lat="49.10472" lon="-0.199">
        <ele>25</ele>
        <time>2024-07-03T14:16:07Z</time>
      </trkpt>
      <trkpt lat="49.10476" lon="-0.19892">
        <ele>25</ele>
        <time>2024-07-03T14:16:08Z</time>
      </trkpt>
      <trkpt lat="49.10479" lon="-0.19882">
        <ele>25.2</ele>
        <time>2024-07-03T14:16:09Z</time>
      </trkpt>
      <trkpt lat="49.10481" lon="-0.19871">
        <ele>25.2</ele>
        <time>2024-07-03T14:16:10Z</time>
      </trkpt>
      <trkpt lat="49.10482" lon="-0.1986">
        <ele>25.2</ele>
        <time>2024-07-03T14:16:11Z</time>
      </trkpt>
      <trkpt lat="49.10483" lon="-0.19848">
        <ele>25</ele>
        <time>2024-07-03T14:16:12Z</time>
      </trkpt>
      <trkpt lat="49.10483" lon="-0.19837">
        <ele>24.8</ele>
        <time>2024-07-03T14:16:13Z</time>
      </trkpt>
      <trkpt lat="49.10485" lon="-0.19824">
        <ele>24.6</ele>
        <time>2024-07-03T14:16:14Z</time>
      </trkpt>
      <trkpt lat="49.10487" lon="-0.19812">
        <ele>24.4</ele>
        <time>2024-07-03T14:16:15Z</time>
      </trkpt>
      <trkpt lat="49.1049" lon="-0.19802">
        <ele>24.2</ele>
        <time>2024-07-03T14:16:16Z</time>
      </trkpt>
      <trkpt lat="49.10495" lon="-0.19792">
        <ele>24</ele>
        <time>2024-07-03T14:16:17Z</time>
      </trkpt>
      <trkpt lat="49.10501" lon="-0.19785">
        <ele>24</ele>
        <time>2024-07-03T14:16:18Z</time>
      </trkpt>
      <trkpt lat="49.10507" lon="-0.19778">
        <ele>24</ele>
        <time>2024-07-03T14:16:19Z</time>
      </trkpt>
      <trkpt lat="49.10513" lon="-0.1977">
        <ele>24</ele>
        <time>2024-07-03T14:16:20Z</time>
      </trkpt>
      <trkpt lat="49.1052" lon="-0.19762">
        <ele>24</ele>
        <time>2024-07-03T14:16:21Z</time>
      </trkpt>
      <trkpt lat="49.10526" lon="-0.19754">
        <ele>24</ele>
        <time>2024-07-03T14:16:22Z</time>
      </trkpt>
      <trkpt lat="49.10533" lon="-0.19746">
        <ele>23.8</ele>
        <time>2024-07-03T14:16:23Z</time>
      </trkpt>
      <trkpt lat="49.10539" lon="-0.19738">
        <ele>23.2</ele>
        <time>2024-07-03T14:16:24Z</time>
      </trkpt>
      <trkpt lat="49.10546" lon="-0.19731">
        <ele>22.8</ele>
        <time>2024-07-03T14:16:25Z</time>
      </trkpt>
      <trkpt lat="49.10553" lon="-0.19722">
        <ele>22.6</ele>
        <time>2024-07-03T14:16:26Z</time>
      </trkpt>
      <trkpt lat="49.10559" lon="-0.19714">
        <ele>22.6</ele>
        <time>2024-07-03T14:16:27Z</time>
      </trkpt>
      <trkpt lat="49.10566" lon="-0.19708">
        <ele>22.6</ele>
        <time>2024-07-03T14:16:28Z</time>
      </trkpt>
      <trkpt lat="49.10574" lon="-0.19704">
        <ele>22.6</ele>
        <time>2024-07-03T14:16:29Z</time>
      </trkpt>
      <trkpt lat="49.10581" lon="-0.19704">
        <ele>22.8</ele>
        <time>2024-07-03T14:16:30Z</time>
      </trkpt>
      <trkpt lat="49.10589" lon="-0.19705">
        <ele>23.2</ele>
        <time>2024-07-03T14:16:31Z</time>
      </trkpt>
      <trkpt lat="49.10596" lon="-0.19706">
        <ele>23.4</ele>
        <time>2024-07-03T14:16:32Z</time>
      </trkpt>
      <trkpt lat="49.10604" lon="-0.19705">
        <ele>23.6</ele>
        <time>2024-07-03T14:16:33Z</time>
      </trkpt>
      <trkpt lat="49.1061" lon="-0.19705">
        <ele>24</ele>
        <time>2024-07-03T14:16:34Z</time>
      </trkpt>
      <trkpt lat="49.10617" lon="-0.19703">
        <ele>24.4</ele>
        <time>2024-07-03T14:16:35Z</time>
      </trkpt>
      <trkpt lat="49.10624" lon="-0.197">
        <ele>25</ele>
        <time>2024-07-03T14:16:36Z</time>
      </trkpt>
      <trkpt lat="49.1063" lon="-0.19698">
        <ele>25.4</ele>
        <time>2024-07-03T14:16:37Z</time>
      </trkpt>
      <trkpt lat="49.10637" lon="-0.19695">
        <ele>25.6</ele>
        <time>2024-07-03T14:16:38Z</time>
      </trkpt>
      <trkpt lat="49.10643" lon="-0.1969">
        <ele>26.2</ele>
        <time>2024-07-03T14:16:39Z</time>
      </trkpt>
      <trkpt lat="49.10649" lon="-0.19684">
        <ele>26.8</ele>
        <time>2024-07-03T14:16:40Z</time>
      </trkpt>
      <trkpt lat="49.10655" lon="-0.19677">
        <ele>27.4</ele>
        <time>2024-07-03T14:16:41Z</time>
      </trkpt>
      <trkpt lat="49.10661" lon="-0.19669">
        <ele>27.8</ele>
        <time>2024-07-03T14:16:42Z</time>
      </trkpt>
      <trkpt lat="49.10666" lon="-0.19661">
        <ele>28.2</ele>
        <time>2024-07-03T14:16:43Z</time>
      </trkpt>
      <trkpt lat="49.1067" lon="-0.19652">
        <ele>28.6</ele>
        <time>2024-07-03T14:16:44Z</time>
      </trkpt>
      <trkpt lat="49.10675" lon="-0.19643">
        <ele>29</ele>
        <time>2024-07-03T14:16:45Z</time>
      </trkpt>
      <trkpt lat="49.10679" lon="-0.19634">
        <ele>29.2</ele>
        <time>2024-07-03T14:16:46Z</time>
      </trkpt>
      <trkpt lat="49.10683" lon="-0.19625">
        <ele>29.8</ele>
        <time>2024-07-03T14:16:47Z</time>
      </trkpt>
      <trkpt lat="49.10686" lon="-0.19615">
        <ele>30.4</ele>
        <time>2024-07-03T14:16:48Z</time>
      </trkpt>
      <trkpt lat="49.1069" lon="-0.19605">
        <ele>30.8</ele>
        <time>2024-07-03T14:16:49Z</time>
      </trkpt>
      <trkpt lat="49.10693" lon="-0.19596">
        <ele>31.2</ele>
        <time>2024-07-03T14:16:50Z</time>
      </trkpt>
      <trkpt lat="49.10696" lon="-0.19586">
        <ele>31.6</ele>
        <time>2024-07-03T14:16:51Z</time>
      </trkpt>
      <trkpt lat="49.10698" lon="-0.19577">
        <ele>32</ele>
        <time>2024-07-03T14:16:52Z</time>
      </trkpt>
      <trkpt lat="49.10701" lon="-0.19567">
        <ele>32.4</ele>
        <time>2024-07-03T14:16:53Z</time>
      </trkpt>
      <trkpt lat="49.10703" lon="-0.19557">
        <ele>32.8</ele>
        <time>2024-07-03T14:16:54Z</time>
      </trkpt>
      <trkpt lat="49.10706" lon="-0.19548">
        <ele>33.2</ele>
        <time>2024-07-03T14:16:55Z</time>
      </trkpt>
      <trkpt lat="49.10709" lon="-0.19539">
        <ele>33.6</ele>
        <time>2024-07-03T14:16:56Z</time>
      </trkpt>
      <trkpt lat="49.10711" lon="-0.19529">
        <ele>34.2</ele>
        <time>2024-07-03T14:16:57Z</time>
      </trkpt>
      <trkpt lat="49.10714" lon="-0.19519">
        <ele>34.6</ele>
        <time>2024-07-03T14:16:58Z</time>
      </trkpt>
      <trkpt lat="49.10716" lon="-0.1951">
        <ele>35</ele>
        <time>2024-07-03T14:16:59Z</time>
      </trkpt>
      <trkpt lat="49.10718" lon="-0.195">
        <ele>35.2</ele>
        <time>2024-07-03T14:17:00Z</time>
      </trkpt>
      <trkpt lat="49.10721" lon="-0.19491">
        <ele>35.6</ele>
        <time>2024-07-03T14:17:01Z</time>
      </trkpt>
      <trkpt lat="49.10724" lon="-0.19482">
        <ele>36</ele>
        <time>2024-07-03T14:17:02Z</time>
      </trkpt>
      <trkpt lat="49.10727" lon="-0.19473">
        <ele>36.4</ele>
        <time>2024-07-03T14:17:03Z</time>
      </trkpt>
      <trkpt lat="49.10729" lon="-0.19462">
        <ele>36.8</ele>
        <time>2024-07-03T14:17:04Z</time>
      </trkpt>
      <trkpt lat="49.10733" lon="-0.19451">
        <ele>37</ele>
        <time>2024-07-03T14:17:05Z</time>
      </trkpt>
      <trkpt lat="49.10736" lon="-0.19439">
        <ele>37.4</ele>
        <time>2024-07-03T14:17:06Z</time>
      </trkpt>
      <trkpt lat="49.10739" lon="-0.19428">
        <ele>37.6</ele>
        <time>2024-07-03T14:17:07Z</time>
      </trkpt>
      <trkpt lat="49.10743" lon="-0.19417">
        <ele>37.6</ele>
        <time>2024-07-03T14:17:08Z</time>
      </trkpt>
      <trkpt lat="49.10747" lon="-0.19406">
        <ele>37.8</ele>
        <time>2024-07-03T14:17:09Z</time>
      </trkpt>
      <trkpt lat="49.10751" lon="-0.19396">
        <ele>38</ele>
        <time>2024-07-03T14:17:10Z</time>
      </trkpt>
      <trkpt lat="49.10756" lon="-0.19386">
        <ele>38</ele>
        <time>2024-07-03T14:17:11Z</time>
      </trkpt>
      <trkpt lat="49.1076" lon="-0.19375">
        <ele>38</ele>
        <time>2024-07-03T14:17:12Z</time>
      </trkpt>
      <trkpt lat="49.10765" lon="-0.19365">
        <ele>38.2</ele>
        <time>2024-07-03T14:17:13Z</time>
      </trkpt>
      <trkpt lat="49.1077" lon="-0.19355">
        <ele>38.2</ele>
        <time>2024-07-03T14:17:14Z</time>
      </trkpt>
      <trkpt lat="49.10775" lon="-0.19345">
        <ele>38.2</ele>
        <time>2024-07-03T14:17:15Z</time>
      </trkpt>
      <trkpt lat="49.10781" lon="-0.19335">
        <ele>38.2</ele>
        <time>2024-07-03T14:17:16Z</time>
      </trkpt>
      <trkpt lat="49.10786" lon="-0.19326">
        <ele>38</ele>
        <time>2024-07-03T14:17:17Z</time>
      </trkpt>
      <trkpt lat="49.10792" lon="-0.19317">
        <ele>37.8</ele>
        <time>2024-07-03T14:17:18Z</time>
      </trkpt>
      <trkpt lat="49.10798" lon="-0.19307">
        <ele>37.6</ele>
        <time>2024-07-03T14:17:19Z</time>
      </trkpt>
      <trkpt lat="49.10804" lon="-0.19298">
        <ele>37.4</ele>
        <time>2024-07-03T14:17:20Z</time>
      </trkpt>
      <trkpt lat="49.10811" lon="-0.1929">
        <ele>37.2</ele>
        <time>2024-07-03T14:17:21Z</time>
      </trkpt>
      <trkpt lat="49.10818" lon="-0.19282">
        <ele>37</ele>
        <time>2024-07-03T14:17:22Z</time>
      </trkpt>
      <trkpt lat="49.10825" lon="-0.19275">
        <ele>36.8</ele>
        <time>2024-07-03T14:17:23Z</time>
      </trkpt>
      <trkpt lat="49.10832" lon="-0.19267">
        <ele>36.4</ele>
        <time>2024-07-03T14:17:24Z</time>
      </trkpt>
      <trkpt lat="49.1084" lon="-0.19261">
        <ele>36.2</ele>
        <time>2024-07-03T14:17:25Z</time>
      </trkpt>
      <trkpt lat="49.10848" lon="-0.19255">
        <ele>35.8</ele>
        <time>2024-07-03T14:17:26Z</time>
      </trkpt>
      <trkpt lat="49.10856" lon="-0.19249">
        <ele>35.6</ele>
        <time>2024-07-03T14:17:27Z</time>
      </trkpt>
      <trkpt lat="49.10864" lon="-0.19243">
        <ele>35.6</ele>
        <time>2024-07-03T14:17:28Z</time>
      </trkpt>
      <trkpt lat="49.10872" lon="-0.19238">
        <ele>35.4</ele>
        <time>2024-07-03T14:17:29Z</time>
      </trkpt>
      <trkpt lat="49.1088" lon="-0.19234">
        <ele>35.2</ele>
        <time>2024-07-03T14:17:30Z</time>
      </trkpt>
      <trkpt lat="49.10888" lon="-0.1923">
        <ele>35</ele>
        <time>2024-07-03T14:17:31Z</time>
      </trkpt>
      <trkpt lat="49.10897" lon="-0.19227">
        <ele>34.8</ele>
        <time>2024-07-03T14:17:32Z</time>
      </trkpt>
      <trkpt lat="49.10906" lon="-0.19225">
        <ele>34.6</ele>
        <time>2024-07-03T14:17:33Z</time>
      </trkpt>
      <trkpt lat="49.10915" lon="-0.19223">
        <ele>34.6</ele>
        <time>2024-07-03T14:17:34Z</time>
      </trkpt>
      <trkpt lat="49.10924" lon="-0.19222">
        <ele>34.2</ele>
        <time>2024-07-03T14:17:35Z</time>
      </trkpt>
      <trkpt lat="49.10933" lon="-0.19222">
        <ele>34.2</ele>
        <time>2024-07-03T14:17:36Z</time>
      </trkpt>
      <trkpt lat="49.10942" lon="-0.19223">
        <ele>34</ele>
        <time>2024-07-03T14:17:37Z</time>
      </trkpt>
      <trkpt lat="49.10952" lon="-0.19224">
        <ele>34</ele>
        <time>2024-07-03T14:17:38Z</time>
      </trkpt>
      <trkpt lat="49.10961" lon="-0.19226">
        <ele>33.8</ele>
        <time>2024-07-03T14:17:39Z</time>
      </trkpt>
      <trkpt lat="49.1097" lon="-0.19228">
        <ele>33.4</ele>
        <time>2024-07-03T14:17:40Z</time>
      </trkpt>
      <trkpt lat="49.10979" lon="-0.1923">
        <ele>33</ele>
        <time>2024-07-03T14:17:41Z</time>
      </trkpt>
      <trkpt lat="49.10987" lon="-0.19232">
        <ele>32.6</ele>
        <time>2024-07-03T14:17:42Z</time>
      </trkpt>
      <trkpt lat="49.10996" lon="-0.19234">
        <ele>32.6</ele>
        <time>2024-07-03T14:17:43Z</time>
      </trkpt>
      <trkpt lat="49.11005" lon="-0.19237">
        <ele>32.4</ele>
        <time>2024-07-03T14:17:44Z</time>
      </trkpt>
      <trkpt lat="49.11013" lon="-0.19239">
        <ele>32.4</ele>
        <time>2024-07-03T14:17:45Z</time>
      </trkpt>
      <trkpt lat="49.11022" lon="-0.19242">
        <ele>32.4</ele>
        <time>2024-07-03T14:17:46Z</time>
      </trkpt>
      <trkpt lat="49.1103" lon="-0.19244">
        <ele>32.4</ele>
        <time>2024-07-03T14:17:47Z</time>
      </trkpt>
      <trkpt lat="49.11039" lon="-0.19247">
        <ele>32.6</ele>
        <time>2024-07-03T14:17:48Z</time>
      </trkpt>
      <trkpt lat="49.11048" lon="-0.1925">
        <ele>32.6</ele>
        <time>2024-07-03T14:17:49Z</time>
      </trkpt>
      <trkpt lat="49.11057" lon="-0.19252">
        <ele>32.8</ele>
        <time>2024-07-03T14:17:50Z</time>
      </trkpt>
      <trkpt lat="49.11066" lon="-0.19255">
        <ele>32.8</ele>
        <time>2024-07-03T14:17:51Z</time>
      </trkpt>
      <trkpt lat="49.11075" lon="-0.19258">
        <ele>32.8</ele>
        <time>2024-07-03T14:17:52Z</time>
      </trkpt>
      <trkpt lat="49.11084" lon="-0.19261">
        <ele>32.6</ele>
        <time>2024-07-03T14:17:53Z</time>
      </trkpt>
      <trkpt lat="49.11093" lon="-0.19264">
        <ele>32.4</ele>
        <time>2024-07-03T14:17:54Z</time>
      </trkpt>
      <trkpt lat="49.11102" lon="-0.19269">
        <ele>32.4</ele>
        <time>2024-07-03T14:17:55Z</time>
      </trkpt>
      <trkpt lat="49.11111" lon="-0.19274">
        <ele>32.4</ele>
        <time>2024-07-03T14:17:56Z</time>
      </trkpt>
      <trkpt lat="49.1112" lon="-0.19279">
        <ele>32.2</ele>
        <time>2024-07-03T14:17:57Z</time>
      </trkpt>
      <trkpt lat="49.11129" lon="-0.19285">
        <ele>32.2</ele>
        <time>2024-07-03T14:17:58Z</time>
      </trkpt>
      <trkpt lat="49.11138" lon="-0.19292">
        <ele>32.2</ele>
        <time>2024-07-03T14:17:59Z</time>
      </trkpt>
      <trkpt lat="49.11146" lon="-0.19299">
        <ele>32</ele>
        <time>2024-07-03T14:18:00Z</time>
      </trkpt>
      <trkpt lat="49.11154" lon="-0.19307">
        <ele>32</ele>
        <time>2024-07-03T14:18:01Z</time>
      </trkpt>
      <trkpt lat="49.11162" lon="-0.19316">
        <ele>31.8</ele>
        <time>2024-07-03T14:18:02Z</time>
      </trkpt>
      <trkpt lat="49.1117" lon="-0.19325">
        <ele>31.8</ele>
        <time>2024-07-03T14:18:03Z</time>
      </trkpt>
      <trkpt lat="49.11177" lon="-0.19334">
        <ele>31.4</ele>
        <time>2024-07-03T14:18:04Z</time>
      </trkpt>
      <trkpt lat="49.11184" lon="-0.19344">
        <ele>31.2</ele>
        <time>2024-07-03T14:18:05Z</time>
      </trkpt>
      <trkpt lat="49.1119" lon="-0.19354">
        <ele>31</ele>
        <time>2024-07-03T14:18:06Z</time>
      </trkpt>
      <trkpt lat="49.11197" lon="-0.19364">
        <ele>31</ele>
        <time>2024-07-03T14:18:07Z</time>
      </trkpt>
      <trkpt lat="49.11202" lon="-0.19376">
        <ele>31</ele>
        <time>2024-07-03T14:18:08Z</time>
      </trkpt>
      <trkpt lat="49.11208" lon="-0.19387">
        <ele>31</ele>
        <time>2024-07-03T14:18:09Z</time>
      </trkpt>
      <trkpt lat="49.11213" lon="-0.19398">
        <ele>31.2</ele>
        <time>2024-07-03T14:18:10Z</time>
      </trkpt>
      <trkpt lat="49.11219" lon="-0.19408">
        <ele>31.4</ele>
        <time>2024-07-03T14:18:11Z</time>
      </trkpt>
      <trkpt lat="49.11225" lon="-0.19418">
        <ele>31.6</ele>
        <time>2024-07-03T14:18:12Z</time>
      </trkpt>
      <trkpt lat="49.11231" lon="-0.19427">
        <ele>31.6</ele>
        <time>2024-07-03T14:18:13Z</time>
      </trkpt>
      <trkpt lat="49.11238" lon="-0.19436">
        <ele>31.8</ele>
        <time>2024-07-03T14:18:14Z</time>
      </trkpt>
      <trkpt lat="49.11244" lon="-0.19446">
        <ele>31.8</ele>
        <time>2024-07-03T14:18:15Z</time>
      </trkpt>
      <trkpt lat="49.11251" lon="-0.19454">
        <ele>31.8</ele>
        <time>2024-07-03T14:18:16Z</time>
      </trkpt>
      <trkpt lat="49.11259" lon="-0.19463">
        <ele>32</ele>
        <time>2024-07-03T14:18:17Z</time>
      </trkpt>
      <trkpt lat="49.11267" lon="-0.1947">
        <ele>32</ele>
        <time>2024-07-03T14:18:18Z</time>
      </trkpt>
      <trkpt lat="49.11275" lon="-0.19478">
        <ele>32</ele>
        <time>2024-07-03T14:18:19Z</time>
      </trkpt>
      <trkpt lat="49.11283" lon="-0.19484">
        <ele>31.8</ele>
        <time>2024-07-03T14:18:20Z</time>
      </trkpt>
      <trkpt lat="49.11291" lon="-0.19489">
        <ele>31.2</ele>
        <time>2024-07-03T14:18:21Z</time>
      </trkpt>
      <trkpt lat="49.113" lon="-0.19493">
        <ele>31</ele>
        <time>2024-07-03T14:18:22Z</time>
      </trkpt>
      <trkpt lat="49.11308" lon="-0.19496">
        <ele>30.8</ele>
        <time>2024-07-03T14:18:23Z</time>
      </trkpt>
      <trkpt lat="49.11317" lon="-0.19499">
        <ele>30.8</ele>
        <time>2024-07-03T14:18:24Z</time>
      </trkpt>
      <trkpt lat="49.11325" lon="-0.19501">
        <ele>31.2</ele>
        <time>2024-07-03T14:18:25Z</time>
      </trkpt>
      <trkpt lat="49.11333" lon="-0.19503">
        <ele>31.6</ele>
        <time>2024-07-03T14:18:26Z</time>
      </trkpt>
      <trkpt lat="49.11341" lon="-0.19504">
        <ele>32</ele>
        <time>2024-07-03T14:18:27Z</time>
      </trkpt>
      <trkpt lat="49.1135" lon="-0.19504">
        <ele>32.4</ele>
        <time>2024-07-03T14:18:28Z</time>
      </trkpt>
      <trkpt lat="49.11358" lon="-0.19503">
        <ele>32.8</ele>
        <time>2024-07-03T14:18:29Z</time>
      </trkpt>
      <trkpt lat="49.11367" lon="-0.19501">
        <ele>33.4</ele>
        <time>2024-07-03T14:18:30Z</time>
      </trkpt>
      <trkpt lat="49.11376" lon="-0.19499">
        <ele>33.6</ele>
        <time>2024-07-03T14:18:31Z</time>
      </trkpt>
      <trkpt lat="49.11384" lon="-0.19495">
        <ele>34</ele>
        <time>2024-07-03T14:18:32Z</time>
      </trkpt>
      <trkpt lat="49.11393" lon="-0.19491">
        <ele>34.4</ele>
        <time>2024-07-03T14:18:33Z</time>
      </trkpt>
      <trkpt lat="49.11401" lon="-0.19486">
        <ele>34.8</ele>
        <time>2024-07-03T14:18:34Z</time>
      </trkpt>
      <trkpt lat="49.11408" lon="-0.19482">
        <ele>35</ele>
        <time>2024-07-03T14:18:35Z</time>
      </trkpt>
      <trkpt lat="49.11416" lon="-0.19476">
        <ele>35.2</ele>
        <time>2024-07-03T14:18:36Z</time>
      </trkpt>
      <trkpt lat="49.11424" lon="-0.19468">
        <ele>35.4</ele>
        <time>2024-07-03T14:18:37Z</time>
      </trkpt>
      <trkpt lat="49.11432" lon="-0.19461">
        <ele>35.6</ele>
        <time>2024-07-03T14:18:38Z</time>
      </trkpt>
      <trkpt lat="49.1144" lon="-0.19454">
        <ele>35.8</ele>
        <time>2024-07-03T14:18:39Z</time>
      </trkpt>
      <trkpt lat="49.11447" lon="-0.19446">
        <ele>35.8</ele>
        <time>2024-07-03T14:18:40Z</time>
      </trkpt>
      <trkpt lat="49.11455" lon="-0.19439">
        <ele>35.8</ele>
        <time>2024-07-03T14:18:41Z</time>
      </trkpt>
      <trkpt lat="49.11462" lon="-0.19432">
        <ele>35.8</ele>
        <time>2024-07-03T14:18:42Z</time>
      </trkpt>
      <trkpt lat="49.1147" lon="-0.19425">
        <ele>35.8</ele>
        <time>2024-07-03T14:18:43Z</time>
      </trkpt>
      <trkpt lat="49.11477" lon="-0.19418">
        <ele>35.6</ele>
        <time>2024-07-03T14:18:44Z</time>
      </trkpt>
      <trkpt lat="49.11484" lon="-0.19411">
        <ele>35.2</ele>
        <time>2024-07-03T14:18:45Z</time>
      </trkpt>
      <trkpt lat="49.11492" lon="-0.19403">
        <ele>35</ele>
        <time>2024-07-03T14:18:46Z</time>
      </trkpt>
      <trkpt lat="49.11499" lon="-0.19395">
        <ele>34.8</ele>
        <time>2024-07-03T14:18:47Z</time>
      </trkpt>
      <trkpt lat="49.11507" lon="-0.19388">
        <ele>34.8</ele>
        <time>2024-07-03T14:18:48Z</time>
      </trkpt>
      <trkpt lat="49.11515" lon="-0.19381">
        <ele>34.6</ele>
        <time>2024-07-03T14:18:49Z</time>
      </trkpt>
      <trkpt lat="49.11523" lon="-0.19373">
        <ele>34.4</ele>
        <time>2024-07-03T14:18:50Z</time>
      </trkpt>
      <trkpt lat="49.11531" lon="-0.19364">
        <ele>34</ele>
        <time>2024-07-03T14:18:51Z</time>
      </trkpt>
      <trkpt lat="49.11539" lon="-0.19355">
        <ele>33.4</ele>
        <time>2024-07-03T14:18:52Z</time>
      </trkpt>
      <trkpt lat="49.11547" lon="-0.19346">
        <ele>32.8</ele>
        <time>2024-07-03T14:18:53Z</time>
      </trkpt>
      <trkpt lat="49.11555" lon="-0.19336">
        <ele>32.4</ele>
        <time>2024-07-03T14:18:54Z</time>
      </trkpt>
      <trkpt lat="49.11564" lon="-0.19325">
        <ele>32</ele>
        <time>2024-07-03T14:18:55Z</time>
      </trkpt>
      <trkpt lat="49.11572" lon="-0.19314">
        <ele>31.6</ele>
        <time>2024-07-03T14:18:56Z</time>
      </trkpt>
      <trkpt lat="49.11578" lon="-0.19302">
        <ele>30.8</ele>
        <time>2024-07-03T14:18:57Z</time>
      </trkpt>
      <trkpt lat="49.11583" lon="-0.19289">
        <ele>30</ele>
        <time>2024-07-03T14:18:58Z</time>
      </trkpt>
      <trkpt lat="49.11585" lon="-0.19277">
        <ele>29.4</ele>
        <time>2024-07-03T14:18:59Z</time>
      </trkpt>
      <trkpt lat="49.11586" lon="-0.19264">
        <ele>28.8</ele>
        <time>2024-07-03T14:19:00Z</time>
      </trkpt>
      <trkpt lat="49.11588" lon="-0.19251">
        <ele>28.4</ele>
        <time>2024-07-03T14:19:01Z</time>
      </trkpt>
      <trkpt lat="49.11591" lon="-0.19239">
        <ele>28.2</ele>
        <time>2024-07-03T14:19:02Z</time>
      </trkpt>
      <trkpt lat="49.11595" lon="-0.19229">
        <ele>28.2</ele>
        <time>2024-07-03T14:19:03Z</time>
      </trkpt>
      <trkpt lat="49.11601" lon="-0.19222">
        <ele>28</ele>
        <time>2024-07-03T14:19:04Z</time>
      </trkpt>
      <trkpt lat="49.11608" lon="-0.19219">
        <ele>27.8</ele>
        <time>2024-07-03T14:19:05Z</time>
      </trkpt>
      <trkpt lat="49.11616" lon="-0.1922">
        <ele>27.6</ele>
        <time>2024-07-03T14:19:06Z</time>
      </trkpt>
      <trkpt lat="49.11623" lon="-0.19225">
        <ele>27.2</ele>
        <time>2024-07-03T14:19:07Z</time>
      </trkpt>
      <trkpt lat="49.1163" lon="-0.1923">
        <ele>26.8</ele>
        <time>2024-07-03T14:19:08Z</time>
      </trkpt>
      <trkpt lat="49.11638" lon="-0.19234">
        <ele>26.6</ele>
        <time>2024-07-03T14:19:09Z</time>
      </trkpt>
      <trkpt lat="49.11646" lon="-0.19236">
        <ele>26.4</ele>
        <time>2024-07-03T14:19:10Z</time>
      </trkpt>
      <trkpt lat="49.11654" lon="-0.19236">
        <ele>26.2</ele>
        <time>2024-07-03T14:19:11Z</time>
      </trkpt>
      <trkpt lat="49.11661" lon="-0.19235">
        <ele>26.2</ele>
        <time>2024-07-03T14:19:12Z</time>
      </trkpt>
      <trkpt lat="49.11669" lon="-0.19233">
        <ele>26.2</ele>
        <time>2024-07-03T14:19:13Z</time>
      </trkpt>
      <trkpt lat="49.11676" lon="-0.19231">
        <ele>26</ele>
        <time>2024-07-03T14:19:14Z</time>
      </trkpt>
      <trkpt lat="49.11684" lon="-0.19229">
        <ele>26</ele>
        <time>2024-07-03T14:19:15Z</time>
      </trkpt>
      <trkpt lat="49.11691" lon="-0.19227">
        <ele>26</ele>
        <time>2024-07-03T14:19:16Z</time>
      </trkpt>
      <trkpt lat="49.11698" lon="-0.19225">
        <ele>26</ele>
        <time>2024-07-03T14:19:17Z</time>
      </trkpt>
      <trkpt lat="49.11705" lon="-0.19223">
        <ele>26</ele>
        <time>2024-07-03T14:19:18Z</time>
      </trkpt>
      <trkpt lat="49.11712" lon="-0.19221">
        <ele>26</ele>
        <time>2024-07-03T14:19:19Z</time>
      </trkpt>
      <trkpt lat="49.11719" lon="-0.19219">
        <ele>26.2</ele>
        <time>2024-07-03T14:19:20Z</time>
      </trkpt>
      <trkpt lat="49.11726" lon="-0.19217">
        <ele>26.2</ele>
        <time>2024-07-03T14:19:21Z</time>
      </trkpt>
      <trkpt lat="49.11733" lon="-0.19215">
        <ele>26.4</ele>
        <time>2024-07-03T14:19:22Z</time>
      </trkpt>
      <trkpt lat="49.11741" lon="-0.19213">
        <ele>26.4</ele>
        <time>2024-07-03T14:19:23Z</time>
      </trkpt>
      <trkpt lat="49.11748" lon="-0.1921">
        <ele>26.4</ele>
        <time>2024-07-03T14:19:24Z</time>
      </trkpt>
      <trkpt lat="49.11755" lon="-0.19208">
        <ele>26.2</ele>
        <time>2024-07-03T14:19:25Z</time>
      </trkpt>
      <trkpt lat="49.11762" lon="-0.19207">
        <ele>26</ele>
        <time>2024-07-03T14:19:26Z</time>
      </trkpt>
      <trkpt lat="49.1177" lon="-0.19205">
        <ele>25.8</ele>
        <time>2024-07-03T14:19:27Z</time>
      </trkpt>
      <trkpt lat="49.11777" lon="-0.19203">
        <ele>25.8</ele>
        <time>2024-07-03T14:19:28Z</time>
      </trkpt>
      <trkpt lat="49.11785" lon="-0.19201">
        <ele>25.8</ele>
        <time>2024-07-03T14:19:29Z</time>
      </trkpt>
      <trkpt lat="49.11792" lon="-0.19199">
        <ele>25.8</ele>
        <time>2024-07-03T14:19:30Z</time>
      </trkpt>
      <trkpt lat="49.118" lon="-0.19197">
        <ele>25.8</ele>
        <time>2024-07-03T14:19:31Z</time>
      </trkpt>
      <trkpt lat="49.11808" lon="-0.19194">
        <ele>25.8</ele>
        <time>2024-07-03T14:19:32Z</time>
      </trkpt>
      <trkpt lat="49.11815" lon="-0.19192">
        <ele>25.8</ele>
        <time>2024-07-03T14:19:33Z</time>
      </trkpt>
      <trkpt lat="49.11823" lon="-0.19189">
        <ele>25.8</ele>
        <time>2024-07-03T14:19:34Z</time>
      </trkpt>
      <trkpt lat="49.11832" lon="-0.19187">
        <ele>25.8</ele>
        <time>2024-07-03T14:19:35Z</time>
      </trkpt>
      <trkpt lat="49.1184" lon="-0.19184">
        <ele>25.6</ele>
        <time>2024-07-03T14:19:36Z</time>
      </trkpt>
      <trkpt lat="49.11849" lon="-0.1918">
        <ele>25.4</ele>
        <time>2024-07-03T14:19:37Z</time>
      </trkpt>
      <trkpt lat="49.11859" lon="-0.19177">
        <ele>25.4</ele>
        <time>2024-07-03T14:19:38Z</time>
      </trkpt>
      <trkpt lat="49.11868" lon="-0.19174">
        <ele>25.2</ele>
        <time>2024-07-03T14:19:39Z</time>
      </trkpt>
      <trkpt lat="49.11878" lon="-0.19171">
        <ele>25</ele>
        <time>2024-07-03T14:19:40Z</time>
      </trkpt>
      <trkpt lat="49.11888" lon="-0.19168">
        <ele>24.6</ele>
        <time>2024-07-03T14:19:41Z</time>
      </trkpt>
      <trkpt lat="49.11899" lon="-0.19165">
        <ele>24.2</ele>
        <time>2024-07-03T14:19:42Z</time>
      </trkpt>
      <trkpt lat="49.11909" lon="-0.19161">
        <ele>23.8</ele>
        <time>2024-07-03T14:19:43Z</time>
      </trkpt>
      <trkpt lat="49.11919" lon="-0.19158">
        <ele>23.4</ele>
        <time>2024-07-03T14:19:44Z</time>
      </trkpt>
      <trkpt lat="49.1193" lon="-0.19155">
        <ele>23.4</ele>
        <time>2024-07-03T14:19:45Z</time>
      </trkpt>
      <trkpt lat="49.1194" lon="-0.19152">
        <ele>23.2</ele>
        <time>2024-07-03T14:19:46Z</time>
      </trkpt>
      <trkpt lat="49.11951" lon="-0.19149">
        <ele>23</ele>
        <time>2024-07-03T14:19:47Z</time>
      </trkpt>
      <trkpt lat="49.1196" lon="-0.19146">
        <ele>23</ele>
        <time>2024-07-03T14:19:48Z</time>
      </trkpt>
      <trkpt lat="49.1197" lon="-0.19143">
        <ele>23.2</ele>
        <time>2024-07-03T14:19:49Z</time>
      </trkpt>
      <trkpt lat="49.1198" lon="-0.19141">
        <ele>23.2</ele>
        <time>2024-07-03T14:19:50Z</time>
      </trkpt>
      <trkpt lat="49.11989" lon="-0.19139">
        <ele>23</ele>
        <time>2024-07-03T14:19:51Z</time>
      </trkpt>
      <trkpt lat="49.11998" lon="-0.19136">
        <ele>22.8</ele>
        <time>2024-07-03T14:19:52Z</time>
      </trkpt>
      <trkpt lat="49.12007" lon="-0.19135">
        <ele>22.8</ele>
        <time>2024-07-03T14:19:53Z</time>
      </trkpt>
      <trkpt lat="49.12015" lon="-0.19133">
        <ele>22.6</ele>
        <time>2024-07-03T14:19:54Z</time>
      </trkpt>
      <trkpt lat="49.12023" lon="-0.19131">
        <ele>22.4</ele>
        <time>2024-07-03T14:19:55Z</time>
      </trkpt>
      <trkpt lat="49.1203" lon="-0.19129">
        <ele>22.4</ele>
        <time>2024-07-03T14:19:56Z</time>
      </trkpt>
      <trkpt lat="49.12036" lon="-0.19127">
        <ele>22.6</ele>
        <time>2024-07-03T14:19:57Z</time>
      </trkpt>
      <trkpt lat="49.1204" lon="-0.19125">
        <ele>23</ele>
        <time>2024-07-03T14:19:58Z</time>
      </trkpt>
      <trkpt lat="49.12044" lon="-0.19122">
        <ele>23.6</ele>
        <time>2024-07-03T14:19:59Z</time>
      </trkpt>
      <trkpt lat="49.12047" lon="-0.19119">
        <ele>24.2</ele>
        <time>2024-07-03T14:20:00Z</time>
      </trkpt>
      <trkpt lat="49.1205" lon="-0.19117">
        <ele>24.8</ele>
        <time>2024-07-03T14:20:01Z</time>
      </trkpt>
      <trkpt lat="49.12052" lon="-0.19115">
        <ele>25.2</ele>
        <time>2024-07-03T14:20:02Z</time>
      </trkpt>
      <trkpt lat="49.12053" lon="-0.19112">
        <ele>25.8</ele>
        <time>2024-07-03T14:20:03Z</time>
      </trkpt>
      <trkpt lat="49.12054" lon="-0.19109">
        <ele>26</ele>
        <time>2024-07-03T14:20:04Z</time>
      </trkpt>
      <trkpt lat="49.12054" lon="-0.19105">
        <ele>26.2</ele>
        <time>2024-07-03T14:20:05Z</time>
      </trkpt>
      <trkpt lat="49.12055" lon="-0.19102">
        <ele>26.4</ele>
        <time>2024-07-03T14:20:06Z</time>
      </trkpt>
      <trkpt lat="49.12056" lon="-0.19097">
        <ele>26.6</ele>
        <time>2024-07-03T14:20:07Z</time>
      </trkpt>
      <trkpt lat="49.12056" lon="-0.19091">
        <ele>26.6</ele>
        <time>2024-07-03T14:20:08Z</time>
      </trkpt>
      <trkpt lat="49.12057" lon="-0.19085">
        <ele>26.6</ele>
        <time>2024-07-03T14:20:09Z</time>
      </trkpt>
      <trkpt lat="49.12059" lon="-0.1908">
        <ele>26.6</ele>
        <time>2024-07-03T14:20:10Z</time>
      </trkpt>
      <trkpt lat="49.12061" lon="-0.19074">
        <ele>26.6</ele>
        <time>2024-07-03T14:20:11Z</time>
      </trkpt>
      <trkpt lat="49.12063" lon="-0.19068">
        <ele>26.6</ele>
        <time>2024-07-03T14:20:12Z</time>
      </trkpt>
      <trkpt lat="49.12065" lon="-0.19063">
        <ele>26.6</ele>
        <time>2024-07-03T14:20:13Z</time>
      </trkpt>
      <trkpt lat="49.12068" lon="-0.19058">
        <ele>26.6</ele>
        <time>2024-07-03T14:20:14Z</time>
      </trkpt>
      <trkpt lat="49.12071" lon="-0.19054">
        <ele>26.6</ele>
        <time>2024-07-03T14:20:15Z</time>
      </trkpt>
      <trkpt lat="49.12073" lon="-0.19051">
        <ele>26.6</ele>
        <time>2024-07-03T14:20:16Z</time>
      </trkpt>
      <trkpt lat="49.12075" lon="-0.19048">
        <ele>26.6</ele>
        <time>2024-07-03T14:20:17Z</time>
      </trkpt>
      <trkpt lat="49.12078" lon="-0.19045">
        <ele>26.6</ele>
        <time>2024-07-03T14:20:18Z</time>
      </trkpt>
      <trkpt lat="49.1208" lon="-0.19043">
        <ele>26.6</ele>
        <time>2024-07-03T14:20:19Z</time>
      </trkpt>
      <trkpt lat="49.12084" lon="-0.19041">
        <ele>26.6</ele>
        <time>2024-07-03T14:20:20Z</time>
      </trkpt>
      <trkpt lat="49.12087" lon="-0.1904">
        <ele>26.6</ele>
        <time>2024-07-03T14:20:21Z</time>
      </trkpt>
      <trkpt lat="49.1209" lon="-0.1904">
        <ele>26.4</ele>
        <time>2024-07-03T14:20:22Z</time>
      </trkpt>
      <trkpt lat="49.12094" lon="-0.1904">
        <ele>26.4</ele>
        <time>2024-07-03T14:20:23Z</time>
      </trkpt>
      <trkpt lat="49.12098" lon="-0.1904">
        <ele>26.4</ele>
        <time>2024-07-03T14:20:24Z</time>
      </trkpt>
      <trkpt lat="49.12103" lon="-0.1904">
        <ele>26.4</ele>
        <time>2024-07-03T14:20:25Z</time>
      </trkpt>
      <trkpt lat="49.12108" lon="-0.1904">
        <ele>26.4</ele>
        <time>2024-07-03T14:20:26Z</time>
      </trkpt>
      <trkpt lat="49.12113" lon="-0.19039">
        <ele>26.2</ele>
        <time>2024-07-03T14:20:27Z</time>
      </trkpt>
      <trkpt lat="49.12118" lon="-0.19035">
        <ele>26</ele>
        <time>2024-07-03T14:20:28Z</time>
      </trkpt>
      <trkpt lat="49.12122" lon="-0.19029">
        <ele>25.8</ele>
        <time>2024-07-03T14:20:29Z</time>
      </trkpt>
      <trkpt lat="49.12126" lon="-0.19022">
        <ele>25.8</ele>
        <time>2024-07-03T14:20:30Z</time>
      </trkpt>
      <trkpt lat="49.1213" lon="-0.19014">
        <ele>25.8</ele>
        <time>2024-07-03T14:20:31Z</time>
      </trkpt>
      <trkpt lat="49.12134" lon="-0.19005">
        <ele>25.8</ele>
        <time>2024-07-03T14:20:32Z</time>
      </trkpt>
      <trkpt lat="49.12138" lon="-0.18997">
        <ele>25.8</ele>
        <time>2024-07-03T14:20:33Z</time>
      </trkpt>
      <trkpt lat="49.12142" lon="-0.18989">
        <ele>25.8</ele>
        <time>2024-07-03T14:20:34Z</time>
      </trkpt>
      <trkpt lat="49.12146" lon="-0.18981">
        <ele>25.8</ele>
        <time>2024-07-03T14:20:35Z</time>
      </trkpt>
      <trkpt lat="49.12151" lon="-0.18972">
        <ele>25.8</ele>
        <time>2024-07-03T14:20:36Z</time>
      </trkpt>
      <trkpt lat="49.12156" lon="-0.18964">
        <ele>25.8</ele>
        <time>2024-07-03T14:20:37Z</time>
      </trkpt>
      <trkpt lat="49.12161" lon="-0.18957">
        <ele>25.6</ele>
        <time>2024-07-03T14:20:38Z</time>
      </trkpt>
      <trkpt lat="49.12166" lon="-0.1895">
        <ele>25.2</ele>
        <time>2024-07-03T14:20:39Z</time>
      </trkpt>
      <trkpt lat="49.12172" lon="-0.18943">
        <ele>25</ele>
        <time>2024-07-03T14:20:40Z</time>
      </trkpt>
      <trkpt lat="49.12179" lon="-0.18937">
        <ele>24.6</ele>
        <time>2024-07-03T14:20:41Z</time>
      </trkpt>
      <trkpt lat="49.12185" lon="-0.18932">
        <ele>24.4</ele>
        <time>2024-07-03T14:20:42Z</time>
      </trkpt>
      <trkpt lat="49.12192" lon="-0.18927">
        <ele>24.2</ele>
        <time>2024-07-03T14:20:43Z</time>
      </trkpt>
      <trkpt lat="49.12199" lon="-0.18923">
        <ele>23.8</ele>
        <time>2024-07-03T14:20:44Z</time>
      </trkpt>
      <trkpt lat="49.12206" lon="-0.18919">
        <ele>23.4</ele>
        <time>2024-07-03T14:20:45Z</time>
      </trkpt>
      <trkpt lat="49.12214" lon="-0.18915">
        <ele>23</ele>
        <time>2024-07-03T14:20:46Z</time>
      </trkpt>
      <trkpt lat="49.12221" lon="-0.18913">
        <ele>22.8</ele>
        <time>2024-07-03T14:20:47Z</time>
      </trkpt>
      <trkpt lat="49.12229" lon="-0.1891">
        <ele>22.6</ele>
        <time>2024-07-03T14:20:48Z</time>
      </trkpt>
      <trkpt lat="49.12238" lon="-0.18907">
        <ele>22.2</ele>
        <time>2024-07-03T14:20:49Z</time>
      </trkpt>
      <trkpt lat="49.12246" lon="-0.18905">
        <ele>21.8</ele>
        <time>2024-07-03T14:20:50Z</time>
      </trkpt>
      <trkpt lat="49.12255" lon="-0.18902">
        <ele>21.4</ele>
        <time>2024-07-03T14:20:51Z</time>
      </trkpt>
      <trkpt lat="49.12263" lon="-0.18899">
        <ele>21</ele>
        <time>2024-07-03T14:20:52Z</time>
      </trkpt>
      <trkpt lat="49.12272" lon="-0.18897">
        <ele>20.6</ele>
        <time>2024-07-03T14:20:53Z</time>
      </trkpt>
      <trkpt lat="49.12281" lon="-0.18894">
        <ele>20.4</ele>
        <time>2024-07-03T14:20:54Z</time>
      </trkpt>
      <trkpt lat="49.12289" lon="-0.18891">
        <ele>20.4</ele>
        <time>2024-07-03T14:20:55Z</time>
      </trkpt>
      <trkpt lat="49.12298" lon="-0.18889">
        <ele>20.4</ele>
        <time>2024-07-03T14:20:56Z</time>
      </trkpt>
      <trkpt lat="49.12307" lon="-0.18886">
        <ele>20.4</ele>
        <time>2024-07-03T14:20:57Z</time>
      </trkpt>
      <trkpt lat="49.12315" lon="-0.18883">
        <ele>20.4</ele>
        <time>2024-07-03T14:20:58Z</time>
      </trkpt>
      <trkpt lat="49.12324" lon="-0.1888">
        <ele>20.4</ele>
        <time>2024-07-03T14:20:59Z</time>
      </trkpt>
      <trkpt lat="49.12333" lon="-0.18877">
        <ele>20.6</ele>
        <time>2024-07-03T14:21:00Z</time>
      </trkpt>
      <trkpt lat="49.12342" lon="-0.18873">
        <ele>20.6</ele>
        <time>2024-07-03T14:21:01Z</time>
      </trkpt>
      <trkpt lat="49.1235" lon="-0.18869">
        <ele>20.6</ele>
        <time>2024-07-03T14:21:02Z</time>
      </trkpt>
      <trkpt lat="49.12359" lon="-0.18864">
        <ele>20.8</ele>
        <time>2024-07-03T14:21:03Z</time>
      </trkpt>
      <trkpt lat="49.12368" lon="-0.18858">
        <ele>20.8</ele>
        <time>2024-07-03T14:21:04Z</time>
      </trkpt>
      <trkpt lat="49.12376" lon="-0.1885">
        <ele>21</ele>
        <time>2024-07-03T14:21:05Z</time>
      </trkpt>
      <trkpt lat="49.12384" lon="-0.18841">
        <ele>21</ele>
        <time>2024-07-03T14:21:06Z</time>
      </trkpt>
      <trkpt lat="49.12392" lon="-0.1883">
        <ele>21.2</ele>
        <time>2024-07-03T14:21:07Z</time>
      </trkpt>
      <trkpt lat="49.12399" lon="-0.18819">
        <ele>21.2</ele>
        <time>2024-07-03T14:21:08Z</time>
      </trkpt>
      <trkpt lat="49.12405" lon="-0.18806">
        <ele>21</ele>
        <time>2024-07-03T14:21:09Z</time>
      </trkpt>
      <trkpt lat="49.1241" lon="-0.18793">
        <ele>21</ele>
        <time>2024-07-03T14:21:10Z</time>
      </trkpt>
      <trkpt lat="49.12415" lon="-0.1878">
        <ele>21</ele>
        <time>2024-07-03T14:21:11Z</time>
      </trkpt>
      <trkpt lat="49.12419" lon="-0.18766">
        <ele>21</ele>
        <time>2024-07-03T14:21:12Z</time>
      </trkpt>
      <trkpt lat="49.12422" lon="-0.18752">
        <ele>21</ele>
        <time>2024-07-03T14:21:13Z</time>
      </trkpt>
      <trkpt lat="49.12424" lon="-0.18737">
        <ele>21</ele>
        <time>2024-07-03T14:21:14Z</time>
      </trkpt>
      <trkpt lat="49.12426" lon="-0.18723">
        <ele>21</ele>
        <time>2024-07-03T14:21:15Z</time>
      </trkpt>
      <trkpt lat="49.12428" lon="-0.18708">
        <ele>21</ele>
        <time>2024-07-03T14:21:16Z</time>
      </trkpt>
      <trkpt lat="49.1243" lon="-0.18693">
        <ele>21</ele>
        <time>2024-07-03T14:21:17Z</time>
      </trkpt>
      <trkpt lat="49.12433" lon="-0.18678">
        <ele>20.6</ele>
        <time>2024-07-03T14:21:18Z</time>
      </trkpt>
      <trkpt lat="49.12435" lon="-0.18662">
        <ele>20.4</ele>
        <time>2024-07-03T14:21:19Z</time>
      </trkpt>
      <trkpt lat="49.12437" lon="-0.18647">
        <ele>20.2</ele>
        <time>2024-07-03T14:21:20Z</time>
      </trkpt>
      <trkpt lat="49.12439" lon="-0.18631">
        <ele>20</ele>
        <time>2024-07-03T14:21:21Z</time>
      </trkpt>
      <trkpt lat="49.12441" lon="-0.18616">
        <ele>20</ele>
        <time>2024-07-03T14:21:22Z</time>
      </trkpt>
      <trkpt lat="49.12443" lon="-0.18601">
        <ele>19.8</ele>
        <time>2024-07-03T14:21:23Z</time>
      </trkpt>
      <trkpt lat="49.12446" lon="-0.18585">
        <ele>19.6</ele>
        <time>2024-07-03T14:21:24Z</time>
      </trkpt>
      <trkpt lat="49.12448" lon="-0.1857">
        <ele>19.4</ele>
        <time>2024-07-03T14:21:25Z</time>
      </trkpt>
      <trkpt lat="49.12451" lon="-0.18554">
        <ele>19</ele>
        <time>2024-07-03T14:21:26Z</time>
      </trkpt>
      <trkpt lat="49.12453" lon="-0.18538">
        <ele>18.8</ele>
        <time>2024-07-03T14:21:27Z</time>
      </trkpt>
      <trkpt lat="49.12455" lon="-0.18522">
        <ele>18.6</ele>
        <time>2024-07-03T14:21:28Z</time>
      </trkpt>
      <trkpt lat="49.12458" lon="-0.18506">
        <ele>18.6</ele>
        <time>2024-07-03T14:21:29Z</time>
      </trkpt>
      <trkpt lat="49.1246" lon="-0.18491">
        <ele>18.6</ele>
        <time>2024-07-03T14:21:30Z</time>
      </trkpt>
      <trkpt lat="49.12463" lon="-0.18476">
        <ele>18.6</ele>
        <time>2024-07-03T14:21:31Z</time>
      </trkpt>
      <trkpt lat="49.12467" lon="-0.18462">
        <ele>18.8</ele>
        <time>2024-07-03T14:21:32Z</time>
      </trkpt>
      <trkpt lat="49.1247" lon="-0.18448">
        <ele>18.8</ele>
        <time>2024-07-03T14:21:33Z</time>
      </trkpt>
      <trkpt lat="49.12474" lon="-0.18434">
        <ele>19</ele>
        <time>2024-07-03T14:21:34Z</time>
      </trkpt>
      <trkpt lat="49.12478" lon="-0.18421">
        <ele>19.2</ele>
        <time>2024-07-03T14:21:35Z</time>
      </trkpt>
      <trkpt lat="49.12482" lon="-0.18407">
        <ele>19.2</ele>
        <time>2024-07-03T14:21:36Z</time>
      </trkpt>
      <trkpt lat="49.12485" lon="-0.18393">
        <ele>19.4</ele>
        <time>2024-07-03T14:21:37Z</time>
      </trkpt>
      <trkpt lat="49.12489" lon="-0.1838">
        <ele>19.6</ele>
        <time>2024-07-03T14:21:38Z</time>
      </trkpt>
      <trkpt lat="49.12492" lon="-0.18366">
        <ele>19.8</ele>
        <time>2024-07-03T14:21:39Z</time>
      </trkpt>
      <trkpt lat="49.12494" lon="-0.18352">
        <ele>19.8</ele>
        <time>2024-07-03T14:21:40Z</time>
      </trkpt>
      <trkpt lat="49.12497" lon="-0.18338">
        <ele>19.8</ele>
        <time>2024-07-03T14:21:41Z</time>
      </trkpt>
      <trkpt lat="49.125" lon="-0.18324">
        <ele>19.6</ele>
        <time>2024-07-03T14:21:42Z</time>
      </trkpt>
      <trkpt lat="49.12503" lon="-0.1831">
        <ele>19.6</ele>
        <time>2024-07-03T14:21:43Z</time>
      </trkpt>
      <trkpt lat="49.12506" lon="-0.18296">
        <ele>19.4</ele>
        <time>2024-07-03T14:21:44Z</time>
      </trkpt>
      <trkpt lat="49.12509" lon="-0.18282">
        <ele>19.4</ele>
        <time>2024-07-03T14:21:45Z</time>
      </trkpt>
      <trkpt lat="49.12512" lon="-0.18267">
        <ele>19.4</ele>
        <time>2024-07-03T14:21:46Z</time>
      </trkpt>
      <trkpt lat="49.12514" lon="-0.18253">
        <ele>19.4</ele>
        <time>2024-07-03T14:21:47Z</time>
      </trkpt>
      <trkpt lat="49.12517" lon="-0.18238">
        <ele>19.4</ele>
        <time>2024-07-03T14:21:48Z</time>
      </trkpt>
      <trkpt lat="49.1252" lon="-0.18223">
        <ele>19.4</ele>
        <time>2024-07-03T14:21:49Z</time>
      </trkpt>
      <trkpt lat="49.12522" lon="-0.18209">
        <ele>19.4</ele>
        <time>2024-07-03T14:21:50Z</time>
      </trkpt>
      <trkpt lat="49.12525" lon="-0.18194">
        <ele>19.6</ele>
        <time>2024-07-03T14:21:51Z</time>
      </trkpt>
      <trkpt lat="49.12528" lon="-0.18179">
        <ele>19.6</ele>
        <time>2024-07-03T14:21:52Z</time>
      </trkpt>
      <trkpt lat="49.12531" lon="-0.18165">
        <ele>19.6</ele>
        <time>2024-07-03T14:21:53Z</time>
      </trkpt>
      <trkpt lat="49.12533" lon="-0.18151">
        <ele>19.4</ele>
        <time>2024-07-03T14:21:54Z</time>
      </trkpt>
      <trkpt lat="49.12536" lon="-0.18136">
        <ele>19.2</ele>
        <time>2024-07-03T14:21:55Z</time>
      </trkpt>
      <trkpt lat="49.12539" lon="-0.18121">
        <ele>19</ele>
        <time>2024-07-03T14:21:56Z</time>
      </trkpt>
      <trkpt lat="49.12541" lon="-0.18107">
        <ele>18.8</ele>
        <time>2024-07-03T14:21:57Z</time>
      </trkpt>
      <trkpt lat="49.12542" lon="-0.18092">
        <ele>18.6</ele>
        <time>2024-07-03T14:21:58Z</time>
      </trkpt>
      <trkpt lat="49.12544" lon="-0.18078">
        <ele>18.6</ele>
        <time>2024-07-03T14:21:59Z</time>
      </trkpt>
      <trkpt lat="49.12545" lon="-0.18063">
        <ele>18.4</ele>
        <time>2024-07-03T14:22:00Z</time>
      </trkpt>
      <trkpt lat="49.12547" lon="-0.18048">
        <ele>18.2</ele>
        <time>2024-07-03T14:22:01Z</time>
      </trkpt>
      <trkpt lat="49.12548" lon="-0.18033">
        <ele>18.2</ele>
        <time>2024-07-03T14:22:02Z</time>
      </trkpt>
      <trkpt lat="49.12549" lon="-0.18018">
        <ele>18.2</ele>
        <time>2024-07-03T14:22:03Z</time>
      </trkpt>
      <trkpt lat="49.12551" lon="-0.18004">
        <ele>18.2</ele>
        <time>2024-07-03T14:22:04Z</time>
      </trkpt>
      <trkpt lat="49.12552" lon="-0.17989">
        <ele>18.2</ele>
        <time>2024-07-03T14:22:05Z</time>
      </trkpt>
      <trkpt lat="49.12553" lon="-0.17975">
        <ele>18.2</ele>
        <time>2024-07-03T14:22:06Z</time>
      </trkpt>
      <trkpt lat="49.12554" lon="-0.17961">
        <ele>18.2</ele>
        <time>2024-07-03T14:22:07Z</time>
      </trkpt>
      <trkpt lat="49.12555" lon="-0.17947">
        <ele>18.2</ele>
        <time>2024-07-03T14:22:08Z</time>
      </trkpt>
      <trkpt lat="49.12557" lon="-0.17933">
        <ele>18.2</ele>
        <time>2024-07-03T14:22:09Z</time>
      </trkpt>
      <trkpt lat="49.12558" lon="-0.17918">
        <ele>18.2</ele>
        <time>2024-07-03T14:22:10Z</time>
      </trkpt>
      <trkpt lat="49.12559" lon="-0.17904">
        <ele>18.2</ele>
        <time>2024-07-03T14:22:11Z</time>
      </trkpt>
      <trkpt lat="49.1256" lon="-0.1789">
        <ele>18.2</ele>
        <time>2024-07-03T14:22:12Z</time>
      </trkpt>
      <trkpt lat="49.12561" lon="-0.17876">
        <ele>18</ele>
        <time>2024-07-03T14:22:13Z</time>
      </trkpt>
      <trkpt lat="49.12562" lon="-0.17861">
        <ele>18</ele>
        <time>2024-07-03T14:22:14Z</time>
      </trkpt>
      <trkpt lat="49.12562" lon="-0.17847">
        <ele>18</ele>
        <time>2024-07-03T14:22:15Z</time>
      </trkpt>
      <trkpt lat="49.12562" lon="-0.17832">
        <ele>17.8</ele>
        <time>2024-07-03T14:22:16Z</time>
      </trkpt>
      <trkpt lat="49.12561" lon="-0.17818">
        <ele>17.8</ele>
        <time>2024-07-03T14:22:17Z</time>
      </trkpt>
      <trkpt lat="49.12561" lon="-0.17803">
        <ele>17.8</ele>
        <time>2024-07-03T14:22:18Z</time>
      </trkpt>
      <trkpt lat="49.12561" lon="-0.17788">
        <ele>17.8</ele>
        <time>2024-07-03T14:22:19Z</time>
      </trkpt>
      <trkpt lat="49.12562" lon="-0.17774">
        <ele>17.8</ele>
        <time>2024-07-03T14:22:20Z</time>
      </trkpt>
      <trkpt lat="49.12562" lon="-0.1776">
        <ele>17.8</ele>
        <time>2024-07-03T14:22:21Z</time>
      </trkpt>
      <trkpt lat="49.12563" lon="-0.17745">
        <ele>17.8</ele>
        <time>2024-07-03T14:22:22Z</time>
      </trkpt>
      <trkpt lat="49.12563" lon="-0.17731">
        <ele>17.8</ele>
        <time>2024-07-03T14:22:23Z</time>
      </trkpt>
      <trkpt lat="49.12564" lon="-0.17716">
        <ele>17.8</ele>
        <time>2024-07-03T14:22:24Z</time>
      </trkpt>
      <trkpt lat="49.12565" lon="-0.17701">
        <ele>17.8</ele>
        <time>2024-07-03T14:22:25Z</time>
      </trkpt>
      <trkpt lat="49.12565" lon="-0.17687">
        <ele>17.8</ele>
        <time>2024-07-03T14:22:26Z</time>
      </trkpt>
      <trkpt lat="49.12565" lon="-0.17673">
        <ele>17.8</ele>
        <time>2024-07-03T14:22:27Z</time>
      </trkpt>
      <trkpt lat="49.12564" lon="-0.17659">
        <ele>17.8</ele>
        <time>2024-07-03T14:22:28Z</time>
      </trkpt>
      <trkpt lat="49.12564" lon="-0.17646">
        <ele>17.8</ele>
        <time>2024-07-03T14:22:29Z</time>
      </trkpt>
      <trkpt lat="49.12563" lon="-0.17634">
        <ele>17.8</ele>
        <time>2024-07-03T14:22:30Z</time>
      </trkpt>
      <trkpt lat="49.12562" lon="-0.17621">
        <ele>17.8</ele>
        <time>2024-07-03T14:22:31Z</time>
      </trkpt>
      <trkpt lat="49.1256" lon="-0.1761">
        <ele>17.8</ele>
        <time>2024-07-03T14:22:32Z</time>
      </trkpt>
      <trkpt lat="49.12558" lon="-0.176">
        <ele>18</ele>
        <time>2024-07-03T14:22:33Z</time>
      </trkpt>
      <trkpt lat="49.12557" lon="-0.1759">
        <ele>18</ele>
        <time>2024-07-03T14:22:34Z</time>
      </trkpt>
      <trkpt lat="49.12558" lon="-0.17579">
        <ele>18</ele>
        <time>2024-07-03T14:22:35Z</time>
      </trkpt>
      <trkpt lat="49.1256" lon="-0.17568">
        <ele>18.2</ele>
        <time>2024-07-03T14:22:36Z</time>
      </trkpt>
      <trkpt lat="49.12562" lon="-0.17556">
        <ele>18.2</ele>
        <time>2024-07-03T14:22:37Z</time>
      </trkpt>
      <trkpt lat="49.12564" lon="-0.17544">
        <ele>18</ele>
        <time>2024-07-03T14:22:38Z</time>
      </trkpt>
      <trkpt lat="49.12566" lon="-0.17531">
        <ele>18</ele>
        <time>2024-07-03T14:22:39Z</time>
      </trkpt>
      <trkpt lat="49.12567" lon="-0.17519">
        <ele>17.8</ele>
        <time>2024-07-03T14:22:40Z</time>
      </trkpt>
      <trkpt lat="49.12568" lon="-0.17506">
        <ele>17.8</ele>
        <time>2024-07-03T14:22:41Z</time>
      </trkpt>
      <trkpt lat="49.12569" lon="-0.17494">
        <ele>17.8</ele>
        <time>2024-07-03T14:22:42Z</time>
      </trkpt>
      <trkpt lat="49.12571" lon="-0.17481">
        <ele>17.8</ele>
        <time>2024-07-03T14:22:43Z</time>
      </trkpt>
      <trkpt lat="49.12572" lon="-0.17469">
        <ele>17.6</ele>
        <time>2024-07-03T14:22:44Z</time>
      </trkpt>
      <trkpt lat="49.12574" lon="-0.17457">
        <ele>17.8</ele>
        <time>2024-07-03T14:22:45Z</time>
      </trkpt>
      <trkpt lat="49.12576" lon="-0.17444">
        <ele>17.8</ele>
        <time>2024-07-03T14:22:46Z</time>
      </trkpt>
      <trkpt lat="49.12578" lon="-0.17432">
        <ele>17.8</ele>
        <time>2024-07-03T14:22:47Z</time>
      </trkpt>
      <trkpt lat="49.12581" lon="-0.17419">
        <ele>17.8</ele>
        <time>2024-07-03T14:22:48Z</time>
      </trkpt>
      <trkpt lat="49.12583" lon="-0.17406">
        <ele>17.8</ele>
        <time>2024-07-03T14:22:49Z</time>
      </trkpt>
      <trkpt lat="49.12586" lon="-0.17393">
        <ele>17.8</ele>
        <time>2024-07-03T14:22:50Z</time>
      </trkpt>
      <trkpt lat="49.12588" lon="-0.17379">
        <ele>17.8</ele>
        <time>2024-07-03T14:22:51Z</time>
      </trkpt>
      <trkpt lat="49.12591" lon="-0.17366">
        <ele>17.8</ele>
        <time>2024-07-03T14:22:52Z</time>
      </trkpt>
      <trkpt lat="49.12594" lon="-0.17352">
        <ele>17.6</ele>
        <time>2024-07-03T14:22:53Z</time>
      </trkpt>
      <trkpt lat="49.12596" lon="-0.17338">
        <ele>17.6</ele>
        <time>2024-07-03T14:22:54Z</time>
      </trkpt>
      <trkpt lat="49.12599" lon="-0.17324">
        <ele>17.6</ele>
        <time>2024-07-03T14:22:55Z</time>
      </trkpt>
      <trkpt lat="49.12602" lon="-0.17311">
        <ele>17.6</ele>
        <time>2024-07-03T14:22:56Z</time>
      </trkpt>
      <trkpt lat="49.12604" lon="-0.17297">
        <ele>17.6</ele>
        <time>2024-07-03T14:22:57Z</time>
      </trkpt>
      <trkpt lat="49.12607" lon="-0.17284">
        <ele>17.6</ele>
        <time>2024-07-03T14:22:58Z</time>
      </trkpt>
      <trkpt lat="49.12609" lon="-0.17271">
        <ele>17.4</ele>
        <time>2024-07-03T14:22:59Z</time>
      </trkpt>
      <trkpt lat="49.12612" lon="-0.17257">
        <ele>17.4</ele>
        <time>2024-07-03T14:23:00Z</time>
      </trkpt>
      <trkpt lat="49.12615" lon="-0.17244">
        <ele>17.4</ele>
        <time>2024-07-03T14:23:01Z</time>
      </trkpt>
      <trkpt lat="49.12618" lon="-0.1723">
        <ele>17.2</ele>
        <time>2024-07-03T14:23:02Z</time>
      </trkpt>
      <trkpt lat="49.1262" lon="-0.17217">
        <ele>17.2</ele>
        <time>2024-07-03T14:23:03Z</time>
      </trkpt>
      <trkpt lat="49.12623" lon="-0.17202">
        <ele>17.2</ele>
        <time>2024-07-03T14:23:04Z</time>
      </trkpt>
      <trkpt lat="49.12625" lon="-0.17188">
        <ele>17.2</ele>
        <time>2024-07-03T14:23:05Z</time>
      </trkpt>
      <trkpt lat="49.12628" lon="-0.17174">
        <ele>17.2</ele>
        <time>2024-07-03T14:23:06Z</time>
      </trkpt>
      <trkpt lat="49.1263" lon="-0.1716">
        <ele>17</ele>
        <time>2024-07-03T14:23:07Z</time>
      </trkpt>
      <trkpt lat="49.12633" lon="-0.17146">
        <ele>17</ele>
        <time>2024-07-03T14:23:08Z</time>
      </trkpt>
      <trkpt lat="49.12635" lon="-0.17132">
        <ele>16.8</ele>
        <time>2024-07-03T14:23:09Z</time>
      </trkpt>
      <trkpt lat="49.12637" lon="-0.17118">
        <ele>16.8</ele>
        <time>2024-07-03T14:23:10Z</time>
      </trkpt>
      <trkpt lat="49.12639" lon="-0.17105">
        <ele>16.8</ele>
        <time>2024-07-03T14:23:11Z</time>
      </trkpt>
      <trkpt lat="49.12641" lon="-0.17091">
        <ele>16.8</ele>
        <time>2024-07-03T14:23:12Z</time>
      </trkpt>
      <trkpt lat="49.12643" lon="-0.17077">
        <ele>16.8</ele>
        <time>2024-07-03T14:23:13Z</time>
      </trkpt>
      <trkpt lat="49.12645" lon="-0.17064">
        <ele>16.6</ele>
        <time>2024-07-03T14:23:14Z</time>
      </trkpt>
      <trkpt lat="49.12647" lon="-0.1705">
        <ele>16.6</ele>
        <time>2024-07-03T14:23:15Z</time>
      </trkpt>
      <trkpt lat="49.12649" lon="-0.17036">
        <ele>16.6</ele>
        <time>2024-07-03T14:23:16Z</time>
      </trkpt>
      <trkpt lat="49.1265" lon="-0.17023">
        <ele>16.4</ele>
        <time>2024-07-03T14:23:17Z</time>
      </trkpt>
      <trkpt lat="49.12651" lon="-0.17009">
        <ele>16.4</ele>
        <time>2024-07-03T14:23:18Z</time>
      </trkpt>
      <trkpt lat="49.12652" lon="-0.16995">
        <ele>16.2</ele>
        <time>2024-07-03T14:23:19Z</time>
      </trkpt>
      <trkpt lat="49.12653" lon="-0.16982">
        <ele>16.2</ele>
        <time>2024-07-03T14:23:20Z</time>
      </trkpt>
      <trkpt lat="49.12653" lon="-0.16968">
        <ele>16</ele>
        <time>2024-07-03T14:23:21Z</time>
      </trkpt>
      <trkpt lat="49.12655" lon="-0.16955">
        <ele>16</ele>
        <time>2024-07-03T14:23:22Z</time>
      </trkpt>
      <trkpt lat="49.12656" lon="-0.16942">
        <ele>15.8</ele>
        <time>2024-07-03T14:23:23Z</time>
      </trkpt>
      <trkpt lat="49.12657" lon="-0.16929">
        <ele>15.6</ele>
        <time>2024-07-03T14:23:24Z</time>
      </trkpt>
      <trkpt lat="49.12658" lon="-0.16917">
        <ele>15.6</ele>
        <time>2024-07-03T14:23:25Z</time>
      </trkpt>
      <trkpt lat="49.12658" lon="-0.16906">
        <ele>15.6</ele>
        <time>2024-07-03T14:23:26Z</time>
      </trkpt>
      <trkpt lat="49.12656" lon="-0.16896">
        <ele>15.6</ele>
        <time>2024-07-03T14:23:27Z</time>
      </trkpt>
      <trkpt lat="49.12654" lon="-0.16888">
        <ele>15.6</ele>
        <time>2024-07-03T14:23:28Z</time>
      </trkpt>
      <trkpt lat="49.12654" lon="-0.1688">
        <ele>15.6</ele>
        <time>2024-07-03T14:23:29Z</time>
      </trkpt>
      <trkpt lat="49.12656" lon="-0.16873">
        <ele>15.6</ele>
        <time>2024-07-03T14:23:30Z</time>
      </trkpt>
      <trkpt lat="49.12659" lon="-0.16865">
        <ele>15.6</ele>
        <time>2024-07-03T14:23:31Z</time>
      </trkpt>
      <trkpt lat="49.12662" lon="-0.16857">
        <ele>15.4</ele>
        <time>2024-07-03T14:23:32Z</time>
      </trkpt>
      <trkpt lat="49.12664" lon="-0.16847">
        <ele>15.2</ele>
        <time>2024-07-03T14:23:33Z</time>
      </trkpt>
      <trkpt lat="49.12665" lon="-0.16836">
        <ele>15</ele>
        <time>2024-07-03T14:23:34Z</time>
      </trkpt>
      <trkpt lat="49.12665" lon="-0.16826">
        <ele>14.8</ele>
        <time>2024-07-03T14:23:35Z</time>
      </trkpt>
      <trkpt lat="49.12666" lon="-0.16815">
        <ele>14.6</ele>
        <time>2024-07-03T14:23:36Z</time>
      </trkpt>
      <trkpt lat="49.12666" lon="-0.16804">
        <ele>14.4</ele>
        <time>2024-07-03T14:23:37Z</time>
      </trkpt>
      <trkpt lat="49.12668" lon="-0.16792">
        <ele>14.2</ele>
        <time>2024-07-03T14:23:38Z</time>
      </trkpt>
      <trkpt lat="49.12669" lon="-0.16779">
        <ele>14</ele>
        <time>2024-07-03T14:23:39Z</time>
      </trkpt>
      <trkpt lat="49.1267" lon="-0.16767">
        <ele>14</ele>
        <time>2024-07-03T14:23:40Z</time>
      </trkpt>
      <trkpt lat="49.12671" lon="-0.16755">
        <ele>14</ele>
        <time>2024-07-03T14:23:41Z</time>
      </trkpt>
      <trkpt lat="49.12674" lon="-0.16744">
        <ele>13.8</ele>
        <time>2024-07-03T14:23:42Z</time>
      </trkpt>
      <trkpt lat="49.12676" lon="-0.16731">
        <ele>13.6</ele>
        <time>2024-07-03T14:23:43Z</time>
      </trkpt>
      <trkpt lat="49.12678" lon="-0.16719">
        <ele>13.2</ele>
        <time>2024-07-03T14:23:44Z</time>
      </trkpt>
      <trkpt lat="49.12679" lon="-0.16707">
        <ele>13</ele>
        <time>2024-07-03T14:23:45Z</time>
      </trkpt>
      <trkpt lat="49.1268" lon="-0.16695">
        <ele>13</ele>
        <time>2024-07-03T14:23:46Z</time>
      </trkpt>
      <trkpt lat="49.12681" lon="-0.16684">
        <ele>13</ele>
        <time>2024-07-03T14:23:47Z</time>
      </trkpt>
      <trkpt lat="49.1268" lon="-0.16673">
        <ele>13.2</ele>
        <time>2024-07-03T14:23:48Z</time>
      </trkpt>
      <trkpt lat="49.1268" lon="-0.16664">
        <ele>13.4</ele>
        <time>2024-07-03T14:23:49Z</time>
      </trkpt>
      <trkpt lat="49.12682" lon="-0.16656">
        <ele>13.4</ele>
        <time>2024-07-03T14:23:50Z</time>
      </trkpt>
      <trkpt lat="49.12686" lon="-0.16652">
        <ele>13.6</ele>
        <time>2024-07-03T14:23:51Z</time>
      </trkpt>
      <trkpt lat="49.1269" lon="-0.16653">
        <ele>13.6</ele>
        <time>2024-07-03T14:23:52Z</time>
      </trkpt>
      <trkpt lat="49.12696" lon="-0.16658">
        <ele>13.6</ele>
        <time>2024-07-03T14:23:53Z</time>
      </trkpt>
      <trkpt lat="49.12701" lon="-0.16663">
        <ele>13.6</ele>
        <time>2024-07-03T14:23:54Z</time>
      </trkpt>
      <trkpt lat="49.12707" lon="-0.16668">
        <ele>13.4</ele>
        <time>2024-07-03T14:23:55Z</time>
      </trkpt>
      <trkpt lat="49.12714" lon="-0.16672">
        <ele>13.4</ele>
        <time>2024-07-03T14:23:56Z</time>
      </trkpt>
      <trkpt lat="49.12721" lon="-0.16674">
        <ele>13</ele>
        <time>2024-07-03T14:23:57Z</time>
      </trkpt>
      <trkpt lat="49.1273" lon="-0.16675">
        <ele>12.8</ele>
        <time>2024-07-03T14:23:58Z</time>
      </trkpt>
      <trkpt lat="49.12738" lon="-0.16676">
        <ele>12.8</ele>
        <time>2024-07-03T14:23:59Z</time>
      </trkpt>
      <trkpt lat="49.12746" lon="-0.16676">
        <ele>12.8</ele>
        <time>2024-07-03T14:24:00Z</time>
      </trkpt>
      <trkpt lat="49.12754" lon="-0.16675">
        <ele>12.6</ele>
        <time>2024-07-03T14:24:01Z</time>
      </trkpt>
      <trkpt lat="49.12762" lon="-0.16671">
        <ele>12.6</ele>
        <time>2024-07-03T14:24:02Z</time>
      </trkpt>
      <trkpt lat="49.1277" lon="-0.16664">
        <ele>12.6</ele>
        <time>2024-07-03T14:24:03Z</time>
      </trkpt>
      <trkpt lat="49.12776" lon="-0.16656">
        <ele>12.6</ele>
        <time>2024-07-03T14:24:04Z</time>
      </trkpt>
      <trkpt lat="49.12783" lon="-0.16648">
        <ele>12.6</ele>
        <time>2024-07-03T14:24:05Z</time>
      </trkpt>
      <trkpt lat="49.1279" lon="-0.16639">
        <ele>12.6</ele>
        <time>2024-07-03T14:24:06Z</time>
      </trkpt>
      <trkpt lat="49.12796" lon="-0.16629">
        <ele>12.6</ele>
        <time>2024-07-03T14:24:07Z</time>
      </trkpt>
      <trkpt lat="49.12803" lon="-0.1662">
        <ele>12.8</ele>
        <time>2024-07-03T14:24:08Z</time>
      </trkpt>
      <trkpt lat="49.12809" lon="-0.16609">
        <ele>12.8</ele>
        <time>2024-07-03T14:24:09Z</time>
      </trkpt>
      <trkpt lat="49.12814" lon="-0.16599">
        <ele>12.6</ele>
        <time>2024-07-03T14:24:10Z</time>
      </trkpt>
      <trkpt lat="49.12818" lon="-0.16588">
        <ele>12.8</ele>
        <time>2024-07-03T14:24:11Z</time>
      </trkpt>
      <trkpt lat="49.12822" lon="-0.16576">
        <ele>12.8</ele>
        <time>2024-07-03T14:24:12Z</time>
      </trkpt>
      <trkpt lat="49.12826" lon="-0.16564">
        <ele>12.8</ele>
        <time>2024-07-03T14:24:13Z</time>
      </trkpt>
      <trkpt lat="49.1283" lon="-0.16553">
        <ele>12.8</ele>
        <time>2024-07-03T14:24:14Z</time>
      </trkpt>
      <trkpt lat="49.12833" lon="-0.16541">
        <ele>12.8</ele>
        <time>2024-07-03T14:24:15Z</time>
      </trkpt>
      <trkpt lat="49.12835" lon="-0.16528">
        <ele>13</ele>
        <time>2024-07-03T14:24:16Z</time>
      </trkpt>
      <trkpt lat="49.12838" lon="-0.16516">
        <ele>13</ele>
        <time>2024-07-03T14:24:17Z</time>
      </trkpt>
      <trkpt lat="49.1284" lon="-0.16504">
        <ele>13</ele>
        <time>2024-07-03T14:24:18Z</time>
      </trkpt>
      <trkpt lat="49.12843" lon="-0.16492">
        <ele>13.2</ele>
        <time>2024-07-03T14:24:19Z</time>
      </trkpt>
      <trkpt lat="49.12845" lon="-0.16481">
        <ele>13.2</ele>
        <time>2024-07-03T14:24:20Z</time>
      </trkpt>
      <trkpt lat="49.12848" lon="-0.16471">
        <ele>13</ele>
        <time>2024-07-03T14:24:21Z</time>
      </trkpt>
      <trkpt lat="49.12849" lon="-0.1646">
        <ele>13</ele>
        <time>2024-07-03T14:24:22Z</time>
      </trkpt>
      <trkpt lat="49.1285" lon="-0.16451">
        <ele>13</ele>
        <time>2024-07-03T14:24:23Z</time>
      </trkpt>
      <trkpt lat="49.12851" lon="-0.16442">
        <ele>13.2</ele>
        <time>2024-07-03T14:24:24Z</time>
      </trkpt>
      <trkpt lat="49.12852" lon="-0.16433">
        <ele>13.2</ele>
        <time>2024-07-03T14:24:25Z</time>
      </trkpt>
      <trkpt lat="49.12854" lon="-0.16423">
        <ele>13.2</ele>
        <time>2024-07-03T14:24:26Z</time>
      </trkpt>
      <trkpt lat="49.12857" lon="-0.16414">
        <ele>13.2</ele>
        <time>2024-07-03T14:24:27Z</time>
      </trkpt>
      <trkpt lat="49.1286" lon="-0.16405">
        <ele>13.2</ele>
        <time>2024-07-03T14:24:28Z</time>
      </trkpt>
      <trkpt lat="49.12863" lon="-0.16396">
        <ele>13.2</ele>
        <time>2024-07-03T14:24:29Z</time>
      </trkpt>
      <trkpt lat="49.12866" lon="-0.16387">
        <ele>13.2</ele>
        <time>2024-07-03T14:24:30Z</time>
      </trkpt>
      <trkpt lat="49.12869" lon="-0.16378">
        <ele>13.2</ele>
        <time>2024-07-03T14:24:31Z</time>
      </trkpt>
      <trkpt lat="49.12872" lon="-0.16369">
        <ele>13.2</ele>
        <time>2024-07-03T14:24:32Z</time>
      </trkpt>
      <trkpt lat="49.12876" lon="-0.16359">
        <ele>13.2</ele>
        <time>2024-07-03T14:24:33Z</time>
      </trkpt>
      <trkpt lat="49.12879" lon="-0.1635">
        <ele>13.2</ele>
        <time>2024-07-03T14:24:34Z</time>
      </trkpt>
      <trkpt lat="49.12883" lon="-0.1634">
        <ele>13.2</ele>
        <time>2024-07-03T14:24:35Z</time>
      </trkpt>
      <trkpt lat="49.12887" lon="-0.1633">
        <ele>13</ele>
        <time>2024-07-03T14:24:36Z</time>
      </trkpt>
      <trkpt lat="49.12891" lon="-0.1632">
        <ele>13</ele>
        <time>2024-07-03T14:24:37Z</time>
      </trkpt>
      <trkpt lat="49.12896" lon="-0.1631">
        <ele>12.8</ele>
        <time>2024-07-03T14:24:38Z</time>
      </trkpt>
      <trkpt lat="49.129" lon="-0.16299">
        <ele>12.8</ele>
        <time>2024-07-03T14:24:39Z</time>
      </trkpt>
      <trkpt lat="49.12905" lon="-0.16288">
        <ele>12.6</ele>
        <time>2024-07-03T14:24:40Z</time>
      </trkpt>
      <trkpt lat="49.1291" lon="-0.16277">
        <ele>12.4</ele>
        <time>2024-07-03T14:24:41Z</time>
      </trkpt>
      <trkpt lat="49.12915" lon="-0.16267">
        <ele>12.2</ele>
        <time>2024-07-03T14:24:42Z</time>
      </trkpt>
      <trkpt lat="49.1292" lon="-0.16257">
        <ele>12</ele>
        <time>2024-07-03T14:24:43Z</time>
      </trkpt>
      <trkpt lat="49.12926" lon="-0.16248">
        <ele>11.8</ele>
        <time>2024-07-03T14:24:44Z</time>
      </trkpt>
      <trkpt lat="49.12931" lon="-0.1624">
        <ele>12</ele>
        <time>2024-07-03T14:24:45Z</time>
      </trkpt>
      <trkpt lat="49.12938" lon="-0.16233">
        <ele>12</ele>
        <time>2024-07-03T14:24:46Z</time>
      </trkpt>
      <trkpt lat="49.12945" lon="-0.16228">
        <ele>12</ele>
        <time>2024-07-03T14:24:47Z</time>
      </trkpt>
      <trkpt lat="49.12953" lon="-0.16226">
        <ele>12.2</ele>
        <time>2024-07-03T14:24:48Z</time>
      </trkpt>
      <trkpt lat="49.12961" lon="-0.16226">
        <ele>12.4</ele>
        <time>2024-07-03T14:24:49Z</time>
      </trkpt>
      <trkpt lat="49.12969" lon="-0.16228">
        <ele>12.8</ele>
        <time>2024-07-03T14:24:50Z</time>
      </trkpt>
      <trkpt lat="49.12977" lon="-0.16231">
        <ele>13</ele>
        <time>2024-07-03T14:24:51Z</time>
      </trkpt>
      <trkpt lat="49.12985" lon="-0.16235">
        <ele>13.2</ele>
        <time>2024-07-03T14:24:52Z</time>
      </trkpt>
      <trkpt lat="49.12992" lon="-0.1624">
        <ele>13.4</ele>
        <time>2024-07-03T14:24:53Z</time>
      </trkpt>
      <trkpt lat="49.13" lon="-0.16245">
        <ele>13.6</ele>
        <time>2024-07-03T14:24:54Z</time>
      </trkpt>
      <trkpt lat="49.13007" lon="-0.1625">
        <ele>14</ele>
        <time>2024-07-03T14:24:55Z</time>
      </trkpt>
      <trkpt lat="49.13014" lon="-0.16255">
        <ele>14.2</ele>
        <time>2024-07-03T14:24:56Z</time>
      </trkpt>
      <trkpt lat="49.13021" lon="-0.16259">
        <ele>14.2</ele>
        <time>2024-07-03T14:24:57Z</time>
      </trkpt>
      <trkpt lat="49.13028" lon="-0.16264">
        <ele>14.4</ele>
        <time>2024-07-03T14:24:58Z</time>
      </trkpt>
      <trkpt lat="49.13034" lon="-0.16269">
        <ele>14.4</ele>
        <time>2024-07-03T14:24:59Z</time>
      </trkpt>
      <trkpt lat="49.1304" lon="-0.16274">
        <ele>14.6</ele>
        <time>2024-07-03T14:25:00Z</time>
      </trkpt>
      <trkpt lat="49.13047" lon="-0.1628">
        <ele>14.8</ele>
        <time>2024-07-03T14:25:01Z</time>
      </trkpt>
      <trkpt lat="49.13052" lon="-0.16289">
        <ele>15</ele>
        <time>2024-07-03T14:25:02Z</time>
      </trkpt>
      <trkpt lat="49.13059" lon="-0.16295">
        <ele>15.2</ele>
        <time>2024-07-03T14:25:03Z</time>
      </trkpt>
      <trkpt lat="49.13065" lon="-0.16299">
        <ele>15.4</ele>
        <time>2024-07-03T14:25:04Z</time>
      </trkpt>
      <trkpt lat="49.13071" lon="-0.16303">
        <ele>15.8</ele>
        <time>2024-07-03T14:25:05Z</time>
      </trkpt>
      <trkpt lat="49.13078" lon="-0.16306">
        <ele>16</ele>
        <time>2024-07-03T14:25:06Z</time>
      </trkpt>
      <trkpt lat="49.13085" lon="-0.16309">
        <ele>16.2</ele>
        <time>2024-07-03T14:25:07Z</time>
      </trkpt>
      <trkpt lat="49.13091" lon="-0.16313">
        <ele>16.2</ele>
        <time>2024-07-03T14:25:08Z</time>
      </trkpt>
      <trkpt lat="49.13097" lon="-0.16316">
        <ele>16.4</ele>
        <time>2024-07-03T14:25:09Z</time>
      </trkpt>
      <trkpt lat="49.13103" lon="-0.1632">
        <ele>16.4</ele>
        <time>2024-07-03T14:25:10Z</time>
      </trkpt>
      <trkpt lat="49.13109" lon="-0.16322">
        <ele>16.6</ele>
        <time>2024-07-03T14:25:11Z</time>
      </trkpt>
      <trkpt lat="49.13116" lon="-0.16324">
        <ele>16.6</ele>
        <time>2024-07-03T14:25:12Z</time>
      </trkpt>
      <trkpt lat="49.13122" lon="-0.16326">
        <ele>16.8</ele>
        <time>2024-07-03T14:25:13Z</time>
      </trkpt>
      <trkpt lat="49.13128" lon="-0.16327">
        <ele>17</ele>
        <time>2024-07-03T14:25:14Z</time>
      </trkpt>
      <trkpt lat="49.13134" lon="-0.16329">
        <ele>17.4</ele>
        <time>2024-07-03T14:25:15Z</time>
      </trkpt>
      <trkpt lat="49.1314" lon="-0.1633">
        <ele>17.8</ele>
        <time>2024-07-03T14:25:16Z</time>
      </trkpt>
      <trkpt lat="49.13146" lon="-0.16331">
        <ele>18</ele>
        <time>2024-07-03T14:25:17Z</time>
      </trkpt>
      <trkpt lat="49.13153" lon="-0.16331">
        <ele>18.2</ele>
        <time>2024-07-03T14:25:18Z</time>
      </trkpt>
      <trkpt lat="49.1316" lon="-0.16331">
        <ele>18.4</ele>
        <time>2024-07-03T14:25:19Z</time>
      </trkpt>
      <trkpt lat="49.13167" lon="-0.16331">
        <ele>18.6</ele>
        <time>2024-07-03T14:25:20Z</time>
      </trkpt>
      <trkpt lat="49.13174" lon="-0.1633">
        <ele>19</ele>
        <time>2024-07-03T14:25:21Z</time>
      </trkpt>
      <trkpt lat="49.1318" lon="-0.16329">
        <ele>19.2</ele>
        <time>2024-07-03T14:25:22Z</time>
      </trkpt>
      <trkpt lat="49.13188" lon="-0.16328">
        <ele>19.2</ele>
        <time>2024-07-03T14:25:23Z</time>
      </trkpt>
      <trkpt lat="49.13194" lon="-0.16326">
        <ele>19.4</ele>
        <time>2024-07-03T14:25:24Z</time>
      </trkpt>
      <trkpt lat="49.13201" lon="-0.16324">
        <ele>19.6</ele>
        <time>2024-07-03T14:25:25Z</time>
      </trkpt>
      <trkpt lat="49.13207" lon="-0.16323">
        <ele>20</ele>
        <time>2024-07-03T14:25:26Z</time>
      </trkpt>
      <trkpt lat="49.13215" lon="-0.16322">
        <ele>20.4</ele>
        <time>2024-07-03T14:25:27Z</time>
      </trkpt>
      <trkpt lat="49.13223" lon="-0.16321">
        <ele>20.6</ele>
        <time>2024-07-03T14:25:28Z</time>
      </trkpt>
      <trkpt lat="49.1323" lon="-0.16321">
        <ele>20.8</ele>
        <time>2024-07-03T14:25:29Z</time>
      </trkpt>
      <trkpt lat="49.13238" lon="-0.1632">
        <ele>21</ele>
        <time>2024-07-03T14:25:30Z</time>
      </trkpt>
      <trkpt lat="49.13246" lon="-0.1632">
        <ele>21</ele>
        <time>2024-07-03T14:25:31Z</time>
      </trkpt>
      <trkpt lat="49.13255" lon="-0.16321">
        <ele>21</ele>
        <time>2024-07-03T14:25:32Z</time>
      </trkpt>
      <trkpt lat="49.13263" lon="-0.16322">
        <ele>21</ele>
        <time>2024-07-03T14:25:33Z</time>
      </trkpt>
      <trkpt lat="49.13272" lon="-0.16325">
        <ele>21</ele>
        <time>2024-07-03T14:25:34Z</time>
      </trkpt>
      <trkpt lat="49.13281" lon="-0.1633">
        <ele>20.6</ele>
        <time>2024-07-03T14:25:35Z</time>
      </trkpt>
      <trkpt lat="49.1329" lon="-0.16334">
        <ele>20</ele>
        <time>2024-07-03T14:25:36Z</time>
      </trkpt>
      <trkpt lat="49.13298" lon="-0.1634">
        <ele>19.6</ele>
        <time>2024-07-03T14:25:37Z</time>
      </trkpt>
      <trkpt lat="49.13306" lon="-0.16347">
        <ele>19.2</ele>
        <time>2024-07-03T14:25:38Z</time>
      </trkpt>
      <trkpt lat="49.13313" lon="-0.16354">
        <ele>19</ele>
        <time>2024-07-03T14:25:39Z</time>
      </trkpt>
      <trkpt lat="49.1332" lon="-0.16362">
        <ele>19</ele>
        <time>2024-07-03T14:25:40Z</time>
      </trkpt>
      <trkpt lat="49.13327" lon="-0.16369">
        <ele>19</ele>
        <time>2024-07-03T14:25:41Z</time>
      </trkpt>
      <trkpt lat="49.13334" lon="-0.16376">
        <ele>19</ele>
        <time>2024-07-03T14:25:42Z</time>
      </trkpt>
      <trkpt lat="49.1334" lon="-0.16383">
        <ele>19.2</ele>
        <time>2024-07-03T14:25:43Z</time>
      </trkpt>
      <trkpt lat="49.13348" lon="-0.1639">
        <ele>19.4</ele>
        <time>2024-07-03T14:25:44Z</time>
      </trkpt>
      <trkpt lat="49.13354" lon="-0.16396">
        <ele>19.6</ele>
        <time>2024-07-03T14:25:45Z</time>
      </trkpt>
      <trkpt lat="49.1336" lon="-0.16403">
        <ele>19.6</ele>
        <time>2024-07-03T14:25:46Z</time>
      </trkpt>
      <trkpt lat="49.13367" lon="-0.1641">
        <ele>19.6</ele>
        <time>2024-07-03T14:25:47Z</time>
      </trkpt>
      <trkpt lat="49.13374" lon="-0.16417">
        <ele>19.8</ele>
        <time>2024-07-03T14:25:48Z</time>
      </trkpt>
      <trkpt lat="49.13381" lon="-0.16424">
        <ele>19.8</ele>
        <time>2024-07-03T14:25:49Z</time>
      </trkpt>
      <trkpt lat="49.13388" lon="-0.1643">
        <ele>19.8</ele>
        <time>2024-07-03T14:25:50Z</time>
      </trkpt>
      <trkpt lat="49.13396" lon="-0.16436">
        <ele>19.8</ele>
        <time>2024-07-03T14:25:51Z</time>
      </trkpt>
      <trkpt lat="49.13403" lon="-0.16441">
        <ele>19.6</ele>
        <time>2024-07-03T14:25:52Z</time>
      </trkpt>
      <trkpt lat="49.13411" lon="-0.16446">
        <ele>19.8</ele>
        <time>2024-07-03T14:25:53Z</time>
      </trkpt>
      <trkpt lat="49.13418" lon="-0.16451">
        <ele>19.8</ele>
        <time>2024-07-03T14:25:54Z</time>
      </trkpt>
      <trkpt lat="49.13426" lon="-0.16456">
        <ele>19.8</ele>
        <time>2024-07-03T14:25:55Z</time>
      </trkpt>
      <trkpt lat="49.13433" lon="-0.1646">
        <ele>20</ele>
        <time>2024-07-03T14:25:56Z</time>
      </trkpt>
      <trkpt lat="49.13441" lon="-0.16464">
        <ele>20.2</ele>
        <time>2024-07-03T14:25:57Z</time>
      </trkpt>
      <trkpt lat="49.13449" lon="-0.16466">
        <ele>20.2</ele>
        <time>2024-07-03T14:25:58Z</time>
      </trkpt>
      <trkpt lat="49.13456" lon="-0.16469">
        <ele>20.2</ele>
        <time>2024-07-03T14:25:59Z</time>
      </trkpt>
      <trkpt lat="49.13464" lon="-0.16472">
        <ele>20.2</ele>
        <time>2024-07-03T14:26:00Z</time>
      </trkpt>
      <trkpt lat="49.13471" lon="-0.16474">
        <ele>20.2</ele>
        <time>2024-07-03T14:26:01Z</time>
      </trkpt>
      <trkpt lat="49.13479" lon="-0.16477">
        <ele>20.2</ele>
        <time>2024-07-03T14:26:02Z</time>
      </trkpt>
      <trkpt lat="49.13486" lon="-0.16479">
        <ele>20.2</ele>
        <time>2024-07-03T14:26:03Z</time>
      </trkpt>
      <trkpt lat="49.13494" lon="-0.16482">
        <ele>20.2</ele>
        <time>2024-07-03T14:26:04Z</time>
      </trkpt>
      <trkpt lat="49.13502" lon="-0.16485">
        <ele>20.2</ele>
        <time>2024-07-03T14:26:05Z</time>
      </trkpt>
      <trkpt lat="49.13509" lon="-0.16486">
        <ele>20.4</ele>
        <time>2024-07-03T14:26:06Z</time>
      </trkpt>
      <trkpt lat="49.13517" lon="-0.16487">
        <ele>20.6</ele>
        <time>2024-07-03T14:26:07Z</time>
      </trkpt>
      <trkpt lat="49.13525" lon="-0.16489">
        <ele>20.8</ele>
        <time>2024-07-03T14:26:08Z</time>
      </trkpt>
      <trkpt lat="49.13533" lon="-0.1649">
        <ele>21.2</ele>
        <time>2024-07-03T14:26:09Z</time>
      </trkpt>
      <trkpt lat="49.13541" lon="-0.16491">
        <ele>21.4</ele>
        <time>2024-07-03T14:26:10Z</time>
      </trkpt>
      <trkpt lat="49.13548" lon="-0.16491">
        <ele>21.4</ele>
        <time>2024-07-03T14:26:11Z</time>
      </trkpt>
      <trkpt lat="49.13556" lon="-0.16491">
        <ele>21.4</ele>
        <time>2024-07-03T14:26:12Z</time>
      </trkpt>
      <trkpt lat="49.13563" lon="-0.16489">
        <ele>21.2</ele>
        <time>2024-07-03T14:26:13Z</time>
      </trkpt>
      <trkpt lat="49.13572" lon="-0.16488">
        <ele>20.8</ele>
        <time>2024-07-03T14:26:14Z</time>
      </trkpt>
      <trkpt lat="49.13579" lon="-0.16488">
        <ele>20.6</ele>
        <time>2024-07-03T14:26:15Z</time>
      </trkpt>
      <trkpt lat="49.13586" lon="-0.16487">
        <ele>20.2</ele>
        <time>2024-07-03T14:26:16Z</time>
      </trkpt>
      <trkpt lat="49.13593" lon="-0.16485">
        <ele>19.8</ele>
        <time>2024-07-03T14:26:17Z</time>
      </trkpt>
      <trkpt lat="49.13601" lon="-0.16485">
        <ele>19.4</ele>
        <time>2024-07-03T14:26:18Z</time>
      </trkpt>
      <trkpt lat="49.13611" lon="-0.16483">
        <ele>19.2</ele>
        <time>2024-07-03T14:26:19Z</time>
      </trkpt>
      <trkpt lat="49.13621" lon="-0.16482">
        <ele>18.8</ele>
        <time>2024-07-03T14:26:20Z</time>
      </trkpt>
      <trkpt lat="49.13632" lon="-0.16481">
        <ele>18.6</ele>
        <time>2024-07-03T14:26:21Z</time>
      </trkpt>
      <trkpt lat="49.13642" lon="-0.16479">
        <ele>18.2</ele>
        <time>2024-07-03T14:26:22Z</time>
      </trkpt>
      <trkpt lat="49.13653" lon="-0.16479">
        <ele>17.6</ele>
        <time>2024-07-03T14:26:23Z</time>
      </trkpt>
      <trkpt lat="49.13664" lon="-0.16479">
        <ele>17</ele>
        <time>2024-07-03T14:26:24Z</time>
      </trkpt>
      <trkpt lat="49.13675" lon="-0.16481">
        <ele>16.2</ele>
        <time>2024-07-03T14:26:25Z</time>
      </trkpt>
      <trkpt lat="49.13686" lon="-0.16483">
        <ele>15.2</ele>
        <time>2024-07-03T14:26:26Z</time>
      </trkpt>
      <trkpt lat="49.13698" lon="-0.16485">
        <ele>14.2</ele>
        <time>2024-07-03T14:26:27Z</time>
      </trkpt>
      <trkpt lat="49.13709" lon="-0.16487">
        <ele>13.6</ele>
        <time>2024-07-03T14:26:28Z</time>
      </trkpt>
      <trkpt lat="49.1372" lon="-0.16488">
        <ele>13.2</ele>
        <time>2024-07-03T14:26:29Z</time>
      </trkpt>
      <trkpt lat="49.1373" lon="-0.16489">
        <ele>13</ele>
        <time>2024-07-03T14:26:30Z</time>
      </trkpt>
      <trkpt lat="49.13741" lon="-0.1649">
        <ele>13</ele>
        <time>2024-07-03T14:26:31Z</time>
      </trkpt>
      <trkpt lat="49.1375" lon="-0.1649">
        <ele>13.2</ele>
        <time>2024-07-03T14:26:32Z</time>
      </trkpt>
      <trkpt lat="49.13759" lon="-0.1649">
        <ele>13.2</ele>
        <time>2024-07-03T14:26:33Z</time>
      </trkpt>
      <trkpt lat="49.13768" lon="-0.16489">
        <ele>13.4</ele>
        <time>2024-07-03T14:26:34Z</time>
      </trkpt>
      <trkpt lat="49.13777" lon="-0.16489">
        <ele>13.6</ele>
        <time>2024-07-03T14:26:35Z</time>
      </trkpt>
      <trkpt lat="49.13785" lon="-0.16489">
        <ele>14</ele>
        <time>2024-07-03T14:26:36Z</time>
      </trkpt>
      <trkpt lat="49.13795" lon="-0.16488">
        <ele>14.2</ele>
        <time>2024-07-03T14:26:37Z</time>
      </trkpt>
      <trkpt lat="49.13803" lon="-0.16488">
        <ele>14.4</ele>
        <time>2024-07-03T14:26:38Z</time>
      </trkpt>
      <trkpt lat="49.13812" lon="-0.16487">
        <ele>14.6</ele>
        <time>2024-07-03T14:26:39Z</time>
      </trkpt>
      <trkpt lat="49.13821" lon="-0.16486">
        <ele>14.8</ele>
        <time>2024-07-03T14:26:40Z</time>
      </trkpt>
      <trkpt lat="49.13829" lon="-0.16485">
        <ele>15</ele>
        <time>2024-07-03T14:26:41Z</time>
      </trkpt>
      <trkpt lat="49.13838" lon="-0.16483">
        <ele>15</ele>
        <time>2024-07-03T14:26:42Z</time>
      </trkpt>
      <trkpt lat="49.13846" lon="-0.16482">
        <ele>15</ele>
        <time>2024-07-03T14:26:43Z</time>
      </trkpt>
      <trkpt lat="49.13854" lon="-0.1648">
        <ele>15</ele>
        <time>2024-07-03T14:26:44Z</time>
      </trkpt>
      <trkpt lat="49.13862" lon="-0.16477">
        <ele>14.8</ele>
        <time>2024-07-03T14:26:45Z</time>
      </trkpt>
      <trkpt lat="49.1387" lon="-0.16475">
        <ele>14.8</ele>
        <time>2024-07-03T14:26:46Z</time>
      </trkpt>
      <trkpt lat="49.13878" lon="-0.16473">
        <ele>14.6</ele>
        <time>2024-07-03T14:26:47Z</time>
      </trkpt>
      <trkpt lat="49.13887" lon="-0.16469">
        <ele>14.6</ele>
        <time>2024-07-03T14:26:48Z</time>
      </trkpt>
      <trkpt lat="49.13894" lon="-0.16464">
        <ele>14.6</ele>
        <time>2024-07-03T14:26:49Z</time>
      </trkpt>
      <trkpt lat="49.13903" lon="-0.16459">
        <ele>14.6</ele>
        <time>2024-07-03T14:26:50Z</time>
      </trkpt>
      <trkpt lat="49.1391" lon="-0.16455">
        <ele>14.6</ele>
        <time>2024-07-03T14:26:51Z</time>
      </trkpt>
      <trkpt lat="49.13918" lon="-0.1645">
        <ele>14.6</ele>
        <time>2024-07-03T14:26:52Z</time>
      </trkpt>
      <trkpt lat="49.13927" lon="-0.16445">
        <ele>14.6</ele>
        <time>2024-07-03T14:26:53Z</time>
      </trkpt>
      <trkpt lat="49.13935" lon="-0.16441">
        <ele>14.6</ele>
        <time>2024-07-03T14:26:54Z</time>
      </trkpt>
      <trkpt lat="49.13943" lon="-0.16436">
        <ele>14.8</ele>
        <time>2024-07-03T14:26:55Z</time>
      </trkpt>
      <trkpt lat="49.13951" lon="-0.16432">
        <ele>14.8</ele>
        <time>2024-07-03T14:26:56Z</time>
      </trkpt>
      <trkpt lat="49.13959" lon="-0.16428">
        <ele>15</ele>
        <time>2024-07-03T14:26:57Z</time>
      </trkpt>
      <trkpt lat="49.13967" lon="-0.16424">
        <ele>15</ele>
        <time>2024-07-03T14:26:58Z</time>
      </trkpt>
      <trkpt lat="49.13976" lon="-0.16421">
        <ele>15.2</ele>
        <time>2024-07-03T14:26:59Z</time>
      </trkpt>
      <trkpt lat="49.13985" lon="-0.16419">
        <ele>15.4</ele>
        <time>2024-07-03T14:27:00Z</time>
      </trkpt>
      <trkpt lat="49.13994" lon="-0.16417">
        <ele>15.4</ele>
        <time>2024-07-03T14:27:01Z</time>
      </trkpt>
      <trkpt lat="49.14002" lon="-0.16415">
        <ele>15.6</ele>
        <time>2024-07-03T14:27:02Z</time>
      </trkpt>
      <trkpt lat="49.14011" lon="-0.16413">
        <ele>15.6</ele>
        <time>2024-07-03T14:27:03Z</time>
      </trkpt>
      <trkpt lat="49.14019" lon="-0.16411">
        <ele>15.8</ele>
        <time>2024-07-03T14:27:04Z</time>
      </trkpt>
      <trkpt lat="49.14028" lon="-0.1641">
        <ele>15.8</ele>
        <time>2024-07-03T14:27:05Z</time>
      </trkpt>
      <trkpt lat="49.14036" lon="-0.16408">
        <ele>15.8</ele>
        <time>2024-07-03T14:27:06Z</time>
      </trkpt>
      <trkpt lat="49.14044" lon="-0.16406">
        <ele>16</ele>
        <time>2024-07-03T14:27:07Z</time>
      </trkpt>
      <trkpt lat="49.14052" lon="-0.16404">
        <ele>16.4</ele>
        <time>2024-07-03T14:27:08Z</time>
      </trkpt>
      <trkpt lat="49.1406" lon="-0.16402">
        <ele>16.4</ele>
        <time>2024-07-03T14:27:09Z</time>
      </trkpt>
      <trkpt lat="49.14069" lon="-0.16399">
        <ele>16.6</ele>
        <time>2024-07-03T14:27:10Z</time>
      </trkpt>
      <trkpt lat="49.14077" lon="-0.16395">
        <ele>16.6</ele>
        <time>2024-07-03T14:27:11Z</time>
      </trkpt>
      <trkpt lat="49.14085" lon="-0.16391">
        <ele>16.6</ele>
        <time>2024-07-03T14:27:12Z</time>
      </trkpt>
      <trkpt lat="49.14093" lon="-0.16388">
        <ele>16.6</ele>
        <time>2024-07-03T14:27:13Z</time>
      </trkpt>
      <trkpt lat="49.14101" lon="-0.16385">
        <ele>16.4</ele>
        <time>2024-07-03T14:27:14Z</time>
      </trkpt>
      <trkpt lat="49.14109" lon="-0.16382">
        <ele>16.2</ele>
        <time>2024-07-03T14:27:15Z</time>
      </trkpt>
      <trkpt lat="49.14118" lon="-0.16378">
        <ele>16</ele>
        <time>2024-07-03T14:27:16Z</time>
      </trkpt>
      <trkpt lat="49.14127" lon="-0.16375">
        <ele>15.8</ele>
        <time>2024-07-03T14:27:17Z</time>
      </trkpt>
      <trkpt lat="49.14135" lon="-0.16373">
        <ele>15.6</ele>
        <time>2024-07-03T14:27:18Z</time>
      </trkpt>
      <trkpt lat="49.14145" lon="-0.1637">
        <ele>15.2</ele>
        <time>2024-07-03T14:27:19Z</time>
      </trkpt>
      <trkpt lat="49.14155" lon="-0.16369">
        <ele>14.6</ele>
        <time>2024-07-03T14:27:20Z</time>
      </trkpt>
      <trkpt lat="49.14165" lon="-0.16368">
        <ele>14</ele>
        <time>2024-07-03T14:27:21Z</time>
      </trkpt>
      <trkpt lat="49.14174" lon="-0.16368">
        <ele>13.4</ele>
        <time>2024-07-03T14:27:22Z</time>
      </trkpt>
      <trkpt lat="49.14184" lon="-0.16368">
        <ele>12.6</ele>
        <time>2024-07-03T14:27:23Z</time>
      </trkpt>
      <trkpt lat="49.14194" lon="-0.16368">
        <ele>12.2</ele>
        <time>2024-07-03T14:27:24Z</time>
      </trkpt>
      <trkpt lat="49.14203" lon="-0.16367">
        <ele>11.6</ele>
        <time>2024-07-03T14:27:25Z</time>
      </trkpt>
      <trkpt lat="49.14213" lon="-0.16367">
        <ele>11.4</ele>
        <time>2024-07-03T14:27:26Z</time>
      </trkpt>
      <trkpt lat="49.14222" lon="-0.16368">
        <ele>11</ele>
        <time>2024-07-03T14:27:27Z</time>
      </trkpt>
      <trkpt lat="49.14232" lon="-0.16368">
        <ele>10.6</ele>
        <time>2024-07-03T14:27:28Z</time>
      </trkpt>
      <trkpt lat="49.14243" lon="-0.16366">
        <ele>10.2</ele>
        <time>2024-07-03T14:27:29Z</time>
      </trkpt>
      <trkpt lat="49.14253" lon="-0.16364">
        <ele>9.8</ele>
        <time>2024-07-03T14:27:30Z</time>
      </trkpt>
      <trkpt lat="49.14264" lon="-0.16361">
        <ele>9.6</ele>
        <time>2024-07-03T14:27:31Z</time>
      </trkpt>
      <trkpt lat="49.14274" lon="-0.16358">
        <ele>9.4</ele>
        <time>2024-07-03T14:27:32Z</time>
      </trkpt>
      <trkpt lat="49.14284" lon="-0.16357">
        <ele>9.4</ele>
        <time>2024-07-03T14:27:33Z</time>
      </trkpt>
      <trkpt lat="49.14295" lon="-0.16356">
        <ele>9.4</ele>
        <time>2024-07-03T14:27:34Z</time>
      </trkpt>
      <trkpt lat="49.14305" lon="-0.16357">
        <ele>9.4</ele>
        <time>2024-07-03T14:27:35Z</time>
      </trkpt>
      <trkpt lat="49.14315" lon="-0.16357">
        <ele>9.4</ele>
        <time>2024-07-03T14:27:36Z</time>
      </trkpt>
      <trkpt lat="49.14325" lon="-0.16358">
        <ele>9.4</ele>
        <time>2024-07-03T14:27:37Z</time>
      </trkpt>
      <trkpt lat="49.14335" lon="-0.1636">
        <ele>9.4</ele>
        <time>2024-07-03T14:27:38Z</time>
      </trkpt>
      <trkpt lat="49.14345" lon="-0.16363">
        <ele>9.6</ele>
        <time>2024-07-03T14:27:39Z</time>
      </trkpt>
      <trkpt lat="49.14355" lon="-0.16366">
        <ele>9.6</ele>
        <time>2024-07-03T14:27:40Z</time>
      </trkpt>
      <trkpt lat="49.14364" lon="-0.1637">
        <ele>9.8</ele>
        <time>2024-07-03T14:27:41Z</time>
      </trkpt>
      <trkpt lat="49.14373" lon="-0.16373">
        <ele>9.8</ele>
        <time>2024-07-03T14:27:42Z</time>
      </trkpt>
      <trkpt lat="49.14382" lon="-0.16377">
        <ele>10</ele>
        <time>2024-07-03T14:27:43Z</time>
      </trkpt>
      <trkpt lat="49.14391" lon="-0.16379">
        <ele>10</ele>
        <time>2024-07-03T14:27:44Z</time>
      </trkpt>
      <trkpt lat="49.14399" lon="-0.16382">
        <ele>10.2</ele>
        <time>2024-07-03T14:27:45Z</time>
      </trkpt>
      <trkpt lat="49.14408" lon="-0.16383">
        <ele>10.2</ele>
        <time>2024-07-03T14:27:46Z</time>
      </trkpt>
      <trkpt lat="49.14417" lon="-0.16384">
        <ele>10.2</ele>
        <time>2024-07-03T14:27:47Z</time>
      </trkpt>
      <trkpt lat="49.14426" lon="-0.16385">
        <ele>10.2</ele>
        <time>2024-07-03T14:27:48Z</time>
      </trkpt>
      <trkpt lat="49.14435" lon="-0.16385">
        <ele>10.2</ele>
        <time>2024-07-03T14:27:49Z</time>
      </trkpt>
      <trkpt lat="49.14444" lon="-0.16384">
        <ele>10.2</ele>
        <time>2024-07-03T14:27:50Z</time>
      </trkpt>
      <trkpt lat="49.14453" lon="-0.16383">
        <ele>10.2</ele>
        <time>2024-07-03T14:27:51Z</time>
      </trkpt>
      <trkpt lat="49.14462" lon="-0.16381">
        <ele>10.2</ele>
        <time>2024-07-03T14:27:52Z</time>
      </trkpt>
      <trkpt lat="49.1447" lon="-0.16379">
        <ele>10.2</ele>
        <time>2024-07-03T14:27:53Z</time>
      </trkpt>
      <trkpt lat="49.14479" lon="-0.16376">
        <ele>10.2</ele>
        <time>2024-07-03T14:27:54Z</time>
      </trkpt>
      <trkpt lat="49.14487" lon="-0.16372">
        <ele>10.2</ele>
        <time>2024-07-03T14:27:55Z</time>
      </trkpt>
      <trkpt lat="49.14495" lon="-0.16368">
        <ele>10.4</ele>
        <time>2024-07-03T14:27:56Z</time>
      </trkpt>
      <trkpt lat="49.14503" lon="-0.16365">
        <ele>10.4</ele>
        <time>2024-07-03T14:27:57Z</time>
      </trkpt>
      <trkpt lat="49.14512" lon="-0.16361">
        <ele>10.6</ele>
        <time>2024-07-03T14:27:58Z</time>
      </trkpt>
      <trkpt lat="49.1452" lon="-0.16358">
        <ele>10.6</ele>
        <time>2024-07-03T14:27:59Z</time>
      </trkpt>
      <trkpt lat="49.14527" lon="-0.16355">
        <ele>10.6</ele>
        <time>2024-07-03T14:28:00Z</time>
      </trkpt>
      <trkpt lat="49.14535" lon="-0.16353">
        <ele>10.4</ele>
        <time>2024-07-03T14:28:01Z</time>
      </trkpt>
      <trkpt lat="49.14542" lon="-0.1635">
        <ele>10.4</ele>
        <time>2024-07-03T14:28:02Z</time>
      </trkpt>
      <trkpt lat="49.14549" lon="-0.16349">
        <ele>10.2</ele>
        <time>2024-07-03T14:28:03Z</time>
      </trkpt>
      <trkpt lat="49.14555" lon="-0.16352">
        <ele>10</ele>
        <time>2024-07-03T14:28:04Z</time>
      </trkpt>
      <trkpt lat="49.14563" lon="-0.16356">
        <ele>10</ele>
        <time>2024-07-03T14:28:05Z</time>
      </trkpt>
      <trkpt lat="49.14571" lon="-0.16361">
        <ele>9.8</ele>
        <time>2024-07-03T14:28:06Z</time>
      </trkpt>
      <trkpt lat="49.1458" lon="-0.16365">
        <ele>9.6</ele>
        <time>2024-07-03T14:28:07Z</time>
      </trkpt>
      <trkpt lat="49.14588" lon="-0.1637">
        <ele>9.4</ele>
        <time>2024-07-03T14:28:08Z</time>
      </trkpt>
      <trkpt lat="49.14597" lon="-0.16374">
        <ele>9.2</ele>
        <time>2024-07-03T14:28:09Z</time>
      </trkpt>
      <trkpt lat="49.14607" lon="-0.16378">
        <ele>9</ele>
        <time>2024-07-03T14:28:10Z</time>
      </trkpt>
      <trkpt lat="49.14616" lon="-0.16381">
        <ele>8.8</ele>
        <time>2024-07-03T14:28:11Z</time>
      </trkpt>
      <trkpt lat="49.14626" lon="-0.16385">
        <ele>8.6</ele>
        <time>2024-07-03T14:28:12Z</time>
      </trkpt>
      <trkpt lat="49.14635" lon="-0.16387">
        <ele>8.4</ele>
        <time>2024-07-03T14:28:13Z</time>
      </trkpt>
      <trkpt lat="49.14645" lon="-0.1639">
        <ele>8.2</ele>
        <time>2024-07-03T14:28:14Z</time>
      </trkpt>
      <trkpt lat="49.14655" lon="-0.16392">
        <ele>7.8</ele>
        <time>2024-07-03T14:28:15Z</time>
      </trkpt>
      <trkpt lat="49.14665" lon="-0.16394">
        <ele>7.6</ele>
        <time>2024-07-03T14:28:16Z</time>
      </trkpt>
      <trkpt lat="49.14674" lon="-0.16396">
        <ele>7.6</ele>
        <time>2024-07-03T14:28:17Z</time>
      </trkpt>
      <trkpt lat="49.14684" lon="-0.16398">
        <ele>7.6</ele>
        <time>2024-07-03T14:28:18Z</time>
      </trkpt>
      <trkpt lat="49.14693" lon="-0.164">
        <ele>7.6</ele>
        <time>2024-07-03T14:28:19Z</time>
      </trkpt>
      <trkpt lat="49.14702" lon="-0.16402">
        <ele>7.6</ele>
        <time>2024-07-03T14:28:20Z</time>
      </trkpt>
      <trkpt lat="49.14712" lon="-0.16404">
        <ele>7.6</ele>
        <time>2024-07-03T14:28:21Z</time>
      </trkpt>
      <trkpt lat="49.14722" lon="-0.16406">
        <ele>7.6</ele>
        <time>2024-07-03T14:28:22Z</time>
      </trkpt>
      <trkpt lat="49.14731" lon="-0.16407">
        <ele>7.6</ele>
        <time>2024-07-03T14:28:23Z</time>
      </trkpt>
      <trkpt lat="49.14741" lon="-0.16409">
        <ele>7.4</ele>
        <time>2024-07-03T14:28:24Z</time>
      </trkpt>
      <trkpt lat="49.1475" lon="-0.1641">
        <ele>7.6</ele>
        <time>2024-07-03T14:28:25Z</time>
      </trkpt>
      <trkpt lat="49.14759" lon="-0.16412">
        <ele>7.4</ele>
        <time>2024-07-03T14:28:26Z</time>
      </trkpt>
      <trkpt lat="49.14767" lon="-0.16413">
        <ele>7.4</ele>
        <time>2024-07-03T14:28:27Z</time>
      </trkpt>
      <trkpt lat="49.14776" lon="-0.16414">
        <ele>7.4</ele>
        <time>2024-07-03T14:28:28Z</time>
      </trkpt>
      <trkpt lat="49.14784" lon="-0.16415">
        <ele>7.2</ele>
        <time>2024-07-03T14:28:29Z</time>
      </trkpt>
      <trkpt lat="49.14794" lon="-0.16417">
        <ele>7.2</ele>
        <time>2024-07-03T14:28:30Z</time>
      </trkpt>
      <trkpt lat="49.14803" lon="-0.16418">
        <ele>7</ele>
        <time>2024-07-03T14:28:31Z</time>
      </trkpt>
      <trkpt lat="49.14812" lon="-0.1642">
        <ele>7</ele>
        <time>2024-07-03T14:28:32Z</time>
      </trkpt>
      <trkpt lat="49.14821" lon="-0.16421">
        <ele>7</ele>
        <time>2024-07-03T14:28:33Z</time>
      </trkpt>
      <trkpt lat="49.14828" lon="-0.16424">
        <ele>7</ele>
        <time>2024-07-03T14:28:34Z</time>
      </trkpt>
      <trkpt lat="49.14837" lon="-0.16425">
        <ele>6.8</ele>
        <time>2024-07-03T14:28:35Z</time>
      </trkpt>
      <trkpt lat="49.14845" lon="-0.16426">
        <ele>6.8</ele>
        <time>2024-07-03T14:28:36Z</time>
      </trkpt>
      <trkpt lat="49.14854" lon="-0.16427">
        <ele>6.6</ele>
        <time>2024-07-03T14:28:37Z</time>
      </trkpt>
      <trkpt lat="49.14862" lon="-0.16429">
        <ele>6.4</ele>
        <time>2024-07-03T14:28:38Z</time>
      </trkpt>
      <trkpt lat="49.14871" lon="-0.1643">
        <ele>6.4</ele>
        <time>2024-07-03T14:28:39Z</time>
      </trkpt>
      <trkpt lat="49.1488" lon="-0.16432">
        <ele>6.2</ele>
        <time>2024-07-03T14:28:40Z</time>
      </trkpt>
      <trkpt lat="49.14889" lon="-0.16434">
        <ele>6.2</ele>
        <time>2024-07-03T14:28:41Z</time>
      </trkpt>
      <trkpt lat="49.14897" lon="-0.16436">
        <ele>6</ele>
        <time>2024-07-03T14:28:42Z</time>
      </trkpt>
      <trkpt lat="49.14906" lon="-0.16438">
        <ele>6</ele>
        <time>2024-07-03T14:28:43Z</time>
      </trkpt>
      <trkpt lat="49.14915" lon="-0.16439">
        <ele>5.8</ele>
        <time>2024-07-03T14:28:44Z</time>
      </trkpt>
      <trkpt lat="49.14924" lon="-0.16441">
        <ele>5.8</ele>
        <time>2024-07-03T14:28:45Z</time>
      </trkpt>
      <trkpt lat="49.14933" lon="-0.16443">
        <ele>5.4</ele>
        <time>2024-07-03T14:28:46Z</time>
      </trkpt>
      <trkpt lat="49.14942" lon="-0.16445">
        <ele>5.2</ele>
        <time>2024-07-03T14:28:47Z</time>
      </trkpt>
      <trkpt lat="49.14951" lon="-0.16446">
        <ele>5</ele>
        <time>2024-07-03T14:28:48Z</time>
      </trkpt>
      <trkpt lat="49.14961" lon="-0.16448">
        <ele>4.8</ele>
        <time>2024-07-03T14:28:49Z</time>
      </trkpt>
      <trkpt lat="49.14969" lon="-0.16449">
        <ele>4.8</ele>
        <time>2024-07-03T14:28:50Z</time>
      </trkpt>
      <trkpt lat="49.14978" lon="-0.1645">
        <ele>4.6</ele>
        <time>2024-07-03T14:28:51Z</time>
      </trkpt>
      <trkpt lat="49.14988" lon="-0.16452">
        <ele>4.8</ele>
        <time>2024-07-03T14:28:52Z</time>
      </trkpt>
      <trkpt lat="49.14998" lon="-0.16454">
        <ele>4.8</ele>
        <time>2024-07-03T14:28:53Z</time>
      </trkpt>
      <trkpt lat="49.15008" lon="-0.16455">
        <ele>4.8</ele>
        <time>2024-07-03T14:28:54Z</time>
      </trkpt>
      <trkpt lat="49.15017" lon="-0.16457">
        <ele>4.8</ele>
        <time>2024-07-03T14:28:55Z</time>
      </trkpt>
      <trkpt lat="49.15027" lon="-0.16459">
        <ele>4.8</ele>
        <time>2024-07-03T14:28:56Z</time>
      </trkpt>
      <trkpt lat="49.15037" lon="-0.1646">
        <ele>4.8</ele>
        <time>2024-07-03T14:28:57Z</time>
      </trkpt>
      <trkpt lat="49.15046" lon="-0.16463">
        <ele>4.6</ele>
        <time>2024-07-03T14:28:58Z</time>
      </trkpt>
      <trkpt lat="49.15056" lon="-0.16464">
        <ele>4.4</ele>
        <time>2024-07-03T14:28:59Z</time>
      </trkpt>
      <trkpt lat="49.15066" lon="-0.16466">
        <ele>4.4</ele>
        <time>2024-07-03T14:29:00Z</time>
      </trkpt>
      <trkpt lat="49.15075" lon="-0.16468">
        <ele>4.2</ele>
        <time>2024-07-03T14:29:01Z</time>
      </trkpt>
      <trkpt lat="49.15085" lon="-0.16469">
        <ele>4.2</ele>
        <time>2024-07-03T14:29:02Z</time>
      </trkpt>
      <trkpt lat="49.15096" lon="-0.16471">
        <ele>4</ele>
        <time>2024-07-03T14:29:03Z</time>
      </trkpt>
      <trkpt lat="49.15105" lon="-0.16472">
        <ele>3.8</ele>
        <time>2024-07-03T14:29:04Z</time>
      </trkpt>
      <trkpt lat="49.15115" lon="-0.16475">
        <ele>3.6</ele>
        <time>2024-07-03T14:29:05Z</time>
      </trkpt>
      <trkpt lat="49.15124" lon="-0.16476">
        <ele>3.2</ele>
        <time>2024-07-03T14:29:06Z</time>
      </trkpt>
      <trkpt lat="49.15133" lon="-0.16478">
        <ele>2.8</ele>
        <time>2024-07-03T14:29:07Z</time>
      </trkpt>
      <trkpt lat="49.15141" lon="-0.1648">
        <ele>2.6</ele>
        <time>2024-07-03T14:29:08Z</time>
      </trkpt>
      <trkpt lat="49.1515" lon="-0.16481">
        <ele>2.4</ele>
        <time>2024-07-03T14:29:09Z</time>
      </trkpt>
      <trkpt lat="49.15159" lon="-0.16483">
        <ele>2.4</ele>
        <time>2024-07-03T14:29:10Z</time>
      </trkpt>
      <trkpt lat="49.15168" lon="-0.16484">
        <ele>2.6</ele>
        <time>2024-07-03T14:29:11Z</time>
      </trkpt>
      <trkpt lat="49.15177" lon="-0.16486">
        <ele>3.2</ele>
        <time>2024-07-03T14:29:12Z</time>
      </trkpt>
      <trkpt lat="49.15185" lon="-0.16487">
        <ele>3.6</ele>
        <time>2024-07-03T14:29:13Z</time>
      </trkpt>
      <trkpt lat="49.15193" lon="-0.16488">
        <ele>3.8</ele>
        <time>2024-07-03T14:29:14Z</time>
      </trkpt>
      <trkpt lat="49.15201" lon="-0.1649">
        <ele>4</ele>
        <time>2024-07-03T14:29:15Z</time>
      </trkpt>
      <trkpt lat="49.15208" lon="-0.16491">
        <ele>4.2</ele>
        <time>2024-07-03T14:29:16Z</time>
      </trkpt>
      <trkpt lat="49.15215" lon="-0.16491">
        <ele>4.4</ele>
        <time>2024-07-03T14:29:17Z</time>
      </trkpt>
      <trkpt lat="49.15222" lon="-0.16491">
        <ele>4.4</ele>
        <time>2024-07-03T14:29:18Z</time>
      </trkpt>
      <trkpt lat="49.1523" lon="-0.16491">
        <ele>4.6</ele>
        <time>2024-07-03T14:29:19Z</time>
      </trkpt>
      <trkpt lat="49.15237" lon="-0.16491">
        <ele>5</ele>
        <time>2024-07-03T14:29:20Z</time>
      </trkpt>
      <trkpt lat="49.15244" lon="-0.16491">
        <ele>5.4</ele>
        <time>2024-07-03T14:29:21Z</time>
      </trkpt>
      <trkpt lat="49.15251" lon="-0.16491">
        <ele>5.6</ele>
        <time>2024-07-03T14:29:22Z</time>
      </trkpt>
      <trkpt lat="49.15257" lon="-0.1649">
        <ele>6</ele>
        <time>2024-07-03T14:29:23Z</time>
      </trkpt>
      <trkpt lat="49.15263" lon="-0.1649">
        <ele>6.4</ele>
        <time>2024-07-03T14:29:24Z</time>
      </trkpt>
      <trkpt lat="49.1527" lon="-0.1649">
        <ele>7</ele>
        <time>2024-07-03T14:29:25Z</time>
      </trkpt>
      <trkpt lat="49.15276" lon="-0.1649">
        <ele>7.4</ele>
        <time>2024-07-03T14:29:26Z</time>
      </trkpt>
      <trkpt lat="49.15282" lon="-0.16489">
        <ele>8</ele>
        <time>2024-07-03T14:29:27Z</time>
      </trkpt>
      <trkpt lat="49.15287" lon="-0.16489">
        <ele>8.6</ele>
        <time>2024-07-03T14:29:28Z</time>
      </trkpt>
      <trkpt lat="49.15293" lon="-0.16489">
        <ele>9.4</ele>
        <time>2024-07-03T14:29:29Z</time>
      </trkpt>
      <trkpt lat="49.15298" lon="-0.16489">
        <ele>10</ele>
        <time>2024-07-03T14:29:30Z</time>
      </trkpt>
      <trkpt lat="49.15304" lon="-0.16489">
        <ele>10.6</ele>
        <time>2024-07-03T14:29:31Z</time>
      </trkpt>
      <trkpt lat="49.15309" lon="-0.16489">
        <ele>11</ele>
        <time>2024-07-03T14:29:32Z</time>
      </trkpt>
      <trkpt lat="49.15314" lon="-0.16489">
        <ele>11.4</ele>
        <time>2024-07-03T14:29:33Z</time>
      </trkpt>
      <trkpt lat="49.15319" lon="-0.16488">
        <ele>11.8</ele>
        <time>2024-07-03T14:29:34Z</time>
      </trkpt>
      <trkpt lat="49.15324" lon="-0.16487">
        <ele>12.4</ele>
        <time>2024-07-03T14:29:35Z</time>
      </trkpt>
      <trkpt lat="49.15329" lon="-0.16487">
        <ele>12.8</ele>
        <time>2024-07-03T14:29:36Z</time>
      </trkpt>
      <trkpt lat="49.15335" lon="-0.16487">
        <ele>13.4</ele>
        <time>2024-07-03T14:29:37Z</time>
      </trkpt>
      <trkpt lat="49.1534" lon="-0.16487">
        <ele>13.8</ele>
        <time>2024-07-03T14:29:38Z</time>
      </trkpt>
      <trkpt lat="49.15345" lon="-0.16486">
        <ele>14.2</ele>
        <time>2024-07-03T14:29:39Z</time>
      </trkpt>
      <trkpt lat="49.15351" lon="-0.16486">
        <ele>14.4</ele>
        <time>2024-07-03T14:29:40Z</time>
      </trkpt>
      <trkpt lat="49.15356" lon="-0.16485">
        <ele>14.8</ele>
        <time>2024-07-03T14:29:41Z</time>
      </trkpt>
      <trkpt lat="49.1536" lon="-0.16484">
        <ele>15.6</ele>
        <time>2024-07-03T14:29:42Z</time>
      </trkpt>
      <trkpt lat="49.15363" lon="-0.16482">
        <ele>16.2</ele>
        <time>2024-07-03T14:29:43Z</time>
      </trkpt>
      <trkpt lat="49.15367" lon="-0.16482">
        <ele>16.8</ele>
        <time>2024-07-03T14:29:44Z</time>
      </trkpt>
      <trkpt lat="49.15371" lon="-0.16481">
        <ele>17.4</ele>
        <time>2024-07-03T14:29:45Z</time>
      </trkpt>
      <trkpt lat="49.15375" lon="-0.1648">
        <ele>18</ele>
        <time>2024-07-03T14:29:46Z</time>
      </trkpt>
      <trkpt lat="49.15378" lon="-0.16479">
        <ele>18.6</ele>
        <time>2024-07-03T14:29:47Z</time>
      </trkpt>
      <trkpt lat="49.15382" lon="-0.16478">
        <ele>19</ele>
        <time>2024-07-03T14:29:48Z</time>
      </trkpt>
      <trkpt lat="49.15385" lon="-0.16477">
        <ele>19.6</ele>
        <time>2024-07-03T14:29:49Z</time>
      </trkpt>
      <trkpt lat="49.15389" lon="-0.16477">
        <ele>20</ele>
        <time>2024-07-03T14:29:50Z</time>
      </trkpt>
      <trkpt lat="49.15393" lon="-0.16477">
        <ele>20.4</ele>
        <time>2024-07-03T14:29:51Z</time>
      </trkpt>
      <trkpt lat="49.15396" lon="-0.16478">
        <ele>20.8</ele>
        <time>2024-07-03T14:29:52Z</time>
      </trkpt>
      <trkpt lat="49.154" lon="-0.16479">
        <ele>21.2</ele>
        <time>2024-07-03T14:29:53Z</time>
      </trkpt>
      <trkpt lat="49.15403" lon="-0.16478">
        <ele>21.6</ele>
        <time>2024-07-03T14:29:54Z</time>
      </trkpt>
      <trkpt lat="49.15407" lon="-0.16479">
        <ele>22</ele>
        <time>2024-07-03T14:29:55Z</time>
      </trkpt>
      <trkpt lat="49.1541" lon="-0.16481">
        <ele>22.4</ele>
        <time>2024-07-03T14:29:56Z</time>
      </trkpt>
      <trkpt lat="49.15414" lon="-0.16481">
        <ele>22.8</ele>
        <time>2024-07-03T14:29:57Z</time>
      </trkpt>
      <trkpt lat="49.15418" lon="-0.16483">
        <ele>23.2</ele>
        <time>2024-07-03T14:29:58Z</time>
      </trkpt>
      <trkpt lat="49.15421" lon="-0.16485">
        <ele>23.6</ele>
        <time>2024-07-03T14:29:59Z</time>
      </trkpt>
      <trkpt lat="49.15425" lon="-0.16488">
        <ele>24</ele>
        <time>2024-07-03T14:30:00Z</time>
      </trkpt>
      <trkpt lat="49.1543" lon="-0.16491">
        <ele>24.2</ele>
        <time>2024-07-03T14:30:01Z</time>
      </trkpt>
      <trkpt lat="49.15433" lon="-0.16495">
        <ele>24.6</ele>
        <time>2024-07-03T14:30:02Z</time>
      </trkpt>
      <trkpt lat="49.15437" lon="-0.16497">
        <ele>25.2</ele>
        <time>2024-07-03T14:30:03Z</time>
      </trkpt>
      <trkpt lat="49.15441" lon="-0.165">
        <ele>25.6</ele>
        <time>2024-07-03T14:30:04Z</time>
      </trkpt>
      <trkpt lat="49.15445" lon="-0.16503">
        <ele>25.8</ele>
        <time>2024-07-03T14:30:05Z</time>
      </trkpt>
      <trkpt lat="49.15449" lon="-0.16506">
        <ele>26.4</ele>
        <time>2024-07-03T14:30:06Z</time>
      </trkpt>
      <trkpt lat="49.15453" lon="-0.16509">
        <ele>26.8</ele>
        <time>2024-07-03T14:30:07Z</time>
      </trkpt>
      <trkpt lat="49.15456" lon="-0.16513">
        <ele>27.2</ele>
        <time>2024-07-03T14:30:08Z</time>
      </trkpt>
      <trkpt lat="49.1546" lon="-0.16516">
        <ele>27.8</ele>
        <time>2024-07-03T14:30:09Z</time>
      </trkpt>
      <trkpt lat="49.15466" lon="-0.1652">
        <ele>28</ele>
        <time>2024-07-03T14:30:10Z</time>
      </trkpt>
      <trkpt lat="49.1547" lon="-0.16524">
        <ele>28.6</ele>
        <time>2024-07-03T14:30:11Z</time>
      </trkpt>
      <trkpt lat="49.15474" lon="-0.16527">
        <ele>29.2</ele>
        <time>2024-07-03T14:30:12Z</time>
      </trkpt>
      <trkpt lat="49.15479" lon="-0.16531">
        <ele>30</ele>
        <time>2024-07-03T14:30:13Z</time>
      </trkpt>
      <trkpt lat="49.15484" lon="-0.16535">
        <ele>30.6</ele>
        <time>2024-07-03T14:30:14Z</time>
      </trkpt>
      <trkpt lat="49.15488" lon="-0.1654">
        <ele>31.2</ele>
        <time>2024-07-03T14:30:15Z</time>
      </trkpt>
      <trkpt lat="49.15491" lon="-0.16543">
        <ele>31.8</ele>
        <time>2024-07-03T14:30:16Z</time>
      </trkpt>
      <trkpt lat="49.15494" lon="-0.16545">
        <ele>32.4</ele>
        <time>2024-07-03T14:30:17Z</time>
      </trkpt>
      <trkpt lat="49.15496" lon="-0.16546">
        <ele>33</ele>
        <time>2024-07-03T14:30:18Z</time>
      </trkpt>
      <trkpt lat="49.15499" lon="-0.16547">
        <ele>33.4</ele>
        <time>2024-07-03T14:30:19Z</time>
      </trkpt>
      <trkpt lat="49.15501" lon="-0.16548">
        <ele>33.8</ele>
        <time>2024-07-03T14:30:20Z</time>
      </trkpt>
      <trkpt lat="49.15503" lon="-0.1655">
        <ele>34.2</ele>
        <time>2024-07-03T14:30:21Z</time>
      </trkpt>
      <trkpt lat="49.15505" lon="-0.16552">
        <ele>34.6</ele>
        <time>2024-07-03T14:30:22Z</time>
      </trkpt>
      <trkpt lat="49.15505" lon="-0.16554">
        <ele>35.2</ele>
        <time>2024-07-03T14:30:23Z</time>
      </trkpt>
      <trkpt lat="49.15505" lon="-0.16556">
        <ele>35.6</ele>
        <time>2024-07-03T14:30:24Z</time>
      </trkpt>
      <trkpt lat="49.15505" lon="-0.16557">
        <ele>35.8</ele>
        <time>2024-07-03T14:30:25Z</time>
      </trkpt>
      <trkpt lat="49.15511" lon="-0.16558">
        <ele>36.2</ele>
        <time>2024-07-03T14:30:50Z</time>
      </trkpt>
      <trkpt lat="49.15513" lon="-0.16555">
        <ele>36.2</ele>
        <time>2024-07-03T14:30:51Z</time>
      </trkpt>
      <trkpt lat="49.15515" lon="-0.16553">
        <ele>36.2</ele>
        <time>2024-07-03T14:30:52Z</time>
      </trkpt>
      <trkpt lat="49.15517" lon="-0.16552">
        <ele>36</ele>
        <time>2024-07-03T14:30:53Z</time>
      </trkpt>
      <trkpt lat="49.15518" lon="-0.16551">
        <ele>36</ele>
        <time>2024-07-03T14:30:54Z</time>
      </trkpt>
      <trkpt lat="49.1552" lon="-0.16548">
        <ele>36.2</ele>
        <time>2024-07-03T14:30:55Z</time>
      </trkpt>
      <trkpt lat="49.15521" lon="-0.16547">
        <ele>36.2</ele>
        <time>2024-07-03T14:30:56Z</time>
      </trkpt>
      <trkpt lat="49.15522" lon="-0.16545">
        <ele>36.4</ele>
        <time>2024-07-03T14:30:57Z</time>
      </trkpt>
      <trkpt lat="49.15524" lon="-0.16544">
        <ele>36.8</ele>
        <time>2024-07-03T14:30:58Z</time>
      </trkpt>
      <trkpt lat="49.15525" lon="-0.16543">
        <ele>37</ele>
        <time>2024-07-03T14:30:59Z</time>
      </trkpt>
      <trkpt lat="49.15527" lon="-0.16542">
        <ele>37</ele>
        <time>2024-07-03T14:31:00Z</time>
      </trkpt>
      <trkpt lat="49.15528" lon="-0.16541">
        <ele>37.2</ele>
        <time>2024-07-03T14:31:01Z</time>
      </trkpt>
      <trkpt lat="49.1553" lon="-0.16539">
        <ele>37.2</ele>
        <time>2024-07-03T14:31:02Z</time>
      </trkpt>
      <trkpt lat="49.15531" lon="-0.16537">
        <ele>37.4</ele>
        <time>2024-07-03T14:31:03Z</time>
      </trkpt>
      <trkpt lat="49.15533" lon="-0.16536">
        <ele>37.6</ele>
        <time>2024-07-03T14:31:04Z</time>
      </trkpt>
      <trkpt lat="49.15535" lon="-0.16534">
        <ele>37.6</ele>
        <time>2024-07-03T14:31:05Z</time>
      </trkpt>
      <trkpt lat="49.15537" lon="-0.16533">
        <ele>37.8</ele>
        <time>2024-07-03T14:31:06Z</time>
      </trkpt>
      <trkpt lat="49.15539" lon="-0.16531">
        <ele>37.8</ele>
        <time>2024-07-03T14:31:07Z</time>
      </trkpt>
      <trkpt lat="49.15542" lon="-0.16529">
        <ele>38</ele>
        <time>2024-07-03T14:31:08Z</time>
      </trkpt>
      <trkpt lat="49.15544" lon="-0.16527">
        <ele>38</ele>
        <time>2024-07-03T14:31:09Z</time>
      </trkpt>
      <trkpt lat="49.15547" lon="-0.16524">
        <ele>38</ele>
        <time>2024-07-03T14:31:10Z</time>
      </trkpt>
      <trkpt lat="49.1555" lon="-0.16521">
        <ele>38</ele>
        <time>2024-07-03T14:31:11Z</time>
      </trkpt>
      <trkpt lat="49.15555" lon="-0.16518">
        <ele>38.2</ele>
        <time>2024-07-03T14:31:12Z</time>
      </trkpt>
      <trkpt lat="49.1556" lon="-0.16515">
        <ele>38.2</ele>
        <time>2024-07-03T14:31:13Z</time>
      </trkpt>
      <trkpt lat="49.15565" lon="-0.16511">
        <ele>38.4</ele>
        <time>2024-07-03T14:31:14Z</time>
      </trkpt>
      <trkpt lat="49.15569" lon="-0.16508">
        <ele>38.4</ele>
        <time>2024-07-03T14:31:15Z</time>
      </trkpt>
      <trkpt lat="49.15574" lon="-0.16505">
        <ele>38.6</ele>
        <time>2024-07-03T14:31:16Z</time>
      </trkpt>
      <trkpt lat="49.15578" lon="-0.16501">
        <ele>38.6</ele>
        <time>2024-07-03T14:31:17Z</time>
      </trkpt>
      <trkpt lat="49.15581" lon="-0.16497">
        <ele>38.6</ele>
        <time>2024-07-03T14:31:18Z</time>
      </trkpt>
      <trkpt lat="49.15587" lon="-0.16493">
        <ele>38.6</ele>
        <time>2024-07-03T14:31:19Z</time>
      </trkpt>
      <trkpt lat="49.15591" lon="-0.16489">
        <ele>38.6</ele>
        <time>2024-07-03T14:31:20Z</time>
      </trkpt>
      <trkpt lat="49.15595" lon="-0.16484">
        <ele>38.6</ele>
        <time>2024-07-03T14:31:21Z</time>
      </trkpt>
      <trkpt lat="49.15599" lon="-0.16478">
        <ele>38.6</ele>
        <time>2024-07-03T14:31:22Z</time>
      </trkpt>
      <trkpt lat="49.15605" lon="-0.16474">
        <ele>38.6</ele>
        <time>2024-07-03T14:31:23Z</time>
      </trkpt>
      <trkpt lat="49.1561" lon="-0.16468">
        <ele>38.6</ele>
        <time>2024-07-03T14:31:24Z</time>
      </trkpt>
      <trkpt lat="49.15616" lon="-0.16463">
        <ele>38.6</ele>
        <time>2024-07-03T14:31:25Z</time>
      </trkpt>
      <trkpt lat="49.15622" lon="-0.16457">
        <ele>38.6</ele>
        <time>2024-07-03T14:31:26Z</time>
      </trkpt>
      <trkpt lat="49.15628" lon="-0.16452">
        <ele>38.6</ele>
        <time>2024-07-03T14:31:27Z</time>
      </trkpt>
      <trkpt lat="49.15634" lon="-0.16446">
        <ele>38.6</ele>
        <time>2024-07-03T14:31:28Z</time>
      </trkpt>
      <trkpt lat="49.1564" lon="-0.16441">
        <ele>38.4</ele>
        <time>2024-07-03T14:31:29Z</time>
      </trkpt>
      <trkpt lat="49.15646" lon="-0.16436">
        <ele>38.4</ele>
        <time>2024-07-03T14:31:30Z</time>
      </trkpt>
      <trkpt lat="49.15652" lon="-0.16431">
        <ele>38.2</ele>
        <time>2024-07-03T14:31:31Z</time>
      </trkpt>
      <trkpt lat="49.15658" lon="-0.16425">
        <ele>38</ele>
        <time>2024-07-03T14:31:32Z</time>
      </trkpt>
      <trkpt lat="49.15664" lon="-0.1642">
        <ele>38</ele>
        <time>2024-07-03T14:31:33Z</time>
      </trkpt>
      <trkpt lat="49.1567" lon="-0.16414">
        <ele>37.8</ele>
        <time>2024-07-03T14:31:34Z</time>
      </trkpt>
      <trkpt lat="49.15676" lon="-0.1641">
        <ele>37.6</ele>
        <time>2024-07-03T14:31:35Z</time>
      </trkpt>
      <trkpt lat="49.15681" lon="-0.16405">
        <ele>37.4</ele>
        <time>2024-07-03T14:31:36Z</time>
      </trkpt>
      <trkpt lat="49.15687" lon="-0.164">
        <ele>37.2</ele>
        <time>2024-07-03T14:31:37Z</time>
      </trkpt>
      <trkpt lat="49.15693" lon="-0.16394">
        <ele>37.2</ele>
        <time>2024-07-03T14:31:38Z</time>
      </trkpt>
      <trkpt lat="49.15699" lon="-0.16389">
        <ele>37.2</ele>
        <time>2024-07-03T14:31:39Z</time>
      </trkpt>
      <trkpt lat="49.15705" lon="-0.16382">
        <ele>37.2</ele>
        <time>2024-07-03T14:31:40Z</time>
      </trkpt>
      <trkpt lat="49.15712" lon="-0.16376">
        <ele>37.4</ele>
        <time>2024-07-03T14:31:41Z</time>
      </trkpt>
      <trkpt lat="49.15719" lon="-0.16371">
        <ele>37.4</ele>
        <time>2024-07-03T14:31:42Z</time>
      </trkpt>
      <trkpt lat="49.15726" lon="-0.16364">
        <ele>37.6</ele>
        <time>2024-07-03T14:31:43Z</time>
      </trkpt>
      <trkpt lat="49.15733" lon="-0.16358">
        <ele>37.6</ele>
        <time>2024-07-03T14:31:44Z</time>
      </trkpt>
      <trkpt lat="49.1574" lon="-0.16352">
        <ele>37.6</ele>
        <time>2024-07-03T14:31:45Z</time>
      </trkpt>
      <trkpt lat="49.15747" lon="-0.16347">
        <ele>37.6</ele>
        <time>2024-07-03T14:31:46Z</time>
      </trkpt>
      <trkpt lat="49.15754" lon="-0.16341">
        <ele>37.6</ele>
        <time>2024-07-03T14:31:47Z</time>
      </trkpt>
      <trkpt lat="49.15762" lon="-0.16335">
        <ele>37.4</ele>
        <time>2024-07-03T14:31:48Z</time>
      </trkpt>
      <trkpt lat="49.15769" lon="-0.16329">
        <ele>37.2</ele>
        <time>2024-07-03T14:31:49Z</time>
      </trkpt>
      <trkpt lat="49.15775" lon="-0.16323">
        <ele>37</ele>
        <time>2024-07-03T14:31:50Z</time>
      </trkpt>
      <trkpt lat="49.15783" lon="-0.16316">
        <ele>37</ele>
        <time>2024-07-03T14:31:51Z</time>
      </trkpt>
      <trkpt lat="49.1579" lon="-0.16309">
        <ele>36.8</ele>
        <time>2024-07-03T14:31:52Z</time>
      </trkpt>
      <trkpt lat="49.15796" lon="-0.16302">
        <ele>36.8</ele>
        <time>2024-07-03T14:31:53Z</time>
      </trkpt>
      <trkpt lat="49.15803" lon="-0.16296">
        <ele>36.8</ele>
        <time>2024-07-03T14:31:54Z</time>
      </trkpt>
      <trkpt lat="49.15811" lon="-0.1629">
        <ele>36.8</ele>
        <time>2024-07-03T14:31:55Z</time>
      </trkpt>
      <trkpt lat="49.15817" lon="-0.16284">
        <ele>37</ele>
        <time>2024-07-03T14:31:56Z</time>
      </trkpt>
      <trkpt lat="49.15824" lon="-0.16278">
        <ele>37.2</ele>
        <time>2024-07-03T14:31:57Z</time>
      </trkpt>
      <trkpt lat="49.15831" lon="-0.16273">
        <ele>37.2</ele>
        <time>2024-07-03T14:31:58Z</time>
      </trkpt>
      <trkpt lat="49.15838" lon="-0.16268">
        <ele>37.4</ele>
        <time>2024-07-03T14:31:59Z</time>
      </trkpt>
      <trkpt lat="49.15846" lon="-0.16263">
        <ele>37.2</ele>
        <time>2024-07-03T14:32:00Z</time>
      </trkpt>
      <trkpt lat="49.15853" lon="-0.16258">
        <ele>37</ele>
        <time>2024-07-03T14:32:01Z</time>
      </trkpt>
      <trkpt lat="49.1586" lon="-0.16253">
        <ele>36.8</ele>
        <time>2024-07-03T14:32:02Z</time>
      </trkpt>
      <trkpt lat="49.15867" lon="-0.16248">
        <ele>36.4</ele>
        <time>2024-07-03T14:32:03Z</time>
      </trkpt>
      <trkpt lat="49.15872" lon="-0.16242">
        <ele>36.2</ele>
        <time>2024-07-03T14:32:04Z</time>
      </trkpt>
      <trkpt lat="49.15877" lon="-0.16237">
        <ele>36</ele>
        <time>2024-07-03T14:32:05Z</time>
      </trkpt>
      <trkpt lat="49.15882" lon="-0.16233">
        <ele>36</ele>
        <time>2024-07-03T14:32:06Z</time>
      </trkpt>
      <trkpt lat="49.15885" lon="-0.16231">
        <ele>36.2</ele>
        <time>2024-07-03T14:32:07Z</time>
      </trkpt>
      <trkpt lat="49.15888" lon="-0.16229">
        <ele>36.4</ele>
        <time>2024-07-03T14:32:08Z</time>
      </trkpt>
      <trkpt lat="49.15889" lon="-0.16228">
        <ele>36.6</ele>
        <time>2024-07-03T14:32:09Z</time>
      </trkpt>
      <trkpt lat="49.15889" lon="-0.16228">
        <ele>36.8</ele>
        <time>2024-07-03T14:32:10Z</time>
      </trkpt>
      <trkpt lat="49.15889" lon="-0.16228">
        <ele>37</ele>
        <time>2024-07-03T14:32:11Z</time>
      </trkpt>
      <trkpt lat="49.15892" lon="-0.16225">
        <ele>37.2</ele>
        <time>2024-07-03T14:32:16Z</time>
      </trkpt>
      <trkpt lat="49.15894" lon="-0.16224">
        <ele>37.2</ele>
        <time>2024-07-03T14:32:17Z</time>
      </trkpt>
      <trkpt lat="49.15897" lon="-0.16222">
        <ele>37.2</ele>
        <time>2024-07-03T14:32:18Z</time>
      </trkpt>
      <trkpt lat="49.159" lon="-0.16218">
        <ele>37.2</ele>
        <time>2024-07-03T14:32:19Z</time>
      </trkpt>
      <trkpt lat="49.15904" lon="-0.16215">
        <ele>37</ele>
        <time>2024-07-03T14:32:20Z</time>
      </trkpt>
      <trkpt lat="49.15909" lon="-0.16211">
        <ele>37</ele>
        <time>2024-07-03T14:32:21Z</time>
      </trkpt>
      <trkpt lat="49.15913" lon="-0.16206">
        <ele>36.6</ele>
        <time>2024-07-03T14:32:22Z</time>
      </trkpt>
      <trkpt lat="49.15919" lon="-0.162">
        <ele>36.2</ele>
        <time>2024-07-03T14:32:23Z</time>
      </trkpt>
      <trkpt lat="49.15925" lon="-0.16195">
        <ele>35.6</ele>
        <time>2024-07-03T14:32:24Z</time>
      </trkpt>
      <trkpt lat="49.15931" lon="-0.16189">
        <ele>35</ele>
        <time>2024-07-03T14:32:25Z</time>
      </trkpt>
      <trkpt lat="49.15938" lon="-0.16183">
        <ele>34.6</ele>
        <time>2024-07-03T14:32:26Z</time>
      </trkpt>
      <trkpt lat="49.15945" lon="-0.16176">
        <ele>34.2</ele>
        <time>2024-07-03T14:32:27Z</time>
      </trkpt>
      <trkpt lat="49.15952" lon="-0.16169">
        <ele>34</ele>
        <time>2024-07-03T14:32:28Z</time>
      </trkpt>
      <trkpt lat="49.15958" lon="-0.16162">
        <ele>33.4</ele>
        <time>2024-07-03T14:32:29Z</time>
      </trkpt>
      <trkpt lat="49.15965" lon="-0.16154">
        <ele>32.6</ele>
        <time>2024-07-03T14:32:30Z</time>
      </trkpt>
      <trkpt lat="49.15972" lon="-0.16146">
        <ele>32</ele>
        <time>2024-07-03T14:32:31Z</time>
      </trkpt>
      <trkpt lat="49.15978" lon="-0.16137">
        <ele>31.6</ele>
        <time>2024-07-03T14:32:32Z</time>
      </trkpt>
      <trkpt lat="49.15985" lon="-0.16129">
        <ele>31.4</ele>
        <time>2024-07-03T14:32:33Z</time>
      </trkpt>
      <trkpt lat="49.15992" lon="-0.1612">
        <ele>31.2</ele>
        <time>2024-07-03T14:32:34Z</time>
      </trkpt>
      <trkpt lat="49.15999" lon="-0.16111">
        <ele>31.2</ele>
        <time>2024-07-03T14:32:35Z</time>
      </trkpt>
      <trkpt lat="49.16006" lon="-0.16102">
        <ele>31</ele>
        <time>2024-07-03T14:32:36Z</time>
      </trkpt>
      <trkpt lat="49.16012" lon="-0.16094">
        <ele>30.6</ele>
        <time>2024-07-03T14:32:37Z</time>
      </trkpt>
      <trkpt lat="49.16019" lon="-0.16085">
        <ele>30.2</ele>
        <time>2024-07-03T14:32:38Z</time>
      </trkpt>
      <trkpt lat="49.16026" lon="-0.16076">
        <ele>29.6</ele>
        <time>2024-07-03T14:32:39Z</time>
      </trkpt>
      <trkpt lat="49.16032" lon="-0.16067">
        <ele>29</ele>
        <time>2024-07-03T14:32:40Z</time>
      </trkpt>
      <trkpt lat="49.16039" lon="-0.16058">
        <ele>28.8</ele>
        <time>2024-07-03T14:32:41Z</time>
      </trkpt>
      <trkpt lat="49.16047" lon="-0.16049">
        <ele>28.4</ele>
        <time>2024-07-03T14:32:42Z</time>
      </trkpt>
      <trkpt lat="49.16055" lon="-0.16042">
        <ele>28</ele>
        <time>2024-07-03T14:32:43Z</time>
      </trkpt>
      <trkpt lat="49.16063" lon="-0.16037">
        <ele>27.6</ele>
        <time>2024-07-03T14:32:44Z</time>
      </trkpt>
      <trkpt lat="49.16072" lon="-0.16035">
        <ele>27.4</ele>
        <time>2024-07-03T14:32:45Z</time>
      </trkpt>
      <trkpt lat="49.16082" lon="-0.16034">
        <ele>27.2</ele>
        <time>2024-07-03T14:32:46Z</time>
      </trkpt>
      <trkpt lat="49.16091" lon="-0.16034">
        <ele>27</ele>
        <time>2024-07-03T14:32:47Z</time>
      </trkpt>
      <trkpt lat="49.16101" lon="-0.16033">
        <ele>26.8</ele>
        <time>2024-07-03T14:32:48Z</time>
      </trkpt>
      <trkpt lat="49.16111" lon="-0.16032">
        <ele>26.4</ele>
        <time>2024-07-03T14:32:49Z</time>
      </trkpt>
      <trkpt lat="49.1612" lon="-0.16032">
        <ele>26.2</ele>
        <time>2024-07-03T14:32:50Z</time>
      </trkpt>
      <trkpt lat="49.16129" lon="-0.16031">
        <ele>26</ele>
        <time>2024-07-03T14:32:51Z</time>
      </trkpt>
      <trkpt lat="49.16138" lon="-0.16029">
        <ele>25.8</ele>
        <time>2024-07-03T14:32:52Z</time>
      </trkpt>
      <trkpt lat="49.16147" lon="-0.16027">
        <ele>25.6</ele>
        <time>2024-07-03T14:32:53Z</time>
      </trkpt>
      <trkpt lat="49.16156" lon="-0.16024">
        <ele>25.4</ele>
        <time>2024-07-03T14:32:54Z</time>
      </trkpt>
      <trkpt lat="49.16164" lon="-0.16021">
        <ele>25.2</ele>
        <time>2024-07-03T14:32:55Z</time>
      </trkpt>
      <trkpt lat="49.16172" lon="-0.16017">
        <ele>25.2</ele>
        <time>2024-07-03T14:32:56Z</time>
      </trkpt>
      <trkpt lat="49.16179" lon="-0.16013">
        <ele>25.2</ele>
        <time>2024-07-03T14:32:57Z</time>
      </trkpt>
      <trkpt lat="49.16185" lon="-0.16011">
        <ele>25.4</ele>
        <time>2024-07-03T14:32:58Z</time>
      </trkpt>
      <trkpt lat="49.16191" lon="-0.16011">
        <ele>25.8</ele>
        <time>2024-07-03T14:32:59Z</time>
      </trkpt>
      <trkpt lat="49.16197" lon="-0.16013">
        <ele>26</ele>
        <time>2024-07-03T14:33:00Z</time>
      </trkpt>
      <trkpt lat="49.16202" lon="-0.16018">
        <ele>26.2</ele>
        <time>2024-07-03T14:33:01Z</time>
      </trkpt>
      <trkpt lat="49.16207" lon="-0.16026">
        <ele>26.2</ele>
        <time>2024-07-03T14:33:02Z</time>
      </trkpt>
      <trkpt lat="49.16211" lon="-0.16034">
        <ele>26.2</ele>
        <time>2024-07-03T14:33:03Z</time>
      </trkpt>
      <trkpt lat="49.16216" lon="-0.16043">
        <ele>26</ele>
        <time>2024-07-03T14:33:04Z</time>
      </trkpt>
      <trkpt lat="49.16221" lon="-0.16052">
        <ele>26</ele>
        <time>2024-07-03T14:33:05Z</time>
      </trkpt>
      <trkpt lat="49.16226" lon="-0.16061">
        <ele>25.8</ele>
        <time>2024-07-03T14:33:06Z</time>
      </trkpt>
      <trkpt lat="49.1623" lon="-0.16071">
        <ele>25.6</ele>
        <time>2024-07-03T14:33:07Z</time>
      </trkpt>
      <trkpt lat="49.16235" lon="-0.16081">
        <ele>25.4</ele>
        <time>2024-07-03T14:33:08Z</time>
      </trkpt>
      <trkpt lat="49.1624" lon="-0.16091">
        <ele>25.2</ele>
        <time>2024-07-03T14:33:09Z</time>
      </trkpt>
      <trkpt lat="49.16245" lon="-0.16102">
        <ele>24.8</ele>
        <time>2024-07-03T14:33:10Z</time>
      </trkpt>
      <trkpt lat="49.1625" lon="-0.16112">
        <ele>24.6</ele>
        <time>2024-07-03T14:33:11Z</time>
      </trkpt>
      <trkpt lat="49.16255" lon="-0.16123">
        <ele>24.4</ele>
        <time>2024-07-03T14:33:12Z</time>
      </trkpt>
      <trkpt lat="49.16261" lon="-0.16133">
        <ele>24.2</ele>
        <time>2024-07-03T14:33:13Z</time>
      </trkpt>
      <trkpt lat="49.16266" lon="-0.16142">
        <ele>24.2</ele>
        <time>2024-07-03T14:33:14Z</time>
      </trkpt>
      <trkpt lat="49.16272" lon="-0.1615">
        <ele>24.2</ele>
        <time>2024-07-03T14:33:15Z</time>
      </trkpt>
      <trkpt lat="49.16278" lon="-0.16157">
        <ele>24.4</ele>
        <time>2024-07-03T14:33:16Z</time>
      </trkpt>
      <trkpt lat="49.16286" lon="-0.1616">
        <ele>24.4</ele>
        <time>2024-07-03T14:33:17Z</time>
      </trkpt>
      <trkpt lat="49.16294" lon="-0.16162">
        <ele>24.4</ele>
        <time>2024-07-03T14:33:18Z</time>
      </trkpt>
      <trkpt lat="49.16303" lon="-0.16163">
        <ele>24.4</ele>
        <time>2024-07-03T14:33:19Z</time>
      </trkpt>
      <trkpt lat="49.16312" lon="-0.16163">
        <ele>24.4</ele>
        <time>2024-07-03T14:33:20Z</time>
      </trkpt>
      <trkpt lat="49.16321" lon="-0.16162">
        <ele>24.4</ele>
        <time>2024-07-03T14:33:21Z</time>
      </trkpt>
      <trkpt lat="49.1633" lon="-0.16159">
        <ele>24.2</ele>
        <time>2024-07-03T14:33:22Z</time>
      </trkpt>
      <trkpt lat="49.16338" lon="-0.16155">
        <ele>24</ele>
        <time>2024-07-03T14:33:23Z</time>
      </trkpt>
      <trkpt lat="49.16346" lon="-0.16148">
        <ele>23.8</ele>
        <time>2024-07-03T14:33:24Z</time>
      </trkpt>
      <trkpt lat="49.16353" lon="-0.16138">
        <ele>23.8</ele>
        <time>2024-07-03T14:33:25Z</time>
      </trkpt>
      <trkpt lat="49.16359" lon="-0.16125">
        <ele>23.6</ele>
        <time>2024-07-03T14:33:26Z</time>
      </trkpt>
      <trkpt lat="49.16364" lon="-0.16113">
        <ele>23.6</ele>
        <time>2024-07-03T14:33:27Z</time>
      </trkpt>
      <trkpt lat="49.16369" lon="-0.16099">
        <ele>23.4</ele>
        <time>2024-07-03T14:33:28Z</time>
      </trkpt>
      <trkpt lat="49.16374" lon="-0.16085">
        <ele>23.2</ele>
        <time>2024-07-03T14:33:29Z</time>
      </trkpt>
      <trkpt lat="49.16379" lon="-0.16071">
        <ele>23</ele>
        <time>2024-07-03T14:33:30Z</time>
      </trkpt>
      <trkpt lat="49.16385" lon="-0.16057">
        <ele>22.8</ele>
        <time>2024-07-03T14:33:31Z</time>
      </trkpt>
      <trkpt lat="49.16391" lon="-0.16044">
        <ele>22.4</ele>
        <time>2024-07-03T14:33:32Z</time>
      </trkpt>
      <trkpt lat="49.16397" lon="-0.16031">
        <ele>22</ele>
        <time>2024-07-03T14:33:33Z</time>
      </trkpt>
      <trkpt lat="49.16403" lon="-0.16018">
        <ele>21.6</ele>
        <time>2024-07-03T14:33:34Z</time>
      </trkpt>
      <trkpt lat="49.16409" lon="-0.16006">
        <ele>21.2</ele>
        <time>2024-07-03T14:33:35Z</time>
      </trkpt>
      <trkpt lat="49.16415" lon="-0.15994">
        <ele>20.8</ele>
        <time>2024-07-03T14:33:36Z</time>
      </trkpt>
      <trkpt lat="49.16421" lon="-0.15981">
        <ele>20.4</ele>
        <time>2024-07-03T14:33:37Z</time>
      </trkpt>
      <trkpt lat="49.16428" lon="-0.15969">
        <ele>20.2</ele>
        <time>2024-07-03T14:33:38Z</time>
      </trkpt>
      <trkpt lat="49.16434" lon="-0.15957">
        <ele>20</ele>
        <time>2024-07-03T14:33:39Z</time>
      </trkpt>
      <trkpt lat="49.1644" lon="-0.15945">
        <ele>20</ele>
        <time>2024-07-03T14:33:40Z</time>
      </trkpt>
      <trkpt lat="49.16447" lon="-0.15933">
        <ele>20</ele>
        <time>2024-07-03T14:33:41Z</time>
      </trkpt>
      <trkpt lat="49.16453" lon="-0.1592">
        <ele>20</ele>
        <time>2024-07-03T14:33:42Z</time>
      </trkpt>
      <trkpt lat="49.16459" lon="-0.15908">
        <ele>20</ele>
        <time>2024-07-03T14:33:43Z</time>
      </trkpt>
      <trkpt lat="49.16465" lon="-0.15896">
        <ele>20</ele>
        <time>2024-07-03T14:33:44Z</time>
      </trkpt>
      <trkpt lat="49.16471" lon="-0.15885">
        <ele>19.8</ele>
        <time>2024-07-03T14:33:45Z</time>
      </trkpt>
      <trkpt lat="49.16478" lon="-0.15875">
        <ele>19.6</ele>
        <time>2024-07-03T14:33:46Z</time>
      </trkpt>
      <trkpt lat="49.16486" lon="-0.15865">
        <ele>19.2</ele>
        <time>2024-07-03T14:33:47Z</time>
      </trkpt>
      <trkpt lat="49.16494" lon="-0.15856">
        <ele>19</ele>
        <time>2024-07-03T14:33:48Z</time>
      </trkpt>
      <trkpt lat="49.16502" lon="-0.15848">
        <ele>18.8</ele>
        <time>2024-07-03T14:33:49Z</time>
      </trkpt>
      <trkpt lat="49.1651" lon="-0.15839">
        <ele>18.6</ele>
        <time>2024-07-03T14:33:50Z</time>
      </trkpt>
      <trkpt lat="49.16519" lon="-0.15831">
        <ele>18.4</ele>
        <time>2024-07-03T14:33:51Z</time>
      </trkpt>
      <trkpt lat="49.16527" lon="-0.15823">
        <ele>18.2</ele>
        <time>2024-07-03T14:33:52Z</time>
      </trkpt>
      <trkpt lat="49.16536" lon="-0.15816">
        <ele>18</ele>
        <time>2024-07-03T14:33:53Z</time>
      </trkpt>
      <trkpt lat="49.16545" lon="-0.15811">
        <ele>17.8</ele>
        <time>2024-07-03T14:33:54Z</time>
      </trkpt>
      <trkpt lat="49.16555" lon="-0.15806">
        <ele>17.6</ele>
        <time>2024-07-03T14:33:55Z</time>
      </trkpt>
      <trkpt lat="49.16564" lon="-0.158">
        <ele>17.6</ele>
        <time>2024-07-03T14:33:56Z</time>
      </trkpt>
      <trkpt lat="49.16574" lon="-0.15795">
        <ele>17.4</ele>
        <time>2024-07-03T14:33:57Z</time>
      </trkpt>
      <trkpt lat="49.16583" lon="-0.15788">
        <ele>17.2</ele>
        <time>2024-07-03T14:33:58Z</time>
      </trkpt>
      <trkpt lat="49.16592" lon="-0.15781">
        <ele>17</ele>
        <time>2024-07-03T14:33:59Z</time>
      </trkpt>
      <trkpt lat="49.166" lon="-0.15772">
        <ele>16.8</ele>
        <time>2024-07-03T14:34:00Z</time>
      </trkpt>
      <trkpt lat="49.16608" lon="-0.15763">
        <ele>16.8</ele>
        <time>2024-07-03T14:34:01Z</time>
      </trkpt>
      <trkpt lat="49.16615" lon="-0.15753">
        <ele>16.8</ele>
        <time>2024-07-03T14:34:02Z</time>
      </trkpt>
      <trkpt lat="49.16621" lon="-0.15742">
        <ele>16.8</ele>
        <time>2024-07-03T14:34:03Z</time>
      </trkpt>
      <trkpt lat="49.16627" lon="-0.15732">
        <ele>16.8</ele>
        <time>2024-07-03T14:34:04Z</time>
      </trkpt>
      <trkpt lat="49.16634" lon="-0.15723">
        <ele>16.8</ele>
        <time>2024-07-03T14:34:05Z</time>
      </trkpt>
      <trkpt lat="49.16639" lon="-0.15713">
        <ele>17</ele>
        <time>2024-07-03T14:34:06Z</time>
      </trkpt>
      <trkpt lat="49.16644" lon="-0.15706">
        <ele>17</ele>
        <time>2024-07-03T14:34:07Z</time>
      </trkpt>
      <trkpt lat="49.16647" lon="-0.157">
        <ele>17.2</ele>
        <time>2024-07-03T14:34:08Z</time>
      </trkpt>
      <trkpt lat="49.1665" lon="-0.15695">
        <ele>17.6</ele>
        <time>2024-07-03T14:34:09Z</time>
      </trkpt>
      <trkpt lat="49.16653" lon="-0.15692">
        <ele>18</ele>
        <time>2024-07-03T14:34:10Z</time>
      </trkpt>
      <trkpt lat="49.16655" lon="-0.15692">
        <ele>18.2</ele>
        <time>2024-07-03T14:34:11Z</time>
      </trkpt>
      <trkpt lat="49.16658" lon="-0.15695">
        <ele>18.4</ele>
        <time>2024-07-03T14:34:12Z</time>
      </trkpt>
      <trkpt lat="49.16661" lon="-0.157">
        <ele>18.6</ele>
        <time>2024-07-03T14:34:13Z</time>
      </trkpt>
      <trkpt lat="49.16663" lon="-0.15706">
        <ele>18.4</ele>
        <time>2024-07-03T14:34:14Z</time>
      </trkpt>
      <trkpt lat="49.16665" lon="-0.15712">
        <ele>18.4</ele>
        <time>2024-07-03T14:34:15Z</time>
      </trkpt>
      <trkpt lat="49.16668" lon="-0.15719">
        <ele>18.2</ele>
        <time>2024-07-03T14:34:16Z</time>
      </trkpt>
      <trkpt lat="49.16671" lon="-0.15725">
        <ele>18.2</ele>
        <time>2024-07-03T14:34:17Z</time>
      </trkpt>
      <trkpt lat="49.16674" lon="-0.15732">
        <ele>18</ele>
        <time>2024-07-03T14:34:18Z</time>
      </trkpt>
      <trkpt lat="49.16677" lon="-0.1574">
        <ele>17.6</ele>
        <time>2024-07-03T14:34:19Z</time>
      </trkpt>
      <trkpt lat="49.1668" lon="-0.15748">
        <ele>17.2</ele>
        <time>2024-07-03T14:34:20Z</time>
      </trkpt>
      <trkpt lat="49.16683" lon="-0.15755">
        <ele>16.8</ele>
        <time>2024-07-03T14:34:21Z</time>
      </trkpt>
      <trkpt lat="49.16687" lon="-0.15763">
        <ele>16.6</ele>
        <time>2024-07-03T14:34:22Z</time>
      </trkpt>
      <trkpt lat="49.16691" lon="-0.15771">
        <ele>16.4</ele>
        <time>2024-07-03T14:34:23Z</time>
      </trkpt>
      <trkpt lat="49.16695" lon="-0.15779">
        <ele>16.2</ele>
        <time>2024-07-03T14:34:24Z</time>
      </trkpt>
      <trkpt lat="49.16699" lon="-0.15787">
        <ele>16</ele>
        <time>2024-07-03T14:34:25Z</time>
      </trkpt>
      <trkpt lat="49.16703" lon="-0.15797">
        <ele>15.6</ele>
        <time>2024-07-03T14:34:26Z</time>
      </trkpt>
      <trkpt lat="49.16707" lon="-0.15806">
        <ele>15.4</ele>
        <time>2024-07-03T14:34:27Z</time>
      </trkpt>
      <trkpt lat="49.16711" lon="-0.15816">
        <ele>15.2</ele>
        <time>2024-07-03T14:34:28Z</time>
      </trkpt>
      <trkpt lat="49.16716" lon="-0.15827">
        <ele>14.8</ele>
        <time>2024-07-03T14:34:29Z</time>
      </trkpt>
      <trkpt lat="49.16721" lon="-0.15837">
        <ele>14.4</ele>
        <time>2024-07-03T14:34:30Z</time>
      </trkpt>
      <trkpt lat="49.16726" lon="-0.15848">
        <ele>14.2</ele>
        <time>2024-07-03T14:34:31Z</time>
      </trkpt>
      <trkpt lat="49.16731" lon="-0.1586">
        <ele>13.8</ele>
        <time>2024-07-03T14:34:32Z</time>
      </trkpt>
      <trkpt lat="49.16735" lon="-0.15872">
        <ele>13.2</ele>
        <time>2024-07-03T14:34:33Z</time>
      </trkpt>
      <trkpt lat="49.1674" lon="-0.15885">
        <ele>12.6</ele>
        <time>2024-07-03T14:34:34Z</time>
      </trkpt>
      <trkpt lat="49.16744" lon="-0.15897">
        <ele>11.8</ele>
        <time>2024-07-03T14:34:35Z</time>
      </trkpt>
      <trkpt lat="49.1675" lon="-0.15909">
        <ele>11</ele>
        <time>2024-07-03T14:34:36Z</time>
      </trkpt>
      <trkpt lat="49.16755" lon="-0.1592">
        <ele>10.2</ele>
        <time>2024-07-03T14:34:37Z</time>
      </trkpt>
      <trkpt lat="49.1676" lon="-0.15932">
        <ele>9.6</ele>
        <time>2024-07-03T14:34:38Z</time>
      </trkpt>
      <trkpt lat="49.16765" lon="-0.15945">
        <ele>9.2</ele>
        <time>2024-07-03T14:34:39Z</time>
      </trkpt>
      <trkpt lat="49.1677" lon="-0.15956">
        <ele>9</ele>
        <time>2024-07-03T14:34:40Z</time>
      </trkpt>
      <trkpt lat="49.16775" lon="-0.15967">
        <ele>8.8</ele>
        <time>2024-07-03T14:34:41Z</time>
      </trkpt>
      <trkpt lat="49.1678" lon="-0.15978">
        <ele>8.8</ele>
        <time>2024-07-03T14:34:42Z</time>
      </trkpt>
      <trkpt lat="49.16785" lon="-0.15989">
        <ele>8.8</ele>
        <time>2024-07-03T14:34:43Z</time>
      </trkpt>
      <trkpt lat="49.1679" lon="-0.16001">
        <ele>8.6</ele>
        <time>2024-07-03T14:34:44Z</time>
      </trkpt>
      <trkpt lat="49.16796" lon="-0.16013">
        <ele>8.6</ele>
        <time>2024-07-03T14:34:45Z</time>
      </trkpt>
      <trkpt lat="49.16801" lon="-0.16024">
        <ele>8.6</ele>
        <time>2024-07-03T14:34:46Z</time>
      </trkpt>
      <trkpt lat="49.16807" lon="-0.16035">
        <ele>8.8</ele>
        <time>2024-07-03T14:34:47Z</time>
      </trkpt>
      <trkpt lat="49.16813" lon="-0.16045">
        <ele>9</ele>
        <time>2024-07-03T14:34:48Z</time>
      </trkpt>
      <trkpt lat="49.16819" lon="-0.16056">
        <ele>9.4</ele>
        <time>2024-07-03T14:34:49Z</time>
      </trkpt>
      <trkpt lat="49.16825" lon="-0.16067">
        <ele>9.8</ele>
        <time>2024-07-03T14:34:50Z</time>
      </trkpt>
      <trkpt lat="49.16831" lon="-0.16077">
        <ele>10</ele>
        <time>2024-07-03T14:34:51Z</time>
      </trkpt>
      <trkpt lat="49.16837" lon="-0.16087">
        <ele>10</ele>
        <time>2024-07-03T14:34:52Z</time>
      </trkpt>
      <trkpt lat="49.16842" lon="-0.16097">
        <ele>10</ele>
        <time>2024-07-03T14:34:53Z</time>
      </trkpt>
      <trkpt lat="49.16848" lon="-0.16106">
        <ele>10</ele>
        <time>2024-07-03T14:34:54Z</time>
      </trkpt>
      <trkpt lat="49.16855" lon="-0.16116">
        <ele>10</ele>
        <time>2024-07-03T14:34:55Z</time>
      </trkpt>
      <trkpt lat="49.16861" lon="-0.16125">
        <ele>10</ele>
        <time>2024-07-03T14:34:56Z</time>
      </trkpt>
      <trkpt lat="49.16868" lon="-0.16134">
        <ele>10</ele>
        <time>2024-07-03T14:34:57Z</time>
      </trkpt>
      <trkpt lat="49.16875" lon="-0.16143">
        <ele>10</ele>
        <time>2024-07-03T14:34:58Z</time>
      </trkpt>
      <trkpt lat="49.16882" lon="-0.16152">
        <ele>9.8</ele>
        <time>2024-07-03T14:34:59Z</time>
      </trkpt>
      <trkpt lat="49.16889" lon="-0.16159">
        <ele>9.8</ele>
        <time>2024-07-03T14:35:00Z</time>
      </trkpt>
      <trkpt lat="49.16897" lon="-0.16167">
        <ele>9.4</ele>
        <time>2024-07-03T14:35:01Z</time>
      </trkpt>
      <trkpt lat="49.16905" lon="-0.16174">
        <ele>9.2</ele>
        <time>2024-07-03T14:35:02Z</time>
      </trkpt>
      <trkpt lat="49.16913" lon="-0.16181">
        <ele>8.8</ele>
        <time>2024-07-03T14:35:03Z</time>
      </trkpt>
      <trkpt lat="49.16922" lon="-0.16187">
        <ele>8.6</ele>
        <time>2024-07-03T14:35:04Z</time>
      </trkpt>
      <trkpt lat="49.1693" lon="-0.16193">
        <ele>8.6</ele>
        <time>2024-07-03T14:35:05Z</time>
      </trkpt>
      <trkpt lat="49.1694" lon="-0.16199">
        <ele>8.4</ele>
        <time>2024-07-03T14:35:06Z</time>
      </trkpt>
      <trkpt lat="49.16949" lon="-0.16204">
        <ele>8.4</ele>
        <time>2024-07-03T14:35:07Z</time>
      </trkpt>
      <trkpt lat="49.16958" lon="-0.16209">
        <ele>8.2</ele>
        <time>2024-07-03T14:35:08Z</time>
      </trkpt>
      <trkpt lat="49.16966" lon="-0.16214">
        <ele>8.2</ele>
        <time>2024-07-03T14:35:09Z</time>
      </trkpt>
      <trkpt lat="49.16975" lon="-0.1622">
        <ele>8.2</ele>
        <time>2024-07-03T14:35:10Z</time>
      </trkpt>
      <trkpt lat="49.16984" lon="-0.16225">
        <ele>8</ele>
        <time>2024-07-03T14:35:11Z</time>
      </trkpt>
      <trkpt lat="49.16992" lon="-0.1623">
        <ele>8</ele>
        <time>2024-07-03T14:35:12Z</time>
      </trkpt>
      <trkpt lat="49.17" lon="-0.16236">
        <ele>7.8</ele>
        <time>2024-07-03T14:35:13Z</time>
      </trkpt>
      <trkpt lat="49.17008" lon="-0.16241">
        <ele>7.8</ele>
        <time>2024-07-03T14:35:14Z</time>
      </trkpt>
      <trkpt lat="49.17015" lon="-0.16247">
        <ele>7.8</ele>
        <time>2024-07-03T14:35:15Z</time>
      </trkpt>
      <trkpt lat="49.17022" lon="-0.16253">
        <ele>8</ele>
        <time>2024-07-03T14:35:16Z</time>
      </trkpt>
      <trkpt lat="49.17029" lon="-0.1626">
        <ele>8.2</ele>
        <time>2024-07-03T14:35:17Z</time>
      </trkpt>
      <trkpt lat="49.17036" lon="-0.16267">
        <ele>8.2</ele>
        <time>2024-07-03T14:35:18Z</time>
      </trkpt>
      <trkpt lat="49.17042" lon="-0.16275">
        <ele>8.4</ele>
        <time>2024-07-03T14:35:19Z</time>
      </trkpt>
      <trkpt lat="49.17048" lon="-0.16283">
        <ele>8.6</ele>
        <time>2024-07-03T14:35:20Z</time>
      </trkpt>
      <trkpt lat="49.17053" lon="-0.1629">
        <ele>8.8</ele>
        <time>2024-07-03T14:35:21Z</time>
      </trkpt>
      <trkpt lat="49.17058" lon="-0.16298">
        <ele>8.8</ele>
        <time>2024-07-03T14:35:22Z</time>
      </trkpt>
      <trkpt lat="49.17063" lon="-0.16305">
        <ele>9</ele>
        <time>2024-07-03T14:35:23Z</time>
      </trkpt>
      <trkpt lat="49.17068" lon="-0.16313">
        <ele>9.2</ele>
        <time>2024-07-03T14:35:24Z</time>
      </trkpt>
      <trkpt lat="49.17073" lon="-0.16321">
        <ele>9.6</ele>
        <time>2024-07-03T14:35:25Z</time>
      </trkpt>
      <trkpt lat="49.17077" lon="-0.16329">
        <ele>9.8</ele>
        <time>2024-07-03T14:35:26Z</time>
      </trkpt>
      <trkpt lat="49.17081" lon="-0.16336">
        <ele>10.2</ele>
        <time>2024-07-03T14:35:27Z</time>
      </trkpt>
      <trkpt lat="49.17086" lon="-0.16344">
        <ele>10.6</ele>
        <time>2024-07-03T14:35:28Z</time>
      </trkpt>
      <trkpt lat="49.1709" lon="-0.16352">
        <ele>10.8</ele>
        <time>2024-07-03T14:35:29Z</time>
      </trkpt>
      <trkpt lat="49.17095" lon="-0.16361">
        <ele>11</ele>
        <time>2024-07-03T14:35:30Z</time>
      </trkpt>
      <trkpt lat="49.17099" lon="-0.16369">
        <ele>11</ele>
        <time>2024-07-03T14:35:31Z</time>
      </trkpt>
      <trkpt lat="49.17104" lon="-0.16377">
        <ele>11</ele>
        <time>2024-07-03T14:35:32Z</time>
      </trkpt>
      <trkpt lat="49.17108" lon="-0.16385">
        <ele>11</ele>
        <time>2024-07-03T14:35:33Z</time>
      </trkpt>
      <trkpt lat="49.17112" lon="-0.16393">
        <ele>10.6</ele>
        <time>2024-07-03T14:35:34Z</time>
      </trkpt>
      <trkpt lat="49.17117" lon="-0.16401">
        <ele>10.2</ele>
        <time>2024-07-03T14:35:35Z</time>
      </trkpt>
      <trkpt lat="49.17121" lon="-0.16409">
        <ele>10.2</ele>
        <time>2024-07-03T14:35:36Z</time>
      </trkpt>
      <trkpt lat="49.17125" lon="-0.16417">
        <ele>10</ele>
        <time>2024-07-03T14:35:37Z</time>
      </trkpt>
      <trkpt lat="49.17129" lon="-0.16426">
        <ele>10</ele>
        <time>2024-07-03T14:35:38Z</time>
      </trkpt>
      <trkpt lat="49.17134" lon="-0.16434">
        <ele>10</ele>
        <time>2024-07-03T14:35:39Z</time>
      </trkpt>
      <trkpt lat="49.17138" lon="-0.16442">
        <ele>10.2</ele>
        <time>2024-07-03T14:35:40Z</time>
      </trkpt>
      <trkpt lat="49.17143" lon="-0.1645">
        <ele>10.4</ele>
        <time>2024-07-03T14:35:41Z</time>
      </trkpt>
      <trkpt lat="49.17147" lon="-0.16458">
        <ele>10.4</ele>
        <time>2024-07-03T14:35:42Z</time>
      </trkpt>
      <trkpt lat="49.17151" lon="-0.16467">
        <ele>10.6</ele>
        <time>2024-07-03T14:35:43Z</time>
      </trkpt>
      <trkpt lat="49.17155" lon="-0.16476">
        <ele>10.8</ele>
        <time>2024-07-03T14:35:44Z</time>
      </trkpt>
      <trkpt lat="49.1716" lon="-0.16485">
        <ele>10.6</ele>
        <time>2024-07-03T14:35:45Z</time>
      </trkpt>
      <trkpt lat="49.17165" lon="-0.16495">
        <ele>10.4</ele>
        <time>2024-07-03T14:35:46Z</time>
      </trkpt>
      <trkpt lat="49.17169" lon="-0.16504">
        <ele>10.2</ele>
        <time>2024-07-03T14:35:47Z</time>
      </trkpt>
      <trkpt lat="49.17174" lon="-0.16514">
        <ele>10</ele>
        <time>2024-07-03T14:35:48Z</time>
      </trkpt>
      <trkpt lat="49.17179" lon="-0.16523">
        <ele>9.6</ele>
        <time>2024-07-03T14:35:49Z</time>
      </trkpt>
      <trkpt lat="49.17184" lon="-0.16533">
        <ele>9</ele>
        <time>2024-07-03T14:35:50Z</time>
      </trkpt>
      <trkpt lat="49.17189" lon="-0.16543">
        <ele>8.6</ele>
        <time>2024-07-03T14:35:51Z</time>
      </trkpt>
      <trkpt lat="49.17193" lon="-0.16552">
        <ele>8.4</ele>
        <time>2024-07-03T14:35:52Z</time>
      </trkpt>
      <trkpt lat="49.17198" lon="-0.16563">
        <ele>8.2</ele>
        <time>2024-07-03T14:35:53Z</time>
      </trkpt>
      <trkpt lat="49.17202" lon="-0.16573">
        <ele>8.2</ele>
        <time>2024-07-03T14:35:54Z</time>
      </trkpt>
      <trkpt lat="49.17207" lon="-0.16583">
        <ele>8.2</ele>
        <time>2024-07-03T14:35:55Z</time>
      </trkpt>
      <trkpt lat="49.17212" lon="-0.16594">
        <ele>8.2</ele>
        <time>2024-07-03T14:35:56Z</time>
      </trkpt>
      <trkpt lat="49.17216" lon="-0.16604">
        <ele>8.2</ele>
        <time>2024-07-03T14:35:57Z</time>
      </trkpt>
      <trkpt lat="49.17221" lon="-0.16615">
        <ele>8.4</ele>
        <time>2024-07-03T14:35:58Z</time>
      </trkpt>
      <trkpt lat="49.17226" lon="-0.16626">
        <ele>8.4</ele>
        <time>2024-07-03T14:35:59Z</time>
      </trkpt>
      <trkpt lat="49.17231" lon="-0.16637">
        <ele>8.4</ele>
        <time>2024-07-03T14:36:00Z</time>
      </trkpt>
      <trkpt lat="49.17236" lon="-0.16648">
        <ele>8</ele>
        <time>2024-07-03T14:36:01Z</time>
      </trkpt>
      <trkpt lat="49.17241" lon="-0.1666">
        <ele>7.6</ele>
        <time>2024-07-03T14:36:02Z</time>
      </trkpt>
      <trkpt lat="49.17246" lon="-0.16671">
        <ele>7.2</ele>
        <time>2024-07-03T14:36:03Z</time>
      </trkpt>
      <trkpt lat="49.17251" lon="-0.16682">
        <ele>6.6</ele>
        <time>2024-07-03T14:36:04Z</time>
      </trkpt>
      <trkpt lat="49.17256" lon="-0.16693">
        <ele>6.2</ele>
        <time>2024-07-03T14:36:05Z</time>
      </trkpt>
      <trkpt lat="49.1726" lon="-0.16704">
        <ele>5.8</ele>
        <time>2024-07-03T14:36:06Z</time>
      </trkpt>
      <trkpt lat="49.17265" lon="-0.16716">
        <ele>5.4</ele>
        <time>2024-07-03T14:36:07Z</time>
      </trkpt>
      <trkpt lat="49.17269" lon="-0.16726">
        <ele>5.4</ele>
        <time>2024-07-03T14:36:08Z</time>
      </trkpt>
      <trkpt lat="49.17273" lon="-0.16737">
        <ele>5.2</ele>
        <time>2024-07-03T14:36:09Z</time>
      </trkpt>
      <trkpt lat="49.17277" lon="-0.16748">
        <ele>5.2</ele>
        <time>2024-07-03T14:36:10Z</time>
      </trkpt>
      <trkpt lat="49.17282" lon="-0.1676">
        <ele>5.2</ele>
        <time>2024-07-03T14:36:11Z</time>
      </trkpt>
      <trkpt lat="49.17286" lon="-0.16771">
        <ele>5.2</ele>
        <time>2024-07-03T14:36:12Z</time>
      </trkpt>
      <trkpt lat="49.1729" lon="-0.16782">
        <ele>5.4</ele>
        <time>2024-07-03T14:36:13Z</time>
      </trkpt>
      <trkpt lat="49.17294" lon="-0.16793">
        <ele>5.4</ele>
        <time>2024-07-03T14:36:14Z</time>
      </trkpt>
      <trkpt lat="49.17297" lon="-0.16804">
        <ele>5.4</ele>
        <time>2024-07-03T14:36:15Z</time>
      </trkpt>
      <trkpt lat="49.173" lon="-0.16816">
        <ele>5.4</ele>
        <time>2024-07-03T14:36:16Z</time>
      </trkpt>
      <trkpt lat="49.17303" lon="-0.16827">
        <ele>5.4</ele>
        <time>2024-07-03T14:36:17Z</time>
      </trkpt>
      <trkpt lat="49.17306" lon="-0.16838">
        <ele>5.6</ele>
        <time>2024-07-03T14:36:18Z</time>
      </trkpt>
      <trkpt lat="49.17309" lon="-0.16849">
        <ele>5.6</ele>
        <time>2024-07-03T14:36:19Z</time>
      </trkpt>
      <trkpt lat="49.17312" lon="-0.1686">
        <ele>5.8</ele>
        <time>2024-07-03T14:36:20Z</time>
      </trkpt>
      <trkpt lat="49.17315" lon="-0.16872">
        <ele>5.8</ele>
        <time>2024-07-03T14:36:21Z</time>
      </trkpt>
      <trkpt lat="49.17318" lon="-0.16883">
        <ele>6</ele>
        <time>2024-07-03T14:36:22Z</time>
      </trkpt>
      <trkpt lat="49.17321" lon="-0.16895">
        <ele>6</ele>
        <time>2024-07-03T14:36:23Z</time>
      </trkpt>
      <trkpt lat="49.17324" lon="-0.16906">
        <ele>6</ele>
        <time>2024-07-03T14:36:24Z</time>
      </trkpt>
      <trkpt lat="49.17327" lon="-0.16918">
        <ele>6</ele>
        <time>2024-07-03T14:36:25Z</time>
      </trkpt>
      <trkpt lat="49.1733" lon="-0.16929">
        <ele>6</ele>
        <time>2024-07-03T14:36:26Z</time>
      </trkpt>
      <trkpt lat="49.17333" lon="-0.16941">
        <ele>6.2</ele>
        <time>2024-07-03T14:36:27Z</time>
      </trkpt>
      <trkpt lat="49.17336" lon="-0.16953">
        <ele>6.4</ele>
        <time>2024-07-03T14:36:28Z</time>
      </trkpt>
      <trkpt lat="49.17339" lon="-0.16965">
        <ele>6.6</ele>
        <time>2024-07-03T14:36:29Z</time>
      </trkpt>
      <trkpt lat="49.17342" lon="-0.16977">
        <ele>6.8</ele>
        <time>2024-07-03T14:36:30Z</time>
      </trkpt>
      <trkpt lat="49.17345" lon="-0.16989">
        <ele>7</ele>
        <time>2024-07-03T14:36:31Z</time>
      </trkpt>
      <trkpt lat="49.17348" lon="-0.17001">
        <ele>7.4</ele>
        <time>2024-07-03T14:36:32Z</time>
      </trkpt>
      <trkpt lat="49.1735" lon="-0.17012">
        <ele>7.8</ele>
        <time>2024-07-03T14:36:33Z</time>
      </trkpt>
      <trkpt lat="49.17353" lon="-0.17023">
        <ele>8</ele>
        <time>2024-07-03T14:36:34Z</time>
      </trkpt>
      <trkpt lat="49.17355" lon="-0.17033">
        <ele>8.4</ele>
        <time>2024-07-03T14:36:35Z</time>
      </trkpt>
      <trkpt lat="49.17357" lon="-0.17044">
        <ele>8.4</ele>
        <time>2024-07-03T14:36:36Z</time>
      </trkpt>
      <trkpt lat="49.17359" lon="-0.17054">
        <ele>8.6</ele>
        <time>2024-07-03T14:36:37Z</time>
      </trkpt>
      <trkpt lat="49.17361" lon="-0.17065">
        <ele>8.8</ele>
        <time>2024-07-03T14:36:38Z</time>
      </trkpt>
      <trkpt lat="49.17363" lon="-0.17076">
        <ele>9</ele>
        <time>2024-07-03T14:36:39Z</time>
      </trkpt>
      <trkpt lat="49.17365" lon="-0.17087">
        <ele>9.4</ele>
        <time>2024-07-03T14:36:40Z</time>
      </trkpt>
      <trkpt lat="49.17366" lon="-0.17097">
        <ele>9.6</ele>
        <time>2024-07-03T14:36:41Z</time>
      </trkpt>
      <trkpt lat="49.17368" lon="-0.17107">
        <ele>10</ele>
        <time>2024-07-03T14:36:42Z</time>
      </trkpt>
      <trkpt lat="49.17369" lon="-0.17118">
        <ele>10.4</ele>
        <time>2024-07-03T14:36:43Z</time>
      </trkpt>
      <trkpt lat="49.17371" lon="-0.17128">
        <ele>10.6</ele>
        <time>2024-07-03T14:36:44Z</time>
      </trkpt>
      <trkpt lat="49.17372" lon="-0.17138">
        <ele>10.8</ele>
        <time>2024-07-03T14:36:45Z</time>
      </trkpt>
      <trkpt lat="49.17374" lon="-0.17149">
        <ele>11.2</ele>
        <time>2024-07-03T14:36:46Z</time>
      </trkpt>
      <trkpt lat="49.17375" lon="-0.1716">
        <ele>11.4</ele>
        <time>2024-07-03T14:36:47Z</time>
      </trkpt>
      <trkpt lat="49.17376" lon="-0.17171">
        <ele>11.8</ele>
        <time>2024-07-03T14:36:48Z</time>
      </trkpt>
      <trkpt lat="49.17377" lon="-0.17182">
        <ele>12</ele>
        <time>2024-07-03T14:36:49Z</time>
      </trkpt>
      <trkpt lat="49.17378" lon="-0.17193">
        <ele>12.2</ele>
        <time>2024-07-03T14:36:50Z</time>
      </trkpt>
      <trkpt lat="49.17379" lon="-0.17204">
        <ele>12.4</ele>
        <time>2024-07-03T14:36:51Z</time>
      </trkpt>
      <trkpt lat="49.1738" lon="-0.17215">
        <ele>12.4</ele>
        <time>2024-07-03T14:36:52Z</time>
      </trkpt>
      <trkpt lat="49.17381" lon="-0.17226">
        <ele>12.6</ele>
        <time>2024-07-03T14:36:53Z</time>
      </trkpt>
      <trkpt lat="49.17382" lon="-0.17237">
        <ele>12.6</ele>
        <time>2024-07-03T14:36:54Z</time>
      </trkpt>
      <trkpt lat="49.17383" lon="-0.17248">
        <ele>12.8</ele>
        <time>2024-07-03T14:36:55Z</time>
      </trkpt>
      <trkpt lat="49.17384" lon="-0.17259">
        <ele>12.8</ele>
        <time>2024-07-03T14:36:56Z</time>
      </trkpt>
      <trkpt lat="49.17385" lon="-0.17269">
        <ele>12.8</ele>
        <time>2024-07-03T14:36:57Z</time>
      </trkpt>
      <trkpt lat="49.17386" lon="-0.1728">
        <ele>12.6</ele>
        <time>2024-07-03T14:36:58Z</time>
      </trkpt>
      <trkpt lat="49.17387" lon="-0.17292">
        <ele>12.4</ele>
        <time>2024-07-03T14:36:59Z</time>
      </trkpt>
      <trkpt lat="49.17389" lon="-0.17304">
        <ele>12.4</ele>
        <time>2024-07-03T14:37:00Z</time>
      </trkpt>
      <trkpt lat="49.1739" lon="-0.17316">
        <ele>12.2</ele>
        <time>2024-07-03T14:37:01Z</time>
      </trkpt>
      <trkpt lat="49.17391" lon="-0.17328">
        <ele>12</ele>
        <time>2024-07-03T14:37:02Z</time>
      </trkpt>
      <trkpt lat="49.17393" lon="-0.1734">
        <ele>11.8</ele>
        <time>2024-07-03T14:37:03Z</time>
      </trkpt>
      <trkpt lat="49.17394" lon="-0.17352">
        <ele>11.4</ele>
        <time>2024-07-03T14:37:04Z</time>
      </trkpt>
      <trkpt lat="49.17396" lon="-0.17365">
        <ele>11</ele>
        <time>2024-07-03T14:37:05Z</time>
      </trkpt>
      <trkpt lat="49.17398" lon="-0.17377">
        <ele>10.8</ele>
        <time>2024-07-03T14:37:06Z</time>
      </trkpt>
      <trkpt lat="49.174" lon="-0.17389">
        <ele>10.8</ele>
        <time>2024-07-03T14:37:07Z</time>
      </trkpt>
      <trkpt lat="49.17403" lon="-0.17402">
        <ele>10.6</ele>
        <time>2024-07-03T14:37:08Z</time>
      </trkpt>
      <trkpt lat="49.17407" lon="-0.17413">
        <ele>10.6</ele>
        <time>2024-07-03T14:37:09Z</time>
      </trkpt>
      <trkpt lat="49.1741" lon="-0.17424">
        <ele>10.6</ele>
        <time>2024-07-03T14:37:10Z</time>
      </trkpt>
      <trkpt lat="49.17415" lon="-0.17435">
        <ele>10.4</ele>
        <time>2024-07-03T14:37:11Z</time>
      </trkpt>
      <trkpt lat="49.1742" lon="-0.17444">
        <ele>10.4</ele>
        <time>2024-07-03T14:37:12Z</time>
      </trkpt>
      <trkpt lat="49.17425" lon="-0.17453">
        <ele>10.2</ele>
        <time>2024-07-03T14:37:13Z</time>
      </trkpt>
      <trkpt lat="49.1743" lon="-0.17462">
        <ele>10</ele>
        <time>2024-07-03T14:37:14Z</time>
      </trkpt>
      <trkpt lat="49.17435" lon="-0.1747">
        <ele>10</ele>
        <time>2024-07-03T14:37:15Z</time>
      </trkpt>
      <trkpt lat="49.1744" lon="-0.17479">
        <ele>10</ele>
        <time>2024-07-03T14:37:16Z</time>
      </trkpt>
      <trkpt lat="49.17445" lon="-0.17488">
        <ele>10.2</ele>
        <time>2024-07-03T14:37:17Z</time>
      </trkpt>
      <trkpt lat="49.1745" lon="-0.17496">
        <ele>10.4</ele>
        <time>2024-07-03T14:37:18Z</time>
      </trkpt>
      <trkpt lat="49.17455" lon="-0.17504">
        <ele>10.6</ele>
        <time>2024-07-03T14:37:19Z</time>
      </trkpt>
      <trkpt lat="49.1746" lon="-0.17513">
        <ele>10.8</ele>
        <time>2024-07-03T14:37:20Z</time>
      </trkpt>
      <trkpt lat="49.17465" lon="-0.17521">
        <ele>11</ele>
        <time>2024-07-03T14:37:21Z</time>
      </trkpt>
      <trkpt lat="49.1747" lon="-0.17529">
        <ele>11</ele>
        <time>2024-07-03T14:37:22Z</time>
      </trkpt>
      <trkpt lat="49.17475" lon="-0.17536">
        <ele>11.2</ele>
        <time>2024-07-03T14:37:23Z</time>
      </trkpt>
      <trkpt lat="49.1748" lon="-0.17544">
        <ele>11.2</ele>
        <time>2024-07-03T14:37:24Z</time>
      </trkpt>
      <trkpt lat="49.17484" lon="-0.17551">
        <ele>11.4</ele>
        <time>2024-07-03T14:37:25Z</time>
      </trkpt>
      <trkpt lat="49.17488" lon="-0.17559">
        <ele>11.6</ele>
        <time>2024-07-03T14:37:26Z</time>
      </trkpt>
      <trkpt lat="49.17493" lon="-0.17567">
        <ele>11.6</ele>
        <time>2024-07-03T14:37:27Z</time>
      </trkpt>
      <trkpt lat="49.17498" lon="-0.17574">
        <ele>11.4</ele>
        <time>2024-07-03T14:37:28Z</time>
      </trkpt>
      <trkpt lat="49.17503" lon="-0.17581">
        <ele>11.4</ele>
        <time>2024-07-03T14:37:29Z</time>
      </trkpt>
      <trkpt lat="49.17508" lon="-0.17589">
        <ele>11.2</ele>
        <time>2024-07-03T14:37:30Z</time>
      </trkpt>
      <trkpt lat="49.17513" lon="-0.17596">
        <ele>11.2</ele>
        <time>2024-07-03T14:37:31Z</time>
      </trkpt>
      <trkpt lat="49.17517" lon="-0.17604">
        <ele>11</ele>
        <time>2024-07-03T14:37:32Z</time>
      </trkpt>
      <trkpt lat="49.17522" lon="-0.17611">
        <ele>11</ele>
        <time>2024-07-03T14:37:33Z</time>
      </trkpt>
      <trkpt lat="49.17527" lon="-0.17619">
        <ele>11.2</ele>
        <time>2024-07-03T14:37:34Z</time>
      </trkpt>
      <trkpt lat="49.17532" lon="-0.17626">
        <ele>11.4</ele>
        <time>2024-07-03T14:37:35Z</time>
      </trkpt>
      <trkpt lat="49.17537" lon="-0.17633">
        <ele>11.6</ele>
        <time>2024-07-03T14:37:36Z</time>
      </trkpt>
      <trkpt lat="49.17541" lon="-0.1764">
        <ele>11.8</ele>
        <time>2024-07-03T14:37:37Z</time>
      </trkpt>
      <trkpt lat="49.17546" lon="-0.17647">
        <ele>12.4</ele>
        <time>2024-07-03T14:37:38Z</time>
      </trkpt>
      <trkpt lat="49.17551" lon="-0.17654">
        <ele>12.8</ele>
        <time>2024-07-03T14:37:39Z</time>
      </trkpt>
      <trkpt lat="49.17556" lon="-0.17661">
        <ele>13.2</ele>
        <time>2024-07-03T14:37:40Z</time>
      </trkpt>
      <trkpt lat="49.17561" lon="-0.17668">
        <ele>13.4</ele>
        <time>2024-07-03T14:37:41Z</time>
      </trkpt>
      <trkpt lat="49.17566" lon="-0.17675">
        <ele>13.8</ele>
        <time>2024-07-03T14:37:42Z</time>
      </trkpt>
      <trkpt lat="49.17571" lon="-0.17682">
        <ele>14.2</ele>
        <time>2024-07-03T14:37:43Z</time>
      </trkpt>
      <trkpt lat="49.17576" lon="-0.17688">
        <ele>14.6</ele>
        <time>2024-07-03T14:37:44Z</time>
      </trkpt>
      <trkpt lat="49.17581" lon="-0.17695">
        <ele>15</ele>
        <time>2024-07-03T14:37:45Z</time>
      </trkpt>
      <trkpt lat="49.17586" lon="-0.17702">
        <ele>15.2</ele>
        <time>2024-07-03T14:37:46Z</time>
      </trkpt>
      <trkpt lat="49.17592" lon="-0.17709">
        <ele>15.4</ele>
        <time>2024-07-03T14:37:47Z</time>
      </trkpt>
      <trkpt lat="49.17596" lon="-0.17716">
        <ele>15.4</ele>
        <time>2024-07-03T14:37:48Z</time>
      </trkpt>
      <trkpt lat="49.17602" lon="-0.17723">
        <ele>15.6</ele>
        <time>2024-07-03T14:37:49Z</time>
      </trkpt>
      <trkpt lat="49.17608" lon="-0.1773">
        <ele>15.6</ele>
        <time>2024-07-03T14:37:50Z</time>
      </trkpt>
      <trkpt lat="49.17614" lon="-0.17737">
        <ele>15.8</ele>
        <time>2024-07-03T14:37:51Z</time>
      </trkpt>
      <trkpt lat="49.17621" lon="-0.17743">
        <ele>15.8</ele>
        <time>2024-07-03T14:37:52Z</time>
      </trkpt>
      <trkpt lat="49.17627" lon="-0.1775">
        <ele>16</ele>
        <time>2024-07-03T14:37:53Z</time>
      </trkpt>
      <trkpt lat="49.17633" lon="-0.17756">
        <ele>16</ele>
        <time>2024-07-03T14:37:54Z</time>
      </trkpt>
      <trkpt lat="49.17638" lon="-0.17762">
        <ele>16.4</ele>
        <time>2024-07-03T14:37:55Z</time>
      </trkpt>
      <trkpt lat="49.17644" lon="-0.17767">
        <ele>16.8</ele>
        <time>2024-07-03T14:37:56Z</time>
      </trkpt>
      <trkpt lat="49.1765" lon="-0.17772">
        <ele>17</ele>
        <time>2024-07-03T14:37:57Z</time>
      </trkpt>
      <trkpt lat="49.17656" lon="-0.17778">
        <ele>17.2</ele>
        <time>2024-07-03T14:37:58Z</time>
      </trkpt>
      <trkpt lat="49.17662" lon="-0.17784">
        <ele>17.2</ele>
        <time>2024-07-03T14:37:59Z</time>
      </trkpt>
      <trkpt lat="49.17668" lon="-0.1779">
        <ele>17.2</ele>
        <time>2024-07-03T14:38:00Z</time>
      </trkpt>
      <trkpt lat="49.17675" lon="-0.17796">
        <ele>17.2</ele>
        <time>2024-07-03T14:38:01Z</time>
      </trkpt>
      <trkpt lat="49.1768" lon="-0.17802">
        <ele>17.2</ele>
        <time>2024-07-03T14:38:02Z</time>
      </trkpt>
      <trkpt lat="49.17686" lon="-0.17809">
        <ele>17</ele>
        <time>2024-07-03T14:38:03Z</time>
      </trkpt>
      <trkpt lat="49.17692" lon="-0.17816">
        <ele>16.6</ele>
        <time>2024-07-03T14:38:04Z</time>
      </trkpt>
      <trkpt lat="49.17698" lon="-0.17823">
        <ele>16.4</ele>
        <time>2024-07-03T14:38:05Z</time>
      </trkpt>
      <trkpt lat="49.17704" lon="-0.1783">
        <ele>16.2</ele>
        <time>2024-07-03T14:38:06Z</time>
      </trkpt>
      <trkpt lat="49.1771" lon="-0.17838">
        <ele>16</ele>
        <time>2024-07-03T14:38:07Z</time>
      </trkpt>
      <trkpt lat="49.17716" lon="-0.17847">
        <ele>15.6</ele>
        <time>2024-07-03T14:38:08Z</time>
      </trkpt>
      <trkpt lat="49.17722" lon="-0.17856">
        <ele>15.4</ele>
        <time>2024-07-03T14:38:09Z</time>
      </trkpt>
      <trkpt lat="49.17729" lon="-0.17865">
        <ele>15.2</ele>
        <time>2024-07-03T14:38:10Z</time>
      </trkpt>
      <trkpt lat="49.17735" lon="-0.17873">
        <ele>15</ele>
        <time>2024-07-03T14:38:11Z</time>
      </trkpt>
      <trkpt lat="49.17741" lon="-0.17881">
        <ele>14.4</ele>
        <time>2024-07-03T14:38:12Z</time>
      </trkpt>
      <trkpt lat="49.17748" lon="-0.17889">
        <ele>13.6</ele>
        <time>2024-07-03T14:38:13Z</time>
      </trkpt>
      <trkpt lat="49.17754" lon="-0.17897">
        <ele>12.8</ele>
        <time>2024-07-03T14:38:14Z</time>
      </trkpt>
      <trkpt lat="49.1776" lon="-0.17905">
        <ele>12.4</ele>
        <time>2024-07-03T14:38:15Z</time>
      </trkpt>
      <trkpt lat="49.17766" lon="-0.17914">
        <ele>12</ele>
        <time>2024-07-03T14:38:16Z</time>
      </trkpt>
      <trkpt lat="49.17773" lon="-0.17923">
        <ele>11.8</ele>
        <time>2024-07-03T14:38:17Z</time>
      </trkpt>
      <trkpt lat="49.17779" lon="-0.17931">
        <ele>11.6</ele>
        <time>2024-07-03T14:38:18Z</time>
      </trkpt>
      <trkpt lat="49.17785" lon="-0.17939">
        <ele>11.6</ele>
        <time>2024-07-03T14:38:19Z</time>
      </trkpt>
      <trkpt lat="49.17791" lon="-0.17947">
        <ele>11.8</ele>
        <time>2024-07-03T14:38:20Z</time>
      </trkpt>
      <trkpt lat="49.17797" lon="-0.17955">
        <ele>12</ele>
        <time>2024-07-03T14:38:21Z</time>
      </trkpt>
      <trkpt lat="49.17803" lon="-0.17963">
        <ele>12.4</ele>
        <time>2024-07-03T14:38:22Z</time>
      </trkpt>
      <trkpt lat="49.1781" lon="-0.17971">
        <ele>12.6</ele>
        <time>2024-07-03T14:38:23Z</time>
      </trkpt>
      <trkpt lat="49.17816" lon="-0.17979">
        <ele>13</ele>
        <time>2024-07-03T14:38:24Z</time>
      </trkpt>
      <trkpt lat="49.17823" lon="-0.17987">
        <ele>13.2</ele>
        <time>2024-07-03T14:38:25Z</time>
      </trkpt>
      <trkpt lat="49.17829" lon="-0.17995">
        <ele>13.4</ele>
        <time>2024-07-03T14:38:26Z</time>
      </trkpt>
      <trkpt lat="49.17835" lon="-0.18003">
        <ele>14</ele>
        <time>2024-07-03T14:38:27Z</time>
      </trkpt>
      <trkpt lat="49.17841" lon="-0.18011">
        <ele>14.4</ele>
        <time>2024-07-03T14:38:28Z</time>
      </trkpt>
      <trkpt lat="49.17847" lon="-0.18019">
        <ele>14.8</ele>
        <time>2024-07-03T14:38:29Z</time>
      </trkpt>
      <trkpt lat="49.17853" lon="-0.18026">
        <ele>15</ele>
        <time>2024-07-03T14:38:30Z</time>
      </trkpt>
      <trkpt lat="49.1786" lon="-0.18034">
        <ele>15.2</ele>
        <time>2024-07-03T14:38:31Z</time>
      </trkpt>
      <trkpt lat="49.17865" lon="-0.18041">
        <ele>15.4</ele>
        <time>2024-07-03T14:38:32Z</time>
      </trkpt>
      <trkpt lat="49.17871" lon="-0.18048">
        <ele>15.6</ele>
        <time>2024-07-03T14:38:33Z</time>
      </trkpt>
      <trkpt lat="49.17876" lon="-0.18055">
        <ele>15.8</ele>
        <time>2024-07-03T14:38:34Z</time>
      </trkpt>
      <trkpt lat="49.17881" lon="-0.18062">
        <ele>15.8</ele>
        <time>2024-07-03T14:38:35Z</time>
      </trkpt>
      <trkpt lat="49.17887" lon="-0.18067">
        <ele>16</ele>
        <time>2024-07-03T14:38:36Z</time>
      </trkpt>
      <trkpt lat="49.17892" lon="-0.18073">
        <ele>16.2</ele>
        <time>2024-07-03T14:38:37Z</time>
      </trkpt>
      <trkpt lat="49.17897" lon="-0.18078">
        <ele>16.4</ele>
        <time>2024-07-03T14:38:38Z</time>
      </trkpt>
      <trkpt lat="49.17903" lon="-0.18082">
        <ele>16.6</ele>
        <time>2024-07-03T14:38:39Z</time>
      </trkpt>
      <trkpt lat="49.17908" lon="-0.18087">
        <ele>17</ele>
        <time>2024-07-03T14:38:40Z</time>
      </trkpt>
      <trkpt lat="49.17914" lon="-0.18091">
        <ele>17.2</ele>
        <time>2024-07-03T14:38:41Z</time>
      </trkpt>
      <trkpt lat="49.1792" lon="-0.18094">
        <ele>17.4</ele>
        <time>2024-07-03T14:38:42Z</time>
      </trkpt>
      <trkpt lat="49.17926" lon="-0.18097">
        <ele>17.6</ele>
        <time>2024-07-03T14:38:43Z</time>
      </trkpt>
      <trkpt lat="49.17932" lon="-0.18099">
        <ele>17.8</ele>
        <time>2024-07-03T14:38:44Z</time>
      </trkpt>
      <trkpt lat="49.17938" lon="-0.18101">
        <ele>18</ele>
        <time>2024-07-03T14:38:45Z</time>
      </trkpt>
      <trkpt lat="49.17944" lon="-0.18103">
        <ele>18.4</ele>
        <time>2024-07-03T14:38:46Z</time>
      </trkpt>
      <trkpt lat="49.1795" lon="-0.18105">
        <ele>19</ele>
        <time>2024-07-03T14:38:47Z</time>
      </trkpt>
      <trkpt lat="49.17955" lon="-0.18108">
        <ele>19.4</ele>
        <time>2024-07-03T14:38:48Z</time>
      </trkpt>
      <trkpt lat="49.17961" lon="-0.1811">
        <ele>20</ele>
        <time>2024-07-03T14:38:49Z</time>
      </trkpt>
      <trkpt lat="49.17966" lon="-0.18111">
        <ele>20.4</ele>
        <time>2024-07-03T14:38:50Z</time>
      </trkpt>
      <trkpt lat="49.17972" lon="-0.18113">
        <ele>20.8</ele>
        <time>2024-07-03T14:38:51Z</time>
      </trkpt>
      <trkpt lat="49.17978" lon="-0.18115">
        <ele>21.2</ele>
        <time>2024-07-03T14:38:52Z</time>
      </trkpt>
      <trkpt lat="49.17984" lon="-0.18116">
        <ele>21.8</ele>
        <time>2024-07-03T14:38:53Z</time>
      </trkpt>
      <trkpt lat="49.1799" lon="-0.18118">
        <ele>22.2</ele>
        <time>2024-07-03T14:38:54Z</time>
      </trkpt>
      <trkpt lat="49.17996" lon="-0.1812">
        <ele>22.4</ele>
        <time>2024-07-03T14:38:55Z</time>
      </trkpt>
      <trkpt lat="49.18002" lon="-0.18121">
        <ele>22.8</ele>
        <time>2024-07-03T14:38:56Z</time>
      </trkpt>
      <trkpt lat="49.18009" lon="-0.18121">
        <ele>23</ele>
        <time>2024-07-03T14:38:57Z</time>
      </trkpt>
      <trkpt lat="49.18015" lon="-0.18121">
        <ele>23.2</ele>
        <time>2024-07-03T14:38:58Z</time>
      </trkpt>
      <trkpt lat="49.18022" lon="-0.18122">
        <ele>23.4</ele>
        <time>2024-07-03T14:38:59Z</time>
      </trkpt>
      <trkpt lat="49.18028" lon="-0.18123">
        <ele>23.6</ele>
        <time>2024-07-03T14:39:00Z</time>
      </trkpt>
      <trkpt lat="49.18035" lon="-0.18124">
        <ele>23.6</ele>
        <time>2024-07-03T14:39:01Z</time>
      </trkpt>
      <trkpt lat="49.18041" lon="-0.18124">
        <ele>23.8</ele>
        <time>2024-07-03T14:39:02Z</time>
      </trkpt>
      <trkpt lat="49.18048" lon="-0.18123">
        <ele>24.2</ele>
        <time>2024-07-03T14:39:03Z</time>
      </trkpt>
      <trkpt lat="49.18054" lon="-0.18123">
        <ele>24.8</ele>
        <time>2024-07-03T14:39:04Z</time>
      </trkpt>
      <trkpt lat="49.18061" lon="-0.18121">
        <ele>25.6</ele>
        <time>2024-07-03T14:39:05Z</time>
      </trkpt>
      <trkpt lat="49.18067" lon="-0.1812">
        <ele>26.2</ele>
        <time>2024-07-03T14:39:06Z</time>
      </trkpt>
      <trkpt lat="49.18074" lon="-0.1812">
        <ele>26.8</ele>
        <time>2024-07-03T14:39:07Z</time>
      </trkpt>
      <trkpt lat="49.18081" lon="-0.1812">
        <ele>27.2</ele>
        <time>2024-07-03T14:39:08Z</time>
      </trkpt>
      <trkpt lat="49.18088" lon="-0.1812">
        <ele>27.6</ele>
        <time>2024-07-03T14:39:09Z</time>
      </trkpt>
      <trkpt lat="49.18095" lon="-0.1812">
        <ele>28</ele>
        <time>2024-07-03T14:39:10Z</time>
      </trkpt>
      <trkpt lat="49.18102" lon="-0.18121">
        <ele>28.4</ele>
        <time>2024-07-03T14:39:11Z</time>
      </trkpt>
      <trkpt lat="49.18109" lon="-0.18121">
        <ele>28.8</ele>
        <time>2024-07-03T14:39:12Z</time>
      </trkpt>
      <trkpt lat="49.18116" lon="-0.18121">
        <ele>29.2</ele>
        <time>2024-07-03T14:39:13Z</time>
      </trkpt>
      <trkpt lat="49.18123" lon="-0.18121">
        <ele>29.6</ele>
        <time>2024-07-03T14:39:14Z</time>
      </trkpt>
      <trkpt lat="49.18131" lon="-0.18121">
        <ele>30.4</ele>
        <time>2024-07-03T14:39:15Z</time>
      </trkpt>
      <trkpt lat="49.18138" lon="-0.18121">
        <ele>31</ele>
        <time>2024-07-03T14:39:16Z</time>
      </trkpt>
      <trkpt lat="49.18145" lon="-0.1812">
        <ele>31.2</ele>
        <time>2024-07-03T14:39:17Z</time>
      </trkpt>
      <trkpt lat="49.18151" lon="-0.18121">
        <ele>31.4</ele>
        <time>2024-07-03T14:39:18Z</time>
      </trkpt>
      <trkpt lat="49.18158" lon="-0.18121">
        <ele>31.2</ele>
        <time>2024-07-03T14:39:19Z</time>
      </trkpt>
      <trkpt lat="49.18165" lon="-0.18123">
        <ele>31</ele>
        <time>2024-07-03T14:39:20Z</time>
      </trkpt>
      <trkpt lat="49.18172" lon="-0.18124">
        <ele>31</ele>
        <time>2024-07-03T14:39:21Z</time>
      </trkpt>
      <trkpt lat="49.18179" lon="-0.18126">
        <ele>30.8</ele>
        <time>2024-07-03T14:39:22Z</time>
      </trkpt>
      <trkpt lat="49.18187" lon="-0.18127">
        <ele>31</ele>
        <time>2024-07-03T14:39:23Z</time>
      </trkpt>
      <trkpt lat="49.18195" lon="-0.18129">
        <ele>31.6</ele>
        <time>2024-07-03T14:39:24Z</time>
      </trkpt>
      <trkpt lat="49.18202" lon="-0.18132">
        <ele>32.2</ele>
        <time>2024-07-03T14:39:25Z</time>
      </trkpt>
      <trkpt lat="49.18209" lon="-0.18133">
        <ele>32.4</ele>
        <time>2024-07-03T14:39:26Z</time>
      </trkpt>
      <trkpt lat="49.18215" lon="-0.18134">
        <ele>32.8</ele>
        <time>2024-07-03T14:39:27Z</time>
      </trkpt>
      <trkpt lat="49.1822" lon="-0.18135">
        <ele>33.2</ele>
        <time>2024-07-03T14:39:28Z</time>
      </trkpt>
      <trkpt lat="49.18225" lon="-0.18135">
        <ele>33.4</ele>
        <time>2024-07-03T14:39:29Z</time>
      </trkpt>
      <trkpt lat="49.18229" lon="-0.18136">
        <ele>33.6</ele>
        <time>2024-07-03T14:39:30Z</time>
      </trkpt>
      <trkpt lat="49.18233" lon="-0.18137">
        <ele>33.8</ele>
        <time>2024-07-03T14:39:31Z</time>
      </trkpt>
      <trkpt lat="49.18235" lon="-0.18137">
        <ele>34</ele>
        <time>2024-07-03T14:39:32Z</time>
      </trkpt>
      <trkpt lat="49.18237" lon="-0.18137">
        <ele>34.2</ele>
        <time>2024-07-03T14:39:33Z</time>
      </trkpt>
      <trkpt lat="49.18238" lon="-0.18137">
        <ele>34.4</ele>
        <time>2024-07-03T14:39:34Z</time>
      </trkpt>
      <trkpt lat="49.18239" lon="-0.18137">
        <ele>34.4</ele>
        <time>2024-07-03T14:39:35Z</time>
      </trkpt>
      <trkpt lat="49.18239" lon="-0.18137">
        <ele>34.6</ele>
        <time>2024-07-03T14:39:36Z</time>
      </trkpt>
      <trkpt lat="49.18248" lon="-0.1814">
        <ele>33.8</ele>
        <time>2024-07-03T14:39:51Z</time>
      </trkpt>
      <trkpt lat="49.18251" lon="-0.18141">
        <ele>33.8</ele>
        <time>2024-07-03T14:39:52Z</time>
      </trkpt>
      <trkpt lat="49.18253" lon="-0.18141">
        <ele>33.8</ele>
        <time>2024-07-03T14:39:53Z</time>
      </trkpt>
      <trkpt lat="49.18256" lon="-0.18142">
        <ele>33.8</ele>
        <time>2024-07-03T14:39:54Z</time>
      </trkpt>
      <trkpt lat="49.18258" lon="-0.18142">
        <ele>34</ele>
        <time>2024-07-03T14:39:55Z</time>
      </trkpt>
      <trkpt lat="49.18262" lon="-0.18143">
        <ele>34</ele>
        <time>2024-07-03T14:39:56Z</time>
      </trkpt>
      <trkpt lat="49.18265" lon="-0.18144">
        <ele>33.8</ele>
        <time>2024-07-03T14:39:57Z</time>
      </trkpt>
      <trkpt lat="49.18269" lon="-0.18145">
        <ele>33.8</ele>
        <time>2024-07-03T14:39:58Z</time>
      </trkpt>
      <trkpt lat="49.18272" lon="-0.18146">
        <ele>33.6</ele>
        <time>2024-07-03T14:39:59Z</time>
      </trkpt>
      <trkpt lat="49.18277" lon="-0.18147">
        <ele>33.4</ele>
        <time>2024-07-03T14:40:00Z</time>
      </trkpt>
      <trkpt lat="49.18282" lon="-0.18149">
        <ele>33.2</ele>
        <time>2024-07-03T14:40:01Z</time>
      </trkpt>
      <trkpt lat="49.18286" lon="-0.1815">
        <ele>32.6</ele>
        <time>2024-07-03T14:40:02Z</time>
      </trkpt>
      <trkpt lat="49.1829" lon="-0.18152">
        <ele>32.2</ele>
        <time>2024-07-03T14:40:03Z</time>
      </trkpt>
      <trkpt lat="49.18295" lon="-0.18153">
        <ele>31.8</ele>
        <time>2024-07-03T14:40:04Z</time>
      </trkpt>
      <trkpt lat="49.18299" lon="-0.18153">
        <ele>31.4</ele>
        <time>2024-07-03T14:40:05Z</time>
      </trkpt>
      <trkpt lat="49.18303" lon="-0.18154">
        <ele>31.2</ele>
        <time>2024-07-03T14:40:06Z</time>
      </trkpt>
      <trkpt lat="49.18307" lon="-0.18156">
        <ele>31</ele>
        <time>2024-07-03T14:40:07Z</time>
      </trkpt>
      <trkpt lat="49.18312" lon="-0.18157">
        <ele>30.8</ele>
        <time>2024-07-03T14:40:08Z</time>
      </trkpt>
      <trkpt lat="49.18316" lon="-0.1816">
        <ele>30.8</ele>
        <time>2024-07-03T14:40:09Z</time>
      </trkpt>
      <trkpt lat="49.18321" lon="-0.18161">
        <ele>30.6</ele>
        <time>2024-07-03T14:40:10Z</time>
      </trkpt>
      <trkpt lat="49.18326" lon="-0.18162">
        <ele>30.6</ele>
        <time>2024-07-03T14:40:11Z</time>
      </trkpt>
      <trkpt lat="49.18331" lon="-0.18163">
        <ele>30.4</ele>
        <time>2024-07-03T14:40:12Z</time>
      </trkpt>
      <trkpt lat="49.18337" lon="-0.18165">
        <ele>30</ele>
        <time>2024-07-03T14:40:13Z</time>
      </trkpt>
      <trkpt lat="49.18342" lon="-0.18166">
        <ele>29.6</ele>
        <time>2024-07-03T14:40:14Z</time>
      </trkpt>
      <trkpt lat="49.18348" lon="-0.18168">
        <ele>29</ele>
        <time>2024-07-03T14:40:15Z</time>
      </trkpt>
      <trkpt lat="49.18355" lon="-0.1817">
        <ele>28</ele>
        <time>2024-07-03T14:40:16Z</time>
      </trkpt>
      <trkpt lat="49.18362" lon="-0.18171">
        <ele>27.4</ele>
        <time>2024-07-03T14:40:17Z</time>
      </trkpt>
      <trkpt lat="49.18369" lon="-0.18172">
        <ele>26.6</ele>
        <time>2024-07-03T14:40:18Z</time>
      </trkpt>
      <trkpt lat="49.18376" lon="-0.18173">
        <ele>25.8</ele>
        <time>2024-07-03T14:40:19Z</time>
      </trkpt>
      <trkpt lat="49.18384" lon="-0.18175">
        <ele>25.2</ele>
        <time>2024-07-03T14:40:20Z</time>
      </trkpt>
      <trkpt lat="49.18392" lon="-0.18177">
        <ele>24.6</ele>
        <time>2024-07-03T14:40:21Z</time>
      </trkpt>
      <trkpt lat="49.184" lon="-0.18179">
        <ele>23.6</ele>
        <time>2024-07-03T14:40:22Z</time>
      </trkpt>
      <trkpt lat="49.18409" lon="-0.18181">
        <ele>22.6</ele>
        <time>2024-07-03T14:40:23Z</time>
      </trkpt>
      <trkpt lat="49.18417" lon="-0.18184">
        <ele>21.6</ele>
        <time>2024-07-03T14:40:24Z</time>
      </trkpt>
      <trkpt lat="49.18427" lon="-0.18186">
        <ele>21</ele>
        <time>2024-07-03T14:40:25Z</time>
      </trkpt>
      <trkpt lat="49.18436" lon="-0.18188">
        <ele>20.4</ele>
        <time>2024-07-03T14:40:26Z</time>
      </trkpt>
      <trkpt lat="49.18446" lon="-0.18191">
        <ele>19.8</ele>
        <time>2024-07-03T14:40:27Z</time>
      </trkpt>
      <trkpt lat="49.18456" lon="-0.18192">
        <ele>19.2</ele>
        <time>2024-07-03T14:40:28Z</time>
      </trkpt>
      <trkpt lat="49.18467" lon="-0.18193">
        <ele>18.4</ele>
        <time>2024-07-03T14:40:29Z</time>
      </trkpt>
      <trkpt lat="49.18477" lon="-0.18192">
        <ele>17.8</ele>
        <time>2024-07-03T14:40:30Z</time>
      </trkpt>
      <trkpt lat="49.18487" lon="-0.1819">
        <ele>17</ele>
        <time>2024-07-03T14:40:31Z</time>
      </trkpt>
      <trkpt lat="49.18498" lon="-0.18186">
        <ele>16</ele>
        <time>2024-07-03T14:40:32Z</time>
      </trkpt>
      <trkpt lat="49.18509" lon="-0.18179">
        <ele>15</ele>
        <time>2024-07-03T14:40:33Z</time>
      </trkpt>
      <trkpt lat="49.18519" lon="-0.18171">
        <ele>14</ele>
        <time>2024-07-03T14:40:34Z</time>
      </trkpt>
      <trkpt lat="49.18528" lon="-0.18161">
        <ele>13.4</ele>
        <time>2024-07-03T14:40:35Z</time>
      </trkpt>
      <trkpt lat="49.18537" lon="-0.1815">
        <ele>12.6</ele>
        <time>2024-07-03T14:40:36Z</time>
      </trkpt>
      <trkpt lat="49.18544" lon="-0.18138">
        <ele>11.6</ele>
        <time>2024-07-03T14:40:37Z</time>
      </trkpt>
      <trkpt lat="49.18551" lon="-0.18126">
        <ele>10.8</ele>
        <time>2024-07-03T14:40:38Z</time>
      </trkpt>
      <trkpt lat="49.18558" lon="-0.18114">
        <ele>10.2</ele>
        <time>2024-07-03T14:40:39Z</time>
      </trkpt>
      <trkpt lat="49.18565" lon="-0.18101">
        <ele>9.4</ele>
        <time>2024-07-03T14:40:40Z</time>
      </trkpt>
      <trkpt lat="49.18572" lon="-0.18088">
        <ele>9</ele>
        <time>2024-07-03T14:40:41Z</time>
      </trkpt>
      <trkpt lat="49.18578" lon="-0.18074">
        <ele>8.6</ele>
        <time>2024-07-03T14:40:42Z</time>
      </trkpt>
      <trkpt lat="49.18585" lon="-0.1806">
        <ele>8.4</ele>
        <time>2024-07-03T14:40:43Z</time>
      </trkpt>
      <trkpt lat="49.18591" lon="-0.18047">
        <ele>7.8</ele>
        <time>2024-07-03T14:40:44Z</time>
      </trkpt>
      <trkpt lat="49.18596" lon="-0.18034">
        <ele>7.4</ele>
        <time>2024-07-03T14:40:45Z</time>
      </trkpt>
      <trkpt lat="49.18602" lon="-0.1802">
        <ele>6.8</ele>
        <time>2024-07-03T14:40:46Z</time>
      </trkpt>
      <trkpt lat="49.18607" lon="-0.18006">
        <ele>6.2</ele>
        <time>2024-07-03T14:40:47Z</time>
      </trkpt>
      <trkpt lat="49.18613" lon="-0.17993">
        <ele>5.8</ele>
        <time>2024-07-03T14:40:48Z</time>
      </trkpt>
      <trkpt lat="49.18619" lon="-0.17979">
        <ele>5.4</ele>
        <time>2024-07-03T14:40:49Z</time>
      </trkpt>
      <trkpt lat="49.18624" lon="-0.17966">
        <ele>5</ele>
        <time>2024-07-03T14:40:50Z</time>
      </trkpt>
      <trkpt lat="49.1863" lon="-0.17953">
        <ele>4.8</ele>
        <time>2024-07-03T14:40:51Z</time>
      </trkpt>
      <trkpt lat="49.18636" lon="-0.17942">
        <ele>4.6</ele>
        <time>2024-07-03T14:40:52Z</time>
      </trkpt>
      <trkpt lat="49.18642" lon="-0.17931">
        <ele>4.2</ele>
        <time>2024-07-03T14:40:53Z</time>
      </trkpt>
      <trkpt lat="49.18648" lon="-0.1792">
        <ele>4</ele>
        <time>2024-07-03T14:40:54Z</time>
      </trkpt>
      <trkpt lat="49.18655" lon="-0.17911">
        <ele>3.8</ele>
        <time>2024-07-03T14:40:55Z</time>
      </trkpt>
      <trkpt lat="49.18662" lon="-0.17904">
        <ele>3.8</ele>
        <time>2024-07-03T14:40:56Z</time>
      </trkpt>
      <trkpt lat="49.18669" lon="-0.17897">
        <ele>3.8</ele>
        <time>2024-07-03T14:40:57Z</time>
      </trkpt>
      <trkpt lat="49.18677" lon="-0.17891">
        <ele>3.6</ele>
        <time>2024-07-03T14:40:58Z</time>
      </trkpt>
      <trkpt lat="49.18685" lon="-0.17886">
        <ele>3.6</ele>
        <time>2024-07-03T14:40:59Z</time>
      </trkpt>
      <trkpt lat="49.18694" lon="-0.17882">
        <ele>3.6</ele>
        <time>2024-07-03T14:41:00Z</time>
      </trkpt>
      <trkpt lat="49.18702" lon="-0.17877">
        <ele>3.4</ele>
        <time>2024-07-03T14:41:01Z</time>
      </trkpt>
      <trkpt lat="49.18718" lon="-0.17868">
        <ele>3.4</ele>
        <time>2024-07-03T14:41:02Z</time>
      </trkpt>
      <trkpt lat="49.18722" lon="-0.17866">
        <ele>3.4</ele>
        <time>2024-07-03T14:41:03Z</time>
      </trkpt>
      <trkpt lat="49.18726" lon="-0.17865">
        <ele>3.2</ele>
        <time>2024-07-03T14:41:04Z</time>
      </trkpt>
      <trkpt lat="49.18734" lon="-0.17861">
        <ele>3.2</ele>
        <time>2024-07-03T14:41:05Z</time>
      </trkpt>
      <trkpt lat="49.18742" lon="-0.17857">
        <ele>3</ele>
        <time>2024-07-03T14:41:06Z</time>
      </trkpt>
      <trkpt lat="49.1875" lon="-0.17853">
        <ele>3</ele>
        <time>2024-07-03T14:41:07Z</time>
      </trkpt>
      <trkpt lat="49.18758" lon="-0.17849">
        <ele>3</ele>
        <time>2024-07-03T14:41:08Z</time>
      </trkpt>
      <trkpt lat="49.18765" lon="-0.17846">
        <ele>3</ele>
        <time>2024-07-03T14:41:09Z</time>
      </trkpt>
      <trkpt lat="49.18773" lon="-0.17843">
        <ele>3</ele>
        <time>2024-07-03T14:41:10Z</time>
      </trkpt>
      <trkpt lat="49.18781" lon="-0.17841">
        <ele>3</ele>
        <time>2024-07-03T14:41:11Z</time>
      </trkpt>
      <trkpt lat="49.18788" lon="-0.1784">
        <ele>3</ele>
        <time>2024-07-03T14:41:12Z</time>
      </trkpt>
      <trkpt lat="49.18796" lon="-0.17838">
        <ele>3</ele>
        <time>2024-07-03T14:41:13Z</time>
      </trkpt>
      <trkpt lat="49.18804" lon="-0.17838">
        <ele>3</ele>
        <time>2024-07-03T14:41:14Z</time>
      </trkpt>
      <trkpt lat="49.18812" lon="-0.17837">
        <ele>3</ele>
        <time>2024-07-03T14:41:15Z</time>
      </trkpt>
      <trkpt lat="49.1882" lon="-0.17837">
        <ele>3</ele>
        <time>2024-07-03T14:41:16Z</time>
      </trkpt>
      <trkpt lat="49.18827" lon="-0.17836">
        <ele>3</ele>
        <time>2024-07-03T14:41:17Z</time>
      </trkpt>
      <trkpt lat="49.18832" lon="-0.17835">
        <ele>3</ele>
        <time>2024-07-03T14:41:18Z</time>
      </trkpt>
      <trkpt lat="49.18837" lon="-0.17835">
        <ele>3</ele>
        <time>2024-07-03T14:41:19Z</time>
      </trkpt>
      <trkpt lat="49.18842" lon="-0.17834">
        <ele>3</ele>
        <time>2024-07-03T14:41:20Z</time>
      </trkpt>
      <trkpt lat="49.1885" lon="-0.17835">
        <ele>2.8</ele>
        <time>2024-07-03T14:41:21Z</time>
      </trkpt>
      <trkpt lat="49.18858" lon="-0.17834">
        <ele>2.8</ele>
        <time>2024-07-03T14:41:22Z</time>
      </trkpt>
      <trkpt lat="49.18865" lon="-0.17833">
        <ele>2.8</ele>
        <time>2024-07-03T14:41:23Z</time>
      </trkpt>
      <trkpt lat="49.18872" lon="-0.17833">
        <ele>2.6</ele>
        <time>2024-07-03T14:41:24Z</time>
      </trkpt>
      <trkpt lat="49.18878" lon="-0.17832">
        <ele>2.8</ele>
        <time>2024-07-03T14:41:25Z</time>
      </trkpt>
      <trkpt lat="49.18885" lon="-0.17832">
        <ele>2.8</ele>
        <time>2024-07-03T14:41:26Z</time>
      </trkpt>
      <trkpt lat="49.18892" lon="-0.17832">
        <ele>3</ele>
        <time>2024-07-03T14:41:27Z</time>
      </trkpt>
      <trkpt lat="49.18898" lon="-0.17832">
        <ele>3.2</ele>
        <time>2024-07-03T14:41:28Z</time>
      </trkpt>
      <trkpt lat="49.18905" lon="-0.17833">
        <ele>3.2</ele>
        <time>2024-07-03T14:41:29Z</time>
      </trkpt>
      <trkpt lat="49.18913" lon="-0.17833">
        <ele>3.4</ele>
        <time>2024-07-03T14:41:30Z</time>
      </trkpt>
      <trkpt lat="49.1892" lon="-0.17833">
        <ele>3.4</ele>
        <time>2024-07-03T14:41:31Z</time>
      </trkpt>
      <trkpt lat="49.18928" lon="-0.17832">
        <ele>3.4</ele>
        <time>2024-07-03T14:41:32Z</time>
      </trkpt>
      <trkpt lat="49.18936" lon="-0.17832">
        <ele>3.4</ele>
        <time>2024-07-03T14:41:33Z</time>
      </trkpt>
      <trkpt lat="49.18944" lon="-0.17833">
        <ele>3.4</ele>
        <time>2024-07-03T14:41:34Z</time>
      </trkpt>
      <trkpt lat="49.18952" lon="-0.17833">
        <ele>3.4</ele>
        <time>2024-07-03T14:41:35Z</time>
      </trkpt>
      <trkpt lat="49.18961" lon="-0.17833">
        <ele>3.4</ele>
        <time>2024-07-03T14:41:36Z</time>
      </trkpt>
      <trkpt lat="49.18969" lon="-0.17833">
        <ele>3.6</ele>
        <time>2024-07-03T14:41:37Z</time>
      </trkpt>
      <trkpt lat="49.18977" lon="-0.17833">
        <ele>3.6</ele>
        <time>2024-07-03T14:41:38Z</time>
      </trkpt>
      <trkpt lat="49.18985" lon="-0.17832">
        <ele>3.8</ele>
        <time>2024-07-03T14:41:39Z</time>
      </trkpt>
      <trkpt lat="49.18995" lon="-0.17832">
        <ele>4</ele>
        <time>2024-07-03T14:41:40Z</time>
      </trkpt>
      <trkpt lat="49.19004" lon="-0.17832">
        <ele>4</ele>
        <time>2024-07-03T14:41:41Z</time>
      </trkpt>
      <trkpt lat="49.19014" lon="-0.17831">
        <ele>4</ele>
        <time>2024-07-03T14:41:42Z</time>
      </trkpt>
      <trkpt lat="49.19023" lon="-0.17829">
        <ele>4</ele>
        <time>2024-07-03T14:41:43Z</time>
      </trkpt>
      <trkpt lat="49.19032" lon="-0.17826">
        <ele>4</ele>
        <time>2024-07-03T14:41:44Z</time>
      </trkpt>
      <trkpt lat="49.19039" lon="-0.17822">
        <ele>4</ele>
        <time>2024-07-03T14:41:45Z</time>
      </trkpt>
      <trkpt lat="49.19046" lon="-0.17818">
        <ele>4</ele>
        <time>2024-07-03T14:41:46Z</time>
      </trkpt>
      <trkpt lat="49.19054" lon="-0.17813">
        <ele>4</ele>
        <time>2024-07-03T14:41:47Z</time>
      </trkpt>
      <trkpt lat="49.19062" lon="-0.17807">
        <ele>4.2</ele>
        <time>2024-07-03T14:41:48Z</time>
      </trkpt>
      <trkpt lat="49.19071" lon="-0.17801">
        <ele>4.4</ele>
        <time>2024-07-03T14:41:49Z</time>
      </trkpt>
      <trkpt lat="49.19079" lon="-0.17795">
        <ele>4.4</ele>
        <time>2024-07-03T14:41:50Z</time>
      </trkpt>
      <trkpt lat="49.19088" lon="-0.17789">
        <ele>4.6</ele>
        <time>2024-07-03T14:41:51Z</time>
      </trkpt>
      <trkpt lat="49.19096" lon="-0.17785">
        <ele>4.8</ele>
        <time>2024-07-03T14:41:52Z</time>
      </trkpt>
      <trkpt lat="49.19103" lon="-0.17781">
        <ele>5</ele>
        <time>2024-07-03T14:41:53Z</time>
      </trkpt>
      <trkpt lat="49.19111" lon="-0.17778">
        <ele>5.2</ele>
        <time>2024-07-03T14:41:54Z</time>
      </trkpt>
      <trkpt lat="49.19119" lon="-0.17776">
        <ele>5.6</ele>
        <time>2024-07-03T14:41:55Z</time>
      </trkpt>
      <trkpt lat="49.19128" lon="-0.17775">
        <ele>5.8</ele>
        <time>2024-07-03T14:41:56Z</time>
      </trkpt>
      <trkpt lat="49.19137" lon="-0.17774">
        <ele>6</ele>
        <time>2024-07-03T14:41:57Z</time>
      </trkpt>
      <trkpt lat="49.19145" lon="-0.17773">
        <ele>6.2</ele>
        <time>2024-07-03T14:41:58Z</time>
      </trkpt>
      <trkpt lat="49.19154" lon="-0.17772">
        <ele>6.6</ele>
        <time>2024-07-03T14:41:59Z</time>
      </trkpt>
      <trkpt lat="49.19163" lon="-0.17771">
        <ele>6.8</ele>
        <time>2024-07-03T14:42:00Z</time>
      </trkpt>
      <trkpt lat="49.19173" lon="-0.17772">
        <ele>7</ele>
        <time>2024-07-03T14:42:01Z</time>
      </trkpt>
      <trkpt lat="49.1918" lon="-0.1777">
        <ele>7.2</ele>
        <time>2024-07-03T14:42:02Z</time>
      </trkpt>
      <trkpt lat="49.19188" lon="-0.17768">
        <ele>7.2</ele>
        <time>2024-07-03T14:42:03Z</time>
      </trkpt>
      <trkpt lat="49.19196" lon="-0.17766">
        <ele>7.2</ele>
        <time>2024-07-03T14:42:04Z</time>
      </trkpt>
      <trkpt lat="49.19205" lon="-0.17763">
        <ele>7.4</ele>
        <time>2024-07-03T14:42:05Z</time>
      </trkpt>
      <trkpt lat="49.19212" lon="-0.1776">
        <ele>7.6</ele>
        <time>2024-07-03T14:42:06Z</time>
      </trkpt>
      <trkpt lat="49.1922" lon="-0.17757">
        <ele>7.8</ele>
        <time>2024-07-03T14:42:07Z</time>
      </trkpt>
      <trkpt lat="49.19227" lon="-0.17753">
        <ele>8.2</ele>
        <time>2024-07-03T14:42:08Z</time>
      </trkpt>
      <trkpt lat="49.19236" lon="-0.17752">
        <ele>8.4</ele>
        <time>2024-07-03T14:42:09Z</time>
      </trkpt>
      <trkpt lat="49.19245" lon="-0.1775">
        <ele>8.6</ele>
        <time>2024-07-03T14:42:10Z</time>
      </trkpt>
      <trkpt lat="49.19252" lon="-0.17746">
        <ele>8.8</ele>
        <time>2024-07-03T14:42:11Z</time>
      </trkpt>
      <trkpt lat="49.19259" lon="-0.17743">
        <ele>8.8</ele>
        <time>2024-07-03T14:42:12Z</time>
      </trkpt>
      <trkpt lat="49.19267" lon="-0.17738">
        <ele>9</ele>
        <time>2024-07-03T14:42:13Z</time>
      </trkpt>
      <trkpt lat="49.19274" lon="-0.17734">
        <ele>9</ele>
        <time>2024-07-03T14:42:14Z</time>
      </trkpt>
      <trkpt lat="49.19282" lon="-0.1773">
        <ele>9.2</ele>
        <time>2024-07-03T14:42:15Z</time>
      </trkpt>
      <trkpt lat="49.1929" lon="-0.17727">
        <ele>9.4</ele>
        <time>2024-07-03T14:42:16Z</time>
      </trkpt>
      <trkpt lat="49.19298" lon="-0.17723">
        <ele>9.6</ele>
        <time>2024-07-03T14:42:17Z</time>
      </trkpt>
      <trkpt lat="49.19306" lon="-0.1772">
        <ele>9.6</ele>
        <time>2024-07-03T14:42:18Z</time>
      </trkpt>
      <trkpt lat="49.19314" lon="-0.17717">
        <ele>9.6</ele>
        <time>2024-07-03T14:42:19Z</time>
      </trkpt>
      <trkpt lat="49.19321" lon="-0.17714">
        <ele>9.8</ele>
        <time>2024-07-03T14:42:20Z</time>
      </trkpt>
      <trkpt lat="49.19328" lon="-0.1771">
        <ele>9.8</ele>
        <time>2024-07-03T14:42:21Z</time>
      </trkpt>
      <trkpt lat="49.19335" lon="-0.17706">
        <ele>10</ele>
        <time>2024-07-03T14:42:22Z</time>
      </trkpt>
      <trkpt lat="49.19341" lon="-0.17702">
        <ele>10.4</ele>
        <time>2024-07-03T14:42:23Z</time>
      </trkpt>
      <trkpt lat="49.19349" lon="-0.17699">
        <ele>10.6</ele>
        <time>2024-07-03T14:42:24Z</time>
      </trkpt>
      <trkpt lat="49.19356" lon="-0.17697">
        <ele>10.6</ele>
        <time>2024-07-03T14:42:25Z</time>
      </trkpt>
      <trkpt lat="49.19361" lon="-0.17693">
        <ele>10.8</ele>
        <time>2024-07-03T14:42:26Z</time>
      </trkpt>
      <trkpt lat="49.19367" lon="-0.1769">
        <ele>10.8</ele>
        <time>2024-07-03T14:42:27Z</time>
      </trkpt>
      <trkpt lat="49.19374" lon="-0.17689">
        <ele>11.2</ele>
        <time>2024-07-03T14:42:28Z</time>
      </trkpt>
      <trkpt lat="49.19381" lon="-0.17687">
        <ele>11.4</ele>
        <time>2024-07-03T14:42:29Z</time>
      </trkpt>
      <trkpt lat="49.19387" lon="-0.17686">
        <ele>11.6</ele>
        <time>2024-07-03T14:42:30Z</time>
      </trkpt>
      <trkpt lat="49.19393" lon="-0.17686">
        <ele>11.8</ele>
        <time>2024-07-03T14:42:31Z</time>
      </trkpt>
      <trkpt lat="49.19399" lon="-0.17686">
        <ele>11.8</ele>
        <time>2024-07-03T14:42:32Z</time>
      </trkpt>
      <trkpt lat="49.19404" lon="-0.17685">
        <ele>12</ele>
        <time>2024-07-03T14:42:33Z</time>
      </trkpt>
      <trkpt lat="49.1941" lon="-0.17684">
        <ele>12.2</ele>
        <time>2024-07-03T14:42:34Z</time>
      </trkpt>
      <trkpt lat="49.19415" lon="-0.17683">
        <ele>12.4</ele>
        <time>2024-07-03T14:42:35Z</time>
      </trkpt>
      <trkpt lat="49.19421" lon="-0.17682">
        <ele>12.8</ele>
        <time>2024-07-03T14:42:36Z</time>
      </trkpt>
      <trkpt lat="49.19428" lon="-0.1768">
        <ele>13</ele>
        <time>2024-07-03T14:42:37Z</time>
      </trkpt>
      <trkpt lat="49.19434" lon="-0.17679">
        <ele>13.2</ele>
        <time>2024-07-03T14:42:38Z</time>
      </trkpt>
      <trkpt lat="49.1944" lon="-0.17677">
        <ele>13.6</ele>
        <time>2024-07-03T14:42:39Z</time>
      </trkpt>
      <trkpt lat="49.19446" lon="-0.17676">
        <ele>14</ele>
        <time>2024-07-03T14:42:40Z</time>
      </trkpt>
      <trkpt lat="49.19453" lon="-0.17674">
        <ele>14.2</ele>
        <time>2024-07-03T14:42:41Z</time>
      </trkpt>
      <trkpt lat="49.19459" lon="-0.17673">
        <ele>14.6</ele>
        <time>2024-07-03T14:42:42Z</time>
      </trkpt>
      <trkpt lat="49.19464" lon="-0.1767">
        <ele>14.8</ele>
        <time>2024-07-03T14:42:43Z</time>
      </trkpt>
      <trkpt lat="49.19471" lon="-0.17668">
        <ele>15</ele>
        <time>2024-07-03T14:42:44Z</time>
      </trkpt>
      <trkpt lat="49.19477" lon="-0.17666">
        <ele>15</ele>
        <time>2024-07-03T14:42:45Z</time>
      </trkpt>
      <trkpt lat="49.19484" lon="-0.17664">
        <ele>15.2</ele>
        <time>2024-07-03T14:42:46Z</time>
      </trkpt>
      <trkpt lat="49.19494" lon="-0.17663">
        <ele>15.2</ele>
        <time>2024-07-03T14:42:47Z</time>
      </trkpt>
      <trkpt lat="49.19502" lon="-0.17662">
        <ele>15.2</ele>
        <time>2024-07-03T14:42:48Z</time>
      </trkpt>
      <trkpt lat="49.19508" lon="-0.1766">
        <ele>15.4</ele>
        <time>2024-07-03T14:42:49Z</time>
      </trkpt>
      <trkpt lat="49.19516" lon="-0.17658">
        <ele>15.4</ele>
        <time>2024-07-03T14:42:50Z</time>
      </trkpt>
      <trkpt lat="49.19522" lon="-0.17657">
        <ele>15.4</ele>
        <time>2024-07-03T14:42:51Z</time>
      </trkpt>
      <trkpt lat="49.19529" lon="-0.17655">
        <ele>15.4</ele>
        <time>2024-07-03T14:42:52Z</time>
      </trkpt>
      <trkpt lat="49.19537" lon="-0.17652">
        <ele>15.6</ele>
        <time>2024-07-03T14:42:53Z</time>
      </trkpt>
      <trkpt lat="49.19543" lon="-0.17652">
        <ele>15.8</ele>
        <time>2024-07-03T14:42:54Z</time>
      </trkpt>
      <trkpt lat="49.1955" lon="-0.17652">
        <ele>16</ele>
        <time>2024-07-03T14:42:55Z</time>
      </trkpt>
      <trkpt lat="49.19556" lon="-0.17652">
        <ele>16.4</ele>
        <time>2024-07-03T14:42:56Z</time>
      </trkpt>
      <trkpt lat="49.19564" lon="-0.17652">
        <ele>16.6</ele>
        <time>2024-07-03T14:42:57Z</time>
      </trkpt>
      <trkpt lat="49.19573" lon="-0.17652">
        <ele>16.8</ele>
        <time>2024-07-03T14:42:58Z</time>
      </trkpt>
      <trkpt lat="49.19581" lon="-0.17653">
        <ele>16.8</ele>
        <time>2024-07-03T14:42:59Z</time>
      </trkpt>
      <trkpt lat="49.19588" lon="-0.17653">
        <ele>17</ele>
        <time>2024-07-03T14:43:00Z</time>
      </trkpt>
      <trkpt lat="49.19597" lon="-0.17653">
        <ele>17</ele>
        <time>2024-07-03T14:43:01Z</time>
      </trkpt>
      <trkpt lat="49.19606" lon="-0.17654">
        <ele>16.8</ele>
        <time>2024-07-03T14:43:02Z</time>
      </trkpt>
      <trkpt lat="49.19615" lon="-0.17654">
        <ele>16.6</ele>
        <time>2024-07-03T14:43:03Z</time>
      </trkpt>
      <trkpt lat="49.19623" lon="-0.17654">
        <ele>16.4</ele>
        <time>2024-07-03T14:43:04Z</time>
      </trkpt>
      <trkpt lat="49.19631" lon="-0.17654">
        <ele>16.6</ele>
        <time>2024-07-03T14:43:05Z</time>
      </trkpt>
      <trkpt lat="49.19638" lon="-0.17653">
        <ele>16.6</ele>
        <time>2024-07-03T14:43:06Z</time>
      </trkpt>
      <trkpt lat="49.19645" lon="-0.17653">
        <ele>16.4</ele>
        <time>2024-07-03T14:43:07Z</time>
      </trkpt>
      <trkpt lat="49.19653" lon="-0.17652">
        <ele>16.4</ele>
        <time>2024-07-03T14:43:08Z</time>
      </trkpt>
      <trkpt lat="49.1966" lon="-0.1765">
        <ele>16.6</ele>
        <time>2024-07-03T14:43:09Z</time>
      </trkpt>
      <trkpt lat="49.19667" lon="-0.17648">
        <ele>16.6</ele>
        <time>2024-07-03T14:43:10Z</time>
      </trkpt>
      <trkpt lat="49.19674" lon="-0.17646">
        <ele>16.8</ele>
        <time>2024-07-03T14:43:11Z</time>
      </trkpt>
      <trkpt lat="49.19682" lon="-0.17644">
        <ele>16.6</ele>
        <time>2024-07-03T14:43:12Z</time>
      </trkpt>
      <trkpt lat="49.19691" lon="-0.1764">
        <ele>16.6</ele>
        <time>2024-07-03T14:43:13Z</time>
      </trkpt>
      <trkpt lat="49.197" lon="-0.17637">
        <ele>16.4</ele>
        <time>2024-07-03T14:43:14Z</time>
      </trkpt>
      <trkpt lat="49.19708" lon="-0.17634">
        <ele>16</ele>
        <time>2024-07-03T14:43:15Z</time>
      </trkpt>
      <trkpt lat="49.19716" lon="-0.1763">
        <ele>15.4</ele>
        <time>2024-07-03T14:43:16Z</time>
      </trkpt>
      <trkpt lat="49.19724" lon="-0.17627">
        <ele>14.8</ele>
        <time>2024-07-03T14:43:17Z</time>
      </trkpt>
      <trkpt lat="49.19732" lon="-0.17624">
        <ele>14.2</ele>
        <time>2024-07-03T14:43:18Z</time>
      </trkpt>
      <trkpt lat="49.1974" lon="-0.17621">
        <ele>13.6</ele>
        <time>2024-07-03T14:43:19Z</time>
      </trkpt>
      <trkpt lat="49.19749" lon="-0.17617">
        <ele>13.2</ele>
        <time>2024-07-03T14:43:20Z</time>
      </trkpt>
      <trkpt lat="49.19757" lon="-0.17615">
        <ele>12.8</ele>
        <time>2024-07-03T14:43:21Z</time>
      </trkpt>
      <trkpt lat="49.19766" lon="-0.17612">
        <ele>12.4</ele>
        <time>2024-07-03T14:43:22Z</time>
      </trkpt>
      <trkpt lat="49.19775" lon="-0.17609">
        <ele>12.2</ele>
        <time>2024-07-03T14:43:23Z</time>
      </trkpt>
      <trkpt lat="49.19784" lon="-0.17608">
        <ele>12</ele>
        <time>2024-07-03T14:43:24Z</time>
      </trkpt>
      <trkpt lat="49.19793" lon="-0.17607">
        <ele>11.8</ele>
        <time>2024-07-03T14:43:25Z</time>
      </trkpt>
      <trkpt lat="49.19802" lon="-0.17606">
        <ele>11.6</ele>
        <time>2024-07-03T14:43:26Z</time>
      </trkpt>
      <trkpt lat="49.19811" lon="-0.17606">
        <ele>11.4</ele>
        <time>2024-07-03T14:43:27Z</time>
      </trkpt>
      <trkpt lat="49.1982" lon="-0.17607">
        <ele>11</ele>
        <time>2024-07-03T14:43:28Z</time>
      </trkpt>
      <trkpt lat="49.19829" lon="-0.17608">
        <ele>10.8</ele>
        <time>2024-07-03T14:43:29Z</time>
      </trkpt>
      <trkpt lat="49.19839" lon="-0.1761">
        <ele>10.2</ele>
        <time>2024-07-03T14:43:30Z</time>
      </trkpt>
      <trkpt lat="49.19848" lon="-0.17612">
        <ele>9.8</ele>
        <time>2024-07-03T14:43:31Z</time>
      </trkpt>
      <trkpt lat="49.19857" lon="-0.17615">
        <ele>9.6</ele>
        <time>2024-07-03T14:43:32Z</time>
      </trkpt>
      <trkpt lat="49.19866" lon="-0.17617">
        <ele>9.6</ele>
        <time>2024-07-03T14:43:33Z</time>
      </trkpt>
      <trkpt lat="49.19875" lon="-0.1762">
        <ele>9.6</ele>
        <time>2024-07-03T14:43:34Z</time>
      </trkpt>
      <trkpt lat="49.19884" lon="-0.17622">
        <ele>9.6</ele>
        <time>2024-07-03T14:43:35Z</time>
      </trkpt>
      <trkpt lat="49.19893" lon="-0.17624">
        <ele>9.8</ele>
        <time>2024-07-03T14:43:36Z</time>
      </trkpt>
      <trkpt lat="49.19903" lon="-0.17627">
        <ele>9.8</ele>
        <time>2024-07-03T14:43:37Z</time>
      </trkpt>
      <trkpt lat="49.19913" lon="-0.17629">
        <ele>9.8</ele>
        <time>2024-07-03T14:43:38Z</time>
      </trkpt>
      <trkpt lat="49.19922" lon="-0.17631">
        <ele>9.6</ele>
        <time>2024-07-03T14:43:39Z</time>
      </trkpt>
      <trkpt lat="49.19932" lon="-0.17632">
        <ele>9.4</ele>
        <time>2024-07-03T14:43:40Z</time>
      </trkpt>
      <trkpt lat="49.19941" lon="-0.17634">
        <ele>9.2</ele>
        <time>2024-07-03T14:43:41Z</time>
      </trkpt>
      <trkpt lat="49.1995" lon="-0.17636">
        <ele>8.8</ele>
        <time>2024-07-03T14:43:42Z</time>
      </trkpt>
      <trkpt lat="49.1996" lon="-0.17638">
        <ele>8.6</ele>
        <time>2024-07-03T14:43:43Z</time>
      </trkpt>
      <trkpt lat="49.19969" lon="-0.1764">
        <ele>8.4</ele>
        <time>2024-07-03T14:43:44Z</time>
      </trkpt>
      <trkpt lat="49.19979" lon="-0.17642">
        <ele>8.2</ele>
        <time>2024-07-03T14:43:45Z</time>
      </trkpt>
      <trkpt lat="49.19988" lon="-0.17643">
        <ele>8</ele>
        <time>2024-07-03T14:43:46Z</time>
      </trkpt>
      <trkpt lat="49.19998" lon="-0.17645">
        <ele>7.6</ele>
        <time>2024-07-03T14:43:47Z</time>
      </trkpt>
      <trkpt lat="49.20007" lon="-0.17647">
        <ele>7.2</ele>
        <time>2024-07-03T14:43:48Z</time>
      </trkpt>
      <trkpt lat="49.20016" lon="-0.17648">
        <ele>6.8</ele>
        <time>2024-07-03T14:43:49Z</time>
      </trkpt>
      <trkpt lat="49.20025" lon="-0.17649">
        <ele>6.6</ele>
        <time>2024-07-03T14:43:50Z</time>
      </trkpt>
      <trkpt lat="49.20034" lon="-0.1765">
        <ele>6.4</ele>
        <time>2024-07-03T14:43:51Z</time>
      </trkpt>
      <trkpt lat="49.20043" lon="-0.17652">
        <ele>6.2</ele>
        <time>2024-07-03T14:43:52Z</time>
      </trkpt>
      <trkpt lat="49.20052" lon="-0.17653">
        <ele>6.2</ele>
        <time>2024-07-03T14:43:53Z</time>
      </trkpt>
      <trkpt lat="49.20061" lon="-0.17654">
        <ele>6.2</ele>
        <time>2024-07-03T14:43:54Z</time>
      </trkpt>
      <trkpt lat="49.2007" lon="-0.17656">
        <ele>6.2</ele>
        <time>2024-07-03T14:43:55Z</time>
      </trkpt>
      <trkpt lat="49.20078" lon="-0.17654">
        <ele>6.4</ele>
        <time>2024-07-03T14:43:56Z</time>
      </trkpt>
      <trkpt lat="49.20087" lon="-0.17651">
        <ele>6.4</ele>
        <time>2024-07-03T14:43:57Z</time>
      </trkpt>
      <trkpt lat="49.20096" lon="-0.17651">
        <ele>6.2</ele>
        <time>2024-07-03T14:43:58Z</time>
      </trkpt>
      <trkpt lat="49.20106" lon="-0.17652">
        <ele>6</ele>
        <time>2024-07-03T14:43:59Z</time>
      </trkpt>
      <trkpt lat="49.20117" lon="-0.17654">
        <ele>5.4</ele>
        <time>2024-07-03T14:44:00Z</time>
      </trkpt>
      <trkpt lat="49.20126" lon="-0.17655">
        <ele>4.8</ele>
        <time>2024-07-03T14:44:01Z</time>
      </trkpt>
      <trkpt lat="49.20136" lon="-0.17656">
        <ele>4.4</ele>
        <time>2024-07-03T14:44:02Z</time>
      </trkpt>
      <trkpt lat="49.20146" lon="-0.17658">
        <ele>4.4</ele>
        <time>2024-07-03T14:44:03Z</time>
      </trkpt>
      <trkpt lat="49.20156" lon="-0.17659">
        <ele>4.2</ele>
        <time>2024-07-03T14:44:04Z</time>
      </trkpt>
      <trkpt lat="49.20167" lon="-0.17662">
        <ele>4.2</ele>
        <time>2024-07-03T14:44:05Z</time>
      </trkpt>
      <trkpt lat="49.20177" lon="-0.17663">
        <ele>4.2</ele>
        <time>2024-07-03T14:44:06Z</time>
      </trkpt>
      <trkpt lat="49.20188" lon="-0.17665">
        <ele>4.4</ele>
        <time>2024-07-03T14:44:07Z</time>
      </trkpt>
      <trkpt lat="49.20199" lon="-0.17667">
        <ele>4.4</ele>
        <time>2024-07-03T14:44:08Z</time>
      </trkpt>
      <trkpt lat="49.20209" lon="-0.17669">
        <ele>4.4</ele>
        <time>2024-07-03T14:44:09Z</time>
      </trkpt>
      <trkpt lat="49.20219" lon="-0.17671">
        <ele>4.4</ele>
        <time>2024-07-03T14:44:10Z</time>
      </trkpt>
      <trkpt lat="49.20229" lon="-0.17673">
        <ele>4.2</ele>
        <time>2024-07-03T14:44:11Z</time>
      </trkpt>
      <trkpt lat="49.20239" lon="-0.17675">
        <ele>4.2</ele>
        <time>2024-07-03T14:44:12Z</time>
      </trkpt>
      <trkpt lat="49.20248" lon="-0.17677">
        <ele>4.4</ele>
        <time>2024-07-03T14:44:13Z</time>
      </trkpt>
      <trkpt lat="49.20258" lon="-0.17678">
        <ele>4.2</ele>
        <time>2024-07-03T14:44:14Z</time>
      </trkpt>
      <trkpt lat="49.20267" lon="-0.1768">
        <ele>4.2</ele>
        <time>2024-07-03T14:44:15Z</time>
      </trkpt>
      <trkpt lat="49.20277" lon="-0.17681">
        <ele>4.2</ele>
        <time>2024-07-03T14:44:16Z</time>
      </trkpt>
      <trkpt lat="49.20286" lon="-0.17683">
        <ele>4</ele>
        <time>2024-07-03T14:44:17Z</time>
      </trkpt>
      <trkpt lat="49.20295" lon="-0.17685">
        <ele>4</ele>
        <time>2024-07-03T14:44:18Z</time>
      </trkpt>
      <trkpt lat="49.20304" lon="-0.17687">
        <ele>4</ele>
        <time>2024-07-03T14:44:19Z</time>
      </trkpt>
      <trkpt lat="49.20313" lon="-0.17689">
        <ele>3.8</ele>
        <time>2024-07-03T14:44:20Z</time>
      </trkpt>
      <trkpt lat="49.20323" lon="-0.17691">
        <ele>3.8</ele>
        <time>2024-07-03T14:44:21Z</time>
      </trkpt>
      <trkpt lat="49.20332" lon="-0.17694">
        <ele>3.8</ele>
        <time>2024-07-03T14:44:22Z</time>
      </trkpt>
      <trkpt lat="49.20341" lon="-0.17696">
        <ele>4</ele>
        <time>2024-07-03T14:44:23Z</time>
      </trkpt>
      <trkpt lat="49.20349" lon="-0.17698">
        <ele>4</ele>
        <time>2024-07-03T14:44:24Z</time>
      </trkpt>
      <trkpt lat="49.20358" lon="-0.177">
        <ele>4.2</ele>
        <time>2024-07-03T14:44:25Z</time>
      </trkpt>
      <trkpt lat="49.20367" lon="-0.17703">
        <ele>4.6</ele>
        <time>2024-07-03T14:44:26Z</time>
      </trkpt>
      <trkpt lat="49.20376" lon="-0.17706">
        <ele>4.6</ele>
        <time>2024-07-03T14:44:27Z</time>
      </trkpt>
      <trkpt lat="49.20385" lon="-0.17709">
        <ele>4.8</ele>
        <time>2024-07-03T14:44:28Z</time>
      </trkpt>
      <trkpt lat="49.20394" lon="-0.17713">
        <ele>4.8</ele>
        <time>2024-07-03T14:44:29Z</time>
      </trkpt>
      <trkpt lat="49.20403" lon="-0.17717">
        <ele>4.8</ele>
        <time>2024-07-03T14:44:30Z</time>
      </trkpt>
      <trkpt lat="49.20411" lon="-0.17721">
        <ele>4.6</ele>
        <time>2024-07-03T14:44:31Z</time>
      </trkpt>
      <trkpt lat="49.2042" lon="-0.17725">
        <ele>4.4</ele>
        <time>2024-07-03T14:44:32Z</time>
      </trkpt>
      <trkpt lat="49.20428" lon="-0.17729">
        <ele>4.2</ele>
        <time>2024-07-03T14:44:33Z</time>
      </trkpt>
      <trkpt lat="49.20437" lon="-0.17732">
        <ele>4.2</ele>
        <time>2024-07-03T14:44:34Z</time>
      </trkpt>
      <trkpt lat="49.20446" lon="-0.17736">
        <ele>4.2</ele>
        <time>2024-07-03T14:44:35Z</time>
      </trkpt>
      <trkpt lat="49.20455" lon="-0.17739">
        <ele>4.2</ele>
        <time>2024-07-03T14:44:36Z</time>
      </trkpt>
      <trkpt lat="49.20464" lon="-0.17742">
        <ele>4.2</ele>
        <time>2024-07-03T14:44:37Z</time>
      </trkpt>
      <trkpt lat="49.20473" lon="-0.17745">
        <ele>4.2</ele>
        <time>2024-07-03T14:44:38Z</time>
      </trkpt>
      <trkpt lat="49.20483" lon="-0.17747">
        <ele>4.2</ele>
        <time>2024-07-03T14:44:39Z</time>
      </trkpt>
      <trkpt lat="49.20492" lon="-0.17748">
        <ele>4.2</ele>
        <time>2024-07-03T14:44:40Z</time>
      </trkpt>
      <trkpt lat="49.20502" lon="-0.17748">
        <ele>4.4</ele>
        <time>2024-07-03T14:44:41Z</time>
      </trkpt>
      <trkpt lat="49.20511" lon="-0.17749">
        <ele>4.4</ele>
        <time>2024-07-03T14:44:42Z</time>
      </trkpt>
      <trkpt lat="49.2052" lon="-0.17749">
        <ele>4.4</ele>
        <time>2024-07-03T14:44:43Z</time>
      </trkpt>
      <trkpt lat="49.20528" lon="-0.17749">
        <ele>4.6</ele>
        <time>2024-07-03T14:44:44Z</time>
      </trkpt>
      <trkpt lat="49.20537" lon="-0.17748">
        <ele>4.8</ele>
        <time>2024-07-03T14:44:45Z</time>
      </trkpt>
      <trkpt lat="49.20544" lon="-0.17746">
        <ele>5</ele>
        <time>2024-07-03T14:44:46Z</time>
      </trkpt>
      <trkpt lat="49.20552" lon="-0.17744">
        <ele>5.2</ele>
        <time>2024-07-03T14:44:47Z</time>
      </trkpt>
      <trkpt lat="49.2056" lon="-0.17743">
        <ele>5.2</ele>
        <time>2024-07-03T14:44:48Z</time>
      </trkpt>
      <trkpt lat="49.20569" lon="-0.17742">
        <ele>5.4</ele>
        <time>2024-07-03T14:44:49Z</time>
      </trkpt>
      <trkpt lat="49.20577" lon="-0.17741">
        <ele>5.4</ele>
        <time>2024-07-03T14:44:50Z</time>
      </trkpt>
      <trkpt lat="49.20585" lon="-0.17741">
        <ele>5.4</ele>
        <time>2024-07-03T14:44:51Z</time>
      </trkpt>
      <trkpt lat="49.20593" lon="-0.17743">
        <ele>5.4</ele>
        <time>2024-07-03T14:44:52Z</time>
      </trkpt>
      <trkpt lat="49.20602" lon="-0.17747">
        <ele>5.4</ele>
        <time>2024-07-03T14:44:53Z</time>
      </trkpt>
      <trkpt lat="49.20611" lon="-0.17752">
        <ele>5.4</ele>
        <time>2024-07-03T14:44:54Z</time>
      </trkpt>
      <trkpt lat="49.20618" lon="-0.17757">
        <ele>5.6</ele>
        <time>2024-07-03T14:44:55Z</time>
      </trkpt>
      <trkpt lat="49.20626" lon="-0.17763">
        <ele>5.8</ele>
        <time>2024-07-03T14:44:56Z</time>
      </trkpt>
      <trkpt lat="49.20633" lon="-0.1777">
        <ele>5.8</ele>
        <time>2024-07-03T14:44:57Z</time>
      </trkpt>
      <trkpt lat="49.2064" lon="-0.17778">
        <ele>5.8</ele>
        <time>2024-07-03T14:44:58Z</time>
      </trkpt>
      <trkpt lat="49.20648" lon="-0.17784">
        <ele>6</ele>
        <time>2024-07-03T14:44:59Z</time>
      </trkpt>
      <trkpt lat="49.20657" lon="-0.17791">
        <ele>6</ele>
        <time>2024-07-03T14:45:00Z</time>
      </trkpt>
      <trkpt lat="49.20667" lon="-0.17796">
        <ele>6</ele>
        <time>2024-07-03T14:45:01Z</time>
      </trkpt>
      <trkpt lat="49.20676" lon="-0.17802">
        <ele>6</ele>
        <time>2024-07-03T14:45:02Z</time>
      </trkpt>
      <trkpt lat="49.20685" lon="-0.17807">
        <ele>5.8</ele>
        <time>2024-07-03T14:45:03Z</time>
      </trkpt>
      <trkpt lat="49.20694" lon="-0.17811">
        <ele>5.6</ele>
        <time>2024-07-03T14:45:04Z</time>
      </trkpt>
      <trkpt lat="49.20702" lon="-0.17815">
        <ele>5.4</ele>
        <time>2024-07-03T14:45:05Z</time>
      </trkpt>
      <trkpt lat="49.2071" lon="-0.17818">
        <ele>5.4</ele>
        <time>2024-07-03T14:45:06Z</time>
      </trkpt>
      <trkpt lat="49.20718" lon="-0.17821">
        <ele>5.4</ele>
        <time>2024-07-03T14:45:07Z</time>
      </trkpt>
      <trkpt lat="49.20726" lon="-0.17824">
        <ele>5.8</ele>
        <time>2024-07-03T14:45:08Z</time>
      </trkpt>
      <trkpt lat="49.20734" lon="-0.17827">
        <ele>6.2</ele>
        <time>2024-07-03T14:45:09Z</time>
      </trkpt>
      <trkpt lat="49.20742" lon="-0.1783">
        <ele>6.8</ele>
        <time>2024-07-03T14:45:10Z</time>
      </trkpt>
      <trkpt lat="49.2075" lon="-0.17832">
        <ele>7</ele>
        <time>2024-07-03T14:45:11Z</time>
      </trkpt>
      <trkpt lat="49.20757" lon="-0.17835">
        <ele>7.4</ele>
        <time>2024-07-03T14:45:12Z</time>
      </trkpt>
      <trkpt lat="49.20765" lon="-0.17837">
        <ele>7.8</ele>
        <time>2024-07-03T14:45:13Z</time>
      </trkpt>
      <trkpt lat="49.20773" lon="-0.17839">
        <ele>8.2</ele>
        <time>2024-07-03T14:45:14Z</time>
      </trkpt>
      <trkpt lat="49.20781" lon="-0.17841">
        <ele>8.4</ele>
        <time>2024-07-03T14:45:15Z</time>
      </trkpt>
      <trkpt lat="49.20789" lon="-0.17844">
        <ele>8.6</ele>
        <time>2024-07-03T14:45:16Z</time>
      </trkpt>
      <trkpt lat="49.20797" lon="-0.17846">
        <ele>9</ele>
        <time>2024-07-03T14:45:17Z</time>
      </trkpt>
      <trkpt lat="49.20804" lon="-0.17849">
        <ele>9.4</ele>
        <time>2024-07-03T14:45:18Z</time>
      </trkpt>
      <trkpt lat="49.20811" lon="-0.17851">
        <ele>9.6</ele>
        <time>2024-07-03T14:45:19Z</time>
      </trkpt>
      <trkpt lat="49.20819" lon="-0.17854">
        <ele>9.8</ele>
        <time>2024-07-03T14:45:20Z</time>
      </trkpt>
      <trkpt lat="49.20826" lon="-0.17857">
        <ele>10</ele>
        <time>2024-07-03T14:45:21Z</time>
      </trkpt>
      <trkpt lat="49.20833" lon="-0.17858">
        <ele>10.2</ele>
        <time>2024-07-03T14:45:22Z</time>
      </trkpt>
      <trkpt lat="49.20841" lon="-0.17861">
        <ele>10.4</ele>
        <time>2024-07-03T14:45:23Z</time>
      </trkpt>
      <trkpt lat="49.20849" lon="-0.17863">
        <ele>10.6</ele>
        <time>2024-07-03T14:45:24Z</time>
      </trkpt>
      <trkpt lat="49.20857" lon="-0.17865">
        <ele>10.8</ele>
        <time>2024-07-03T14:45:25Z</time>
      </trkpt>
      <trkpt lat="49.20864" lon="-0.17867">
        <ele>11</ele>
        <time>2024-07-03T14:45:26Z</time>
      </trkpt>
      <trkpt lat="49.20872" lon="-0.17869">
        <ele>11.2</ele>
        <time>2024-07-03T14:45:27Z</time>
      </trkpt>
      <trkpt lat="49.20879" lon="-0.17869">
        <ele>11.4</ele>
        <time>2024-07-03T14:45:28Z</time>
      </trkpt>
      <trkpt lat="49.20887" lon="-0.17869">
        <ele>11.4</ele>
        <time>2024-07-03T14:45:29Z</time>
      </trkpt>
      <trkpt lat="49.20894" lon="-0.17868">
        <ele>11.6</ele>
        <time>2024-07-03T14:45:30Z</time>
      </trkpt>
      <trkpt lat="49.20901" lon="-0.17867">
        <ele>11.6</ele>
        <time>2024-07-03T14:45:31Z</time>
      </trkpt>
      <trkpt lat="49.20908" lon="-0.17865">
        <ele>11.6</ele>
        <time>2024-07-03T14:45:32Z</time>
      </trkpt>
      <trkpt lat="49.20916" lon="-0.17864">
        <ele>11.6</ele>
        <time>2024-07-03T14:45:33Z</time>
      </trkpt>
      <trkpt lat="49.20923" lon="-0.17863">
        <ele>11.6</ele>
        <time>2024-07-03T14:45:34Z</time>
      </trkpt>
      <trkpt lat="49.20931" lon="-0.17862">
        <ele>11.4</ele>
        <time>2024-07-03T14:45:35Z</time>
      </trkpt>
      <trkpt lat="49.20938" lon="-0.17861">
        <ele>11.4</ele>
        <time>2024-07-03T14:45:36Z</time>
      </trkpt>
      <trkpt lat="49.20945" lon="-0.17859">
        <ele>11.4</ele>
        <time>2024-07-03T14:45:37Z</time>
      </trkpt>
      <trkpt lat="49.20953" lon="-0.17859">
        <ele>11.4</ele>
        <time>2024-07-03T14:45:38Z</time>
      </trkpt>
      <trkpt lat="49.20962" lon="-0.17858">
        <ele>11.6</ele>
        <time>2024-07-03T14:45:39Z</time>
      </trkpt>
      <trkpt lat="49.20968" lon="-0.17856">
        <ele>11.4</ele>
        <time>2024-07-03T14:45:40Z</time>
      </trkpt>
      <trkpt lat="49.20977" lon="-0.17856">
        <ele>11.4</ele>
        <time>2024-07-03T14:45:41Z</time>
      </trkpt>
      <trkpt lat="49.20987" lon="-0.17856">
        <ele>11.4</ele>
        <time>2024-07-03T14:45:42Z</time>
      </trkpt>
      <trkpt lat="49.20997" lon="-0.17856">
        <ele>11.4</ele>
        <time>2024-07-03T14:45:43Z</time>
      </trkpt>
      <trkpt lat="49.21006" lon="-0.17857">
        <ele>11.2</ele>
        <time>2024-07-03T14:45:44Z</time>
      </trkpt>
      <trkpt lat="49.21016" lon="-0.17858">
        <ele>11.2</ele>
        <time>2024-07-03T14:45:45Z</time>
      </trkpt>
      <trkpt lat="49.21026" lon="-0.17859">
        <ele>11.2</ele>
        <time>2024-07-03T14:45:46Z</time>
      </trkpt>
      <trkpt lat="49.21035" lon="-0.1786">
        <ele>11</ele>
        <time>2024-07-03T14:45:47Z</time>
      </trkpt>
      <trkpt lat="49.21044" lon="-0.17861">
        <ele>11</ele>
        <time>2024-07-03T14:45:48Z</time>
      </trkpt>
      <trkpt lat="49.21054" lon="-0.17862">
        <ele>10.8</ele>
        <time>2024-07-03T14:45:49Z</time>
      </trkpt>
      <trkpt lat="49.21064" lon="-0.17863">
        <ele>10.8</ele>
        <time>2024-07-03T14:45:50Z</time>
      </trkpt>
      <trkpt lat="49.21074" lon="-0.17865">
        <ele>10.6</ele>
        <time>2024-07-03T14:45:51Z</time>
      </trkpt>
      <trkpt lat="49.21083" lon="-0.17865">
        <ele>10.4</ele>
        <time>2024-07-03T14:45:52Z</time>
      </trkpt>
      <trkpt lat="49.21093" lon="-0.17866">
        <ele>10.4</ele>
        <time>2024-07-03T14:45:53Z</time>
      </trkpt>
      <trkpt lat="49.21104" lon="-0.17868">
        <ele>10.4</ele>
        <time>2024-07-03T14:45:54Z</time>
      </trkpt>
      <trkpt lat="49.21114" lon="-0.17869">
        <ele>10.2</ele>
        <time>2024-07-03T14:45:55Z</time>
      </trkpt>
      <trkpt lat="49.21123" lon="-0.17871">
        <ele>10</ele>
        <time>2024-07-03T14:45:56Z</time>
      </trkpt>
      <trkpt lat="49.21133" lon="-0.17872">
        <ele>9.8</ele>
        <time>2024-07-03T14:45:57Z</time>
      </trkpt>
      <trkpt lat="49.21143" lon="-0.17874">
        <ele>9.8</ele>
        <time>2024-07-03T14:45:58Z</time>
      </trkpt>
      <trkpt lat="49.21152" lon="-0.17876">
        <ele>9.8</ele>
        <time>2024-07-03T14:45:59Z</time>
      </trkpt>
      <trkpt lat="49.21161" lon="-0.17879">
        <ele>9.6</ele>
        <time>2024-07-03T14:46:00Z</time>
      </trkpt>
      <trkpt lat="49.2117" lon="-0.17881">
        <ele>8.8</ele>
        <time>2024-07-03T14:46:01Z</time>
      </trkpt>
      <trkpt lat="49.2118" lon="-0.17884">
        <ele>8.2</ele>
        <time>2024-07-03T14:46:02Z</time>
      </trkpt>
      <trkpt lat="49.21191" lon="-0.17889">
        <ele>7.6</ele>
        <time>2024-07-03T14:46:03Z</time>
      </trkpt>
      <trkpt lat="49.21201" lon="-0.17895">
        <ele>7.2</ele>
        <time>2024-07-03T14:46:04Z</time>
      </trkpt>
      <trkpt lat="49.21211" lon="-0.179">
        <ele>7</ele>
        <time>2024-07-03T14:46:05Z</time>
      </trkpt>
      <trkpt lat="49.2122" lon="-0.17906">
        <ele>6.8</ele>
        <time>2024-07-03T14:46:06Z</time>
      </trkpt>
      <trkpt lat="49.21229" lon="-0.17913">
        <ele>6.4</ele>
        <time>2024-07-03T14:46:07Z</time>
      </trkpt>
      <trkpt lat="49.21238" lon="-0.1792">
        <ele>6.2</ele>
        <time>2024-07-03T14:46:08Z</time>
      </trkpt>
      <trkpt lat="49.21246" lon="-0.17928">
        <ele>6</ele>
        <time>2024-07-03T14:46:09Z</time>
      </trkpt>
      <trkpt lat="49.21255" lon="-0.17937">
        <ele>5.8</ele>
        <time>2024-07-03T14:46:10Z</time>
      </trkpt>
      <trkpt lat="49.21264" lon="-0.17946">
        <ele>5.6</ele>
        <time>2024-07-03T14:46:11Z</time>
      </trkpt>
      <trkpt lat="49.21272" lon="-0.17956">
        <ele>5.2</ele>
        <time>2024-07-03T14:46:12Z</time>
      </trkpt>
      <trkpt lat="49.21282" lon="-0.17964">
        <ele>5</ele>
        <time>2024-07-03T14:46:13Z</time>
      </trkpt>
      <trkpt lat="49.21292" lon="-0.17971">
        <ele>4.8</ele>
        <time>2024-07-03T14:46:14Z</time>
      </trkpt>
      <trkpt lat="49.21303" lon="-0.17976">
        <ele>4.4</ele>
        <time>2024-07-03T14:46:15Z</time>
      </trkpt>
      <trkpt lat="49.21314" lon="-0.17978">
        <ele>4.2</ele>
        <time>2024-07-03T14:46:16Z</time>
      </trkpt>
      <trkpt lat="49.21324" lon="-0.17977">
        <ele>4.2</ele>
        <time>2024-07-03T14:46:17Z</time>
      </trkpt>
      <trkpt lat="49.21333" lon="-0.17974">
        <ele>4.2</ele>
        <time>2024-07-03T14:46:18Z</time>
      </trkpt>
      <trkpt lat="49.21341" lon="-0.1797">
        <ele>4.2</ele>
        <time>2024-07-03T14:46:19Z</time>
      </trkpt>
      <trkpt lat="49.21349" lon="-0.17966">
        <ele>4.4</ele>
        <time>2024-07-03T14:46:20Z</time>
      </trkpt>
      <trkpt lat="49.21357" lon="-0.17962">
        <ele>4.4</ele>
        <time>2024-07-03T14:46:21Z</time>
      </trkpt>
      <trkpt lat="49.21365" lon="-0.17957">
        <ele>4.6</ele>
        <time>2024-07-03T14:46:22Z</time>
      </trkpt>
      <trkpt lat="49.21372" lon="-0.17953">
        <ele>4.6</ele>
        <time>2024-07-03T14:46:23Z</time>
      </trkpt>
      <trkpt lat="49.2138" lon="-0.17949">
        <ele>4.6</ele>
        <time>2024-07-03T14:46:24Z</time>
      </trkpt>
      <trkpt lat="49.21387" lon="-0.17945">
        <ele>4.6</ele>
        <time>2024-07-03T14:46:25Z</time>
      </trkpt>
      <trkpt lat="49.21394" lon="-0.17942">
        <ele>4.6</ele>
        <time>2024-07-03T14:46:26Z</time>
      </trkpt>
      <trkpt lat="49.21401" lon="-0.17941">
        <ele>4.6</ele>
        <time>2024-07-03T14:46:27Z</time>
      </trkpt>
      <trkpt lat="49.21407" lon="-0.1794">
        <ele>4.8</ele>
        <time>2024-07-03T14:46:28Z</time>
      </trkpt>
      <trkpt lat="49.21412" lon="-0.1794">
        <ele>4.8</ele>
        <time>2024-07-03T14:46:29Z</time>
      </trkpt>
      <trkpt lat="49.21416" lon="-0.1794">
        <ele>4.8</ele>
        <time>2024-07-03T14:46:30Z</time>
      </trkpt>
      <trkpt lat="49.2142" lon="-0.17941">
        <ele>4.8</ele>
        <time>2024-07-03T14:46:31Z</time>
      </trkpt>
      <trkpt lat="49.21424" lon="-0.17941">
        <ele>4.8</ele>
        <time>2024-07-03T14:46:32Z</time>
      </trkpt>
      <trkpt lat="49.21428" lon="-0.17942">
        <ele>4.8</ele>
        <time>2024-07-03T14:46:33Z</time>
      </trkpt>
      <trkpt lat="49.21431" lon="-0.17942">
        <ele>4.8</ele>
        <time>2024-07-03T14:46:34Z</time>
      </trkpt>
      <trkpt lat="49.21435" lon="-0.17943">
        <ele>4.8</ele>
        <time>2024-07-03T14:46:35Z</time>
      </trkpt>
      <trkpt lat="49.21438" lon="-0.17944">
        <ele>5</ele>
        <time>2024-07-03T14:46:36Z</time>
      </trkpt>
      <trkpt lat="49.21441" lon="-0.17945">
        <ele>5.2</ele>
        <time>2024-07-03T14:46:37Z</time>
      </trkpt>
      <trkpt lat="49.21445" lon="-0.17946">
        <ele>5.4</ele>
        <time>2024-07-03T14:46:38Z</time>
      </trkpt>
      <trkpt lat="49.21449" lon="-0.17947">
        <ele>5.4</ele>
        <time>2024-07-03T14:46:39Z</time>
      </trkpt>
      <trkpt lat="49.21453" lon="-0.17947">
        <ele>5.6</ele>
        <time>2024-07-03T14:46:40Z</time>
      </trkpt>
      <trkpt lat="49.21457" lon="-0.17948">
        <ele>5.6</ele>
        <time>2024-07-03T14:46:41Z</time>
      </trkpt>
      <trkpt lat="49.21461" lon="-0.1795">
        <ele>5.4</ele>
        <time>2024-07-03T14:46:42Z</time>
      </trkpt>
      <trkpt lat="49.21466" lon="-0.17951">
        <ele>5.2</ele>
        <time>2024-07-03T14:46:43Z</time>
      </trkpt>
      <trkpt lat="49.21471" lon="-0.17952">
        <ele>5.2</ele>
        <time>2024-07-03T14:46:44Z</time>
      </trkpt>
      <trkpt lat="49.21477" lon="-0.17952">
        <ele>5.2</ele>
        <time>2024-07-03T14:46:45Z</time>
      </trkpt>
      <trkpt lat="49.21483" lon="-0.17952">
        <ele>5.2</ele>
        <time>2024-07-03T14:46:46Z</time>
      </trkpt>
      <trkpt lat="49.21489" lon="-0.17951">
        <ele>5.4</ele>
        <time>2024-07-03T14:46:47Z</time>
      </trkpt>
      <trkpt lat="49.21495" lon="-0.1795">
        <ele>5.6</ele>
        <time>2024-07-03T14:46:48Z</time>
      </trkpt>
      <trkpt lat="49.21502" lon="-0.17949">
        <ele>5.6</ele>
        <time>2024-07-03T14:46:49Z</time>
      </trkpt>
      <trkpt lat="49.21509" lon="-0.17948">
        <ele>5.6</ele>
        <time>2024-07-03T14:46:50Z</time>
      </trkpt>
      <trkpt lat="49.21516" lon="-0.17946">
        <ele>5.6</ele>
        <time>2024-07-03T14:46:51Z</time>
      </trkpt>
      <trkpt lat="49.21524" lon="-0.17944">
        <ele>5.2</ele>
        <time>2024-07-03T14:46:52Z</time>
      </trkpt>
      <trkpt lat="49.21531" lon="-0.17942">
        <ele>4.8</ele>
        <time>2024-07-03T14:46:53Z</time>
      </trkpt>
      <trkpt lat="49.21539" lon="-0.1794">
        <ele>4.4</ele>
        <time>2024-07-03T14:46:54Z</time>
      </trkpt>
      <trkpt lat="49.21547" lon="-0.17938">
        <ele>4.4</ele>
        <time>2024-07-03T14:46:55Z</time>
      </trkpt>
      <trkpt lat="49.21555" lon="-0.17935">
        <ele>4.2</ele>
        <time>2024-07-03T14:46:56Z</time>
      </trkpt>
      <trkpt lat="49.21563" lon="-0.17933">
        <ele>4.2</ele>
        <time>2024-07-03T14:46:57Z</time>
      </trkpt>
      <trkpt lat="49.21571" lon="-0.1793">
        <ele>4.2</ele>
        <time>2024-07-03T14:46:58Z</time>
      </trkpt>
      <trkpt lat="49.21579" lon="-0.17928">
        <ele>4.4</ele>
        <time>2024-07-03T14:46:59Z</time>
      </trkpt>
      <trkpt lat="49.21588" lon="-0.17924">
        <ele>4.6</ele>
        <time>2024-07-03T14:47:00Z</time>
      </trkpt>
      <trkpt lat="49.21597" lon="-0.1792">
        <ele>4.8</ele>
        <time>2024-07-03T14:47:01Z</time>
      </trkpt>
      <trkpt lat="49.21606" lon="-0.17916">
        <ele>5</ele>
        <time>2024-07-03T14:47:02Z</time>
      </trkpt>
      <trkpt lat="49.21614" lon="-0.17912">
        <ele>5</ele>
        <time>2024-07-03T14:47:03Z</time>
      </trkpt>
      <trkpt lat="49.21622" lon="-0.17907">
        <ele>5.2</ele>
        <time>2024-07-03T14:47:04Z</time>
      </trkpt>
      <trkpt lat="49.21631" lon="-0.17903">
        <ele>5.4</ele>
        <time>2024-07-03T14:47:05Z</time>
      </trkpt>
      <trkpt lat="49.21639" lon="-0.17899">
        <ele>5.6</ele>
        <time>2024-07-03T14:47:06Z</time>
      </trkpt>
      <trkpt lat="49.21648" lon="-0.17896">
        <ele>6</ele>
        <time>2024-07-03T14:47:07Z</time>
      </trkpt>
      <trkpt lat="49.21657" lon="-0.17892">
        <ele>6</ele>
        <time>2024-07-03T14:47:08Z</time>
      </trkpt>
      <trkpt lat="49.21666" lon="-0.17889">
        <ele>6.2</ele>
        <time>2024-07-03T14:47:09Z</time>
      </trkpt>
      <trkpt lat="49.21675" lon="-0.17886">
        <ele>6.2</ele>
        <time>2024-07-03T14:47:10Z</time>
      </trkpt>
      <trkpt lat="49.21684" lon="-0.17883">
        <ele>6.2</ele>
        <time>2024-07-03T14:47:11Z</time>
      </trkpt>
      <trkpt lat="49.21693" lon="-0.17881">
        <ele>6</ele>
        <time>2024-07-03T14:47:12Z</time>
      </trkpt>
      <trkpt lat="49.21702" lon="-0.17878">
        <ele>6</ele>
        <time>2024-07-03T14:47:13Z</time>
      </trkpt>
      <trkpt lat="49.2171" lon="-0.17878">
        <ele>6</ele>
        <time>2024-07-03T14:47:14Z</time>
      </trkpt>
      <trkpt lat="49.21718" lon="-0.17878">
        <ele>5.8</ele>
        <time>2024-07-03T14:47:15Z</time>
      </trkpt>
      <trkpt lat="49.21727" lon="-0.17878">
        <ele>5.8</ele>
        <time>2024-07-03T14:47:16Z</time>
      </trkpt>
      <trkpt lat="49.21735" lon="-0.17878">
        <ele>6</ele>
        <time>2024-07-03T14:47:17Z</time>
      </trkpt>
      <trkpt lat="49.21744" lon="-0.17879">
        <ele>6</ele>
        <time>2024-07-03T14:47:18Z</time>
      </trkpt>
      <trkpt lat="49.21752" lon="-0.1788">
        <ele>6</ele>
        <time>2024-07-03T14:47:19Z</time>
      </trkpt>
      <trkpt lat="49.2176" lon="-0.17881">
        <ele>6.2</ele>
        <time>2024-07-03T14:47:20Z</time>
      </trkpt>
      <trkpt lat="49.21768" lon="-0.17883">
        <ele>6.2</ele>
        <time>2024-07-03T14:47:21Z</time>
      </trkpt>
      <trkpt lat="49.21777" lon="-0.17885">
        <ele>6.6</ele>
        <time>2024-07-03T14:47:22Z</time>
      </trkpt>
      <trkpt lat="49.21786" lon="-0.17887">
        <ele>6.8</ele>
        <time>2024-07-03T14:47:23Z</time>
      </trkpt>
      <trkpt lat="49.21794" lon="-0.17889">
        <ele>7</ele>
        <time>2024-07-03T14:47:24Z</time>
      </trkpt>
      <trkpt lat="49.21801" lon="-0.17891">
        <ele>7.4</ele>
        <time>2024-07-03T14:47:25Z</time>
      </trkpt>
      <trkpt lat="49.21809" lon="-0.17893">
        <ele>7.6</ele>
        <time>2024-07-03T14:47:26Z</time>
      </trkpt>
      <trkpt lat="49.21817" lon="-0.17895">
        <ele>7.8</ele>
        <time>2024-07-03T14:47:27Z</time>
      </trkpt>
      <trkpt lat="49.21825" lon="-0.17898">
        <ele>8</ele>
        <time>2024-07-03T14:47:28Z</time>
      </trkpt>
      <trkpt lat="49.21834" lon="-0.17901">
        <ele>8.2</ele>
        <time>2024-07-03T14:47:29Z</time>
      </trkpt>
      <trkpt lat="49.21842" lon="-0.17905">
        <ele>8.6</ele>
        <time>2024-07-03T14:47:30Z</time>
      </trkpt>
      <trkpt lat="49.2185" lon="-0.17908">
        <ele>9</ele>
        <time>2024-07-03T14:47:31Z</time>
      </trkpt>
      <trkpt lat="49.21858" lon="-0.17912">
        <ele>9.6</ele>
        <time>2024-07-03T14:47:32Z</time>
      </trkpt>
      <trkpt lat="49.21866" lon="-0.17915">
        <ele>9.8</ele>
        <time>2024-07-03T14:47:33Z</time>
      </trkpt>
      <trkpt lat="49.21874" lon="-0.17917">
        <ele>10</ele>
        <time>2024-07-03T14:47:34Z</time>
      </trkpt>
      <trkpt lat="49.21882" lon="-0.17919">
        <ele>10.2</ele>
        <time>2024-07-03T14:47:35Z</time>
      </trkpt>
      <trkpt lat="49.2189" lon="-0.17922">
        <ele>10.4</ele>
        <time>2024-07-03T14:47:36Z</time>
      </trkpt>
      <trkpt lat="49.21899" lon="-0.17924">
        <ele>10.4</ele>
        <time>2024-07-03T14:47:37Z</time>
      </trkpt>
      <trkpt lat="49.21908" lon="-0.17925">
        <ele>10.4</ele>
        <time>2024-07-03T14:47:38Z</time>
      </trkpt>
      <trkpt lat="49.21917" lon="-0.17926">
        <ele>10.2</ele>
        <time>2024-07-03T14:47:39Z</time>
      </trkpt>
      <trkpt lat="49.21927" lon="-0.17926">
        <ele>10</ele>
        <time>2024-07-03T14:47:40Z</time>
      </trkpt>
      <trkpt lat="49.21937" lon="-0.17926">
        <ele>9.6</ele>
        <time>2024-07-03T14:47:41Z</time>
      </trkpt>
      <trkpt lat="49.21947" lon="-0.17925">
        <ele>8.8</ele>
        <time>2024-07-03T14:47:42Z</time>
      </trkpt>
      <trkpt lat="49.21957" lon="-0.17922">
        <ele>8.2</ele>
        <time>2024-07-03T14:47:43Z</time>
      </trkpt>
      <trkpt lat="49.21967" lon="-0.1792">
        <ele>7.8</ele>
        <time>2024-07-03T14:47:44Z</time>
      </trkpt>
      <trkpt lat="49.21978" lon="-0.17916">
        <ele>7.2</ele>
        <time>2024-07-03T14:47:45Z</time>
      </trkpt>
      <trkpt lat="49.21988" lon="-0.17912">
        <ele>6.8</ele>
        <time>2024-07-03T14:47:46Z</time>
      </trkpt>
      <trkpt lat="49.21998" lon="-0.17907">
        <ele>6.4</ele>
        <time>2024-07-03T14:47:47Z</time>
      </trkpt>
      <trkpt lat="49.22008" lon="-0.17902">
        <ele>6.2</ele>
        <time>2024-07-03T14:47:48Z</time>
      </trkpt>
      <trkpt lat="49.22017" lon="-0.17896">
        <ele>6</ele>
        <time>2024-07-03T14:47:49Z</time>
      </trkpt>
      <trkpt lat="49.22026" lon="-0.1789">
        <ele>5.6</ele>
        <time>2024-07-03T14:47:50Z</time>
      </trkpt>
      <trkpt lat="49.22035" lon="-0.17884">
        <ele>5.4</ele>
        <time>2024-07-03T14:47:51Z</time>
      </trkpt>
      <trkpt lat="49.22043" lon="-0.17879">
        <ele>5.4</ele>
        <time>2024-07-03T14:47:52Z</time>
      </trkpt>
      <trkpt lat="49.22051" lon="-0.17874">
        <ele>5.2</ele>
        <time>2024-07-03T14:47:53Z</time>
      </trkpt>
      <trkpt lat="49.22059" lon="-0.1787">
        <ele>5.2</ele>
        <time>2024-07-03T14:47:54Z</time>
      </trkpt>
      <trkpt lat="49.22067" lon="-0.17867">
        <ele>5</ele>
        <time>2024-07-03T14:47:55Z</time>
      </trkpt>
      <trkpt lat="49.22075" lon="-0.17864">
        <ele>5.2</ele>
        <time>2024-07-03T14:47:56Z</time>
      </trkpt>
      <trkpt lat="49.22083" lon="-0.17861">
        <ele>5.4</ele>
        <time>2024-07-03T14:47:57Z</time>
      </trkpt>
      <trkpt lat="49.22092" lon="-0.1786">
        <ele>5.6</ele>
        <time>2024-07-03T14:47:58Z</time>
      </trkpt>
      <trkpt lat="49.221" lon="-0.17859">
        <ele>5.8</ele>
        <time>2024-07-03T14:47:59Z</time>
      </trkpt>
      <trkpt lat="49.22109" lon="-0.17858">
        <ele>6</ele>
        <time>2024-07-03T14:48:00Z</time>
      </trkpt>
      <trkpt lat="49.22118" lon="-0.17857">
        <ele>6</ele>
        <time>2024-07-03T14:48:01Z</time>
      </trkpt>
      <trkpt lat="49.22127" lon="-0.17855">
        <ele>5.8</ele>
        <time>2024-07-03T14:48:02Z</time>
      </trkpt>
      <trkpt lat="49.22137" lon="-0.17854">
        <ele>5.8</ele>
        <time>2024-07-03T14:48:03Z</time>
      </trkpt>
      <trkpt lat="49.22147" lon="-0.17852">
        <ele>6</ele>
        <time>2024-07-03T14:48:04Z</time>
      </trkpt>
      <trkpt lat="49.22157" lon="-0.17851">
        <ele>6</ele>
        <time>2024-07-03T14:48:05Z</time>
      </trkpt>
      <trkpt lat="49.22166" lon="-0.17848">
        <ele>6</ele>
        <time>2024-07-03T14:48:06Z</time>
      </trkpt>
      <trkpt lat="49.22175" lon="-0.17845">
        <ele>6</ele>
        <time>2024-07-03T14:48:07Z</time>
      </trkpt>
      <trkpt lat="49.22185" lon="-0.17842">
        <ele>6</ele>
        <time>2024-07-03T14:48:08Z</time>
      </trkpt>
      <trkpt lat="49.22194" lon="-0.17838">
        <ele>6</ele>
        <time>2024-07-03T14:48:09Z</time>
      </trkpt>
      <trkpt lat="49.22204" lon="-0.17834">
        <ele>5.8</ele>
        <time>2024-07-03T14:48:10Z</time>
      </trkpt>
      <trkpt lat="49.22213" lon="-0.1783">
        <ele>5.8</ele>
        <time>2024-07-03T14:48:11Z</time>
      </trkpt>
      <trkpt lat="49.22223" lon="-0.17826">
        <ele>5.6</ele>
        <time>2024-07-03T14:48:12Z</time>
      </trkpt>
      <trkpt lat="49.22233" lon="-0.17824">
        <ele>5.4</ele>
        <time>2024-07-03T14:48:13Z</time>
      </trkpt>
      <trkpt lat="49.22243" lon="-0.17822">
        <ele>5.2</ele>
        <time>2024-07-03T14:48:14Z</time>
      </trkpt>
      <trkpt lat="49.22253" lon="-0.1782">
        <ele>5.2</ele>
        <time>2024-07-03T14:48:15Z</time>
      </trkpt>
      <trkpt lat="49.22262" lon="-0.17819">
        <ele>5.2</ele>
        <time>2024-07-03T14:48:16Z</time>
      </trkpt>
      <trkpt lat="49.22272" lon="-0.17818">
        <ele>5.4</ele>
        <time>2024-07-03T14:48:17Z</time>
      </trkpt>
      <trkpt lat="49.22281" lon="-0.17818">
        <ele>5.4</ele>
        <time>2024-07-03T14:48:18Z</time>
      </trkpt>
      <trkpt lat="49.2229" lon="-0.17817">
        <ele>5.6</ele>
        <time>2024-07-03T14:48:19Z</time>
      </trkpt>
      <trkpt lat="49.22298" lon="-0.17817">
        <ele>5.8</ele>
        <time>2024-07-03T14:48:20Z</time>
      </trkpt>
      <trkpt lat="49.22307" lon="-0.17816">
        <ele>5.8</ele>
        <time>2024-07-03T14:48:21Z</time>
      </trkpt>
      <trkpt lat="49.22315" lon="-0.17816">
        <ele>6</ele>
        <time>2024-07-03T14:48:22Z</time>
      </trkpt>
      <trkpt lat="49.22324" lon="-0.17815">
        <ele>6.2</ele>
        <time>2024-07-03T14:48:23Z</time>
      </trkpt>
      <trkpt lat="49.22332" lon="-0.17815">
        <ele>6.4</ele>
        <time>2024-07-03T14:48:24Z</time>
      </trkpt>
      <trkpt lat="49.2234" lon="-0.17815">
        <ele>6.4</ele>
        <time>2024-07-03T14:48:25Z</time>
      </trkpt>
      <trkpt lat="49.22349" lon="-0.17815">
        <ele>6.6</ele>
        <time>2024-07-03T14:48:26Z</time>
      </trkpt>
      <trkpt lat="49.22358" lon="-0.17816">
        <ele>6.6</ele>
        <time>2024-07-03T14:48:27Z</time>
      </trkpt>
      <trkpt lat="49.22366" lon="-0.17817">
        <ele>6.6</ele>
        <time>2024-07-03T14:48:28Z</time>
      </trkpt>
      <trkpt lat="49.22375" lon="-0.1782">
        <ele>6.6</ele>
        <time>2024-07-03T14:48:29Z</time>
      </trkpt>
      <trkpt lat="49.22384" lon="-0.17822">
        <ele>6.8</ele>
        <time>2024-07-03T14:48:30Z</time>
      </trkpt>
      <trkpt lat="49.22393" lon="-0.17825">
        <ele>6.8</ele>
        <time>2024-07-03T14:48:31Z</time>
      </trkpt>
      <trkpt lat="49.22401" lon="-0.17829">
        <ele>7</ele>
        <time>2024-07-03T14:48:32Z</time>
      </trkpt>
      <trkpt lat="49.2241" lon="-0.17833">
        <ele>7.2</ele>
        <time>2024-07-03T14:48:33Z</time>
      </trkpt>
      <trkpt lat="49.22419" lon="-0.17836">
        <ele>7.6</ele>
        <time>2024-07-03T14:48:34Z</time>
      </trkpt>
      <trkpt lat="49.22428" lon="-0.1784">
        <ele>7.8</ele>
        <time>2024-07-03T14:48:35Z</time>
      </trkpt>
      <trkpt lat="49.22437" lon="-0.17844">
        <ele>8</ele>
        <time>2024-07-03T14:48:36Z</time>
      </trkpt>
      <trkpt lat="49.22446" lon="-0.17847">
        <ele>8</ele>
        <time>2024-07-03T14:48:37Z</time>
      </trkpt>
      <trkpt lat="49.22455" lon="-0.1785">
        <ele>8.2</ele>
        <time>2024-07-03T14:48:38Z</time>
      </trkpt>
      <trkpt lat="49.22463" lon="-0.17854">
        <ele>8.2</ele>
        <time>2024-07-03T14:48:39Z</time>
      </trkpt>
      <trkpt lat="49.22472" lon="-0.17857">
        <ele>8.2</ele>
        <time>2024-07-03T14:48:40Z</time>
      </trkpt>
      <trkpt lat="49.22481" lon="-0.17859">
        <ele>8</ele>
        <time>2024-07-03T14:48:41Z</time>
      </trkpt>
      <trkpt lat="49.2249" lon="-0.17862">
        <ele>7.6</ele>
        <time>2024-07-03T14:48:42Z</time>
      </trkpt>
      <trkpt lat="49.22499" lon="-0.17864">
        <ele>7.6</ele>
        <time>2024-07-03T14:48:43Z</time>
      </trkpt>
      <trkpt lat="49.22508" lon="-0.17866">
        <ele>7.2</ele>
        <time>2024-07-03T14:48:44Z</time>
      </trkpt>
      <trkpt lat="49.22518" lon="-0.17868">
        <ele>7</ele>
        <time>2024-07-03T14:48:45Z</time>
      </trkpt>
      <trkpt lat="49.22527" lon="-0.17869">
        <ele>6.8</ele>
        <time>2024-07-03T14:48:46Z</time>
      </trkpt>
      <trkpt lat="49.22537" lon="-0.1787">
        <ele>6.8</ele>
        <time>2024-07-03T14:48:47Z</time>
      </trkpt>
      <trkpt lat="49.22547" lon="-0.1787">
        <ele>6.6</ele>
        <time>2024-07-03T14:48:48Z</time>
      </trkpt>
      <trkpt lat="49.22556" lon="-0.1787">
        <ele>6.6</ele>
        <time>2024-07-03T14:48:49Z</time>
      </trkpt>
      <trkpt lat="49.22566" lon="-0.1787">
        <ele>6.2</ele>
        <time>2024-07-03T14:48:50Z</time>
      </trkpt>
      <trkpt lat="49.22576" lon="-0.17869">
        <ele>5.8</ele>
        <time>2024-07-03T14:48:51Z</time>
      </trkpt>
      <trkpt lat="49.22586" lon="-0.17867">
        <ele>5.4</ele>
        <time>2024-07-03T14:48:52Z</time>
      </trkpt>
      <trkpt lat="49.22595" lon="-0.17865">
        <ele>5.2</ele>
        <time>2024-07-03T14:48:53Z</time>
      </trkpt>
      <trkpt lat="49.22605" lon="-0.17862">
        <ele>5.2</ele>
        <time>2024-07-03T14:48:54Z</time>
      </trkpt>
      <trkpt lat="49.22615" lon="-0.17858">
        <ele>5.2</ele>
        <time>2024-07-03T14:48:55Z</time>
      </trkpt>
      <trkpt lat="49.22625" lon="-0.17854">
        <ele>5.8</ele>
        <time>2024-07-03T14:48:56Z</time>
      </trkpt>
      <trkpt lat="49.22635" lon="-0.17849">
        <ele>6.2</ele>
        <time>2024-07-03T14:48:57Z</time>
      </trkpt>
      <trkpt lat="49.22645" lon="-0.17843">
        <ele>6.4</ele>
        <time>2024-07-03T14:48:58Z</time>
      </trkpt>
      <trkpt lat="49.22655" lon="-0.17837">
        <ele>6.4</ele>
        <time>2024-07-03T14:48:59Z</time>
      </trkpt>
      <trkpt lat="49.22664" lon="-0.17829">
        <ele>6.4</ele>
        <time>2024-07-03T14:49:00Z</time>
      </trkpt>
      <trkpt lat="49.22673" lon="-0.17821">
        <ele>6.2</ele>
        <time>2024-07-03T14:49:01Z</time>
      </trkpt>
      <trkpt lat="49.22681" lon="-0.17811">
        <ele>6.2</ele>
        <time>2024-07-03T14:49:02Z</time>
      </trkpt>
      <trkpt lat="49.22689" lon="-0.178">
        <ele>6</ele>
        <time>2024-07-03T14:49:03Z</time>
      </trkpt>
      <trkpt lat="49.22696" lon="-0.17789">
        <ele>5.8</ele>
        <time>2024-07-03T14:49:04Z</time>
      </trkpt>
      <trkpt lat="49.22703" lon="-0.17777">
        <ele>5.6</ele>
        <time>2024-07-03T14:49:05Z</time>
      </trkpt>
      <trkpt lat="49.2271" lon="-0.17765">
        <ele>5.6</ele>
        <time>2024-07-03T14:49:06Z</time>
      </trkpt>
      <trkpt lat="49.22717" lon="-0.17754">
        <ele>5.6</ele>
        <time>2024-07-03T14:49:07Z</time>
      </trkpt>
      <trkpt lat="49.22724" lon="-0.17744">
        <ele>5.6</ele>
        <time>2024-07-03T14:49:08Z</time>
      </trkpt>
      <trkpt lat="49.22732" lon="-0.17735">
        <ele>5.6</ele>
        <time>2024-07-03T14:49:09Z</time>
      </trkpt>
      <trkpt lat="49.22741" lon="-0.17727">
        <ele>5.6</ele>
        <time>2024-07-03T14:49:10Z</time>
      </trkpt>
      <trkpt lat="49.2275" lon="-0.17721">
        <ele>5.6</ele>
        <time>2024-07-03T14:49:11Z</time>
      </trkpt>
      <trkpt lat="49.22758" lon="-0.17714">
        <ele>5.6</ele>
        <time>2024-07-03T14:49:12Z</time>
      </trkpt>
      <trkpt lat="49.22766" lon="-0.17709">
        <ele>5.6</ele>
        <time>2024-07-03T14:49:13Z</time>
      </trkpt>
      <trkpt lat="49.22775" lon="-0.17705">
        <ele>5.8</ele>
        <time>2024-07-03T14:49:14Z</time>
      </trkpt>
      <trkpt lat="49.22784" lon="-0.17701">
        <ele>5.6</ele>
        <time>2024-07-03T14:49:15Z</time>
      </trkpt>
      <trkpt lat="49.22793" lon="-0.17698">
        <ele>5.6</ele>
        <time>2024-07-03T14:49:16Z</time>
      </trkpt>
      <trkpt lat="49.22803" lon="-0.17696">
        <ele>5.4</ele>
        <time>2024-07-03T14:49:17Z</time>
      </trkpt>
      <trkpt lat="49.22813" lon="-0.17694">
        <ele>5.6</ele>
        <time>2024-07-03T14:49:18Z</time>
      </trkpt>
      <trkpt lat="49.22822" lon="-0.17692">
        <ele>5.6</ele>
        <time>2024-07-03T14:49:19Z</time>
      </trkpt>
      <trkpt lat="49.22831" lon="-0.17691">
        <ele>5.6</ele>
        <time>2024-07-03T14:49:20Z</time>
      </trkpt>
      <trkpt lat="49.2284" lon="-0.1769">
        <ele>5.4</ele>
        <time>2024-07-03T14:49:21Z</time>
      </trkpt>
      <trkpt lat="49.22849" lon="-0.17688">
        <ele>5.2</ele>
        <time>2024-07-03T14:49:22Z</time>
      </trkpt>
      <trkpt lat="49.22858" lon="-0.17688">
        <ele>5.2</ele>
        <time>2024-07-03T14:49:23Z</time>
      </trkpt>
      <trkpt lat="49.22867" lon="-0.17687">
        <ele>5.2</ele>
        <time>2024-07-03T14:49:24Z</time>
      </trkpt>
      <trkpt lat="49.22876" lon="-0.17686">
        <ele>5.2</ele>
        <time>2024-07-03T14:49:25Z</time>
      </trkpt>
      <trkpt lat="49.22885" lon="-0.17685">
        <ele>5</ele>
        <time>2024-07-03T14:49:26Z</time>
      </trkpt>
      <trkpt lat="49.22893" lon="-0.17682">
        <ele>5</ele>
        <time>2024-07-03T14:49:27Z</time>
      </trkpt>
      <trkpt lat="49.22902" lon="-0.1768">
        <ele>5</ele>
        <time>2024-07-03T14:49:28Z</time>
      </trkpt>
      <trkpt lat="49.2291" lon="-0.17677">
        <ele>5</ele>
        <time>2024-07-03T14:49:29Z</time>
      </trkpt>
      <trkpt lat="49.22918" lon="-0.17673">
        <ele>5</ele>
        <time>2024-07-03T14:49:30Z</time>
      </trkpt>
      <trkpt lat="49.22926" lon="-0.17669">
        <ele>5.2</ele>
        <time>2024-07-03T14:49:31Z</time>
      </trkpt>
      <trkpt lat="49.22935" lon="-0.17665">
        <ele>5.2</ele>
        <time>2024-07-03T14:49:32Z</time>
      </trkpt>
      <trkpt lat="49.22943" lon="-0.1766">
        <ele>5</ele>
        <time>2024-07-03T14:49:33Z</time>
      </trkpt>
      <trkpt lat="49.2295" lon="-0.17656">
        <ele>5</ele>
        <time>2024-07-03T14:49:34Z</time>
      </trkpt>
      <trkpt lat="49.22958" lon="-0.17651">
        <ele>5</ele>
        <time>2024-07-03T14:49:35Z</time>
      </trkpt>
      <trkpt lat="49.22966" lon="-0.17646">
        <ele>5</ele>
        <time>2024-07-03T14:49:36Z</time>
      </trkpt>
      <trkpt lat="49.22974" lon="-0.17642">
        <ele>5.2</ele>
        <time>2024-07-03T14:49:37Z</time>
      </trkpt>
      <trkpt lat="49.22983" lon="-0.17637">
        <ele>5.2</ele>
        <time>2024-07-03T14:49:38Z</time>
      </trkpt>
      <trkpt lat="49.22992" lon="-0.17633">
        <ele>5.4</ele>
        <time>2024-07-03T14:49:39Z</time>
      </trkpt>
      <trkpt lat="49.23002" lon="-0.17629">
        <ele>5.6</ele>
        <time>2024-07-03T14:49:40Z</time>
      </trkpt>
      <trkpt lat="49.23011" lon="-0.17625">
        <ele>5.8</ele>
        <time>2024-07-03T14:49:41Z</time>
      </trkpt>
      <trkpt lat="49.2302" lon="-0.17621">
        <ele>5.8</ele>
        <time>2024-07-03T14:49:42Z</time>
      </trkpt>
      <trkpt lat="49.2303" lon="-0.17618">
        <ele>5.8</ele>
        <time>2024-07-03T14:49:43Z</time>
      </trkpt>
      <trkpt lat="49.23039" lon="-0.17615">
        <ele>6</ele>
        <time>2024-07-03T14:49:44Z</time>
      </trkpt>
      <trkpt lat="49.23049" lon="-0.17612">
        <ele>6</ele>
        <time>2024-07-03T14:49:45Z</time>
      </trkpt>
      <trkpt lat="49.23058" lon="-0.1761">
        <ele>6.2</ele>
        <time>2024-07-03T14:49:46Z</time>
      </trkpt>
      <trkpt lat="49.23068" lon="-0.17609">
        <ele>6.2</ele>
        <time>2024-07-03T14:49:47Z</time>
      </trkpt>
      <trkpt lat="49.23077" lon="-0.17608">
        <ele>6.4</ele>
        <time>2024-07-03T14:49:48Z</time>
      </trkpt>
      <trkpt lat="49.23086" lon="-0.17608">
        <ele>6.6</ele>
        <time>2024-07-03T14:49:49Z</time>
      </trkpt>
      <trkpt lat="49.23096" lon="-0.17608">
        <ele>6.8</ele>
        <time>2024-07-03T14:49:50Z</time>
      </trkpt>
      <trkpt lat="49.23105" lon="-0.17608">
        <ele>7</ele>
        <time>2024-07-03T14:49:51Z</time>
      </trkpt>
      <trkpt lat="49.23114" lon="-0.17609">
        <ele>7</ele>
        <time>2024-07-03T14:49:52Z</time>
      </trkpt>
      <trkpt lat="49.23123" lon="-0.1761">
        <ele>7</ele>
        <time>2024-07-03T14:49:53Z</time>
      </trkpt>
      <trkpt lat="49.23132" lon="-0.17612">
        <ele>7</ele>
        <time>2024-07-03T14:49:54Z</time>
      </trkpt>
      <trkpt lat="49.23142" lon="-0.17614">
        <ele>6.8</ele>
        <time>2024-07-03T14:49:55Z</time>
      </trkpt>
      <trkpt lat="49.23151" lon="-0.17617">
        <ele>6.8</ele>
        <time>2024-07-03T14:49:56Z</time>
      </trkpt>
      <trkpt lat="49.23161" lon="-0.1762">
        <ele>6.8</ele>
        <time>2024-07-03T14:49:57Z</time>
      </trkpt>
      <trkpt lat="49.2317" lon="-0.17623">
        <ele>7</ele>
        <time>2024-07-03T14:49:58Z</time>
      </trkpt>
      <trkpt lat="49.2318" lon="-0.17626">
        <ele>6.8</ele>
        <time>2024-07-03T14:49:59Z</time>
      </trkpt>
      <trkpt lat="49.2319" lon="-0.17631">
        <ele>6.8</ele>
        <time>2024-07-03T14:50:00Z</time>
      </trkpt>
      <trkpt lat="49.232" lon="-0.17635">
        <ele>6.8</ele>
        <time>2024-07-03T14:50:01Z</time>
      </trkpt>
      <trkpt lat="49.2321" lon="-0.1764">
        <ele>7</ele>
        <time>2024-07-03T14:50:02Z</time>
      </trkpt>
      <trkpt lat="49.2322" lon="-0.17645">
        <ele>7</ele>
        <time>2024-07-03T14:50:03Z</time>
      </trkpt>
      <trkpt lat="49.23229" lon="-0.17649">
        <ele>7</ele>
        <time>2024-07-03T14:50:04Z</time>
      </trkpt>
      <trkpt lat="49.23239" lon="-0.17654">
        <ele>7</ele>
        <time>2024-07-03T14:50:05Z</time>
      </trkpt>
      <trkpt lat="49.23249" lon="-0.1766">
        <ele>7</ele>
        <time>2024-07-03T14:50:06Z</time>
      </trkpt>
      <trkpt lat="49.23259" lon="-0.17665">
        <ele>7</ele>
        <time>2024-07-03T14:50:07Z</time>
      </trkpt>
      <trkpt lat="49.23268" lon="-0.1767">
        <ele>6.8</ele>
        <time>2024-07-03T14:50:08Z</time>
      </trkpt>
      <trkpt lat="49.23278" lon="-0.17676">
        <ele>6.6</ele>
        <time>2024-07-03T14:50:09Z</time>
      </trkpt>
      <trkpt lat="49.23288" lon="-0.17681">
        <ele>6.6</ele>
        <time>2024-07-03T14:50:10Z</time>
      </trkpt>
      <trkpt lat="49.23297" lon="-0.17687">
        <ele>6.4</ele>
        <time>2024-07-03T14:50:11Z</time>
      </trkpt>
      <trkpt lat="49.23307" lon="-0.17693">
        <ele>6.4</ele>
        <time>2024-07-03T14:50:12Z</time>
      </trkpt>
      <trkpt lat="49.23317" lon="-0.17699">
        <ele>6.4</ele>
        <time>2024-07-03T14:50:13Z</time>
      </trkpt>
      <trkpt lat="49.23327" lon="-0.17705">
        <ele>6.4</ele>
        <time>2024-07-03T14:50:14Z</time>
      </trkpt>
      <trkpt lat="49.23336" lon="-0.17712">
        <ele>6.4</ele>
        <time>2024-07-03T14:50:15Z</time>
      </trkpt>
      <trkpt lat="49.23346" lon="-0.17718">
        <ele>6.4</ele>
        <time>2024-07-03T14:50:16Z</time>
      </trkpt>
      <trkpt lat="49.23356" lon="-0.17724">
        <ele>6.4</ele>
        <time>2024-07-03T14:50:17Z</time>
      </trkpt>
      <trkpt lat="49.23365" lon="-0.17732">
        <ele>6.4</ele>
        <time>2024-07-03T14:50:18Z</time>
      </trkpt>
      <trkpt lat="49.23375" lon="-0.17739">
        <ele>6.4</ele>
        <time>2024-07-03T14:50:19Z</time>
      </trkpt>
      <trkpt lat="49.23384" lon="-0.17747">
        <ele>6.2</ele>
        <time>2024-07-03T14:50:20Z</time>
      </trkpt>
      <trkpt lat="49.23393" lon="-0.17756">
        <ele>6</ele>
        <time>2024-07-03T14:50:21Z</time>
      </trkpt>
      <trkpt lat="49.23402" lon="-0.17764">
        <ele>5.6</ele>
        <time>2024-07-03T14:50:22Z</time>
      </trkpt>
      <trkpt lat="49.23411" lon="-0.17773">
        <ele>5</ele>
        <time>2024-07-03T14:50:23Z</time>
      </trkpt>
      <trkpt lat="49.23419" lon="-0.17781">
        <ele>4.6</ele>
        <time>2024-07-03T14:50:24Z</time>
      </trkpt>
      <trkpt lat="49.23428" lon="-0.17789">
        <ele>4.4</ele>
        <time>2024-07-03T14:50:25Z</time>
      </trkpt>
      <trkpt lat="49.23436" lon="-0.17797">
        <ele>4.2</ele>
        <time>2024-07-03T14:50:26Z</time>
      </trkpt>
      <trkpt lat="49.23444" lon="-0.17805">
        <ele>4.2</ele>
        <time>2024-07-03T14:50:27Z</time>
      </trkpt>
      <trkpt lat="49.23452" lon="-0.17813">
        <ele>4.2</ele>
        <time>2024-07-03T14:50:28Z</time>
      </trkpt>
      <trkpt lat="49.23459" lon="-0.1782">
        <ele>4.4</ele>
        <time>2024-07-03T14:50:29Z</time>
      </trkpt>
      <trkpt lat="49.23467" lon="-0.17829">
        <ele>4.4</ele>
        <time>2024-07-03T14:50:30Z</time>
      </trkpt>
      <trkpt lat="49.23475" lon="-0.17839">
        <ele>4.4</ele>
        <time>2024-07-03T14:50:31Z</time>
      </trkpt>
      <trkpt lat="49.23481" lon="-0.17849">
        <ele>4.4</ele>
        <time>2024-07-03T14:50:32Z</time>
      </trkpt>
      <trkpt lat="49.23487" lon="-0.17861">
        <ele>4.2</ele>
        <time>2024-07-03T14:50:33Z</time>
      </trkpt>
      <trkpt lat="49.23492" lon="-0.17874">
        <ele>3.6</ele>
        <time>2024-07-03T14:50:34Z</time>
      </trkpt>
      <trkpt lat="49.23495" lon="-0.17888">
        <ele>2.8</ele>
        <time>2024-07-03T14:50:35Z</time>
      </trkpt>
      <trkpt lat="49.23498" lon="-0.17901">
        <ele>2.4</ele>
        <time>2024-07-03T14:50:36Z</time>
      </trkpt>
      <trkpt lat="49.23501" lon="-0.17915">
        <ele>2</ele>
        <time>2024-07-03T14:50:37Z</time>
      </trkpt>
      <trkpt lat="49.23503" lon="-0.17929">
        <ele>2</ele>
        <time>2024-07-03T14:50:38Z</time>
      </trkpt>
      <trkpt lat="49.23506" lon="-0.17943">
        <ele>2.4</ele>
        <time>2024-07-03T14:50:39Z</time>
      </trkpt>
      <trkpt lat="49.23508" lon="-0.17956">
        <ele>3.2</ele>
        <time>2024-07-03T14:50:40Z</time>
      </trkpt>
      <trkpt lat="49.23509" lon="-0.17968">
        <ele>4.2</ele>
        <time>2024-07-03T14:50:41Z</time>
      </trkpt>
      <trkpt lat="49.23511" lon="-0.1798">
        <ele>4.6</ele>
        <time>2024-07-03T14:50:42Z</time>
      </trkpt>
      <trkpt lat="49.23513" lon="-0.1799">
        <ele>4.8</ele>
        <time>2024-07-03T14:50:43Z</time>
      </trkpt>
      <trkpt lat="49.23516" lon="-0.18">
        <ele>5.2</ele>
        <time>2024-07-03T14:50:44Z</time>
      </trkpt>
      <trkpt lat="49.23521" lon="-0.18008">
        <ele>5.4</ele>
        <time>2024-07-03T14:50:45Z</time>
      </trkpt>
      <trkpt lat="49.23527" lon="-0.18013">
        <ele>5.6</ele>
        <time>2024-07-03T14:50:46Z</time>
      </trkpt>
      <trkpt lat="49.23533" lon="-0.18016">
        <ele>6</ele>
        <time>2024-07-03T14:50:47Z</time>
      </trkpt>
      <trkpt lat="49.23541" lon="-0.18016">
        <ele>6.6</ele>
        <time>2024-07-03T14:50:48Z</time>
      </trkpt>
      <trkpt lat="49.23548" lon="-0.18014">
        <ele>6.8</ele>
        <time>2024-07-03T14:50:49Z</time>
      </trkpt>
      <trkpt lat="49.23556" lon="-0.1801">
        <ele>7</ele>
        <time>2024-07-03T14:50:50Z</time>
      </trkpt>
      <trkpt lat="49.23563" lon="-0.18007">
        <ele>7</ele>
        <time>2024-07-03T14:50:51Z</time>
      </trkpt>
      <trkpt lat="49.23571" lon="-0.18002">
        <ele>7</ele>
        <time>2024-07-03T14:50:52Z</time>
      </trkpt>
      <trkpt lat="49.23579" lon="-0.17997">
        <ele>6.8</ele>
        <time>2024-07-03T14:50:53Z</time>
      </trkpt>
      <trkpt lat="49.23587" lon="-0.17992">
        <ele>6.6</ele>
        <time>2024-07-03T14:50:54Z</time>
      </trkpt>
      <trkpt lat="49.23595" lon="-0.17987">
        <ele>6.6</ele>
        <time>2024-07-03T14:50:55Z</time>
      </trkpt>
      <trkpt lat="49.23603" lon="-0.17982">
        <ele>6.6</ele>
        <time>2024-07-03T14:50:56Z</time>
      </trkpt>
      <trkpt lat="49.23611" lon="-0.17977">
        <ele>6.4</ele>
        <time>2024-07-03T14:50:57Z</time>
      </trkpt>
      <trkpt lat="49.2362" lon="-0.17973">
        <ele>6.4</ele>
        <time>2024-07-03T14:50:58Z</time>
      </trkpt>
      <trkpt lat="49.23628" lon="-0.17968">
        <ele>6.2</ele>
        <time>2024-07-03T14:50:59Z</time>
      </trkpt>
      <trkpt lat="49.23636" lon="-0.17963">
        <ele>6.2</ele>
        <time>2024-07-03T14:51:00Z</time>
      </trkpt>
      <trkpt lat="49.23644" lon="-0.17958">
        <ele>6.2</ele>
        <time>2024-07-03T14:51:01Z</time>
      </trkpt>
      <trkpt lat="49.23653" lon="-0.17952">
        <ele>6</ele>
        <time>2024-07-03T14:51:02Z</time>
      </trkpt>
      <trkpt lat="49.23661" lon="-0.17947">
        <ele>6</ele>
        <time>2024-07-03T14:51:03Z</time>
      </trkpt>
      <trkpt lat="49.23669" lon="-0.17942">
        <ele>5.8</ele>
        <time>2024-07-03T14:51:04Z</time>
      </trkpt>
      <trkpt lat="49.23677" lon="-0.17938">
        <ele>5.8</ele>
        <time>2024-07-03T14:51:05Z</time>
      </trkpt>
      <trkpt lat="49.23685" lon="-0.17933">
        <ele>5.6</ele>
        <time>2024-07-03T14:51:06Z</time>
      </trkpt>
      <trkpt lat="49.23693" lon="-0.17928">
        <ele>5.6</ele>
        <time>2024-07-03T14:51:07Z</time>
      </trkpt>
      <trkpt lat="49.23702" lon="-0.17922">
        <ele>5.8</ele>
        <time>2024-07-03T14:51:08Z</time>
      </trkpt>
      <trkpt lat="49.2371" lon="-0.17917">
        <ele>6</ele>
        <time>2024-07-03T14:51:09Z</time>
      </trkpt>
      <trkpt lat="49.23719" lon="-0.17911">
        <ele>6.2</ele>
        <time>2024-07-03T14:51:10Z</time>
      </trkpt>
      <trkpt lat="49.23728" lon="-0.17905">
        <ele>6.2</ele>
        <time>2024-07-03T14:51:11Z</time>
      </trkpt>
      <trkpt lat="49.23737" lon="-0.17899">
        <ele>6.4</ele>
        <time>2024-07-03T14:51:12Z</time>
      </trkpt>
      <trkpt lat="49.23745" lon="-0.17892">
        <ele>6.4</ele>
        <time>2024-07-03T14:51:13Z</time>
      </trkpt>
      <trkpt lat="49.23753" lon="-0.17885">
        <ele>6.4</ele>
        <time>2024-07-03T14:51:14Z</time>
      </trkpt>
      <trkpt lat="49.23761" lon="-0.17878">
        <ele>6.4</ele>
        <time>2024-07-03T14:51:15Z</time>
      </trkpt>
      <trkpt lat="49.23769" lon="-0.1787">
        <ele>6.4</ele>
        <time>2024-07-03T14:51:16Z</time>
      </trkpt>
      <trkpt lat="49.23777" lon="-0.17863">
        <ele>6.4</ele>
        <time>2024-07-03T14:51:17Z</time>
      </trkpt>
      <trkpt lat="49.23785" lon="-0.17856">
        <ele>6.4</ele>
        <time>2024-07-03T14:51:18Z</time>
      </trkpt>
      <trkpt lat="49.23793" lon="-0.1785">
        <ele>6.4</ele>
        <time>2024-07-03T14:51:19Z</time>
      </trkpt>
      <trkpt lat="49.23801" lon="-0.17844">
        <ele>6.6</ele>
        <time>2024-07-03T14:51:20Z</time>
      </trkpt>
      <trkpt lat="49.23809" lon="-0.17838">
        <ele>6.8</ele>
        <time>2024-07-03T14:51:21Z</time>
      </trkpt>
      <trkpt lat="49.23817" lon="-0.17832">
        <ele>7</ele>
        <time>2024-07-03T14:51:22Z</time>
      </trkpt>
      <trkpt lat="49.23825" lon="-0.17825">
        <ele>7.2</ele>
        <time>2024-07-03T14:51:23Z</time>
      </trkpt>
      <trkpt lat="49.23832" lon="-0.17819">
        <ele>7.2</ele>
        <time>2024-07-03T14:51:24Z</time>
      </trkpt>
      <trkpt lat="49.23839" lon="-0.17811">
        <ele>7.4</ele>
        <time>2024-07-03T14:51:25Z</time>
      </trkpt>
      <trkpt lat="49.23847" lon="-0.17804">
        <ele>7.6</ele>
        <time>2024-07-03T14:51:26Z</time>
      </trkpt>
      <trkpt lat="49.23854" lon="-0.17798">
        <ele>7.6</ele>
        <time>2024-07-03T14:51:27Z</time>
      </trkpt>
      <trkpt lat="49.23862" lon="-0.17791">
        <ele>7.6</ele>
        <time>2024-07-03T14:51:28Z</time>
      </trkpt>
      <trkpt lat="49.23868" lon="-0.17784">
        <ele>7.8</ele>
        <time>2024-07-03T14:51:29Z</time>
      </trkpt>
      <trkpt lat="49.23875" lon="-0.17778">
        <ele>7.8</ele>
        <time>2024-07-03T14:51:30Z</time>
      </trkpt>
      <trkpt lat="49.23881" lon="-0.17773">
        <ele>7.8</ele>
        <time>2024-07-03T14:51:31Z</time>
      </trkpt>
      <trkpt lat="49.23888" lon="-0.17768">
        <ele>8</ele>
        <time>2024-07-03T14:51:32Z</time>
      </trkpt>
      <trkpt lat="49.23895" lon="-0.17764">
        <ele>8</ele>
        <time>2024-07-03T14:51:33Z</time>
      </trkpt>
      <trkpt lat="49.23902" lon="-0.17761">
        <ele>8</ele>
        <time>2024-07-03T14:51:34Z</time>
      </trkpt>
      <trkpt lat="49.23909" lon="-0.1776">
        <ele>8.2</ele>
        <time>2024-07-03T14:51:35Z</time>
      </trkpt>
      <trkpt lat="49.23916" lon="-0.17759">
        <ele>8.2</ele>
        <time>2024-07-03T14:51:36Z</time>
      </trkpt>
      <trkpt lat="49.23924" lon="-0.17759">
        <ele>8.2</ele>
        <time>2024-07-03T14:51:37Z</time>
      </trkpt>
      <trkpt lat="49.23933" lon="-0.17759">
        <ele>8.4</ele>
        <time>2024-07-03T14:51:38Z</time>
      </trkpt>
      <trkpt lat="49.23941" lon="-0.17759">
        <ele>8.6</ele>
        <time>2024-07-03T14:51:39Z</time>
      </trkpt>
      <trkpt lat="49.2395" lon="-0.17759">
        <ele>8.8</ele>
        <time>2024-07-03T14:51:40Z</time>
      </trkpt>
      <trkpt lat="49.23959" lon="-0.1776">
        <ele>9.2</ele>
        <time>2024-07-03T14:51:41Z</time>
      </trkpt>
      <trkpt lat="49.23967" lon="-0.17761">
        <ele>9.6</ele>
        <time>2024-07-03T14:51:42Z</time>
      </trkpt>
      <trkpt lat="49.23976" lon="-0.17761">
        <ele>10</ele>
        <time>2024-07-03T14:51:43Z</time>
      </trkpt>
      <trkpt lat="49.23984" lon="-0.17762">
        <ele>10.2</ele>
        <time>2024-07-03T14:51:44Z</time>
      </trkpt>
      <trkpt lat="49.23992" lon="-0.17761">
        <ele>10.4</ele>
        <time>2024-07-03T14:51:45Z</time>
      </trkpt>
      <trkpt lat="49.24" lon="-0.17759">
        <ele>10.6</ele>
        <time>2024-07-03T14:51:46Z</time>
      </trkpt>
      <trkpt lat="49.24008" lon="-0.17757">
        <ele>10.8</ele>
        <time>2024-07-03T14:51:47Z</time>
      </trkpt>
      <trkpt lat="49.24015" lon="-0.17755">
        <ele>11.2</ele>
        <time>2024-07-03T14:51:48Z</time>
      </trkpt>
      <trkpt lat="49.24023" lon="-0.17753">
        <ele>11.4</ele>
        <time>2024-07-03T14:51:49Z</time>
      </trkpt>
      <trkpt lat="49.2403" lon="-0.17751">
        <ele>11.6</ele>
        <time>2024-07-03T14:51:50Z</time>
      </trkpt>
      <trkpt lat="49.24037" lon="-0.1775">
        <ele>11.8</ele>
        <time>2024-07-03T14:51:51Z</time>
      </trkpt>
      <trkpt lat="49.24045" lon="-0.17749">
        <ele>11.8</ele>
        <time>2024-07-03T14:51:52Z</time>
      </trkpt>
      <trkpt lat="49.24052" lon="-0.17749">
        <ele>11.6</ele>
        <time>2024-07-03T14:51:53Z</time>
      </trkpt>
      <trkpt lat="49.2406" lon="-0.17749">
        <ele>11.4</ele>
        <time>2024-07-03T14:51:54Z</time>
      </trkpt>
      <trkpt lat="49.24068" lon="-0.1775">
        <ele>10.8</ele>
        <time>2024-07-03T14:51:55Z</time>
      </trkpt>
      <trkpt lat="49.24076" lon="-0.17752">
        <ele>10.6</ele>
        <time>2024-07-03T14:51:56Z</time>
      </trkpt>
      <trkpt lat="49.24085" lon="-0.17753">
        <ele>10.4</ele>
        <time>2024-07-03T14:51:57Z</time>
      </trkpt>
      <trkpt lat="49.24093" lon="-0.17755">
        <ele>10.2</ele>
        <time>2024-07-03T14:51:58Z</time>
      </trkpt>
      <trkpt lat="49.241" lon="-0.17754">
        <ele>10.2</ele>
        <time>2024-07-03T14:51:59Z</time>
      </trkpt>
      <trkpt lat="49.24104" lon="-0.1775">
        <ele>10.2</ele>
        <time>2024-07-03T14:52:00Z</time>
      </trkpt>
      <trkpt lat="49.24108" lon="-0.17743">
        <ele>10.2</ele>
        <time>2024-07-03T14:52:01Z</time>
      </trkpt>
      <trkpt lat="49.2411" lon="-0.17733">
        <ele>10.2</ele>
        <time>2024-07-03T14:52:02Z</time>
      </trkpt>
      <trkpt lat="49.2411" lon="-0.17722">
        <ele>10.4</ele>
        <time>2024-07-03T14:52:03Z</time>
      </trkpt>
      <trkpt lat="49.24111" lon="-0.17711">
        <ele>10.4</ele>
        <time>2024-07-03T14:52:04Z</time>
      </trkpt>
      <trkpt lat="49.24111" lon="-0.17699">
        <ele>10.4</ele>
        <time>2024-07-03T14:52:05Z</time>
      </trkpt>
      <trkpt lat="49.24111" lon="-0.17686">
        <ele>10.4</ele>
        <time>2024-07-03T14:52:06Z</time>
      </trkpt>
      <trkpt lat="49.24111" lon="-0.17674">
        <ele>10.4</ele>
        <time>2024-07-03T14:52:07Z</time>
      </trkpt>
      <trkpt lat="49.24112" lon="-0.17661">
        <ele>10.4</ele>
        <time>2024-07-03T14:52:08Z</time>
      </trkpt>
      <trkpt lat="49.24113" lon="-0.1765">
        <ele>10.4</ele>
        <time>2024-07-03T14:52:09Z</time>
      </trkpt>
      <trkpt lat="49.24115" lon="-0.17639">
        <ele>10.4</ele>
        <time>2024-07-03T14:52:10Z</time>
      </trkpt>
      <trkpt lat="49.24118" lon="-0.17629">
        <ele>10.2</ele>
        <time>2024-07-03T14:52:11Z</time>
      </trkpt>
      <trkpt lat="49.24121" lon="-0.17619">
        <ele>10.2</ele>
        <time>2024-07-03T14:52:12Z</time>
      </trkpt>
      <trkpt lat="49.24125" lon="-0.1761">
        <ele>10.2</ele>
        <time>2024-07-03T14:52:13Z</time>
      </trkpt>
      <trkpt lat="49.2413" lon="-0.17601">
        <ele>10</ele>
        <time>2024-07-03T14:52:14Z</time>
      </trkpt>
      <trkpt lat="49.24136" lon="-0.17595">
        <ele>10</ele>
        <time>2024-07-03T14:52:15Z</time>
      </trkpt>
      <trkpt lat="49.24142" lon="-0.17589">
        <ele>10.2</ele>
        <time>2024-07-03T14:52:16Z</time>
      </trkpt>
      <trkpt lat="49.24148" lon="-0.17584">
        <ele>10.2</ele>
        <time>2024-07-03T14:52:17Z</time>
      </trkpt>
      <trkpt lat="49.24153" lon="-0.17578">
        <ele>10.4</ele>
        <time>2024-07-03T14:52:18Z</time>
      </trkpt>
      <trkpt lat="49.24159" lon="-0.17573">
        <ele>10.6</ele>
        <time>2024-07-03T14:52:19Z</time>
      </trkpt>
      <trkpt lat="49.24164" lon="-0.17567">
        <ele>11</ele>
        <time>2024-07-03T14:52:20Z</time>
      </trkpt>
      <trkpt lat="49.2417" lon="-0.17563">
        <ele>11.4</ele>
        <time>2024-07-03T14:52:21Z</time>
      </trkpt>
      <trkpt lat="49.24175" lon="-0.17558">
        <ele>11.6</ele>
        <time>2024-07-03T14:52:22Z</time>
      </trkpt>
      <trkpt lat="49.24181" lon="-0.17553">
        <ele>12</ele>
        <time>2024-07-03T14:52:23Z</time>
      </trkpt>
      <trkpt lat="49.24186" lon="-0.17548">
        <ele>12.4</ele>
        <time>2024-07-03T14:52:24Z</time>
      </trkpt>
      <trkpt lat="49.24191" lon="-0.17542">
        <ele>13</ele>
        <time>2024-07-03T14:52:25Z</time>
      </trkpt>
      <trkpt lat="49.24195" lon="-0.17534">
        <ele>13.4</ele>
        <time>2024-07-03T14:52:26Z</time>
      </trkpt>
      <trkpt lat="49.24198" lon="-0.17526">
        <ele>13.8</ele>
        <time>2024-07-03T14:52:27Z</time>
      </trkpt>
      <trkpt lat="49.24199" lon="-0.17516">
        <ele>14.2</ele>
        <time>2024-07-03T14:52:28Z</time>
      </trkpt>
      <trkpt lat="49.242" lon="-0.17506">
        <ele>14.4</ele>
        <time>2024-07-03T14:52:29Z</time>
      </trkpt>
      <trkpt lat="49.242" lon="-0.17495">
        <ele>14.8</ele>
        <time>2024-07-03T14:52:30Z</time>
      </trkpt>
      <trkpt lat="49.242" lon="-0.17485">
        <ele>15</ele>
        <time>2024-07-03T14:52:31Z</time>
      </trkpt>
      <trkpt lat="49.242" lon="-0.17474">
        <ele>15.2</ele>
        <time>2024-07-03T14:52:32Z</time>
      </trkpt>
      <trkpt lat="49.24201" lon="-0.17463">
        <ele>15.2</ele>
        <time>2024-07-03T14:52:33Z</time>
      </trkpt>
      <trkpt lat="49.24202" lon="-0.17452">
        <ele>15.2</ele>
        <time>2024-07-03T14:52:34Z</time>
      </trkpt>
      <trkpt lat="49.24205" lon="-0.17442">
        <ele>15.2</ele>
        <time>2024-07-03T14:52:35Z</time>
      </trkpt>
      <trkpt lat="49.24209" lon="-0.17434">
        <ele>15.2</ele>
        <time>2024-07-03T14:52:36Z</time>
      </trkpt>
      <trkpt lat="49.24215" lon="-0.17428">
        <ele>15.2</ele>
        <time>2024-07-03T14:52:37Z</time>
      </trkpt>
      <trkpt lat="49.24221" lon="-0.17424">
        <ele>15.2</ele>
        <time>2024-07-03T14:52:38Z</time>
      </trkpt>
      <trkpt lat="49.24228" lon="-0.17422">
        <ele>15.2</ele>
        <time>2024-07-03T14:52:39Z</time>
      </trkpt>
      <trkpt lat="49.24235" lon="-0.17419">
        <ele>15.4</ele>
        <time>2024-07-03T14:52:40Z</time>
      </trkpt>
      <trkpt lat="49.24242" lon="-0.17418">
        <ele>15.4</ele>
        <time>2024-07-03T14:52:41Z</time>
      </trkpt>
      <trkpt lat="49.24249" lon="-0.17417">
        <ele>15.4</ele>
        <time>2024-07-03T14:52:42Z</time>
      </trkpt>
      <trkpt lat="49.24256" lon="-0.17415">
        <ele>15.8</ele>
        <time>2024-07-03T14:52:43Z</time>
      </trkpt>
      <trkpt lat="49.24263" lon="-0.17415">
        <ele>16</ele>
        <time>2024-07-03T14:52:44Z</time>
      </trkpt>
      <trkpt lat="49.2427" lon="-0.17414">
        <ele>16.4</ele>
        <time>2024-07-03T14:52:45Z</time>
      </trkpt>
      <trkpt lat="49.24277" lon="-0.17414">
        <ele>16.6</ele>
        <time>2024-07-03T14:52:46Z</time>
      </trkpt>
      <trkpt lat="49.24285" lon="-0.17414">
        <ele>16.8</ele>
        <time>2024-07-03T14:52:47Z</time>
      </trkpt>
      <trkpt lat="49.24293" lon="-0.17414">
        <ele>17</ele>
        <time>2024-07-03T14:52:48Z</time>
      </trkpt>
      <trkpt lat="49.243" lon="-0.17414">
        <ele>17</ele>
        <time>2024-07-03T14:52:49Z</time>
      </trkpt>
      <trkpt lat="49.24308" lon="-0.17415">
        <ele>17</ele>
        <time>2024-07-03T14:52:50Z</time>
      </trkpt>
      <trkpt lat="49.24315" lon="-0.17414">
        <ele>17.2</ele>
        <time>2024-07-03T14:52:51Z</time>
      </trkpt>
      <trkpt lat="49.24323" lon="-0.17414">
        <ele>17.2</ele>
        <time>2024-07-03T14:52:52Z</time>
      </trkpt>
      <trkpt lat="49.24331" lon="-0.17413">
        <ele>17</ele>
        <time>2024-07-03T14:52:53Z</time>
      </trkpt>
      <trkpt lat="49.24338" lon="-0.17412">
        <ele>17</ele>
        <time>2024-07-03T14:52:54Z</time>
      </trkpt>
      <trkpt lat="49.24346" lon="-0.1741">
        <ele>17</ele>
        <time>2024-07-03T14:52:55Z</time>
      </trkpt>
      <trkpt lat="49.24354" lon="-0.17408">
        <ele>17</ele>
        <time>2024-07-03T14:52:56Z</time>
      </trkpt>
      <trkpt lat="49.24361" lon="-0.17406">
        <ele>17</ele>
        <time>2024-07-03T14:52:57Z</time>
      </trkpt>
      <trkpt lat="49.24368" lon="-0.17401">
        <ele>17</ele>
        <time>2024-07-03T14:52:58Z</time>
      </trkpt>
      <trkpt lat="49.24373" lon="-0.17394">
        <ele>17</ele>
        <time>2024-07-03T14:52:59Z</time>
      </trkpt>
      <trkpt lat="49.24378" lon="-0.17386">
        <ele>17.2</ele>
        <time>2024-07-03T14:53:00Z</time>
      </trkpt>
      <trkpt lat="49.24382" lon="-0.17376">
        <ele>17.2</ele>
        <time>2024-07-03T14:53:01Z</time>
      </trkpt>
      <trkpt lat="49.24383" lon="-0.17364">
        <ele>17.4</ele>
        <time>2024-07-03T14:53:02Z</time>
      </trkpt>
      <trkpt lat="49.24384" lon="-0.17352">
        <ele>17.6</ele>
        <time>2024-07-03T14:53:03Z</time>
      </trkpt>
      <trkpt lat="49.24384" lon="-0.17341">
        <ele>17.8</ele>
        <time>2024-07-03T14:53:04Z</time>
      </trkpt>
      <trkpt lat="49.24384" lon="-0.17329">
        <ele>17.8</ele>
        <time>2024-07-03T14:53:05Z</time>
      </trkpt>
      <trkpt lat="49.24384" lon="-0.17319">
        <ele>18</ele>
        <time>2024-07-03T14:53:06Z</time>
      </trkpt>
      <trkpt lat="49.24384" lon="-0.17308">
        <ele>18.2</ele>
        <time>2024-07-03T14:53:07Z</time>
      </trkpt>
      <trkpt lat="49.24384" lon="-0.17296">
        <ele>18.2</ele>
        <time>2024-07-03T14:53:08Z</time>
      </trkpt>
      <trkpt lat="49.24384" lon="-0.17284">
        <ele>18.2</ele>
        <time>2024-07-03T14:53:09Z</time>
      </trkpt>
      <trkpt lat="49.24384" lon="-0.17272">
        <ele>18.2</ele>
        <time>2024-07-03T14:53:10Z</time>
      </trkpt>
      <trkpt lat="49.24384" lon="-0.1726">
        <ele>18</ele>
        <time>2024-07-03T14:53:11Z</time>
      </trkpt>
      <trkpt lat="49.24384" lon="-0.17248">
        <ele>18</ele>
        <time>2024-07-03T14:53:12Z</time>
      </trkpt>
      <trkpt lat="49.24384" lon="-0.17236">
        <ele>18</ele>
        <time>2024-07-03T14:53:13Z</time>
      </trkpt>
      <trkpt lat="49.24384" lon="-0.17224">
        <ele>17.8</ele>
        <time>2024-07-03T14:53:14Z</time>
      </trkpt>
      <trkpt lat="49.24385" lon="-0.17212">
        <ele>17.8</ele>
        <time>2024-07-03T14:53:15Z</time>
      </trkpt>
      <trkpt lat="49.24385" lon="-0.17199">
        <ele>18</ele>
        <time>2024-07-03T14:53:16Z</time>
      </trkpt>
      <trkpt lat="49.24386" lon="-0.17185">
        <ele>18</ele>
        <time>2024-07-03T14:53:17Z</time>
      </trkpt>
      <trkpt lat="49.24386" lon="-0.17172">
        <ele>18</ele>
        <time>2024-07-03T14:53:18Z</time>
      </trkpt>
      <trkpt lat="49.24386" lon="-0.17158">
        <ele>18</ele>
        <time>2024-07-03T14:53:19Z</time>
      </trkpt>
      <trkpt lat="49.24386" lon="-0.17144">
        <ele>18</ele>
        <time>2024-07-03T14:53:20Z</time>
      </trkpt>
      <trkpt lat="49.24386" lon="-0.17129">
        <ele>18</ele>
        <time>2024-07-03T14:53:21Z</time>
      </trkpt>
      <trkpt lat="49.24385" lon="-0.17115">
        <ele>18</ele>
        <time>2024-07-03T14:53:22Z</time>
      </trkpt>
      <trkpt lat="49.24385" lon="-0.171">
        <ele>17.8</ele>
        <time>2024-07-03T14:53:23Z</time>
      </trkpt>
      <trkpt lat="49.24384" lon="-0.17085">
        <ele>17.8</ele>
        <time>2024-07-03T14:53:24Z</time>
      </trkpt>
      <trkpt lat="49.24384" lon="-0.17071">
        <ele>17.6</ele>
        <time>2024-07-03T14:53:25Z</time>
      </trkpt>
      <trkpt lat="49.24383" lon="-0.17057">
        <ele>17.4</ele>
        <time>2024-07-03T14:53:26Z</time>
      </trkpt>
      <trkpt lat="49.24381" lon="-0.17043">
        <ele>17.2</ele>
        <time>2024-07-03T14:53:27Z</time>
      </trkpt>
      <trkpt lat="49.2438" lon="-0.17029">
        <ele>16.8</ele>
        <time>2024-07-03T14:53:28Z</time>
      </trkpt>
      <trkpt lat="49.24379" lon="-0.17015">
        <ele>16.6</ele>
        <time>2024-07-03T14:53:29Z</time>
      </trkpt>
      <trkpt lat="49.24377" lon="-0.17">
        <ele>16.6</ele>
        <time>2024-07-03T14:53:30Z</time>
      </trkpt>
      <trkpt lat="49.24375" lon="-0.16985">
        <ele>16.2</ele>
        <time>2024-07-03T14:53:31Z</time>
      </trkpt>
      <trkpt lat="49.24374" lon="-0.16969">
        <ele>16</ele>
        <time>2024-07-03T14:53:32Z</time>
      </trkpt>
      <trkpt lat="49.24372" lon="-0.16953">
        <ele>15.6</ele>
        <time>2024-07-03T14:53:33Z</time>
      </trkpt>
      <trkpt lat="49.2437" lon="-0.16937">
        <ele>15.4</ele>
        <time>2024-07-03T14:53:34Z</time>
      </trkpt>
      <trkpt lat="49.24369" lon="-0.16921">
        <ele>15.4</ele>
        <time>2024-07-03T14:53:35Z</time>
      </trkpt>
      <trkpt lat="49.24368" lon="-0.16905">
        <ele>15.2</ele>
        <time>2024-07-03T14:53:36Z</time>
      </trkpt>
      <trkpt lat="49.24366" lon="-0.16888">
        <ele>15.2</ele>
        <time>2024-07-03T14:53:37Z</time>
      </trkpt>
      <trkpt lat="49.24364" lon="-0.16873">
        <ele>15.2</ele>
        <time>2024-07-03T14:53:38Z</time>
      </trkpt>
      <trkpt lat="49.24362" lon="-0.16857">
        <ele>15.2</ele>
        <time>2024-07-03T14:53:39Z</time>
      </trkpt>
      <trkpt lat="49.24359" lon="-0.1684">
        <ele>15.2</ele>
        <time>2024-07-03T14:53:40Z</time>
      </trkpt>
      <trkpt lat="49.24357" lon="-0.16824">
        <ele>15.2</ele>
        <time>2024-07-03T14:53:41Z</time>
      </trkpt>
      <trkpt lat="49.24356" lon="-0.16808">
        <ele>15</ele>
        <time>2024-07-03T14:53:42Z</time>
      </trkpt>
      <trkpt lat="49.24356" lon="-0.16793">
        <ele>15</ele>
        <time>2024-07-03T14:53:43Z</time>
      </trkpt>
      <trkpt lat="49.24358" lon="-0.16778">
        <ele>15.2</ele>
        <time>2024-07-03T14:53:44Z</time>
      </trkpt>
      <trkpt lat="49.24363" lon="-0.16765">
        <ele>15</ele>
        <time>2024-07-03T14:53:45Z</time>
      </trkpt>
      <trkpt lat="49.24368" lon="-0.16753">
        <ele>15</ele>
        <time>2024-07-03T14:53:46Z</time>
      </trkpt>
      <trkpt lat="49.24374" lon="-0.16742">
        <ele>15</ele>
        <time>2024-07-03T14:53:47Z</time>
      </trkpt>
      <trkpt lat="49.24381" lon="-0.16732">
        <ele>15.2</ele>
        <time>2024-07-03T14:53:48Z</time>
      </trkpt>
      <trkpt lat="49.24388" lon="-0.16722">
        <ele>15.4</ele>
        <time>2024-07-03T14:53:49Z</time>
      </trkpt>
      <trkpt lat="49.24394" lon="-0.16711">
        <ele>15.4</ele>
        <time>2024-07-03T14:53:50Z</time>
      </trkpt>
      <trkpt lat="49.244" lon="-0.16701">
        <ele>15.6</ele>
        <time>2024-07-03T14:53:51Z</time>
      </trkpt>
      <trkpt lat="49.24406" lon="-0.16691">
        <ele>15.6</ele>
        <time>2024-07-03T14:53:52Z</time>
      </trkpt>
      <trkpt lat="49.24412" lon="-0.1668">
        <ele>15.6</ele>
        <time>2024-07-03T14:53:53Z</time>
      </trkpt>
      <trkpt lat="49.24419" lon="-0.16669">
        <ele>15.8</ele>
        <time>2024-07-03T14:53:54Z</time>
      </trkpt>
      <trkpt lat="49.24425" lon="-0.16658">
        <ele>15.8</ele>
        <time>2024-07-03T14:53:55Z</time>
      </trkpt>
      <trkpt lat="49.24431" lon="-0.16647">
        <ele>15.8</ele>
        <time>2024-07-03T14:53:56Z</time>
      </trkpt>
      <trkpt lat="49.24437" lon="-0.16636">
        <ele>15.8</ele>
        <time>2024-07-03T14:53:57Z</time>
      </trkpt>
      <trkpt lat="49.24444" lon="-0.16625">
        <ele>15.8</ele>
        <time>2024-07-03T14:53:58Z</time>
      </trkpt>
      <trkpt lat="49.2445" lon="-0.16615">
        <ele>15.8</ele>
        <time>2024-07-03T14:53:59Z</time>
      </trkpt>
      <trkpt lat="49.24457" lon="-0.16604">
        <ele>15.8</ele>
        <time>2024-07-03T14:54:00Z</time>
      </trkpt>
      <trkpt lat="49.24463" lon="-0.16593">
        <ele>15.8</ele>
        <time>2024-07-03T14:54:01Z</time>
      </trkpt>
      <trkpt lat="49.24468" lon="-0.16581">
        <ele>16</ele>
        <time>2024-07-03T14:54:02Z</time>
      </trkpt>
      <trkpt lat="49.24473" lon="-0.16568">
        <ele>16</ele>
        <time>2024-07-03T14:54:03Z</time>
      </trkpt>
      <trkpt lat="49.24478" lon="-0.16554">
        <ele>16</ele>
        <time>2024-07-03T14:54:04Z</time>
      </trkpt>
      <trkpt lat="49.24482" lon="-0.1654">
        <ele>16</ele>
        <time>2024-07-03T14:54:05Z</time>
      </trkpt>
      <trkpt lat="49.24486" lon="-0.16527">
        <ele>16.2</ele>
        <time>2024-07-03T14:54:06Z</time>
      </trkpt>
      <trkpt lat="49.24491" lon="-0.16513">
        <ele>16.2</ele>
        <time>2024-07-03T14:54:07Z</time>
      </trkpt>
      <trkpt lat="49.24497" lon="-0.165">
        <ele>16.2</ele>
        <time>2024-07-03T14:54:08Z</time>
      </trkpt>
      <trkpt lat="49.24504" lon="-0.16488">
        <ele>16</ele>
        <time>2024-07-03T14:54:09Z</time>
      </trkpt>
      <trkpt lat="49.24511" lon="-0.16477">
        <ele>15.8</ele>
        <time>2024-07-03T14:54:10Z</time>
      </trkpt>
      <trkpt lat="49.24518" lon="-0.16465">
        <ele>15.6</ele>
        <time>2024-07-03T14:54:11Z</time>
      </trkpt>
      <trkpt lat="49.24525" lon="-0.16454">
        <ele>15.4</ele>
        <time>2024-07-03T14:54:12Z</time>
      </trkpt>
      <trkpt lat="49.24532" lon="-0.16443">
        <ele>15.2</ele>
        <time>2024-07-03T14:54:13Z</time>
      </trkpt>
      <trkpt lat="49.2454" lon="-0.16432">
        <ele>15.2</ele>
        <time>2024-07-03T14:54:14Z</time>
      </trkpt>
      <trkpt lat="49.24547" lon="-0.16421">
        <ele>15.2</ele>
        <time>2024-07-03T14:54:15Z</time>
      </trkpt>
      <trkpt lat="49.24553" lon="-0.1641">
        <ele>15.2</ele>
        <time>2024-07-03T14:54:16Z</time>
      </trkpt>
      <trkpt lat="49.2456" lon="-0.164">
        <ele>15.4</ele>
        <time>2024-07-03T14:54:17Z</time>
      </trkpt>
      <trkpt lat="49.24567" lon="-0.16389">
        <ele>15.4</ele>
        <time>2024-07-03T14:54:18Z</time>
      </trkpt>
      <trkpt lat="49.24574" lon="-0.16378">
        <ele>15.4</ele>
        <time>2024-07-03T14:54:19Z</time>
      </trkpt>
      <trkpt lat="49.24581" lon="-0.16367">
        <ele>15.4</ele>
        <time>2024-07-03T14:54:20Z</time>
      </trkpt>
      <trkpt lat="49.24587" lon="-0.16356">
        <ele>15.4</ele>
        <time>2024-07-03T14:54:21Z</time>
      </trkpt>
      <trkpt lat="49.24594" lon="-0.16345">
        <ele>15.4</ele>
        <time>2024-07-03T14:54:22Z</time>
      </trkpt>
      <trkpt lat="49.24601" lon="-0.16333">
        <ele>15.4</ele>
        <time>2024-07-03T14:54:23Z</time>
      </trkpt>
      <trkpt lat="49.24608" lon="-0.16322">
        <ele>15.4</ele>
        <time>2024-07-03T14:54:24Z</time>
      </trkpt>
      <trkpt lat="49.24615" lon="-0.16311">
        <ele>15.6</ele>
        <time>2024-07-03T14:54:25Z</time>
      </trkpt>
      <trkpt lat="49.24623" lon="-0.163">
        <ele>15.6</ele>
        <time>2024-07-03T14:54:26Z</time>
      </trkpt>
      <trkpt lat="49.2463" lon="-0.16289">
        <ele>15.6</ele>
        <time>2024-07-03T14:54:27Z</time>
      </trkpt>
      <trkpt lat="49.24638" lon="-0.16278">
        <ele>15.8</ele>
        <time>2024-07-03T14:54:28Z</time>
      </trkpt>
      <trkpt lat="49.24646" lon="-0.16269">
        <ele>15.8</ele>
        <time>2024-07-03T14:54:29Z</time>
      </trkpt>
      <trkpt lat="49.24655" lon="-0.16259">
        <ele>15.6</ele>
        <time>2024-07-03T14:54:30Z</time>
      </trkpt>
      <trkpt lat="49.24664" lon="-0.1625">
        <ele>15.6</ele>
        <time>2024-07-03T14:54:31Z</time>
      </trkpt>
      <trkpt lat="49.24673" lon="-0.16242">
        <ele>15.4</ele>
        <time>2024-07-03T14:54:32Z</time>
      </trkpt>
      <trkpt lat="49.24683" lon="-0.16233">
        <ele>15.4</ele>
        <time>2024-07-03T14:54:33Z</time>
      </trkpt>
      <trkpt lat="49.24692" lon="-0.16226">
        <ele>15.4</ele>
        <time>2024-07-03T14:54:34Z</time>
      </trkpt>
      <trkpt lat="49.24702" lon="-0.16219">
        <ele>15.2</ele>
        <time>2024-07-03T14:54:35Z</time>
      </trkpt>
      <trkpt lat="49.24713" lon="-0.16215">
        <ele>15.2</ele>
        <time>2024-07-03T14:54:36Z</time>
      </trkpt>
      <trkpt lat="49.24724" lon="-0.16211">
        <ele>15.2</ele>
        <time>2024-07-03T14:54:37Z</time>
      </trkpt>
      <trkpt lat="49.24735" lon="-0.16208">
        <ele>15</ele>
        <time>2024-07-03T14:54:38Z</time>
      </trkpt>
      <trkpt lat="49.24746" lon="-0.16206">
        <ele>14.6</ele>
        <time>2024-07-03T14:54:39Z</time>
      </trkpt>
      <trkpt lat="49.24757" lon="-0.16204">
        <ele>14.4</ele>
        <time>2024-07-03T14:54:40Z</time>
      </trkpt>
      <trkpt lat="49.24768" lon="-0.16201">
        <ele>14</ele>
        <time>2024-07-03T14:54:41Z</time>
      </trkpt>
      <trkpt lat="49.2478" lon="-0.16199">
        <ele>13.8</ele>
        <time>2024-07-03T14:54:42Z</time>
      </trkpt>
      <trkpt lat="49.24791" lon="-0.16196">
        <ele>13.6</ele>
        <time>2024-07-03T14:54:43Z</time>
      </trkpt>
      <trkpt lat="49.24802" lon="-0.16194">
        <ele>13.6</ele>
        <time>2024-07-03T14:54:44Z</time>
      </trkpt>
      <trkpt lat="49.24813" lon="-0.16191">
        <ele>13.4</ele>
        <time>2024-07-03T14:54:45Z</time>
      </trkpt>
      <trkpt lat="49.24825" lon="-0.16189">
        <ele>13.4</ele>
        <time>2024-07-03T14:54:46Z</time>
      </trkpt>
      <trkpt lat="49.24837" lon="-0.16186">
        <ele>13.4</ele>
        <time>2024-07-03T14:54:47Z</time>
      </trkpt>
      <trkpt lat="49.24848" lon="-0.16183">
        <ele>13.2</ele>
        <time>2024-07-03T14:54:48Z</time>
      </trkpt>
      <trkpt lat="49.2486" lon="-0.16181">
        <ele>13.2</ele>
        <time>2024-07-03T14:54:49Z</time>
      </trkpt>
      <trkpt lat="49.24871" lon="-0.16178">
        <ele>12.8</ele>
        <time>2024-07-03T14:54:50Z</time>
      </trkpt>
      <trkpt lat="49.24883" lon="-0.16176">
        <ele>12.6</ele>
        <time>2024-07-03T14:54:51Z</time>
      </trkpt>
      <trkpt lat="49.24894" lon="-0.16174">
        <ele>12.2</ele>
        <time>2024-07-03T14:54:52Z</time>
      </trkpt>
      <trkpt lat="49.24906" lon="-0.16172">
        <ele>11.8</ele>
        <time>2024-07-03T14:54:53Z</time>
      </trkpt>
      <trkpt lat="49.24917" lon="-0.1617">
        <ele>11.6</ele>
        <time>2024-07-03T14:54:54Z</time>
      </trkpt>
      <trkpt lat="49.24929" lon="-0.16168">
        <ele>11.6</ele>
        <time>2024-07-03T14:54:55Z</time>
      </trkpt>
      <trkpt lat="49.2494" lon="-0.16166">
        <ele>11.2</ele>
        <time>2024-07-03T14:54:56Z</time>
      </trkpt>
      <trkpt lat="49.24952" lon="-0.16165">
        <ele>11</ele>
        <time>2024-07-03T14:54:57Z</time>
      </trkpt>
      <trkpt lat="49.24963" lon="-0.16164">
        <ele>11</ele>
        <time>2024-07-03T14:54:58Z</time>
      </trkpt>
      <trkpt lat="49.24974" lon="-0.16163">
        <ele>11.2</ele>
        <time>2024-07-03T14:54:59Z</time>
      </trkpt>
      <trkpt lat="49.24985" lon="-0.16163">
        <ele>11.4</ele>
        <time>2024-07-03T14:55:00Z</time>
      </trkpt>
      <trkpt lat="49.24996" lon="-0.16164">
        <ele>11.6</ele>
        <time>2024-07-03T14:55:01Z</time>
      </trkpt>
      <trkpt lat="49.25007" lon="-0.16165">
        <ele>11.8</ele>
        <time>2024-07-03T14:55:02Z</time>
      </trkpt>
      <trkpt lat="49.25018" lon="-0.16167">
        <ele>11.8</ele>
        <time>2024-07-03T14:55:03Z</time>
      </trkpt>
      <trkpt lat="49.25028" lon="-0.1617">
        <ele>12</ele>
        <time>2024-07-03T14:55:04Z</time>
      </trkpt>
      <trkpt lat="49.25039" lon="-0.16172">
        <ele>12</ele>
        <time>2024-07-03T14:55:05Z</time>
      </trkpt>
      <trkpt lat="49.25049" lon="-0.16176">
        <ele>12.2</ele>
        <time>2024-07-03T14:55:06Z</time>
      </trkpt>
      <trkpt lat="49.2506" lon="-0.16181">
        <ele>12.2</ele>
        <time>2024-07-03T14:55:07Z</time>
      </trkpt>
      <trkpt lat="49.2507" lon="-0.16186">
        <ele>11.8</ele>
        <time>2024-07-03T14:55:08Z</time>
      </trkpt>
      <trkpt lat="49.25079" lon="-0.16191">
        <ele>11.4</ele>
        <time>2024-07-03T14:55:09Z</time>
      </trkpt>
      <trkpt lat="49.25088" lon="-0.16196">
        <ele>11.4</ele>
        <time>2024-07-03T14:55:10Z</time>
      </trkpt>
      <trkpt lat="49.25097" lon="-0.16201">
        <ele>11.2</ele>
        <time>2024-07-03T14:55:11Z</time>
      </trkpt>
      <trkpt lat="49.25106" lon="-0.16206">
        <ele>11.2</ele>
        <time>2024-07-03T14:55:12Z</time>
      </trkpt>
      <trkpt lat="49.25114" lon="-0.16211">
        <ele>11.2</ele>
        <time>2024-07-03T14:55:13Z</time>
      </trkpt>
      <trkpt lat="49.25122" lon="-0.16217">
        <ele>11.4</ele>
        <time>2024-07-03T14:55:14Z</time>
      </trkpt>
      <trkpt lat="49.25129" lon="-0.16222">
        <ele>11.4</ele>
        <time>2024-07-03T14:55:15Z</time>
      </trkpt>
      <trkpt lat="49.25136" lon="-0.16226">
        <ele>11.6</ele>
        <time>2024-07-03T14:55:16Z</time>
      </trkpt>
      <trkpt lat="49.25143" lon="-0.16231">
        <ele>11.6</ele>
        <time>2024-07-03T14:55:17Z</time>
      </trkpt>
      <trkpt lat="49.25149" lon="-0.16235">
        <ele>11.6</ele>
        <time>2024-07-03T14:55:18Z</time>
      </trkpt>
      <trkpt lat="49.25154" lon="-0.16238">
        <ele>11.8</ele>
        <time>2024-07-03T14:55:19Z</time>
      </trkpt>
      <trkpt lat="49.25158" lon="-0.16241">
        <ele>11.8</ele>
        <time>2024-07-03T14:55:20Z</time>
      </trkpt>
      <trkpt lat="49.25162" lon="-0.16243">
        <ele>11.8</ele>
        <time>2024-07-03T14:55:21Z</time>
      </trkpt>
      <trkpt lat="49.25165" lon="-0.16245">
        <ele>11.8</ele>
        <time>2024-07-03T14:55:22Z</time>
      </trkpt>
      <trkpt lat="49.25168" lon="-0.16247">
        <ele>12</ele>
        <time>2024-07-03T14:55:23Z</time>
      </trkpt>
      <trkpt lat="49.25171" lon="-0.16248">
        <ele>12.4</ele>
        <time>2024-07-03T14:55:24Z</time>
      </trkpt>
      <trkpt lat="49.25173" lon="-0.16248">
        <ele>12.6</ele>
        <time>2024-07-03T14:55:25Z</time>
      </trkpt>
      <trkpt lat="49.25176" lon="-0.16246">
        <ele>13</ele>
        <time>2024-07-03T14:55:26Z</time>
      </trkpt>
      <trkpt lat="49.25179" lon="-0.16243">
        <ele>13</ele>
        <time>2024-07-03T14:55:27Z</time>
      </trkpt>
      <trkpt lat="49.25182" lon="-0.16239">
        <ele>13.2</ele>
        <time>2024-07-03T14:55:28Z</time>
      </trkpt>
      <trkpt lat="49.25186" lon="-0.16234">
        <ele>13.2</ele>
        <time>2024-07-03T14:55:29Z</time>
      </trkpt>
      <trkpt lat="49.25191" lon="-0.16228">
        <ele>13.2</ele>
        <time>2024-07-03T14:55:30Z</time>
      </trkpt>
      <trkpt lat="49.25196" lon="-0.16222">
        <ele>13.2</ele>
        <time>2024-07-03T14:55:31Z</time>
      </trkpt>
      <trkpt lat="49.25201" lon="-0.16216">
        <ele>13</ele>
        <time>2024-07-03T14:55:32Z</time>
      </trkpt>
      <trkpt lat="49.25206" lon="-0.16209">
        <ele>12.8</ele>
        <time>2024-07-03T14:55:33Z</time>
      </trkpt>
      <trkpt lat="49.25212" lon="-0.16202">
        <ele>12.6</ele>
        <time>2024-07-03T14:55:34Z</time>
      </trkpt>
      <trkpt lat="49.25218" lon="-0.16196">
        <ele>12.4</ele>
        <time>2024-07-03T14:55:35Z</time>
      </trkpt>
      <trkpt lat="49.25225" lon="-0.1619">
        <ele>12.2</ele>
        <time>2024-07-03T14:55:36Z</time>
      </trkpt>
      <trkpt lat="49.25232" lon="-0.16184">
        <ele>12</ele>
        <time>2024-07-03T14:55:37Z</time>
      </trkpt>
      <trkpt lat="49.25239" lon="-0.16178">
        <ele>12</ele>
        <time>2024-07-03T14:55:38Z</time>
      </trkpt>
      <trkpt lat="49.25246" lon="-0.16173">
        <ele>11.6</ele>
        <time>2024-07-03T14:55:39Z</time>
      </trkpt>
      <trkpt lat="49.25254" lon="-0.16167">
        <ele>11.2</ele>
        <time>2024-07-03T14:55:40Z</time>
      </trkpt>
      <trkpt lat="49.25262" lon="-0.16162">
        <ele>10.6</ele>
        <time>2024-07-03T14:55:41Z</time>
      </trkpt>
      <trkpt lat="49.2527" lon="-0.16156">
        <ele>10</ele>
        <time>2024-07-03T14:55:42Z</time>
      </trkpt>
      <trkpt lat="49.25277" lon="-0.16149">
        <ele>9.4</ele>
        <time>2024-07-03T14:55:43Z</time>
      </trkpt>
      <trkpt lat="49.25285" lon="-0.16144">
        <ele>9</ele>
        <time>2024-07-03T14:55:44Z</time>
      </trkpt>
      <trkpt lat="49.25292" lon="-0.16138">
        <ele>8.6</ele>
        <time>2024-07-03T14:55:45Z</time>
      </trkpt>
      <trkpt lat="49.25299" lon="-0.16133">
        <ele>8.6</ele>
        <time>2024-07-03T14:55:46Z</time>
      </trkpt>
      <trkpt lat="49.25306" lon="-0.16128">
        <ele>8.2</ele>
        <time>2024-07-03T14:55:47Z</time>
      </trkpt>
      <trkpt lat="49.25314" lon="-0.16121">
        <ele>8</ele>
        <time>2024-07-03T14:55:48Z</time>
      </trkpt>
      <trkpt lat="49.25321" lon="-0.16115">
        <ele>7.6</ele>
        <time>2024-07-03T14:55:49Z</time>
      </trkpt>
      <trkpt lat="49.25329" lon="-0.16109">
        <ele>7.4</ele>
        <time>2024-07-03T14:55:50Z</time>
      </trkpt>
      <trkpt lat="49.25338" lon="-0.16103">
        <ele>7.2</ele>
        <time>2024-07-03T14:55:51Z</time>
      </trkpt>
      <trkpt lat="49.25346" lon="-0.16097">
        <ele>7</ele>
        <time>2024-07-03T14:55:52Z</time>
      </trkpt>
      <trkpt lat="49.25355" lon="-0.16091">
        <ele>7</ele>
        <time>2024-07-03T14:55:53Z</time>
      </trkpt>
      <trkpt lat="49.25363" lon="-0.16084">
        <ele>6.8</ele>
        <time>2024-07-03T14:55:54Z</time>
      </trkpt>
      <trkpt lat="49.25372" lon="-0.16077">
        <ele>6.8</ele>
        <time>2024-07-03T14:55:55Z</time>
      </trkpt>
      <trkpt lat="49.25381" lon="-0.1607">
        <ele>6.8</ele>
        <time>2024-07-03T14:55:56Z</time>
      </trkpt>
      <trkpt lat="49.25389" lon="-0.16064">
        <ele>6.8</ele>
        <time>2024-07-03T14:55:57Z</time>
      </trkpt>
      <trkpt lat="49.25398" lon="-0.16057">
        <ele>6.6</ele>
        <time>2024-07-03T14:55:58Z</time>
      </trkpt>
      <trkpt lat="49.25407" lon="-0.1605">
        <ele>6.2</ele>
        <time>2024-07-03T14:55:59Z</time>
      </trkpt>
      <trkpt lat="49.25415" lon="-0.16044">
        <ele>6</ele>
        <time>2024-07-03T14:56:00Z</time>
      </trkpt>
      <trkpt lat="49.25424" lon="-0.16037">
        <ele>5.8</ele>
        <time>2024-07-03T14:56:01Z</time>
      </trkpt>
      <trkpt lat="49.25432" lon="-0.1603">
        <ele>5.4</ele>
        <time>2024-07-03T14:56:02Z</time>
      </trkpt>
      <trkpt lat="49.25442" lon="-0.16024">
        <ele>5.2</ele>
        <time>2024-07-03T14:56:03Z</time>
      </trkpt>
      <trkpt lat="49.25451" lon="-0.16017">
        <ele>5</ele>
        <time>2024-07-03T14:56:04Z</time>
      </trkpt>
      <trkpt lat="49.25459" lon="-0.16012">
        <ele>5</ele>
        <time>2024-07-03T14:56:05Z</time>
      </trkpt>
      <trkpt lat="49.25468" lon="-0.16007">
        <ele>4.8</ele>
        <time>2024-07-03T14:56:06Z</time>
      </trkpt>
      <trkpt lat="49.25478" lon="-0.16002">
        <ele>4.6</ele>
        <time>2024-07-03T14:56:07Z</time>
      </trkpt>
      <trkpt lat="49.25487" lon="-0.15998">
        <ele>4.4</ele>
        <time>2024-07-03T14:56:08Z</time>
      </trkpt>
      <trkpt lat="49.25496" lon="-0.15993">
        <ele>4.4</ele>
        <time>2024-07-03T14:56:09Z</time>
      </trkpt>
      <trkpt lat="49.25506" lon="-0.15989">
        <ele>4.2</ele>
        <time>2024-07-03T14:56:10Z</time>
      </trkpt>
      <trkpt lat="49.25515" lon="-0.15985">
        <ele>4.2</ele>
        <time>2024-07-03T14:56:11Z</time>
      </trkpt>
      <trkpt lat="49.25525" lon="-0.15982">
        <ele>4.4</ele>
        <time>2024-07-03T14:56:12Z</time>
      </trkpt>
      <trkpt lat="49.25534" lon="-0.15978">
        <ele>4.4</ele>
        <time>2024-07-03T14:56:13Z</time>
      </trkpt>
      <trkpt lat="49.25543" lon="-0.15975">
        <ele>4.6</ele>
        <time>2024-07-03T14:56:14Z</time>
      </trkpt>
      <trkpt lat="49.25553" lon="-0.15972">
        <ele>4.6</ele>
        <time>2024-07-03T14:56:15Z</time>
      </trkpt>
      <trkpt lat="49.25562" lon="-0.1597">
        <ele>4.6</ele>
        <time>2024-07-03T14:56:16Z</time>
      </trkpt>
      <trkpt lat="49.25571" lon="-0.15967">
        <ele>4.6</ele>
        <time>2024-07-03T14:56:17Z</time>
      </trkpt>
      <trkpt lat="49.2558" lon="-0.15965">
        <ele>4.4</ele>
        <time>2024-07-03T14:56:18Z</time>
      </trkpt>
      <trkpt lat="49.25589" lon="-0.15965">
        <ele>4.4</ele>
        <time>2024-07-03T14:56:19Z</time>
      </trkpt>
      <trkpt lat="49.25598" lon="-0.15965">
        <ele>4.4</ele>
        <time>2024-07-03T14:56:20Z</time>
      </trkpt>
      <trkpt lat="49.25608" lon="-0.15965">
        <ele>4.4</ele>
        <time>2024-07-03T14:56:21Z</time>
      </trkpt>
      <trkpt lat="49.25617" lon="-0.15966">
        <ele>4.6</ele>
        <time>2024-07-03T14:56:22Z</time>
      </trkpt>
      <trkpt lat="49.25627" lon="-0.15967">
        <ele>4.4</ele>
        <time>2024-07-03T14:56:23Z</time>
      </trkpt>
      <trkpt lat="49.25636" lon="-0.15967">
        <ele>4.6</ele>
        <time>2024-07-03T14:56:24Z</time>
      </trkpt>
      <trkpt lat="49.25645" lon="-0.15968">
        <ele>4.6</ele>
        <time>2024-07-03T14:56:25Z</time>
      </trkpt>
      <trkpt lat="49.25655" lon="-0.1597">
        <ele>4.4</ele>
        <time>2024-07-03T14:56:26Z</time>
      </trkpt>
      <trkpt lat="49.25664" lon="-0.15972">
        <ele>4.2</ele>
        <time>2024-07-03T14:56:27Z</time>
      </trkpt>
      <trkpt lat="49.25674" lon="-0.15974">
        <ele>4</ele>
        <time>2024-07-03T14:56:28Z</time>
      </trkpt>
      <trkpt lat="49.25684" lon="-0.15976">
        <ele>3.6</ele>
        <time>2024-07-03T14:56:29Z</time>
      </trkpt>
      <trkpt lat="49.25693" lon="-0.15978">
        <ele>3.6</ele>
        <time>2024-07-03T14:56:30Z</time>
      </trkpt>
      <trkpt lat="49.25702" lon="-0.1598">
        <ele>3.4</ele>
        <time>2024-07-03T14:56:31Z</time>
      </trkpt>
      <trkpt lat="49.25711" lon="-0.15983">
        <ele>3.4</ele>
        <time>2024-07-03T14:56:32Z</time>
      </trkpt>
      <trkpt lat="49.25719" lon="-0.15985">
        <ele>3.4</ele>
        <time>2024-07-03T14:56:33Z</time>
      </trkpt>
      <trkpt lat="49.25728" lon="-0.15987">
        <ele>3.2</ele>
        <time>2024-07-03T14:56:34Z</time>
      </trkpt>
      <trkpt lat="49.25737" lon="-0.1599">
        <ele>3.2</ele>
        <time>2024-07-03T14:56:35Z</time>
      </trkpt>
      <trkpt lat="49.25746" lon="-0.15993">
        <ele>3</ele>
        <time>2024-07-03T14:56:36Z</time>
      </trkpt>
      <trkpt lat="49.25755" lon="-0.15995">
        <ele>3</ele>
        <time>2024-07-03T14:56:37Z</time>
      </trkpt>
      <trkpt lat="49.25763" lon="-0.15997">
        <ele>2.8</ele>
        <time>2024-07-03T14:56:38Z</time>
      </trkpt>
      <trkpt lat="49.25771" lon="-0.16">
        <ele>2.8</ele>
        <time>2024-07-03T14:56:39Z</time>
      </trkpt>
      <trkpt lat="49.25779" lon="-0.16002">
        <ele>2.8</ele>
        <time>2024-07-03T14:56:40Z</time>
      </trkpt>
      <trkpt lat="49.25788" lon="-0.16004">
        <ele>2.8</ele>
        <time>2024-07-03T14:56:41Z</time>
      </trkpt>
      <trkpt lat="49.25796" lon="-0.16006">
        <ele>2.8</ele>
        <time>2024-07-03T14:56:42Z</time>
      </trkpt>
      <trkpt lat="49.25805" lon="-0.16009">
        <ele>2.8</ele>
        <time>2024-07-03T14:56:43Z</time>
      </trkpt>
      <trkpt lat="49.25813" lon="-0.16011">
        <ele>2.8</ele>
        <time>2024-07-03T14:56:44Z</time>
      </trkpt>
      <trkpt lat="49.25822" lon="-0.16013">
        <ele>2.6</ele>
        <time>2024-07-03T14:56:45Z</time>
      </trkpt>
      <trkpt lat="49.2583" lon="-0.16015">
        <ele>2.6</ele>
        <time>2024-07-03T14:56:46Z</time>
      </trkpt>
      <trkpt lat="49.25839" lon="-0.16017">
        <ele>2.4</ele>
        <time>2024-07-03T14:56:47Z</time>
      </trkpt>
      <trkpt lat="49.25847" lon="-0.16019">
        <ele>2.4</ele>
        <time>2024-07-03T14:56:48Z</time>
      </trkpt>
      <trkpt lat="49.25856" lon="-0.16021">
        <ele>2.4</ele>
        <time>2024-07-03T14:56:49Z</time>
      </trkpt>
      <trkpt lat="49.25865" lon="-0.16023">
        <ele>2.4</ele>
        <time>2024-07-03T14:56:50Z</time>
      </trkpt>
      <trkpt lat="49.25874" lon="-0.16026">
        <ele>2.6</ele>
        <time>2024-07-03T14:56:51Z</time>
      </trkpt>
      <trkpt lat="49.25883" lon="-0.16028">
        <ele>2.8</ele>
        <time>2024-07-03T14:56:52Z</time>
      </trkpt>
      <trkpt lat="49.25891" lon="-0.16031">
        <ele>3.4</ele>
        <time>2024-07-03T14:56:53Z</time>
      </trkpt>
      <trkpt lat="49.259" lon="-0.16033">
        <ele>3.8</ele>
        <time>2024-07-03T14:56:54Z</time>
      </trkpt>
      <trkpt lat="49.25909" lon="-0.16035">
        <ele>4</ele>
        <time>2024-07-03T14:56:55Z</time>
      </trkpt>
      <trkpt lat="49.25918" lon="-0.16037">
        <ele>4.2</ele>
        <time>2024-07-03T14:56:56Z</time>
      </trkpt>
      <trkpt lat="49.25927" lon="-0.16039">
        <ele>4.4</ele>
        <time>2024-07-03T14:56:57Z</time>
      </trkpt>
      <trkpt lat="49.25936" lon="-0.16041">
        <ele>4.4</ele>
        <time>2024-07-03T14:56:58Z</time>
      </trkpt>
      <trkpt lat="49.25946" lon="-0.16044">
        <ele>4.4</ele>
        <time>2024-07-03T14:56:59Z</time>
      </trkpt>
      <trkpt lat="49.25955" lon="-0.16046">
        <ele>4.4</ele>
        <time>2024-07-03T14:57:00Z</time>
      </trkpt>
      <trkpt lat="49.25965" lon="-0.16049">
        <ele>4.4</ele>
        <time>2024-07-03T14:57:01Z</time>
      </trkpt>
      <trkpt lat="49.25974" lon="-0.16051">
        <ele>4.6</ele>
        <time>2024-07-03T14:57:02Z</time>
      </trkpt>
      <trkpt lat="49.25983" lon="-0.16053">
        <ele>4.8</ele>
        <time>2024-07-03T14:57:03Z</time>
      </trkpt>
      <trkpt lat="49.25992" lon="-0.16055">
        <ele>5</ele>
        <time>2024-07-03T14:57:04Z</time>
      </trkpt>
      <trkpt lat="49.26001" lon="-0.16057">
        <ele>5</ele>
        <time>2024-07-03T14:57:05Z</time>
      </trkpt>
      <trkpt lat="49.2601" lon="-0.16059">
        <ele>5</ele>
        <time>2024-07-03T14:57:06Z</time>
      </trkpt>
      <trkpt lat="49.26019" lon="-0.16061">
        <ele>5.2</ele>
        <time>2024-07-03T14:57:07Z</time>
      </trkpt>
      <trkpt lat="49.26027" lon="-0.16063">
        <ele>5.2</ele>
        <time>2024-07-03T14:57:08Z</time>
      </trkpt>
      <trkpt lat="49.26036" lon="-0.16064">
        <ele>5.2</ele>
        <time>2024-07-03T14:57:09Z</time>
      </trkpt>
      <trkpt lat="49.26045" lon="-0.16065">
        <ele>5.2</ele>
        <time>2024-07-03T14:57:10Z</time>
      </trkpt>
      <trkpt lat="49.26054" lon="-0.16066">
        <ele>5.2</ele>
        <time>2024-07-03T14:57:11Z</time>
      </trkpt>
      <trkpt lat="49.26064" lon="-0.16066">
        <ele>5.2</ele>
        <time>2024-07-03T14:57:12Z</time>
      </trkpt>
      <trkpt lat="49.26073" lon="-0.16066">
        <ele>5.2</ele>
        <time>2024-07-03T14:57:13Z</time>
      </trkpt>
      <trkpt lat="49.26082" lon="-0.16066">
        <ele>5.2</ele>
        <time>2024-07-03T14:57:14Z</time>
      </trkpt>
      <trkpt lat="49.26091" lon="-0.16066">
        <ele>5.2</ele>
        <time>2024-07-03T14:57:15Z</time>
      </trkpt>
      <trkpt lat="49.26101" lon="-0.16065">
        <ele>5</ele>
        <time>2024-07-03T14:57:16Z</time>
      </trkpt>
      <trkpt lat="49.2611" lon="-0.16064">
        <ele>5</ele>
        <time>2024-07-03T14:57:17Z</time>
      </trkpt>
      <trkpt lat="49.2612" lon="-0.16063">
        <ele>4.8</ele>
        <time>2024-07-03T14:57:18Z</time>
      </trkpt>
      <trkpt lat="49.26129" lon="-0.16061">
        <ele>4.8</ele>
        <time>2024-07-03T14:57:19Z</time>
      </trkpt>
      <trkpt lat="49.26139" lon="-0.16059">
        <ele>5</ele>
        <time>2024-07-03T14:57:20Z</time>
      </trkpt>
      <trkpt lat="49.26148" lon="-0.16056">
        <ele>5</ele>
        <time>2024-07-03T14:57:21Z</time>
      </trkpt>
      <trkpt lat="49.26157" lon="-0.16053">
        <ele>5.2</ele>
        <time>2024-07-03T14:57:22Z</time>
      </trkpt>
      <trkpt lat="49.26167" lon="-0.16051">
        <ele>5.2</ele>
        <time>2024-07-03T14:57:23Z</time>
      </trkpt>
      <trkpt lat="49.26176" lon="-0.16048">
        <ele>5.2</ele>
        <time>2024-07-03T14:57:24Z</time>
      </trkpt>
      <trkpt lat="49.26185" lon="-0.16044">
        <ele>5.2</ele>
        <time>2024-07-03T14:57:25Z</time>
      </trkpt>
      <trkpt lat="49.26194" lon="-0.1604">
        <ele>5.4</ele>
        <time>2024-07-03T14:57:26Z</time>
      </trkpt>
      <trkpt lat="49.26204" lon="-0.16036">
        <ele>5.4</ele>
        <time>2024-07-03T14:57:27Z</time>
      </trkpt>
      <trkpt lat="49.26213" lon="-0.16031">
        <ele>5.4</ele>
        <time>2024-07-03T14:57:28Z</time>
      </trkpt>
      <trkpt lat="49.26222" lon="-0.16026">
        <ele>5.4</ele>
        <time>2024-07-03T14:57:29Z</time>
      </trkpt>
      <trkpt lat="49.26231" lon="-0.16022">
        <ele>5.4</ele>
        <time>2024-07-03T14:57:30Z</time>
      </trkpt>
      <trkpt lat="49.2624" lon="-0.16017">
        <ele>5.4</ele>
        <time>2024-07-03T14:57:31Z</time>
      </trkpt>
      <trkpt lat="49.26249" lon="-0.16013">
        <ele>5.6</ele>
        <time>2024-07-03T14:57:32Z</time>
      </trkpt>
      <trkpt lat="49.26258" lon="-0.16007">
        <ele>5.6</ele>
        <time>2024-07-03T14:57:33Z</time>
      </trkpt>
      <trkpt lat="49.26268" lon="-0.16003">
        <ele>5.6</ele>
        <time>2024-07-03T14:57:34Z</time>
      </trkpt>
      <trkpt lat="49.26277" lon="-0.15998">
        <ele>5.8</ele>
        <time>2024-07-03T14:57:35Z</time>
      </trkpt>
      <trkpt lat="49.26286" lon="-0.15992">
        <ele>5.8</ele>
        <time>2024-07-03T14:57:36Z</time>
      </trkpt>
      <trkpt lat="49.26294" lon="-0.15988">
        <ele>5.8</ele>
        <time>2024-07-03T14:57:37Z</time>
      </trkpt>
      <trkpt lat="49.26303" lon="-0.15983">
        <ele>5.8</ele>
        <time>2024-07-03T14:57:38Z</time>
      </trkpt>
      <trkpt lat="49.26312" lon="-0.15979">
        <ele>5.8</ele>
        <time>2024-07-03T14:57:39Z</time>
      </trkpt>
      <trkpt lat="49.26321" lon="-0.15974">
        <ele>5.8</ele>
        <time>2024-07-03T14:57:40Z</time>
      </trkpt>
      <trkpt lat="49.2633" lon="-0.1597">
        <ele>5.8</ele>
        <time>2024-07-03T14:57:41Z</time>
      </trkpt>
      <trkpt lat="49.26338" lon="-0.15965">
        <ele>5.6</ele>
        <time>2024-07-03T14:57:42Z</time>
      </trkpt>
      <trkpt lat="49.26347" lon="-0.15961">
        <ele>5.6</ele>
        <time>2024-07-03T14:57:43Z</time>
      </trkpt>
      <trkpt lat="49.26356" lon="-0.15956">
        <ele>5.6</ele>
        <time>2024-07-03T14:57:44Z</time>
      </trkpt>
      <trkpt lat="49.26366" lon="-0.15952">
        <ele>5.6</ele>
        <time>2024-07-03T14:57:45Z</time>
      </trkpt>
      <trkpt lat="49.26375" lon="-0.15947">
        <ele>5.6</ele>
        <time>2024-07-03T14:57:46Z</time>
      </trkpt>
      <trkpt lat="49.26384" lon="-0.15942">
        <ele>5.8</ele>
        <time>2024-07-03T14:57:47Z</time>
      </trkpt>
      <trkpt lat="49.26394" lon="-0.15938">
        <ele>6</ele>
        <time>2024-07-03T14:57:48Z</time>
      </trkpt>
      <trkpt lat="49.26403" lon="-0.15933">
        <ele>6</ele>
        <time>2024-07-03T14:57:49Z</time>
      </trkpt>
      <trkpt lat="49.26412" lon="-0.15928">
        <ele>5.8</ele>
        <time>2024-07-03T14:57:50Z</time>
      </trkpt>
      <trkpt lat="49.26421" lon="-0.15923">
        <ele>5.8</ele>
        <time>2024-07-03T14:57:51Z</time>
      </trkpt>
      <trkpt lat="49.26431" lon="-0.15919">
        <ele>5.8</ele>
        <time>2024-07-03T14:57:52Z</time>
      </trkpt>
      <trkpt lat="49.2644" lon="-0.15913">
        <ele>5.8</ele>
        <time>2024-07-03T14:57:53Z</time>
      </trkpt>
      <trkpt lat="49.2645" lon="-0.15908">
        <ele>5.6</ele>
        <time>2024-07-03T14:57:54Z</time>
      </trkpt>
      <trkpt lat="49.2646" lon="-0.15903">
        <ele>5.6</ele>
        <time>2024-07-03T14:57:55Z</time>
      </trkpt>
      <trkpt lat="49.2647" lon="-0.15898">
        <ele>5.6</ele>
        <time>2024-07-03T14:57:56Z</time>
      </trkpt>
      <trkpt lat="49.26479" lon="-0.15893">
        <ele>5.6</ele>
        <time>2024-07-03T14:57:57Z</time>
      </trkpt>
      <trkpt lat="49.26489" lon="-0.15888">
        <ele>5.8</ele>
        <time>2024-07-03T14:57:58Z</time>
      </trkpt>
      <trkpt lat="49.26498" lon="-0.15883">
        <ele>6</ele>
        <time>2024-07-03T14:57:59Z</time>
      </trkpt>
      <trkpt lat="49.26507" lon="-0.15879">
        <ele>6</ele>
        <time>2024-07-03T14:58:00Z</time>
      </trkpt>
      <trkpt lat="49.26516" lon="-0.15874">
        <ele>6.2</ele>
        <time>2024-07-03T14:58:01Z</time>
      </trkpt>
      <trkpt lat="49.26525" lon="-0.1587">
        <ele>6.2</ele>
        <time>2024-07-03T14:58:02Z</time>
      </trkpt>
      <trkpt lat="49.26534" lon="-0.15866">
        <ele>6.2</ele>
        <time>2024-07-03T14:58:03Z</time>
      </trkpt>
      <trkpt lat="49.26543" lon="-0.15863">
        <ele>6.4</ele>
        <time>2024-07-03T14:58:04Z</time>
      </trkpt>
      <trkpt lat="49.26552" lon="-0.15859">
        <ele>6.4</ele>
        <time>2024-07-03T14:58:05Z</time>
      </trkpt>
      <trkpt lat="49.26562" lon="-0.15857">
        <ele>6.2</ele>
        <time>2024-07-03T14:58:06Z</time>
      </trkpt>
      <trkpt lat="49.26571" lon="-0.15854">
        <ele>6.2</ele>
        <time>2024-07-03T14:58:07Z</time>
      </trkpt>
      <trkpt lat="49.2658" lon="-0.15852">
        <ele>6</ele>
        <time>2024-07-03T14:58:08Z</time>
      </trkpt>
      <trkpt lat="49.26589" lon="-0.1585">
        <ele>6</ele>
        <time>2024-07-03T14:58:09Z</time>
      </trkpt>
      <trkpt lat="49.26598" lon="-0.15848">
        <ele>6</ele>
        <time>2024-07-03T14:58:10Z</time>
      </trkpt>
      <trkpt lat="49.26607" lon="-0.15847">
        <ele>6</ele>
        <time>2024-07-03T14:58:11Z</time>
      </trkpt>
      <trkpt lat="49.26616" lon="-0.15846">
        <ele>6</ele>
        <time>2024-07-03T14:58:12Z</time>
      </trkpt>
      <trkpt lat="49.26625" lon="-0.15845">
        <ele>6.2</ele>
        <time>2024-07-03T14:58:13Z</time>
      </trkpt>
      <trkpt lat="49.26634" lon="-0.15845">
        <ele>6.4</ele>
        <time>2024-07-03T14:58:14Z</time>
      </trkpt>
      <trkpt lat="49.26644" lon="-0.15844">
        <ele>6.4</ele>
        <time>2024-07-03T14:58:15Z</time>
      </trkpt>
      <trkpt lat="49.26653" lon="-0.15843">
        <ele>6.4</ele>
        <time>2024-07-03T14:58:16Z</time>
      </trkpt>
      <trkpt lat="49.26662" lon="-0.15842">
        <ele>6.4</ele>
        <time>2024-07-03T14:58:17Z</time>
      </trkpt>
      <trkpt lat="49.26671" lon="-0.15842">
        <ele>6.4</ele>
        <time>2024-07-03T14:58:18Z</time>
      </trkpt>
      <trkpt lat="49.2668" lon="-0.15841">
        <ele>6.2</ele>
        <time>2024-07-03T14:58:19Z</time>
      </trkpt>
      <trkpt lat="49.26689" lon="-0.15841">
        <ele>6</ele>
        <time>2024-07-03T14:58:20Z</time>
      </trkpt>
      <trkpt lat="49.26698" lon="-0.1584">
        <ele>6</ele>
        <time>2024-07-03T14:58:21Z</time>
      </trkpt>
      <trkpt lat="49.26707" lon="-0.15839">
        <ele>6</ele>
        <time>2024-07-03T14:58:22Z</time>
      </trkpt>
      <trkpt lat="49.26716" lon="-0.15838">
        <ele>6</ele>
        <time>2024-07-03T14:58:23Z</time>
      </trkpt>
      <trkpt lat="49.26725" lon="-0.15837">
        <ele>6</ele>
        <time>2024-07-03T14:58:24Z</time>
      </trkpt>
      <trkpt lat="49.26734" lon="-0.15837">
        <ele>6</ele>
        <time>2024-07-03T14:58:25Z</time>
      </trkpt>
      <trkpt lat="49.26742" lon="-0.15836">
        <ele>6</ele>
        <time>2024-07-03T14:58:26Z</time>
      </trkpt>
      <trkpt lat="49.26751" lon="-0.15835">
        <ele>6</ele>
        <time>2024-07-03T14:58:27Z</time>
      </trkpt>
      <trkpt lat="49.2676" lon="-0.15835">
        <ele>6</ele>
        <time>2024-07-03T14:58:28Z</time>
      </trkpt>
      <trkpt lat="49.26769" lon="-0.15835">
        <ele>6</ele>
        <time>2024-07-03T14:58:29Z</time>
      </trkpt>
      <trkpt lat="49.26778" lon="-0.15833">
        <ele>6</ele>
        <time>2024-07-03T14:58:30Z</time>
      </trkpt>
      <trkpt lat="49.26787" lon="-0.15832">
        <ele>6</ele>
        <time>2024-07-03T14:58:31Z</time>
      </trkpt>
      <trkpt lat="49.26796" lon="-0.1583">
        <ele>6</ele>
        <time>2024-07-03T14:58:32Z</time>
      </trkpt>
      <trkpt lat="49.26805" lon="-0.15827">
        <ele>6</ele>
        <time>2024-07-03T14:58:33Z</time>
      </trkpt>
      <trkpt lat="49.26815" lon="-0.15825">
        <ele>5.8</ele>
        <time>2024-07-03T14:58:34Z</time>
      </trkpt>
      <trkpt lat="49.26824" lon="-0.15822">
        <ele>5.8</ele>
        <time>2024-07-03T14:58:35Z</time>
      </trkpt>
      <trkpt lat="49.26833" lon="-0.15818">
        <ele>5.8</ele>
        <time>2024-07-03T14:58:36Z</time>
      </trkpt>
      <trkpt lat="49.26842" lon="-0.15814">
        <ele>6</ele>
        <time>2024-07-03T14:58:37Z</time>
      </trkpt>
      <trkpt lat="49.26851" lon="-0.15811">
        <ele>6</ele>
        <time>2024-07-03T14:58:38Z</time>
      </trkpt>
      <trkpt lat="49.2686" lon="-0.15807">
        <ele>6</ele>
        <time>2024-07-03T14:58:39Z</time>
      </trkpt>
      <trkpt lat="49.26869" lon="-0.15802">
        <ele>6</ele>
        <time>2024-07-03T14:58:40Z</time>
      </trkpt>
      <trkpt lat="49.26878" lon="-0.15798">
        <ele>6</ele>
        <time>2024-07-03T14:58:41Z</time>
      </trkpt>
      <trkpt lat="49.26886" lon="-0.15792">
        <ele>6</ele>
        <time>2024-07-03T14:58:42Z</time>
      </trkpt>
      <trkpt lat="49.26894" lon="-0.15786">
        <ele>5.8</ele>
        <time>2024-07-03T14:58:43Z</time>
      </trkpt>
      <trkpt lat="49.26903" lon="-0.1578">
        <ele>5.8</ele>
        <time>2024-07-03T14:58:44Z</time>
      </trkpt>
      <trkpt lat="49.26911" lon="-0.15774">
        <ele>5.6</ele>
        <time>2024-07-03T14:58:45Z</time>
      </trkpt>
      <trkpt lat="49.26919" lon="-0.15768">
        <ele>5.6</ele>
        <time>2024-07-03T14:58:46Z</time>
      </trkpt>
      <trkpt lat="49.26928" lon="-0.1576">
        <ele>5.4</ele>
        <time>2024-07-03T14:58:47Z</time>
      </trkpt>
      <trkpt lat="49.26936" lon="-0.15753">
        <ele>5.4</ele>
        <time>2024-07-03T14:58:48Z</time>
      </trkpt>
      <trkpt lat="49.26944" lon="-0.15745">
        <ele>5.4</ele>
        <time>2024-07-03T14:58:49Z</time>
      </trkpt>
      <trkpt lat="49.26952" lon="-0.15737">
        <ele>5.4</ele>
        <time>2024-07-03T14:58:50Z</time>
      </trkpt>
      <trkpt lat="49.2696" lon="-0.1573">
        <ele>5.4</ele>
        <time>2024-07-03T14:58:51Z</time>
      </trkpt>
      <trkpt lat="49.26967" lon="-0.15721">
        <ele>5.4</ele>
        <time>2024-07-03T14:58:52Z</time>
      </trkpt>
      <trkpt lat="49.26975" lon="-0.15712">
        <ele>5.4</ele>
        <time>2024-07-03T14:58:53Z</time>
      </trkpt>
      <trkpt lat="49.26983" lon="-0.15703">
        <ele>5.4</ele>
        <time>2024-07-03T14:58:54Z</time>
      </trkpt>
      <trkpt lat="49.2699" lon="-0.15694">
        <ele>5.4</ele>
        <time>2024-07-03T14:58:55Z</time>
      </trkpt>
      <trkpt lat="49.26998" lon="-0.15684">
        <ele>5.4</ele>
        <time>2024-07-03T14:58:56Z</time>
      </trkpt>
      <trkpt lat="49.27005" lon="-0.15673">
        <ele>5.2</ele>
        <time>2024-07-03T14:58:57Z</time>
      </trkpt>
      <trkpt lat="49.27011" lon="-0.15663">
        <ele>4.6</ele>
        <time>2024-07-03T14:58:58Z</time>
      </trkpt>
      <trkpt lat="49.27018" lon="-0.15652">
        <ele>4.4</ele>
        <time>2024-07-03T14:58:59Z</time>
      </trkpt>
      <trkpt lat="49.27025" lon="-0.15641">
        <ele>4.2</ele>
        <time>2024-07-03T14:59:00Z</time>
      </trkpt>
      <trkpt lat="49.27031" lon="-0.15631">
        <ele>4</ele>
        <time>2024-07-03T14:59:01Z</time>
      </trkpt>
      <trkpt lat="49.27038" lon="-0.1562">
        <ele>3.8</ele>
        <time>2024-07-03T14:59:02Z</time>
      </trkpt>
      <trkpt lat="49.27045" lon="-0.15609">
        <ele>3.6</ele>
        <time>2024-07-03T14:59:03Z</time>
      </trkpt>
      <trkpt lat="49.27052" lon="-0.15598">
        <ele>3.6</ele>
        <time>2024-07-03T14:59:04Z</time>
      </trkpt>
      <trkpt lat="49.27059" lon="-0.15586">
        <ele>3.4</ele>
        <time>2024-07-03T14:59:05Z</time>
      </trkpt>
      <trkpt lat="49.27065" lon="-0.15576">
        <ele>3.4</ele>
        <time>2024-07-03T14:59:06Z</time>
      </trkpt>
      <trkpt lat="49.27072" lon="-0.15565">
        <ele>3.2</ele>
        <time>2024-07-03T14:59:07Z</time>
      </trkpt>
      <trkpt lat="49.27079" lon="-0.15555">
        <ele>3.2</ele>
        <time>2024-07-03T14:59:08Z</time>
      </trkpt>
      <trkpt lat="49.27086" lon="-0.15544">
        <ele>3.2</ele>
        <time>2024-07-03T14:59:09Z</time>
      </trkpt>
      <trkpt lat="49.27092" lon="-0.15534">
        <ele>3.2</ele>
        <time>2024-07-03T14:59:10Z</time>
      </trkpt>
      <trkpt lat="49.27099" lon="-0.15523">
        <ele>3.2</ele>
        <time>2024-07-03T14:59:11Z</time>
      </trkpt>
      <trkpt lat="49.27105" lon="-0.15513">
        <ele>3.4</ele>
        <time>2024-07-03T14:59:12Z</time>
      </trkpt>
      <trkpt lat="49.27112" lon="-0.15502">
        <ele>3.4</ele>
        <time>2024-07-03T14:59:13Z</time>
      </trkpt>
      <trkpt lat="49.27118" lon="-0.15492">
        <ele>3.4</ele>
        <time>2024-07-03T14:59:14Z</time>
      </trkpt>
      <trkpt lat="49.27125" lon="-0.15482">
        <ele>3.6</ele>
        <time>2024-07-03T14:59:15Z</time>
      </trkpt>
      <trkpt lat="49.27131" lon="-0.15472">
        <ele>3.8</ele>
        <time>2024-07-03T14:59:16Z</time>
      </trkpt>
      <trkpt lat="49.27137" lon="-0.15461">
        <ele>4</ele>
        <time>2024-07-03T14:59:17Z</time>
      </trkpt>
      <trkpt lat="49.27144" lon="-0.15451">
        <ele>4.2</ele>
        <time>2024-07-03T14:59:18Z</time>
      </trkpt>
      <trkpt lat="49.2715" lon="-0.1544">
        <ele>4.6</ele>
        <time>2024-07-03T14:59:19Z</time>
      </trkpt>
      <trkpt lat="49.27156" lon="-0.1543">
        <ele>4.6</ele>
        <time>2024-07-03T14:59:20Z</time>
      </trkpt>
      <trkpt lat="49.27163" lon="-0.1542">
        <ele>4.8</ele>
        <time>2024-07-03T14:59:21Z</time>
      </trkpt>
      <trkpt lat="49.2717" lon="-0.1541">
        <ele>4.6</ele>
        <time>2024-07-03T14:59:22Z</time>
      </trkpt>
      <trkpt lat="49.27176" lon="-0.15399">
        <ele>4.6</ele>
        <time>2024-07-03T14:59:23Z</time>
      </trkpt>
      <trkpt lat="49.27182" lon="-0.15389">
        <ele>4.6</ele>
        <time>2024-07-03T14:59:24Z</time>
      </trkpt>
      <trkpt lat="49.27189" lon="-0.15378">
        <ele>4.8</ele>
        <time>2024-07-03T14:59:25Z</time>
      </trkpt>
      <trkpt lat="49.27195" lon="-0.15368">
        <ele>4.6</ele>
        <time>2024-07-03T14:59:26Z</time>
      </trkpt>
      <trkpt lat="49.27201" lon="-0.15358">
        <ele>4.6</ele>
        <time>2024-07-03T14:59:27Z</time>
      </trkpt>
      <trkpt lat="49.27207" lon="-0.15348">
        <ele>4.8</ele>
        <time>2024-07-03T14:59:28Z</time>
      </trkpt>
      <trkpt lat="49.27214" lon="-0.15338">
        <ele>5</ele>
        <time>2024-07-03T14:59:29Z</time>
      </trkpt>
      <trkpt lat="49.2722" lon="-0.15328">
        <ele>5</ele>
        <time>2024-07-03T14:59:30Z</time>
      </trkpt>
      <trkpt lat="49.27227" lon="-0.15318">
        <ele>4.8</ele>
        <time>2024-07-03T14:59:31Z</time>
      </trkpt>
      <trkpt lat="49.27234" lon="-0.15307">
        <ele>4.6</ele>
        <time>2024-07-03T14:59:32Z</time>
      </trkpt>
      <trkpt lat="49.2724" lon="-0.15297">
        <ele>4.6</ele>
        <time>2024-07-03T14:59:33Z</time>
      </trkpt>
      <trkpt lat="49.27247" lon="-0.15288">
        <ele>4.6</ele>
        <time>2024-07-03T14:59:34Z</time>
      </trkpt>
      <trkpt lat="49.27254" lon="-0.15278">
        <ele>4.6</ele>
        <time>2024-07-03T14:59:35Z</time>
      </trkpt>
      <trkpt lat="49.27261" lon="-0.15269">
        <ele>4.6</ele>
        <time>2024-07-03T14:59:36Z</time>
      </trkpt>
      <trkpt lat="49.27268" lon="-0.1526">
        <ele>4.6</ele>
        <time>2024-07-03T14:59:37Z</time>
      </trkpt>
      <trkpt lat="49.27275" lon="-0.15251">
        <ele>4.6</ele>
        <time>2024-07-03T14:59:38Z</time>
      </trkpt>
      <trkpt lat="49.27283" lon="-0.15242">
        <ele>4.8</ele>
        <time>2024-07-03T14:59:39Z</time>
      </trkpt>
      <trkpt lat="49.27291" lon="-0.15233">
        <ele>4.8</ele>
        <time>2024-07-03T14:59:40Z</time>
      </trkpt>
      <trkpt lat="49.27299" lon="-0.15224">
        <ele>5</ele>
        <time>2024-07-03T14:59:41Z</time>
      </trkpt>
      <trkpt lat="49.27307" lon="-0.15216">
        <ele>5.2</ele>
        <time>2024-07-03T14:59:42Z</time>
      </trkpt>
      <trkpt lat="49.27315" lon="-0.15208">
        <ele>5.4</ele>
        <time>2024-07-03T14:59:43Z</time>
      </trkpt>
      <trkpt lat="49.27323" lon="-0.15201">
        <ele>5.6</ele>
        <time>2024-07-03T14:59:44Z</time>
      </trkpt>
      <trkpt lat="49.2733" lon="-0.15193">
        <ele>5.8</ele>
        <time>2024-07-03T14:59:45Z</time>
      </trkpt>
      <trkpt lat="49.27338" lon="-0.15186">
        <ele>5.8</ele>
        <time>2024-07-03T14:59:46Z</time>
      </trkpt>
      <trkpt lat="49.27345" lon="-0.15178">
        <ele>5.8</ele>
        <time>2024-07-03T14:59:47Z</time>
      </trkpt>
      <trkpt lat="49.27353" lon="-0.1517">
        <ele>5.8</ele>
        <time>2024-07-03T14:59:48Z</time>
      </trkpt>
      <trkpt lat="49.27361" lon="-0.15162">
        <ele>5.8</ele>
        <time>2024-07-03T14:59:49Z</time>
      </trkpt>
      <trkpt lat="49.27369" lon="-0.15155">
        <ele>5.8</ele>
        <time>2024-07-03T14:59:50Z</time>
      </trkpt>
      <trkpt lat="49.27377" lon="-0.15147">
        <ele>6</ele>
        <time>2024-07-03T14:59:51Z</time>
      </trkpt>
      <trkpt lat="49.27385" lon="-0.15139">
        <ele>6</ele>
        <time>2024-07-03T14:59:52Z</time>
      </trkpt>
      <trkpt lat="49.27393" lon="-0.15131">
        <ele>6</ele>
        <time>2024-07-03T14:59:53Z</time>
      </trkpt>
      <trkpt lat="49.27401" lon="-0.15123">
        <ele>6</ele>
        <time>2024-07-03T14:59:54Z</time>
      </trkpt>
      <trkpt lat="49.27409" lon="-0.15115">
        <ele>6</ele>
        <time>2024-07-03T14:59:55Z</time>
      </trkpt>
      <trkpt lat="49.27417" lon="-0.15108">
        <ele>6</ele>
        <time>2024-07-03T14:59:56Z</time>
      </trkpt>
      <trkpt lat="49.27425" lon="-0.151">
        <ele>6.2</ele>
        <time>2024-07-03T14:59:57Z</time>
      </trkpt>
      <trkpt lat="49.27433" lon="-0.15093">
        <ele>6.2</ele>
        <time>2024-07-03T14:59:58Z</time>
      </trkpt>
      <trkpt lat="49.2744" lon="-0.15087">
        <ele>6.2</ele>
        <time>2024-07-03T14:59:59Z</time>
      </trkpt>
      <trkpt lat="49.27447" lon="-0.15082">
        <ele>6.2</ele>
        <time>2024-07-03T15:00:00Z</time>
      </trkpt>
      <trkpt lat="49.27454" lon="-0.15077">
        <ele>6.2</ele>
        <time>2024-07-03T15:00:01Z</time>
      </trkpt>
      <trkpt lat="49.27461" lon="-0.15071">
        <ele>6.2</ele>
        <time>2024-07-03T15:00:02Z</time>
      </trkpt>
      <trkpt lat="49.27466" lon="-0.15065">
        <ele>6.4</ele>
        <time>2024-07-03T15:00:03Z</time>
      </trkpt>
      <trkpt lat="49.27473" lon="-0.15058">
        <ele>6.4</ele>
        <time>2024-07-03T15:00:04Z</time>
      </trkpt>
      <trkpt lat="49.27479" lon="-0.15051">
        <ele>6.2</ele>
        <time>2024-07-03T15:00:05Z</time>
      </trkpt>
      <trkpt lat="49.27485" lon="-0.15044">
        <ele>6.2</ele>
        <time>2024-07-03T15:00:06Z</time>
      </trkpt>
      <trkpt lat="49.27492" lon="-0.15037">
        <ele>5.8</ele>
        <time>2024-07-03T15:00:07Z</time>
      </trkpt>
      <trkpt lat="49.27498" lon="-0.15029">
        <ele>5.6</ele>
        <time>2024-07-03T15:00:08Z</time>
      </trkpt>
      <trkpt lat="49.27505" lon="-0.15023">
        <ele>5.6</ele>
        <time>2024-07-03T15:00:09Z</time>
      </trkpt>
      <trkpt lat="49.27511" lon="-0.15015">
        <ele>5.4</ele>
        <time>2024-07-03T15:00:10Z</time>
      </trkpt>
      <trkpt lat="49.27517" lon="-0.15007">
        <ele>5.4</ele>
        <time>2024-07-03T15:00:11Z</time>
      </trkpt>
      <trkpt lat="49.27523" lon="-0.14999">
        <ele>5.4</ele>
        <time>2024-07-03T15:00:12Z</time>
      </trkpt>
      <trkpt lat="49.2753" lon="-0.1499">
        <ele>5.4</ele>
        <time>2024-07-03T15:00:13Z</time>
      </trkpt>
      <trkpt lat="49.27536" lon="-0.14981">
        <ele>5.6</ele>
        <time>2024-07-03T15:00:14Z</time>
      </trkpt>
      <trkpt lat="49.27542" lon="-0.14972">
        <ele>5.4</ele>
        <time>2024-07-03T15:00:15Z</time>
      </trkpt>
      <trkpt lat="49.27548" lon="-0.14963">
        <ele>5.4</ele>
        <time>2024-07-03T15:00:16Z</time>
      </trkpt>
      <trkpt lat="49.27555" lon="-0.14954">
        <ele>5.4</ele>
        <time>2024-07-03T15:00:17Z</time>
      </trkpt>
      <trkpt lat="49.27561" lon="-0.14944">
        <ele>5.6</ele>
        <time>2024-07-03T15:00:18Z</time>
      </trkpt>
      <trkpt lat="49.27567" lon="-0.14936">
        <ele>5.6</ele>
        <time>2024-07-03T15:00:19Z</time>
      </trkpt>
      <trkpt lat="49.27573" lon="-0.14927">
        <ele>5.8</ele>
        <time>2024-07-03T15:00:20Z</time>
      </trkpt>
      <trkpt lat="49.27579" lon="-0.14918">
        <ele>5.8</ele>
        <time>2024-07-03T15:00:21Z</time>
      </trkpt>
      <trkpt lat="49.27585" lon="-0.14909">
        <ele>5.8</ele>
        <time>2024-07-03T15:00:22Z</time>
      </trkpt>
      <trkpt lat="49.27591" lon="-0.14902">
        <ele>5.8</ele>
        <time>2024-07-03T15:00:23Z</time>
      </trkpt>
      <trkpt lat="49.27597" lon="-0.14894">
        <ele>5.8</ele>
        <time>2024-07-03T15:00:24Z</time>
      </trkpt>
      <trkpt lat="49.27604" lon="-0.14886">
        <ele>5.8</ele>
        <time>2024-07-03T15:00:25Z</time>
      </trkpt>
      <trkpt lat="49.27609" lon="-0.14878">
        <ele>5.6</ele>
        <time>2024-07-03T15:00:26Z</time>
      </trkpt>
      <trkpt lat="49.27615" lon="-0.14871">
        <ele>5.6</ele>
        <time>2024-07-03T15:00:27Z</time>
      </trkpt>
      <trkpt lat="49.27621" lon="-0.14864">
        <ele>5.4</ele>
        <time>2024-07-03T15:00:28Z</time>
      </trkpt>
      <trkpt lat="49.27626" lon="-0.14857">
        <ele>5.4</ele>
        <time>2024-07-03T15:00:29Z</time>
      </trkpt>
      <trkpt lat="49.27631" lon="-0.14849">
        <ele>5.4</ele>
        <time>2024-07-03T15:00:30Z</time>
      </trkpt>
      <trkpt lat="49.27636" lon="-0.1484">
        <ele>5.8</ele>
        <time>2024-07-03T15:00:31Z</time>
      </trkpt>
      <trkpt lat="49.27641" lon="-0.14831">
        <ele>6</ele>
        <time>2024-07-03T15:00:32Z</time>
      </trkpt>
      <trkpt lat="49.27647" lon="-0.14822">
        <ele>6</ele>
        <time>2024-07-03T15:00:33Z</time>
      </trkpt>
      <trkpt lat="49.27653" lon="-0.14813">
        <ele>6</ele>
        <time>2024-07-03T15:00:34Z</time>
      </trkpt>
      <trkpt lat="49.27659" lon="-0.14803">
        <ele>6</ele>
        <time>2024-07-03T15:00:35Z</time>
      </trkpt>
      <trkpt lat="49.27664" lon="-0.14794">
        <ele>6</ele>
        <time>2024-07-03T15:00:36Z</time>
      </trkpt>
      <trkpt lat="49.2767" lon="-0.14786">
        <ele>6</ele>
        <time>2024-07-03T15:00:37Z</time>
      </trkpt>
      <trkpt lat="49.27675" lon="-0.14778">
        <ele>6</ele>
        <time>2024-07-03T15:00:38Z</time>
      </trkpt>
      <trkpt lat="49.2768" lon="-0.1477">
        <ele>6</ele>
        <time>2024-07-03T15:00:39Z</time>
      </trkpt>
      <trkpt lat="49.27685" lon="-0.14762">
        <ele>5.8</ele>
        <time>2024-07-03T15:00:40Z</time>
      </trkpt>
      <trkpt lat="49.2769" lon="-0.14754">
        <ele>5.8</ele>
        <time>2024-07-03T15:00:41Z</time>
      </trkpt>
      <trkpt lat="49.27695" lon="-0.14746">
        <ele>6</ele>
        <time>2024-07-03T15:00:42Z</time>
      </trkpt>
      <trkpt lat="49.277" lon="-0.14738">
        <ele>6</ele>
        <time>2024-07-03T15:00:43Z</time>
      </trkpt>
      <trkpt lat="49.27705" lon="-0.1473">
        <ele>6</ele>
        <time>2024-07-03T15:00:44Z</time>
      </trkpt>
      <trkpt lat="49.2771" lon="-0.14722">
        <ele>6</ele>
        <time>2024-07-03T15:00:45Z</time>
      </trkpt>
      <trkpt lat="49.27715" lon="-0.14714">
        <ele>6</ele>
        <time>2024-07-03T15:00:46Z</time>
      </trkpt>
      <trkpt lat="49.2772" lon="-0.14706">
        <ele>6</ele>
        <time>2024-07-03T15:00:47Z</time>
      </trkpt>
      <trkpt lat="49.27726" lon="-0.14697">
        <ele>6</ele>
        <time>2024-07-03T15:00:48Z</time>
      </trkpt>
      <trkpt lat="49.27732" lon="-0.14689">
        <ele>6</ele>
        <time>2024-07-03T15:00:49Z</time>
      </trkpt>
      <trkpt lat="49.27738" lon="-0.14681">
        <ele>6</ele>
        <time>2024-07-03T15:00:50Z</time>
      </trkpt>
      <trkpt lat="49.27744" lon="-0.14673">
        <ele>6.2</ele>
        <time>2024-07-03T15:00:51Z</time>
      </trkpt>
      <trkpt lat="49.2775" lon="-0.14665">
        <ele>6.2</ele>
        <time>2024-07-03T15:00:52Z</time>
      </trkpt>
      <trkpt lat="49.27756" lon="-0.14656">
        <ele>6.2</ele>
        <time>2024-07-03T15:00:53Z</time>
      </trkpt>
      <trkpt lat="49.27762" lon="-0.14648">
        <ele>6.2</ele>
        <time>2024-07-03T15:00:54Z</time>
      </trkpt>
      <trkpt lat="49.27768" lon="-0.14639">
        <ele>6.2</ele>
        <time>2024-07-03T15:00:55Z</time>
      </trkpt>
      <trkpt lat="49.27774" lon="-0.1463">
        <ele>6.2</ele>
        <time>2024-07-03T15:00:56Z</time>
      </trkpt>
      <trkpt lat="49.2778" lon="-0.14621">
        <ele>6.2</ele>
        <time>2024-07-03T15:00:57Z</time>
      </trkpt>
      <trkpt lat="49.27786" lon="-0.14612">
        <ele>6.2</ele>
        <time>2024-07-03T15:00:58Z</time>
      </trkpt>
      <trkpt lat="49.27792" lon="-0.14603">
        <ele>6.2</ele>
        <time>2024-07-03T15:00:59Z</time>
      </trkpt>
      <trkpt lat="49.27798" lon="-0.14594">
        <ele>6</ele>
        <time>2024-07-03T15:01:00Z</time>
      </trkpt>
      <trkpt lat="49.27805" lon="-0.14585">
        <ele>6</ele>
        <time>2024-07-03T15:01:01Z</time>
      </trkpt>
      <trkpt lat="49.27811" lon="-0.14576">
        <ele>6</ele>
        <time>2024-07-03T15:01:02Z</time>
      </trkpt>
      <trkpt lat="49.27817" lon="-0.14567">
        <ele>6</ele>
        <time>2024-07-03T15:01:03Z</time>
      </trkpt>
      <trkpt lat="49.27823" lon="-0.14558">
        <ele>6</ele>
        <time>2024-07-03T15:01:04Z</time>
      </trkpt>
      <trkpt lat="49.27829" lon="-0.14549">
        <ele>6</ele>
        <time>2024-07-03T15:01:05Z</time>
      </trkpt>
      <trkpt lat="49.27835" lon="-0.14539">
        <ele>6</ele>
        <time>2024-07-03T15:01:06Z</time>
      </trkpt>
      <trkpt lat="49.27841" lon="-0.1453">
        <ele>6</ele>
        <time>2024-07-03T15:01:07Z</time>
      </trkpt>
      <trkpt lat="49.27848" lon="-0.1452">
        <ele>6</ele>
        <time>2024-07-03T15:01:08Z</time>
      </trkpt>
      <trkpt lat="49.27854" lon="-0.1451">
        <ele>6</ele>
        <time>2024-07-03T15:01:09Z</time>
      </trkpt>
      <trkpt lat="49.27861" lon="-0.145">
        <ele>6</ele>
        <time>2024-07-03T15:01:10Z</time>
      </trkpt>
      <trkpt lat="49.27867" lon="-0.14491">
        <ele>6</ele>
        <time>2024-07-03T15:01:11Z</time>
      </trkpt>
      <trkpt lat="49.27874" lon="-0.14482">
        <ele>6</ele>
        <time>2024-07-03T15:01:12Z</time>
      </trkpt>
      <trkpt lat="49.2788" lon="-0.14473">
        <ele>6.2</ele>
        <time>2024-07-03T15:01:13Z</time>
      </trkpt>
      <trkpt lat="49.27887" lon="-0.14463">
        <ele>6.2</ele>
        <time>2024-07-03T15:01:14Z</time>
      </trkpt>
      <trkpt lat="49.27894" lon="-0.14453">
        <ele>6.2</ele>
        <time>2024-07-03T15:01:15Z</time>
      </trkpt>
      <trkpt lat="49.279" lon="-0.14443">
        <ele>6.2</ele>
        <time>2024-07-03T15:01:16Z</time>
      </trkpt>
      <trkpt lat="49.27907" lon="-0.14433">
        <ele>6.2</ele>
        <time>2024-07-03T15:01:17Z</time>
      </trkpt>
      <trkpt lat="49.27914" lon="-0.14423">
        <ele>6.2</ele>
        <time>2024-07-03T15:01:18Z</time>
      </trkpt>
      <trkpt lat="49.27921" lon="-0.14413">
        <ele>6.2</ele>
        <time>2024-07-03T15:01:19Z</time>
      </trkpt>
      <trkpt lat="49.27928" lon="-0.14403">
        <ele>6.2</ele>
        <time>2024-07-03T15:01:20Z</time>
      </trkpt>
      <trkpt lat="49.27934" lon="-0.14393">
        <ele>6.2</ele>
        <time>2024-07-03T15:01:21Z</time>
      </trkpt>
      <trkpt lat="49.27941" lon="-0.14382">
        <ele>6.2</ele>
        <time>2024-07-03T15:01:22Z</time>
      </trkpt>
      <trkpt lat="49.27947" lon="-0.14371">
        <ele>6.2</ele>
        <time>2024-07-03T15:01:23Z</time>
      </trkpt>
      <trkpt lat="49.27954" lon="-0.14361">
        <ele>6.2</ele>
        <time>2024-07-03T15:01:24Z</time>
      </trkpt>
      <trkpt lat="49.2796" lon="-0.1435">
        <ele>6</ele>
        <time>2024-07-03T15:01:25Z</time>
      </trkpt>
      <trkpt lat="49.27966" lon="-0.1434">
        <ele>6</ele>
        <time>2024-07-03T15:01:26Z</time>
      </trkpt>
      <trkpt lat="49.27973" lon="-0.1433">
        <ele>6</ele>
        <time>2024-07-03T15:01:27Z</time>
      </trkpt>
      <trkpt lat="49.27979" lon="-0.1432">
        <ele>6</ele>
        <time>2024-07-03T15:01:28Z</time>
      </trkpt>
      <trkpt lat="49.27985" lon="-0.14311">
        <ele>6</ele>
        <time>2024-07-03T15:01:29Z</time>
      </trkpt>
      <trkpt lat="49.27992" lon="-0.14302">
        <ele>6</ele>
        <time>2024-07-03T15:01:30Z</time>
      </trkpt>
      <trkpt lat="49.27998" lon="-0.14293">
        <ele>6</ele>
        <time>2024-07-03T15:01:31Z</time>
      </trkpt>
      <trkpt lat="49.28005" lon="-0.14283">
        <ele>6</ele>
        <time>2024-07-03T15:01:32Z</time>
      </trkpt>
      <trkpt lat="49.28011" lon="-0.14274">
        <ele>6</ele>
        <time>2024-07-03T15:01:33Z</time>
      </trkpt>
      <trkpt lat="49.28017" lon="-0.14265">
        <ele>6</ele>
        <time>2024-07-03T15:01:34Z</time>
      </trkpt>
      <trkpt lat="49.28023" lon="-0.14256">
        <ele>6</ele>
        <time>2024-07-03T15:01:35Z</time>
      </trkpt>
      <trkpt lat="49.28029" lon="-0.14248">
        <ele>5.8</ele>
        <time>2024-07-03T15:01:36Z</time>
      </trkpt>
      <trkpt lat="49.28035" lon="-0.1424">
        <ele>5.8</ele>
        <time>2024-07-03T15:01:37Z</time>
      </trkpt>
      <trkpt lat="49.28041" lon="-0.14232">
        <ele>5.8</ele>
        <time>2024-07-03T15:01:38Z</time>
      </trkpt>
      <trkpt lat="49.28047" lon="-0.14226">
        <ele>5.8</ele>
        <time>2024-07-03T15:01:39Z</time>
      </trkpt>
      <trkpt lat="49.28052" lon="-0.14221">
        <ele>6</ele>
        <time>2024-07-03T15:01:40Z</time>
      </trkpt>
      <trkpt lat="49.28057" lon="-0.14216">
        <ele>6.2</ele>
        <time>2024-07-03T15:01:41Z</time>
      </trkpt>
      <trkpt lat="49.28061" lon="-0.14211">
        <ele>6.4</ele>
        <time>2024-07-03T15:01:42Z</time>
      </trkpt>
      <trkpt lat="49.28065" lon="-0.14207">
        <ele>6.6</ele>
        <time>2024-07-03T15:01:43Z</time>
      </trkpt>
      <trkpt lat="49.28069" lon="-0.14202">
        <ele>7</ele>
        <time>2024-07-03T15:01:44Z</time>
      </trkpt>
      <trkpt lat="49.28073" lon="-0.14197">
        <ele>7.2</ele>
        <time>2024-07-03T15:01:45Z</time>
      </trkpt>
      <trkpt lat="49.28076" lon="-0.14191">
        <ele>7.4</ele>
        <time>2024-07-03T15:01:46Z</time>
      </trkpt>
      <trkpt lat="49.2808" lon="-0.14186">
        <ele>7.6</ele>
        <time>2024-07-03T15:01:47Z</time>
      </trkpt>
      <trkpt lat="49.28084" lon="-0.14182">
        <ele>7.6</ele>
        <time>2024-07-03T15:01:48Z</time>
      </trkpt>
      <trkpt lat="49.28087" lon="-0.14179">
        <ele>7.8</ele>
        <time>2024-07-03T15:01:49Z</time>
      </trkpt>
      <trkpt lat="49.2809" lon="-0.14178">
        <ele>7.8</ele>
        <time>2024-07-03T15:01:50Z</time>
      </trkpt>
      <trkpt lat="49.28093" lon="-0.14177">
        <ele>7.8</ele>
        <time>2024-07-03T15:01:51Z</time>
      </trkpt>
      <trkpt lat="49.28097" lon="-0.14174">
        <ele>7.8</ele>
        <time>2024-07-03T15:01:52Z</time>
      </trkpt>
      <trkpt lat="49.281" lon="-0.14171">
        <ele>7.8</ele>
        <time>2024-07-03T15:01:53Z</time>
      </trkpt>
      <trkpt lat="49.28103" lon="-0.14167">
        <ele>7.8</ele>
        <time>2024-07-03T15:01:54Z</time>
      </trkpt>
      <trkpt lat="49.28106" lon="-0.14162">
        <ele>7.8</ele>
        <time>2024-07-03T15:01:55Z</time>
      </trkpt>
      <trkpt lat="49.2811" lon="-0.14157">
        <ele>7.8</ele>
        <time>2024-07-03T15:01:56Z</time>
      </trkpt>
      <trkpt lat="49.28113" lon="-0.14152">
        <ele>7.6</ele>
        <time>2024-07-03T15:01:57Z</time>
      </trkpt>
      <trkpt lat="49.28117" lon="-0.14146">
        <ele>7.6</ele>
        <time>2024-07-03T15:01:58Z</time>
      </trkpt>
      <trkpt lat="49.28121" lon="-0.1414">
        <ele>7.4</ele>
        <time>2024-07-03T15:01:59Z</time>
      </trkpt>
      <trkpt lat="49.28125" lon="-0.14134">
        <ele>7.4</ele>
        <time>2024-07-03T15:02:00Z</time>
      </trkpt>
      <trkpt lat="49.28129" lon="-0.14128">
        <ele>7.4</ele>
        <time>2024-07-03T15:02:01Z</time>
      </trkpt>
      <trkpt lat="49.28134" lon="-0.14121">
        <ele>7.4</ele>
        <time>2024-07-03T15:02:02Z</time>
      </trkpt>
      <trkpt lat="49.28138" lon="-0.14114">
        <ele>7.4</ele>
        <time>2024-07-03T15:02:03Z</time>
      </trkpt>
      <trkpt lat="49.28185" lon="-0.14033">
        <ele>6.4</ele>
        <time>2024-07-03T15:02:13Z</time>
      </trkpt>
      <trkpt lat="49.28188" lon="-0.14029">
        <ele>6.6</ele>
        <time>2024-07-03T15:02:14Z</time>
      </trkpt>
      <trkpt lat="49.28192" lon="-0.1402">
        <ele>6.6</ele>
        <time>2024-07-03T15:02:15Z</time>
      </trkpt>
      <trkpt lat="49.28196" lon="-0.14012">
        <ele>6.8</ele>
        <time>2024-07-03T15:02:16Z</time>
      </trkpt>
      <trkpt lat="49.28201" lon="-0.14005">
        <ele>6.8</ele>
        <time>2024-07-03T15:02:17Z</time>
      </trkpt>
      <trkpt lat="49.28205" lon="-0.13998">
        <ele>7</ele>
        <time>2024-07-03T15:02:18Z</time>
      </trkpt>
      <trkpt lat="49.28209" lon="-0.1399">
        <ele>7</ele>
        <time>2024-07-03T15:02:19Z</time>
      </trkpt>
      <trkpt lat="49.28213" lon="-0.13982">
        <ele>7.2</ele>
        <time>2024-07-03T15:02:20Z</time>
      </trkpt>
      <trkpt lat="49.28216" lon="-0.13973">
        <ele>7.2</ele>
        <time>2024-07-03T15:02:21Z</time>
      </trkpt>
      <trkpt lat="49.28219" lon="-0.13963">
        <ele>7.2</ele>
        <time>2024-07-03T15:02:22Z</time>
      </trkpt>
      <trkpt lat="49.28222" lon="-0.13955">
        <ele>7.2</ele>
        <time>2024-07-03T15:02:23Z</time>
      </trkpt>
      <trkpt lat="49.28226" lon="-0.13947">
        <ele>7.4</ele>
        <time>2024-07-03T15:02:24Z</time>
      </trkpt>
      <trkpt lat="49.28229" lon="-0.1394">
        <ele>7.4</ele>
        <time>2024-07-03T15:02:25Z</time>
      </trkpt>
      <trkpt lat="49.28233" lon="-0.13932">
        <ele>7.4</ele>
        <time>2024-07-03T15:02:26Z</time>
      </trkpt>
      <trkpt lat="49.28237" lon="-0.13923">
        <ele>7.2</ele>
        <time>2024-07-03T15:02:27Z</time>
      </trkpt>
      <trkpt lat="49.28241" lon="-0.13914">
        <ele>7</ele>
        <time>2024-07-03T15:02:28Z</time>
      </trkpt>
      <trkpt lat="49.28245" lon="-0.13905">
        <ele>7</ele>
        <time>2024-07-03T15:02:29Z</time>
      </trkpt>
      <trkpt lat="49.28248" lon="-0.13896">
        <ele>6.8</ele>
        <time>2024-07-03T15:02:30Z</time>
      </trkpt>
      <trkpt lat="49.28251" lon="-0.13886">
        <ele>6.8</ele>
        <time>2024-07-03T15:02:31Z</time>
      </trkpt>
      <trkpt lat="49.28255" lon="-0.13878">
        <ele>6.8</ele>
        <time>2024-07-03T15:02:32Z</time>
      </trkpt>
      <trkpt lat="49.28258" lon="-0.13869">
        <ele>6.8</ele>
        <time>2024-07-03T15:02:33Z</time>
      </trkpt>
      <trkpt lat="49.28261" lon="-0.13861">
        <ele>7</ele>
        <time>2024-07-03T15:02:34Z</time>
      </trkpt>
      <trkpt lat="49.28263" lon="-0.13855">
        <ele>7.2</ele>
        <time>2024-07-03T15:02:35Z</time>
      </trkpt>
      <trkpt lat="49.28265" lon="-0.13851">
        <ele>7.2</ele>
        <time>2024-07-03T15:02:36Z</time>
      </trkpt>
      <trkpt lat="49.28266" lon="-0.13847">
        <ele>7.6</ele>
        <time>2024-07-03T15:02:37Z</time>
      </trkpt>
      <trkpt lat="49.28267" lon="-0.13844">
        <ele>7.8</ele>
        <time>2024-07-03T15:02:38Z</time>
      </trkpt>
      <trkpt lat="49.28268" lon="-0.13842">
        <ele>8</ele>
        <time>2024-07-03T15:02:39Z</time>
      </trkpt>
      <trkpt lat="49.28268" lon="-0.1384">
        <ele>8.2</ele>
        <time>2024-07-03T15:02:40Z</time>
      </trkpt>
      <trkpt lat="49.28268" lon="-0.13839">
        <ele>8.2</ele>
        <time>2024-07-03T15:02:41Z</time>
      </trkpt>
      <trkpt lat="49.28268" lon="-0.13839">
        <ele>8.2</ele>
        <time>2024-07-03T15:02:42Z</time>
      </trkpt>
      <trkpt lat="49.28268" lon="-0.1384">
        <ele>8.2</ele>
        <time>2024-07-03T15:02:43Z</time>
      </trkpt>
      <trkpt lat="49.28297" lon="-0.13744">
        <ele>8.4</ele>
        <time>2024-07-03T15:04:13Z</time>
      </trkpt>
      <trkpt lat="49.28295" lon="-0.13739">
        <ele>8.4</ele>
        <time>2024-07-03T15:04:14Z</time>
      </trkpt>
      <trkpt lat="49.28295" lon="-0.13735">
        <ele>8.4</ele>
        <time>2024-07-03T15:04:15Z</time>
      </trkpt>
      <trkpt lat="49.28295" lon="-0.1373">
        <ele>8.4</ele>
        <time>2024-07-03T15:04:16Z</time>
      </trkpt>
      <trkpt lat="49.28297" lon="-0.13726">
        <ele>8.4</ele>
        <time>2024-07-03T15:04:17Z</time>
      </trkpt>
      <trkpt lat="49.28298" lon="-0.1372">
        <ele>8.4</ele>
        <time>2024-07-03T15:04:18Z</time>
      </trkpt>
      <trkpt lat="49.283" lon="-0.13715">
        <ele>8.4</ele>
        <time>2024-07-03T15:04:19Z</time>
      </trkpt>
      <trkpt lat="49.28301" lon="-0.13709">
        <ele>8.2</ele>
        <time>2024-07-03T15:04:20Z</time>
      </trkpt>
      <trkpt lat="49.28303" lon="-0.13703">
        <ele>8.2</ele>
        <time>2024-07-03T15:04:21Z</time>
      </trkpt>
      <trkpt lat="49.28304" lon="-0.13696">
        <ele>8.2</ele>
        <time>2024-07-03T15:04:22Z</time>
      </trkpt>
      <trkpt lat="49.28305" lon="-0.13689">
        <ele>8</ele>
        <time>2024-07-03T15:04:23Z</time>
      </trkpt>
      <trkpt lat="49.28306" lon="-0.13683">
        <ele>8</ele>
        <time>2024-07-03T15:04:24Z</time>
      </trkpt>
      <trkpt lat="49.28307" lon="-0.13676">
        <ele>8</ele>
        <time>2024-07-03T15:04:25Z</time>
      </trkpt>
      <trkpt lat="49.28308" lon="-0.13671">
        <ele>8</ele>
        <time>2024-07-03T15:04:26Z</time>
      </trkpt>
      <trkpt lat="49.28309" lon="-0.13666">
        <ele>8</ele>
        <time>2024-07-03T15:04:27Z</time>
      </trkpt>
      <trkpt lat="49.28309" lon="-0.13663">
        <ele>8</ele>
        <time>2024-07-03T15:04:28Z</time>
      </trkpt>
      <trkpt lat="49.28309" lon="-0.13661">
        <ele>8</ele>
        <time>2024-07-03T15:04:29Z</time>
      </trkpt>
      <trkpt lat="49.28309" lon="-0.13661">
        <ele>8</ele>
        <time>2024-07-03T15:04:30Z</time>
      </trkpt>
      <trkpt lat="49.28309" lon="-0.1366">
        <ele>8</ele>
        <time>2024-07-03T15:04:31Z</time>
      </trkpt>
      <trkpt lat="49.2831" lon="-0.13659">
        <ele>8</ele>
        <time>2024-07-03T15:04:32Z</time>
      </trkpt>
      <trkpt lat="49.2831" lon="-0.13658">
        <ele>8</ele>
        <time>2024-07-03T15:04:33Z</time>
      </trkpt>
      <trkpt lat="49.2831" lon="-0.13655">
        <ele>8</ele>
        <time>2024-07-03T15:04:34Z</time>
      </trkpt>
      <trkpt lat="49.28309" lon="-0.13652">
        <ele>8</ele>
        <time>2024-07-03T15:04:35Z</time>
      </trkpt>
      <trkpt lat="49.28309" lon="-0.13648">
        <ele>8</ele>
        <time>2024-07-03T15:04:36Z</time>
      </trkpt>
      <trkpt lat="49.28308" lon="-0.13643">
        <ele>8</ele>
        <time>2024-07-03T15:04:37Z</time>
      </trkpt>
      <trkpt lat="49.28308" lon="-0.13637">
        <ele>8</ele>
        <time>2024-07-03T15:04:38Z</time>
      </trkpt>
      <trkpt lat="49.28309" lon="-0.13632">
        <ele>8</ele>
        <time>2024-07-03T15:04:39Z</time>
      </trkpt>
      <trkpt lat="49.28311" lon="-0.13626">
        <ele>8</ele>
        <time>2024-07-03T15:04:40Z</time>
      </trkpt>
      <trkpt lat="49.28315" lon="-0.1362">
        <ele>8</ele>
        <time>2024-07-03T15:04:41Z</time>
      </trkpt>
      <trkpt lat="49.28318" lon="-0.13614">
        <ele>8</ele>
        <time>2024-07-03T15:04:42Z</time>
      </trkpt>
    </trkseg>
  </trk>
</gpx>